<?xml version="1.0" encoding="utf-8" standalone="yes"?>
<gpx version="1.1" creator="Locus Map, Android"
 xmlns="http://www.topografix.com/GPX/1/1"
 xmlns:xsi="http://www.w3.org/2001/XMLSchema-instance"
 xsi:schemaLocation="http://www.topografix.com/GPX/1/1 http://www.topografix.com/GPX/1/1/gpx.xsd"
 xmlns:gpxx="http://www.garmin.com/xmlschemas/GpxExtensions/v3"
 xmlns:gpxtrkx="http://www.garmin.com/xmlschemas/TrackStatsExtension/v1"
 xmlns:gpxtpx="http://www.garmin.com/xmlschemas/TrackPointExtension/v2"
 xmlns:locus="http://www.locusmap.eu">
	<metadata>
		<desc>File with points/tracks from Locus Map Classic/3.70.16</desc>
		<time>2025-08-16T16:03:02.922Z</time>
	</metadata>
<trk>
<name>Morning Aug 16th</name>
	<extensions>
		<line xmlns="http://www.topografix.com/GPX/gpx_style/0/2">
			<color>0000FF</color>
			<opacity>0.59</opacity>
			<width>6.0</width>
			<extensions>
				<locus:lsColorBase>#960000FF</locus:lsColorBase>
				<locus:lsWidth>6.0</locus:lsWidth>
				<locus:lsUnits>PIXELS</locus:lsUnits>
			</extensions>
		</line>
	</extensions>
<trkseg>
<trkpt lat="45.9545000" lon="10.2027930">
	<ele>961.00</ele>
	<time>2025-08-16T05:37:20.000Z</time>
</trkpt>
<trkpt lat="45.9544990" lon="10.2027930">
	<ele>961.00</ele>
	<time>2025-08-16T05:37:21.000Z</time>
</trkpt>
<trkpt lat="45.9544990" lon="10.2027940">
	<ele>961.00</ele>
	<time>2025-08-16T05:37:22.000Z</time>
</trkpt>
<trkpt lat="45.9544990" lon="10.2027950">
	<ele>961.00</ele>
	<time>2025-08-16T05:37:23.000Z</time>
</trkpt>
<trkpt lat="45.9544990" lon="10.2027970">
	<ele>961.00</ele>
	<time>2025-08-16T05:37:24.000Z</time>
</trkpt>
<trkpt lat="45.9544990" lon="10.2027990">
	<ele>961.00</ele>
	<time>2025-08-16T05:37:25.000Z</time>
</trkpt>
<trkpt lat="45.9544980" lon="10.2027990">
	<ele>961.00</ele>
	<time>2025-08-16T05:37:26.000Z</time>
</trkpt>
<trkpt lat="45.9544940" lon="10.2027970">
	<ele>961.00</ele>
	<time>2025-08-16T05:37:27.000Z</time>
</trkpt>
<trkpt lat="45.9544810" lon="10.2027840">
	<ele>961.00</ele>
	<time>2025-08-16T05:37:28.000Z</time>
</trkpt>
<trkpt lat="45.9544690" lon="10.2027700">
	<ele>961.00</ele>
	<time>2025-08-16T05:37:29.000Z</time>
</trkpt>
<trkpt lat="45.9544590" lon="10.2027570">
	<ele>961.00</ele>
	<time>2025-08-16T05:37:30.000Z</time>
</trkpt>
<trkpt lat="45.9544540" lon="10.2027460">
	<ele>961.00</ele>
	<time>2025-08-16T05:37:31.000Z</time>
</trkpt>
<trkpt lat="45.9544490" lon="10.2027400">
	<ele>961.00</ele>
	<time>2025-08-16T05:37:32.000Z</time>
</trkpt>
<trkpt lat="45.9544400" lon="10.2027360">
	<ele>961.00</ele>
	<time>2025-08-16T05:37:33.000Z</time>
</trkpt>
<trkpt lat="45.9544350" lon="10.2027310">
	<ele>961.00</ele>
	<time>2025-08-16T05:37:34.000Z</time>
</trkpt>
<trkpt lat="45.9544290" lon="10.2027240">
	<ele>961.00</ele>
	<time>2025-08-16T05:37:35.000Z</time>
</trkpt>
<trkpt lat="45.9544240" lon="10.2027130">
	<ele>961.00</ele>
	<time>2025-08-16T05:37:36.000Z</time>
</trkpt>
<trkpt lat="45.9544260" lon="10.2026990">
	<ele>961.00</ele>
	<time>2025-08-16T05:37:37.000Z</time>
</trkpt>
<trkpt lat="45.9544280" lon="10.2026870">
	<ele>961.00</ele>
	<time>2025-08-16T05:37:38.000Z</time>
</trkpt>
<trkpt lat="45.9544320" lon="10.2026740">
	<ele>961.00</ele>
	<time>2025-08-16T05:37:39.000Z</time>
</trkpt>
<trkpt lat="45.9544370" lon="10.2026630">
	<ele>961.00</ele>
	<time>2025-08-16T05:37:40.000Z</time>
</trkpt>
<trkpt lat="45.9544370" lon="10.2026530">
	<ele>961.00</ele>
	<time>2025-08-16T05:37:41.000Z</time>
</trkpt>
<trkpt lat="45.9544420" lon="10.2026430">
	<ele>961.00</ele>
	<time>2025-08-16T05:37:42.000Z</time>
</trkpt>
<trkpt lat="45.9544490" lon="10.2026360">
	<ele>961.00</ele>
	<time>2025-08-16T05:37:43.000Z</time>
</trkpt>
<trkpt lat="45.9544590" lon="10.2026300">
	<ele>961.00</ele>
	<time>2025-08-16T05:37:44.000Z</time>
</trkpt>
<trkpt lat="45.9544680" lon="10.2026250">
	<ele>961.00</ele>
	<time>2025-08-16T05:37:45.000Z</time>
</trkpt>
<trkpt lat="45.9544800" lon="10.2026230">
	<ele>961.00</ele>
	<time>2025-08-16T05:37:46.000Z</time>
</trkpt>
<trkpt lat="45.9544910" lon="10.2026200">
	<ele>961.00</ele>
	<time>2025-08-16T05:37:47.000Z</time>
</trkpt>
<trkpt lat="45.9544990" lon="10.2026210">
	<ele>961.00</ele>
	<time>2025-08-16T05:37:48.000Z</time>
</trkpt>
<trkpt lat="45.9545090" lon="10.2026170">
	<ele>961.00</ele>
	<time>2025-08-16T05:37:49.000Z</time>
</trkpt>
<trkpt lat="45.9545200" lon="10.2026170">
	<ele>961.00</ele>
	<time>2025-08-16T05:37:50.000Z</time>
</trkpt>
<trkpt lat="45.9545230" lon="10.2026170">
	<ele>961.00</ele>
	<time>2025-08-16T05:37:51.000Z</time>
</trkpt>
<trkpt lat="45.9545270" lon="10.2026160">
	<ele>961.00</ele>
	<time>2025-08-16T05:37:52.000Z</time>
</trkpt>
<trkpt lat="45.9545310" lon="10.2026160">
	<ele>961.00</ele>
	<time>2025-08-16T05:37:53.000Z</time>
</trkpt>
<trkpt lat="45.9545360" lon="10.2026150">
	<ele>961.00</ele>
	<time>2025-08-16T05:37:54.000Z</time>
</trkpt>
<trkpt lat="45.9545410" lon="10.2026140">
	<ele>961.00</ele>
	<time>2025-08-16T05:37:55.000Z</time>
</trkpt>
<trkpt lat="45.9545480" lon="10.2026140">
	<ele>961.00</ele>
	<time>2025-08-16T05:37:56.000Z</time>
</trkpt>
<trkpt lat="45.9545520" lon="10.2026090">
	<ele>961.00</ele>
	<time>2025-08-16T05:37:57.000Z</time>
</trkpt>
<trkpt lat="45.9545600" lon="10.2025990">
	<ele>961.00</ele>
	<time>2025-08-16T05:37:58.000Z</time>
</trkpt>
<trkpt lat="45.9545640" lon="10.2025900">
	<ele>961.00</ele>
	<time>2025-08-16T05:37:59.000Z</time>
</trkpt>
<trkpt lat="45.9545690" lon="10.2025850">
	<ele>961.00</ele>
	<time>2025-08-16T05:38:00.000Z</time>
</trkpt>
<trkpt lat="45.9545720" lon="10.2025840">
	<ele>961.00</ele>
	<time>2025-08-16T05:38:01.000Z</time>
</trkpt>
<trkpt lat="45.9545740" lon="10.2025900">
	<ele>961.00</ele>
	<time>2025-08-16T05:38:02.000Z</time>
</trkpt>
<trkpt lat="45.9545750" lon="10.2025960">
	<ele>961.00</ele>
	<time>2025-08-16T05:38:03.000Z</time>
</trkpt>
<trkpt lat="45.9545750" lon="10.2026010">
	<ele>961.00</ele>
	<time>2025-08-16T05:38:04.000Z</time>
</trkpt>
<trkpt lat="45.9545730" lon="10.2025980">
	<ele>961.00</ele>
	<time>2025-08-16T05:38:05.000Z</time>
</trkpt>
<trkpt lat="45.9545740" lon="10.2025940">
	<ele>961.00</ele>
	<time>2025-08-16T05:38:06.000Z</time>
</trkpt>
<trkpt lat="45.9545730" lon="10.2025910">
	<ele>961.00</ele>
	<time>2025-08-16T05:38:07.000Z</time>
</trkpt>
<trkpt lat="45.9545720" lon="10.2025890">
	<ele>961.00</ele>
	<time>2025-08-16T05:38:08.000Z</time>
</trkpt>
<trkpt lat="45.9545740" lon="10.2025900">
	<ele>961.00</ele>
	<time>2025-08-16T05:38:09.000Z</time>
</trkpt>
<trkpt lat="45.9545750" lon="10.2025940">
	<ele>961.00</ele>
	<time>2025-08-16T05:38:10.000Z</time>
</trkpt>
<trkpt lat="45.9545750" lon="10.2025940">
	<ele>961.00</ele>
	<time>2025-08-16T05:38:11.000Z</time>
</trkpt>
<trkpt lat="45.9545750" lon="10.2025940">
	<ele>961.00</ele>
	<time>2025-08-16T05:38:12.000Z</time>
</trkpt>
<trkpt lat="45.9545750" lon="10.2025940">
	<ele>961.00</ele>
	<time>2025-08-16T05:38:13.000Z</time>
</trkpt>
<trkpt lat="45.9545750" lon="10.2025940">
	<ele>961.00</ele>
	<time>2025-08-16T05:38:14.000Z</time>
</trkpt>
<trkpt lat="45.9545750" lon="10.2025940">
	<ele>961.00</ele>
	<time>2025-08-16T05:38:15.000Z</time>
</trkpt>
<trkpt lat="45.9545750" lon="10.2025940">
	<ele>961.00</ele>
	<time>2025-08-16T05:38:16.000Z</time>
</trkpt>
<trkpt lat="45.9545750" lon="10.2025940">
	<ele>961.00</ele>
	<time>2025-08-16T05:38:17.000Z</time>
</trkpt>
<trkpt lat="45.9545750" lon="10.2025940">
	<ele>961.00</ele>
	<time>2025-08-16T05:38:18.000Z</time>
</trkpt>
<trkpt lat="45.9545750" lon="10.2025940">
	<ele>961.00</ele>
	<time>2025-08-16T05:38:19.000Z</time>
</trkpt>
<trkpt lat="45.9545750" lon="10.2025940">
	<ele>961.00</ele>
	<time>2025-08-16T05:38:20.000Z</time>
</trkpt>
<trkpt lat="45.9545780" lon="10.2025910">
	<ele>961.00</ele>
	<time>2025-08-16T05:38:21.000Z</time>
</trkpt>
<trkpt lat="45.9545870" lon="10.2025810">
	<ele>964.60</ele>
	<time>2025-08-16T05:38:22.000Z</time>
</trkpt>
<trkpt lat="45.9546000" lon="10.2025690">
	<ele>964.60</ele>
	<time>2025-08-16T05:38:23.000Z</time>
</trkpt>
<trkpt lat="45.9546070" lon="10.2025610">
	<ele>964.60</ele>
	<time>2025-08-16T05:38:24.000Z</time>
</trkpt>
<trkpt lat="45.9546170" lon="10.2025480">
	<ele>964.60</ele>
	<time>2025-08-16T05:38:25.000Z</time>
</trkpt>
<trkpt lat="45.9546260" lon="10.2025370">
	<ele>964.60</ele>
	<time>2025-08-16T05:38:26.000Z</time>
</trkpt>
<trkpt lat="45.9546360" lon="10.2025280">
	<ele>964.80</ele>
	<time>2025-08-16T05:38:27.000Z</time>
</trkpt>
<trkpt lat="45.9546470" lon="10.2025160">
	<ele>965.00</ele>
	<time>2025-08-16T05:38:28.000Z</time>
</trkpt>
<trkpt lat="45.9546570" lon="10.2025030">
	<ele>965.00</ele>
	<time>2025-08-16T05:38:29.000Z</time>
</trkpt>
<trkpt lat="45.9546680" lon="10.2024920">
	<ele>965.20</ele>
	<time>2025-08-16T05:38:30.000Z</time>
</trkpt>
<trkpt lat="45.9546760" lon="10.2024850">
	<ele>965.20</ele>
	<time>2025-08-16T05:38:31.000Z</time>
</trkpt>
<trkpt lat="45.9546840" lon="10.2024780">
	<ele>965.40</ele>
	<time>2025-08-16T05:38:32.000Z</time>
</trkpt>
<trkpt lat="45.9546880" lon="10.2024680">
	<ele>965.60</ele>
	<time>2025-08-16T05:38:33.000Z</time>
</trkpt>
<trkpt lat="45.9547000" lon="10.2024570">
	<ele>966.00</ele>
	<time>2025-08-16T05:38:34.000Z</time>
</trkpt>
<trkpt lat="45.9547120" lon="10.2024530">
	<ele>966.20</ele>
	<time>2025-08-16T05:38:35.000Z</time>
</trkpt>
<trkpt lat="45.9547170" lon="10.2024500">
	<ele>966.40</ele>
	<time>2025-08-16T05:38:36.000Z</time>
</trkpt>
<trkpt lat="45.9547210" lon="10.2024430">
	<ele>966.60</ele>
	<time>2025-08-16T05:38:37.000Z</time>
</trkpt>
<trkpt lat="45.9547230" lon="10.2024330">
	<ele>966.80</ele>
	<time>2025-08-16T05:38:38.000Z</time>
</trkpt>
<trkpt lat="45.9547250" lon="10.2024110">
	<ele>967.00</ele>
	<time>2025-08-16T05:38:39.000Z</time>
</trkpt>
<trkpt lat="45.9547300" lon="10.2023990">
	<ele>967.00</ele>
	<time>2025-08-16T05:38:40.000Z</time>
</trkpt>
<trkpt lat="45.9547410" lon="10.2023900">
	<ele>967.00</ele>
	<time>2025-08-16T05:38:41.000Z</time>
</trkpt>
<trkpt lat="45.9547500" lon="10.2023840">
	<ele>967.40</ele>
	<time>2025-08-16T05:38:42.000Z</time>
</trkpt>
<trkpt lat="45.9547530" lon="10.2023850">
	<ele>967.40</ele>
	<time>2025-08-16T05:38:43.000Z</time>
</trkpt>
<trkpt lat="45.9547610" lon="10.2023740">
	<ele>967.60</ele>
	<time>2025-08-16T05:38:44.000Z</time>
</trkpt>
<trkpt lat="45.9547630" lon="10.2023640">
	<ele>967.60</ele>
	<time>2025-08-16T05:38:45.000Z</time>
</trkpt>
<trkpt lat="45.9547620" lon="10.2023480">
	<ele>967.80</ele>
	<time>2025-08-16T05:38:46.000Z</time>
</trkpt>
<trkpt lat="45.9547650" lon="10.2023370">
	<ele>968.00</ele>
	<time>2025-08-16T05:38:47.000Z</time>
</trkpt>
<trkpt lat="45.9547680" lon="10.2023330">
	<ele>968.20</ele>
	<time>2025-08-16T05:38:48.000Z</time>
</trkpt>
<trkpt lat="45.9547740" lon="10.2023290">
	<ele>968.60</ele>
	<time>2025-08-16T05:38:49.000Z</time>
</trkpt>
<trkpt lat="45.9547840" lon="10.2023240">
	<ele>968.80</ele>
	<time>2025-08-16T05:38:50.000Z</time>
</trkpt>
<trkpt lat="45.9547900" lon="10.2023200">
	<ele>968.80</ele>
	<time>2025-08-16T05:38:51.000Z</time>
</trkpt>
<trkpt lat="45.9548000" lon="10.2023130">
	<ele>968.80</ele>
	<time>2025-08-16T05:38:52.000Z</time>
</trkpt>
<trkpt lat="45.9548030" lon="10.2023070">
	<ele>969.00</ele>
	<time>2025-08-16T05:38:53.000Z</time>
</trkpt>
<trkpt lat="45.9548100" lon="10.2023040">
	<ele>969.20</ele>
	<time>2025-08-16T05:38:54.000Z</time>
</trkpt>
<trkpt lat="45.9548150" lon="10.2022970">
	<ele>969.20</ele>
	<time>2025-08-16T05:38:55.000Z</time>
</trkpt>
<trkpt lat="45.9548220" lon="10.2022890">
	<ele>969.40</ele>
	<time>2025-08-16T05:38:56.000Z</time>
</trkpt>
<trkpt lat="45.9548340" lon="10.2022780">
	<ele>969.60</ele>
	<time>2025-08-16T05:38:57.000Z</time>
</trkpt>
<trkpt lat="45.9548410" lon="10.2022700">
	<ele>969.80</ele>
	<time>2025-08-16T05:38:58.000Z</time>
</trkpt>
<trkpt lat="45.9548480" lon="10.2022650">
	<ele>970.00</ele>
	<time>2025-08-16T05:38:59.000Z</time>
</trkpt>
<trkpt lat="45.9548580" lon="10.2022590">
	<ele>970.20</ele>
	<time>2025-08-16T05:39:00.000Z</time>
</trkpt>
<trkpt lat="45.9548670" lon="10.2022520">
	<ele>970.40</ele>
	<time>2025-08-16T05:39:01.000Z</time>
</trkpt>
<trkpt lat="45.9548770" lon="10.2022450">
	<ele>970.60</ele>
	<time>2025-08-16T05:39:02.000Z</time>
</trkpt>
<trkpt lat="45.9548840" lon="10.2022400">
	<ele>971.00</ele>
	<time>2025-08-16T05:39:03.000Z</time>
</trkpt>
<trkpt lat="45.9548880" lon="10.2022390">
	<ele>971.20</ele>
	<time>2025-08-16T05:39:04.000Z</time>
</trkpt>
<trkpt lat="45.9548930" lon="10.2022330">
	<ele>971.40</ele>
	<time>2025-08-16T05:39:05.000Z</time>
</trkpt>
<trkpt lat="45.9548990" lon="10.2022250">
	<ele>971.60</ele>
	<time>2025-08-16T05:39:06.000Z</time>
</trkpt>
<trkpt lat="45.9549060" lon="10.2022170">
	<ele>971.60</ele>
	<time>2025-08-16T05:39:07.000Z</time>
</trkpt>
<trkpt lat="45.9549180" lon="10.2022110">
	<ele>971.60</ele>
	<time>2025-08-16T05:39:08.000Z</time>
</trkpt>
<trkpt lat="45.9549250" lon="10.2022060">
	<ele>972.00</ele>
	<time>2025-08-16T05:39:09.000Z</time>
</trkpt>
<trkpt lat="45.9549390" lon="10.2022030">
	<ele>972.00</ele>
	<time>2025-08-16T05:39:10.000Z</time>
</trkpt>
<trkpt lat="45.9549470" lon="10.2022030">
	<ele>972.20</ele>
	<time>2025-08-16T05:39:11.000Z</time>
</trkpt>
<trkpt lat="45.9549580" lon="10.2021940">
	<ele>972.40</ele>
	<time>2025-08-16T05:39:12.000Z</time>
</trkpt>
<trkpt lat="45.9549680" lon="10.2021890">
	<ele>972.60</ele>
	<time>2025-08-16T05:39:13.000Z</time>
</trkpt>
<trkpt lat="45.9549850" lon="10.2021820">
	<ele>972.60</ele>
	<time>2025-08-16T05:39:14.000Z</time>
</trkpt>
<trkpt lat="45.9549980" lon="10.2021790">
	<ele>972.80</ele>
	<time>2025-08-16T05:39:15.000Z</time>
</trkpt>
<trkpt lat="45.9550090" lon="10.2021800">
	<ele>973.00</ele>
	<time>2025-08-16T05:39:16.000Z</time>
</trkpt>
<trkpt lat="45.9550160" lon="10.2021770">
	<ele>973.20</ele>
	<time>2025-08-16T05:39:17.000Z</time>
</trkpt>
<trkpt lat="45.9550300" lon="10.2021790">
	<ele>973.40</ele>
	<time>2025-08-16T05:39:18.000Z</time>
</trkpt>
<trkpt lat="45.9550440" lon="10.2021800">
	<ele>973.60</ele>
	<time>2025-08-16T05:39:19.000Z</time>
</trkpt>
<trkpt lat="45.9550550" lon="10.2021770">
	<ele>973.80</ele>
	<time>2025-08-16T05:39:20.000Z</time>
</trkpt>
<trkpt lat="45.9550630" lon="10.2021740">
	<ele>974.00</ele>
	<time>2025-08-16T05:39:21.000Z</time>
</trkpt>
<trkpt lat="45.9550740" lon="10.2021710">
	<ele>974.20</ele>
	<time>2025-08-16T05:39:22.000Z</time>
</trkpt>
<trkpt lat="45.9550820" lon="10.2021710">
	<ele>974.20</ele>
	<time>2025-08-16T05:39:23.000Z</time>
</trkpt>
<trkpt lat="45.9550950" lon="10.2021700">
	<ele>974.40</ele>
	<time>2025-08-16T05:39:24.000Z</time>
</trkpt>
<trkpt lat="45.9551100" lon="10.2021660">
	<ele>974.60</ele>
	<time>2025-08-16T05:39:25.000Z</time>
</trkpt>
<trkpt lat="45.9551190" lon="10.2021600">
	<ele>974.80</ele>
	<time>2025-08-16T05:39:26.000Z</time>
</trkpt>
<trkpt lat="45.9551240" lon="10.2021540">
	<ele>975.00</ele>
	<time>2025-08-16T05:39:27.000Z</time>
</trkpt>
<trkpt lat="45.9551350" lon="10.2021500">
	<ele>975.20</ele>
	<time>2025-08-16T05:39:28.000Z</time>
</trkpt>
<trkpt lat="45.9551460" lon="10.2021500">
	<ele>975.20</ele>
	<time>2025-08-16T05:39:29.000Z</time>
</trkpt>
<trkpt lat="45.9551550" lon="10.2021520">
	<ele>975.40</ele>
	<time>2025-08-16T05:39:30.000Z</time>
</trkpt>
<trkpt lat="45.9551620" lon="10.2021530">
	<ele>975.60</ele>
	<time>2025-08-16T05:39:31.000Z</time>
</trkpt>
<trkpt lat="45.9551730" lon="10.2021470">
	<ele>975.80</ele>
	<time>2025-08-16T05:39:32.000Z</time>
</trkpt>
<trkpt lat="45.9551860" lon="10.2021420">
	<ele>975.80</ele>
	<time>2025-08-16T05:39:33.000Z</time>
</trkpt>
<trkpt lat="45.9552000" lon="10.2021370">
	<ele>976.00</ele>
	<time>2025-08-16T05:39:34.000Z</time>
</trkpt>
<trkpt lat="45.9552080" lon="10.2021330">
	<ele>976.20</ele>
	<time>2025-08-16T05:39:35.000Z</time>
</trkpt>
<trkpt lat="45.9552180" lon="10.2021340">
	<ele>976.40</ele>
	<time>2025-08-16T05:39:36.000Z</time>
</trkpt>
<trkpt lat="45.9552280" lon="10.2021360">
	<ele>976.40</ele>
	<time>2025-08-16T05:39:37.000Z</time>
</trkpt>
<trkpt lat="45.9552370" lon="10.2021390">
	<ele>976.60</ele>
	<time>2025-08-16T05:39:38.000Z</time>
</trkpt>
<trkpt lat="45.9552430" lon="10.2021380">
	<ele>976.60</ele>
	<time>2025-08-16T05:39:39.000Z</time>
</trkpt>
<trkpt lat="45.9552510" lon="10.2021310">
	<ele>976.80</ele>
	<time>2025-08-16T05:39:40.000Z</time>
</trkpt>
<trkpt lat="45.9552590" lon="10.2021220">
	<ele>977.00</ele>
	<time>2025-08-16T05:39:41.000Z</time>
</trkpt>
<trkpt lat="45.9552690" lon="10.2021180">
	<ele>977.20</ele>
	<time>2025-08-16T05:39:42.000Z</time>
</trkpt>
<trkpt lat="45.9552810" lon="10.2021080">
	<ele>977.20</ele>
	<time>2025-08-16T05:39:43.000Z</time>
</trkpt>
<trkpt lat="45.9552930" lon="10.2021000">
	<ele>977.40</ele>
	<time>2025-08-16T05:39:44.000Z</time>
</trkpt>
<trkpt lat="45.9553010" lon="10.2020820">
	<ele>977.60</ele>
	<time>2025-08-16T05:39:45.000Z</time>
</trkpt>
<trkpt lat="45.9553050" lon="10.2020700">
	<ele>977.80</ele>
	<time>2025-08-16T05:39:46.000Z</time>
</trkpt>
<trkpt lat="45.9553090" lon="10.2020650">
	<ele>978.00</ele>
	<time>2025-08-16T05:39:47.000Z</time>
</trkpt>
<trkpt lat="45.9553150" lon="10.2020590">
	<ele>978.00</ele>
	<time>2025-08-16T05:39:48.000Z</time>
</trkpt>
<trkpt lat="45.9553200" lon="10.2020490">
	<ele>978.20</ele>
	<time>2025-08-16T05:39:49.000Z</time>
</trkpt>
<trkpt lat="45.9553250" lon="10.2020380">
	<ele>978.40</ele>
	<time>2025-08-16T05:39:50.000Z</time>
</trkpt>
<trkpt lat="45.9553300" lon="10.2020210">
	<ele>978.60</ele>
	<time>2025-08-16T05:39:51.000Z</time>
</trkpt>
<trkpt lat="45.9553380" lon="10.2020090">
	<ele>978.60</ele>
	<time>2025-08-16T05:39:52.000Z</time>
</trkpt>
<trkpt lat="45.9553450" lon="10.2020020">
	<ele>978.80</ele>
	<time>2025-08-16T05:39:53.000Z</time>
</trkpt>
<trkpt lat="45.9553560" lon="10.2019900">
	<ele>979.00</ele>
	<time>2025-08-16T05:39:54.000Z</time>
</trkpt>
<trkpt lat="45.9553620" lon="10.2019780">
	<ele>979.00</ele>
	<time>2025-08-16T05:39:55.000Z</time>
</trkpt>
<trkpt lat="45.9553690" lon="10.2019690">
	<ele>979.20</ele>
	<time>2025-08-16T05:39:56.000Z</time>
</trkpt>
<trkpt lat="45.9553680" lon="10.2019620">
	<ele>979.60</ele>
	<time>2025-08-16T05:39:57.000Z</time>
</trkpt>
<trkpt lat="45.9553690" lon="10.2019560">
	<ele>979.60</ele>
	<time>2025-08-16T05:39:58.000Z</time>
</trkpt>
<trkpt lat="45.9553760" lon="10.2019480">
	<ele>979.80</ele>
	<time>2025-08-16T05:39:59.000Z</time>
</trkpt>
<trkpt lat="45.9553820" lon="10.2019350">
	<ele>980.20</ele>
	<time>2025-08-16T05:40:00.000Z</time>
</trkpt>
<trkpt lat="45.9553890" lon="10.2019260">
	<ele>980.20</ele>
	<time>2025-08-16T05:40:01.000Z</time>
</trkpt>
<trkpt lat="45.9553950" lon="10.2019170">
	<ele>980.40</ele>
	<time>2025-08-16T05:40:02.000Z</time>
</trkpt>
<trkpt lat="45.9553970" lon="10.2019060">
	<ele>980.80</ele>
	<time>2025-08-16T05:40:03.000Z</time>
</trkpt>
<trkpt lat="45.9554000" lon="10.2018950">
	<ele>981.00</ele>
	<time>2025-08-16T05:40:04.000Z</time>
</trkpt>
<trkpt lat="45.9554030" lon="10.2018840">
	<ele>981.20</ele>
	<time>2025-08-16T05:40:05.000Z</time>
</trkpt>
<trkpt lat="45.9554080" lon="10.2018770">
	<ele>981.40</ele>
	<time>2025-08-16T05:40:06.000Z</time>
</trkpt>
<trkpt lat="45.9554140" lon="10.2018630">
	<ele>981.60</ele>
	<time>2025-08-16T05:40:07.000Z</time>
</trkpt>
<trkpt lat="45.9554170" lon="10.2018520">
	<ele>981.80</ele>
	<time>2025-08-16T05:40:08.000Z</time>
</trkpt>
<trkpt lat="45.9554230" lon="10.2018430">
	<ele>982.00</ele>
	<time>2025-08-16T05:40:09.000Z</time>
</trkpt>
<trkpt lat="45.9554310" lon="10.2018310">
	<ele>982.20</ele>
	<time>2025-08-16T05:40:10.000Z</time>
</trkpt>
<trkpt lat="45.9554380" lon="10.2018180">
	<ele>982.20</ele>
	<time>2025-08-16T05:40:11.000Z</time>
</trkpt>
<trkpt lat="45.9554440" lon="10.2018050">
	<ele>982.60</ele>
	<time>2025-08-16T05:40:12.000Z</time>
</trkpt>
<trkpt lat="45.9554460" lon="10.2017940">
	<ele>982.80</ele>
	<time>2025-08-16T05:40:13.000Z</time>
</trkpt>
<trkpt lat="45.9554440" lon="10.2017790">
	<ele>982.80</ele>
	<time>2025-08-16T05:40:14.000Z</time>
</trkpt>
<trkpt lat="45.9554570" lon="10.2017460">
	<ele>983.00</ele>
	<time>2025-08-16T05:40:15.000Z</time>
</trkpt>
<trkpt lat="45.9554610" lon="10.2017330">
	<ele>983.20</ele>
	<time>2025-08-16T05:40:16.000Z</time>
</trkpt>
<trkpt lat="45.9554650" lon="10.2017240">
	<ele>983.40</ele>
	<time>2025-08-16T05:40:17.000Z</time>
</trkpt>
<trkpt lat="45.9554700" lon="10.2017140">
	<ele>983.60</ele>
	<time>2025-08-16T05:40:18.000Z</time>
</trkpt>
<trkpt lat="45.9554730" lon="10.2017030">
	<ele>983.80</ele>
	<time>2025-08-16T05:40:19.000Z</time>
</trkpt>
<trkpt lat="45.9554830" lon="10.2016920">
	<ele>984.20</ele>
	<time>2025-08-16T05:40:20.000Z</time>
</trkpt>
<trkpt lat="45.9554900" lon="10.2016810">
	<ele>984.40</ele>
	<time>2025-08-16T05:40:21.000Z</time>
</trkpt>
<trkpt lat="45.9554880" lon="10.2016680">
	<ele>984.40</ele>
	<time>2025-08-16T05:40:22.000Z</time>
</trkpt>
<trkpt lat="45.9554880" lon="10.2016580">
	<ele>984.60</ele>
	<time>2025-08-16T05:40:23.000Z</time>
</trkpt>
<trkpt lat="45.9554950" lon="10.2016460">
	<ele>984.80</ele>
	<time>2025-08-16T05:40:24.000Z</time>
</trkpt>
<trkpt lat="45.9555030" lon="10.2016360">
	<ele>985.00</ele>
	<time>2025-08-16T05:40:25.000Z</time>
</trkpt>
<trkpt lat="45.9555090" lon="10.2016250">
	<ele>985.40</ele>
	<time>2025-08-16T05:40:26.000Z</time>
</trkpt>
<trkpt lat="45.9555200" lon="10.2016180">
	<ele>985.60</ele>
	<time>2025-08-16T05:40:27.000Z</time>
</trkpt>
<trkpt lat="45.9555340" lon="10.2016060">
	<ele>985.80</ele>
	<time>2025-08-16T05:40:28.000Z</time>
</trkpt>
<trkpt lat="45.9555350" lon="10.2015930">
	<ele>986.00</ele>
	<time>2025-08-16T05:40:29.000Z</time>
</trkpt>
<trkpt lat="45.9555430" lon="10.2015850">
	<ele>986.20</ele>
	<time>2025-08-16T05:40:30.000Z</time>
</trkpt>
<trkpt lat="45.9555510" lon="10.2015760">
	<ele>986.40</ele>
	<time>2025-08-16T05:40:31.000Z</time>
</trkpt>
<trkpt lat="45.9555590" lon="10.2015670">
	<ele>986.60</ele>
	<time>2025-08-16T05:40:32.000Z</time>
</trkpt>
<trkpt lat="45.9555620" lon="10.2015570">
	<ele>986.80</ele>
	<time>2025-08-16T05:40:33.000Z</time>
</trkpt>
<trkpt lat="45.9555710" lon="10.2015460">
	<ele>987.00</ele>
	<time>2025-08-16T05:40:34.000Z</time>
</trkpt>
<trkpt lat="45.9555770" lon="10.2015380">
	<ele>987.20</ele>
	<time>2025-08-16T05:40:35.000Z</time>
</trkpt>
<trkpt lat="45.9555820" lon="10.2015340">
	<ele>987.40</ele>
	<time>2025-08-16T05:40:36.000Z</time>
</trkpt>
<trkpt lat="45.9555850" lon="10.2015300">
	<ele>987.60</ele>
	<time>2025-08-16T05:40:37.000Z</time>
</trkpt>
<trkpt lat="45.9555930" lon="10.2015280">
	<ele>987.80</ele>
	<time>2025-08-16T05:40:38.000Z</time>
</trkpt>
<trkpt lat="45.9555900" lon="10.2015290">
	<ele>988.00</ele>
	<time>2025-08-16T05:40:39.000Z</time>
</trkpt>
<trkpt lat="45.9555940" lon="10.2015200">
	<ele>988.20</ele>
	<time>2025-08-16T05:40:40.000Z</time>
</trkpt>
<trkpt lat="45.9555990" lon="10.2015070">
	<ele>988.40</ele>
	<time>2025-08-16T05:40:41.000Z</time>
</trkpt>
<trkpt lat="45.9556060" lon="10.2014890">
	<ele>988.60</ele>
	<time>2025-08-16T05:40:42.000Z</time>
</trkpt>
<trkpt lat="45.9556120" lon="10.2014760">
	<ele>988.80</ele>
	<time>2025-08-16T05:40:43.000Z</time>
</trkpt>
<trkpt lat="45.9556140" lon="10.2014710">
	<ele>989.00</ele>
	<time>2025-08-16T05:40:44.000Z</time>
</trkpt>
<trkpt lat="45.9556210" lon="10.2014630">
	<ele>989.20</ele>
	<time>2025-08-16T05:40:45.000Z</time>
</trkpt>
<trkpt lat="45.9556360" lon="10.2014620">
	<ele>989.40</ele>
	<time>2025-08-16T05:40:46.000Z</time>
</trkpt>
<trkpt lat="45.9556430" lon="10.2014550">
	<ele>989.60</ele>
	<time>2025-08-16T05:40:47.000Z</time>
</trkpt>
<trkpt lat="45.9556390" lon="10.2014510">
	<ele>989.80</ele>
	<time>2025-08-16T05:40:48.000Z</time>
</trkpt>
<trkpt lat="45.9556440" lon="10.2014480">
	<ele>990.00</ele>
	<time>2025-08-16T05:40:49.000Z</time>
</trkpt>
<trkpt lat="45.9556440" lon="10.2014420">
	<ele>990.00</ele>
	<time>2025-08-16T05:40:50.000Z</time>
</trkpt>
<trkpt lat="45.9556440" lon="10.2014360">
	<ele>990.20</ele>
	<time>2025-08-16T05:40:51.000Z</time>
</trkpt>
<trkpt lat="45.9556460" lon="10.2014320">
	<ele>990.60</ele>
	<time>2025-08-16T05:40:52.000Z</time>
</trkpt>
<trkpt lat="45.9556510" lon="10.2014230">
	<ele>990.80</ele>
	<time>2025-08-16T05:40:53.000Z</time>
</trkpt>
<trkpt lat="45.9556570" lon="10.2014180">
	<ele>991.00</ele>
	<time>2025-08-16T05:40:54.000Z</time>
</trkpt>
<trkpt lat="45.9556690" lon="10.2014100">
	<ele>991.20</ele>
	<time>2025-08-16T05:40:55.000Z</time>
</trkpt>
<trkpt lat="45.9556770" lon="10.2014030">
	<ele>991.40</ele>
	<time>2025-08-16T05:40:56.000Z</time>
</trkpt>
<trkpt lat="45.9556820" lon="10.2013980">
	<ele>991.60</ele>
	<time>2025-08-16T05:40:57.000Z</time>
</trkpt>
<trkpt lat="45.9556910" lon="10.2013890">
	<ele>991.60</ele>
	<time>2025-08-16T05:40:58.000Z</time>
</trkpt>
<trkpt lat="45.9557000" lon="10.2013780">
	<ele>992.00</ele>
	<time>2025-08-16T05:40:59.000Z</time>
</trkpt>
<trkpt lat="45.9557030" lon="10.2013720">
	<ele>992.20</ele>
	<time>2025-08-16T05:41:00.000Z</time>
</trkpt>
<trkpt lat="45.9557060" lon="10.2013590">
	<ele>992.40</ele>
	<time>2025-08-16T05:41:01.000Z</time>
</trkpt>
<trkpt lat="45.9557020" lon="10.2013440">
	<ele>992.60</ele>
	<time>2025-08-16T05:41:02.000Z</time>
</trkpt>
<trkpt lat="45.9557100" lon="10.2013330">
	<ele>992.80</ele>
	<time>2025-08-16T05:41:03.000Z</time>
</trkpt>
<trkpt lat="45.9557200" lon="10.2013250">
	<ele>992.80</ele>
	<time>2025-08-16T05:41:04.000Z</time>
</trkpt>
<trkpt lat="45.9557310" lon="10.2013150">
	<ele>992.80</ele>
	<time>2025-08-16T05:41:05.000Z</time>
</trkpt>
<trkpt lat="45.9557360" lon="10.2013040">
	<ele>993.00</ele>
	<time>2025-08-16T05:41:06.000Z</time>
</trkpt>
<trkpt lat="45.9557470" lon="10.2012980">
	<ele>993.40</ele>
	<time>2025-08-16T05:41:07.000Z</time>
</trkpt>
<trkpt lat="45.9557530" lon="10.2012890">
	<ele>993.60</ele>
	<time>2025-08-16T05:41:08.000Z</time>
</trkpt>
<trkpt lat="45.9557580" lon="10.2012770">
	<ele>993.60</ele>
	<time>2025-08-16T05:41:09.000Z</time>
</trkpt>
<trkpt lat="45.9557620" lon="10.2012610">
	<ele>993.80</ele>
	<time>2025-08-16T05:41:10.000Z</time>
</trkpt>
<trkpt lat="45.9557680" lon="10.2012490">
	<ele>994.20</ele>
	<time>2025-08-16T05:41:11.000Z</time>
</trkpt>
<trkpt lat="45.9557690" lon="10.2012350">
	<ele>994.20</ele>
	<time>2025-08-16T05:41:12.000Z</time>
</trkpt>
<trkpt lat="45.9557690" lon="10.2012240">
	<ele>994.40</ele>
	<time>2025-08-16T05:41:13.000Z</time>
</trkpt>
<trkpt lat="45.9557630" lon="10.2012080">
	<ele>994.60</ele>
	<time>2025-08-16T05:41:14.000Z</time>
</trkpt>
<trkpt lat="45.9557600" lon="10.2011980">
	<ele>994.80</ele>
	<time>2025-08-16T05:41:15.000Z</time>
</trkpt>
<trkpt lat="45.9557610" lon="10.2011810">
	<ele>995.00</ele>
	<time>2025-08-16T05:41:16.000Z</time>
</trkpt>
<trkpt lat="45.9557640" lon="10.2011680">
	<ele>995.20</ele>
	<time>2025-08-16T05:41:17.000Z</time>
</trkpt>
<trkpt lat="45.9557670" lon="10.2011580">
	<ele>995.40</ele>
	<time>2025-08-16T05:41:18.000Z</time>
</trkpt>
<trkpt lat="45.9557690" lon="10.2011460">
	<ele>995.60</ele>
	<time>2025-08-16T05:41:19.000Z</time>
</trkpt>
<trkpt lat="45.9557710" lon="10.2011360">
	<ele>995.80</ele>
	<time>2025-08-16T05:41:20.000Z</time>
</trkpt>
<trkpt lat="45.9557750" lon="10.2011220">
	<ele>996.20</ele>
	<time>2025-08-16T05:41:21.000Z</time>
</trkpt>
<trkpt lat="45.9557770" lon="10.2011120">
	<ele>996.40</ele>
	<time>2025-08-16T05:41:22.000Z</time>
</trkpt>
<trkpt lat="45.9557810" lon="10.2011010">
	<ele>996.60</ele>
	<time>2025-08-16T05:41:23.000Z</time>
</trkpt>
<trkpt lat="45.9557870" lon="10.2010910">
	<ele>996.80</ele>
	<time>2025-08-16T05:41:24.000Z</time>
</trkpt>
<trkpt lat="45.9557970" lon="10.2010900">
	<ele>997.00</ele>
	<time>2025-08-16T05:41:25.000Z</time>
</trkpt>
<trkpt lat="45.9558020" lon="10.2010800">
	<ele>997.20</ele>
	<time>2025-08-16T05:41:26.000Z</time>
</trkpt>
<trkpt lat="45.9558000" lon="10.2010650">
	<ele>997.40</ele>
	<time>2025-08-16T05:41:27.000Z</time>
</trkpt>
<trkpt lat="45.9557970" lon="10.2010520">
	<ele>997.80</ele>
	<time>2025-08-16T05:41:28.000Z</time>
</trkpt>
<trkpt lat="45.9557970" lon="10.2010430">
	<ele>997.80</ele>
	<time>2025-08-16T05:41:29.000Z</time>
</trkpt>
<trkpt lat="45.9557960" lon="10.2010300">
	<ele>998.20</ele>
	<time>2025-08-16T05:41:30.000Z</time>
</trkpt>
<trkpt lat="45.9558030" lon="10.2010190">
	<ele>998.40</ele>
	<time>2025-08-16T05:41:31.000Z</time>
</trkpt>
<trkpt lat="45.9558100" lon="10.2010100">
	<ele>998.60</ele>
	<time>2025-08-16T05:41:32.000Z</time>
</trkpt>
<trkpt lat="45.9558180" lon="10.2009990">
	<ele>998.80</ele>
	<time>2025-08-16T05:41:33.000Z</time>
</trkpt>
<trkpt lat="45.9558200" lon="10.2009880">
	<ele>998.80</ele>
	<time>2025-08-16T05:41:34.000Z</time>
</trkpt>
<trkpt lat="45.9558230" lon="10.2009680">
	<ele>998.80</ele>
	<time>2025-08-16T05:41:35.000Z</time>
</trkpt>
<trkpt lat="45.9558220" lon="10.2009570">
	<ele>999.00</ele>
	<time>2025-08-16T05:41:36.000Z</time>
</trkpt>
<trkpt lat="45.9558190" lon="10.2009460">
	<ele>999.20</ele>
	<time>2025-08-16T05:41:37.000Z</time>
</trkpt>
<trkpt lat="45.9558190" lon="10.2009330">
	<ele>999.40</ele>
	<time>2025-08-16T05:41:38.000Z</time>
</trkpt>
<trkpt lat="45.9558200" lon="10.2009190">
	<ele>999.60</ele>
	<time>2025-08-16T05:41:39.000Z</time>
</trkpt>
<trkpt lat="45.9558280" lon="10.2009080">
	<ele>999.80</ele>
	<time>2025-08-16T05:41:40.000Z</time>
</trkpt>
<trkpt lat="45.9558320" lon="10.2008970">
	<ele>1000.00</ele>
	<time>2025-08-16T05:41:41.000Z</time>
</trkpt>
<trkpt lat="45.9558320" lon="10.2008830">
	<ele>1000.20</ele>
	<time>2025-08-16T05:41:42.000Z</time>
</trkpt>
<trkpt lat="45.9558340" lon="10.2008720">
	<ele>1000.20</ele>
	<time>2025-08-16T05:41:43.000Z</time>
</trkpt>
<trkpt lat="45.9558340" lon="10.2008610">
	<ele>1000.60</ele>
	<time>2025-08-16T05:41:44.000Z</time>
</trkpt>
<trkpt lat="45.9558370" lon="10.2008510">
	<ele>1000.60</ele>
	<time>2025-08-16T05:41:45.000Z</time>
</trkpt>
<trkpt lat="45.9558420" lon="10.2008390">
	<ele>1000.80</ele>
	<time>2025-08-16T05:41:46.000Z</time>
</trkpt>
<trkpt lat="45.9558470" lon="10.2008310">
	<ele>1001.00</ele>
	<time>2025-08-16T05:41:47.000Z</time>
</trkpt>
<trkpt lat="45.9558450" lon="10.2008180">
	<ele>1001.20</ele>
	<time>2025-08-16T05:41:48.000Z</time>
</trkpt>
<trkpt lat="45.9558440" lon="10.2008030">
	<ele>1001.60</ele>
	<time>2025-08-16T05:41:49.000Z</time>
</trkpt>
<trkpt lat="45.9558430" lon="10.2007920">
	<ele>1001.80</ele>
	<time>2025-08-16T05:41:50.000Z</time>
</trkpt>
<trkpt lat="45.9558420" lon="10.2007820">
	<ele>1002.00</ele>
	<time>2025-08-16T05:41:51.000Z</time>
</trkpt>
<trkpt lat="45.9558420" lon="10.2007710">
	<ele>1002.20</ele>
	<time>2025-08-16T05:41:52.000Z</time>
</trkpt>
<trkpt lat="45.9558400" lon="10.2007620">
	<ele>1002.60</ele>
	<time>2025-08-16T05:41:53.000Z</time>
</trkpt>
<trkpt lat="45.9558360" lon="10.2007570">
	<ele>1002.80</ele>
	<time>2025-08-16T05:41:54.000Z</time>
</trkpt>
<trkpt lat="45.9558340" lon="10.2007460">
	<ele>1003.00</ele>
	<time>2025-08-16T05:41:55.000Z</time>
</trkpt>
<trkpt lat="45.9558320" lon="10.2007330">
	<ele>1003.20</ele>
	<time>2025-08-16T05:41:56.000Z</time>
</trkpt>
<trkpt lat="45.9558300" lon="10.2007200">
	<ele>1003.40</ele>
	<time>2025-08-16T05:41:57.000Z</time>
</trkpt>
<trkpt lat="45.9558320" lon="10.2007100">
	<ele>1003.40</ele>
	<time>2025-08-16T05:41:58.000Z</time>
</trkpt>
<trkpt lat="45.9558400" lon="10.2006990">
	<ele>1003.40</ele>
	<time>2025-08-16T05:41:59.000Z</time>
</trkpt>
<trkpt lat="45.9558430" lon="10.2006930">
	<ele>1003.60</ele>
	<time>2025-08-16T05:42:00.000Z</time>
</trkpt>
<trkpt lat="45.9558500" lon="10.2006830">
	<ele>1003.80</ele>
	<time>2025-08-16T05:42:01.000Z</time>
</trkpt>
<trkpt lat="45.9558570" lon="10.2006710">
	<ele>1004.00</ele>
	<time>2025-08-16T05:42:02.000Z</time>
</trkpt>
<trkpt lat="45.9558640" lon="10.2006600">
	<ele>1004.20</ele>
	<time>2025-08-16T05:42:03.000Z</time>
</trkpt>
<trkpt lat="45.9558660" lon="10.2006520">
	<ele>1004.60</ele>
	<time>2025-08-16T05:42:04.000Z</time>
</trkpt>
<trkpt lat="45.9558700" lon="10.2006450">
	<ele>1004.80</ele>
	<time>2025-08-16T05:42:05.000Z</time>
</trkpt>
<trkpt lat="45.9558760" lon="10.2006350">
	<ele>1005.00</ele>
	<time>2025-08-16T05:42:06.000Z</time>
</trkpt>
<trkpt lat="45.9558800" lon="10.2006270">
	<ele>1005.20</ele>
	<time>2025-08-16T05:42:07.000Z</time>
</trkpt>
<trkpt lat="45.9558780" lon="10.2006180">
	<ele>1005.20</ele>
	<time>2025-08-16T05:42:08.000Z</time>
</trkpt>
<trkpt lat="45.9558760" lon="10.2006110">
	<ele>1005.40</ele>
	<time>2025-08-16T05:42:09.000Z</time>
</trkpt>
<trkpt lat="45.9558750" lon="10.2006030">
	<ele>1005.60</ele>
	<time>2025-08-16T05:42:10.000Z</time>
</trkpt>
<trkpt lat="45.9558780" lon="10.2005910">
	<ele>1005.80</ele>
	<time>2025-08-16T05:42:11.000Z</time>
</trkpt>
<trkpt lat="45.9558790" lon="10.2005790">
	<ele>1006.00</ele>
	<time>2025-08-16T05:42:12.000Z</time>
</trkpt>
<trkpt lat="45.9558780" lon="10.2005730">
	<ele>1006.20</ele>
	<time>2025-08-16T05:42:13.000Z</time>
</trkpt>
<trkpt lat="45.9558810" lon="10.2005650">
	<ele>1006.40</ele>
	<time>2025-08-16T05:42:14.000Z</time>
</trkpt>
<trkpt lat="45.9558750" lon="10.2005510">
	<ele>1006.60</ele>
	<time>2025-08-16T05:42:15.000Z</time>
</trkpt>
<trkpt lat="45.9558650" lon="10.2005330">
	<ele>1006.80</ele>
	<time>2025-08-16T05:42:16.000Z</time>
</trkpt>
<trkpt lat="45.9558660" lon="10.2005160">
	<ele>1007.00</ele>
	<time>2025-08-16T05:42:17.000Z</time>
</trkpt>
<trkpt lat="45.9558730" lon="10.2005070">
	<ele>1007.00</ele>
	<time>2025-08-16T05:42:18.000Z</time>
</trkpt>
<trkpt lat="45.9558810" lon="10.2005020">
	<ele>1007.20</ele>
	<time>2025-08-16T05:42:19.000Z</time>
</trkpt>
<trkpt lat="45.9558850" lon="10.2004990">
	<ele>1007.40</ele>
	<time>2025-08-16T05:42:20.000Z</time>
</trkpt>
<trkpt lat="45.9558870" lon="10.2004990">
	<ele>1007.60</ele>
	<time>2025-08-16T05:42:21.000Z</time>
</trkpt>
<trkpt lat="45.9558870" lon="10.2004980">
	<ele>1007.60</ele>
	<time>2025-08-16T05:42:22.000Z</time>
</trkpt>
<trkpt lat="45.9558870" lon="10.2004970">
	<ele>1007.60</ele>
	<time>2025-08-16T05:42:23.000Z</time>
</trkpt>
<trkpt lat="45.9558860" lon="10.2004950">
	<ele>1007.80</ele>
	<time>2025-08-16T05:42:24.000Z</time>
</trkpt>
<trkpt lat="45.9558820" lon="10.2004910">
	<ele>1007.80</ele>
	<time>2025-08-16T05:42:25.000Z</time>
</trkpt>
<trkpt lat="45.9558800" lon="10.2004900">
	<ele>1007.80</ele>
	<time>2025-08-16T05:42:26.000Z</time>
</trkpt>
<trkpt lat="45.9558800" lon="10.2004900">
	<ele>1007.80</ele>
	<time>2025-08-16T05:42:27.000Z</time>
</trkpt>
<trkpt lat="45.9558840" lon="10.2004860">
	<ele>1007.80</ele>
	<time>2025-08-16T05:42:28.000Z</time>
</trkpt>
<trkpt lat="45.9558850" lon="10.2004780">
	<ele>1008.00</ele>
	<time>2025-08-16T05:42:29.000Z</time>
</trkpt>
<trkpt lat="45.9558870" lon="10.2004670">
	<ele>1008.00</ele>
	<time>2025-08-16T05:42:30.000Z</time>
</trkpt>
<trkpt lat="45.9558880" lon="10.2004580">
	<ele>1008.40</ele>
	<time>2025-08-16T05:42:31.000Z</time>
</trkpt>
<trkpt lat="45.9558910" lon="10.2004530">
	<ele>1008.40</ele>
	<time>2025-08-16T05:42:32.000Z</time>
</trkpt>
<trkpt lat="45.9559040" lon="10.2004450">
	<ele>1008.40</ele>
	<time>2025-08-16T05:42:33.000Z</time>
</trkpt>
<trkpt lat="45.9559120" lon="10.2004350">
	<ele>1008.60</ele>
	<time>2025-08-16T05:42:34.000Z</time>
</trkpt>
<trkpt lat="45.9559140" lon="10.2004280">
	<ele>1008.60</ele>
	<time>2025-08-16T05:42:35.000Z</time>
</trkpt>
<trkpt lat="45.9559180" lon="10.2004190">
	<ele>1008.80</ele>
	<time>2025-08-16T05:42:36.000Z</time>
</trkpt>
<trkpt lat="45.9559200" lon="10.2004160">
	<ele>1008.80</ele>
	<time>2025-08-16T05:42:37.000Z</time>
</trkpt>
<trkpt lat="45.9559280" lon="10.2004130">
	<ele>1009.00</ele>
	<time>2025-08-16T05:42:38.000Z</time>
</trkpt>
<trkpt lat="45.9559340" lon="10.2004130">
	<ele>1009.20</ele>
	<time>2025-08-16T05:42:39.000Z</time>
</trkpt>
<trkpt lat="45.9559380" lon="10.2004150">
	<ele>1009.20</ele>
	<time>2025-08-16T05:42:40.000Z</time>
</trkpt>
<trkpt lat="45.9559540" lon="10.2004150">
	<ele>1009.40</ele>
	<time>2025-08-16T05:42:41.000Z</time>
</trkpt>
<trkpt lat="45.9559700" lon="10.2004160">
	<ele>1009.40</ele>
	<time>2025-08-16T05:42:42.000Z</time>
</trkpt>
<trkpt lat="45.9559850" lon="10.2004140">
	<ele>1009.60</ele>
	<time>2025-08-16T05:42:43.000Z</time>
</trkpt>
<trkpt lat="45.9559990" lon="10.2004150">
	<ele>1009.80</ele>
	<time>2025-08-16T05:42:44.000Z</time>
</trkpt>
<trkpt lat="45.9560140" lon="10.2004140">
	<ele>1009.80</ele>
	<time>2025-08-16T05:42:45.000Z</time>
</trkpt>
<trkpt lat="45.9560190" lon="10.2004090">
	<ele>1010.00</ele>
	<time>2025-08-16T05:42:46.000Z</time>
</trkpt>
<trkpt lat="45.9560260" lon="10.2004060">
	<ele>1010.00</ele>
	<time>2025-08-16T05:42:47.000Z</time>
</trkpt>
<trkpt lat="45.9560340" lon="10.2004100">
	<ele>1010.20</ele>
	<time>2025-08-16T05:42:48.000Z</time>
</trkpt>
<trkpt lat="45.9560410" lon="10.2004190">
	<ele>1010.40</ele>
	<time>2025-08-16T05:42:49.000Z</time>
</trkpt>
<trkpt lat="45.9560500" lon="10.2004310">
	<ele>1010.60</ele>
	<time>2025-08-16T05:42:50.000Z</time>
</trkpt>
<trkpt lat="45.9560590" lon="10.2004410">
	<ele>1010.60</ele>
	<time>2025-08-16T05:42:51.000Z</time>
</trkpt>
<trkpt lat="45.9560680" lon="10.2004510">
	<ele>1010.80</ele>
	<time>2025-08-16T05:42:52.000Z</time>
</trkpt>
<trkpt lat="45.9560830" lon="10.2004570">
	<ele>1010.80</ele>
	<time>2025-08-16T05:42:53.000Z</time>
</trkpt>
<trkpt lat="45.9560980" lon="10.2004600">
	<ele>1010.80</ele>
	<time>2025-08-16T05:42:54.000Z</time>
</trkpt>
<trkpt lat="45.9561100" lon="10.2004580">
	<ele>1011.00</ele>
	<time>2025-08-16T05:42:55.000Z</time>
</trkpt>
<trkpt lat="45.9561210" lon="10.2004570">
	<ele>1011.20</ele>
	<time>2025-08-16T05:42:56.000Z</time>
</trkpt>
<trkpt lat="45.9561320" lon="10.2004530">
	<ele>1011.20</ele>
	<time>2025-08-16T05:42:57.000Z</time>
</trkpt>
<trkpt lat="45.9561430" lon="10.2004540">
	<ele>1011.40</ele>
	<time>2025-08-16T05:42:58.000Z</time>
</trkpt>
<trkpt lat="45.9561530" lon="10.2004570">
	<ele>1011.40</ele>
	<time>2025-08-16T05:42:59.000Z</time>
</trkpt>
<trkpt lat="45.9561640" lon="10.2004580">
	<ele>1011.60</ele>
	<time>2025-08-16T05:43:00.000Z</time>
</trkpt>
<trkpt lat="45.9561720" lon="10.2004580">
	<ele>1011.60</ele>
	<time>2025-08-16T05:43:01.000Z</time>
</trkpt>
<trkpt lat="45.9561800" lon="10.2004630">
	<ele>1011.60</ele>
	<time>2025-08-16T05:43:02.000Z</time>
</trkpt>
<trkpt lat="45.9561840" lon="10.2004720">
	<ele>1011.80</ele>
	<time>2025-08-16T05:43:03.000Z</time>
</trkpt>
<trkpt lat="45.9561940" lon="10.2004790">
	<ele>1011.80</ele>
	<time>2025-08-16T05:43:04.000Z</time>
</trkpt>
<trkpt lat="45.9562060" lon="10.2004840">
	<ele>1012.00</ele>
	<time>2025-08-16T05:43:05.000Z</time>
</trkpt>
<trkpt lat="45.9562200" lon="10.2004880">
	<ele>1012.00</ele>
	<time>2025-08-16T05:43:06.000Z</time>
</trkpt>
<trkpt lat="45.9562370" lon="10.2004930">
	<ele>1012.20</ele>
	<time>2025-08-16T05:43:07.000Z</time>
</trkpt>
<trkpt lat="45.9562520" lon="10.2004970">
	<ele>1012.20</ele>
	<time>2025-08-16T05:43:08.000Z</time>
</trkpt>
<trkpt lat="45.9562640" lon="10.2004900">
	<ele>1012.40</ele>
	<time>2025-08-16T05:43:09.000Z</time>
</trkpt>
<trkpt lat="45.9562790" lon="10.2004930">
	<ele>1012.40</ele>
	<time>2025-08-16T05:43:10.000Z</time>
</trkpt>
<trkpt lat="45.9562990" lon="10.2004920">
	<ele>1012.40</ele>
	<time>2025-08-16T05:43:11.000Z</time>
</trkpt>
<trkpt lat="45.9563150" lon="10.2004880">
	<ele>1012.60</ele>
	<time>2025-08-16T05:43:12.000Z</time>
</trkpt>
<trkpt lat="45.9563230" lon="10.2004880">
	<ele>1012.60</ele>
	<time>2025-08-16T05:43:13.000Z</time>
</trkpt>
<trkpt lat="45.9563320" lon="10.2004900">
	<ele>1012.80</ele>
	<time>2025-08-16T05:43:14.000Z</time>
</trkpt>
<trkpt lat="45.9563390" lon="10.2004940">
	<ele>1013.00</ele>
	<time>2025-08-16T05:43:15.000Z</time>
</trkpt>
<trkpt lat="45.9563460" lon="10.2004910">
	<ele>1013.20</ele>
	<time>2025-08-16T05:43:16.000Z</time>
</trkpt>
<trkpt lat="45.9563590" lon="10.2004980">
	<ele>1013.20</ele>
	<time>2025-08-16T05:43:17.000Z</time>
</trkpt>
<trkpt lat="45.9563740" lon="10.2005080">
	<ele>1013.20</ele>
	<time>2025-08-16T05:43:18.000Z</time>
</trkpt>
<trkpt lat="45.9563870" lon="10.2005090">
	<ele>1013.40</ele>
	<time>2025-08-16T05:43:19.000Z</time>
</trkpt>
<trkpt lat="45.9563990" lon="10.2005080">
	<ele>1013.40</ele>
	<time>2025-08-16T05:43:20.000Z</time>
</trkpt>
<trkpt lat="45.9564190" lon="10.2005120">
	<ele>1013.60</ele>
	<time>2025-08-16T05:43:21.000Z</time>
</trkpt>
<trkpt lat="45.9564280" lon="10.2005050">
	<ele>1013.60</ele>
	<time>2025-08-16T05:43:22.000Z</time>
</trkpt>
<trkpt lat="45.9564420" lon="10.2005040">
	<ele>1013.60</ele>
	<time>2025-08-16T05:43:23.000Z</time>
</trkpt>
<trkpt lat="45.9564570" lon="10.2005050">
	<ele>1013.80</ele>
	<time>2025-08-16T05:43:24.000Z</time>
</trkpt>
<trkpt lat="45.9564810" lon="10.2005120">
	<ele>1014.00</ele>
	<time>2025-08-16T05:43:25.000Z</time>
</trkpt>
<trkpt lat="45.9565030" lon="10.2005230">
	<ele>1014.00</ele>
	<time>2025-08-16T05:43:26.000Z</time>
</trkpt>
<trkpt lat="45.9565080" lon="10.2005190">
	<ele>1014.00</ele>
	<time>2025-08-16T05:43:27.000Z</time>
</trkpt>
<trkpt lat="45.9565200" lon="10.2005190">
	<ele>1014.20</ele>
	<time>2025-08-16T05:43:28.000Z</time>
</trkpt>
<trkpt lat="45.9565300" lon="10.2005170">
	<ele>1014.40</ele>
	<time>2025-08-16T05:43:29.000Z</time>
</trkpt>
<trkpt lat="45.9565450" lon="10.2005160">
	<ele>1014.40</ele>
	<time>2025-08-16T05:43:30.000Z</time>
</trkpt>
<trkpt lat="45.9565560" lon="10.2005130">
	<ele>1014.60</ele>
	<time>2025-08-16T05:43:31.000Z</time>
</trkpt>
<trkpt lat="45.9565660" lon="10.2005120">
	<ele>1014.60</ele>
	<time>2025-08-16T05:43:32.000Z</time>
</trkpt>
<trkpt lat="45.9565750" lon="10.2005170">
	<ele>1014.80</ele>
	<time>2025-08-16T05:43:33.000Z</time>
</trkpt>
<trkpt lat="45.9565870" lon="10.2005230">
	<ele>1014.80</ele>
	<time>2025-08-16T05:43:34.000Z</time>
</trkpt>
<trkpt lat="45.9565980" lon="10.2005240">
	<ele>1014.80</ele>
	<time>2025-08-16T05:43:35.000Z</time>
</trkpt>
<trkpt lat="45.9566070" lon="10.2005200">
	<ele>1015.00</ele>
	<time>2025-08-16T05:43:36.000Z</time>
</trkpt>
<trkpt lat="45.9566130" lon="10.2005130">
	<ele>1015.20</ele>
	<time>2025-08-16T05:43:37.000Z</time>
</trkpt>
<trkpt lat="45.9566240" lon="10.2005090">
	<ele>1015.40</ele>
	<time>2025-08-16T05:43:38.000Z</time>
</trkpt>
<trkpt lat="45.9566330" lon="10.2005100">
	<ele>1015.60</ele>
	<time>2025-08-16T05:43:39.000Z</time>
</trkpt>
<trkpt lat="45.9566360" lon="10.2005210">
	<ele>1015.60</ele>
	<time>2025-08-16T05:43:40.000Z</time>
</trkpt>
<trkpt lat="45.9566430" lon="10.2005270">
	<ele>1015.60</ele>
	<time>2025-08-16T05:43:41.000Z</time>
</trkpt>
<trkpt lat="45.9566540" lon="10.2005250">
	<ele>1015.80</ele>
	<time>2025-08-16T05:43:42.000Z</time>
</trkpt>
<trkpt lat="45.9566640" lon="10.2005240">
	<ele>1015.80</ele>
	<time>2025-08-16T05:43:43.000Z</time>
</trkpt>
<trkpt lat="45.9566740" lon="10.2005190">
	<ele>1016.00</ele>
	<time>2025-08-16T05:43:44.000Z</time>
</trkpt>
<trkpt lat="45.9566790" lon="10.2005170">
	<ele>1016.00</ele>
	<time>2025-08-16T05:43:45.000Z</time>
</trkpt>
<trkpt lat="45.9566870" lon="10.2005120">
	<ele>1016.20</ele>
	<time>2025-08-16T05:43:46.000Z</time>
</trkpt>
<trkpt lat="45.9566940" lon="10.2005070">
	<ele>1016.20</ele>
	<time>2025-08-16T05:43:47.000Z</time>
</trkpt>
<trkpt lat="45.9567010" lon="10.2005000">
	<ele>1016.20</ele>
	<time>2025-08-16T05:43:48.000Z</time>
</trkpt>
<trkpt lat="45.9567130" lon="10.2004890">
	<ele>1016.40</ele>
	<time>2025-08-16T05:43:49.000Z</time>
</trkpt>
<trkpt lat="45.9567230" lon="10.2004810">
	<ele>1016.40</ele>
	<time>2025-08-16T05:43:50.000Z</time>
</trkpt>
<trkpt lat="45.9567380" lon="10.2004730">
	<ele>1016.40</ele>
	<time>2025-08-16T05:43:51.000Z</time>
</trkpt>
<trkpt lat="45.9567470" lon="10.2004700">
	<ele>1016.60</ele>
	<time>2025-08-16T05:43:52.000Z</time>
</trkpt>
<trkpt lat="45.9567620" lon="10.2004610">
	<ele>1016.60</ele>
	<time>2025-08-16T05:43:53.000Z</time>
</trkpt>
<trkpt lat="45.9567720" lon="10.2004520">
	<ele>1016.80</ele>
	<time>2025-08-16T05:43:54.000Z</time>
</trkpt>
<trkpt lat="45.9567870" lon="10.2004420">
	<ele>1017.00</ele>
	<time>2025-08-16T05:43:55.000Z</time>
</trkpt>
<trkpt lat="45.9567950" lon="10.2004380">
	<ele>1017.20</ele>
	<time>2025-08-16T05:43:56.000Z</time>
</trkpt>
<trkpt lat="45.9568030" lon="10.2004380">
	<ele>1017.40</ele>
	<time>2025-08-16T05:43:57.000Z</time>
</trkpt>
<trkpt lat="45.9568150" lon="10.2004360">
	<ele>1017.60</ele>
	<time>2025-08-16T05:43:58.000Z</time>
</trkpt>
<trkpt lat="45.9568290" lon="10.2004240">
	<ele>1018.00</ele>
	<time>2025-08-16T05:43:59.000Z</time>
</trkpt>
<trkpt lat="45.9568410" lon="10.2004160">
	<ele>1018.40</ele>
	<time>2025-08-16T05:44:00.000Z</time>
</trkpt>
<trkpt lat="45.9568620" lon="10.2004090">
	<ele>1018.60</ele>
	<time>2025-08-16T05:44:01.000Z</time>
</trkpt>
<trkpt lat="45.9568730" lon="10.2004050">
	<ele>1018.80</ele>
	<time>2025-08-16T05:44:02.000Z</time>
</trkpt>
<trkpt lat="45.9568910" lon="10.2004050">
	<ele>1019.00</ele>
	<time>2025-08-16T05:44:03.000Z</time>
</trkpt>
<trkpt lat="45.9568990" lon="10.2004070">
	<ele>1019.00</ele>
	<time>2025-08-16T05:44:04.000Z</time>
</trkpt>
<trkpt lat="45.9569080" lon="10.2004070">
	<ele>1019.20</ele>
	<time>2025-08-16T05:44:05.000Z</time>
</trkpt>
<trkpt lat="45.9569150" lon="10.2004060">
	<ele>1019.40</ele>
	<time>2025-08-16T05:44:06.000Z</time>
</trkpt>
<trkpt lat="45.9569260" lon="10.2004080">
	<ele>1019.40</ele>
	<time>2025-08-16T05:44:07.000Z</time>
</trkpt>
<trkpt lat="45.9569530" lon="10.2004040">
	<ele>1019.60</ele>
	<time>2025-08-16T05:44:08.000Z</time>
</trkpt>
<trkpt lat="45.9569650" lon="10.2003970">
	<ele>1019.60</ele>
	<time>2025-08-16T05:44:09.000Z</time>
</trkpt>
<trkpt lat="45.9569770" lon="10.2003980">
	<ele>1019.80</ele>
	<time>2025-08-16T05:44:10.000Z</time>
</trkpt>
<trkpt lat="45.9569870" lon="10.2003980">
	<ele>1020.00</ele>
	<time>2025-08-16T05:44:11.000Z</time>
</trkpt>
<trkpt lat="45.9569920" lon="10.2003900">
	<ele>1020.20</ele>
	<time>2025-08-16T05:44:12.000Z</time>
</trkpt>
<trkpt lat="45.9570050" lon="10.2003890">
	<ele>1020.40</ele>
	<time>2025-08-16T05:44:13.000Z</time>
</trkpt>
<trkpt lat="45.9570120" lon="10.2003870">
	<ele>1020.60</ele>
	<time>2025-08-16T05:44:14.000Z</time>
</trkpt>
<trkpt lat="45.9570250" lon="10.2003860">
	<ele>1020.80</ele>
	<time>2025-08-16T05:44:15.000Z</time>
</trkpt>
<trkpt lat="45.9570330" lon="10.2003830">
	<ele>1021.20</ele>
	<time>2025-08-16T05:44:16.000Z</time>
</trkpt>
<trkpt lat="45.9570430" lon="10.2003810">
	<ele>1021.40</ele>
	<time>2025-08-16T05:44:17.000Z</time>
</trkpt>
<trkpt lat="45.9570560" lon="10.2003780">
	<ele>1021.40</ele>
	<time>2025-08-16T05:44:18.000Z</time>
</trkpt>
<trkpt lat="45.9570660" lon="10.2003750">
	<ele>1021.40</ele>
	<time>2025-08-16T05:44:19.000Z</time>
</trkpt>
<trkpt lat="45.9570760" lon="10.2003720">
	<ele>1021.60</ele>
	<time>2025-08-16T05:44:20.000Z</time>
</trkpt>
<trkpt lat="45.9570880" lon="10.2003670">
	<ele>1021.60</ele>
	<time>2025-08-16T05:44:21.000Z</time>
</trkpt>
<trkpt lat="45.9570970" lon="10.2003620">
	<ele>1021.60</ele>
	<time>2025-08-16T05:44:22.000Z</time>
</trkpt>
<trkpt lat="45.9571100" lon="10.2003580">
	<ele>1021.80</ele>
	<time>2025-08-16T05:44:23.000Z</time>
</trkpt>
<trkpt lat="45.9571220" lon="10.2003510">
	<ele>1022.00</ele>
	<time>2025-08-16T05:44:24.000Z</time>
</trkpt>
<trkpt lat="45.9571330" lon="10.2003490">
	<ele>1022.20</ele>
	<time>2025-08-16T05:44:25.000Z</time>
</trkpt>
<trkpt lat="45.9571420" lon="10.2003420">
	<ele>1022.20</ele>
	<time>2025-08-16T05:44:26.000Z</time>
</trkpt>
<trkpt lat="45.9571510" lon="10.2003390">
	<ele>1022.40</ele>
	<time>2025-08-16T05:44:27.000Z</time>
</trkpt>
<trkpt lat="45.9571570" lon="10.2003340">
	<ele>1022.60</ele>
	<time>2025-08-16T05:44:28.000Z</time>
</trkpt>
<trkpt lat="45.9571620" lon="10.2003290">
	<ele>1022.80</ele>
	<time>2025-08-16T05:44:29.000Z</time>
</trkpt>
<trkpt lat="45.9571660" lon="10.2003260">
	<ele>1023.00</ele>
	<time>2025-08-16T05:44:30.000Z</time>
</trkpt>
<trkpt lat="45.9571670" lon="10.2003240">
	<ele>1023.00</ele>
	<time>2025-08-16T05:44:31.000Z</time>
</trkpt>
<trkpt lat="45.9571670" lon="10.2003230">
	<ele>1023.00</ele>
	<time>2025-08-16T05:44:32.000Z</time>
</trkpt>
<trkpt lat="45.9571680" lon="10.2003230">
	<ele>1023.00</ele>
	<time>2025-08-16T05:44:33.000Z</time>
</trkpt>
<trkpt lat="45.9571660" lon="10.2003220">
	<ele>1023.00</ele>
	<time>2025-08-16T05:44:34.000Z</time>
</trkpt>
<trkpt lat="45.9571650" lon="10.2003230">
	<ele>1023.20</ele>
	<time>2025-08-16T05:44:35.000Z</time>
</trkpt>
<trkpt lat="45.9571640" lon="10.2003260">
	<ele>1023.40</ele>
	<time>2025-08-16T05:44:36.000Z</time>
</trkpt>
<trkpt lat="45.9571640" lon="10.2003260">
	<ele>1023.60</ele>
	<time>2025-08-16T05:44:37.000Z</time>
</trkpt>
<trkpt lat="45.9571650" lon="10.2003240">
	<ele>1023.80</ele>
	<time>2025-08-16T05:44:38.000Z</time>
</trkpt>
<trkpt lat="45.9571660" lon="10.2003240">
	<ele>1023.80</ele>
	<time>2025-08-16T05:44:39.000Z</time>
</trkpt>
<trkpt lat="45.9571660" lon="10.2003250">
	<ele>1024.00</ele>
	<time>2025-08-16T05:44:40.000Z</time>
</trkpt>
<trkpt lat="45.9571660" lon="10.2003260">
	<ele>1024.00</ele>
	<time>2025-08-16T05:44:41.000Z</time>
</trkpt>
<trkpt lat="45.9571670" lon="10.2003270">
	<ele>1024.00</ele>
	<time>2025-08-16T05:44:42.000Z</time>
</trkpt>
<trkpt lat="45.9571650" lon="10.2003240">
	<ele>1024.00</ele>
	<time>2025-08-16T05:44:43.000Z</time>
</trkpt>
<trkpt lat="45.9571650" lon="10.2003250">
	<ele>1023.60</ele>
	<time>2025-08-16T05:44:44.000Z</time>
</trkpt>
<trkpt lat="45.9571660" lon="10.2003190">
	<ele>1023.40</ele>
	<time>2025-08-16T05:44:45.000Z</time>
</trkpt>
<trkpt lat="45.9571670" lon="10.2003170">
	<ele>1023.40</ele>
	<time>2025-08-16T05:44:46.000Z</time>
</trkpt>
<trkpt lat="45.9571700" lon="10.2003130">
	<ele>1023.20</ele>
	<time>2025-08-16T05:44:47.000Z</time>
</trkpt>
<trkpt lat="45.9571750" lon="10.2003100">
	<ele>1023.40</ele>
	<time>2025-08-16T05:44:48.000Z</time>
</trkpt>
<trkpt lat="45.9571840" lon="10.2003090">
	<ele>1023.40</ele>
	<time>2025-08-16T05:44:49.000Z</time>
</trkpt>
<trkpt lat="45.9571950" lon="10.2003040">
	<ele>1023.60</ele>
	<time>2025-08-16T05:44:50.000Z</time>
</trkpt>
<trkpt lat="45.9572060" lon="10.2003020">
	<ele>1023.80</ele>
	<time>2025-08-16T05:44:51.000Z</time>
</trkpt>
<trkpt lat="45.9572150" lon="10.2002970">
	<ele>1024.00</ele>
	<time>2025-08-16T05:44:52.000Z</time>
</trkpt>
<trkpt lat="45.9572200" lon="10.2002830">
	<ele>1024.00</ele>
	<time>2025-08-16T05:44:53.000Z</time>
</trkpt>
<trkpt lat="45.9572280" lon="10.2002700">
	<ele>1024.20</ele>
	<time>2025-08-16T05:44:54.000Z</time>
</trkpt>
<trkpt lat="45.9572280" lon="10.2002570">
	<ele>1024.20</ele>
	<time>2025-08-16T05:44:55.000Z</time>
</trkpt>
<trkpt lat="45.9572330" lon="10.2002420">
	<ele>1024.40</ele>
	<time>2025-08-16T05:44:56.000Z</time>
</trkpt>
<trkpt lat="45.9572440" lon="10.2002330">
	<ele>1024.60</ele>
	<time>2025-08-16T05:44:57.000Z</time>
</trkpt>
<trkpt lat="45.9572530" lon="10.2002240">
	<ele>1024.60</ele>
	<time>2025-08-16T05:44:58.000Z</time>
</trkpt>
<trkpt lat="45.9572590" lon="10.2002170">
	<ele>1024.80</ele>
	<time>2025-08-16T05:44:59.000Z</time>
</trkpt>
<trkpt lat="45.9572650" lon="10.2002100">
	<ele>1025.00</ele>
	<time>2025-08-16T05:45:00.000Z</time>
</trkpt>
<trkpt lat="45.9572680" lon="10.2002000">
	<ele>1025.20</ele>
	<time>2025-08-16T05:45:01.000Z</time>
</trkpt>
<trkpt lat="45.9572810" lon="10.2001930">
	<ele>1025.20</ele>
	<time>2025-08-16T05:45:02.000Z</time>
</trkpt>
<trkpt lat="45.9572910" lon="10.2001840">
	<ele>1025.40</ele>
	<time>2025-08-16T05:45:03.000Z</time>
</trkpt>
<trkpt lat="45.9572940" lon="10.2001730">
	<ele>1025.60</ele>
	<time>2025-08-16T05:45:04.000Z</time>
</trkpt>
<trkpt lat="45.9573030" lon="10.2001640">
	<ele>1025.80</ele>
	<time>2025-08-16T05:45:05.000Z</time>
</trkpt>
<trkpt lat="45.9573130" lon="10.2001600">
	<ele>1026.00</ele>
	<time>2025-08-16T05:45:06.000Z</time>
</trkpt>
<trkpt lat="45.9573240" lon="10.2001530">
	<ele>1026.00</ele>
	<time>2025-08-16T05:45:07.000Z</time>
</trkpt>
<trkpt lat="45.9573330" lon="10.2001470">
	<ele>1026.20</ele>
	<time>2025-08-16T05:45:08.000Z</time>
</trkpt>
<trkpt lat="45.9573430" lon="10.2001410">
	<ele>1026.20</ele>
	<time>2025-08-16T05:45:09.000Z</time>
</trkpt>
<trkpt lat="45.9573530" lon="10.2001370">
	<ele>1026.40</ele>
	<time>2025-08-16T05:45:10.000Z</time>
</trkpt>
<trkpt lat="45.9573600" lon="10.2001320">
	<ele>1026.60</ele>
	<time>2025-08-16T05:45:11.000Z</time>
</trkpt>
<trkpt lat="45.9573670" lon="10.2001260">
	<ele>1026.60</ele>
	<time>2025-08-16T05:45:12.000Z</time>
</trkpt>
<trkpt lat="45.9573750" lon="10.2001180">
	<ele>1026.80</ele>
	<time>2025-08-16T05:45:13.000Z</time>
</trkpt>
<trkpt lat="45.9573780" lon="10.2001150">
	<ele>1027.00</ele>
	<time>2025-08-16T05:45:14.000Z</time>
</trkpt>
<trkpt lat="45.9573810" lon="10.2001100">
	<ele>1027.20</ele>
	<time>2025-08-16T05:45:15.000Z</time>
</trkpt>
<trkpt lat="45.9573940" lon="10.2001100">
	<ele>1027.20</ele>
	<time>2025-08-16T05:45:16.000Z</time>
</trkpt>
<trkpt lat="45.9574080" lon="10.2001140">
	<ele>1027.40</ele>
	<time>2025-08-16T05:45:17.000Z</time>
</trkpt>
<trkpt lat="45.9574210" lon="10.2001150">
	<ele>1027.60</ele>
	<time>2025-08-16T05:45:18.000Z</time>
</trkpt>
<trkpt lat="45.9574280" lon="10.2001070">
	<ele>1027.80</ele>
	<time>2025-08-16T05:45:19.000Z</time>
</trkpt>
<trkpt lat="45.9574360" lon="10.2001000">
	<ele>1028.00</ele>
	<time>2025-08-16T05:45:20.000Z</time>
</trkpt>
<trkpt lat="45.9574430" lon="10.2000960">
	<ele>1028.00</ele>
	<time>2025-08-16T05:45:21.000Z</time>
</trkpt>
<trkpt lat="45.9574500" lon="10.2000940">
	<ele>1028.20</ele>
	<time>2025-08-16T05:45:22.000Z</time>
</trkpt>
<trkpt lat="45.9574560" lon="10.2000900">
	<ele>1028.40</ele>
	<time>2025-08-16T05:45:23.000Z</time>
</trkpt>
<trkpt lat="45.9574630" lon="10.2000870">
	<ele>1028.60</ele>
	<time>2025-08-16T05:45:24.000Z</time>
</trkpt>
<trkpt lat="45.9574700" lon="10.2000820">
	<ele>1028.80</ele>
	<time>2025-08-16T05:45:25.000Z</time>
</trkpt>
<trkpt lat="45.9574770" lon="10.2000760">
	<ele>1029.00</ele>
	<time>2025-08-16T05:45:26.000Z</time>
</trkpt>
<trkpt lat="45.9574870" lon="10.2000710">
	<ele>1029.20</ele>
	<time>2025-08-16T05:45:27.000Z</time>
</trkpt>
<trkpt lat="45.9574940" lon="10.2000640">
	<ele>1029.20</ele>
	<time>2025-08-16T05:45:28.000Z</time>
</trkpt>
<trkpt lat="45.9575010" lon="10.2000570">
	<ele>1029.60</ele>
	<time>2025-08-16T05:45:29.000Z</time>
</trkpt>
<trkpt lat="45.9575100" lon="10.2000520">
	<ele>1029.80</ele>
	<time>2025-08-16T05:45:30.000Z</time>
</trkpt>
<trkpt lat="45.9575150" lon="10.2000440">
	<ele>1030.00</ele>
	<time>2025-08-16T05:45:31.000Z</time>
</trkpt>
<trkpt lat="45.9575210" lon="10.2000380">
	<ele>1030.20</ele>
	<time>2025-08-16T05:45:32.000Z</time>
</trkpt>
<trkpt lat="45.9575280" lon="10.2000320">
	<ele>1030.40</ele>
	<time>2025-08-16T05:45:33.000Z</time>
</trkpt>
<trkpt lat="45.9575390" lon="10.2000310">
	<ele>1030.60</ele>
	<time>2025-08-16T05:45:34.000Z</time>
</trkpt>
<trkpt lat="45.9575480" lon="10.2000280">
	<ele>1030.80</ele>
	<time>2025-08-16T05:45:35.000Z</time>
</trkpt>
<trkpt lat="45.9575560" lon="10.2000300">
	<ele>1031.00</ele>
	<time>2025-08-16T05:45:36.000Z</time>
</trkpt>
<trkpt lat="45.9575630" lon="10.2000330">
	<ele>1031.20</ele>
	<time>2025-08-16T05:45:37.000Z</time>
</trkpt>
<trkpt lat="45.9575690" lon="10.2000300">
	<ele>1031.40</ele>
	<time>2025-08-16T05:45:38.000Z</time>
</trkpt>
<trkpt lat="45.9575780" lon="10.2000290">
	<ele>1031.60</ele>
	<time>2025-08-16T05:45:39.000Z</time>
</trkpt>
<trkpt lat="45.9575870" lon="10.2000280">
	<ele>1031.80</ele>
	<time>2025-08-16T05:45:40.000Z</time>
</trkpt>
<trkpt lat="45.9575920" lon="10.2000250">
	<ele>1032.00</ele>
	<time>2025-08-16T05:45:41.000Z</time>
</trkpt>
<trkpt lat="45.9576000" lon="10.2000240">
	<ele>1032.20</ele>
	<time>2025-08-16T05:45:42.000Z</time>
</trkpt>
<trkpt lat="45.9576080" lon="10.2000220">
	<ele>1032.40</ele>
	<time>2025-08-16T05:45:43.000Z</time>
</trkpt>
<trkpt lat="45.9576160" lon="10.2000160">
	<ele>1032.60</ele>
	<time>2025-08-16T05:45:44.000Z</time>
</trkpt>
<trkpt lat="45.9576280" lon="10.2000010">
	<ele>1033.00</ele>
	<time>2025-08-16T05:45:45.000Z</time>
</trkpt>
<trkpt lat="45.9576370" lon="10.1999890">
	<ele>1033.00</ele>
	<time>2025-08-16T05:45:46.000Z</time>
</trkpt>
<trkpt lat="45.9576390" lon="10.1999810">
	<ele>1033.20</ele>
	<time>2025-08-16T05:45:47.000Z</time>
</trkpt>
<trkpt lat="45.9576450" lon="10.1999770">
	<ele>1033.40</ele>
	<time>2025-08-16T05:45:48.000Z</time>
</trkpt>
<trkpt lat="45.9576560" lon="10.1999740">
	<ele>1033.60</ele>
	<time>2025-08-16T05:45:49.000Z</time>
</trkpt>
<trkpt lat="45.9576650" lon="10.1999720">
	<ele>1033.80</ele>
	<time>2025-08-16T05:45:50.000Z</time>
</trkpt>
<trkpt lat="45.9576740" lon="10.1999750">
	<ele>1034.20</ele>
	<time>2025-08-16T05:45:51.000Z</time>
</trkpt>
<trkpt lat="45.9576830" lon="10.1999780">
	<ele>1034.40</ele>
	<time>2025-08-16T05:45:52.000Z</time>
</trkpt>
<trkpt lat="45.9576880" lon="10.1999740">
	<ele>1034.60</ele>
	<time>2025-08-16T05:45:53.000Z</time>
</trkpt>
<trkpt lat="45.9577000" lon="10.1999670">
	<ele>1034.80</ele>
	<time>2025-08-16T05:45:54.000Z</time>
</trkpt>
<trkpt lat="45.9577100" lon="10.1999630">
	<ele>1035.00</ele>
	<time>2025-08-16T05:45:55.000Z</time>
</trkpt>
<trkpt lat="45.9577170" lon="10.1999600">
	<ele>1035.20</ele>
	<time>2025-08-16T05:45:56.000Z</time>
</trkpt>
<trkpt lat="45.9577260" lon="10.1999590">
	<ele>1035.40</ele>
	<time>2025-08-16T05:45:57.000Z</time>
</trkpt>
<trkpt lat="45.9577360" lon="10.1999520">
	<ele>1035.40</ele>
	<time>2025-08-16T05:45:58.000Z</time>
</trkpt>
<trkpt lat="45.9577410" lon="10.1999500">
	<ele>1035.60</ele>
	<time>2025-08-16T05:45:59.000Z</time>
</trkpt>
<trkpt lat="45.9577470" lon="10.1999480">
	<ele>1035.80</ele>
	<time>2025-08-16T05:46:00.000Z</time>
</trkpt>
<trkpt lat="45.9577500" lon="10.1999440">
	<ele>1036.20</ele>
	<time>2025-08-16T05:46:01.000Z</time>
</trkpt>
<trkpt lat="45.9577620" lon="10.1999510">
	<ele>1036.40</ele>
	<time>2025-08-16T05:46:02.000Z</time>
</trkpt>
<trkpt lat="45.9577700" lon="10.1999630">
	<ele>1036.40</ele>
	<time>2025-08-16T05:46:03.000Z</time>
</trkpt>
<trkpt lat="45.9577730" lon="10.1999650">
	<ele>1036.80</ele>
	<time>2025-08-16T05:46:04.000Z</time>
</trkpt>
<trkpt lat="45.9577790" lon="10.1999660">
	<ele>1037.00</ele>
	<time>2025-08-16T05:46:05.000Z</time>
</trkpt>
<trkpt lat="45.9577840" lon="10.1999670">
	<ele>1037.20</ele>
	<time>2025-08-16T05:46:06.000Z</time>
</trkpt>
<trkpt lat="45.9577890" lon="10.1999710">
	<ele>1037.40</ele>
	<time>2025-08-16T05:46:07.000Z</time>
</trkpt>
<trkpt lat="45.9577990" lon="10.1999740">
	<ele>1037.40</ele>
	<time>2025-08-16T05:46:08.000Z</time>
</trkpt>
<trkpt lat="45.9578050" lon="10.1999760">
	<ele>1037.60</ele>
	<time>2025-08-16T05:46:09.000Z</time>
</trkpt>
<trkpt lat="45.9578140" lon="10.1999820">
	<ele>1037.80</ele>
	<time>2025-08-16T05:46:10.000Z</time>
</trkpt>
<trkpt lat="45.9578220" lon="10.1999820">
	<ele>1038.00</ele>
	<time>2025-08-16T05:46:11.000Z</time>
</trkpt>
<trkpt lat="45.9578300" lon="10.1999840">
	<ele>1038.00</ele>
	<time>2025-08-16T05:46:12.000Z</time>
</trkpt>
<trkpt lat="45.9578380" lon="10.1999860">
	<ele>1038.20</ele>
	<time>2025-08-16T05:46:13.000Z</time>
</trkpt>
<trkpt lat="45.9578480" lon="10.1999920">
	<ele>1038.60</ele>
	<time>2025-08-16T05:46:14.000Z</time>
</trkpt>
<trkpt lat="45.9578560" lon="10.1999880">
	<ele>1038.80</ele>
	<time>2025-08-16T05:46:15.000Z</time>
</trkpt>
<trkpt lat="45.9578620" lon="10.1999850">
	<ele>1039.00</ele>
	<time>2025-08-16T05:46:16.000Z</time>
</trkpt>
<trkpt lat="45.9578690" lon="10.1999850">
	<ele>1039.20</ele>
	<time>2025-08-16T05:46:17.000Z</time>
</trkpt>
<trkpt lat="45.9578790" lon="10.1999830">
	<ele>1039.40</ele>
	<time>2025-08-16T05:46:18.000Z</time>
</trkpt>
<trkpt lat="45.9578870" lon="10.1999880">
	<ele>1039.60</ele>
	<time>2025-08-16T05:46:19.000Z</time>
</trkpt>
<trkpt lat="45.9578980" lon="10.1999930">
	<ele>1040.00</ele>
	<time>2025-08-16T05:46:20.000Z</time>
</trkpt>
<trkpt lat="45.9579060" lon="10.1999930">
	<ele>1040.20</ele>
	<time>2025-08-16T05:46:21.000Z</time>
</trkpt>
<trkpt lat="45.9579130" lon="10.1999970">
	<ele>1040.40</ele>
	<time>2025-08-16T05:46:22.000Z</time>
</trkpt>
<trkpt lat="45.9579260" lon="10.2000070">
	<ele>1040.60</ele>
	<time>2025-08-16T05:46:23.000Z</time>
</trkpt>
<trkpt lat="45.9579340" lon="10.2000060">
	<ele>1040.80</ele>
	<time>2025-08-16T05:46:24.000Z</time>
</trkpt>
<trkpt lat="45.9579480" lon="10.1999990">
	<ele>1041.00</ele>
	<time>2025-08-16T05:46:25.000Z</time>
</trkpt>
<trkpt lat="45.9579580" lon="10.1999920">
	<ele>1041.20</ele>
	<time>2025-08-16T05:46:26.000Z</time>
</trkpt>
<trkpt lat="45.9579730" lon="10.1999900">
	<ele>1041.40</ele>
	<time>2025-08-16T05:46:27.000Z</time>
</trkpt>
<trkpt lat="45.9579800" lon="10.1999930">
	<ele>1041.60</ele>
	<time>2025-08-16T05:46:28.000Z</time>
</trkpt>
<trkpt lat="45.9579810" lon="10.2000030">
	<ele>1041.60</ele>
	<time>2025-08-16T05:46:29.000Z</time>
</trkpt>
<trkpt lat="45.9579930" lon="10.2000080">
	<ele>1041.80</ele>
	<time>2025-08-16T05:46:30.000Z</time>
</trkpt>
<trkpt lat="45.9580030" lon="10.2000080">
	<ele>1042.00</ele>
	<time>2025-08-16T05:46:31.000Z</time>
</trkpt>
<trkpt lat="45.9580090" lon="10.2000140">
	<ele>1042.20</ele>
	<time>2025-08-16T05:46:32.000Z</time>
</trkpt>
<trkpt lat="45.9580160" lon="10.2000220">
	<ele>1042.20</ele>
	<time>2025-08-16T05:46:33.000Z</time>
</trkpt>
<trkpt lat="45.9580250" lon="10.2000290">
	<ele>1042.40</ele>
	<time>2025-08-16T05:46:34.000Z</time>
</trkpt>
<trkpt lat="45.9580340" lon="10.2000350">
	<ele>1042.60</ele>
	<time>2025-08-16T05:46:35.000Z</time>
</trkpt>
<trkpt lat="45.9580430" lon="10.2000390">
	<ele>1042.60</ele>
	<time>2025-08-16T05:46:36.000Z</time>
</trkpt>
<trkpt lat="45.9580540" lon="10.2000450">
	<ele>1043.00</ele>
	<time>2025-08-16T05:46:37.000Z</time>
</trkpt>
<trkpt lat="45.9580650" lon="10.2000470">
	<ele>1043.20</ele>
	<time>2025-08-16T05:46:38.000Z</time>
</trkpt>
<trkpt lat="45.9580750" lon="10.2000490">
	<ele>1043.20</ele>
	<time>2025-08-16T05:46:39.000Z</time>
</trkpt>
<trkpt lat="45.9580820" lon="10.2000550">
	<ele>1043.40</ele>
	<time>2025-08-16T05:46:40.000Z</time>
</trkpt>
<trkpt lat="45.9580890" lon="10.2000610">
	<ele>1043.60</ele>
	<time>2025-08-16T05:46:41.000Z</time>
</trkpt>
<trkpt lat="45.9580960" lon="10.2000670">
	<ele>1043.80</ele>
	<time>2025-08-16T05:46:42.000Z</time>
</trkpt>
<trkpt lat="45.9581040" lon="10.2000690">
	<ele>1044.00</ele>
	<time>2025-08-16T05:46:43.000Z</time>
</trkpt>
<trkpt lat="45.9581120" lon="10.2000750">
	<ele>1044.20</ele>
	<time>2025-08-16T05:46:44.000Z</time>
</trkpt>
<trkpt lat="45.9581220" lon="10.2000770">
	<ele>1044.60</ele>
	<time>2025-08-16T05:46:45.000Z</time>
</trkpt>
<trkpt lat="45.9581280" lon="10.2000810">
	<ele>1044.80</ele>
	<time>2025-08-16T05:46:46.000Z</time>
</trkpt>
<trkpt lat="45.9581320" lon="10.2000860">
	<ele>1045.00</ele>
	<time>2025-08-16T05:46:47.000Z</time>
</trkpt>
<trkpt lat="45.9581400" lon="10.2000900">
	<ele>1045.20</ele>
	<time>2025-08-16T05:46:48.000Z</time>
</trkpt>
<trkpt lat="45.9581470" lon="10.2000900">
	<ele>1045.20</ele>
	<time>2025-08-16T05:46:49.000Z</time>
</trkpt>
<trkpt lat="45.9581520" lon="10.2000930">
	<ele>1045.40</ele>
	<time>2025-08-16T05:46:50.000Z</time>
</trkpt>
<trkpt lat="45.9581600" lon="10.2000970">
	<ele>1045.60</ele>
	<time>2025-08-16T05:46:51.000Z</time>
</trkpt>
<trkpt lat="45.9581660" lon="10.2001010">
	<ele>1045.80</ele>
	<time>2025-08-16T05:46:52.000Z</time>
</trkpt>
<trkpt lat="45.9581690" lon="10.2001040">
	<ele>1046.20</ele>
	<time>2025-08-16T05:46:53.000Z</time>
</trkpt>
<trkpt lat="45.9581740" lon="10.2001090">
	<ele>1046.40</ele>
	<time>2025-08-16T05:46:54.000Z</time>
</trkpt>
<trkpt lat="45.9581800" lon="10.2001150">
	<ele>1046.40</ele>
	<time>2025-08-16T05:46:55.000Z</time>
</trkpt>
<trkpt lat="45.9581850" lon="10.2001220">
	<ele>1046.60</ele>
	<time>2025-08-16T05:46:56.000Z</time>
</trkpt>
<trkpt lat="45.9581930" lon="10.2001280">
	<ele>1046.60</ele>
	<time>2025-08-16T05:46:57.000Z</time>
</trkpt>
<trkpt lat="45.9582030" lon="10.2001350">
	<ele>1046.60</ele>
	<time>2025-08-16T05:46:58.000Z</time>
</trkpt>
<trkpt lat="45.9582110" lon="10.2001460">
	<ele>1046.80</ele>
	<time>2025-08-16T05:46:59.000Z</time>
</trkpt>
<trkpt lat="45.9582170" lon="10.2001520">
	<ele>1047.20</ele>
	<time>2025-08-16T05:47:00.000Z</time>
</trkpt>
<trkpt lat="45.9582260" lon="10.2001540">
	<ele>1047.40</ele>
	<time>2025-08-16T05:47:01.000Z</time>
</trkpt>
<trkpt lat="45.9582320" lon="10.2001550">
	<ele>1047.60</ele>
	<time>2025-08-16T05:47:02.000Z</time>
</trkpt>
<trkpt lat="45.9582390" lon="10.2001580">
	<ele>1047.80</ele>
	<time>2025-08-16T05:47:03.000Z</time>
</trkpt>
<trkpt lat="45.9582470" lon="10.2001640">
	<ele>1048.20</ele>
	<time>2025-08-16T05:47:04.000Z</time>
</trkpt>
<trkpt lat="45.9582520" lon="10.2001690">
	<ele>1048.40</ele>
	<time>2025-08-16T05:47:05.000Z</time>
</trkpt>
<trkpt lat="45.9582590" lon="10.2001750">
	<ele>1048.60</ele>
	<time>2025-08-16T05:47:06.000Z</time>
</trkpt>
<trkpt lat="45.9582670" lon="10.2001780">
	<ele>1048.80</ele>
	<time>2025-08-16T05:47:07.000Z</time>
</trkpt>
<trkpt lat="45.9582710" lon="10.2001830">
	<ele>1049.00</ele>
	<time>2025-08-16T05:47:08.000Z</time>
</trkpt>
<trkpt lat="45.9582790" lon="10.2001860">
	<ele>1049.00</ele>
	<time>2025-08-16T05:47:09.000Z</time>
</trkpt>
<trkpt lat="45.9582860" lon="10.2001900">
	<ele>1049.20</ele>
	<time>2025-08-16T05:47:10.000Z</time>
</trkpt>
<trkpt lat="45.9582950" lon="10.2001960">
	<ele>1049.40</ele>
	<time>2025-08-16T05:47:11.000Z</time>
</trkpt>
<trkpt lat="45.9583030" lon="10.2002010">
	<ele>1049.80</ele>
	<time>2025-08-16T05:47:12.000Z</time>
</trkpt>
<trkpt lat="45.9583100" lon="10.2002050">
	<ele>1050.00</ele>
	<time>2025-08-16T05:47:13.000Z</time>
</trkpt>
<trkpt lat="45.9583170" lon="10.2002090">
	<ele>1050.00</ele>
	<time>2025-08-16T05:47:14.000Z</time>
</trkpt>
<trkpt lat="45.9583250" lon="10.2002140">
	<ele>1050.20</ele>
	<time>2025-08-16T05:47:15.000Z</time>
</trkpt>
<trkpt lat="45.9583320" lon="10.2002200">
	<ele>1050.40</ele>
	<time>2025-08-16T05:47:16.000Z</time>
</trkpt>
<trkpt lat="45.9583400" lon="10.2002270">
	<ele>1050.60</ele>
	<time>2025-08-16T05:47:17.000Z</time>
</trkpt>
<trkpt lat="45.9583470" lon="10.2002300">
	<ele>1051.00</ele>
	<time>2025-08-16T05:47:18.000Z</time>
</trkpt>
<trkpt lat="45.9583550" lon="10.2002350">
	<ele>1051.20</ele>
	<time>2025-08-16T05:47:19.000Z</time>
</trkpt>
<trkpt lat="45.9583640" lon="10.2002410">
	<ele>1051.40</ele>
	<time>2025-08-16T05:47:20.000Z</time>
</trkpt>
<trkpt lat="45.9583700" lon="10.2002460">
	<ele>1051.60</ele>
	<time>2025-08-16T05:47:21.000Z</time>
</trkpt>
<trkpt lat="45.9583830" lon="10.2002520">
	<ele>1051.80</ele>
	<time>2025-08-16T05:47:22.000Z</time>
</trkpt>
<trkpt lat="45.9583940" lon="10.2002600">
	<ele>1052.00</ele>
	<time>2025-08-16T05:47:23.000Z</time>
</trkpt>
<trkpt lat="45.9584030" lon="10.2002670">
	<ele>1052.00</ele>
	<time>2025-08-16T05:47:24.000Z</time>
</trkpt>
<trkpt lat="45.9584110" lon="10.2002710">
	<ele>1052.20</ele>
	<time>2025-08-16T05:47:25.000Z</time>
</trkpt>
<trkpt lat="45.9584190" lon="10.2002770">
	<ele>1052.60</ele>
	<time>2025-08-16T05:47:26.000Z</time>
</trkpt>
<trkpt lat="45.9584260" lon="10.2002830">
	<ele>1052.80</ele>
	<time>2025-08-16T05:47:27.000Z</time>
</trkpt>
<trkpt lat="45.9584360" lon="10.2002870">
	<ele>1053.00</ele>
	<time>2025-08-16T05:47:28.000Z</time>
</trkpt>
<trkpt lat="45.9584480" lon="10.2002920">
	<ele>1053.20</ele>
	<time>2025-08-16T05:47:29.000Z</time>
</trkpt>
<trkpt lat="45.9584580" lon="10.2002970">
	<ele>1053.20</ele>
	<time>2025-08-16T05:47:30.000Z</time>
</trkpt>
<trkpt lat="45.9584650" lon="10.2003030">
	<ele>1053.20</ele>
	<time>2025-08-16T05:47:31.000Z</time>
</trkpt>
<trkpt lat="45.9584730" lon="10.2003110">
	<ele>1053.40</ele>
	<time>2025-08-16T05:47:32.000Z</time>
</trkpt>
<trkpt lat="45.9584820" lon="10.2003180">
	<ele>1053.40</ele>
	<time>2025-08-16T05:47:33.000Z</time>
</trkpt>
<trkpt lat="45.9584890" lon="10.2003240">
	<ele>1053.80</ele>
	<time>2025-08-16T05:47:34.000Z</time>
</trkpt>
<trkpt lat="45.9584980" lon="10.2003320">
	<ele>1053.80</ele>
	<time>2025-08-16T05:47:35.000Z</time>
</trkpt>
<trkpt lat="45.9585060" lon="10.2003400">
	<ele>1054.00</ele>
	<time>2025-08-16T05:47:36.000Z</time>
</trkpt>
<trkpt lat="45.9585180" lon="10.2003510">
	<ele>1054.00</ele>
	<time>2025-08-16T05:47:37.000Z</time>
</trkpt>
<trkpt lat="45.9585290" lon="10.2003580">
	<ele>1054.20</ele>
	<time>2025-08-16T05:47:38.000Z</time>
</trkpt>
<trkpt lat="45.9585360" lon="10.2003670">
	<ele>1054.40</ele>
	<time>2025-08-16T05:47:39.000Z</time>
</trkpt>
<trkpt lat="45.9585440" lon="10.2003720">
	<ele>1054.40</ele>
	<time>2025-08-16T05:47:40.000Z</time>
</trkpt>
<trkpt lat="45.9585530" lon="10.2003780">
	<ele>1054.60</ele>
	<time>2025-08-16T05:47:41.000Z</time>
</trkpt>
<trkpt lat="45.9585650" lon="10.2003810">
	<ele>1054.80</ele>
	<time>2025-08-16T05:47:42.000Z</time>
</trkpt>
<trkpt lat="45.9585770" lon="10.2003840">
	<ele>1055.00</ele>
	<time>2025-08-16T05:47:43.000Z</time>
</trkpt>
<trkpt lat="45.9585860" lon="10.2003860">
	<ele>1055.00</ele>
	<time>2025-08-16T05:47:44.000Z</time>
</trkpt>
<trkpt lat="45.9585950" lon="10.2003910">
	<ele>1055.00</ele>
	<time>2025-08-16T05:47:45.000Z</time>
</trkpt>
<trkpt lat="45.9586040" lon="10.2004010">
	<ele>1055.20</ele>
	<time>2025-08-16T05:47:46.000Z</time>
</trkpt>
<trkpt lat="45.9586120" lon="10.2004040">
	<ele>1055.40</ele>
	<time>2025-08-16T05:47:47.000Z</time>
</trkpt>
<trkpt lat="45.9586180" lon="10.2004050">
	<ele>1055.60</ele>
	<time>2025-08-16T05:47:48.000Z</time>
</trkpt>
<trkpt lat="45.9586280" lon="10.2004110">
	<ele>1055.80</ele>
	<time>2025-08-16T05:47:49.000Z</time>
</trkpt>
<trkpt lat="45.9586360" lon="10.2004160">
	<ele>1055.80</ele>
	<time>2025-08-16T05:47:50.000Z</time>
</trkpt>
<trkpt lat="45.9586420" lon="10.2004230">
	<ele>1056.00</ele>
	<time>2025-08-16T05:47:51.000Z</time>
</trkpt>
<trkpt lat="45.9586530" lon="10.2004300">
	<ele>1056.20</ele>
	<time>2025-08-16T05:47:52.000Z</time>
</trkpt>
<trkpt lat="45.9586600" lon="10.2004400">
	<ele>1056.20</ele>
	<time>2025-08-16T05:47:53.000Z</time>
</trkpt>
<trkpt lat="45.9586730" lon="10.2004430">
	<ele>1056.40</ele>
	<time>2025-08-16T05:47:54.000Z</time>
</trkpt>
<trkpt lat="45.9586790" lon="10.2004470">
	<ele>1056.60</ele>
	<time>2025-08-16T05:47:55.000Z</time>
</trkpt>
<trkpt lat="45.9586870" lon="10.2004540">
	<ele>1056.60</ele>
	<time>2025-08-16T05:47:56.000Z</time>
</trkpt>
<trkpt lat="45.9586950" lon="10.2004640">
	<ele>1056.80</ele>
	<time>2025-08-16T05:47:57.000Z</time>
</trkpt>
<trkpt lat="45.9587060" lon="10.2004690">
	<ele>1057.00</ele>
	<time>2025-08-16T05:47:58.000Z</time>
</trkpt>
<trkpt lat="45.9587150" lon="10.2004750">
	<ele>1057.20</ele>
	<time>2025-08-16T05:47:59.000Z</time>
</trkpt>
<trkpt lat="45.9587250" lon="10.2004800">
	<ele>1057.40</ele>
	<time>2025-08-16T05:48:00.000Z</time>
</trkpt>
<trkpt lat="45.9587250" lon="10.2004850">
	<ele>1057.60</ele>
	<time>2025-08-16T05:48:01.000Z</time>
</trkpt>
<trkpt lat="45.9587360" lon="10.2004890">
	<ele>1057.80</ele>
	<time>2025-08-16T05:48:02.000Z</time>
</trkpt>
<trkpt lat="45.9587450" lon="10.2004900">
	<ele>1057.80</ele>
	<time>2025-08-16T05:48:03.000Z</time>
</trkpt>
<trkpt lat="45.9587500" lon="10.2004920">
	<ele>1058.00</ele>
	<time>2025-08-16T05:48:04.000Z</time>
</trkpt>
<trkpt lat="45.9587550" lon="10.2004980">
	<ele>1058.00</ele>
	<time>2025-08-16T05:48:05.000Z</time>
</trkpt>
<trkpt lat="45.9587600" lon="10.2005010">
	<ele>1058.20</ele>
	<time>2025-08-16T05:48:06.000Z</time>
</trkpt>
<trkpt lat="45.9587700" lon="10.2005080">
	<ele>1058.20</ele>
	<time>2025-08-16T05:48:07.000Z</time>
</trkpt>
<trkpt lat="45.9587820" lon="10.2005130">
	<ele>1058.40</ele>
	<time>2025-08-16T05:48:08.000Z</time>
</trkpt>
<trkpt lat="45.9587940" lon="10.2005190">
	<ele>1058.60</ele>
	<time>2025-08-16T05:48:09.000Z</time>
</trkpt>
<trkpt lat="45.9588070" lon="10.2005320">
	<ele>1058.80</ele>
	<time>2025-08-16T05:48:10.000Z</time>
</trkpt>
<trkpt lat="45.9588230" lon="10.2005390">
	<ele>1059.00</ele>
	<time>2025-08-16T05:48:11.000Z</time>
</trkpt>
<trkpt lat="45.9588350" lon="10.2005480">
	<ele>1059.20</ele>
	<time>2025-08-16T05:48:12.000Z</time>
</trkpt>
<trkpt lat="45.9588420" lon="10.2005540">
	<ele>1059.40</ele>
	<time>2025-08-16T05:48:13.000Z</time>
</trkpt>
<trkpt lat="45.9588510" lon="10.2005600">
	<ele>1059.40</ele>
	<time>2025-08-16T05:48:14.000Z</time>
</trkpt>
<trkpt lat="45.9588620" lon="10.2005640">
	<ele>1059.80</ele>
	<time>2025-08-16T05:48:15.000Z</time>
</trkpt>
<trkpt lat="45.9588730" lon="10.2005710">
	<ele>1060.00</ele>
	<time>2025-08-16T05:48:16.000Z</time>
</trkpt>
<trkpt lat="45.9588830" lon="10.2005770">
	<ele>1060.20</ele>
	<time>2025-08-16T05:48:17.000Z</time>
</trkpt>
<trkpt lat="45.9588960" lon="10.2005830">
	<ele>1060.20</ele>
	<time>2025-08-16T05:48:18.000Z</time>
</trkpt>
<trkpt lat="45.9589040" lon="10.2005840">
	<ele>1060.40</ele>
	<time>2025-08-16T05:48:19.000Z</time>
</trkpt>
<trkpt lat="45.9589170" lon="10.2005830">
	<ele>1060.60</ele>
	<time>2025-08-16T05:48:20.000Z</time>
</trkpt>
<trkpt lat="45.9589300" lon="10.2005850">
	<ele>1060.60</ele>
	<time>2025-08-16T05:48:21.000Z</time>
</trkpt>
<trkpt lat="45.9589400" lon="10.2005870">
	<ele>1060.60</ele>
	<time>2025-08-16T05:48:22.000Z</time>
</trkpt>
<trkpt lat="45.9589510" lon="10.2005930">
	<ele>1060.80</ele>
	<time>2025-08-16T05:48:23.000Z</time>
</trkpt>
<trkpt lat="45.9589590" lon="10.2005980">
	<ele>1060.80</ele>
	<time>2025-08-16T05:48:24.000Z</time>
</trkpt>
<trkpt lat="45.9589690" lon="10.2006010">
	<ele>1061.00</ele>
	<time>2025-08-16T05:48:25.000Z</time>
</trkpt>
<trkpt lat="45.9589770" lon="10.2006060">
	<ele>1061.20</ele>
	<time>2025-08-16T05:48:26.000Z</time>
</trkpt>
<trkpt lat="45.9589860" lon="10.2006100">
	<ele>1061.40</ele>
	<time>2025-08-16T05:48:27.000Z</time>
</trkpt>
<trkpt lat="45.9589950" lon="10.2006130">
	<ele>1061.40</ele>
	<time>2025-08-16T05:48:28.000Z</time>
</trkpt>
<trkpt lat="45.9590020" lon="10.2006100">
	<ele>1061.60</ele>
	<time>2025-08-16T05:48:29.000Z</time>
</trkpt>
<trkpt lat="45.9590120" lon="10.2006100">
	<ele>1061.80</ele>
	<time>2025-08-16T05:48:30.000Z</time>
</trkpt>
<trkpt lat="45.9590230" lon="10.2006080">
	<ele>1062.00</ele>
	<time>2025-08-16T05:48:31.000Z</time>
</trkpt>
<trkpt lat="45.9590370" lon="10.2006040">
	<ele>1062.20</ele>
	<time>2025-08-16T05:48:32.000Z</time>
</trkpt>
<trkpt lat="45.9590490" lon="10.2005990">
	<ele>1062.40</ele>
	<time>2025-08-16T05:48:33.000Z</time>
</trkpt>
<trkpt lat="45.9590580" lon="10.2005950">
	<ele>1062.40</ele>
	<time>2025-08-16T05:48:34.000Z</time>
</trkpt>
<trkpt lat="45.9590660" lon="10.2005900">
	<ele>1062.60</ele>
	<time>2025-08-16T05:48:35.000Z</time>
</trkpt>
<trkpt lat="45.9590760" lon="10.2005860">
	<ele>1062.60</ele>
	<time>2025-08-16T05:48:36.000Z</time>
</trkpt>
<trkpt lat="45.9590870" lon="10.2005830">
	<ele>1062.80</ele>
	<time>2025-08-16T05:48:37.000Z</time>
</trkpt>
<trkpt lat="45.9591000" lon="10.2005830">
	<ele>1063.00</ele>
	<time>2025-08-16T05:48:38.000Z</time>
</trkpt>
<trkpt lat="45.9591100" lon="10.2005810">
	<ele>1063.00</ele>
	<time>2025-08-16T05:48:39.000Z</time>
</trkpt>
<trkpt lat="45.9591180" lon="10.2005770">
	<ele>1063.20</ele>
	<time>2025-08-16T05:48:40.000Z</time>
</trkpt>
<trkpt lat="45.9591280" lon="10.2005720">
	<ele>1063.40</ele>
	<time>2025-08-16T05:48:41.000Z</time>
</trkpt>
<trkpt lat="45.9591360" lon="10.2005700">
	<ele>1063.40</ele>
	<time>2025-08-16T05:48:42.000Z</time>
</trkpt>
<trkpt lat="45.9591450" lon="10.2005620">
	<ele>1063.60</ele>
	<time>2025-08-16T05:48:43.000Z</time>
</trkpt>
<trkpt lat="45.9591550" lon="10.2005510">
	<ele>1063.60</ele>
	<time>2025-08-16T05:48:44.000Z</time>
</trkpt>
<trkpt lat="45.9591650" lon="10.2005420">
	<ele>1063.80</ele>
	<time>2025-08-16T05:48:45.000Z</time>
</trkpt>
<trkpt lat="45.9591770" lon="10.2005320">
	<ele>1064.20</ele>
	<time>2025-08-16T05:48:46.000Z</time>
</trkpt>
<trkpt lat="45.9591860" lon="10.2005250">
	<ele>1064.20</ele>
	<time>2025-08-16T05:48:47.000Z</time>
</trkpt>
<trkpt lat="45.9591940" lon="10.2005180">
	<ele>1064.40</ele>
	<time>2025-08-16T05:48:48.000Z</time>
</trkpt>
<trkpt lat="45.9592030" lon="10.2005090">
	<ele>1064.40</ele>
	<time>2025-08-16T05:48:49.000Z</time>
</trkpt>
<trkpt lat="45.9592130" lon="10.2005040">
	<ele>1064.80</ele>
	<time>2025-08-16T05:48:50.000Z</time>
</trkpt>
<trkpt lat="45.9592240" lon="10.2004960">
	<ele>1065.00</ele>
	<time>2025-08-16T05:48:51.000Z</time>
</trkpt>
<trkpt lat="45.9592340" lon="10.2004890">
	<ele>1065.20</ele>
	<time>2025-08-16T05:48:52.000Z</time>
</trkpt>
<trkpt lat="45.9592450" lon="10.2004780">
	<ele>1065.40</ele>
	<time>2025-08-16T05:48:53.000Z</time>
</trkpt>
<trkpt lat="45.9592540" lon="10.2004690">
	<ele>1065.40</ele>
	<time>2025-08-16T05:48:54.000Z</time>
</trkpt>
<trkpt lat="45.9592640" lon="10.2004640">
	<ele>1065.40</ele>
	<time>2025-08-16T05:48:55.000Z</time>
</trkpt>
<trkpt lat="45.9592730" lon="10.2004570">
	<ele>1065.60</ele>
	<time>2025-08-16T05:48:56.000Z</time>
</trkpt>
<trkpt lat="45.9592770" lon="10.2004470">
	<ele>1066.00</ele>
	<time>2025-08-16T05:48:57.000Z</time>
</trkpt>
<trkpt lat="45.9592840" lon="10.2004390">
	<ele>1066.00</ele>
	<time>2025-08-16T05:48:58.000Z</time>
</trkpt>
<trkpt lat="45.9592950" lon="10.2004330">
	<ele>1066.20</ele>
	<time>2025-08-16T05:48:59.000Z</time>
</trkpt>
<trkpt lat="45.9593050" lon="10.2004290">
	<ele>1066.40</ele>
	<time>2025-08-16T05:49:00.000Z</time>
</trkpt>
<trkpt lat="45.9593140" lon="10.2004200">
	<ele>1066.60</ele>
	<time>2025-08-16T05:49:01.000Z</time>
</trkpt>
<trkpt lat="45.9593140" lon="10.2004100">
	<ele>1066.60</ele>
	<time>2025-08-16T05:49:02.000Z</time>
</trkpt>
<trkpt lat="45.9593170" lon="10.2004070">
	<ele>1066.60</ele>
	<time>2025-08-16T05:49:03.000Z</time>
</trkpt>
<trkpt lat="45.9593180" lon="10.2004050">
	<ele>1066.60</ele>
	<time>2025-08-16T05:49:04.000Z</time>
</trkpt>
<trkpt lat="45.9593180" lon="10.2004030">
	<ele>1066.80</ele>
	<time>2025-08-16T05:49:05.000Z</time>
</trkpt>
<trkpt lat="45.9593210" lon="10.2004010">
	<ele>1067.20</ele>
	<time>2025-08-16T05:49:06.000Z</time>
</trkpt>
<trkpt lat="45.9593300" lon="10.2003950">
	<ele>1067.40</ele>
	<time>2025-08-16T05:49:07.000Z</time>
</trkpt>
<trkpt lat="45.9593390" lon="10.2003880">
	<ele>1067.60</ele>
	<time>2025-08-16T05:49:08.000Z</time>
</trkpt>
<trkpt lat="45.9593490" lon="10.2003780">
	<ele>1067.80</ele>
	<time>2025-08-16T05:49:09.000Z</time>
</trkpt>
<trkpt lat="45.9593580" lon="10.2003710">
	<ele>1068.00</ele>
	<time>2025-08-16T05:49:10.000Z</time>
</trkpt>
<trkpt lat="45.9593690" lon="10.2003650">
	<ele>1068.20</ele>
	<time>2025-08-16T05:49:11.000Z</time>
</trkpt>
<trkpt lat="45.9593770" lon="10.2003560">
	<ele>1068.40</ele>
	<time>2025-08-16T05:49:12.000Z</time>
</trkpt>
<trkpt lat="45.9593830" lon="10.2003520">
	<ele>1068.60</ele>
	<time>2025-08-16T05:49:13.000Z</time>
</trkpt>
<trkpt lat="45.9593900" lon="10.2003450">
	<ele>1068.80</ele>
	<time>2025-08-16T05:49:14.000Z</time>
</trkpt>
<trkpt lat="45.9593980" lon="10.2003390">
	<ele>1069.00</ele>
	<time>2025-08-16T05:49:15.000Z</time>
</trkpt>
<trkpt lat="45.9594070" lon="10.2003320">
	<ele>1069.20</ele>
	<time>2025-08-16T05:49:16.000Z</time>
</trkpt>
<trkpt lat="45.9594150" lon="10.2003240">
	<ele>1069.40</ele>
	<time>2025-08-16T05:49:17.000Z</time>
</trkpt>
<trkpt lat="45.9594240" lon="10.2003160">
	<ele>1069.60</ele>
	<time>2025-08-16T05:49:18.000Z</time>
</trkpt>
<trkpt lat="45.9594330" lon="10.2003120">
	<ele>1069.80</ele>
	<time>2025-08-16T05:49:19.000Z</time>
</trkpt>
<trkpt lat="45.9594410" lon="10.2003060">
	<ele>1070.20</ele>
	<time>2025-08-16T05:49:20.000Z</time>
</trkpt>
<trkpt lat="45.9594480" lon="10.2002980">
	<ele>1070.20</ele>
	<time>2025-08-16T05:49:21.000Z</time>
</trkpt>
<trkpt lat="45.9594560" lon="10.2002920">
	<ele>1070.40</ele>
	<time>2025-08-16T05:49:22.000Z</time>
</trkpt>
<trkpt lat="45.9594650" lon="10.2002850">
	<ele>1070.60</ele>
	<time>2025-08-16T05:49:23.000Z</time>
</trkpt>
<trkpt lat="45.9594700" lon="10.2002790">
	<ele>1070.80</ele>
	<time>2025-08-16T05:49:24.000Z</time>
</trkpt>
<trkpt lat="45.9594790" lon="10.2002760">
	<ele>1071.00</ele>
	<time>2025-08-16T05:49:25.000Z</time>
</trkpt>
<trkpt lat="45.9594910" lon="10.2002740">
	<ele>1071.20</ele>
	<time>2025-08-16T05:49:26.000Z</time>
</trkpt>
<trkpt lat="45.9594970" lon="10.2002700">
	<ele>1071.40</ele>
	<time>2025-08-16T05:49:27.000Z</time>
</trkpt>
<trkpt lat="45.9595060" lon="10.2002620">
	<ele>1071.60</ele>
	<time>2025-08-16T05:49:28.000Z</time>
</trkpt>
<trkpt lat="45.9595160" lon="10.2002570">
	<ele>1071.80</ele>
	<time>2025-08-16T05:49:29.000Z</time>
</trkpt>
<trkpt lat="45.9595250" lon="10.2002520">
	<ele>1071.80</ele>
	<time>2025-08-16T05:49:30.000Z</time>
</trkpt>
<trkpt lat="45.9595340" lon="10.2002460">
	<ele>1072.00</ele>
	<time>2025-08-16T05:49:31.000Z</time>
</trkpt>
<trkpt lat="45.9595380" lon="10.2002410">
	<ele>1072.20</ele>
	<time>2025-08-16T05:49:32.000Z</time>
</trkpt>
<trkpt lat="45.9595430" lon="10.2002340">
	<ele>1072.40</ele>
	<time>2025-08-16T05:49:33.000Z</time>
</trkpt>
<trkpt lat="45.9595480" lon="10.2002290">
	<ele>1072.60</ele>
	<time>2025-08-16T05:49:34.000Z</time>
</trkpt>
<trkpt lat="45.9595550" lon="10.2002230">
	<ele>1072.80</ele>
	<time>2025-08-16T05:49:35.000Z</time>
</trkpt>
<trkpt lat="45.9595660" lon="10.2002140">
	<ele>1072.80</ele>
	<time>2025-08-16T05:49:36.000Z</time>
</trkpt>
<trkpt lat="45.9595760" lon="10.2002080">
	<ele>1073.20</ele>
	<time>2025-08-16T05:49:37.000Z</time>
</trkpt>
<trkpt lat="45.9595840" lon="10.2002020">
	<ele>1073.40</ele>
	<time>2025-08-16T05:49:38.000Z</time>
</trkpt>
<trkpt lat="45.9595920" lon="10.2001960">
	<ele>1073.60</ele>
	<time>2025-08-16T05:49:39.000Z</time>
</trkpt>
<trkpt lat="45.9596040" lon="10.2001910">
	<ele>1073.80</ele>
	<time>2025-08-16T05:49:40.000Z</time>
</trkpt>
<trkpt lat="45.9596120" lon="10.2001860">
	<ele>1074.00</ele>
	<time>2025-08-16T05:49:41.000Z</time>
</trkpt>
<trkpt lat="45.9596150" lon="10.2001850">
	<ele>1074.20</ele>
	<time>2025-08-16T05:49:42.000Z</time>
</trkpt>
<trkpt lat="45.9596290" lon="10.2001760">
	<ele>1074.60</ele>
	<time>2025-08-16T05:49:43.000Z</time>
</trkpt>
<trkpt lat="45.9596420" lon="10.2001690">
	<ele>1074.80</ele>
	<time>2025-08-16T05:49:44.000Z</time>
</trkpt>
<trkpt lat="45.9596500" lon="10.2001650">
	<ele>1075.00</ele>
	<time>2025-08-16T05:49:45.000Z</time>
</trkpt>
<trkpt lat="45.9596560" lon="10.2001590">
	<ele>1075.20</ele>
	<time>2025-08-16T05:49:46.000Z</time>
</trkpt>
<trkpt lat="45.9596600" lon="10.2001540">
	<ele>1075.20</ele>
	<time>2025-08-16T05:49:47.000Z</time>
</trkpt>
<trkpt lat="45.9596660" lon="10.2001460">
	<ele>1075.40</ele>
	<time>2025-08-16T05:49:48.000Z</time>
</trkpt>
<trkpt lat="45.9596740" lon="10.2001370">
	<ele>1075.60</ele>
	<time>2025-08-16T05:49:49.000Z</time>
</trkpt>
<trkpt lat="45.9596800" lon="10.2001300">
	<ele>1075.80</ele>
	<time>2025-08-16T05:49:50.000Z</time>
</trkpt>
<trkpt lat="45.9596880" lon="10.2001210">
	<ele>1076.00</ele>
	<time>2025-08-16T05:49:51.000Z</time>
</trkpt>
<trkpt lat="45.9596980" lon="10.2001140">
	<ele>1076.20</ele>
	<time>2025-08-16T05:49:52.000Z</time>
</trkpt>
<trkpt lat="45.9597070" lon="10.2001040">
	<ele>1076.40</ele>
	<time>2025-08-16T05:49:53.000Z</time>
</trkpt>
<trkpt lat="45.9597110" lon="10.2000920">
	<ele>1076.80</ele>
	<time>2025-08-16T05:49:54.000Z</time>
</trkpt>
<trkpt lat="45.9597130" lon="10.2000810">
	<ele>1077.00</ele>
	<time>2025-08-16T05:49:55.000Z</time>
</trkpt>
<trkpt lat="45.9597190" lon="10.2000680">
	<ele>1077.20</ele>
	<time>2025-08-16T05:49:56.000Z</time>
</trkpt>
<trkpt lat="45.9597260" lon="10.2000590">
	<ele>1077.40</ele>
	<time>2025-08-16T05:49:57.000Z</time>
</trkpt>
<trkpt lat="45.9597380" lon="10.2000530">
	<ele>1077.40</ele>
	<time>2025-08-16T05:49:58.000Z</time>
</trkpt>
<trkpt lat="45.9597450" lon="10.2000490">
	<ele>1077.60</ele>
	<time>2025-08-16T05:49:59.000Z</time>
</trkpt>
<trkpt lat="45.9597510" lon="10.2000450">
	<ele>1077.80</ele>
	<time>2025-08-16T05:50:00.000Z</time>
</trkpt>
<trkpt lat="45.9597510" lon="10.2000350">
	<ele>1078.00</ele>
	<time>2025-08-16T05:50:01.000Z</time>
</trkpt>
<trkpt lat="45.9597510" lon="10.2000230">
	<ele>1078.20</ele>
	<time>2025-08-16T05:50:02.000Z</time>
</trkpt>
<trkpt lat="45.9597490" lon="10.2000080">
	<ele>1078.40</ele>
	<time>2025-08-16T05:50:03.000Z</time>
</trkpt>
<trkpt lat="45.9597460" lon="10.1999890">
	<ele>1078.40</ele>
	<time>2025-08-16T05:50:04.000Z</time>
</trkpt>
<trkpt lat="45.9597480" lon="10.1999810">
	<ele>1078.60</ele>
	<time>2025-08-16T05:50:05.000Z</time>
</trkpt>
<trkpt lat="45.9597500" lon="10.1999680">
	<ele>1078.80</ele>
	<time>2025-08-16T05:50:06.000Z</time>
</trkpt>
<trkpt lat="45.9597580" lon="10.1999600">
	<ele>1079.00</ele>
	<time>2025-08-16T05:50:07.000Z</time>
</trkpt>
<trkpt lat="45.9597600" lon="10.1999430">
	<ele>1079.20</ele>
	<time>2025-08-16T05:50:08.000Z</time>
</trkpt>
<trkpt lat="45.9597630" lon="10.1999260">
	<ele>1079.20</ele>
	<time>2025-08-16T05:50:09.000Z</time>
</trkpt>
<trkpt lat="45.9597680" lon="10.1999100">
	<ele>1079.20</ele>
	<time>2025-08-16T05:50:10.000Z</time>
</trkpt>
<trkpt lat="45.9597760" lon="10.1999000">
	<ele>1079.40</ele>
	<time>2025-08-16T05:50:11.000Z</time>
</trkpt>
<trkpt lat="45.9597790" lon="10.1998890">
	<ele>1079.60</ele>
	<time>2025-08-16T05:50:12.000Z</time>
</trkpt>
<trkpt lat="45.9597860" lon="10.1998750">
	<ele>1079.80</ele>
	<time>2025-08-16T05:50:13.000Z</time>
</trkpt>
<trkpt lat="45.9597900" lon="10.1998620">
	<ele>1079.80</ele>
	<time>2025-08-16T05:50:14.000Z</time>
</trkpt>
<trkpt lat="45.9597930" lon="10.1998510">
	<ele>1080.20</ele>
	<time>2025-08-16T05:50:15.000Z</time>
</trkpt>
<trkpt lat="45.9597930" lon="10.1998440">
	<ele>1080.40</ele>
	<time>2025-08-16T05:50:16.000Z</time>
</trkpt>
<trkpt lat="45.9597930" lon="10.1998340">
	<ele>1080.60</ele>
	<time>2025-08-16T05:50:17.000Z</time>
</trkpt>
<trkpt lat="45.9597950" lon="10.1998270">
	<ele>1080.80</ele>
	<time>2025-08-16T05:50:18.000Z</time>
</trkpt>
<trkpt lat="45.9597950" lon="10.1998120">
	<ele>1080.80</ele>
	<time>2025-08-16T05:50:19.000Z</time>
</trkpt>
<trkpt lat="45.9597950" lon="10.1998010">
	<ele>1081.00</ele>
	<time>2025-08-16T05:50:20.000Z</time>
</trkpt>
<trkpt lat="45.9597950" lon="10.1997900">
	<ele>1081.40</ele>
	<time>2025-08-16T05:50:21.000Z</time>
</trkpt>
<trkpt lat="45.9597970" lon="10.1997770">
	<ele>1081.40</ele>
	<time>2025-08-16T05:50:22.000Z</time>
</trkpt>
<trkpt lat="45.9597990" lon="10.1997640">
	<ele>1081.60</ele>
	<time>2025-08-16T05:50:23.000Z</time>
</trkpt>
<trkpt lat="45.9598020" lon="10.1997530">
	<ele>1081.80</ele>
	<time>2025-08-16T05:50:24.000Z</time>
</trkpt>
<trkpt lat="45.9598050" lon="10.1997300">
	<ele>1082.00</ele>
	<time>2025-08-16T05:50:25.000Z</time>
</trkpt>
<trkpt lat="45.9598070" lon="10.1997160">
	<ele>1082.20</ele>
	<time>2025-08-16T05:50:26.000Z</time>
</trkpt>
<trkpt lat="45.9598030" lon="10.1997040">
	<ele>1082.40</ele>
	<time>2025-08-16T05:50:27.000Z</time>
</trkpt>
<trkpt lat="45.9598050" lon="10.1996990">
	<ele>1082.60</ele>
	<time>2025-08-16T05:50:28.000Z</time>
</trkpt>
<trkpt lat="45.9598040" lon="10.1996880">
	<ele>1082.80</ele>
	<time>2025-08-16T05:50:29.000Z</time>
</trkpt>
<trkpt lat="45.9598000" lon="10.1996800">
	<ele>1083.20</ele>
	<time>2025-08-16T05:50:30.000Z</time>
</trkpt>
<trkpt lat="45.9597970" lon="10.1996660">
	<ele>1083.40</ele>
	<time>2025-08-16T05:50:31.000Z</time>
</trkpt>
<trkpt lat="45.9597910" lon="10.1996520">
	<ele>1083.60</ele>
	<time>2025-08-16T05:50:32.000Z</time>
</trkpt>
<trkpt lat="45.9597890" lon="10.1996400">
	<ele>1083.80</ele>
	<time>2025-08-16T05:50:33.000Z</time>
</trkpt>
<trkpt lat="45.9597880" lon="10.1996300">
	<ele>1084.00</ele>
	<time>2025-08-16T05:50:34.000Z</time>
</trkpt>
<trkpt lat="45.9597890" lon="10.1996180">
	<ele>1084.20</ele>
	<time>2025-08-16T05:50:35.000Z</time>
</trkpt>
<trkpt lat="45.9597910" lon="10.1996020">
	<ele>1084.20</ele>
	<time>2025-08-16T05:50:36.000Z</time>
</trkpt>
<trkpt lat="45.9597910" lon="10.1995910">
	<ele>1084.40</ele>
	<time>2025-08-16T05:50:37.000Z</time>
</trkpt>
<trkpt lat="45.9597890" lon="10.1995760">
	<ele>1084.60</ele>
	<time>2025-08-16T05:50:38.000Z</time>
</trkpt>
<trkpt lat="45.9597980" lon="10.1995620">
	<ele>1084.80</ele>
	<time>2025-08-16T05:50:39.000Z</time>
</trkpt>
<trkpt lat="45.9598050" lon="10.1995530">
	<ele>1084.80</ele>
	<time>2025-08-16T05:50:40.000Z</time>
</trkpt>
<trkpt lat="45.9598050" lon="10.1995380">
	<ele>1085.00</ele>
	<time>2025-08-16T05:50:41.000Z</time>
</trkpt>
<trkpt lat="45.9598030" lon="10.1995280">
	<ele>1085.20</ele>
	<time>2025-08-16T05:50:42.000Z</time>
</trkpt>
<trkpt lat="45.9597990" lon="10.1995130">
	<ele>1085.40</ele>
	<time>2025-08-16T05:50:43.000Z</time>
</trkpt>
<trkpt lat="45.9597950" lon="10.1994960">
	<ele>1085.60</ele>
	<time>2025-08-16T05:50:44.000Z</time>
</trkpt>
<trkpt lat="45.9598070" lon="10.1994930">
	<ele>1085.80</ele>
	<time>2025-08-16T05:50:45.000Z</time>
</trkpt>
<trkpt lat="45.9598260" lon="10.1994920">
	<ele>1086.00</ele>
	<time>2025-08-16T05:50:46.000Z</time>
</trkpt>
<trkpt lat="45.9598280" lon="10.1994860">
	<ele>1086.00</ele>
	<time>2025-08-16T05:50:47.000Z</time>
</trkpt>
<trkpt lat="45.9598270" lon="10.1994770">
	<ele>1086.20</ele>
	<time>2025-08-16T05:50:48.000Z</time>
</trkpt>
<trkpt lat="45.9598320" lon="10.1994700">
	<ele>1086.40</ele>
	<time>2025-08-16T05:50:49.000Z</time>
</trkpt>
<trkpt lat="45.9598330" lon="10.1994580">
	<ele>1086.60</ele>
	<time>2025-08-16T05:50:50.000Z</time>
</trkpt>
<trkpt lat="45.9598370" lon="10.1994450">
	<ele>1086.80</ele>
	<time>2025-08-16T05:50:51.000Z</time>
</trkpt>
<trkpt lat="45.9598460" lon="10.1994370">
	<ele>1087.00</ele>
	<time>2025-08-16T05:50:52.000Z</time>
</trkpt>
<trkpt lat="45.9598430" lon="10.1994250">
	<ele>1087.20</ele>
	<time>2025-08-16T05:50:53.000Z</time>
</trkpt>
<trkpt lat="45.9598470" lon="10.1994150">
	<ele>1087.40</ele>
	<time>2025-08-16T05:50:54.000Z</time>
</trkpt>
<trkpt lat="45.9598320" lon="10.1993950">
	<ele>1087.60</ele>
	<time>2025-08-16T05:50:55.000Z</time>
</trkpt>
<trkpt lat="45.9598290" lon="10.1993750">
	<ele>1087.80</ele>
	<time>2025-08-16T05:50:56.000Z</time>
</trkpt>
<trkpt lat="45.9598280" lon="10.1993650">
	<ele>1088.00</ele>
	<time>2025-08-16T05:50:57.000Z</time>
</trkpt>
<trkpt lat="45.9598300" lon="10.1993580">
	<ele>1088.20</ele>
	<time>2025-08-16T05:50:58.000Z</time>
</trkpt>
<trkpt lat="45.9598460" lon="10.1993500">
	<ele>1088.40</ele>
	<time>2025-08-16T05:50:59.000Z</time>
</trkpt>
<trkpt lat="45.9598620" lon="10.1993430">
	<ele>1088.60</ele>
	<time>2025-08-16T05:51:00.000Z</time>
</trkpt>
<trkpt lat="45.9598530" lon="10.1993320">
	<ele>1088.80</ele>
	<time>2025-08-16T05:51:01.000Z</time>
</trkpt>
<trkpt lat="45.9598590" lon="10.1993240">
	<ele>1089.20</ele>
	<time>2025-08-16T05:51:02.000Z</time>
</trkpt>
<trkpt lat="45.9598600" lon="10.1993140">
	<ele>1089.40</ele>
	<time>2025-08-16T05:51:03.000Z</time>
</trkpt>
<trkpt lat="45.9598620" lon="10.1993020">
	<ele>1089.60</ele>
	<time>2025-08-16T05:51:04.000Z</time>
</trkpt>
<trkpt lat="45.9598650" lon="10.1992870">
	<ele>1089.80</ele>
	<time>2025-08-16T05:51:05.000Z</time>
</trkpt>
<trkpt lat="45.9598660" lon="10.1992750">
	<ele>1090.00</ele>
	<time>2025-08-16T05:51:06.000Z</time>
</trkpt>
<trkpt lat="45.9598650" lon="10.1992640">
	<ele>1090.20</ele>
	<time>2025-08-16T05:51:07.000Z</time>
</trkpt>
<trkpt lat="45.9598680" lon="10.1992510">
	<ele>1090.20</ele>
	<time>2025-08-16T05:51:08.000Z</time>
</trkpt>
<trkpt lat="45.9598730" lon="10.1992420">
	<ele>1090.60</ele>
	<time>2025-08-16T05:51:09.000Z</time>
</trkpt>
<trkpt lat="45.9598800" lon="10.1992340">
	<ele>1090.80</ele>
	<time>2025-08-16T05:51:10.000Z</time>
</trkpt>
<trkpt lat="45.9598860" lon="10.1992240">
	<ele>1091.00</ele>
	<time>2025-08-16T05:51:11.000Z</time>
</trkpt>
<trkpt lat="45.9598890" lon="10.1992130">
	<ele>1091.20</ele>
	<time>2025-08-16T05:51:12.000Z</time>
</trkpt>
<trkpt lat="45.9598910" lon="10.1992040">
	<ele>1091.40</ele>
	<time>2025-08-16T05:51:13.000Z</time>
</trkpt>
<trkpt lat="45.9598890" lon="10.1991950">
	<ele>1091.60</ele>
	<time>2025-08-16T05:51:14.000Z</time>
</trkpt>
<trkpt lat="45.9598880" lon="10.1991880">
	<ele>1091.80</ele>
	<time>2025-08-16T05:51:15.000Z</time>
</trkpt>
<trkpt lat="45.9598860" lon="10.1991760">
	<ele>1092.00</ele>
	<time>2025-08-16T05:51:16.000Z</time>
</trkpt>
<trkpt lat="45.9598850" lon="10.1991640">
	<ele>1092.20</ele>
	<time>2025-08-16T05:51:17.000Z</time>
</trkpt>
<trkpt lat="45.9598850" lon="10.1991520">
	<ele>1092.40</ele>
	<time>2025-08-16T05:51:18.000Z</time>
</trkpt>
<trkpt lat="45.9598830" lon="10.1991410">
	<ele>1092.60</ele>
	<time>2025-08-16T05:51:19.000Z</time>
</trkpt>
<trkpt lat="45.9598860" lon="10.1991320">
	<ele>1092.80</ele>
	<time>2025-08-16T05:51:20.000Z</time>
</trkpt>
<trkpt lat="45.9598920" lon="10.1991230">
	<ele>1092.80</ele>
	<time>2025-08-16T05:51:21.000Z</time>
</trkpt>
<trkpt lat="45.9598930" lon="10.1991130">
	<ele>1093.00</ele>
	<time>2025-08-16T05:51:22.000Z</time>
</trkpt>
<trkpt lat="45.9598930" lon="10.1991040">
	<ele>1093.20</ele>
	<time>2025-08-16T05:51:23.000Z</time>
</trkpt>
<trkpt lat="45.9599010" lon="10.1990960">
	<ele>1093.40</ele>
	<time>2025-08-16T05:51:24.000Z</time>
</trkpt>
<trkpt lat="45.9599050" lon="10.1990880">
	<ele>1093.60</ele>
	<time>2025-08-16T05:51:25.000Z</time>
</trkpt>
<trkpt lat="45.9599050" lon="10.1990820">
	<ele>1093.80</ele>
	<time>2025-08-16T05:51:26.000Z</time>
</trkpt>
<trkpt lat="45.9599050" lon="10.1990750">
	<ele>1094.00</ele>
	<time>2025-08-16T05:51:27.000Z</time>
</trkpt>
<trkpt lat="45.9599040" lon="10.1990660">
	<ele>1094.20</ele>
	<time>2025-08-16T05:51:28.000Z</time>
</trkpt>
<trkpt lat="45.9599060" lon="10.1990550">
	<ele>1094.40</ele>
	<time>2025-08-16T05:51:29.000Z</time>
</trkpt>
<trkpt lat="45.9599040" lon="10.1990480">
	<ele>1094.60</ele>
	<time>2025-08-16T05:51:30.000Z</time>
</trkpt>
<trkpt lat="45.9599070" lon="10.1990400">
	<ele>1094.80</ele>
	<time>2025-08-16T05:51:31.000Z</time>
</trkpt>
<trkpt lat="45.9599040" lon="10.1990280">
	<ele>1094.80</ele>
	<time>2025-08-16T05:51:32.000Z</time>
</trkpt>
<trkpt lat="45.9599050" lon="10.1990180">
	<ele>1095.20</ele>
	<time>2025-08-16T05:51:33.000Z</time>
</trkpt>
<trkpt lat="45.9599070" lon="10.1990130">
	<ele>1095.40</ele>
	<time>2025-08-16T05:51:34.000Z</time>
</trkpt>
<trkpt lat="45.9599070" lon="10.1990110">
	<ele>1095.80</ele>
	<time>2025-08-16T05:51:35.000Z</time>
</trkpt>
<trkpt lat="45.9599050" lon="10.1990050">
	<ele>1096.00</ele>
	<time>2025-08-16T05:51:36.000Z</time>
</trkpt>
<trkpt lat="45.9599080" lon="10.1990040">
	<ele>1096.20</ele>
	<time>2025-08-16T05:51:37.000Z</time>
</trkpt>
<trkpt lat="45.9599080" lon="10.1989990">
	<ele>1096.40</ele>
	<time>2025-08-16T05:51:38.000Z</time>
</trkpt>
<trkpt lat="45.9599120" lon="10.1989880">
	<ele>1096.40</ele>
	<time>2025-08-16T05:51:39.000Z</time>
</trkpt>
<trkpt lat="45.9599160" lon="10.1989760">
	<ele>1096.80</ele>
	<time>2025-08-16T05:51:40.000Z</time>
</trkpt>
<trkpt lat="45.9599210" lon="10.1989640">
	<ele>1097.00</ele>
	<time>2025-08-16T05:51:41.000Z</time>
</trkpt>
<trkpt lat="45.9599240" lon="10.1989490">
	<ele>1097.20</ele>
	<time>2025-08-16T05:51:42.000Z</time>
</trkpt>
<trkpt lat="45.9599240" lon="10.1989340">
	<ele>1097.40</ele>
	<time>2025-08-16T05:51:43.000Z</time>
</trkpt>
<trkpt lat="45.9599260" lon="10.1989250">
	<ele>1097.60</ele>
	<time>2025-08-16T05:51:44.000Z</time>
</trkpt>
<trkpt lat="45.9599290" lon="10.1989160">
	<ele>1097.60</ele>
	<time>2025-08-16T05:51:45.000Z</time>
</trkpt>
<trkpt lat="45.9599270" lon="10.1989080">
	<ele>1098.00</ele>
	<time>2025-08-16T05:51:46.000Z</time>
</trkpt>
<trkpt lat="45.9599320" lon="10.1988990">
	<ele>1098.20</ele>
	<time>2025-08-16T05:51:47.000Z</time>
</trkpt>
<trkpt lat="45.9599450" lon="10.1988900">
	<ele>1098.40</ele>
	<time>2025-08-16T05:51:48.000Z</time>
</trkpt>
<trkpt lat="45.9599520" lon="10.1988750">
	<ele>1098.60</ele>
	<time>2025-08-16T05:51:49.000Z</time>
</trkpt>
<trkpt lat="45.9599590" lon="10.1988600">
	<ele>1098.80</ele>
	<time>2025-08-16T05:51:50.000Z</time>
</trkpt>
<trkpt lat="45.9599700" lon="10.1988510">
	<ele>1099.00</ele>
	<time>2025-08-16T05:51:51.000Z</time>
</trkpt>
<trkpt lat="45.9599810" lon="10.1988470">
	<ele>1099.20</ele>
	<time>2025-08-16T05:51:52.000Z</time>
</trkpt>
<trkpt lat="45.9599850" lon="10.1988430">
	<ele>1099.40</ele>
	<time>2025-08-16T05:51:53.000Z</time>
</trkpt>
<trkpt lat="45.9599920" lon="10.1988370">
	<ele>1099.60</ele>
	<time>2025-08-16T05:51:54.000Z</time>
</trkpt>
<trkpt lat="45.9600010" lon="10.1988290">
	<ele>1099.80</ele>
	<time>2025-08-16T05:51:55.000Z</time>
</trkpt>
<trkpt lat="45.9600110" lon="10.1988310">
	<ele>1100.00</ele>
	<time>2025-08-16T05:51:56.000Z</time>
</trkpt>
<trkpt lat="45.9600110" lon="10.1988190">
	<ele>1100.20</ele>
	<time>2025-08-16T05:51:57.000Z</time>
</trkpt>
<trkpt lat="45.9600110" lon="10.1988110">
	<ele>1100.40</ele>
	<time>2025-08-16T05:51:58.000Z</time>
</trkpt>
<trkpt lat="45.9600090" lon="10.1988030">
	<ele>1100.60</ele>
	<time>2025-08-16T05:51:59.000Z</time>
</trkpt>
<trkpt lat="45.9600040" lon="10.1987890">
	<ele>1100.80</ele>
	<time>2025-08-16T05:52:00.000Z</time>
</trkpt>
<trkpt lat="45.9600000" lon="10.1987830">
	<ele>1101.20</ele>
	<time>2025-08-16T05:52:01.000Z</time>
</trkpt>
<trkpt lat="45.9600040" lon="10.1987780">
	<ele>1101.40</ele>
	<time>2025-08-16T05:52:02.000Z</time>
</trkpt>
<trkpt lat="45.9600140" lon="10.1987770">
	<ele>1101.60</ele>
	<time>2025-08-16T05:52:03.000Z</time>
</trkpt>
<trkpt lat="45.9600150" lon="10.1987690">
	<ele>1101.80</ele>
	<time>2025-08-16T05:52:04.000Z</time>
</trkpt>
<trkpt lat="45.9600290" lon="10.1987670">
	<ele>1102.20</ele>
	<time>2025-08-16T05:52:05.000Z</time>
</trkpt>
<trkpt lat="45.9600360" lon="10.1987680">
	<ele>1102.20</ele>
	<time>2025-08-16T05:52:06.000Z</time>
</trkpt>
<trkpt lat="45.9600430" lon="10.1987720">
	<ele>1102.40</ele>
	<time>2025-08-16T05:52:07.000Z</time>
</trkpt>
<trkpt lat="45.9600590" lon="10.1987740">
	<ele>1102.60</ele>
	<time>2025-08-16T05:52:08.000Z</time>
</trkpt>
<trkpt lat="45.9600730" lon="10.1987730">
	<ele>1102.80</ele>
	<time>2025-08-16T05:52:09.000Z</time>
</trkpt>
<trkpt lat="45.9600800" lon="10.1987710">
	<ele>1103.00</ele>
	<time>2025-08-16T05:52:10.000Z</time>
</trkpt>
<trkpt lat="45.9600830" lon="10.1987690">
	<ele>1103.20</ele>
	<time>2025-08-16T05:52:11.000Z</time>
</trkpt>
<trkpt lat="45.9600780" lon="10.1987610">
	<ele>1103.40</ele>
	<time>2025-08-16T05:52:12.000Z</time>
</trkpt>
<trkpt lat="45.9600830" lon="10.1987510">
	<ele>1103.60</ele>
	<time>2025-08-16T05:52:13.000Z</time>
</trkpt>
<trkpt lat="45.9600950" lon="10.1987470">
	<ele>1103.60</ele>
	<time>2025-08-16T05:52:14.000Z</time>
</trkpt>
<trkpt lat="45.9601200" lon="10.1987530">
	<ele>1103.80</ele>
	<time>2025-08-16T05:52:15.000Z</time>
</trkpt>
<trkpt lat="45.9601420" lon="10.1987590">
	<ele>1104.20</ele>
	<time>2025-08-16T05:52:16.000Z</time>
</trkpt>
<trkpt lat="45.9601500" lon="10.1987520">
	<ele>1104.40</ele>
	<time>2025-08-16T05:52:17.000Z</time>
</trkpt>
<trkpt lat="45.9601520" lon="10.1987400">
	<ele>1104.60</ele>
	<time>2025-08-16T05:52:18.000Z</time>
</trkpt>
<trkpt lat="45.9601580" lon="10.1987380">
	<ele>1104.80</ele>
	<time>2025-08-16T05:52:19.000Z</time>
</trkpt>
<trkpt lat="45.9601610" lon="10.1987370">
	<ele>1105.00</ele>
	<time>2025-08-16T05:52:20.000Z</time>
</trkpt>
<trkpt lat="45.9601700" lon="10.1987370">
	<ele>1105.20</ele>
	<time>2025-08-16T05:52:21.000Z</time>
</trkpt>
<trkpt lat="45.9601800" lon="10.1987260">
	<ele>1105.20</ele>
	<time>2025-08-16T05:52:22.000Z</time>
</trkpt>
<trkpt lat="45.9601910" lon="10.1987230">
	<ele>1105.40</ele>
	<time>2025-08-16T05:52:23.000Z</time>
</trkpt>
<trkpt lat="45.9601990" lon="10.1987240">
	<ele>1105.60</ele>
	<time>2025-08-16T05:52:24.000Z</time>
</trkpt>
<trkpt lat="45.9602010" lon="10.1987260">
	<ele>1105.60</ele>
	<time>2025-08-16T05:52:25.000Z</time>
</trkpt>
<trkpt lat="45.9602020" lon="10.1987270">
	<ele>1105.80</ele>
	<time>2025-08-16T05:52:26.000Z</time>
</trkpt>
<trkpt lat="45.9602070" lon="10.1987250">
	<ele>1106.00</ele>
	<time>2025-08-16T05:52:27.000Z</time>
</trkpt>
<trkpt lat="45.9602140" lon="10.1987290">
	<ele>1106.20</ele>
	<time>2025-08-16T05:52:28.000Z</time>
</trkpt>
<trkpt lat="45.9602200" lon="10.1987340">
	<ele>1106.40</ele>
	<time>2025-08-16T05:52:29.000Z</time>
</trkpt>
<trkpt lat="45.9602270" lon="10.1987430">
	<ele>1106.60</ele>
	<time>2025-08-16T05:52:30.000Z</time>
</trkpt>
<trkpt lat="45.9602360" lon="10.1987480">
	<ele>1106.80</ele>
	<time>2025-08-16T05:52:31.000Z</time>
</trkpt>
<trkpt lat="45.9602430" lon="10.1987580">
	<ele>1107.00</ele>
	<time>2025-08-16T05:52:32.000Z</time>
</trkpt>
<trkpt lat="45.9602500" lon="10.1987640">
	<ele>1107.20</ele>
	<time>2025-08-16T05:52:33.000Z</time>
</trkpt>
<trkpt lat="45.9602570" lon="10.1987690">
	<ele>1107.40</ele>
	<time>2025-08-16T05:52:34.000Z</time>
</trkpt>
<trkpt lat="45.9602730" lon="10.1987690">
	<ele>1107.60</ele>
	<time>2025-08-16T05:52:35.000Z</time>
</trkpt>
<trkpt lat="45.9602850" lon="10.1987640">
	<ele>1107.80</ele>
	<time>2025-08-16T05:52:36.000Z</time>
</trkpt>
<trkpt lat="45.9602950" lon="10.1987620">
	<ele>1108.00</ele>
	<time>2025-08-16T05:52:37.000Z</time>
</trkpt>
<trkpt lat="45.9603020" lon="10.1987610">
	<ele>1108.00</ele>
	<time>2025-08-16T05:52:38.000Z</time>
</trkpt>
<trkpt lat="45.9603170" lon="10.1987640">
	<ele>1108.40</ele>
	<time>2025-08-16T05:52:39.000Z</time>
</trkpt>
<trkpt lat="45.9603420" lon="10.1987770">
	<ele>1108.60</ele>
	<time>2025-08-16T05:52:40.000Z</time>
</trkpt>
<trkpt lat="45.9603490" lon="10.1987840">
	<ele>1108.60</ele>
	<time>2025-08-16T05:52:41.000Z</time>
</trkpt>
<trkpt lat="45.9603510" lon="10.1987900">
	<ele>1109.00</ele>
	<time>2025-08-16T05:52:42.000Z</time>
</trkpt>
<trkpt lat="45.9603510" lon="10.1988070">
	<ele>1109.20</ele>
	<time>2025-08-16T05:52:43.000Z</time>
</trkpt>
<trkpt lat="45.9603610" lon="10.1988050">
	<ele>1109.20</ele>
	<time>2025-08-16T05:52:44.000Z</time>
</trkpt>
<trkpt lat="45.9603730" lon="10.1988220">
	<ele>1109.40</ele>
	<time>2025-08-16T05:52:45.000Z</time>
</trkpt>
<trkpt lat="45.9603710" lon="10.1988370">
	<ele>1109.60</ele>
	<time>2025-08-16T05:52:46.000Z</time>
</trkpt>
<trkpt lat="45.9603840" lon="10.1988530">
	<ele>1109.80</ele>
	<time>2025-08-16T05:52:47.000Z</time>
</trkpt>
<trkpt lat="45.9603830" lon="10.1988580">
	<ele>1110.00</ele>
	<time>2025-08-16T05:52:48.000Z</time>
</trkpt>
<trkpt lat="45.9603960" lon="10.1988550">
	<ele>1110.20</ele>
	<time>2025-08-16T05:52:49.000Z</time>
</trkpt>
<trkpt lat="45.9604020" lon="10.1988560">
	<ele>1110.40</ele>
	<time>2025-08-16T05:52:50.000Z</time>
</trkpt>
<trkpt lat="45.9604060" lon="10.1988620">
	<ele>1110.40</ele>
	<time>2025-08-16T05:52:51.000Z</time>
</trkpt>
<trkpt lat="45.9604020" lon="10.1988710">
	<ele>1110.60</ele>
	<time>2025-08-16T05:52:52.000Z</time>
</trkpt>
<trkpt lat="45.9604020" lon="10.1988730">
	<ele>1110.80</ele>
	<time>2025-08-16T05:52:53.000Z</time>
</trkpt>
<trkpt lat="45.9604040" lon="10.1988750">
	<ele>1111.00</ele>
	<time>2025-08-16T05:52:54.000Z</time>
</trkpt>
<trkpt lat="45.9604060" lon="10.1988840">
	<ele>1111.20</ele>
	<time>2025-08-16T05:52:55.000Z</time>
</trkpt>
<trkpt lat="45.9604090" lon="10.1988830">
	<ele>1111.20</ele>
	<time>2025-08-16T05:52:56.000Z</time>
</trkpt>
<trkpt lat="45.9604120" lon="10.1988760">
	<ele>1111.60</ele>
	<time>2025-08-16T05:52:57.000Z</time>
</trkpt>
<trkpt lat="45.9604110" lon="10.1988820">
	<ele>1111.60</ele>
	<time>2025-08-16T05:52:58.000Z</time>
</trkpt>
<trkpt lat="45.9604250" lon="10.1988910">
	<ele>1111.80</ele>
	<time>2025-08-16T05:52:59.000Z</time>
</trkpt>
<trkpt lat="45.9604340" lon="10.1989050">
	<ele>1112.00</ele>
	<time>2025-08-16T05:53:00.000Z</time>
</trkpt>
<trkpt lat="45.9604430" lon="10.1989130">
	<ele>1112.20</ele>
	<time>2025-08-16T05:53:01.000Z</time>
</trkpt>
<trkpt lat="45.9604540" lon="10.1989270">
	<ele>1112.40</ele>
	<time>2025-08-16T05:53:02.000Z</time>
</trkpt>
<trkpt lat="45.9604640" lon="10.1989480">
	<ele>1112.60</ele>
	<time>2025-08-16T05:53:03.000Z</time>
</trkpt>
<trkpt lat="45.9604820" lon="10.1989510">
	<ele>1112.80</ele>
	<time>2025-08-16T05:53:04.000Z</time>
</trkpt>
<trkpt lat="45.9604840" lon="10.1989510">
	<ele>1113.20</ele>
	<time>2025-08-16T05:53:05.000Z</time>
</trkpt>
<trkpt lat="45.9605010" lon="10.1989550">
	<ele>1113.20</ele>
	<time>2025-08-16T05:53:06.000Z</time>
</trkpt>
<trkpt lat="45.9605080" lon="10.1989490">
	<ele>1113.40</ele>
	<time>2025-08-16T05:53:07.000Z</time>
</trkpt>
<trkpt lat="45.9605100" lon="10.1989550">
	<ele>1113.60</ele>
	<time>2025-08-16T05:53:08.000Z</time>
</trkpt>
<trkpt lat="45.9605040" lon="10.1989650">
	<ele>1114.00</ele>
	<time>2025-08-16T05:53:09.000Z</time>
</trkpt>
<trkpt lat="45.9605120" lon="10.1989710">
	<ele>1114.20</ele>
	<time>2025-08-16T05:53:10.000Z</time>
</trkpt>
<trkpt lat="45.9605240" lon="10.1989790">
	<ele>1114.20</ele>
	<time>2025-08-16T05:53:11.000Z</time>
</trkpt>
<trkpt lat="45.9605370" lon="10.1989850">
	<ele>1114.40</ele>
	<time>2025-08-16T05:53:12.000Z</time>
</trkpt>
<trkpt lat="45.9605470" lon="10.1989950">
	<ele>1114.60</ele>
	<time>2025-08-16T05:53:13.000Z</time>
</trkpt>
<trkpt lat="45.9605530" lon="10.1989990">
	<ele>1114.80</ele>
	<time>2025-08-16T05:53:14.000Z</time>
</trkpt>
<trkpt lat="45.9605570" lon="10.1990040">
	<ele>1115.00</ele>
	<time>2025-08-16T05:53:15.000Z</time>
</trkpt>
<trkpt lat="45.9605590" lon="10.1990020">
	<ele>1115.20</ele>
	<time>2025-08-16T05:53:16.000Z</time>
</trkpt>
<trkpt lat="45.9605620" lon="10.1990070">
	<ele>1115.40</ele>
	<time>2025-08-16T05:53:17.000Z</time>
</trkpt>
<trkpt lat="45.9605640" lon="10.1990120">
	<ele>1115.60</ele>
	<time>2025-08-16T05:53:18.000Z</time>
</trkpt>
<trkpt lat="45.9605690" lon="10.1990130">
	<ele>1115.60</ele>
	<time>2025-08-16T05:53:19.000Z</time>
</trkpt>
<trkpt lat="45.9605750" lon="10.1990160">
	<ele>1115.80</ele>
	<time>2025-08-16T05:53:20.000Z</time>
</trkpt>
<trkpt lat="45.9605820" lon="10.1990190">
	<ele>1116.00</ele>
	<time>2025-08-16T05:53:21.000Z</time>
</trkpt>
<trkpt lat="45.9605850" lon="10.1990280">
	<ele>1116.20</ele>
	<time>2025-08-16T05:53:22.000Z</time>
</trkpt>
<trkpt lat="45.9605910" lon="10.1990360">
	<ele>1116.40</ele>
	<time>2025-08-16T05:53:23.000Z</time>
</trkpt>
<trkpt lat="45.9605960" lon="10.1990410">
	<ele>1116.60</ele>
	<time>2025-08-16T05:53:24.000Z</time>
</trkpt>
<trkpt lat="45.9606030" lon="10.1990470">
	<ele>1117.00</ele>
	<time>2025-08-16T05:53:25.000Z</time>
</trkpt>
<trkpt lat="45.9606090" lon="10.1990530">
	<ele>1117.20</ele>
	<time>2025-08-16T05:53:26.000Z</time>
</trkpt>
<trkpt lat="45.9606160" lon="10.1990620">
	<ele>1117.20</ele>
	<time>2025-08-16T05:53:27.000Z</time>
</trkpt>
<trkpt lat="45.9606250" lon="10.1990730">
	<ele>1117.60</ele>
	<time>2025-08-16T05:53:28.000Z</time>
</trkpt>
<trkpt lat="45.9606400" lon="10.1990810">
	<ele>1117.80</ele>
	<time>2025-08-16T05:53:29.000Z</time>
</trkpt>
<trkpt lat="45.9606500" lon="10.1990840">
	<ele>1118.00</ele>
	<time>2025-08-16T05:53:30.000Z</time>
</trkpt>
<trkpt lat="45.9606570" lon="10.1990850">
	<ele>1118.20</ele>
	<time>2025-08-16T05:53:31.000Z</time>
</trkpt>
<trkpt lat="45.9606640" lon="10.1990870">
	<ele>1118.40</ele>
	<time>2025-08-16T05:53:32.000Z</time>
</trkpt>
<trkpt lat="45.9606750" lon="10.1990880">
	<ele>1118.60</ele>
	<time>2025-08-16T05:53:33.000Z</time>
</trkpt>
<trkpt lat="45.9606820" lon="10.1990930">
	<ele>1119.00</ele>
	<time>2025-08-16T05:53:34.000Z</time>
</trkpt>
<trkpt lat="45.9606760" lon="10.1991030">
	<ele>1119.20</ele>
	<time>2025-08-16T05:53:35.000Z</time>
</trkpt>
<trkpt lat="45.9606800" lon="10.1991110">
	<ele>1119.40</ele>
	<time>2025-08-16T05:53:36.000Z</time>
</trkpt>
<trkpt lat="45.9606820" lon="10.1991150">
	<ele>1119.60</ele>
	<time>2025-08-16T05:53:37.000Z</time>
</trkpt>
<trkpt lat="45.9606960" lon="10.1991280">
	<ele>1119.60</ele>
	<time>2025-08-16T05:53:38.000Z</time>
</trkpt>
<trkpt lat="45.9607050" lon="10.1991330">
	<ele>1119.80</ele>
	<time>2025-08-16T05:53:39.000Z</time>
</trkpt>
<trkpt lat="45.9607120" lon="10.1991340">
	<ele>1120.00</ele>
	<time>2025-08-16T05:53:40.000Z</time>
</trkpt>
<trkpt lat="45.9607220" lon="10.1991360">
	<ele>1120.40</ele>
	<time>2025-08-16T05:53:41.000Z</time>
</trkpt>
<trkpt lat="45.9607310" lon="10.1991380">
	<ele>1120.60</ele>
	<time>2025-08-16T05:53:42.000Z</time>
</trkpt>
<trkpt lat="45.9607400" lon="10.1991400">
	<ele>1120.60</ele>
	<time>2025-08-16T05:53:43.000Z</time>
</trkpt>
<trkpt lat="45.9607510" lon="10.1991430">
	<ele>1121.00</ele>
	<time>2025-08-16T05:53:44.000Z</time>
</trkpt>
<trkpt lat="45.9607600" lon="10.1991460">
	<ele>1121.20</ele>
	<time>2025-08-16T05:53:45.000Z</time>
</trkpt>
<trkpt lat="45.9607820" lon="10.1991480">
	<ele>1121.40</ele>
	<time>2025-08-16T05:53:46.000Z</time>
</trkpt>
<trkpt lat="45.9607980" lon="10.1991380">
	<ele>1121.80</ele>
	<time>2025-08-16T05:53:47.000Z</time>
</trkpt>
<trkpt lat="45.9608100" lon="10.1991180">
	<ele>1121.80</ele>
	<time>2025-08-16T05:53:48.000Z</time>
</trkpt>
<trkpt lat="45.9608180" lon="10.1991120">
	<ele>1122.00</ele>
	<time>2025-08-16T05:53:49.000Z</time>
</trkpt>
<trkpt lat="45.9608340" lon="10.1991100">
	<ele>1122.00</ele>
	<time>2025-08-16T05:53:50.000Z</time>
</trkpt>
<trkpt lat="45.9608480" lon="10.1991120">
	<ele>1122.20</ele>
	<time>2025-08-16T05:53:51.000Z</time>
</trkpt>
<trkpt lat="45.9608630" lon="10.1991080">
	<ele>1122.40</ele>
	<time>2025-08-16T05:53:52.000Z</time>
</trkpt>
<trkpt lat="45.9608720" lon="10.1991010">
	<ele>1122.60</ele>
	<time>2025-08-16T05:53:53.000Z</time>
</trkpt>
<trkpt lat="45.9608720" lon="10.1990930">
	<ele>1122.80</ele>
	<time>2025-08-16T05:53:54.000Z</time>
</trkpt>
<trkpt lat="45.9608690" lon="10.1990890">
	<ele>1122.80</ele>
	<time>2025-08-16T05:53:55.000Z</time>
</trkpt>
<trkpt lat="45.9608750" lon="10.1990800">
	<ele>1123.00</ele>
	<time>2025-08-16T05:53:56.000Z</time>
</trkpt>
<trkpt lat="45.9608840" lon="10.1990720">
	<ele>1123.20</ele>
	<time>2025-08-16T05:53:57.000Z</time>
</trkpt>
<trkpt lat="45.9608880" lon="10.1990630">
	<ele>1123.40</ele>
	<time>2025-08-16T05:53:58.000Z</time>
</trkpt>
<trkpt lat="45.9608800" lon="10.1990560">
	<ele>1123.40</ele>
	<time>2025-08-16T05:53:59.000Z</time>
</trkpt>
<trkpt lat="45.9608780" lon="10.1990570">
	<ele>1123.60</ele>
	<time>2025-08-16T05:54:00.000Z</time>
</trkpt>
<trkpt lat="45.9608930" lon="10.1990690">
	<ele>1123.60</ele>
	<time>2025-08-16T05:54:01.000Z</time>
</trkpt>
<trkpt lat="45.9608950" lon="10.1990680">
	<ele>1123.60</ele>
	<time>2025-08-16T05:54:02.000Z</time>
</trkpt>
<trkpt lat="45.9608900" lon="10.1990660">
	<ele>1123.60</ele>
	<time>2025-08-16T05:54:03.000Z</time>
</trkpt>
<trkpt lat="45.9608880" lon="10.1990630">
	<ele>1123.80</ele>
	<time>2025-08-16T05:54:04.000Z</time>
</trkpt>
<trkpt lat="45.9608870" lon="10.1990600">
	<ele>1123.80</ele>
	<time>2025-08-16T05:54:05.000Z</time>
</trkpt>
<trkpt lat="45.9608850" lon="10.1990600">
	<ele>1124.00</ele>
	<time>2025-08-16T05:54:06.000Z</time>
</trkpt>
<trkpt lat="45.9608850" lon="10.1990590">
	<ele>1124.20</ele>
	<time>2025-08-16T05:54:07.000Z</time>
</trkpt>
<trkpt lat="45.9608850" lon="10.1990590">
	<ele>1124.20</ele>
	<time>2025-08-16T05:54:08.000Z</time>
</trkpt>
<trkpt lat="45.9608850" lon="10.1990590">
	<ele>1124.20</ele>
	<time>2025-08-16T05:54:09.000Z</time>
</trkpt>
<trkpt lat="45.9608850" lon="10.1990590">
	<ele>1124.20</ele>
	<time>2025-08-16T05:54:10.000Z</time>
</trkpt>
<trkpt lat="45.9608880" lon="10.1990600">
	<ele>1124.20</ele>
	<time>2025-08-16T05:54:11.000Z</time>
</trkpt>
<trkpt lat="45.9609000" lon="10.1990610">
	<ele>1124.20</ele>
	<time>2025-08-16T05:54:12.000Z</time>
</trkpt>
<trkpt lat="45.9609140" lon="10.1990600">
	<ele>1124.20</ele>
	<time>2025-08-16T05:54:13.000Z</time>
</trkpt>
<trkpt lat="45.9609280" lon="10.1990570">
	<ele>1124.40</ele>
	<time>2025-08-16T05:54:14.000Z</time>
</trkpt>
<trkpt lat="45.9609400" lon="10.1990530">
	<ele>1124.60</ele>
	<time>2025-08-16T05:54:15.000Z</time>
</trkpt>
<trkpt lat="45.9609580" lon="10.1990530">
	<ele>1124.60</ele>
	<time>2025-08-16T05:54:16.000Z</time>
</trkpt>
<trkpt lat="45.9609820" lon="10.1990620">
	<ele>1124.80</ele>
	<time>2025-08-16T05:54:17.000Z</time>
</trkpt>
<trkpt lat="45.9609970" lon="10.1990680">
	<ele>1125.00</ele>
	<time>2025-08-16T05:54:18.000Z</time>
</trkpt>
<trkpt lat="45.9610040" lon="10.1990620">
	<ele>1125.20</ele>
	<time>2025-08-16T05:54:19.000Z</time>
</trkpt>
<trkpt lat="45.9610200" lon="10.1990600">
	<ele>1125.40</ele>
	<time>2025-08-16T05:54:20.000Z</time>
</trkpt>
<trkpt lat="45.9610280" lon="10.1990590">
	<ele>1125.60</ele>
	<time>2025-08-16T05:54:21.000Z</time>
</trkpt>
<trkpt lat="45.9610310" lon="10.1990570">
	<ele>1125.80</ele>
	<time>2025-08-16T05:54:22.000Z</time>
</trkpt>
<trkpt lat="45.9610410" lon="10.1990500">
	<ele>1126.00</ele>
	<time>2025-08-16T05:54:23.000Z</time>
</trkpt>
<trkpt lat="45.9610490" lon="10.1990450">
	<ele>1126.00</ele>
	<time>2025-08-16T05:54:24.000Z</time>
</trkpt>
<trkpt lat="45.9610590" lon="10.1990370">
	<ele>1126.20</ele>
	<time>2025-08-16T05:54:25.000Z</time>
</trkpt>
<trkpt lat="45.9610640" lon="10.1990270">
	<ele>1126.40</ele>
	<time>2025-08-16T05:54:26.000Z</time>
</trkpt>
<trkpt lat="45.9610700" lon="10.1990120">
	<ele>1126.60</ele>
	<time>2025-08-16T05:54:27.000Z</time>
</trkpt>
<trkpt lat="45.9610780" lon="10.1990070">
	<ele>1126.80</ele>
	<time>2025-08-16T05:54:28.000Z</time>
</trkpt>
<trkpt lat="45.9610920" lon="10.1990020">
	<ele>1126.80</ele>
	<time>2025-08-16T05:54:29.000Z</time>
</trkpt>
<trkpt lat="45.9611030" lon="10.1990030">
	<ele>1127.20</ele>
	<time>2025-08-16T05:54:30.000Z</time>
</trkpt>
<trkpt lat="45.9611130" lon="10.1990010">
	<ele>1127.40</ele>
	<time>2025-08-16T05:54:31.000Z</time>
</trkpt>
<trkpt lat="45.9611230" lon="10.1989970">
	<ele>1127.60</ele>
	<time>2025-08-16T05:54:32.000Z</time>
</trkpt>
<trkpt lat="45.9611340" lon="10.1989930">
	<ele>1127.80</ele>
	<time>2025-08-16T05:54:33.000Z</time>
</trkpt>
<trkpt lat="45.9611430" lon="10.1989930">
	<ele>1128.00</ele>
	<time>2025-08-16T05:54:34.000Z</time>
</trkpt>
<trkpt lat="45.9611610" lon="10.1989890">
	<ele>1128.00</ele>
	<time>2025-08-16T05:54:35.000Z</time>
</trkpt>
<trkpt lat="45.9611690" lon="10.1989780">
	<ele>1128.20</ele>
	<time>2025-08-16T05:54:36.000Z</time>
</trkpt>
<trkpt lat="45.9611800" lon="10.1989710">
	<ele>1128.40</ele>
	<time>2025-08-16T05:54:37.000Z</time>
</trkpt>
<trkpt lat="45.9611950" lon="10.1989670">
	<ele>1128.60</ele>
	<time>2025-08-16T05:54:38.000Z</time>
</trkpt>
<trkpt lat="45.9612100" lon="10.1989670">
	<ele>1128.80</ele>
	<time>2025-08-16T05:54:39.000Z</time>
</trkpt>
<trkpt lat="45.9612210" lon="10.1989630">
	<ele>1129.20</ele>
	<time>2025-08-16T05:54:40.000Z</time>
</trkpt>
<trkpt lat="45.9612390" lon="10.1989670">
	<ele>1129.40</ele>
	<time>2025-08-16T05:54:41.000Z</time>
</trkpt>
<trkpt lat="45.9612480" lon="10.1989640">
	<ele>1129.60</ele>
	<time>2025-08-16T05:54:42.000Z</time>
</trkpt>
<trkpt lat="45.9612560" lon="10.1989610">
	<ele>1129.80</ele>
	<time>2025-08-16T05:54:43.000Z</time>
</trkpt>
<trkpt lat="45.9612630" lon="10.1989590">
	<ele>1130.00</ele>
	<time>2025-08-16T05:54:44.000Z</time>
</trkpt>
<trkpt lat="45.9612740" lon="10.1989600">
	<ele>1130.00</ele>
	<time>2025-08-16T05:54:45.000Z</time>
</trkpt>
<trkpt lat="45.9612840" lon="10.1989590">
	<ele>1130.20</ele>
	<time>2025-08-16T05:54:46.000Z</time>
</trkpt>
<trkpt lat="45.9612920" lon="10.1989610">
	<ele>1130.20</ele>
	<time>2025-08-16T05:54:47.000Z</time>
</trkpt>
<trkpt lat="45.9613010" lon="10.1989610">
	<ele>1130.40</ele>
	<time>2025-08-16T05:54:48.000Z</time>
</trkpt>
<trkpt lat="45.9613120" lon="10.1989630">
	<ele>1130.40</ele>
	<time>2025-08-16T05:54:49.000Z</time>
</trkpt>
<trkpt lat="45.9613220" lon="10.1989660">
	<ele>1130.80</ele>
	<time>2025-08-16T05:54:50.000Z</time>
</trkpt>
<trkpt lat="45.9613340" lon="10.1989670">
	<ele>1131.00</ele>
	<time>2025-08-16T05:54:51.000Z</time>
</trkpt>
<trkpt lat="45.9613480" lon="10.1989690">
	<ele>1131.20</ele>
	<time>2025-08-16T05:54:52.000Z</time>
</trkpt>
<trkpt lat="45.9613550" lon="10.1989720">
	<ele>1131.20</ele>
	<time>2025-08-16T05:54:53.000Z</time>
</trkpt>
<trkpt lat="45.9613600" lon="10.1989740">
	<ele>1131.40</ele>
	<time>2025-08-16T05:54:54.000Z</time>
</trkpt>
<trkpt lat="45.9613690" lon="10.1989770">
	<ele>1131.60</ele>
	<time>2025-08-16T05:54:55.000Z</time>
</trkpt>
<trkpt lat="45.9613820" lon="10.1989800">
	<ele>1131.80</ele>
	<time>2025-08-16T05:54:56.000Z</time>
</trkpt>
<trkpt lat="45.9613950" lon="10.1989840">
	<ele>1132.00</ele>
	<time>2025-08-16T05:54:57.000Z</time>
</trkpt>
<trkpt lat="45.9614060" lon="10.1989880">
	<ele>1132.20</ele>
	<time>2025-08-16T05:54:58.000Z</time>
</trkpt>
<trkpt lat="45.9614170" lon="10.1989980">
	<ele>1132.40</ele>
	<time>2025-08-16T05:54:59.000Z</time>
</trkpt>
<trkpt lat="45.9614280" lon="10.1990050">
	<ele>1132.80</ele>
	<time>2025-08-16T05:55:00.000Z</time>
</trkpt>
<trkpt lat="45.9614420" lon="10.1990120">
	<ele>1132.80</ele>
	<time>2025-08-16T05:55:01.000Z</time>
</trkpt>
<trkpt lat="45.9614530" lon="10.1990160">
	<ele>1133.00</ele>
	<time>2025-08-16T05:55:02.000Z</time>
</trkpt>
<trkpt lat="45.9614630" lon="10.1990220">
	<ele>1133.40</ele>
	<time>2025-08-16T05:55:03.000Z</time>
</trkpt>
<trkpt lat="45.9614690" lon="10.1990320">
	<ele>1133.60</ele>
	<time>2025-08-16T05:55:04.000Z</time>
</trkpt>
<trkpt lat="45.9614740" lon="10.1990380">
	<ele>1133.80</ele>
	<time>2025-08-16T05:55:05.000Z</time>
</trkpt>
<trkpt lat="45.9614790" lon="10.1990470">
	<ele>1134.00</ele>
	<time>2025-08-16T05:55:06.000Z</time>
</trkpt>
<trkpt lat="45.9614880" lon="10.1990550">
	<ele>1134.00</ele>
	<time>2025-08-16T05:55:07.000Z</time>
</trkpt>
<trkpt lat="45.9615040" lon="10.1990580">
	<ele>1134.20</ele>
	<time>2025-08-16T05:55:08.000Z</time>
</trkpt>
<trkpt lat="45.9615140" lon="10.1990710">
	<ele>1134.40</ele>
	<time>2025-08-16T05:55:09.000Z</time>
</trkpt>
<trkpt lat="45.9615190" lon="10.1990820">
	<ele>1134.60</ele>
	<time>2025-08-16T05:55:10.000Z</time>
</trkpt>
<trkpt lat="45.9615290" lon="10.1990920">
	<ele>1134.80</ele>
	<time>2025-08-16T05:55:11.000Z</time>
</trkpt>
<trkpt lat="45.9615380" lon="10.1991080">
	<ele>1134.80</ele>
	<time>2025-08-16T05:55:12.000Z</time>
</trkpt>
<trkpt lat="45.9615460" lon="10.1991270">
	<ele>1135.20</ele>
	<time>2025-08-16T05:55:13.000Z</time>
</trkpt>
<trkpt lat="45.9615510" lon="10.1991410">
	<ele>1135.20</ele>
	<time>2025-08-16T05:55:14.000Z</time>
</trkpt>
<trkpt lat="45.9615520" lon="10.1991550">
	<ele>1135.40</ele>
	<time>2025-08-16T05:55:15.000Z</time>
</trkpt>
<trkpt lat="45.9615560" lon="10.1991650">
	<ele>1135.40</ele>
	<time>2025-08-16T05:55:16.000Z</time>
</trkpt>
<trkpt lat="45.9615620" lon="10.1991750">
	<ele>1135.80</ele>
	<time>2025-08-16T05:55:17.000Z</time>
</trkpt>
<trkpt lat="45.9615730" lon="10.1991850">
	<ele>1136.00</ele>
	<time>2025-08-16T05:55:18.000Z</time>
</trkpt>
<trkpt lat="45.9615840" lon="10.1991910">
	<ele>1136.20</ele>
	<time>2025-08-16T05:55:19.000Z</time>
</trkpt>
<trkpt lat="45.9615970" lon="10.1992000">
	<ele>1136.40</ele>
	<time>2025-08-16T05:55:20.000Z</time>
</trkpt>
<trkpt lat="45.9616080" lon="10.1992070">
	<ele>1136.80</ele>
	<time>2025-08-16T05:55:21.000Z</time>
</trkpt>
<trkpt lat="45.9616200" lon="10.1992180">
	<ele>1137.00</ele>
	<time>2025-08-16T05:55:22.000Z</time>
</trkpt>
<trkpt lat="45.9616280" lon="10.1992330">
	<ele>1137.20</ele>
	<time>2025-08-16T05:55:23.000Z</time>
</trkpt>
<trkpt lat="45.9616350" lon="10.1992480">
	<ele>1137.20</ele>
	<time>2025-08-16T05:55:24.000Z</time>
</trkpt>
<trkpt lat="45.9616430" lon="10.1992590">
	<ele>1137.40</ele>
	<time>2025-08-16T05:55:25.000Z</time>
</trkpt>
<trkpt lat="45.9616520" lon="10.1992710">
	<ele>1137.60</ele>
	<time>2025-08-16T05:55:26.000Z</time>
</trkpt>
<trkpt lat="45.9616610" lon="10.1992850">
	<ele>1137.80</ele>
	<time>2025-08-16T05:55:27.000Z</time>
</trkpt>
<trkpt lat="45.9616690" lon="10.1992990">
	<ele>1138.00</ele>
	<time>2025-08-16T05:55:28.000Z</time>
</trkpt>
<trkpt lat="45.9616800" lon="10.1993110">
	<ele>1138.20</ele>
	<time>2025-08-16T05:55:29.000Z</time>
</trkpt>
<trkpt lat="45.9616880" lon="10.1993230">
	<ele>1138.20</ele>
	<time>2025-08-16T05:55:30.000Z</time>
</trkpt>
<trkpt lat="45.9616970" lon="10.1993360">
	<ele>1138.40</ele>
	<time>2025-08-16T05:55:31.000Z</time>
</trkpt>
<trkpt lat="45.9617050" lon="10.1993490">
	<ele>1138.80</ele>
	<time>2025-08-16T05:55:32.000Z</time>
</trkpt>
<trkpt lat="45.9617110" lon="10.1993640">
	<ele>1138.80</ele>
	<time>2025-08-16T05:55:33.000Z</time>
</trkpt>
<trkpt lat="45.9617180" lon="10.1993770">
	<ele>1139.00</ele>
	<time>2025-08-16T05:55:34.000Z</time>
</trkpt>
<trkpt lat="45.9617240" lon="10.1993950">
	<ele>1139.20</ele>
	<time>2025-08-16T05:55:35.000Z</time>
</trkpt>
<trkpt lat="45.9617270" lon="10.1994130">
	<ele>1139.40</ele>
	<time>2025-08-16T05:55:36.000Z</time>
</trkpt>
<trkpt lat="45.9617300" lon="10.1994300">
	<ele>1139.60</ele>
	<time>2025-08-16T05:55:37.000Z</time>
</trkpt>
<trkpt lat="45.9617290" lon="10.1994430">
	<ele>1139.80</ele>
	<time>2025-08-16T05:55:38.000Z</time>
</trkpt>
<trkpt lat="45.9617340" lon="10.1994540">
	<ele>1140.00</ele>
	<time>2025-08-16T05:55:39.000Z</time>
</trkpt>
<trkpt lat="45.9617420" lon="10.1994610">
	<ele>1140.00</ele>
	<time>2025-08-16T05:55:40.000Z</time>
</trkpt>
<trkpt lat="45.9617550" lon="10.1994710">
	<ele>1140.20</ele>
	<time>2025-08-16T05:55:41.000Z</time>
</trkpt>
<trkpt lat="45.9617620" lon="10.1994800">
	<ele>1140.40</ele>
	<time>2025-08-16T05:55:42.000Z</time>
</trkpt>
<trkpt lat="45.9617690" lon="10.1994820">
	<ele>1140.60</ele>
	<time>2025-08-16T05:55:43.000Z</time>
</trkpt>
<trkpt lat="45.9617770" lon="10.1995000">
	<ele>1140.80</ele>
	<time>2025-08-16T05:55:44.000Z</time>
</trkpt>
<trkpt lat="45.9617820" lon="10.1995180">
	<ele>1141.00</ele>
	<time>2025-08-16T05:55:45.000Z</time>
</trkpt>
<trkpt lat="45.9617930" lon="10.1995290">
	<ele>1141.00</ele>
	<time>2025-08-16T05:55:46.000Z</time>
</trkpt>
<trkpt lat="45.9618000" lon="10.1995410">
	<ele>1141.20</ele>
	<time>2025-08-16T05:55:47.000Z</time>
</trkpt>
<trkpt lat="45.9618000" lon="10.1995600">
	<ele>1141.40</ele>
	<time>2025-08-16T05:55:48.000Z</time>
</trkpt>
<trkpt lat="45.9617980" lon="10.1995700">
	<ele>1141.60</ele>
	<time>2025-08-16T05:55:49.000Z</time>
</trkpt>
<trkpt lat="45.9617980" lon="10.1995910">
	<ele>1141.80</ele>
	<time>2025-08-16T05:55:50.000Z</time>
</trkpt>
<trkpt lat="45.9618040" lon="10.1996020">
	<ele>1142.00</ele>
	<time>2025-08-16T05:55:51.000Z</time>
</trkpt>
<trkpt lat="45.9618070" lon="10.1995990">
	<ele>1142.20</ele>
	<time>2025-08-16T05:55:52.000Z</time>
</trkpt>
<trkpt lat="45.9618110" lon="10.1996040">
	<ele>1142.40</ele>
	<time>2025-08-16T05:55:53.000Z</time>
</trkpt>
<trkpt lat="45.9618110" lon="10.1996060">
	<ele>1142.80</ele>
	<time>2025-08-16T05:55:54.000Z</time>
</trkpt>
<trkpt lat="45.9618100" lon="10.1996080">
	<ele>1143.20</ele>
	<time>2025-08-16T05:55:55.000Z</time>
</trkpt>
<trkpt lat="45.9618050" lon="10.1995960">
	<ele>1143.20</ele>
	<time>2025-08-16T05:55:56.000Z</time>
</trkpt>
<trkpt lat="45.9618110" lon="10.1995900">
	<ele>1143.40</ele>
	<time>2025-08-16T05:55:57.000Z</time>
</trkpt>
<trkpt lat="45.9618120" lon="10.1995930">
	<ele>1143.40</ele>
	<time>2025-08-16T05:55:58.000Z</time>
</trkpt>
<trkpt lat="45.9618200" lon="10.1995950">
	<ele>1143.40</ele>
	<time>2025-08-16T05:55:59.000Z</time>
</trkpt>
<trkpt lat="45.9618230" lon="10.1995990">
	<ele>1143.40</ele>
	<time>2025-08-16T05:56:00.000Z</time>
</trkpt>
<trkpt lat="45.9618260" lon="10.1996090">
	<ele>1143.40</ele>
	<time>2025-08-16T05:56:01.000Z</time>
</trkpt>
<trkpt lat="45.9618260" lon="10.1996250">
	<ele>1143.40</ele>
	<time>2025-08-16T05:56:02.000Z</time>
</trkpt>
<trkpt lat="45.9618350" lon="10.1996470">
	<ele>1143.60</ele>
	<time>2025-08-16T05:56:03.000Z</time>
</trkpt>
<trkpt lat="45.9618390" lon="10.1996650">
	<ele>1143.80</ele>
	<time>2025-08-16T05:56:04.000Z</time>
</trkpt>
<trkpt lat="45.9618370" lon="10.1996910">
	<ele>1144.00</ele>
	<time>2025-08-16T05:56:05.000Z</time>
</trkpt>
<trkpt lat="45.9618380" lon="10.1997040">
	<ele>1144.20</ele>
	<time>2025-08-16T05:56:06.000Z</time>
</trkpt>
<trkpt lat="45.9618410" lon="10.1997090">
	<ele>1144.40</ele>
	<time>2025-08-16T05:56:07.000Z</time>
</trkpt>
<trkpt lat="45.9618480" lon="10.1997140">
	<ele>1144.60</ele>
	<time>2025-08-16T05:56:08.000Z</time>
</trkpt>
<trkpt lat="45.9618570" lon="10.1997180">
	<ele>1144.60</ele>
	<time>2025-08-16T05:56:09.000Z</time>
</trkpt>
<trkpt lat="45.9618670" lon="10.1997230">
	<ele>1145.20</ele>
	<time>2025-08-16T05:56:10.000Z</time>
</trkpt>
<trkpt lat="45.9618720" lon="10.1997290">
	<ele>1145.40</ele>
	<time>2025-08-16T05:56:11.000Z</time>
</trkpt>
<trkpt lat="45.9618800" lon="10.1997380">
	<ele>1145.60</ele>
	<time>2025-08-16T05:56:12.000Z</time>
</trkpt>
<trkpt lat="45.9618840" lon="10.1997480">
	<ele>1145.80</ele>
	<time>2025-08-16T05:56:13.000Z</time>
</trkpt>
<trkpt lat="45.9618900" lon="10.1997540">
	<ele>1146.00</ele>
	<time>2025-08-16T05:56:14.000Z</time>
</trkpt>
<trkpt lat="45.9618940" lon="10.1997610">
	<ele>1146.00</ele>
	<time>2025-08-16T05:56:15.000Z</time>
</trkpt>
<trkpt lat="45.9618970" lon="10.1997680">
	<ele>1146.20</ele>
	<time>2025-08-16T05:56:16.000Z</time>
</trkpt>
<trkpt lat="45.9619000" lon="10.1997800">
	<ele>1146.40</ele>
	<time>2025-08-16T05:56:17.000Z</time>
</trkpt>
<trkpt lat="45.9619080" lon="10.1997940">
	<ele>1146.60</ele>
	<time>2025-08-16T05:56:18.000Z</time>
</trkpt>
<trkpt lat="45.9619180" lon="10.1998100">
	<ele>1146.80</ele>
	<time>2025-08-16T05:56:19.000Z</time>
</trkpt>
<trkpt lat="45.9619330" lon="10.1998310">
	<ele>1147.00</ele>
	<time>2025-08-16T05:56:20.000Z</time>
</trkpt>
<trkpt lat="45.9619470" lon="10.1998420">
	<ele>1147.20</ele>
	<time>2025-08-16T05:56:21.000Z</time>
</trkpt>
<trkpt lat="45.9619540" lon="10.1998470">
	<ele>1147.40</ele>
	<time>2025-08-16T05:56:22.000Z</time>
</trkpt>
<trkpt lat="45.9619590" lon="10.1998550">
	<ele>1147.60</ele>
	<time>2025-08-16T05:56:23.000Z</time>
</trkpt>
<trkpt lat="45.9619620" lon="10.1998610">
	<ele>1148.00</ele>
	<time>2025-08-16T05:56:24.000Z</time>
</trkpt>
<trkpt lat="45.9619730" lon="10.1998720">
	<ele>1148.20</ele>
	<time>2025-08-16T05:56:25.000Z</time>
</trkpt>
<trkpt lat="45.9619800" lon="10.1998830">
	<ele>1148.60</ele>
	<time>2025-08-16T05:56:26.000Z</time>
</trkpt>
<trkpt lat="45.9619870" lon="10.1998920">
	<ele>1148.80</ele>
	<time>2025-08-16T05:56:27.000Z</time>
</trkpt>
<trkpt lat="45.9619960" lon="10.1999020">
	<ele>1149.00</ele>
	<time>2025-08-16T05:56:28.000Z</time>
</trkpt>
<trkpt lat="45.9620030" lon="10.1999110">
	<ele>1149.20</ele>
	<time>2025-08-16T05:56:29.000Z</time>
</trkpt>
<trkpt lat="45.9620090" lon="10.1999220">
	<ele>1149.40</ele>
	<time>2025-08-16T05:56:30.000Z</time>
</trkpt>
<trkpt lat="45.9620110" lon="10.1999310">
	<ele>1149.80</ele>
	<time>2025-08-16T05:56:31.000Z</time>
</trkpt>
<trkpt lat="45.9620120" lon="10.1999420">
	<ele>1150.00</ele>
	<time>2025-08-16T05:56:32.000Z</time>
</trkpt>
<trkpt lat="45.9620170" lon="10.1999510">
	<ele>1150.00</ele>
	<time>2025-08-16T05:56:33.000Z</time>
</trkpt>
<trkpt lat="45.9620180" lon="10.1999600">
	<ele>1150.40</ele>
	<time>2025-08-16T05:56:34.000Z</time>
</trkpt>
<trkpt lat="45.9620210" lon="10.1999740">
	<ele>1150.60</ele>
	<time>2025-08-16T05:56:35.000Z</time>
</trkpt>
<trkpt lat="45.9620250" lon="10.1999900">
	<ele>1150.80</ele>
	<time>2025-08-16T05:56:36.000Z</time>
</trkpt>
<trkpt lat="45.9620270" lon="10.2000010">
	<ele>1151.00</ele>
	<time>2025-08-16T05:56:37.000Z</time>
</trkpt>
<trkpt lat="45.9620360" lon="10.2000150">
	<ele>1151.20</ele>
	<time>2025-08-16T05:56:38.000Z</time>
</trkpt>
<trkpt lat="45.9620410" lon="10.2000120">
	<ele>1151.40</ele>
	<time>2025-08-16T05:56:39.000Z</time>
</trkpt>
<trkpt lat="45.9620350" lon="10.2000130">
	<ele>1151.60</ele>
	<time>2025-08-16T05:56:40.000Z</time>
</trkpt>
<trkpt lat="45.9620330" lon="10.2000240">
	<ele>1152.00</ele>
	<time>2025-08-16T05:56:41.000Z</time>
</trkpt>
<trkpt lat="45.9620400" lon="10.2000290">
	<ele>1152.20</ele>
	<time>2025-08-16T05:56:42.000Z</time>
</trkpt>
<trkpt lat="45.9620460" lon="10.2000330">
	<ele>1152.40</ele>
	<time>2025-08-16T05:56:43.000Z</time>
</trkpt>
<trkpt lat="45.9620480" lon="10.2000410">
	<ele>1152.60</ele>
	<time>2025-08-16T05:56:44.000Z</time>
</trkpt>
<trkpt lat="45.9620580" lon="10.2000580">
	<ele>1152.80</ele>
	<time>2025-08-16T05:56:45.000Z</time>
</trkpt>
<trkpt lat="45.9620640" lon="10.2000740">
	<ele>1153.00</ele>
	<time>2025-08-16T05:56:46.000Z</time>
</trkpt>
<trkpt lat="45.9620660" lon="10.2000870">
	<ele>1153.00</ele>
	<time>2025-08-16T05:56:47.000Z</time>
</trkpt>
<trkpt lat="45.9620620" lon="10.2000970">
	<ele>1153.20</ele>
	<time>2025-08-16T05:56:48.000Z</time>
</trkpt>
<trkpt lat="45.9620830" lon="10.2001110">
	<ele>1153.20</ele>
	<time>2025-08-16T05:56:49.000Z</time>
</trkpt>
<trkpt lat="45.9620880" lon="10.2001190">
	<ele>1153.40</ele>
	<time>2025-08-16T05:56:50.000Z</time>
</trkpt>
<trkpt lat="45.9620960" lon="10.2001330">
	<ele>1153.40</ele>
	<time>2025-08-16T05:56:51.000Z</time>
</trkpt>
<trkpt lat="45.9620960" lon="10.2001360">
	<ele>1153.60</ele>
	<time>2025-08-16T05:56:52.000Z</time>
</trkpt>
<trkpt lat="45.9621010" lon="10.2001460">
	<ele>1153.80</ele>
	<time>2025-08-16T05:56:53.000Z</time>
</trkpt>
<trkpt lat="45.9621040" lon="10.2001580">
	<ele>1153.80</ele>
	<time>2025-08-16T05:56:54.000Z</time>
</trkpt>
<trkpt lat="45.9621110" lon="10.2001730">
	<ele>1153.80</ele>
	<time>2025-08-16T05:56:55.000Z</time>
</trkpt>
<trkpt lat="45.9621170" lon="10.2001880">
	<ele>1154.00</ele>
	<time>2025-08-16T05:56:56.000Z</time>
</trkpt>
<trkpt lat="45.9621260" lon="10.2001990">
	<ele>1154.20</ele>
	<time>2025-08-16T05:56:57.000Z</time>
</trkpt>
<trkpt lat="45.9621350" lon="10.2002110">
	<ele>1154.40</ele>
	<time>2025-08-16T05:56:58.000Z</time>
</trkpt>
<trkpt lat="45.9621410" lon="10.2002250">
	<ele>1154.60</ele>
	<time>2025-08-16T05:56:59.000Z</time>
</trkpt>
<trkpt lat="45.9621490" lon="10.2002340">
	<ele>1154.80</ele>
	<time>2025-08-16T05:57:00.000Z</time>
</trkpt>
<trkpt lat="45.9621550" lon="10.2002420">
	<ele>1155.00</ele>
	<time>2025-08-16T05:57:01.000Z</time>
</trkpt>
<trkpt lat="45.9621600" lon="10.2002510">
	<ele>1155.00</ele>
	<time>2025-08-16T05:57:02.000Z</time>
</trkpt>
<trkpt lat="45.9621630" lon="10.2002570">
	<ele>1155.20</ele>
	<time>2025-08-16T05:57:03.000Z</time>
</trkpt>
<trkpt lat="45.9621650" lon="10.2002730">
	<ele>1155.40</ele>
	<time>2025-08-16T05:57:04.000Z</time>
</trkpt>
<trkpt lat="45.9621640" lon="10.2002900">
	<ele>1155.40</ele>
	<time>2025-08-16T05:57:05.000Z</time>
</trkpt>
<trkpt lat="45.9621680" lon="10.2003030">
	<ele>1155.60</ele>
	<time>2025-08-16T05:57:06.000Z</time>
</trkpt>
<trkpt lat="45.9621710" lon="10.2003170">
	<ele>1155.80</ele>
	<time>2025-08-16T05:57:07.000Z</time>
</trkpt>
<trkpt lat="45.9621770" lon="10.2003310">
	<ele>1156.00</ele>
	<time>2025-08-16T05:57:08.000Z</time>
</trkpt>
<trkpt lat="45.9621840" lon="10.2003420">
	<ele>1156.00</ele>
	<time>2025-08-16T05:57:09.000Z</time>
</trkpt>
<trkpt lat="45.9621900" lon="10.2003510">
	<ele>1156.40</ele>
	<time>2025-08-16T05:57:10.000Z</time>
</trkpt>
<trkpt lat="45.9621970" lon="10.2003600">
	<ele>1156.60</ele>
	<time>2025-08-16T05:57:11.000Z</time>
</trkpt>
<trkpt lat="45.9622050" lon="10.2003720">
	<ele>1156.60</ele>
	<time>2025-08-16T05:57:12.000Z</time>
</trkpt>
<trkpt lat="45.9622160" lon="10.2003860">
	<ele>1156.80</ele>
	<time>2025-08-16T05:57:13.000Z</time>
</trkpt>
<trkpt lat="45.9622300" lon="10.2004040">
	<ele>1156.80</ele>
	<time>2025-08-16T05:57:14.000Z</time>
</trkpt>
<trkpt lat="45.9622350" lon="10.2004220">
	<ele>1157.00</ele>
	<time>2025-08-16T05:57:15.000Z</time>
</trkpt>
<trkpt lat="45.9622400" lon="10.2004360">
	<ele>1157.20</ele>
	<time>2025-08-16T05:57:16.000Z</time>
</trkpt>
<trkpt lat="45.9622450" lon="10.2004440">
	<ele>1157.40</ele>
	<time>2025-08-16T05:57:17.000Z</time>
</trkpt>
<trkpt lat="45.9622530" lon="10.2004530">
	<ele>1157.60</ele>
	<time>2025-08-16T05:57:18.000Z</time>
</trkpt>
<trkpt lat="45.9622600" lon="10.2004620">
	<ele>1157.60</ele>
	<time>2025-08-16T05:57:19.000Z</time>
</trkpt>
<trkpt lat="45.9622670" lon="10.2004710">
	<ele>1157.80</ele>
	<time>2025-08-16T05:57:20.000Z</time>
</trkpt>
<trkpt lat="45.9622780" lon="10.2004800">
	<ele>1158.00</ele>
	<time>2025-08-16T05:57:21.000Z</time>
</trkpt>
<trkpt lat="45.9622850" lon="10.2004930">
	<ele>1158.20</ele>
	<time>2025-08-16T05:57:22.000Z</time>
</trkpt>
<trkpt lat="45.9622900" lon="10.2005090">
	<ele>1158.40</ele>
	<time>2025-08-16T05:57:23.000Z</time>
</trkpt>
<trkpt lat="45.9622990" lon="10.2005300">
	<ele>1158.40</ele>
	<time>2025-08-16T05:57:24.000Z</time>
</trkpt>
<trkpt lat="45.9623110" lon="10.2005590">
	<ele>1158.60</ele>
	<time>2025-08-16T05:57:25.000Z</time>
</trkpt>
<trkpt lat="45.9623160" lon="10.2005840">
	<ele>1158.60</ele>
	<time>2025-08-16T05:57:26.000Z</time>
</trkpt>
<trkpt lat="45.9623210" lon="10.2006020">
	<ele>1158.80</ele>
	<time>2025-08-16T05:57:27.000Z</time>
</trkpt>
<trkpt lat="45.9623220" lon="10.2006180">
	<ele>1159.00</ele>
	<time>2025-08-16T05:57:28.000Z</time>
</trkpt>
<trkpt lat="45.9623260" lon="10.2006310">
	<ele>1159.20</ele>
	<time>2025-08-16T05:57:29.000Z</time>
</trkpt>
<trkpt lat="45.9623420" lon="10.2006450">
	<ele>1159.20</ele>
	<time>2025-08-16T05:57:30.000Z</time>
</trkpt>
<trkpt lat="45.9623460" lon="10.2006660">
	<ele>1159.40</ele>
	<time>2025-08-16T05:57:31.000Z</time>
</trkpt>
<trkpt lat="45.9623500" lon="10.2006890">
	<ele>1159.60</ele>
	<time>2025-08-16T05:57:32.000Z</time>
</trkpt>
<trkpt lat="45.9623570" lon="10.2007090">
	<ele>1159.80</ele>
	<time>2025-08-16T05:57:33.000Z</time>
</trkpt>
<trkpt lat="45.9623600" lon="10.2007230">
	<ele>1160.00</ele>
	<time>2025-08-16T05:57:34.000Z</time>
</trkpt>
<trkpt lat="45.9623690" lon="10.2007280">
	<ele>1160.00</ele>
	<time>2025-08-16T05:57:35.000Z</time>
</trkpt>
<trkpt lat="45.9623730" lon="10.2007370">
	<ele>1160.20</ele>
	<time>2025-08-16T05:57:36.000Z</time>
</trkpt>
<trkpt lat="45.9623800" lon="10.2007480">
	<ele>1160.20</ele>
	<time>2025-08-16T05:57:37.000Z</time>
</trkpt>
<trkpt lat="45.9623850" lon="10.2007620">
	<ele>1160.40</ele>
	<time>2025-08-16T05:57:38.000Z</time>
</trkpt>
<trkpt lat="45.9623920" lon="10.2007760">
	<ele>1160.60</ele>
	<time>2025-08-16T05:57:39.000Z</time>
</trkpt>
<trkpt lat="45.9623990" lon="10.2007860">
	<ele>1160.80</ele>
	<time>2025-08-16T05:57:40.000Z</time>
</trkpt>
<trkpt lat="45.9624000" lon="10.2007930">
	<ele>1161.00</ele>
	<time>2025-08-16T05:57:41.000Z</time>
</trkpt>
<trkpt lat="45.9624040" lon="10.2008030">
	<ele>1161.20</ele>
	<time>2025-08-16T05:57:42.000Z</time>
</trkpt>
<trkpt lat="45.9624100" lon="10.2008120">
	<ele>1161.20</ele>
	<time>2025-08-16T05:57:43.000Z</time>
</trkpt>
<trkpt lat="45.9624160" lon="10.2008210">
	<ele>1161.40</ele>
	<time>2025-08-16T05:57:44.000Z</time>
</trkpt>
<trkpt lat="45.9624230" lon="10.2008310">
	<ele>1161.60</ele>
	<time>2025-08-16T05:57:45.000Z</time>
</trkpt>
<trkpt lat="45.9624310" lon="10.2008460">
	<ele>1161.60</ele>
	<time>2025-08-16T05:57:46.000Z</time>
</trkpt>
<trkpt lat="45.9624350" lon="10.2008570">
	<ele>1161.80</ele>
	<time>2025-08-16T05:57:47.000Z</time>
</trkpt>
<trkpt lat="45.9624390" lon="10.2008620">
	<ele>1162.00</ele>
	<time>2025-08-16T05:57:48.000Z</time>
</trkpt>
<trkpt lat="45.9624450" lon="10.2008680">
	<ele>1162.20</ele>
	<time>2025-08-16T05:57:49.000Z</time>
</trkpt>
<trkpt lat="45.9624550" lon="10.2008800">
	<ele>1162.20</ele>
	<time>2025-08-16T05:57:50.000Z</time>
</trkpt>
<trkpt lat="45.9624640" lon="10.2008900">
	<ele>1162.40</ele>
	<time>2025-08-16T05:57:51.000Z</time>
</trkpt>
<trkpt lat="45.9624740" lon="10.2008960">
	<ele>1162.60</ele>
	<time>2025-08-16T05:57:52.000Z</time>
</trkpt>
<trkpt lat="45.9624880" lon="10.2009070">
	<ele>1162.60</ele>
	<time>2025-08-16T05:57:53.000Z</time>
</trkpt>
<trkpt lat="45.9625080" lon="10.2009160">
	<ele>1162.80</ele>
	<time>2025-08-16T05:57:54.000Z</time>
</trkpt>
<trkpt lat="45.9625240" lon="10.2009180">
	<ele>1163.00</ele>
	<time>2025-08-16T05:57:55.000Z</time>
</trkpt>
<trkpt lat="45.9625380" lon="10.2009230">
	<ele>1163.00</ele>
	<time>2025-08-16T05:57:56.000Z</time>
</trkpt>
<trkpt lat="45.9625580" lon="10.2009320">
	<ele>1163.40</ele>
	<time>2025-08-16T05:57:57.000Z</time>
</trkpt>
<trkpt lat="45.9625590" lon="10.2009350">
	<ele>1163.40</ele>
	<time>2025-08-16T05:57:58.000Z</time>
</trkpt>
<trkpt lat="45.9625590" lon="10.2009460">
	<ele>1163.60</ele>
	<time>2025-08-16T05:57:59.000Z</time>
</trkpt>
<trkpt lat="45.9625600" lon="10.2009600">
	<ele>1163.80</ele>
	<time>2025-08-16T05:58:00.000Z</time>
</trkpt>
<trkpt lat="45.9625630" lon="10.2009640">
	<ele>1164.00</ele>
	<time>2025-08-16T05:58:01.000Z</time>
</trkpt>
<trkpt lat="45.9625570" lon="10.2009600">
	<ele>1164.20</ele>
	<time>2025-08-16T05:58:02.000Z</time>
</trkpt>
<trkpt lat="45.9625670" lon="10.2009590">
	<ele>1164.20</ele>
	<time>2025-08-16T05:58:03.000Z</time>
</trkpt>
<trkpt lat="45.9625740" lon="10.2009490">
	<ele>1164.40</ele>
	<time>2025-08-16T05:58:04.000Z</time>
</trkpt>
<trkpt lat="45.9625790" lon="10.2009500">
	<ele>1164.60</ele>
	<time>2025-08-16T05:58:05.000Z</time>
</trkpt>
<trkpt lat="45.9625810" lon="10.2009520">
	<ele>1164.60</ele>
	<time>2025-08-16T05:58:06.000Z</time>
</trkpt>
<trkpt lat="45.9625830" lon="10.2009680">
	<ele>1164.80</ele>
	<time>2025-08-16T05:58:07.000Z</time>
</trkpt>
<trkpt lat="45.9625850" lon="10.2009890">
	<ele>1164.80</ele>
	<time>2025-08-16T05:58:08.000Z</time>
</trkpt>
<trkpt lat="45.9625910" lon="10.2009970">
	<ele>1164.80</ele>
	<time>2025-08-16T05:58:09.000Z</time>
</trkpt>
<trkpt lat="45.9625920" lon="10.2009910">
	<ele>1165.00</ele>
	<time>2025-08-16T05:58:10.000Z</time>
</trkpt>
<trkpt lat="45.9625910" lon="10.2009890">
	<ele>1165.20</ele>
	<time>2025-08-16T05:58:11.000Z</time>
</trkpt>
<trkpt lat="45.9625970" lon="10.2009960">
	<ele>1165.20</ele>
	<time>2025-08-16T05:58:12.000Z</time>
</trkpt>
<trkpt lat="45.9626000" lon="10.2010130">
	<ele>1165.40</ele>
	<time>2025-08-16T05:58:13.000Z</time>
</trkpt>
<trkpt lat="45.9626110" lon="10.2010230">
	<ele>1165.60</ele>
	<time>2025-08-16T05:58:14.000Z</time>
</trkpt>
<trkpt lat="45.9626210" lon="10.2010280">
	<ele>1165.80</ele>
	<time>2025-08-16T05:58:15.000Z</time>
</trkpt>
<trkpt lat="45.9626300" lon="10.2010350">
	<ele>1166.00</ele>
	<time>2025-08-16T05:58:16.000Z</time>
</trkpt>
<trkpt lat="45.9626420" lon="10.2010320">
	<ele>1166.20</ele>
	<time>2025-08-16T05:58:17.000Z</time>
</trkpt>
<trkpt lat="45.9626470" lon="10.2010350">
	<ele>1166.20</ele>
	<time>2025-08-16T05:58:18.000Z</time>
</trkpt>
<trkpt lat="45.9626560" lon="10.2010420">
	<ele>1166.40</ele>
	<time>2025-08-16T05:58:19.000Z</time>
</trkpt>
<trkpt lat="45.9626650" lon="10.2010550">
	<ele>1166.60</ele>
	<time>2025-08-16T05:58:20.000Z</time>
</trkpt>
<trkpt lat="45.9626730" lon="10.2010730">
	<ele>1166.60</ele>
	<time>2025-08-16T05:58:21.000Z</time>
</trkpt>
<trkpt lat="45.9626800" lon="10.2010890">
	<ele>1166.80</ele>
	<time>2025-08-16T05:58:22.000Z</time>
</trkpt>
<trkpt lat="45.9626870" lon="10.2011020">
	<ele>1166.80</ele>
	<time>2025-08-16T05:58:23.000Z</time>
</trkpt>
<trkpt lat="45.9626910" lon="10.2011170">
	<ele>1167.00</ele>
	<time>2025-08-16T05:58:24.000Z</time>
</trkpt>
<trkpt lat="45.9626910" lon="10.2011300">
	<ele>1167.20</ele>
	<time>2025-08-16T05:58:25.000Z</time>
</trkpt>
<trkpt lat="45.9626960" lon="10.2011450">
	<ele>1167.20</ele>
	<time>2025-08-16T05:58:26.000Z</time>
</trkpt>
<trkpt lat="45.9627020" lon="10.2011620">
	<ele>1167.40</ele>
	<time>2025-08-16T05:58:27.000Z</time>
</trkpt>
<trkpt lat="45.9627100" lon="10.2011770">
	<ele>1167.60</ele>
	<time>2025-08-16T05:58:28.000Z</time>
</trkpt>
<trkpt lat="45.9627120" lon="10.2011870">
	<ele>1167.60</ele>
	<time>2025-08-16T05:58:29.000Z</time>
</trkpt>
<trkpt lat="45.9627150" lon="10.2011980">
	<ele>1167.60</ele>
	<time>2025-08-16T05:58:30.000Z</time>
</trkpt>
<trkpt lat="45.9627240" lon="10.2012060">
	<ele>1167.80</ele>
	<time>2025-08-16T05:58:31.000Z</time>
</trkpt>
<trkpt lat="45.9627270" lon="10.2012170">
	<ele>1167.80</ele>
	<time>2025-08-16T05:58:32.000Z</time>
</trkpt>
<trkpt lat="45.9627360" lon="10.2012290">
	<ele>1168.00</ele>
	<time>2025-08-16T05:58:33.000Z</time>
</trkpt>
<trkpt lat="45.9627480" lon="10.2012490">
	<ele>1168.20</ele>
	<time>2025-08-16T05:58:34.000Z</time>
</trkpt>
<trkpt lat="45.9627560" lon="10.2012750">
	<ele>1168.40</ele>
	<time>2025-08-16T05:58:35.000Z</time>
</trkpt>
<trkpt lat="45.9627630" lon="10.2012930">
	<ele>1168.60</ele>
	<time>2025-08-16T05:58:36.000Z</time>
</trkpt>
<trkpt lat="45.9627810" lon="10.2013110">
	<ele>1168.80</ele>
	<time>2025-08-16T05:58:37.000Z</time>
</trkpt>
<trkpt lat="45.9627860" lon="10.2013170">
	<ele>1169.00</ele>
	<time>2025-08-16T05:58:38.000Z</time>
</trkpt>
<trkpt lat="45.9628030" lon="10.2013290">
	<ele>1169.20</ele>
	<time>2025-08-16T05:58:39.000Z</time>
</trkpt>
<trkpt lat="45.9628140" lon="10.2013360">
	<ele>1169.20</ele>
	<time>2025-08-16T05:58:40.000Z</time>
</trkpt>
<trkpt lat="45.9628300" lon="10.2013460">
	<ele>1169.40</ele>
	<time>2025-08-16T05:58:41.000Z</time>
</trkpt>
<trkpt lat="45.9628400" lon="10.2013530">
	<ele>1169.40</ele>
	<time>2025-08-16T05:58:42.000Z</time>
</trkpt>
<trkpt lat="45.9628570" lon="10.2013580">
	<ele>1169.60</ele>
	<time>2025-08-16T05:58:43.000Z</time>
</trkpt>
<trkpt lat="45.9628600" lon="10.2013510">
	<ele>1169.80</ele>
	<time>2025-08-16T05:58:44.000Z</time>
</trkpt>
<trkpt lat="45.9628660" lon="10.2013450">
	<ele>1169.80</ele>
	<time>2025-08-16T05:58:45.000Z</time>
</trkpt>
<trkpt lat="45.9628750" lon="10.2013370">
	<ele>1169.80</ele>
	<time>2025-08-16T05:58:46.000Z</time>
</trkpt>
<trkpt lat="45.9628820" lon="10.2013400">
	<ele>1169.80</ele>
	<time>2025-08-16T05:58:47.000Z</time>
</trkpt>
<trkpt lat="45.9628960" lon="10.2013360">
	<ele>1169.80</ele>
	<time>2025-08-16T05:58:48.000Z</time>
</trkpt>
<trkpt lat="45.9629190" lon="10.2013390">
	<ele>1170.00</ele>
	<time>2025-08-16T05:58:49.000Z</time>
</trkpt>
<trkpt lat="45.9629340" lon="10.2013430">
	<ele>1170.20</ele>
	<time>2025-08-16T05:58:50.000Z</time>
</trkpt>
<trkpt lat="45.9629400" lon="10.2013500">
	<ele>1170.20</ele>
	<time>2025-08-16T05:58:51.000Z</time>
</trkpt>
<trkpt lat="45.9629480" lon="10.2013540">
	<ele>1170.40</ele>
	<time>2025-08-16T05:58:52.000Z</time>
</trkpt>
<trkpt lat="45.9629560" lon="10.2013510">
	<ele>1170.40</ele>
	<time>2025-08-16T05:58:53.000Z</time>
</trkpt>
<trkpt lat="45.9629460" lon="10.2013470">
	<ele>1170.40</ele>
	<time>2025-08-16T05:58:54.000Z</time>
</trkpt>
<trkpt lat="45.9629500" lon="10.2013490">
	<ele>1170.60</ele>
	<time>2025-08-16T05:58:55.000Z</time>
</trkpt>
<trkpt lat="45.9629620" lon="10.2013560">
	<ele>1170.80</ele>
	<time>2025-08-16T05:58:56.000Z</time>
</trkpt>
<trkpt lat="45.9629780" lon="10.2013670">
	<ele>1170.80</ele>
	<time>2025-08-16T05:58:57.000Z</time>
</trkpt>
<trkpt lat="45.9630070" lon="10.2013830">
	<ele>1171.00</ele>
	<time>2025-08-16T05:58:58.000Z</time>
</trkpt>
<trkpt lat="45.9630270" lon="10.2014070">
	<ele>1171.20</ele>
	<time>2025-08-16T05:58:59.000Z</time>
</trkpt>
<trkpt lat="45.9630400" lon="10.2014290">
	<ele>1171.20</ele>
	<time>2025-08-16T05:59:00.000Z</time>
</trkpt>
<trkpt lat="45.9630460" lon="10.2014370">
	<ele>1171.40</ele>
	<time>2025-08-16T05:59:01.000Z</time>
</trkpt>
<trkpt lat="45.9630500" lon="10.2014460">
	<ele>1171.40</ele>
	<time>2025-08-16T05:59:02.000Z</time>
</trkpt>
<trkpt lat="45.9630600" lon="10.2014530">
	<ele>1171.60</ele>
	<time>2025-08-16T05:59:03.000Z</time>
</trkpt>
<trkpt lat="45.9630690" lon="10.2014640">
	<ele>1171.80</ele>
	<time>2025-08-16T05:59:04.000Z</time>
</trkpt>
<trkpt lat="45.9630800" lon="10.2014680">
	<ele>1172.00</ele>
	<time>2025-08-16T05:59:05.000Z</time>
</trkpt>
<trkpt lat="45.9630890" lon="10.2014690">
	<ele>1172.20</ele>
	<time>2025-08-16T05:59:06.000Z</time>
</trkpt>
<trkpt lat="45.9630950" lon="10.2014750">
	<ele>1172.40</ele>
	<time>2025-08-16T05:59:07.000Z</time>
</trkpt>
<trkpt lat="45.9631050" lon="10.2014800">
	<ele>1172.60</ele>
	<time>2025-08-16T05:59:08.000Z</time>
</trkpt>
<trkpt lat="45.9631110" lon="10.2014900">
	<ele>1172.60</ele>
	<time>2025-08-16T05:59:09.000Z</time>
</trkpt>
<trkpt lat="45.9631180" lon="10.2015030">
	<ele>1172.80</ele>
	<time>2025-08-16T05:59:10.000Z</time>
</trkpt>
<trkpt lat="45.9631310" lon="10.2015140">
	<ele>1172.80</ele>
	<time>2025-08-16T05:59:11.000Z</time>
</trkpt>
<trkpt lat="45.9631440" lon="10.2015240">
	<ele>1173.00</ele>
	<time>2025-08-16T05:59:12.000Z</time>
</trkpt>
<trkpt lat="45.9631490" lon="10.2015290">
	<ele>1173.20</ele>
	<time>2025-08-16T05:59:13.000Z</time>
</trkpt>
<trkpt lat="45.9631540" lon="10.2015390">
	<ele>1173.40</ele>
	<time>2025-08-16T05:59:14.000Z</time>
</trkpt>
<trkpt lat="45.9631640" lon="10.2015480">
	<ele>1173.60</ele>
	<time>2025-08-16T05:59:15.000Z</time>
</trkpt>
<trkpt lat="45.9631790" lon="10.2015630">
	<ele>1173.80</ele>
	<time>2025-08-16T05:59:16.000Z</time>
</trkpt>
<trkpt lat="45.9631930" lon="10.2015770">
	<ele>1174.00</ele>
	<time>2025-08-16T05:59:17.000Z</time>
</trkpt>
<trkpt lat="45.9632040" lon="10.2015880">
	<ele>1174.00</ele>
	<time>2025-08-16T05:59:18.000Z</time>
</trkpt>
<trkpt lat="45.9632170" lon="10.2015950">
	<ele>1174.20</ele>
	<time>2025-08-16T05:59:19.000Z</time>
</trkpt>
<trkpt lat="45.9632260" lon="10.2016010">
	<ele>1174.40</ele>
	<time>2025-08-16T05:59:20.000Z</time>
</trkpt>
<trkpt lat="45.9632310" lon="10.2016080">
	<ele>1174.60</ele>
	<time>2025-08-16T05:59:21.000Z</time>
</trkpt>
<trkpt lat="45.9632370" lon="10.2016190">
	<ele>1174.60</ele>
	<time>2025-08-16T05:59:22.000Z</time>
</trkpt>
<trkpt lat="45.9632430" lon="10.2016310">
	<ele>1174.80</ele>
	<time>2025-08-16T05:59:23.000Z</time>
</trkpt>
<trkpt lat="45.9632460" lon="10.2016500">
	<ele>1175.00</ele>
	<time>2025-08-16T05:59:24.000Z</time>
</trkpt>
<trkpt lat="45.9632440" lon="10.2016600">
	<ele>1175.00</ele>
	<time>2025-08-16T05:59:25.000Z</time>
</trkpt>
<trkpt lat="45.9632490" lon="10.2016680">
	<ele>1175.20</ele>
	<time>2025-08-16T05:59:26.000Z</time>
</trkpt>
<trkpt lat="45.9632640" lon="10.2016690">
	<ele>1175.20</ele>
	<time>2025-08-16T05:59:27.000Z</time>
</trkpt>
<trkpt lat="45.9632770" lon="10.2016740">
	<ele>1175.40</ele>
	<time>2025-08-16T05:59:28.000Z</time>
</trkpt>
<trkpt lat="45.9632800" lon="10.2016790">
	<ele>1175.40</ele>
	<time>2025-08-16T05:59:29.000Z</time>
</trkpt>
<trkpt lat="45.9632840" lon="10.2016820">
	<ele>1175.60</ele>
	<time>2025-08-16T05:59:30.000Z</time>
</trkpt>
<trkpt lat="45.9632860" lon="10.2016840">
	<ele>1175.60</ele>
	<time>2025-08-16T05:59:31.000Z</time>
</trkpt>
<trkpt lat="45.9632870" lon="10.2016850">
	<ele>1175.80</ele>
	<time>2025-08-16T05:59:32.000Z</time>
</trkpt>
<trkpt lat="45.9632870" lon="10.2016850">
	<ele>1175.80</ele>
	<time>2025-08-16T05:59:33.000Z</time>
</trkpt>
<trkpt lat="45.9632730" lon="10.2016870">
	<ele>1176.00</ele>
	<time>2025-08-16T05:59:34.000Z</time>
</trkpt>
<trkpt lat="45.9632750" lon="10.2016850">
	<ele>1176.00</ele>
	<time>2025-08-16T05:59:35.000Z</time>
</trkpt>
<trkpt lat="45.9632800" lon="10.2016870">
	<ele>1176.00</ele>
	<time>2025-08-16T05:59:36.000Z</time>
</trkpt>
<trkpt lat="45.9632870" lon="10.2016960">
	<ele>1176.20</ele>
	<time>2025-08-16T05:59:37.000Z</time>
</trkpt>
<trkpt lat="45.9632950" lon="10.2017000">
	<ele>1176.20</ele>
	<time>2025-08-16T05:59:38.000Z</time>
</trkpt>
<trkpt lat="45.9633010" lon="10.2017060">
	<ele>1176.20</ele>
	<time>2025-08-16T05:59:39.000Z</time>
</trkpt>
<trkpt lat="45.9633070" lon="10.2017120">
	<ele>1176.20</ele>
	<time>2025-08-16T05:59:40.000Z</time>
</trkpt>
<trkpt lat="45.9633150" lon="10.2017200">
	<ele>1176.40</ele>
	<time>2025-08-16T05:59:41.000Z</time>
</trkpt>
<trkpt lat="45.9633230" lon="10.2017310">
	<ele>1176.40</ele>
	<time>2025-08-16T05:59:42.000Z</time>
</trkpt>
<trkpt lat="45.9633290" lon="10.2017340">
	<ele>1176.60</ele>
	<time>2025-08-16T05:59:43.000Z</time>
</trkpt>
<trkpt lat="45.9633310" lon="10.2017360">
	<ele>1176.80</ele>
	<time>2025-08-16T05:59:44.000Z</time>
</trkpt>
<trkpt lat="45.9633330" lon="10.2017390">
	<ele>1177.00</ele>
	<time>2025-08-16T05:59:45.000Z</time>
</trkpt>
<trkpt lat="45.9633370" lon="10.2017460">
	<ele>1177.20</ele>
	<time>2025-08-16T05:59:46.000Z</time>
</trkpt>
<trkpt lat="45.9633440" lon="10.2017560">
	<ele>1177.40</ele>
	<time>2025-08-16T05:59:47.000Z</time>
</trkpt>
<trkpt lat="45.9633520" lon="10.2017650">
	<ele>1177.40</ele>
	<time>2025-08-16T05:59:48.000Z</time>
</trkpt>
<trkpt lat="45.9633610" lon="10.2017790">
	<ele>1177.60</ele>
	<time>2025-08-16T05:59:49.000Z</time>
</trkpt>
<trkpt lat="45.9633700" lon="10.2017900">
	<ele>1177.80</ele>
	<time>2025-08-16T05:59:50.000Z</time>
</trkpt>
<trkpt lat="45.9633790" lon="10.2018020">
	<ele>1177.80</ele>
	<time>2025-08-16T05:59:51.000Z</time>
</trkpt>
<trkpt lat="45.9633860" lon="10.2018180">
	<ele>1178.00</ele>
	<time>2025-08-16T05:59:52.000Z</time>
</trkpt>
<trkpt lat="45.9633970" lon="10.2018310">
	<ele>1178.20</ele>
	<time>2025-08-16T05:59:53.000Z</time>
</trkpt>
<trkpt lat="45.9634000" lon="10.2018370">
	<ele>1178.40</ele>
	<time>2025-08-16T05:59:54.000Z</time>
</trkpt>
<trkpt lat="45.9634080" lon="10.2018400">
	<ele>1178.40</ele>
	<time>2025-08-16T05:59:55.000Z</time>
</trkpt>
<trkpt lat="45.9634130" lon="10.2018440">
	<ele>1178.80</ele>
	<time>2025-08-16T05:59:56.000Z</time>
</trkpt>
<trkpt lat="45.9634200" lon="10.2018450">
	<ele>1179.00</ele>
	<time>2025-08-16T05:59:57.000Z</time>
</trkpt>
<trkpt lat="45.9634300" lon="10.2018460">
	<ele>1179.20</ele>
	<time>2025-08-16T05:59:58.000Z</time>
</trkpt>
<trkpt lat="45.9634350" lon="10.2018470">
	<ele>1179.40</ele>
	<time>2025-08-16T05:59:59.000Z</time>
</trkpt>
<trkpt lat="45.9634380" lon="10.2018490">
	<ele>1179.60</ele>
	<time>2025-08-16T06:00:00.000Z</time>
</trkpt>
<trkpt lat="45.9634460" lon="10.2018490">
	<ele>1179.60</ele>
	<time>2025-08-16T06:00:01.000Z</time>
</trkpt>
<trkpt lat="45.9634540" lon="10.2018540">
	<ele>1179.60</ele>
	<time>2025-08-16T06:00:02.000Z</time>
</trkpt>
<trkpt lat="45.9634580" lon="10.2018610">
	<ele>1179.60</ele>
	<time>2025-08-16T06:00:03.000Z</time>
</trkpt>
<trkpt lat="45.9634630" lon="10.2018850">
	<ele>1179.60</ele>
	<time>2025-08-16T06:00:04.000Z</time>
</trkpt>
<trkpt lat="45.9634570" lon="10.2019030">
	<ele>1179.60</ele>
	<time>2025-08-16T06:00:05.000Z</time>
</trkpt>
<trkpt lat="45.9634600" lon="10.2019310">
	<ele>1179.60</ele>
	<time>2025-08-16T06:00:06.000Z</time>
</trkpt>
<trkpt lat="45.9634650" lon="10.2019600">
	<ele>1179.80</ele>
	<time>2025-08-16T06:00:07.000Z</time>
</trkpt>
<trkpt lat="45.9634910" lon="10.2019870">
	<ele>1180.00</ele>
	<time>2025-08-16T06:00:08.000Z</time>
</trkpt>
<trkpt lat="45.9635010" lon="10.2020010">
	<ele>1180.20</ele>
	<time>2025-08-16T06:00:09.000Z</time>
</trkpt>
<trkpt lat="45.9635090" lon="10.2020150">
	<ele>1180.20</ele>
	<time>2025-08-16T06:00:10.000Z</time>
</trkpt>
<trkpt lat="45.9635140" lon="10.2020300">
	<ele>1180.40</ele>
	<time>2025-08-16T06:00:11.000Z</time>
</trkpt>
<trkpt lat="45.9635240" lon="10.2020440">
	<ele>1180.80</ele>
	<time>2025-08-16T06:00:12.000Z</time>
</trkpt>
<trkpt lat="45.9635310" lon="10.2020560">
	<ele>1181.00</ele>
	<time>2025-08-16T06:00:13.000Z</time>
</trkpt>
<trkpt lat="45.9635370" lon="10.2020600">
	<ele>1181.20</ele>
	<time>2025-08-16T06:00:14.000Z</time>
</trkpt>
<trkpt lat="45.9635390" lon="10.2020640">
	<ele>1181.40</ele>
	<time>2025-08-16T06:00:15.000Z</time>
</trkpt>
<trkpt lat="45.9635460" lon="10.2020700">
	<ele>1181.40</ele>
	<time>2025-08-16T06:00:16.000Z</time>
</trkpt>
<trkpt lat="45.9635570" lon="10.2020720">
	<ele>1181.60</ele>
	<time>2025-08-16T06:00:17.000Z</time>
</trkpt>
<trkpt lat="45.9635620" lon="10.2020770">
	<ele>1181.80</ele>
	<time>2025-08-16T06:00:18.000Z</time>
</trkpt>
<trkpt lat="45.9635720" lon="10.2020860">
	<ele>1182.00</ele>
	<time>2025-08-16T06:00:19.000Z</time>
</trkpt>
<trkpt lat="45.9635720" lon="10.2020990">
	<ele>1182.00</ele>
	<time>2025-08-16T06:00:20.000Z</time>
</trkpt>
<trkpt lat="45.9635780" lon="10.2021210">
	<ele>1182.20</ele>
	<time>2025-08-16T06:00:21.000Z</time>
</trkpt>
<trkpt lat="45.9635850" lon="10.2021420">
	<ele>1182.40</ele>
	<time>2025-08-16T06:00:22.000Z</time>
</trkpt>
<trkpt lat="45.9635930" lon="10.2021530">
	<ele>1182.60</ele>
	<time>2025-08-16T06:00:23.000Z</time>
</trkpt>
<trkpt lat="45.9636070" lon="10.2021510">
	<ele>1182.80</ele>
	<time>2025-08-16T06:00:24.000Z</time>
</trkpt>
<trkpt lat="45.9636090" lon="10.2021580">
	<ele>1183.00</ele>
	<time>2025-08-16T06:00:25.000Z</time>
</trkpt>
<trkpt lat="45.9636180" lon="10.2021620">
	<ele>1183.20</ele>
	<time>2025-08-16T06:00:26.000Z</time>
</trkpt>
<trkpt lat="45.9636220" lon="10.2021670">
	<ele>1183.60</ele>
	<time>2025-08-16T06:00:27.000Z</time>
</trkpt>
<trkpt lat="45.9636410" lon="10.2021890">
	<ele>1183.60</ele>
	<time>2025-08-16T06:00:28.000Z</time>
</trkpt>
<trkpt lat="45.9636410" lon="10.2022030">
	<ele>1184.00</ele>
	<time>2025-08-16T06:00:29.000Z</time>
</trkpt>
<trkpt lat="45.9636440" lon="10.2022170">
	<ele>1184.00</ele>
	<time>2025-08-16T06:00:30.000Z</time>
</trkpt>
<trkpt lat="45.9636490" lon="10.2022250">
	<ele>1184.20</ele>
	<time>2025-08-16T06:00:31.000Z</time>
</trkpt>
<trkpt lat="45.9636550" lon="10.2022390">
	<ele>1184.60</ele>
	<time>2025-08-16T06:00:32.000Z</time>
</trkpt>
<trkpt lat="45.9636590" lon="10.2022440">
	<ele>1184.60</ele>
	<time>2025-08-16T06:00:33.000Z</time>
</trkpt>
<trkpt lat="45.9636670" lon="10.2022430">
	<ele>1185.00</ele>
	<time>2025-08-16T06:00:34.000Z</time>
</trkpt>
<trkpt lat="45.9636830" lon="10.2022410">
	<ele>1185.20</ele>
	<time>2025-08-16T06:00:35.000Z</time>
</trkpt>
<trkpt lat="45.9637010" lon="10.2022400">
	<ele>1185.20</ele>
	<time>2025-08-16T06:00:36.000Z</time>
</trkpt>
<trkpt lat="45.9637170" lon="10.2022360">
	<ele>1185.40</ele>
	<time>2025-08-16T06:00:37.000Z</time>
</trkpt>
<trkpt lat="45.9637320" lon="10.2022400">
	<ele>1185.60</ele>
	<time>2025-08-16T06:00:38.000Z</time>
</trkpt>
<trkpt lat="45.9637400" lon="10.2022430">
	<ele>1185.80</ele>
	<time>2025-08-16T06:00:39.000Z</time>
</trkpt>
<trkpt lat="45.9637490" lon="10.2022450">
	<ele>1186.00</ele>
	<time>2025-08-16T06:00:40.000Z</time>
</trkpt>
<trkpt lat="45.9637600" lon="10.2022500">
	<ele>1186.20</ele>
	<time>2025-08-16T06:00:41.000Z</time>
</trkpt>
<trkpt lat="45.9637710" lon="10.2022560">
	<ele>1186.40</ele>
	<time>2025-08-16T06:00:42.000Z</time>
</trkpt>
<trkpt lat="45.9637760" lon="10.2022550">
	<ele>1186.40</ele>
	<time>2025-08-16T06:00:43.000Z</time>
</trkpt>
<trkpt lat="45.9637780" lon="10.2022590">
	<ele>1186.80</ele>
	<time>2025-08-16T06:00:44.000Z</time>
</trkpt>
<trkpt lat="45.9637790" lon="10.2022630">
	<ele>1187.00</ele>
	<time>2025-08-16T06:00:45.000Z</time>
</trkpt>
<trkpt lat="45.9637860" lon="10.2022640">
	<ele>1187.00</ele>
	<time>2025-08-16T06:00:46.000Z</time>
</trkpt>
<trkpt lat="45.9637910" lon="10.2022670">
	<ele>1187.20</ele>
	<time>2025-08-16T06:00:47.000Z</time>
</trkpt>
<trkpt lat="45.9637920" lon="10.2022690">
	<ele>1187.20</ele>
	<time>2025-08-16T06:00:48.000Z</time>
</trkpt>
<trkpt lat="45.9637930" lon="10.2022720">
	<ele>1187.20</ele>
	<time>2025-08-16T06:00:49.000Z</time>
</trkpt>
<trkpt lat="45.9637940" lon="10.2022730">
	<ele>1187.40</ele>
	<time>2025-08-16T06:00:50.000Z</time>
</trkpt>
<trkpt lat="45.9637940" lon="10.2022720">
	<ele>1187.40</ele>
	<time>2025-08-16T06:00:51.000Z</time>
</trkpt>
<trkpt lat="45.9637990" lon="10.2022740">
	<ele>1187.60</ele>
	<time>2025-08-16T06:00:52.000Z</time>
</trkpt>
<trkpt lat="45.9638030" lon="10.2022760">
	<ele>1187.60</ele>
	<time>2025-08-16T06:00:53.000Z</time>
</trkpt>
<trkpt lat="45.9638050" lon="10.2022760">
	<ele>1187.60</ele>
	<time>2025-08-16T06:00:54.000Z</time>
</trkpt>
<trkpt lat="45.9638070" lon="10.2022750">
	<ele>1187.60</ele>
	<time>2025-08-16T06:00:55.000Z</time>
</trkpt>
<trkpt lat="45.9638090" lon="10.2022650">
	<ele>1187.80</ele>
	<time>2025-08-16T06:00:56.000Z</time>
</trkpt>
<trkpt lat="45.9638160" lon="10.2022520">
	<ele>1187.80</ele>
	<time>2025-08-16T06:00:57.000Z</time>
</trkpt>
<trkpt lat="45.9638060" lon="10.2022460">
	<ele>1187.80</ele>
	<time>2025-08-16T06:00:58.000Z</time>
</trkpt>
<trkpt lat="45.9638000" lon="10.2022370">
	<ele>1187.80</ele>
	<time>2025-08-16T06:00:59.000Z</time>
</trkpt>
<trkpt lat="45.9637910" lon="10.2022260">
	<ele>1187.40</ele>
	<time>2025-08-16T06:01:00.000Z</time>
</trkpt>
<trkpt lat="45.9637940" lon="10.2022120">
	<ele>1187.40</ele>
	<time>2025-08-16T06:01:01.000Z</time>
</trkpt>
<trkpt lat="45.9637990" lon="10.2021990">
	<ele>1187.20</ele>
	<time>2025-08-16T06:01:02.000Z</time>
</trkpt>
<trkpt lat="45.9637960" lon="10.2021880">
	<ele>1187.20</ele>
	<time>2025-08-16T06:01:03.000Z</time>
</trkpt>
<trkpt lat="45.9637990" lon="10.2021800">
	<ele>1187.40</ele>
	<time>2025-08-16T06:01:04.000Z</time>
</trkpt>
<trkpt lat="45.9638080" lon="10.2021700">
	<ele>1187.40</ele>
	<time>2025-08-16T06:01:05.000Z</time>
</trkpt>
<trkpt lat="45.9638140" lon="10.2021600">
	<ele>1187.60</ele>
	<time>2025-08-16T06:01:06.000Z</time>
</trkpt>
<trkpt lat="45.9638140" lon="10.2021510">
	<ele>1187.80</ele>
	<time>2025-08-16T06:01:07.000Z</time>
</trkpt>
<trkpt lat="45.9638040" lon="10.2021430">
	<ele>1187.80</ele>
	<time>2025-08-16T06:01:08.000Z</time>
</trkpt>
<trkpt lat="45.9638000" lon="10.2021340">
	<ele>1188.00</ele>
	<time>2025-08-16T06:01:09.000Z</time>
</trkpt>
<trkpt lat="45.9638020" lon="10.2021240">
	<ele>1188.20</ele>
	<time>2025-08-16T06:01:10.000Z</time>
</trkpt>
<trkpt lat="45.9638030" lon="10.2021200">
	<ele>1188.40</ele>
	<time>2025-08-16T06:01:11.000Z</time>
</trkpt>
<trkpt lat="45.9638050" lon="10.2021190">
	<ele>1188.60</ele>
	<time>2025-08-16T06:01:12.000Z</time>
</trkpt>
<trkpt lat="45.9638060" lon="10.2021070">
	<ele>1188.80</ele>
	<time>2025-08-16T06:01:13.000Z</time>
</trkpt>
<trkpt lat="45.9638080" lon="10.2021040">
	<ele>1189.20</ele>
	<time>2025-08-16T06:01:14.000Z</time>
</trkpt>
<trkpt lat="45.9638100" lon="10.2020950">
	<ele>1189.60</ele>
	<time>2025-08-16T06:01:15.000Z</time>
</trkpt>
<trkpt lat="45.9638080" lon="10.2020810">
	<ele>1189.80</ele>
	<time>2025-08-16T06:01:16.000Z</time>
</trkpt>
<trkpt lat="45.9638030" lon="10.2020690">
	<ele>1190.20</ele>
	<time>2025-08-16T06:01:17.000Z</time>
</trkpt>
<trkpt lat="45.9637970" lon="10.2020600">
	<ele>1190.40</ele>
	<time>2025-08-16T06:01:18.000Z</time>
</trkpt>
<trkpt lat="45.9637910" lon="10.2020430">
	<ele>1190.60</ele>
	<time>2025-08-16T06:01:19.000Z</time>
</trkpt>
<trkpt lat="45.9637820" lon="10.2020230">
	<ele>1190.80</ele>
	<time>2025-08-16T06:01:20.000Z</time>
</trkpt>
<trkpt lat="45.9637830" lon="10.2020090">
	<ele>1191.00</ele>
	<time>2025-08-16T06:01:21.000Z</time>
</trkpt>
<trkpt lat="45.9637830" lon="10.2019970">
	<ele>1191.20</ele>
	<time>2025-08-16T06:01:22.000Z</time>
</trkpt>
<trkpt lat="45.9637830" lon="10.2019890">
	<ele>1191.20</ele>
	<time>2025-08-16T06:01:23.000Z</time>
</trkpt>
<trkpt lat="45.9637840" lon="10.2019860">
	<ele>1191.20</ele>
	<time>2025-08-16T06:01:24.000Z</time>
</trkpt>
<trkpt lat="45.9637830" lon="10.2019830">
	<ele>1191.40</ele>
	<time>2025-08-16T06:01:25.000Z</time>
</trkpt>
<trkpt lat="45.9637770" lon="10.2019800">
	<ele>1191.40</ele>
	<time>2025-08-16T06:01:26.000Z</time>
</trkpt>
<trkpt lat="45.9637740" lon="10.2019740">
	<ele>1191.60</ele>
	<time>2025-08-16T06:01:27.000Z</time>
</trkpt>
<trkpt lat="45.9637660" lon="10.2019630">
	<ele>1191.60</ele>
	<time>2025-08-16T06:01:28.000Z</time>
</trkpt>
<trkpt lat="45.9637620" lon="10.2019480">
	<ele>1191.80</ele>
	<time>2025-08-16T06:01:29.000Z</time>
</trkpt>
<trkpt lat="45.9637530" lon="10.2019330">
	<ele>1192.00</ele>
	<time>2025-08-16T06:01:30.000Z</time>
</trkpt>
<trkpt lat="45.9637500" lon="10.2019210">
	<ele>1192.20</ele>
	<time>2025-08-16T06:01:31.000Z</time>
</trkpt>
<trkpt lat="45.9637480" lon="10.2019130">
	<ele>1192.20</ele>
	<time>2025-08-16T06:01:32.000Z</time>
</trkpt>
<trkpt lat="45.9637440" lon="10.2018990">
	<ele>1192.40</ele>
	<time>2025-08-16T06:01:33.000Z</time>
</trkpt>
<trkpt lat="45.9637390" lon="10.2018920">
	<ele>1192.60</ele>
	<time>2025-08-16T06:01:34.000Z</time>
</trkpt>
<trkpt lat="45.9637440" lon="10.2018750">
	<ele>1192.80</ele>
	<time>2025-08-16T06:01:35.000Z</time>
</trkpt>
<trkpt lat="45.9637460" lon="10.2018700">
	<ele>1193.00</ele>
	<time>2025-08-16T06:01:36.000Z</time>
</trkpt>
<trkpt lat="45.9637490" lon="10.2018650">
	<ele>1193.20</ele>
	<time>2025-08-16T06:01:37.000Z</time>
</trkpt>
<trkpt lat="45.9637510" lon="10.2018630">
	<ele>1193.20</ele>
	<time>2025-08-16T06:01:38.000Z</time>
</trkpt>
<trkpt lat="45.9637530" lon="10.2018620">
	<ele>1193.40</ele>
	<time>2025-08-16T06:01:39.000Z</time>
</trkpt>
<trkpt lat="45.9637490" lon="10.2018560">
	<ele>1193.40</ele>
	<time>2025-08-16T06:01:40.000Z</time>
</trkpt>
<trkpt lat="45.9637480" lon="10.2018500">
	<ele>1193.60</ele>
	<time>2025-08-16T06:01:41.000Z</time>
</trkpt>
<trkpt lat="45.9637470" lon="10.2018450">
	<ele>1193.80</ele>
	<time>2025-08-16T06:01:42.000Z</time>
</trkpt>
<trkpt lat="45.9637480" lon="10.2018410">
	<ele>1194.00</ele>
	<time>2025-08-16T06:01:43.000Z</time>
</trkpt>
<trkpt lat="45.9637520" lon="10.2018440">
	<ele>1194.00</ele>
	<time>2025-08-16T06:01:44.000Z</time>
</trkpt>
<trkpt lat="45.9637590" lon="10.2018450">
	<ele>1194.20</ele>
	<time>2025-08-16T06:01:45.000Z</time>
</trkpt>
<trkpt lat="45.9637710" lon="10.2018430">
	<ele>1194.40</ele>
	<time>2025-08-16T06:01:46.000Z</time>
</trkpt>
<trkpt lat="45.9637690" lon="10.2018280">
	<ele>1194.80</ele>
	<time>2025-08-16T06:01:47.000Z</time>
</trkpt>
<trkpt lat="45.9637650" lon="10.2018190">
	<ele>1195.00</ele>
	<time>2025-08-16T06:01:48.000Z</time>
</trkpt>
<trkpt lat="45.9637560" lon="10.2018040">
	<ele>1195.00</ele>
	<time>2025-08-16T06:01:49.000Z</time>
</trkpt>
<trkpt lat="45.9637510" lon="10.2017890">
	<ele>1195.20</ele>
	<time>2025-08-16T06:01:50.000Z</time>
</trkpt>
<trkpt lat="45.9637510" lon="10.2017760">
	<ele>1195.20</ele>
	<time>2025-08-16T06:01:51.000Z</time>
</trkpt>
<trkpt lat="45.9637500" lon="10.2017600">
	<ele>1195.40</ele>
	<time>2025-08-16T06:01:52.000Z</time>
</trkpt>
<trkpt lat="45.9637460" lon="10.2017390">
	<ele>1195.60</ele>
	<time>2025-08-16T06:01:53.000Z</time>
</trkpt>
<trkpt lat="45.9637450" lon="10.2017240">
	<ele>1195.60</ele>
	<time>2025-08-16T06:01:54.000Z</time>
</trkpt>
<trkpt lat="45.9637430" lon="10.2017060">
	<ele>1195.80</ele>
	<time>2025-08-16T06:01:55.000Z</time>
</trkpt>
<trkpt lat="45.9637430" lon="10.2017000">
	<ele>1196.00</ele>
	<time>2025-08-16T06:01:56.000Z</time>
</trkpt>
<trkpt lat="45.9637420" lon="10.2016980">
	<ele>1196.00</ele>
	<time>2025-08-16T06:01:57.000Z</time>
</trkpt>
<trkpt lat="45.9637400" lon="10.2017010">
	<ele>1196.20</ele>
	<time>2025-08-16T06:01:58.000Z</time>
</trkpt>
<trkpt lat="45.9637390" lon="10.2017030">
	<ele>1196.20</ele>
	<time>2025-08-16T06:01:59.000Z</time>
</trkpt>
<trkpt lat="45.9637370" lon="10.2016900">
	<ele>1196.20</ele>
	<time>2025-08-16T06:02:00.000Z</time>
</trkpt>
<trkpt lat="45.9637340" lon="10.2016900">
	<ele>1196.20</ele>
	<time>2025-08-16T06:02:01.000Z</time>
</trkpt>
<trkpt lat="45.9637250" lon="10.2016890">
	<ele>1196.40</ele>
	<time>2025-08-16T06:02:02.000Z</time>
</trkpt>
<trkpt lat="45.9637200" lon="10.2016930">
	<ele>1196.40</ele>
	<time>2025-08-16T06:02:03.000Z</time>
</trkpt>
<trkpt lat="45.9637180" lon="10.2016950">
	<ele>1196.60</ele>
	<time>2025-08-16T06:02:04.000Z</time>
</trkpt>
<trkpt lat="45.9637180" lon="10.2016970">
	<ele>1196.60</ele>
	<time>2025-08-16T06:02:05.000Z</time>
</trkpt>
<trkpt lat="45.9637180" lon="10.2016970">
	<ele>1196.60</ele>
	<time>2025-08-16T06:02:06.000Z</time>
</trkpt>
<trkpt lat="45.9637190" lon="10.2016960">
	<ele>1196.60</ele>
	<time>2025-08-16T06:02:07.000Z</time>
</trkpt>
<trkpt lat="45.9637190" lon="10.2016940">
	<ele>1196.60</ele>
	<time>2025-08-16T06:02:08.000Z</time>
</trkpt>
<trkpt lat="45.9637250" lon="10.2016960">
	<ele>1196.40</ele>
	<time>2025-08-16T06:02:09.000Z</time>
</trkpt>
<trkpt lat="45.9637270" lon="10.2016990">
	<ele>1196.40</ele>
	<time>2025-08-16T06:02:10.000Z</time>
</trkpt>
<trkpt lat="45.9637280" lon="10.2017030">
	<ele>1196.20</ele>
	<time>2025-08-16T06:02:11.000Z</time>
</trkpt>
<trkpt lat="45.9637280" lon="10.2017060">
	<ele>1196.20</ele>
	<time>2025-08-16T06:02:12.000Z</time>
</trkpt>
<trkpt lat="45.9637280" lon="10.2017080">
	<ele>1196.20</ele>
	<time>2025-08-16T06:02:13.000Z</time>
</trkpt>
<trkpt lat="45.9637280" lon="10.2017080">
	<ele>1196.00</ele>
	<time>2025-08-16T06:02:14.000Z</time>
</trkpt>
<trkpt lat="45.9637280" lon="10.2017080">
	<ele>1196.00</ele>
	<time>2025-08-16T06:02:15.000Z</time>
</trkpt>
<trkpt lat="45.9637280" lon="10.2017080">
	<ele>1196.00</ele>
	<time>2025-08-16T06:02:16.000Z</time>
</trkpt>
<trkpt lat="45.9637280" lon="10.2017080">
	<ele>1196.00</ele>
	<time>2025-08-16T06:02:17.000Z</time>
</trkpt>
<trkpt lat="45.9637280" lon="10.2017080">
	<ele>1196.20</ele>
	<time>2025-08-16T06:02:18.000Z</time>
</trkpt>
<trkpt lat="45.9637280" lon="10.2017080">
	<ele>1196.20</ele>
	<time>2025-08-16T06:02:19.000Z</time>
</trkpt>
<trkpt lat="45.9637280" lon="10.2017080">
	<ele>1196.40</ele>
	<time>2025-08-16T06:02:20.000Z</time>
</trkpt>
<trkpt lat="45.9637260" lon="10.2017000">
	<ele>1196.80</ele>
	<time>2025-08-16T06:02:21.000Z</time>
</trkpt>
<trkpt lat="45.9637210" lon="10.2016830">
	<ele>1197.00</ele>
	<time>2025-08-16T06:02:22.000Z</time>
</trkpt>
<trkpt lat="45.9637150" lon="10.2016650">
	<ele>1197.20</ele>
	<time>2025-08-16T06:02:23.000Z</time>
</trkpt>
<trkpt lat="45.9637070" lon="10.2016400">
	<ele>1197.40</ele>
	<time>2025-08-16T06:02:24.000Z</time>
</trkpt>
<trkpt lat="45.9636990" lon="10.2016130">
	<ele>1197.60</ele>
	<time>2025-08-16T06:02:25.000Z</time>
</trkpt>
<trkpt lat="45.9637030" lon="10.2015900">
	<ele>1197.80</ele>
	<time>2025-08-16T06:02:26.000Z</time>
</trkpt>
<trkpt lat="45.9637040" lon="10.2015620">
	<ele>1198.00</ele>
	<time>2025-08-16T06:02:27.000Z</time>
</trkpt>
<trkpt lat="45.9637050" lon="10.2015350">
	<ele>1198.00</ele>
	<time>2025-08-16T06:02:28.000Z</time>
</trkpt>
<trkpt lat="45.9637070" lon="10.2015120">
	<ele>1198.20</ele>
	<time>2025-08-16T06:02:29.000Z</time>
</trkpt>
<trkpt lat="45.9637160" lon="10.2014890">
	<ele>1198.40</ele>
	<time>2025-08-16T06:02:30.000Z</time>
</trkpt>
<trkpt lat="45.9637280" lon="10.2014730">
	<ele>1198.60</ele>
	<time>2025-08-16T06:02:31.000Z</time>
</trkpt>
<trkpt lat="45.9637320" lon="10.2014660">
	<ele>1198.60</ele>
	<time>2025-08-16T06:02:32.000Z</time>
</trkpt>
<trkpt lat="45.9637350" lon="10.2014560">
	<ele>1198.80</ele>
	<time>2025-08-16T06:02:33.000Z</time>
</trkpt>
<trkpt lat="45.9637370" lon="10.2014440">
	<ele>1199.00</ele>
	<time>2025-08-16T06:02:34.000Z</time>
</trkpt>
<trkpt lat="45.9637310" lon="10.2014320">
	<ele>1199.20</ele>
	<time>2025-08-16T06:02:35.000Z</time>
</trkpt>
<trkpt lat="45.9637260" lon="10.2014220">
	<ele>1199.40</ele>
	<time>2025-08-16T06:02:36.000Z</time>
</trkpt>
<trkpt lat="45.9637310" lon="10.2014120">
	<ele>1199.60</ele>
	<time>2025-08-16T06:02:37.000Z</time>
</trkpt>
<trkpt lat="45.9637380" lon="10.2014010">
	<ele>1199.60</ele>
	<time>2025-08-16T06:02:38.000Z</time>
</trkpt>
<trkpt lat="45.9637470" lon="10.2013860">
	<ele>1199.80</ele>
	<time>2025-08-16T06:02:39.000Z</time>
</trkpt>
<trkpt lat="45.9637450" lon="10.2013710">
	<ele>1200.00</ele>
	<time>2025-08-16T06:02:40.000Z</time>
</trkpt>
<trkpt lat="45.9637410" lon="10.2013550">
	<ele>1200.40</ele>
	<time>2025-08-16T06:02:41.000Z</time>
</trkpt>
<trkpt lat="45.9637360" lon="10.2013380">
	<ele>1200.60</ele>
	<time>2025-08-16T06:02:42.000Z</time>
</trkpt>
<trkpt lat="45.9637240" lon="10.2013310">
	<ele>1200.60</ele>
	<time>2025-08-16T06:02:43.000Z</time>
</trkpt>
<trkpt lat="45.9637130" lon="10.2013200">
	<ele>1200.80</ele>
	<time>2025-08-16T06:02:44.000Z</time>
</trkpt>
<trkpt lat="45.9637090" lon="10.2013200">
	<ele>1201.00</ele>
	<time>2025-08-16T06:02:45.000Z</time>
</trkpt>
<trkpt lat="45.9637060" lon="10.2013190">
	<ele>1201.20</ele>
	<time>2025-08-16T06:02:46.000Z</time>
</trkpt>
<trkpt lat="45.9637040" lon="10.2013180">
	<ele>1201.60</ele>
	<time>2025-08-16T06:02:47.000Z</time>
</trkpt>
<trkpt lat="45.9637040" lon="10.2013180">
	<ele>1201.60</ele>
	<time>2025-08-16T06:02:48.000Z</time>
</trkpt>
<trkpt lat="45.9637050" lon="10.2013140">
	<ele>1201.80</ele>
	<time>2025-08-16T06:02:49.000Z</time>
</trkpt>
<trkpt lat="45.9637060" lon="10.2013110">
	<ele>1201.80</ele>
	<time>2025-08-16T06:02:50.000Z</time>
</trkpt>
<trkpt lat="45.9636990" lon="10.2012980">
	<ele>1202.00</ele>
	<time>2025-08-16T06:02:51.000Z</time>
</trkpt>
<trkpt lat="45.9637000" lon="10.2012800">
	<ele>1202.20</ele>
	<time>2025-08-16T06:02:52.000Z</time>
</trkpt>
<trkpt lat="45.9637020" lon="10.2012570">
	<ele>1202.40</ele>
	<time>2025-08-16T06:02:53.000Z</time>
</trkpt>
<trkpt lat="45.9637060" lon="10.2012370">
	<ele>1202.60</ele>
	<time>2025-08-16T06:02:54.000Z</time>
</trkpt>
<trkpt lat="45.9637080" lon="10.2012140">
	<ele>1202.60</ele>
	<time>2025-08-16T06:02:55.000Z</time>
</trkpt>
<trkpt lat="45.9637070" lon="10.2011830">
	<ele>1202.80</ele>
	<time>2025-08-16T06:02:56.000Z</time>
</trkpt>
<trkpt lat="45.9637010" lon="10.2011570">
	<ele>1203.00</ele>
	<time>2025-08-16T06:02:57.000Z</time>
</trkpt>
<trkpt lat="45.9636940" lon="10.2011290">
	<ele>1203.00</ele>
	<time>2025-08-16T06:02:58.000Z</time>
</trkpt>
<trkpt lat="45.9636930" lon="10.2010880">
	<ele>1203.20</ele>
	<time>2025-08-16T06:02:59.000Z</time>
</trkpt>
<trkpt lat="45.9636900" lon="10.2010490">
	<ele>1203.40</ele>
	<time>2025-08-16T06:03:00.000Z</time>
</trkpt>
<trkpt lat="45.9636870" lon="10.2010170">
	<ele>1203.60</ele>
	<time>2025-08-16T06:03:01.000Z</time>
</trkpt>
<trkpt lat="45.9636930" lon="10.2010010">
	<ele>1203.80</ele>
	<time>2025-08-16T06:03:02.000Z</time>
</trkpt>
<trkpt lat="45.9636920" lon="10.2009920">
	<ele>1204.00</ele>
	<time>2025-08-16T06:03:03.000Z</time>
</trkpt>
<trkpt lat="45.9636960" lon="10.2009860">
	<ele>1204.20</ele>
	<time>2025-08-16T06:03:04.000Z</time>
</trkpt>
<trkpt lat="45.9637010" lon="10.2009710">
	<ele>1204.20</ele>
	<time>2025-08-16T06:03:05.000Z</time>
</trkpt>
<trkpt lat="45.9637050" lon="10.2009580">
	<ele>1204.40</ele>
	<time>2025-08-16T06:03:06.000Z</time>
</trkpt>
<trkpt lat="45.9637110" lon="10.2009400">
	<ele>1204.60</ele>
	<time>2025-08-16T06:03:07.000Z</time>
</trkpt>
<trkpt lat="45.9637150" lon="10.2009310">
	<ele>1204.80</ele>
	<time>2025-08-16T06:03:08.000Z</time>
</trkpt>
<trkpt lat="45.9637130" lon="10.2009240">
	<ele>1205.00</ele>
	<time>2025-08-16T06:03:09.000Z</time>
</trkpt>
<trkpt lat="45.9637140" lon="10.2009210">
	<ele>1205.00</ele>
	<time>2025-08-16T06:03:10.000Z</time>
</trkpt>
<trkpt lat="45.9637140" lon="10.2009050">
	<ele>1205.20</ele>
	<time>2025-08-16T06:03:11.000Z</time>
</trkpt>
<trkpt lat="45.9637170" lon="10.2008850">
	<ele>1205.40</ele>
	<time>2025-08-16T06:03:12.000Z</time>
</trkpt>
<trkpt lat="45.9637130" lon="10.2008570">
	<ele>1205.60</ele>
	<time>2025-08-16T06:03:13.000Z</time>
</trkpt>
<trkpt lat="45.9636990" lon="10.2008260">
	<ele>1205.60</ele>
	<time>2025-08-16T06:03:14.000Z</time>
</trkpt>
<trkpt lat="45.9636970" lon="10.2008090">
	<ele>1205.60</ele>
	<time>2025-08-16T06:03:15.000Z</time>
</trkpt>
<trkpt lat="45.9637070" lon="10.2008030">
	<ele>1206.00</ele>
	<time>2025-08-16T06:03:16.000Z</time>
</trkpt>
<trkpt lat="45.9637040" lon="10.2007990">
	<ele>1206.20</ele>
	<time>2025-08-16T06:03:17.000Z</time>
</trkpt>
<trkpt lat="45.9637110" lon="10.2007960">
	<ele>1206.40</ele>
	<time>2025-08-16T06:03:18.000Z</time>
</trkpt>
<trkpt lat="45.9637080" lon="10.2007760">
	<ele>1206.40</ele>
	<time>2025-08-16T06:03:19.000Z</time>
</trkpt>
<trkpt lat="45.9637000" lon="10.2007550">
	<ele>1206.60</ele>
	<time>2025-08-16T06:03:20.000Z</time>
</trkpt>
<trkpt lat="45.9636830" lon="10.2007400">
	<ele>1206.80</ele>
	<time>2025-08-16T06:03:21.000Z</time>
</trkpt>
<trkpt lat="45.9636810" lon="10.2007380">
	<ele>1207.00</ele>
	<time>2025-08-16T06:03:22.000Z</time>
</trkpt>
<trkpt lat="45.9636780" lon="10.2007420">
	<ele>1207.20</ele>
	<time>2025-08-16T06:03:23.000Z</time>
</trkpt>
<trkpt lat="45.9636790" lon="10.2007370">
	<ele>1207.20</ele>
	<time>2025-08-16T06:03:24.000Z</time>
</trkpt>
<trkpt lat="45.9636770" lon="10.2007270">
	<ele>1207.60</ele>
	<time>2025-08-16T06:03:25.000Z</time>
</trkpt>
<trkpt lat="45.9636710" lon="10.2007050">
	<ele>1207.60</ele>
	<time>2025-08-16T06:03:26.000Z</time>
</trkpt>
<trkpt lat="45.9636590" lon="10.2006800">
	<ele>1207.80</ele>
	<time>2025-08-16T06:03:27.000Z</time>
</trkpt>
<trkpt lat="45.9636490" lon="10.2006500">
	<ele>1208.00</ele>
	<time>2025-08-16T06:03:28.000Z</time>
</trkpt>
<trkpt lat="45.9636410" lon="10.2006250">
	<ele>1208.20</ele>
	<time>2025-08-16T06:03:29.000Z</time>
</trkpt>
<trkpt lat="45.9636390" lon="10.2006110">
	<ele>1208.20</ele>
	<time>2025-08-16T06:03:30.000Z</time>
</trkpt>
<trkpt lat="45.9636410" lon="10.2005920">
	<ele>1208.40</ele>
	<time>2025-08-16T06:03:31.000Z</time>
</trkpt>
<trkpt lat="45.9636420" lon="10.2005790">
	<ele>1208.40</ele>
	<time>2025-08-16T06:03:32.000Z</time>
</trkpt>
<trkpt lat="45.9636430" lon="10.2005730">
	<ele>1208.60</ele>
	<time>2025-08-16T06:03:33.000Z</time>
</trkpt>
<trkpt lat="45.9636450" lon="10.2005650">
	<ele>1208.60</ele>
	<time>2025-08-16T06:03:34.000Z</time>
</trkpt>
<trkpt lat="45.9636400" lon="10.2005480">
	<ele>1208.80</ele>
	<time>2025-08-16T06:03:35.000Z</time>
</trkpt>
<trkpt lat="45.9636340" lon="10.2005360">
	<ele>1209.00</ele>
	<time>2025-08-16T06:03:36.000Z</time>
</trkpt>
<trkpt lat="45.9636280" lon="10.2005270">
	<ele>1209.20</ele>
	<time>2025-08-16T06:03:37.000Z</time>
</trkpt>
<trkpt lat="45.9636180" lon="10.2005150">
	<ele>1209.20</ele>
	<time>2025-08-16T06:03:38.000Z</time>
</trkpt>
<trkpt lat="45.9636090" lon="10.2004970">
	<ele>1209.40</ele>
	<time>2025-08-16T06:03:39.000Z</time>
</trkpt>
<trkpt lat="45.9636050" lon="10.2004820">
	<ele>1209.60</ele>
	<time>2025-08-16T06:03:40.000Z</time>
</trkpt>
<trkpt lat="45.9636040" lon="10.2004820">
	<ele>1209.60</ele>
	<time>2025-08-16T06:03:41.000Z</time>
</trkpt>
<trkpt lat="45.9636060" lon="10.2004770">
	<ele>1210.00</ele>
	<time>2025-08-16T06:03:42.000Z</time>
</trkpt>
<trkpt lat="45.9636060" lon="10.2004680">
	<ele>1210.00</ele>
	<time>2025-08-16T06:03:43.000Z</time>
</trkpt>
<trkpt lat="45.9636080" lon="10.2004560">
	<ele>1210.20</ele>
	<time>2025-08-16T06:03:44.000Z</time>
</trkpt>
<trkpt lat="45.9636060" lon="10.2004520">
	<ele>1210.40</ele>
	<time>2025-08-16T06:03:45.000Z</time>
</trkpt>
<trkpt lat="45.9636040" lon="10.2004400">
	<ele>1210.60</ele>
	<time>2025-08-16T06:03:46.000Z</time>
</trkpt>
<trkpt lat="45.9636000" lon="10.2004180">
	<ele>1210.80</ele>
	<time>2025-08-16T06:03:47.000Z</time>
</trkpt>
<trkpt lat="45.9635940" lon="10.2003970">
	<ele>1210.80</ele>
	<time>2025-08-16T06:03:48.000Z</time>
</trkpt>
<trkpt lat="45.9635900" lon="10.2003860">
	<ele>1211.00</ele>
	<time>2025-08-16T06:03:49.000Z</time>
</trkpt>
<trkpt lat="45.9635870" lon="10.2003790">
	<ele>1211.20</ele>
	<time>2025-08-16T06:03:50.000Z</time>
</trkpt>
<trkpt lat="45.9635800" lon="10.2003720">
	<ele>1211.40</ele>
	<time>2025-08-16T06:03:51.000Z</time>
</trkpt>
<trkpt lat="45.9635700" lon="10.2003590">
	<ele>1211.60</ele>
	<time>2025-08-16T06:03:52.000Z</time>
</trkpt>
<trkpt lat="45.9635600" lon="10.2003410">
	<ele>1211.80</ele>
	<time>2025-08-16T06:03:53.000Z</time>
</trkpt>
<trkpt lat="45.9635510" lon="10.2003340">
	<ele>1212.00</ele>
	<time>2025-08-16T06:03:54.000Z</time>
</trkpt>
<trkpt lat="45.9635430" lon="10.2003260">
	<ele>1212.20</ele>
	<time>2025-08-16T06:03:55.000Z</time>
</trkpt>
<trkpt lat="45.9635380" lon="10.2003210">
	<ele>1212.40</ele>
	<time>2025-08-16T06:03:56.000Z</time>
</trkpt>
<trkpt lat="45.9635360" lon="10.2003180">
	<ele>1212.60</ele>
	<time>2025-08-16T06:03:57.000Z</time>
</trkpt>
<trkpt lat="45.9635350" lon="10.2003140">
	<ele>1212.80</ele>
	<time>2025-08-16T06:03:58.000Z</time>
</trkpt>
<trkpt lat="45.9635360" lon="10.2003140">
	<ele>1213.00</ele>
	<time>2025-08-16T06:03:59.000Z</time>
</trkpt>
<trkpt lat="45.9635290" lon="10.2003090">
	<ele>1213.20</ele>
	<time>2025-08-16T06:04:00.000Z</time>
</trkpt>
<trkpt lat="45.9635200" lon="10.2003020">
	<ele>1213.40</ele>
	<time>2025-08-16T06:04:01.000Z</time>
</trkpt>
<trkpt lat="45.9635110" lon="10.2002930">
	<ele>1213.60</ele>
	<time>2025-08-16T06:04:02.000Z</time>
</trkpt>
<trkpt lat="45.9635050" lon="10.2002880">
	<ele>1213.80</ele>
	<time>2025-08-16T06:04:03.000Z</time>
</trkpt>
<trkpt lat="45.9634950" lon="10.2002820">
	<ele>1213.80</ele>
	<time>2025-08-16T06:04:04.000Z</time>
</trkpt>
<trkpt lat="45.9634910" lon="10.2002770">
	<ele>1214.00</ele>
	<time>2025-08-16T06:04:05.000Z</time>
</trkpt>
<trkpt lat="45.9634880" lon="10.2002740">
	<ele>1214.20</ele>
	<time>2025-08-16T06:04:06.000Z</time>
</trkpt>
<trkpt lat="45.9634860" lon="10.2002700">
	<ele>1214.60</ele>
	<time>2025-08-16T06:04:07.000Z</time>
</trkpt>
<trkpt lat="45.9634820" lon="10.2002680">
	<ele>1214.80</ele>
	<time>2025-08-16T06:04:08.000Z</time>
</trkpt>
<trkpt lat="45.9634810" lon="10.2002650">
	<ele>1215.00</ele>
	<time>2025-08-16T06:04:09.000Z</time>
</trkpt>
<trkpt lat="45.9634780" lon="10.2002600">
	<ele>1215.00</ele>
	<time>2025-08-16T06:04:10.000Z</time>
</trkpt>
<trkpt lat="45.9634700" lon="10.2002510">
	<ele>1215.20</ele>
	<time>2025-08-16T06:04:11.000Z</time>
</trkpt>
<trkpt lat="45.9634670" lon="10.2002420">
	<ele>1215.40</ele>
	<time>2025-08-16T06:04:12.000Z</time>
</trkpt>
<trkpt lat="45.9634620" lon="10.2002320">
	<ele>1215.40</ele>
	<time>2025-08-16T06:04:13.000Z</time>
</trkpt>
<trkpt lat="45.9634550" lon="10.2002270">
	<ele>1215.60</ele>
	<time>2025-08-16T06:04:14.000Z</time>
</trkpt>
<trkpt lat="45.9634540" lon="10.2002230">
	<ele>1215.60</ele>
	<time>2025-08-16T06:04:15.000Z</time>
</trkpt>
<trkpt lat="45.9634490" lon="10.2002250">
	<ele>1215.80</ele>
	<time>2025-08-16T06:04:16.000Z</time>
</trkpt>
<trkpt lat="45.9634490" lon="10.2002270">
	<ele>1216.00</ele>
	<time>2025-08-16T06:04:17.000Z</time>
</trkpt>
<trkpt lat="45.9634470" lon="10.2002270">
	<ele>1216.00</ele>
	<time>2025-08-16T06:04:18.000Z</time>
</trkpt>
<trkpt lat="45.9634470" lon="10.2002260">
	<ele>1216.20</ele>
	<time>2025-08-16T06:04:19.000Z</time>
</trkpt>
<trkpt lat="45.9634410" lon="10.2002110">
	<ele>1216.20</ele>
	<time>2025-08-16T06:04:20.000Z</time>
</trkpt>
<trkpt lat="45.9634400" lon="10.2002020">
	<ele>1216.20</ele>
	<time>2025-08-16T06:04:21.000Z</time>
</trkpt>
<trkpt lat="45.9634420" lon="10.2001900">
	<ele>1216.40</ele>
	<time>2025-08-16T06:04:22.000Z</time>
</trkpt>
<trkpt lat="45.9634400" lon="10.2001780">
	<ele>1216.40</ele>
	<time>2025-08-16T06:04:23.000Z</time>
</trkpt>
<trkpt lat="45.9634420" lon="10.2001700">
	<ele>1216.40</ele>
	<time>2025-08-16T06:04:24.000Z</time>
</trkpt>
<trkpt lat="45.9634420" lon="10.2001560">
	<ele>1216.40</ele>
	<time>2025-08-16T06:04:25.000Z</time>
</trkpt>
<trkpt lat="45.9634360" lon="10.2001430">
	<ele>1216.60</ele>
	<time>2025-08-16T06:04:26.000Z</time>
</trkpt>
<trkpt lat="45.9634310" lon="10.2001240">
	<ele>1216.60</ele>
	<time>2025-08-16T06:04:27.000Z</time>
</trkpt>
<trkpt lat="45.9634350" lon="10.2001200">
	<ele>1216.80</ele>
	<time>2025-08-16T06:04:28.000Z</time>
</trkpt>
<trkpt lat="45.9634380" lon="10.2001180">
	<ele>1217.00</ele>
	<time>2025-08-16T06:04:29.000Z</time>
</trkpt>
<trkpt lat="45.9634540" lon="10.2001230">
	<ele>1217.20</ele>
	<time>2025-08-16T06:04:30.000Z</time>
</trkpt>
<trkpt lat="45.9634610" lon="10.2001220">
	<ele>1217.60</ele>
	<time>2025-08-16T06:04:31.000Z</time>
</trkpt>
<trkpt lat="45.9634640" lon="10.2001130">
	<ele>1217.80</ele>
	<time>2025-08-16T06:04:32.000Z</time>
</trkpt>
<trkpt lat="45.9634680" lon="10.2001070">
	<ele>1217.80</ele>
	<time>2025-08-16T06:04:33.000Z</time>
</trkpt>
<trkpt lat="45.9634760" lon="10.2001090">
	<ele>1218.20</ele>
	<time>2025-08-16T06:04:34.000Z</time>
</trkpt>
<trkpt lat="45.9634760" lon="10.2001090">
	<ele>1218.60</ele>
	<time>2025-08-16T06:04:35.000Z</time>
</trkpt>
<trkpt lat="45.9634770" lon="10.2001080">
	<ele>1218.80</ele>
	<time>2025-08-16T06:04:36.000Z</time>
</trkpt>
<trkpt lat="45.9634760" lon="10.2001120">
	<ele>1218.80</ele>
	<time>2025-08-16T06:04:37.000Z</time>
</trkpt>
<trkpt lat="45.9634760" lon="10.2001140">
	<ele>1219.00</ele>
	<time>2025-08-16T06:04:38.000Z</time>
</trkpt>
<trkpt lat="45.9634800" lon="10.2001100">
	<ele>1219.20</ele>
	<time>2025-08-16T06:04:39.000Z</time>
</trkpt>
<trkpt lat="45.9634820" lon="10.2001130">
	<ele>1219.40</ele>
	<time>2025-08-16T06:04:40.000Z</time>
</trkpt>
<trkpt lat="45.9634890" lon="10.2001170">
	<ele>1219.60</ele>
	<time>2025-08-16T06:04:41.000Z</time>
</trkpt>
<trkpt lat="45.9634940" lon="10.2001170">
	<ele>1219.80</ele>
	<time>2025-08-16T06:04:42.000Z</time>
</trkpt>
<trkpt lat="45.9635010" lon="10.2001120">
	<ele>1220.00</ele>
	<time>2025-08-16T06:04:43.000Z</time>
</trkpt>
<trkpt lat="45.9635090" lon="10.2001100">
	<ele>1220.20</ele>
	<time>2025-08-16T06:04:44.000Z</time>
</trkpt>
<trkpt lat="45.9635170" lon="10.2001070">
	<ele>1220.40</ele>
	<time>2025-08-16T06:04:45.000Z</time>
</trkpt>
<trkpt lat="45.9635260" lon="10.2001070">
	<ele>1220.60</ele>
	<time>2025-08-16T06:04:46.000Z</time>
</trkpt>
<trkpt lat="45.9635330" lon="10.2001130">
	<ele>1220.60</ele>
	<time>2025-08-16T06:04:47.000Z</time>
</trkpt>
<trkpt lat="45.9635410" lon="10.2001180">
	<ele>1221.00</ele>
	<time>2025-08-16T06:04:48.000Z</time>
</trkpt>
<trkpt lat="45.9635450" lon="10.2001170">
	<ele>1221.20</ele>
	<time>2025-08-16T06:04:49.000Z</time>
</trkpt>
<trkpt lat="45.9635470" lon="10.2001140">
	<ele>1221.40</ele>
	<time>2025-08-16T06:04:50.000Z</time>
</trkpt>
<trkpt lat="45.9635570" lon="10.2001150">
	<ele>1221.60</ele>
	<time>2025-08-16T06:04:51.000Z</time>
</trkpt>
<trkpt lat="45.9635690" lon="10.2001090">
	<ele>1221.80</ele>
	<time>2025-08-16T06:04:52.000Z</time>
</trkpt>
<trkpt lat="45.9635730" lon="10.2000910">
	<ele>1222.00</ele>
	<time>2025-08-16T06:04:53.000Z</time>
</trkpt>
<trkpt lat="45.9635740" lon="10.2000900">
	<ele>1222.20</ele>
	<time>2025-08-16T06:04:54.000Z</time>
</trkpt>
<trkpt lat="45.9635840" lon="10.2000970">
	<ele>1222.40</ele>
	<time>2025-08-16T06:04:55.000Z</time>
</trkpt>
<trkpt lat="45.9635890" lon="10.2001140">
	<ele>1222.40</ele>
	<time>2025-08-16T06:04:56.000Z</time>
</trkpt>
<trkpt lat="45.9635930" lon="10.2001270">
	<ele>1222.60</ele>
	<time>2025-08-16T06:04:57.000Z</time>
</trkpt>
<trkpt lat="45.9636110" lon="10.2001330">
	<ele>1222.60</ele>
	<time>2025-08-16T06:04:58.000Z</time>
</trkpt>
<trkpt lat="45.9636220" lon="10.2001340">
	<ele>1223.00</ele>
	<time>2025-08-16T06:04:59.000Z</time>
</trkpt>
<trkpt lat="45.9636300" lon="10.2001320">
	<ele>1223.00</ele>
	<time>2025-08-16T06:05:00.000Z</time>
</trkpt>
<trkpt lat="45.9636450" lon="10.2001330">
	<ele>1223.20</ele>
	<time>2025-08-16T06:05:01.000Z</time>
</trkpt>
<trkpt lat="45.9636530" lon="10.2001390">
	<ele>1223.40</ele>
	<time>2025-08-16T06:05:02.000Z</time>
</trkpt>
<trkpt lat="45.9636630" lon="10.2001470">
	<ele>1223.40</ele>
	<time>2025-08-16T06:05:03.000Z</time>
</trkpt>
<trkpt lat="45.9636700" lon="10.2001570">
	<ele>1223.60</ele>
	<time>2025-08-16T06:05:04.000Z</time>
</trkpt>
<trkpt lat="45.9636820" lon="10.2001600">
	<ele>1223.60</ele>
	<time>2025-08-16T06:05:05.000Z</time>
</trkpt>
<trkpt lat="45.9636920" lon="10.2001630">
	<ele>1223.80</ele>
	<time>2025-08-16T06:05:06.000Z</time>
</trkpt>
<trkpt lat="45.9636980" lon="10.2001660">
	<ele>1224.00</ele>
	<time>2025-08-16T06:05:07.000Z</time>
</trkpt>
<trkpt lat="45.9637050" lon="10.2001680">
	<ele>1224.20</ele>
	<time>2025-08-16T06:05:08.000Z</time>
</trkpt>
<trkpt lat="45.9637100" lon="10.2001710">
	<ele>1224.20</ele>
	<time>2025-08-16T06:05:09.000Z</time>
</trkpt>
<trkpt lat="45.9637150" lon="10.2001760">
	<ele>1224.40</ele>
	<time>2025-08-16T06:05:10.000Z</time>
</trkpt>
<trkpt lat="45.9637220" lon="10.2001830">
	<ele>1224.60</ele>
	<time>2025-08-16T06:05:11.000Z</time>
</trkpt>
<trkpt lat="45.9637320" lon="10.2001930">
	<ele>1224.60</ele>
	<time>2025-08-16T06:05:12.000Z</time>
</trkpt>
<trkpt lat="45.9637360" lon="10.2001990">
	<ele>1224.80</ele>
	<time>2025-08-16T06:05:13.000Z</time>
</trkpt>
<trkpt lat="45.9637350" lon="10.2002100">
	<ele>1225.00</ele>
	<time>2025-08-16T06:05:14.000Z</time>
</trkpt>
<trkpt lat="45.9637400" lon="10.2002200">
	<ele>1225.00</ele>
	<time>2025-08-16T06:05:15.000Z</time>
</trkpt>
<trkpt lat="45.9637520" lon="10.2002250">
	<ele>1225.20</ele>
	<time>2025-08-16T06:05:16.000Z</time>
</trkpt>
<trkpt lat="45.9637590" lon="10.2002260">
	<ele>1225.40</ele>
	<time>2025-08-16T06:05:17.000Z</time>
</trkpt>
<trkpt lat="45.9637670" lon="10.2002280">
	<ele>1225.60</ele>
	<time>2025-08-16T06:05:18.000Z</time>
</trkpt>
<trkpt lat="45.9637730" lon="10.2002310">
	<ele>1225.80</ele>
	<time>2025-08-16T06:05:19.000Z</time>
</trkpt>
<trkpt lat="45.9637810" lon="10.2002340">
	<ele>1226.00</ele>
	<time>2025-08-16T06:05:20.000Z</time>
</trkpt>
<trkpt lat="45.9637850" lon="10.2002330">
	<ele>1226.20</ele>
	<time>2025-08-16T06:05:21.000Z</time>
</trkpt>
<trkpt lat="45.9637880" lon="10.2002360">
	<ele>1226.40</ele>
	<time>2025-08-16T06:05:22.000Z</time>
</trkpt>
<trkpt lat="45.9637920" lon="10.2002360">
	<ele>1226.40</ele>
	<time>2025-08-16T06:05:23.000Z</time>
</trkpt>
<trkpt lat="45.9637970" lon="10.2002400">
	<ele>1226.60</ele>
	<time>2025-08-16T06:05:24.000Z</time>
</trkpt>
<trkpt lat="45.9638050" lon="10.2002440">
	<ele>1226.80</ele>
	<time>2025-08-16T06:05:25.000Z</time>
</trkpt>
<trkpt lat="45.9638150" lon="10.2002480">
	<ele>1227.00</ele>
	<time>2025-08-16T06:05:26.000Z</time>
</trkpt>
<trkpt lat="45.9638250" lon="10.2002500">
	<ele>1227.20</ele>
	<time>2025-08-16T06:05:27.000Z</time>
</trkpt>
<trkpt lat="45.9638330" lon="10.2002480">
	<ele>1227.20</ele>
	<time>2025-08-16T06:05:28.000Z</time>
</trkpt>
<trkpt lat="45.9638440" lon="10.2002480">
	<ele>1227.40</ele>
	<time>2025-08-16T06:05:29.000Z</time>
</trkpt>
<trkpt lat="45.9638520" lon="10.2002520">
	<ele>1227.60</ele>
	<time>2025-08-16T06:05:30.000Z</time>
</trkpt>
<trkpt lat="45.9638510" lon="10.2002570">
	<ele>1227.80</ele>
	<time>2025-08-16T06:05:31.000Z</time>
</trkpt>
<trkpt lat="45.9638530" lon="10.2002610">
	<ele>1228.00</ele>
	<time>2025-08-16T06:05:32.000Z</time>
</trkpt>
<trkpt lat="45.9638610" lon="10.2002610">
	<ele>1228.00</ele>
	<time>2025-08-16T06:05:33.000Z</time>
</trkpt>
<trkpt lat="45.9638640" lon="10.2002680">
	<ele>1228.20</ele>
	<time>2025-08-16T06:05:34.000Z</time>
</trkpt>
<trkpt lat="45.9638670" lon="10.2002750">
	<ele>1228.40</ele>
	<time>2025-08-16T06:05:35.000Z</time>
</trkpt>
<trkpt lat="45.9638730" lon="10.2002690">
	<ele>1228.40</ele>
	<time>2025-08-16T06:05:36.000Z</time>
</trkpt>
<trkpt lat="45.9638770" lon="10.2002630">
	<ele>1228.60</ele>
	<time>2025-08-16T06:05:37.000Z</time>
</trkpt>
<trkpt lat="45.9638820" lon="10.2002590">
	<ele>1229.00</ele>
	<time>2025-08-16T06:05:38.000Z</time>
</trkpt>
<trkpt lat="45.9638920" lon="10.2002610">
	<ele>1229.20</ele>
	<time>2025-08-16T06:05:39.000Z</time>
</trkpt>
<trkpt lat="45.9639000" lon="10.2002630">
	<ele>1229.40</ele>
	<time>2025-08-16T06:05:40.000Z</time>
</trkpt>
<trkpt lat="45.9639080" lon="10.2002620">
	<ele>1229.80</ele>
	<time>2025-08-16T06:05:41.000Z</time>
</trkpt>
<trkpt lat="45.9639110" lon="10.2002650">
	<ele>1229.80</ele>
	<time>2025-08-16T06:05:42.000Z</time>
</trkpt>
<trkpt lat="45.9639130" lon="10.2002650">
	<ele>1230.00</ele>
	<time>2025-08-16T06:05:43.000Z</time>
</trkpt>
<trkpt lat="45.9639160" lon="10.2002680">
	<ele>1230.20</ele>
	<time>2025-08-16T06:05:44.000Z</time>
</trkpt>
<trkpt lat="45.9639180" lon="10.2002740">
	<ele>1230.40</ele>
	<time>2025-08-16T06:05:45.000Z</time>
</trkpt>
<trkpt lat="45.9639220" lon="10.2002840">
	<ele>1230.60</ele>
	<time>2025-08-16T06:05:46.000Z</time>
</trkpt>
<trkpt lat="45.9639270" lon="10.2002920">
	<ele>1230.60</ele>
	<time>2025-08-16T06:05:47.000Z</time>
</trkpt>
<trkpt lat="45.9639290" lon="10.2003000">
	<ele>1230.80</ele>
	<time>2025-08-16T06:05:48.000Z</time>
</trkpt>
<trkpt lat="45.9639310" lon="10.2003080">
	<ele>1231.00</ele>
	<time>2025-08-16T06:05:49.000Z</time>
</trkpt>
<trkpt lat="45.9639320" lon="10.2003230">
	<ele>1231.20</ele>
	<time>2025-08-16T06:05:50.000Z</time>
</trkpt>
<trkpt lat="45.9639420" lon="10.2003400">
	<ele>1231.40</ele>
	<time>2025-08-16T06:05:51.000Z</time>
</trkpt>
<trkpt lat="45.9639530" lon="10.2003520">
	<ele>1231.40</ele>
	<time>2025-08-16T06:05:52.000Z</time>
</trkpt>
<trkpt lat="45.9639670" lon="10.2003650">
	<ele>1231.60</ele>
	<time>2025-08-16T06:05:53.000Z</time>
</trkpt>
<trkpt lat="45.9639730" lon="10.2003740">
	<ele>1231.80</ele>
	<time>2025-08-16T06:05:54.000Z</time>
</trkpt>
<trkpt lat="45.9639790" lon="10.2003830">
	<ele>1232.00</ele>
	<time>2025-08-16T06:05:55.000Z</time>
</trkpt>
<trkpt lat="45.9639810" lon="10.2003920">
	<ele>1232.00</ele>
	<time>2025-08-16T06:05:56.000Z</time>
</trkpt>
<trkpt lat="45.9639800" lon="10.2004010">
	<ele>1232.20</ele>
	<time>2025-08-16T06:05:57.000Z</time>
</trkpt>
<trkpt lat="45.9639790" lon="10.2004180">
	<ele>1232.40</ele>
	<time>2025-08-16T06:05:58.000Z</time>
</trkpt>
<trkpt lat="45.9639780" lon="10.2004280">
	<ele>1232.60</ele>
	<time>2025-08-16T06:05:59.000Z</time>
</trkpt>
<trkpt lat="45.9639790" lon="10.2004410">
	<ele>1232.80</ele>
	<time>2025-08-16T06:06:00.000Z</time>
</trkpt>
<trkpt lat="45.9639780" lon="10.2004430">
	<ele>1233.00</ele>
	<time>2025-08-16T06:06:01.000Z</time>
</trkpt>
<trkpt lat="45.9639830" lon="10.2004540">
	<ele>1233.20</ele>
	<time>2025-08-16T06:06:02.000Z</time>
</trkpt>
<trkpt lat="45.9639870" lon="10.2004640">
	<ele>1233.40</ele>
	<time>2025-08-16T06:06:03.000Z</time>
</trkpt>
<trkpt lat="45.9639910" lon="10.2004730">
	<ele>1233.60</ele>
	<time>2025-08-16T06:06:04.000Z</time>
</trkpt>
<trkpt lat="45.9639980" lon="10.2004870">
	<ele>1233.80</ele>
	<time>2025-08-16T06:06:05.000Z</time>
</trkpt>
<trkpt lat="45.9640050" lon="10.2004950">
	<ele>1233.80</ele>
	<time>2025-08-16T06:06:06.000Z</time>
</trkpt>
<trkpt lat="45.9640090" lon="10.2004960">
	<ele>1234.00</ele>
	<time>2025-08-16T06:06:07.000Z</time>
</trkpt>
<trkpt lat="45.9640260" lon="10.2005080">
	<ele>1234.00</ele>
	<time>2025-08-16T06:06:08.000Z</time>
</trkpt>
<trkpt lat="45.9640490" lon="10.2005260">
	<ele>1234.20</ele>
	<time>2025-08-16T06:06:09.000Z</time>
</trkpt>
<trkpt lat="45.9640660" lon="10.2005340">
	<ele>1234.40</ele>
	<time>2025-08-16T06:06:10.000Z</time>
</trkpt>
<trkpt lat="45.9640740" lon="10.2005550">
	<ele>1234.60</ele>
	<time>2025-08-16T06:06:11.000Z</time>
</trkpt>
<trkpt lat="45.9640770" lon="10.2005690">
	<ele>1234.60</ele>
	<time>2025-08-16T06:06:12.000Z</time>
</trkpt>
<trkpt lat="45.9640790" lon="10.2005700">
	<ele>1234.80</ele>
	<time>2025-08-16T06:06:13.000Z</time>
</trkpt>
<trkpt lat="45.9640810" lon="10.2005710">
	<ele>1235.00</ele>
	<time>2025-08-16T06:06:14.000Z</time>
</trkpt>
<trkpt lat="45.9640800" lon="10.2005810">
	<ele>1235.20</ele>
	<time>2025-08-16T06:06:15.000Z</time>
</trkpt>
<trkpt lat="45.9640930" lon="10.2005900">
	<ele>1235.40</ele>
	<time>2025-08-16T06:06:16.000Z</time>
</trkpt>
<trkpt lat="45.9641050" lon="10.2005970">
	<ele>1235.60</ele>
	<time>2025-08-16T06:06:17.000Z</time>
</trkpt>
<trkpt lat="45.9641220" lon="10.2006180">
	<ele>1235.60</ele>
	<time>2025-08-16T06:06:18.000Z</time>
</trkpt>
<trkpt lat="45.9641240" lon="10.2006210">
	<ele>1235.80</ele>
	<time>2025-08-16T06:06:19.000Z</time>
</trkpt>
<trkpt lat="45.9641270" lon="10.2006230">
	<ele>1236.00</ele>
	<time>2025-08-16T06:06:20.000Z</time>
</trkpt>
<trkpt lat="45.9641350" lon="10.2006370">
	<ele>1236.40</ele>
	<time>2025-08-16T06:06:21.000Z</time>
</trkpt>
<trkpt lat="45.9641470" lon="10.2006390">
	<ele>1236.60</ele>
	<time>2025-08-16T06:06:22.000Z</time>
</trkpt>
<trkpt lat="45.9641500" lon="10.2006410">
	<ele>1236.80</ele>
	<time>2025-08-16T06:06:23.000Z</time>
</trkpt>
<trkpt lat="45.9641520" lon="10.2006450">
	<ele>1237.00</ele>
	<time>2025-08-16T06:06:24.000Z</time>
</trkpt>
<trkpt lat="45.9641800" lon="10.2006540">
	<ele>1237.20</ele>
	<time>2025-08-16T06:06:25.000Z</time>
</trkpt>
<trkpt lat="45.9641920" lon="10.2006580">
	<ele>1237.40</ele>
	<time>2025-08-16T06:06:26.000Z</time>
</trkpt>
<trkpt lat="45.9641740" lon="10.2006660">
	<ele>1237.40</ele>
	<time>2025-08-16T06:06:27.000Z</time>
</trkpt>
<trkpt lat="45.9641660" lon="10.2006710">
	<ele>1237.60</ele>
	<time>2025-08-16T06:06:28.000Z</time>
</trkpt>
<trkpt lat="45.9641680" lon="10.2006720">
	<ele>1237.60</ele>
	<time>2025-08-16T06:06:29.000Z</time>
</trkpt>
<trkpt lat="45.9641740" lon="10.2006760">
	<ele>1237.80</ele>
	<time>2025-08-16T06:06:30.000Z</time>
</trkpt>
<trkpt lat="45.9641770" lon="10.2006750">
	<ele>1238.00</ele>
	<time>2025-08-16T06:06:31.000Z</time>
</trkpt>
<trkpt lat="45.9641740" lon="10.2006960">
	<ele>1238.00</ele>
	<time>2025-08-16T06:06:32.000Z</time>
</trkpt>
<trkpt lat="45.9641760" lon="10.2007000">
	<ele>1238.20</ele>
	<time>2025-08-16T06:06:33.000Z</time>
</trkpt>
<trkpt lat="45.9641740" lon="10.2007020">
	<ele>1238.20</ele>
	<time>2025-08-16T06:06:34.000Z</time>
</trkpt>
<trkpt lat="45.9641710" lon="10.2007180">
	<ele>1238.60</ele>
	<time>2025-08-16T06:06:35.000Z</time>
</trkpt>
<trkpt lat="45.9641670" lon="10.2007310">
	<ele>1238.80</ele>
	<time>2025-08-16T06:06:36.000Z</time>
</trkpt>
<trkpt lat="45.9641710" lon="10.2007360">
	<ele>1239.00</ele>
	<time>2025-08-16T06:06:37.000Z</time>
</trkpt>
<trkpt lat="45.9641750" lon="10.2007410">
	<ele>1239.00</ele>
	<time>2025-08-16T06:06:38.000Z</time>
</trkpt>
<trkpt lat="45.9641750" lon="10.2007420">
	<ele>1239.20</ele>
	<time>2025-08-16T06:06:39.000Z</time>
</trkpt>
<trkpt lat="45.9641790" lon="10.2007440">
	<ele>1239.40</ele>
	<time>2025-08-16T06:06:40.000Z</time>
</trkpt>
<trkpt lat="45.9641800" lon="10.2007390">
	<ele>1239.80</ele>
	<time>2025-08-16T06:06:41.000Z</time>
</trkpt>
<trkpt lat="45.9641840" lon="10.2007380">
	<ele>1240.20</ele>
	<time>2025-08-16T06:06:42.000Z</time>
</trkpt>
<trkpt lat="45.9641860" lon="10.2007380">
	<ele>1240.40</ele>
	<time>2025-08-16T06:06:43.000Z</time>
</trkpt>
<trkpt lat="45.9641910" lon="10.2007260">
	<ele>1240.40</ele>
	<time>2025-08-16T06:06:44.000Z</time>
</trkpt>
<trkpt lat="45.9641930" lon="10.2007190">
	<ele>1240.80</ele>
	<time>2025-08-16T06:06:45.000Z</time>
</trkpt>
<trkpt lat="45.9641920" lon="10.2007140">
	<ele>1241.00</ele>
	<time>2025-08-16T06:06:46.000Z</time>
</trkpt>
<trkpt lat="45.9641910" lon="10.2007150">
	<ele>1241.20</ele>
	<time>2025-08-16T06:06:47.000Z</time>
</trkpt>
<trkpt lat="45.9641850" lon="10.2007250">
	<ele>1241.20</ele>
	<time>2025-08-16T06:06:48.000Z</time>
</trkpt>
<trkpt lat="45.9641850" lon="10.2007350">
	<ele>1241.40</ele>
	<time>2025-08-16T06:06:49.000Z</time>
</trkpt>
<trkpt lat="45.9641860" lon="10.2007400">
	<ele>1241.40</ele>
	<time>2025-08-16T06:06:50.000Z</time>
</trkpt>
<trkpt lat="45.9641850" lon="10.2007430">
	<ele>1241.60</ele>
	<time>2025-08-16T06:06:51.000Z</time>
</trkpt>
<trkpt lat="45.9641840" lon="10.2007420">
	<ele>1241.60</ele>
	<time>2025-08-16T06:06:52.000Z</time>
</trkpt>
<trkpt lat="45.9641890" lon="10.2007540">
	<ele>1241.80</ele>
	<time>2025-08-16T06:06:53.000Z</time>
</trkpt>
<trkpt lat="45.9641890" lon="10.2007640">
	<ele>1242.20</ele>
	<time>2025-08-16T06:06:54.000Z</time>
</trkpt>
<trkpt lat="45.9641900" lon="10.2007730">
	<ele>1242.40</ele>
	<time>2025-08-16T06:06:55.000Z</time>
</trkpt>
<trkpt lat="45.9641930" lon="10.2007750">
	<ele>1242.60</ele>
	<time>2025-08-16T06:06:56.000Z</time>
</trkpt>
<trkpt lat="45.9641930" lon="10.2007720">
	<ele>1242.60</ele>
	<time>2025-08-16T06:06:57.000Z</time>
</trkpt>
<trkpt lat="45.9641950" lon="10.2007750">
	<ele>1243.00</ele>
	<time>2025-08-16T06:06:58.000Z</time>
</trkpt>
<trkpt lat="45.9641840" lon="10.2007620">
	<ele>1243.00</ele>
	<time>2025-08-16T06:06:59.000Z</time>
</trkpt>
<trkpt lat="45.9641810" lon="10.2007590">
	<ele>1243.20</ele>
	<time>2025-08-16T06:07:00.000Z</time>
</trkpt>
<trkpt lat="45.9641810" lon="10.2007610">
	<ele>1243.40</ele>
	<time>2025-08-16T06:07:01.000Z</time>
</trkpt>
<trkpt lat="45.9641880" lon="10.2007660">
	<ele>1243.60</ele>
	<time>2025-08-16T06:07:02.000Z</time>
</trkpt>
<trkpt lat="45.9641890" lon="10.2007660">
	<ele>1243.60</ele>
	<time>2025-08-16T06:07:03.000Z</time>
</trkpt>
<trkpt lat="45.9641890" lon="10.2007660">
	<ele>1243.80</ele>
	<time>2025-08-16T06:07:04.000Z</time>
</trkpt>
<trkpt lat="45.9641890" lon="10.2007660">
	<ele>1244.00</ele>
	<time>2025-08-16T06:07:05.000Z</time>
</trkpt>
<trkpt lat="45.9641890" lon="10.2007660">
	<ele>1244.60</ele>
	<time>2025-08-16T06:07:06.000Z</time>
</trkpt>
<trkpt lat="45.9641890" lon="10.2007660">
	<ele>1244.80</ele>
	<time>2025-08-16T06:07:07.000Z</time>
</trkpt>
<trkpt lat="45.9641890" lon="10.2007660">
	<ele>1245.00</ele>
	<time>2025-08-16T06:07:08.000Z</time>
</trkpt>
<trkpt lat="45.9641930" lon="10.2007700">
	<ele>1245.20</ele>
	<time>2025-08-16T06:07:09.000Z</time>
</trkpt>
<trkpt lat="45.9642040" lon="10.2007750">
	<ele>1245.20</ele>
	<time>2025-08-16T06:07:10.000Z</time>
</trkpt>
<trkpt lat="45.9642120" lon="10.2007820">
	<ele>1245.40</ele>
	<time>2025-08-16T06:07:11.000Z</time>
</trkpt>
<trkpt lat="45.9642200" lon="10.2007880">
	<ele>1245.80</ele>
	<time>2025-08-16T06:07:12.000Z</time>
</trkpt>
<trkpt lat="45.9642280" lon="10.2007950">
	<ele>1245.80</ele>
	<time>2025-08-16T06:07:13.000Z</time>
</trkpt>
<trkpt lat="45.9642370" lon="10.2008040">
	<ele>1246.00</ele>
	<time>2025-08-16T06:07:14.000Z</time>
</trkpt>
<trkpt lat="45.9642450" lon="10.2008170">
	<ele>1246.20</ele>
	<time>2025-08-16T06:07:15.000Z</time>
</trkpt>
<trkpt lat="45.9642580" lon="10.2008320">
	<ele>1246.20</ele>
	<time>2025-08-16T06:07:16.000Z</time>
</trkpt>
<trkpt lat="45.9642660" lon="10.2008350">
	<ele>1246.40</ele>
	<time>2025-08-16T06:07:17.000Z</time>
</trkpt>
<trkpt lat="45.9642760" lon="10.2008420">
	<ele>1246.60</ele>
	<time>2025-08-16T06:07:18.000Z</time>
</trkpt>
<trkpt lat="45.9642810" lon="10.2008430">
	<ele>1246.80</ele>
	<time>2025-08-16T06:07:19.000Z</time>
</trkpt>
<trkpt lat="45.9642820" lon="10.2008450">
	<ele>1247.00</ele>
	<time>2025-08-16T06:07:20.000Z</time>
</trkpt>
<trkpt lat="45.9642880" lon="10.2008470">
	<ele>1247.00</ele>
	<time>2025-08-16T06:07:21.000Z</time>
</trkpt>
<trkpt lat="45.9642950" lon="10.2008460">
	<ele>1247.20</ele>
	<time>2025-08-16T06:07:22.000Z</time>
</trkpt>
<trkpt lat="45.9643030" lon="10.2008450">
	<ele>1247.40</ele>
	<time>2025-08-16T06:07:23.000Z</time>
</trkpt>
<trkpt lat="45.9643120" lon="10.2008430">
	<ele>1247.40</ele>
	<time>2025-08-16T06:07:24.000Z</time>
</trkpt>
<trkpt lat="45.9643260" lon="10.2008420">
	<ele>1247.60</ele>
	<time>2025-08-16T06:07:25.000Z</time>
</trkpt>
<trkpt lat="45.9643280" lon="10.2008460">
	<ele>1247.80</ele>
	<time>2025-08-16T06:07:26.000Z</time>
</trkpt>
<trkpt lat="45.9643330" lon="10.2008420">
	<ele>1248.00</ele>
	<time>2025-08-16T06:07:27.000Z</time>
</trkpt>
<trkpt lat="45.9643350" lon="10.2008420">
	<ele>1248.20</ele>
	<time>2025-08-16T06:07:28.000Z</time>
</trkpt>
<trkpt lat="45.9643280" lon="10.2008500">
	<ele>1248.40</ele>
	<time>2025-08-16T06:07:29.000Z</time>
</trkpt>
<trkpt lat="45.9643270" lon="10.2008650">
	<ele>1248.60</ele>
	<time>2025-08-16T06:07:30.000Z</time>
</trkpt>
<trkpt lat="45.9643370" lon="10.2008790">
	<ele>1248.80</ele>
	<time>2025-08-16T06:07:31.000Z</time>
</trkpt>
<trkpt lat="45.9643490" lon="10.2008870">
	<ele>1248.80</ele>
	<time>2025-08-16T06:07:32.000Z</time>
</trkpt>
<trkpt lat="45.9643590" lon="10.2008980">
	<ele>1249.00</ele>
	<time>2025-08-16T06:07:33.000Z</time>
</trkpt>
<trkpt lat="45.9643600" lon="10.2009040">
	<ele>1249.20</ele>
	<time>2025-08-16T06:07:34.000Z</time>
</trkpt>
<trkpt lat="45.9643680" lon="10.2009270">
	<ele>1249.40</ele>
	<time>2025-08-16T06:07:35.000Z</time>
</trkpt>
<trkpt lat="45.9643800" lon="10.2009590">
	<ele>1249.60</ele>
	<time>2025-08-16T06:07:36.000Z</time>
</trkpt>
<trkpt lat="45.9643860" lon="10.2009740">
	<ele>1249.60</ele>
	<time>2025-08-16T06:07:37.000Z</time>
</trkpt>
<trkpt lat="45.9643940" lon="10.2009830">
	<ele>1249.80</ele>
	<time>2025-08-16T06:07:38.000Z</time>
</trkpt>
<trkpt lat="45.9644030" lon="10.2009790">
	<ele>1250.00</ele>
	<time>2025-08-16T06:07:39.000Z</time>
</trkpt>
<trkpt lat="45.9644100" lon="10.2009770">
	<ele>1250.20</ele>
	<time>2025-08-16T06:07:40.000Z</time>
</trkpt>
<trkpt lat="45.9644270" lon="10.2009880">
	<ele>1250.20</ele>
	<time>2025-08-16T06:07:41.000Z</time>
</trkpt>
<trkpt lat="45.9644420" lon="10.2010040">
	<ele>1250.40</ele>
	<time>2025-08-16T06:07:42.000Z</time>
</trkpt>
<trkpt lat="45.9644350" lon="10.2010250">
	<ele>1250.60</ele>
	<time>2025-08-16T06:07:43.000Z</time>
</trkpt>
<trkpt lat="45.9644440" lon="10.2010490">
	<ele>1250.80</ele>
	<time>2025-08-16T06:07:44.000Z</time>
</trkpt>
<trkpt lat="45.9644630" lon="10.2010810">
	<ele>1250.80</ele>
	<time>2025-08-16T06:07:45.000Z</time>
</trkpt>
<trkpt lat="45.9644750" lon="10.2011050">
	<ele>1251.00</ele>
	<time>2025-08-16T06:07:46.000Z</time>
</trkpt>
<trkpt lat="45.9644800" lon="10.2011100">
	<ele>1251.00</ele>
	<time>2025-08-16T06:07:47.000Z</time>
</trkpt>
<trkpt lat="45.9644920" lon="10.2011230">
	<ele>1251.20</ele>
	<time>2025-08-16T06:07:48.000Z</time>
</trkpt>
<trkpt lat="45.9644910" lon="10.2011390">
	<ele>1251.40</ele>
	<time>2025-08-16T06:07:49.000Z</time>
</trkpt>
<trkpt lat="45.9645040" lon="10.2011520">
	<ele>1251.40</ele>
	<time>2025-08-16T06:07:50.000Z</time>
</trkpt>
<trkpt lat="45.9645080" lon="10.2011570">
	<ele>1251.60</ele>
	<time>2025-08-16T06:07:51.000Z</time>
</trkpt>
<trkpt lat="45.9645090" lon="10.2011640">
	<ele>1251.80</ele>
	<time>2025-08-16T06:07:52.000Z</time>
</trkpt>
<trkpt lat="45.9645160" lon="10.2011730">
	<ele>1251.80</ele>
	<time>2025-08-16T06:07:53.000Z</time>
</trkpt>
<trkpt lat="45.9645150" lon="10.2011910">
	<ele>1252.00</ele>
	<time>2025-08-16T06:07:54.000Z</time>
</trkpt>
<trkpt lat="45.9645180" lon="10.2011970">
	<ele>1252.20</ele>
	<time>2025-08-16T06:07:55.000Z</time>
</trkpt>
<trkpt lat="45.9645050" lon="10.2012120">
	<ele>1252.40</ele>
	<time>2025-08-16T06:07:56.000Z</time>
</trkpt>
<trkpt lat="45.9645120" lon="10.2012100">
	<ele>1252.60</ele>
	<time>2025-08-16T06:07:57.000Z</time>
</trkpt>
<trkpt lat="45.9645210" lon="10.2012050">
	<ele>1252.60</ele>
	<time>2025-08-16T06:07:58.000Z</time>
</trkpt>
<trkpt lat="45.9645250" lon="10.2012090">
	<ele>1252.80</ele>
	<time>2025-08-16T06:07:59.000Z</time>
</trkpt>
<trkpt lat="45.9645290" lon="10.2012090">
	<ele>1252.80</ele>
	<time>2025-08-16T06:08:00.000Z</time>
</trkpt>
<trkpt lat="45.9645300" lon="10.2012130">
	<ele>1253.00</ele>
	<time>2025-08-16T06:08:01.000Z</time>
</trkpt>
<trkpt lat="45.9645260" lon="10.2012210">
	<ele>1253.20</ele>
	<time>2025-08-16T06:08:02.000Z</time>
</trkpt>
<trkpt lat="45.9645280" lon="10.2012240">
	<ele>1253.40</ele>
	<time>2025-08-16T06:08:03.000Z</time>
</trkpt>
<trkpt lat="45.9645170" lon="10.2012280">
	<ele>1253.40</ele>
	<time>2025-08-16T06:08:04.000Z</time>
</trkpt>
<trkpt lat="45.9645070" lon="10.2012260">
	<ele>1253.60</ele>
	<time>2025-08-16T06:08:05.000Z</time>
</trkpt>
<trkpt lat="45.9644930" lon="10.2012220">
	<ele>1253.80</ele>
	<time>2025-08-16T06:08:06.000Z</time>
</trkpt>
<trkpt lat="45.9644980" lon="10.2012260">
	<ele>1254.20</ele>
	<time>2025-08-16T06:08:07.000Z</time>
</trkpt>
<trkpt lat="45.9644990" lon="10.2012310">
	<ele>1254.40</ele>
	<time>2025-08-16T06:08:08.000Z</time>
</trkpt>
<trkpt lat="45.9645060" lon="10.2012340">
	<ele>1254.60</ele>
	<time>2025-08-16T06:08:09.000Z</time>
</trkpt>
<trkpt lat="45.9645100" lon="10.2012390">
	<ele>1254.80</ele>
	<time>2025-08-16T06:08:10.000Z</time>
</trkpt>
<trkpt lat="45.9645190" lon="10.2012430">
	<ele>1255.00</ele>
	<time>2025-08-16T06:08:11.000Z</time>
</trkpt>
<trkpt lat="45.9645270" lon="10.2012500">
	<ele>1255.20</ele>
	<time>2025-08-16T06:08:12.000Z</time>
</trkpt>
<trkpt lat="45.9645340" lon="10.2012520">
	<ele>1255.20</ele>
	<time>2025-08-16T06:08:13.000Z</time>
</trkpt>
<trkpt lat="45.9645410" lon="10.2012570">
	<ele>1255.40</ele>
	<time>2025-08-16T06:08:14.000Z</time>
</trkpt>
<trkpt lat="45.9645470" lon="10.2012580">
	<ele>1255.60</ele>
	<time>2025-08-16T06:08:15.000Z</time>
</trkpt>
<trkpt lat="45.9645520" lon="10.2012600">
	<ele>1255.60</ele>
	<time>2025-08-16T06:08:16.000Z</time>
</trkpt>
<trkpt lat="45.9645580" lon="10.2012590">
	<ele>1255.80</ele>
	<time>2025-08-16T06:08:17.000Z</time>
</trkpt>
<trkpt lat="45.9645620" lon="10.2012620">
	<ele>1255.80</ele>
	<time>2025-08-16T06:08:18.000Z</time>
</trkpt>
<trkpt lat="45.9645690" lon="10.2012650">
	<ele>1256.20</ele>
	<time>2025-08-16T06:08:19.000Z</time>
</trkpt>
<trkpt lat="45.9645810" lon="10.2012720">
	<ele>1256.40</ele>
	<time>2025-08-16T06:08:20.000Z</time>
</trkpt>
<trkpt lat="45.9645900" lon="10.2012730">
	<ele>1256.60</ele>
	<time>2025-08-16T06:08:21.000Z</time>
</trkpt>
<trkpt lat="45.9645970" lon="10.2012630">
	<ele>1256.60</ele>
	<time>2025-08-16T06:08:22.000Z</time>
</trkpt>
<trkpt lat="45.9646040" lon="10.2012550">
	<ele>1256.80</ele>
	<time>2025-08-16T06:08:23.000Z</time>
</trkpt>
<trkpt lat="45.9646140" lon="10.2012470">
	<ele>1257.00</ele>
	<time>2025-08-16T06:08:24.000Z</time>
</trkpt>
<trkpt lat="45.9646180" lon="10.2012490">
	<ele>1257.20</ele>
	<time>2025-08-16T06:08:25.000Z</time>
</trkpt>
<trkpt lat="45.9646220" lon="10.2012510">
	<ele>1257.40</ele>
	<time>2025-08-16T06:08:26.000Z</time>
</trkpt>
<trkpt lat="45.9646250" lon="10.2012520">
	<ele>1257.60</ele>
	<time>2025-08-16T06:08:27.000Z</time>
</trkpt>
<trkpt lat="45.9646290" lon="10.2012530">
	<ele>1257.80</ele>
	<time>2025-08-16T06:08:28.000Z</time>
</trkpt>
<trkpt lat="45.9646320" lon="10.2012530">
	<ele>1258.00</ele>
	<time>2025-08-16T06:08:29.000Z</time>
</trkpt>
<trkpt lat="45.9646350" lon="10.2012530">
	<ele>1258.20</ele>
	<time>2025-08-16T06:08:30.000Z</time>
</trkpt>
<trkpt lat="45.9646350" lon="10.2012470">
	<ele>1258.40</ele>
	<time>2025-08-16T06:08:31.000Z</time>
</trkpt>
<trkpt lat="45.9646380" lon="10.2012460">
	<ele>1258.60</ele>
	<time>2025-08-16T06:08:32.000Z</time>
</trkpt>
<trkpt lat="45.9646420" lon="10.2012350">
	<ele>1258.80</ele>
	<time>2025-08-16T06:08:33.000Z</time>
</trkpt>
<trkpt lat="45.9646460" lon="10.2012310">
	<ele>1259.00</ele>
	<time>2025-08-16T06:08:34.000Z</time>
</trkpt>
<trkpt lat="45.9646490" lon="10.2012300">
	<ele>1259.20</ele>
	<time>2025-08-16T06:08:35.000Z</time>
</trkpt>
<trkpt lat="45.9646620" lon="10.2012280">
	<ele>1259.40</ele>
	<time>2025-08-16T06:08:36.000Z</time>
</trkpt>
<trkpt lat="45.9646650" lon="10.2012270">
	<ele>1259.60</ele>
	<time>2025-08-16T06:08:37.000Z</time>
</trkpt>
<trkpt lat="45.9646680" lon="10.2012280">
	<ele>1259.60</ele>
	<time>2025-08-16T06:08:38.000Z</time>
</trkpt>
<trkpt lat="45.9646700" lon="10.2012320">
	<ele>1259.80</ele>
	<time>2025-08-16T06:08:39.000Z</time>
</trkpt>
<trkpt lat="45.9646710" lon="10.2012370">
	<ele>1259.80</ele>
	<time>2025-08-16T06:08:40.000Z</time>
</trkpt>
<trkpt lat="45.9646760" lon="10.2012410">
	<ele>1260.00</ele>
	<time>2025-08-16T06:08:41.000Z</time>
</trkpt>
<trkpt lat="45.9646850" lon="10.2012360">
	<ele>1260.20</ele>
	<time>2025-08-16T06:08:42.000Z</time>
</trkpt>
<trkpt lat="45.9646930" lon="10.2012340">
	<ele>1260.40</ele>
	<time>2025-08-16T06:08:43.000Z</time>
</trkpt>
<trkpt lat="45.9646990" lon="10.2012290">
	<ele>1260.60</ele>
	<time>2025-08-16T06:08:44.000Z</time>
</trkpt>
<trkpt lat="45.9647050" lon="10.2012310">
	<ele>1260.60</ele>
	<time>2025-08-16T06:08:45.000Z</time>
</trkpt>
<trkpt lat="45.9647130" lon="10.2012330">
	<ele>1260.80</ele>
	<time>2025-08-16T06:08:46.000Z</time>
</trkpt>
<trkpt lat="45.9647210" lon="10.2012360">
	<ele>1261.00</ele>
	<time>2025-08-16T06:08:47.000Z</time>
</trkpt>
<trkpt lat="45.9647260" lon="10.2012370">
	<ele>1261.00</ele>
	<time>2025-08-16T06:08:48.000Z</time>
</trkpt>
<trkpt lat="45.9647340" lon="10.2012380">
	<ele>1261.40</ele>
	<time>2025-08-16T06:08:49.000Z</time>
</trkpt>
<trkpt lat="45.9647370" lon="10.2012350">
	<ele>1261.60</ele>
	<time>2025-08-16T06:08:50.000Z</time>
</trkpt>
<trkpt lat="45.9647380" lon="10.2012400">
	<ele>1261.60</ele>
	<time>2025-08-16T06:08:51.000Z</time>
</trkpt>
<trkpt lat="45.9647410" lon="10.2012440">
	<ele>1261.60</ele>
	<time>2025-08-16T06:08:52.000Z</time>
</trkpt>
<trkpt lat="45.9647480" lon="10.2012450">
	<ele>1261.80</ele>
	<time>2025-08-16T06:08:53.000Z</time>
</trkpt>
<trkpt lat="45.9647510" lon="10.2012470">
	<ele>1261.80</ele>
	<time>2025-08-16T06:08:54.000Z</time>
</trkpt>
<trkpt lat="45.9647540" lon="10.2012590">
	<ele>1262.00</ele>
	<time>2025-08-16T06:08:55.000Z</time>
</trkpt>
<trkpt lat="45.9647540" lon="10.2012620">
	<ele>1262.20</ele>
	<time>2025-08-16T06:08:56.000Z</time>
</trkpt>
<trkpt lat="45.9647560" lon="10.2012620">
	<ele>1262.60</ele>
	<time>2025-08-16T06:08:57.000Z</time>
</trkpt>
<trkpt lat="45.9647600" lon="10.2012640">
	<ele>1262.80</ele>
	<time>2025-08-16T06:08:58.000Z</time>
</trkpt>
<trkpt lat="45.9647650" lon="10.2012770">
	<ele>1263.00</ele>
	<time>2025-08-16T06:08:59.000Z</time>
</trkpt>
<trkpt lat="45.9647690" lon="10.2012770">
	<ele>1263.20</ele>
	<time>2025-08-16T06:09:00.000Z</time>
</trkpt>
<trkpt lat="45.9647700" lon="10.2012770">
	<ele>1263.40</ele>
	<time>2025-08-16T06:09:01.000Z</time>
</trkpt>
<trkpt lat="45.9647750" lon="10.2012760">
	<ele>1263.60</ele>
	<time>2025-08-16T06:09:02.000Z</time>
</trkpt>
<trkpt lat="45.9647800" lon="10.2012770">
	<ele>1263.60</ele>
	<time>2025-08-16T06:09:03.000Z</time>
</trkpt>
<trkpt lat="45.9647820" lon="10.2012780">
	<ele>1263.80</ele>
	<time>2025-08-16T06:09:04.000Z</time>
</trkpt>
<trkpt lat="45.9647840" lon="10.2012800">
	<ele>1264.00</ele>
	<time>2025-08-16T06:09:05.000Z</time>
</trkpt>
<trkpt lat="45.9647830" lon="10.2012850">
	<ele>1264.20</ele>
	<time>2025-08-16T06:09:06.000Z</time>
</trkpt>
<trkpt lat="45.9647820" lon="10.2012890">
	<ele>1264.40</ele>
	<time>2025-08-16T06:09:07.000Z</time>
</trkpt>
<trkpt lat="45.9647810" lon="10.2012920">
	<ele>1264.60</ele>
	<time>2025-08-16T06:09:08.000Z</time>
</trkpt>
<trkpt lat="45.9647830" lon="10.2012920">
	<ele>1264.80</ele>
	<time>2025-08-16T06:09:09.000Z</time>
</trkpt>
<trkpt lat="45.9647890" lon="10.2012960">
	<ele>1264.80</ele>
	<time>2025-08-16T06:09:10.000Z</time>
</trkpt>
<trkpt lat="45.9647930" lon="10.2012990">
	<ele>1265.00</ele>
	<time>2025-08-16T06:09:11.000Z</time>
</trkpt>
<trkpt lat="45.9647990" lon="10.2013040">
	<ele>1265.20</ele>
	<time>2025-08-16T06:09:12.000Z</time>
</trkpt>
<trkpt lat="45.9648080" lon="10.2013100">
	<ele>1265.40</ele>
	<time>2025-08-16T06:09:13.000Z</time>
</trkpt>
<trkpt lat="45.9648170" lon="10.2013080">
	<ele>1265.60</ele>
	<time>2025-08-16T06:09:14.000Z</time>
</trkpt>
<trkpt lat="45.9648310" lon="10.2013100">
	<ele>1265.80</ele>
	<time>2025-08-16T06:09:15.000Z</time>
</trkpt>
<trkpt lat="45.9648370" lon="10.2013150">
	<ele>1266.00</ele>
	<time>2025-08-16T06:09:16.000Z</time>
</trkpt>
<trkpt lat="45.9648390" lon="10.2013160">
	<ele>1266.20</ele>
	<time>2025-08-16T06:09:17.000Z</time>
</trkpt>
<trkpt lat="45.9648380" lon="10.2013180">
	<ele>1266.20</ele>
	<time>2025-08-16T06:09:18.000Z</time>
</trkpt>
<trkpt lat="45.9648390" lon="10.2013190">
	<ele>1266.40</ele>
	<time>2025-08-16T06:09:19.000Z</time>
</trkpt>
<trkpt lat="45.9648420" lon="10.2013170">
	<ele>1266.60</ele>
	<time>2025-08-16T06:09:20.000Z</time>
</trkpt>
<trkpt lat="45.9648470" lon="10.2013120">
	<ele>1266.80</ele>
	<time>2025-08-16T06:09:21.000Z</time>
</trkpt>
<trkpt lat="45.9648500" lon="10.2013080">
	<ele>1266.80</ele>
	<time>2025-08-16T06:09:22.000Z</time>
</trkpt>
<trkpt lat="45.9648520" lon="10.2013080">
	<ele>1267.00</ele>
	<time>2025-08-16T06:09:23.000Z</time>
</trkpt>
<trkpt lat="45.9648510" lon="10.2013100">
	<ele>1267.20</ele>
	<time>2025-08-16T06:09:24.000Z</time>
</trkpt>
<trkpt lat="45.9648500" lon="10.2013100">
	<ele>1267.40</ele>
	<time>2025-08-16T06:09:25.000Z</time>
</trkpt>
<trkpt lat="45.9648510" lon="10.2013100">
	<ele>1267.60</ele>
	<time>2025-08-16T06:09:26.000Z</time>
</trkpt>
<trkpt lat="45.9648540" lon="10.2013110">
	<ele>1267.60</ele>
	<time>2025-08-16T06:09:27.000Z</time>
</trkpt>
<trkpt lat="45.9648620" lon="10.2013190">
	<ele>1268.00</ele>
	<time>2025-08-16T06:09:28.000Z</time>
</trkpt>
<trkpt lat="45.9648720" lon="10.2013310">
	<ele>1268.00</ele>
	<time>2025-08-16T06:09:29.000Z</time>
</trkpt>
<trkpt lat="45.9648760" lon="10.2013330">
	<ele>1268.20</ele>
	<time>2025-08-16T06:09:30.000Z</time>
</trkpt>
<trkpt lat="45.9648750" lon="10.2013370">
	<ele>1268.40</ele>
	<time>2025-08-16T06:09:31.000Z</time>
</trkpt>
<trkpt lat="45.9648780" lon="10.2013350">
	<ele>1268.60</ele>
	<time>2025-08-16T06:09:32.000Z</time>
</trkpt>
<trkpt lat="45.9648780" lon="10.2013320">
	<ele>1268.80</ele>
	<time>2025-08-16T06:09:33.000Z</time>
</trkpt>
<trkpt lat="45.9648860" lon="10.2013340">
	<ele>1268.80</ele>
	<time>2025-08-16T06:09:34.000Z</time>
</trkpt>
<trkpt lat="45.9648960" lon="10.2013340">
	<ele>1269.00</ele>
	<time>2025-08-16T06:09:35.000Z</time>
</trkpt>
<trkpt lat="45.9649050" lon="10.2013330">
	<ele>1269.00</ele>
	<time>2025-08-16T06:09:36.000Z</time>
</trkpt>
<trkpt lat="45.9649140" lon="10.2013290">
	<ele>1269.20</ele>
	<time>2025-08-16T06:09:37.000Z</time>
</trkpt>
<trkpt lat="45.9649170" lon="10.2013310">
	<ele>1269.40</ele>
	<time>2025-08-16T06:09:38.000Z</time>
</trkpt>
<trkpt lat="45.9649180" lon="10.2013290">
	<ele>1269.40</ele>
	<time>2025-08-16T06:09:39.000Z</time>
</trkpt>
<trkpt lat="45.9649270" lon="10.2013270">
	<ele>1270.00</ele>
	<time>2025-08-16T06:09:40.000Z</time>
</trkpt>
<trkpt lat="45.9649300" lon="10.2013250">
	<ele>1270.40</ele>
	<time>2025-08-16T06:09:41.000Z</time>
</trkpt>
<trkpt lat="45.9649400" lon="10.2013090">
	<ele>1270.60</ele>
	<time>2025-08-16T06:09:42.000Z</time>
</trkpt>
<trkpt lat="45.9649400" lon="10.2012910">
	<ele>1270.80</ele>
	<time>2025-08-16T06:09:43.000Z</time>
</trkpt>
<trkpt lat="45.9649380" lon="10.2012840">
	<ele>1270.80</ele>
	<time>2025-08-16T06:09:44.000Z</time>
</trkpt>
<trkpt lat="45.9649380" lon="10.2012790">
	<ele>1270.80</ele>
	<time>2025-08-16T06:09:45.000Z</time>
</trkpt>
<trkpt lat="45.9649370" lon="10.2012760">
	<ele>1271.00</ele>
	<time>2025-08-16T06:09:46.000Z</time>
</trkpt>
<trkpt lat="45.9649410" lon="10.2012760">
	<ele>1271.20</ele>
	<time>2025-08-16T06:09:47.000Z</time>
</trkpt>
<trkpt lat="45.9649420" lon="10.2012740">
	<ele>1271.40</ele>
	<time>2025-08-16T06:09:48.000Z</time>
</trkpt>
<trkpt lat="45.9649550" lon="10.2012670">
	<ele>1271.40</ele>
	<time>2025-08-16T06:09:49.000Z</time>
</trkpt>
<trkpt lat="45.9649690" lon="10.2012540">
	<ele>1271.60</ele>
	<time>2025-08-16T06:09:50.000Z</time>
</trkpt>
<trkpt lat="45.9649700" lon="10.2012530">
	<ele>1271.60</ele>
	<time>2025-08-16T06:09:51.000Z</time>
</trkpt>
<trkpt lat="45.9649940" lon="10.2012520">
	<ele>1271.80</ele>
	<time>2025-08-16T06:09:52.000Z</time>
</trkpt>
<trkpt lat="45.9650050" lon="10.2012430">
	<ele>1271.80</ele>
	<time>2025-08-16T06:09:53.000Z</time>
</trkpt>
<trkpt lat="45.9650080" lon="10.2012400">
	<ele>1272.00</ele>
	<time>2025-08-16T06:09:54.000Z</time>
</trkpt>
<trkpt lat="45.9650070" lon="10.2012370">
	<ele>1272.20</ele>
	<time>2025-08-16T06:09:55.000Z</time>
</trkpt>
<trkpt lat="45.9650060" lon="10.2012420">
	<ele>1272.40</ele>
	<time>2025-08-16T06:09:56.000Z</time>
</trkpt>
<trkpt lat="45.9650120" lon="10.2012440">
	<ele>1272.60</ele>
	<time>2025-08-16T06:09:57.000Z</time>
</trkpt>
<trkpt lat="45.9650190" lon="10.2012470">
	<ele>1272.80</ele>
	<time>2025-08-16T06:09:58.000Z</time>
</trkpt>
<trkpt lat="45.9650230" lon="10.2012500">
	<ele>1273.00</ele>
	<time>2025-08-16T06:09:59.000Z</time>
</trkpt>
<trkpt lat="45.9650260" lon="10.2012480">
	<ele>1273.20</ele>
	<time>2025-08-16T06:10:00.000Z</time>
</trkpt>
<trkpt lat="45.9650320" lon="10.2012430">
	<ele>1273.20</ele>
	<time>2025-08-16T06:10:01.000Z</time>
</trkpt>
<trkpt lat="45.9650350" lon="10.2012400">
	<ele>1273.40</ele>
	<time>2025-08-16T06:10:02.000Z</time>
</trkpt>
<trkpt lat="45.9650430" lon="10.2012360">
	<ele>1273.60</ele>
	<time>2025-08-16T06:10:03.000Z</time>
</trkpt>
<trkpt lat="45.9650480" lon="10.2012310">
	<ele>1273.80</ele>
	<time>2025-08-16T06:10:04.000Z</time>
</trkpt>
<trkpt lat="45.9650560" lon="10.2012340">
	<ele>1274.00</ele>
	<time>2025-08-16T06:10:05.000Z</time>
</trkpt>
<trkpt lat="45.9650650" lon="10.2012400">
	<ele>1274.20</ele>
	<time>2025-08-16T06:10:06.000Z</time>
</trkpt>
<trkpt lat="45.9650790" lon="10.2012480">
	<ele>1274.40</ele>
	<time>2025-08-16T06:10:07.000Z</time>
</trkpt>
<trkpt lat="45.9650810" lon="10.2012460">
	<ele>1274.80</ele>
	<time>2025-08-16T06:10:08.000Z</time>
</trkpt>
<trkpt lat="45.9650820" lon="10.2012460">
	<ele>1275.00</ele>
	<time>2025-08-16T06:10:09.000Z</time>
</trkpt>
<trkpt lat="45.9650950" lon="10.2012470">
	<ele>1275.20</ele>
	<time>2025-08-16T06:10:10.000Z</time>
</trkpt>
<trkpt lat="45.9650960" lon="10.2012470">
	<ele>1275.40</ele>
	<time>2025-08-16T06:10:11.000Z</time>
</trkpt>
<trkpt lat="45.9650970" lon="10.2012440">
	<ele>1275.40</ele>
	<time>2025-08-16T06:10:12.000Z</time>
</trkpt>
<trkpt lat="45.9650910" lon="10.2012290">
	<ele>1275.60</ele>
	<time>2025-08-16T06:10:13.000Z</time>
</trkpt>
<trkpt lat="45.9650940" lon="10.2012190">
	<ele>1275.60</ele>
	<time>2025-08-16T06:10:14.000Z</time>
</trkpt>
<trkpt lat="45.9651060" lon="10.2012180">
	<ele>1275.80</ele>
	<time>2025-08-16T06:10:15.000Z</time>
</trkpt>
<trkpt lat="45.9651140" lon="10.2012200">
	<ele>1276.20</ele>
	<time>2025-08-16T06:10:16.000Z</time>
</trkpt>
<trkpt lat="45.9651170" lon="10.2012160">
	<ele>1276.40</ele>
	<time>2025-08-16T06:10:17.000Z</time>
</trkpt>
<trkpt lat="45.9651190" lon="10.2012140">
	<ele>1276.60</ele>
	<time>2025-08-16T06:10:18.000Z</time>
</trkpt>
<trkpt lat="45.9651220" lon="10.2012120">
	<ele>1276.60</ele>
	<time>2025-08-16T06:10:19.000Z</time>
</trkpt>
<trkpt lat="45.9651290" lon="10.2011990">
	<ele>1276.80</ele>
	<time>2025-08-16T06:10:20.000Z</time>
</trkpt>
<trkpt lat="45.9651340" lon="10.2011920">
	<ele>1277.00</ele>
	<time>2025-08-16T06:10:21.000Z</time>
</trkpt>
<trkpt lat="45.9651430" lon="10.2011910">
	<ele>1277.20</ele>
	<time>2025-08-16T06:10:22.000Z</time>
</trkpt>
<trkpt lat="45.9651540" lon="10.2011870">
	<ele>1277.40</ele>
	<time>2025-08-16T06:10:23.000Z</time>
</trkpt>
<trkpt lat="45.9651560" lon="10.2011820">
	<ele>1277.60</ele>
	<time>2025-08-16T06:10:24.000Z</time>
</trkpt>
<trkpt lat="45.9651570" lon="10.2011730">
	<ele>1277.80</ele>
	<time>2025-08-16T06:10:25.000Z</time>
</trkpt>
<trkpt lat="45.9651580" lon="10.2011600">
	<ele>1278.00</ele>
	<time>2025-08-16T06:10:26.000Z</time>
</trkpt>
<trkpt lat="45.9651590" lon="10.2011580">
	<ele>1278.20</ele>
	<time>2025-08-16T06:10:27.000Z</time>
</trkpt>
<trkpt lat="45.9651610" lon="10.2011530">
	<ele>1278.40</ele>
	<time>2025-08-16T06:10:28.000Z</time>
</trkpt>
<trkpt lat="45.9651660" lon="10.2011500">
	<ele>1278.80</ele>
	<time>2025-08-16T06:10:29.000Z</time>
</trkpt>
<trkpt lat="45.9651670" lon="10.2011450">
	<ele>1278.80</ele>
	<time>2025-08-16T06:10:30.000Z</time>
</trkpt>
<trkpt lat="45.9651670" lon="10.2011380">
	<ele>1279.00</ele>
	<time>2025-08-16T06:10:31.000Z</time>
</trkpt>
<trkpt lat="45.9651670" lon="10.2011340">
	<ele>1279.00</ele>
	<time>2025-08-16T06:10:32.000Z</time>
</trkpt>
<trkpt lat="45.9651720" lon="10.2011330">
	<ele>1279.20</ele>
	<time>2025-08-16T06:10:33.000Z</time>
</trkpt>
<trkpt lat="45.9651730" lon="10.2011280">
	<ele>1279.20</ele>
	<time>2025-08-16T06:10:34.000Z</time>
</trkpt>
<trkpt lat="45.9651780" lon="10.2011280">
	<ele>1279.40</ele>
	<time>2025-08-16T06:10:35.000Z</time>
</trkpt>
<trkpt lat="45.9651720" lon="10.2011280">
	<ele>1279.40</ele>
	<time>2025-08-16T06:10:36.000Z</time>
</trkpt>
<trkpt lat="45.9651750" lon="10.2011260">
	<ele>1279.60</ele>
	<time>2025-08-16T06:10:37.000Z</time>
</trkpt>
<trkpt lat="45.9651800" lon="10.2011170">
	<ele>1279.80</ele>
	<time>2025-08-16T06:10:38.000Z</time>
</trkpt>
<trkpt lat="45.9651920" lon="10.2011100">
	<ele>1280.00</ele>
	<time>2025-08-16T06:10:39.000Z</time>
</trkpt>
<trkpt lat="45.9651960" lon="10.2011070">
	<ele>1280.20</ele>
	<time>2025-08-16T06:10:40.000Z</time>
</trkpt>
<trkpt lat="45.9652010" lon="10.2010950">
	<ele>1280.40</ele>
	<time>2025-08-16T06:10:41.000Z</time>
</trkpt>
<trkpt lat="45.9652070" lon="10.2010930">
	<ele>1280.40</ele>
	<time>2025-08-16T06:10:42.000Z</time>
</trkpt>
<trkpt lat="45.9652140" lon="10.2010880">
	<ele>1280.60</ele>
	<time>2025-08-16T06:10:43.000Z</time>
</trkpt>
<trkpt lat="45.9652150" lon="10.2010840">
	<ele>1280.80</ele>
	<time>2025-08-16T06:10:44.000Z</time>
</trkpt>
<trkpt lat="45.9652150" lon="10.2010860">
	<ele>1281.20</ele>
	<time>2025-08-16T06:10:45.000Z</time>
</trkpt>
<trkpt lat="45.9652160" lon="10.2010850">
	<ele>1281.60</ele>
	<time>2025-08-16T06:10:46.000Z</time>
</trkpt>
<trkpt lat="45.9652170" lon="10.2010820">
	<ele>1281.80</ele>
	<time>2025-08-16T06:10:47.000Z</time>
</trkpt>
<trkpt lat="45.9652190" lon="10.2010790">
	<ele>1282.00</ele>
	<time>2025-08-16T06:10:48.000Z</time>
</trkpt>
<trkpt lat="45.9652300" lon="10.2010730">
	<ele>1282.20</ele>
	<time>2025-08-16T06:10:49.000Z</time>
</trkpt>
<trkpt lat="45.9652300" lon="10.2010480">
	<ele>1282.20</ele>
	<time>2025-08-16T06:10:50.000Z</time>
</trkpt>
<trkpt lat="45.9652310" lon="10.2010260">
	<ele>1282.20</ele>
	<time>2025-08-16T06:10:51.000Z</time>
</trkpt>
<trkpt lat="45.9652300" lon="10.2010140">
	<ele>1282.40</ele>
	<time>2025-08-16T06:10:52.000Z</time>
</trkpt>
<trkpt lat="45.9652230" lon="10.2010000">
	<ele>1282.60</ele>
	<time>2025-08-16T06:10:53.000Z</time>
</trkpt>
<trkpt lat="45.9652250" lon="10.2009950">
	<ele>1283.00</ele>
	<time>2025-08-16T06:10:54.000Z</time>
</trkpt>
<trkpt lat="45.9652320" lon="10.2009920">
	<ele>1283.20</ele>
	<time>2025-08-16T06:10:55.000Z</time>
</trkpt>
<trkpt lat="45.9652360" lon="10.2009860">
	<ele>1283.20</ele>
	<time>2025-08-16T06:10:56.000Z</time>
</trkpt>
<trkpt lat="45.9652400" lon="10.2009770">
	<ele>1283.40</ele>
	<time>2025-08-16T06:10:57.000Z</time>
</trkpt>
<trkpt lat="45.9652440" lon="10.2009690">
	<ele>1283.60</ele>
	<time>2025-08-16T06:10:58.000Z</time>
</trkpt>
<trkpt lat="45.9652480" lon="10.2009600">
	<ele>1283.80</ele>
	<time>2025-08-16T06:10:59.000Z</time>
</trkpt>
<trkpt lat="45.9652490" lon="10.2009530">
	<ele>1283.80</ele>
	<time>2025-08-16T06:11:00.000Z</time>
</trkpt>
<trkpt lat="45.9652550" lon="10.2009500">
	<ele>1284.00</ele>
	<time>2025-08-16T06:11:01.000Z</time>
</trkpt>
<trkpt lat="45.9652570" lon="10.2009470">
	<ele>1284.20</ele>
	<time>2025-08-16T06:11:02.000Z</time>
</trkpt>
<trkpt lat="45.9652580" lon="10.2009450">
	<ele>1284.20</ele>
	<time>2025-08-16T06:11:03.000Z</time>
</trkpt>
<trkpt lat="45.9652580" lon="10.2009430">
	<ele>1284.40</ele>
	<time>2025-08-16T06:11:04.000Z</time>
</trkpt>
<trkpt lat="45.9652590" lon="10.2009420">
	<ele>1284.60</ele>
	<time>2025-08-16T06:11:05.000Z</time>
</trkpt>
<trkpt lat="45.9652620" lon="10.2009410">
	<ele>1284.60</ele>
	<time>2025-08-16T06:11:06.000Z</time>
</trkpt>
<trkpt lat="45.9652640" lon="10.2009390">
	<ele>1284.80</ele>
	<time>2025-08-16T06:11:07.000Z</time>
</trkpt>
<trkpt lat="45.9652780" lon="10.2009490">
	<ele>1285.00</ele>
	<time>2025-08-16T06:11:08.000Z</time>
</trkpt>
<trkpt lat="45.9652830" lon="10.2009480">
	<ele>1285.40</ele>
	<time>2025-08-16T06:11:09.000Z</time>
</trkpt>
<trkpt lat="45.9652830" lon="10.2009450">
	<ele>1285.60</ele>
	<time>2025-08-16T06:11:10.000Z</time>
</trkpt>
<trkpt lat="45.9652800" lon="10.2009450">
	<ele>1285.80</ele>
	<time>2025-08-16T06:11:11.000Z</time>
</trkpt>
<trkpt lat="45.9652790" lon="10.2009450">
	<ele>1285.80</ele>
	<time>2025-08-16T06:11:12.000Z</time>
</trkpt>
<trkpt lat="45.9652770" lon="10.2009350">
	<ele>1286.00</ele>
	<time>2025-08-16T06:11:13.000Z</time>
</trkpt>
<trkpt lat="45.9652820" lon="10.2009260">
	<ele>1286.20</ele>
	<time>2025-08-16T06:11:14.000Z</time>
</trkpt>
<trkpt lat="45.9652840" lon="10.2009150">
	<ele>1286.40</ele>
	<time>2025-08-16T06:11:15.000Z</time>
</trkpt>
<trkpt lat="45.9652860" lon="10.2009110">
	<ele>1286.60</ele>
	<time>2025-08-16T06:11:16.000Z</time>
</trkpt>
<trkpt lat="45.9652870" lon="10.2009080">
	<ele>1286.80</ele>
	<time>2025-08-16T06:11:17.000Z</time>
</trkpt>
<trkpt lat="45.9652900" lon="10.2009050">
	<ele>1287.20</ele>
	<time>2025-08-16T06:11:18.000Z</time>
</trkpt>
<trkpt lat="45.9652940" lon="10.2009020">
	<ele>1287.20</ele>
	<time>2025-08-16T06:11:19.000Z</time>
</trkpt>
<trkpt lat="45.9652960" lon="10.2008980">
	<ele>1287.40</ele>
	<time>2025-08-16T06:11:20.000Z</time>
</trkpt>
<trkpt lat="45.9652980" lon="10.2008950">
	<ele>1287.40</ele>
	<time>2025-08-16T06:11:21.000Z</time>
</trkpt>
<trkpt lat="45.9652990" lon="10.2008900">
	<ele>1287.60</ele>
	<time>2025-08-16T06:11:22.000Z</time>
</trkpt>
<trkpt lat="45.9653020" lon="10.2008870">
	<ele>1287.60</ele>
	<time>2025-08-16T06:11:23.000Z</time>
</trkpt>
<trkpt lat="45.9653130" lon="10.2008830">
	<ele>1287.80</ele>
	<time>2025-08-16T06:11:24.000Z</time>
</trkpt>
<trkpt lat="45.9653250" lon="10.2008790">
	<ele>1288.00</ele>
	<time>2025-08-16T06:11:25.000Z</time>
</trkpt>
<trkpt lat="45.9653320" lon="10.2008710">
	<ele>1288.00</ele>
	<time>2025-08-16T06:11:26.000Z</time>
</trkpt>
<trkpt lat="45.9653380" lon="10.2008630">
	<ele>1288.20</ele>
	<time>2025-08-16T06:11:27.000Z</time>
</trkpt>
<trkpt lat="45.9653420" lon="10.2008600">
	<ele>1288.40</ele>
	<time>2025-08-16T06:11:28.000Z</time>
</trkpt>
<trkpt lat="45.9653550" lon="10.2008630">
	<ele>1288.40</ele>
	<time>2025-08-16T06:11:29.000Z</time>
</trkpt>
<trkpt lat="45.9653590" lon="10.2008640">
	<ele>1288.60</ele>
	<time>2025-08-16T06:11:30.000Z</time>
</trkpt>
<trkpt lat="45.9653680" lon="10.2008650">
	<ele>1288.80</ele>
	<time>2025-08-16T06:11:31.000Z</time>
</trkpt>
<trkpt lat="45.9653810" lon="10.2008710">
	<ele>1289.00</ele>
	<time>2025-08-16T06:11:32.000Z</time>
</trkpt>
<trkpt lat="45.9653910" lon="10.2008670">
	<ele>1289.20</ele>
	<time>2025-08-16T06:11:33.000Z</time>
</trkpt>
<trkpt lat="45.9653990" lon="10.2008670">
	<ele>1289.40</ele>
	<time>2025-08-16T06:11:34.000Z</time>
</trkpt>
<trkpt lat="45.9654060" lon="10.2008630">
	<ele>1289.40</ele>
	<time>2025-08-16T06:11:35.000Z</time>
</trkpt>
<trkpt lat="45.9654120" lon="10.2008500">
	<ele>1289.60</ele>
	<time>2025-08-16T06:11:36.000Z</time>
</trkpt>
<trkpt lat="45.9654150" lon="10.2008440">
	<ele>1289.80</ele>
	<time>2025-08-16T06:11:37.000Z</time>
</trkpt>
<trkpt lat="45.9654260" lon="10.2008300">
	<ele>1290.20</ele>
	<time>2025-08-16T06:11:38.000Z</time>
</trkpt>
<trkpt lat="45.9654290" lon="10.2008250">
	<ele>1290.40</ele>
	<time>2025-08-16T06:11:39.000Z</time>
</trkpt>
<trkpt lat="45.9654320" lon="10.2008200">
	<ele>1290.60</ele>
	<time>2025-08-16T06:11:40.000Z</time>
</trkpt>
<trkpt lat="45.9654340" lon="10.2008180">
	<ele>1290.80</ele>
	<time>2025-08-16T06:11:41.000Z</time>
</trkpt>
<trkpt lat="45.9654370" lon="10.2008170">
	<ele>1291.00</ele>
	<time>2025-08-16T06:11:42.000Z</time>
</trkpt>
<trkpt lat="45.9654400" lon="10.2008180">
	<ele>1291.20</ele>
	<time>2025-08-16T06:11:43.000Z</time>
</trkpt>
<trkpt lat="45.9654430" lon="10.2008170">
	<ele>1291.40</ele>
	<time>2025-08-16T06:11:44.000Z</time>
</trkpt>
<trkpt lat="45.9654480" lon="10.2008110">
	<ele>1291.40</ele>
	<time>2025-08-16T06:11:45.000Z</time>
</trkpt>
<trkpt lat="45.9654500" lon="10.2008020">
	<ele>1291.60</ele>
	<time>2025-08-16T06:11:46.000Z</time>
</trkpt>
<trkpt lat="45.9654510" lon="10.2007910">
	<ele>1291.60</ele>
	<time>2025-08-16T06:11:47.000Z</time>
</trkpt>
<trkpt lat="45.9654510" lon="10.2007840">
	<ele>1291.80</ele>
	<time>2025-08-16T06:11:48.000Z</time>
</trkpt>
<trkpt lat="45.9654500" lon="10.2007750">
	<ele>1292.00</ele>
	<time>2025-08-16T06:11:49.000Z</time>
</trkpt>
<trkpt lat="45.9654530" lon="10.2007650">
	<ele>1292.20</ele>
	<time>2025-08-16T06:11:50.000Z</time>
</trkpt>
<trkpt lat="45.9654540" lon="10.2007560">
	<ele>1292.40</ele>
	<time>2025-08-16T06:11:51.000Z</time>
</trkpt>
<trkpt lat="45.9654530" lon="10.2007490">
	<ele>1292.40</ele>
	<time>2025-08-16T06:11:52.000Z</time>
</trkpt>
<trkpt lat="45.9654560" lon="10.2007450">
	<ele>1292.60</ele>
	<time>2025-08-16T06:11:53.000Z</time>
</trkpt>
<trkpt lat="45.9654590" lon="10.2007400">
	<ele>1292.80</ele>
	<time>2025-08-16T06:11:54.000Z</time>
</trkpt>
<trkpt lat="45.9654610" lon="10.2007350">
	<ele>1293.20</ele>
	<time>2025-08-16T06:11:55.000Z</time>
</trkpt>
<trkpt lat="45.9654600" lon="10.2007290">
	<ele>1293.40</ele>
	<time>2025-08-16T06:11:56.000Z</time>
</trkpt>
<trkpt lat="45.9654620" lon="10.2007270">
	<ele>1293.60</ele>
	<time>2025-08-16T06:11:57.000Z</time>
</trkpt>
<trkpt lat="45.9654690" lon="10.2007250">
	<ele>1293.80</ele>
	<time>2025-08-16T06:11:58.000Z</time>
</trkpt>
<trkpt lat="45.9654740" lon="10.2007240">
	<ele>1294.00</ele>
	<time>2025-08-16T06:11:59.000Z</time>
</trkpt>
<trkpt lat="45.9654780" lon="10.2007250">
	<ele>1294.20</ele>
	<time>2025-08-16T06:12:00.000Z</time>
</trkpt>
<trkpt lat="45.9654850" lon="10.2007160">
	<ele>1294.60</ele>
	<time>2025-08-16T06:12:01.000Z</time>
</trkpt>
<trkpt lat="45.9654960" lon="10.2007190">
	<ele>1294.80</ele>
	<time>2025-08-16T06:12:02.000Z</time>
</trkpt>
<trkpt lat="45.9655040" lon="10.2007200">
	<ele>1295.00</ele>
	<time>2025-08-16T06:12:03.000Z</time>
</trkpt>
<trkpt lat="45.9655080" lon="10.2007130">
	<ele>1295.40</ele>
	<time>2025-08-16T06:12:04.000Z</time>
</trkpt>
<trkpt lat="45.9655110" lon="10.2007160">
	<ele>1295.60</ele>
	<time>2025-08-16T06:12:05.000Z</time>
</trkpt>
<trkpt lat="45.9655130" lon="10.2007150">
	<ele>1295.60</ele>
	<time>2025-08-16T06:12:06.000Z</time>
</trkpt>
<trkpt lat="45.9655140" lon="10.2007210">
	<ele>1295.60</ele>
	<time>2025-08-16T06:12:07.000Z</time>
</trkpt>
<trkpt lat="45.9655170" lon="10.2007220">
	<ele>1295.80</ele>
	<time>2025-08-16T06:12:08.000Z</time>
</trkpt>
<trkpt lat="45.9655130" lon="10.2007150">
	<ele>1295.80</ele>
	<time>2025-08-16T06:12:09.000Z</time>
</trkpt>
<trkpt lat="45.9655050" lon="10.2007080">
	<ele>1296.00</ele>
	<time>2025-08-16T06:12:10.000Z</time>
</trkpt>
<trkpt lat="45.9655040" lon="10.2007030">
	<ele>1296.20</ele>
	<time>2025-08-16T06:12:11.000Z</time>
</trkpt>
<trkpt lat="45.9655030" lon="10.2006990">
	<ele>1296.20</ele>
	<time>2025-08-16T06:12:12.000Z</time>
</trkpt>
<trkpt lat="45.9655050" lon="10.2006940">
	<ele>1296.40</ele>
	<time>2025-08-16T06:12:13.000Z</time>
</trkpt>
<trkpt lat="45.9655080" lon="10.2006930">
	<ele>1296.60</ele>
	<time>2025-08-16T06:12:14.000Z</time>
</trkpt>
<trkpt lat="45.9655120" lon="10.2006890">
	<ele>1296.80</ele>
	<time>2025-08-16T06:12:15.000Z</time>
</trkpt>
<trkpt lat="45.9655160" lon="10.2007000">
	<ele>1297.00</ele>
	<time>2025-08-16T06:12:16.000Z</time>
</trkpt>
<trkpt lat="45.9655230" lon="10.2007030">
	<ele>1297.00</ele>
	<time>2025-08-16T06:12:17.000Z</time>
</trkpt>
<trkpt lat="45.9655300" lon="10.2007010">
	<ele>1297.20</ele>
	<time>2025-08-16T06:12:18.000Z</time>
</trkpt>
<trkpt lat="45.9655350" lon="10.2007000">
	<ele>1297.40</ele>
	<time>2025-08-16T06:12:19.000Z</time>
</trkpt>
<trkpt lat="45.9655400" lon="10.2006990">
	<ele>1297.60</ele>
	<time>2025-08-16T06:12:20.000Z</time>
</trkpt>
<trkpt lat="45.9655490" lon="10.2006990">
	<ele>1297.60</ele>
	<time>2025-08-16T06:12:21.000Z</time>
</trkpt>
<trkpt lat="45.9655570" lon="10.2006980">
	<ele>1297.80</ele>
	<time>2025-08-16T06:12:22.000Z</time>
</trkpt>
<trkpt lat="45.9655580" lon="10.2006950">
	<ele>1298.00</ele>
	<time>2025-08-16T06:12:23.000Z</time>
</trkpt>
<trkpt lat="45.9655610" lon="10.2006850">
	<ele>1298.20</ele>
	<time>2025-08-16T06:12:24.000Z</time>
</trkpt>
<trkpt lat="45.9655620" lon="10.2006800">
	<ele>1298.20</ele>
	<time>2025-08-16T06:12:25.000Z</time>
</trkpt>
<trkpt lat="45.9655700" lon="10.2006700">
	<ele>1298.40</ele>
	<time>2025-08-16T06:12:26.000Z</time>
</trkpt>
<trkpt lat="45.9655760" lon="10.2006640">
	<ele>1298.60</ele>
	<time>2025-08-16T06:12:27.000Z</time>
</trkpt>
<trkpt lat="45.9655800" lon="10.2006590">
	<ele>1298.80</ele>
	<time>2025-08-16T06:12:28.000Z</time>
</trkpt>
<trkpt lat="45.9655850" lon="10.2006520">
	<ele>1299.00</ele>
	<time>2025-08-16T06:12:29.000Z</time>
</trkpt>
<trkpt lat="45.9655920" lon="10.2006460">
	<ele>1299.20</ele>
	<time>2025-08-16T06:12:30.000Z</time>
</trkpt>
<trkpt lat="45.9655930" lon="10.2006420">
	<ele>1299.40</ele>
	<time>2025-08-16T06:12:31.000Z</time>
</trkpt>
<trkpt lat="45.9656050" lon="10.2006330">
	<ele>1299.40</ele>
	<time>2025-08-16T06:12:32.000Z</time>
</trkpt>
<trkpt lat="45.9656180" lon="10.2006230">
	<ele>1299.80</ele>
	<time>2025-08-16T06:12:33.000Z</time>
</trkpt>
<trkpt lat="45.9656210" lon="10.2006180">
	<ele>1300.00</ele>
	<time>2025-08-16T06:12:34.000Z</time>
</trkpt>
<trkpt lat="45.9656230" lon="10.2006130">
	<ele>1300.20</ele>
	<time>2025-08-16T06:12:35.000Z</time>
</trkpt>
<trkpt lat="45.9656320" lon="10.2005910">
	<ele>1300.20</ele>
	<time>2025-08-16T06:12:36.000Z</time>
</trkpt>
<trkpt lat="45.9656370" lon="10.2005570">
	<ele>1300.60</ele>
	<time>2025-08-16T06:12:37.000Z</time>
</trkpt>
<trkpt lat="45.9656520" lon="10.2005400">
	<ele>1300.80</ele>
	<time>2025-08-16T06:12:38.000Z</time>
</trkpt>
<trkpt lat="45.9656700" lon="10.2005270">
	<ele>1301.00</ele>
	<time>2025-08-16T06:12:39.000Z</time>
</trkpt>
<trkpt lat="45.9656850" lon="10.2005150">
	<ele>1301.00</ele>
	<time>2025-08-16T06:12:40.000Z</time>
</trkpt>
<trkpt lat="45.9656870" lon="10.2005100">
	<ele>1301.20</ele>
	<time>2025-08-16T06:12:41.000Z</time>
</trkpt>
<trkpt lat="45.9656910" lon="10.2005120">
	<ele>1301.40</ele>
	<time>2025-08-16T06:12:42.000Z</time>
</trkpt>
<trkpt lat="45.9656940" lon="10.2005080">
	<ele>1301.60</ele>
	<time>2025-08-16T06:12:43.000Z</time>
</trkpt>
<trkpt lat="45.9657040" lon="10.2005260">
	<ele>1301.80</ele>
	<time>2025-08-16T06:12:44.000Z</time>
</trkpt>
<trkpt lat="45.9657160" lon="10.2005290">
	<ele>1302.20</ele>
	<time>2025-08-16T06:12:45.000Z</time>
</trkpt>
<trkpt lat="45.9657250" lon="10.2005200">
	<ele>1302.40</ele>
	<time>2025-08-16T06:12:46.000Z</time>
</trkpt>
<trkpt lat="45.9657260" lon="10.2005170">
	<ele>1302.60</ele>
	<time>2025-08-16T06:12:47.000Z</time>
</trkpt>
<trkpt lat="45.9657390" lon="10.2005110">
	<ele>1302.60</ele>
	<time>2025-08-16T06:12:48.000Z</time>
</trkpt>
<trkpt lat="45.9657450" lon="10.2005010">
	<ele>1302.80</ele>
	<time>2025-08-16T06:12:49.000Z</time>
</trkpt>
<trkpt lat="45.9657560" lon="10.2004900">
	<ele>1303.00</ele>
	<time>2025-08-16T06:12:50.000Z</time>
</trkpt>
<trkpt lat="45.9657550" lon="10.2004740">
	<ele>1303.00</ele>
	<time>2025-08-16T06:12:51.000Z</time>
</trkpt>
<trkpt lat="45.9657590" lon="10.2004630">
	<ele>1303.20</ele>
	<time>2025-08-16T06:12:52.000Z</time>
</trkpt>
<trkpt lat="45.9657690" lon="10.2004580">
	<ele>1303.40</ele>
	<time>2025-08-16T06:12:53.000Z</time>
</trkpt>
<trkpt lat="45.9657780" lon="10.2004500">
	<ele>1303.40</ele>
	<time>2025-08-16T06:12:54.000Z</time>
</trkpt>
<trkpt lat="45.9657860" lon="10.2004530">
	<ele>1303.60</ele>
	<time>2025-08-16T06:12:55.000Z</time>
</trkpt>
<trkpt lat="45.9657910" lon="10.2004610">
	<ele>1303.60</ele>
	<time>2025-08-16T06:12:56.000Z</time>
</trkpt>
<trkpt lat="45.9657940" lon="10.2004740">
	<ele>1303.80</ele>
	<time>2025-08-16T06:12:57.000Z</time>
</trkpt>
<trkpt lat="45.9657930" lon="10.2004800">
	<ele>1303.80</ele>
	<time>2025-08-16T06:12:58.000Z</time>
</trkpt>
<trkpt lat="45.9657950" lon="10.2004830">
	<ele>1303.80</ele>
	<time>2025-08-16T06:12:59.000Z</time>
</trkpt>
<trkpt lat="45.9658020" lon="10.2004690">
	<ele>1304.20</ele>
	<time>2025-08-16T06:13:00.000Z</time>
</trkpt>
<trkpt lat="45.9658140" lon="10.2004660">
	<ele>1304.20</ele>
	<time>2025-08-16T06:13:01.000Z</time>
</trkpt>
<trkpt lat="45.9658250" lon="10.2004510">
	<ele>1304.40</ele>
	<time>2025-08-16T06:13:02.000Z</time>
</trkpt>
<trkpt lat="45.9658320" lon="10.2004480">
	<ele>1304.40</ele>
	<time>2025-08-16T06:13:03.000Z</time>
</trkpt>
<trkpt lat="45.9658350" lon="10.2004330">
	<ele>1304.40</ele>
	<time>2025-08-16T06:13:04.000Z</time>
</trkpt>
<trkpt lat="45.9658430" lon="10.2004170">
	<ele>1304.40</ele>
	<time>2025-08-16T06:13:05.000Z</time>
</trkpt>
<trkpt lat="45.9658500" lon="10.2004090">
	<ele>1304.60</ele>
	<time>2025-08-16T06:13:06.000Z</time>
</trkpt>
<trkpt lat="45.9658570" lon="10.2004060">
	<ele>1304.60</ele>
	<time>2025-08-16T06:13:07.000Z</time>
</trkpt>
<trkpt lat="45.9658670" lon="10.2004100">
	<ele>1304.80</ele>
	<time>2025-08-16T06:13:08.000Z</time>
</trkpt>
<trkpt lat="45.9658750" lon="10.2004150">
	<ele>1305.00</ele>
	<time>2025-08-16T06:13:09.000Z</time>
</trkpt>
<trkpt lat="45.9658790" lon="10.2004190">
	<ele>1305.00</ele>
	<time>2025-08-16T06:13:10.000Z</time>
</trkpt>
<trkpt lat="45.9658790" lon="10.2004160">
	<ele>1305.20</ele>
	<time>2025-08-16T06:13:11.000Z</time>
</trkpt>
<trkpt lat="45.9658810" lon="10.2004140">
	<ele>1305.40</ele>
	<time>2025-08-16T06:13:12.000Z</time>
</trkpt>
<trkpt lat="45.9658840" lon="10.2004130">
	<ele>1305.40</ele>
	<time>2025-08-16T06:13:13.000Z</time>
</trkpt>
<trkpt lat="45.9658900" lon="10.2004110">
	<ele>1305.60</ele>
	<time>2025-08-16T06:13:14.000Z</time>
</trkpt>
<trkpt lat="45.9658990" lon="10.2004140">
	<ele>1305.80</ele>
	<time>2025-08-16T06:13:15.000Z</time>
</trkpt>
<trkpt lat="45.9659050" lon="10.2004220">
	<ele>1306.00</ele>
	<time>2025-08-16T06:13:16.000Z</time>
</trkpt>
<trkpt lat="45.9659100" lon="10.2004310">
	<ele>1306.00</ele>
	<time>2025-08-16T06:13:17.000Z</time>
</trkpt>
<trkpt lat="45.9659120" lon="10.2004340">
	<ele>1306.20</ele>
	<time>2025-08-16T06:13:18.000Z</time>
</trkpt>
<trkpt lat="45.9659100" lon="10.2004440">
	<ele>1306.20</ele>
	<time>2025-08-16T06:13:19.000Z</time>
</trkpt>
<trkpt lat="45.9659180" lon="10.2004510">
	<ele>1306.20</ele>
	<time>2025-08-16T06:13:20.000Z</time>
</trkpt>
<trkpt lat="45.9659310" lon="10.2004620">
	<ele>1306.40</ele>
	<time>2025-08-16T06:13:21.000Z</time>
</trkpt>
<trkpt lat="45.9659400" lon="10.2004680">
	<ele>1306.40</ele>
	<time>2025-08-16T06:13:22.000Z</time>
</trkpt>
<trkpt lat="45.9659500" lon="10.2004690">
	<ele>1306.60</ele>
	<time>2025-08-16T06:13:23.000Z</time>
</trkpt>
<trkpt lat="45.9659610" lon="10.2004700">
	<ele>1306.80</ele>
	<time>2025-08-16T06:13:24.000Z</time>
</trkpt>
<trkpt lat="45.9659730" lon="10.2004700">
	<ele>1306.80</ele>
	<time>2025-08-16T06:13:25.000Z</time>
</trkpt>
<trkpt lat="45.9659850" lon="10.2004690">
	<ele>1307.00</ele>
	<time>2025-08-16T06:13:26.000Z</time>
</trkpt>
<trkpt lat="45.9660020" lon="10.2004730">
	<ele>1307.20</ele>
	<time>2025-08-16T06:13:27.000Z</time>
</trkpt>
<trkpt lat="45.9660130" lon="10.2004850">
	<ele>1307.20</ele>
	<time>2025-08-16T06:13:28.000Z</time>
</trkpt>
<trkpt lat="45.9660230" lon="10.2005000">
	<ele>1307.40</ele>
	<time>2025-08-16T06:13:29.000Z</time>
</trkpt>
<trkpt lat="45.9660250" lon="10.2005050">
	<ele>1307.60</ele>
	<time>2025-08-16T06:13:30.000Z</time>
</trkpt>
<trkpt lat="45.9660260" lon="10.2005090">
	<ele>1307.80</ele>
	<time>2025-08-16T06:13:31.000Z</time>
</trkpt>
<trkpt lat="45.9660280" lon="10.2005120">
	<ele>1308.00</ele>
	<time>2025-08-16T06:13:32.000Z</time>
</trkpt>
<trkpt lat="45.9660400" lon="10.2005180">
	<ele>1308.00</ele>
	<time>2025-08-16T06:13:33.000Z</time>
</trkpt>
<trkpt lat="45.9660470" lon="10.2005220">
	<ele>1308.20</ele>
	<time>2025-08-16T06:13:34.000Z</time>
</trkpt>
<trkpt lat="45.9660610" lon="10.2005270">
	<ele>1308.40</ele>
	<time>2025-08-16T06:13:35.000Z</time>
</trkpt>
<trkpt lat="45.9660700" lon="10.2005310">
	<ele>1308.40</ele>
	<time>2025-08-16T06:13:36.000Z</time>
</trkpt>
<trkpt lat="45.9660790" lon="10.2005360">
	<ele>1308.40</ele>
	<time>2025-08-16T06:13:37.000Z</time>
</trkpt>
<trkpt lat="45.9660900" lon="10.2005420">
	<ele>1308.60</ele>
	<time>2025-08-16T06:13:38.000Z</time>
</trkpt>
<trkpt lat="45.9660990" lon="10.2005460">
	<ele>1308.60</ele>
	<time>2025-08-16T06:13:39.000Z</time>
</trkpt>
<trkpt lat="45.9661120" lon="10.2005520">
	<ele>1308.80</ele>
	<time>2025-08-16T06:13:40.000Z</time>
</trkpt>
<trkpt lat="45.9661250" lon="10.2005620">
	<ele>1309.00</ele>
	<time>2025-08-16T06:13:41.000Z</time>
</trkpt>
<trkpt lat="45.9661370" lon="10.2005740">
	<ele>1309.20</ele>
	<time>2025-08-16T06:13:42.000Z</time>
</trkpt>
<trkpt lat="45.9661520" lon="10.2005740">
	<ele>1309.20</ele>
	<time>2025-08-16T06:13:43.000Z</time>
</trkpt>
<trkpt lat="45.9661700" lon="10.2005770">
	<ele>1309.40</ele>
	<time>2025-08-16T06:13:44.000Z</time>
</trkpt>
<trkpt lat="45.9661780" lon="10.2005840">
	<ele>1309.40</ele>
	<time>2025-08-16T06:13:45.000Z</time>
</trkpt>
<trkpt lat="45.9661780" lon="10.2005920">
	<ele>1309.60</ele>
	<time>2025-08-16T06:13:46.000Z</time>
</trkpt>
<trkpt lat="45.9661830" lon="10.2006020">
	<ele>1309.80</ele>
	<time>2025-08-16T06:13:47.000Z</time>
</trkpt>
<trkpt lat="45.9661850" lon="10.2006070">
	<ele>1309.80</ele>
	<time>2025-08-16T06:13:48.000Z</time>
</trkpt>
<trkpt lat="45.9661720" lon="10.2006190">
	<ele>1310.00</ele>
	<time>2025-08-16T06:13:49.000Z</time>
</trkpt>
<trkpt lat="45.9661790" lon="10.2006190">
	<ele>1310.20</ele>
	<time>2025-08-16T06:13:50.000Z</time>
</trkpt>
<trkpt lat="45.9661900" lon="10.2006190">
	<ele>1310.40</ele>
	<time>2025-08-16T06:13:51.000Z</time>
</trkpt>
<trkpt lat="45.9662080" lon="10.2006150">
	<ele>1310.40</ele>
	<time>2025-08-16T06:13:52.000Z</time>
</trkpt>
<trkpt lat="45.9662170" lon="10.2006130">
	<ele>1310.80</ele>
	<time>2025-08-16T06:13:53.000Z</time>
</trkpt>
<trkpt lat="45.9662210" lon="10.2005950">
	<ele>1311.00</ele>
	<time>2025-08-16T06:13:54.000Z</time>
</trkpt>
<trkpt lat="45.9662280" lon="10.2005800">
	<ele>1311.00</ele>
	<time>2025-08-16T06:13:55.000Z</time>
</trkpt>
<trkpt lat="45.9662300" lon="10.2005790">
	<ele>1311.20</ele>
	<time>2025-08-16T06:13:56.000Z</time>
</trkpt>
<trkpt lat="45.9662330" lon="10.2005780">
	<ele>1311.40</ele>
	<time>2025-08-16T06:13:57.000Z</time>
</trkpt>
<trkpt lat="45.9662370" lon="10.2005780">
	<ele>1311.40</ele>
	<time>2025-08-16T06:13:58.000Z</time>
</trkpt>
<trkpt lat="45.9662420" lon="10.2005950">
	<ele>1311.60</ele>
	<time>2025-08-16T06:13:59.000Z</time>
</trkpt>
<trkpt lat="45.9662460" lon="10.2005990">
	<ele>1311.80</ele>
	<time>2025-08-16T06:14:00.000Z</time>
</trkpt>
<trkpt lat="45.9662470" lon="10.2006030">
	<ele>1312.00</ele>
	<time>2025-08-16T06:14:01.000Z</time>
</trkpt>
<trkpt lat="45.9662480" lon="10.2005850">
	<ele>1312.00</ele>
	<time>2025-08-16T06:14:02.000Z</time>
</trkpt>
<trkpt lat="45.9662470" lon="10.2005650">
	<ele>1312.00</ele>
	<time>2025-08-16T06:14:03.000Z</time>
</trkpt>
<trkpt lat="45.9662380" lon="10.2005490">
	<ele>1312.20</ele>
	<time>2025-08-16T06:14:04.000Z</time>
</trkpt>
<trkpt lat="45.9662410" lon="10.2005480">
	<ele>1312.60</ele>
	<time>2025-08-16T06:14:05.000Z</time>
</trkpt>
<trkpt lat="45.9662430" lon="10.2005490">
	<ele>1312.60</ele>
	<time>2025-08-16T06:14:06.000Z</time>
</trkpt>
<trkpt lat="45.9662410" lon="10.2005380">
	<ele>1312.80</ele>
	<time>2025-08-16T06:14:07.000Z</time>
</trkpt>
<trkpt lat="45.9662360" lon="10.2005260">
	<ele>1312.80</ele>
	<time>2025-08-16T06:14:08.000Z</time>
</trkpt>
<trkpt lat="45.9662380" lon="10.2005140">
	<ele>1313.00</ele>
	<time>2025-08-16T06:14:09.000Z</time>
</trkpt>
<trkpt lat="45.9662400" lon="10.2005060">
	<ele>1313.00</ele>
	<time>2025-08-16T06:14:10.000Z</time>
</trkpt>
<trkpt lat="45.9662440" lon="10.2004950">
	<ele>1313.20</ele>
	<time>2025-08-16T06:14:11.000Z</time>
</trkpt>
<trkpt lat="45.9662450" lon="10.2004850">
	<ele>1313.20</ele>
	<time>2025-08-16T06:14:12.000Z</time>
</trkpt>
<trkpt lat="45.9662470" lon="10.2004790">
	<ele>1313.20</ele>
	<time>2025-08-16T06:14:13.000Z</time>
</trkpt>
<trkpt lat="45.9662490" lon="10.2004750">
	<ele>1313.40</ele>
	<time>2025-08-16T06:14:14.000Z</time>
</trkpt>
<trkpt lat="45.9662510" lon="10.2004710">
	<ele>1313.60</ele>
	<time>2025-08-16T06:14:15.000Z</time>
</trkpt>
<trkpt lat="45.9662510" lon="10.2004690">
	<ele>1313.80</ele>
	<time>2025-08-16T06:14:16.000Z</time>
</trkpt>
<trkpt lat="45.9662650" lon="10.2004670">
	<ele>1314.00</ele>
	<time>2025-08-16T06:14:17.000Z</time>
</trkpt>
<trkpt lat="45.9662790" lon="10.2004650">
	<ele>1314.00</ele>
	<time>2025-08-16T06:14:18.000Z</time>
</trkpt>
<trkpt lat="45.9663000" lon="10.2004650">
	<ele>1314.20</ele>
	<time>2025-08-16T06:14:19.000Z</time>
</trkpt>
<trkpt lat="45.9663140" lon="10.2004580">
	<ele>1314.40</ele>
	<time>2025-08-16T06:14:20.000Z</time>
</trkpt>
<trkpt lat="45.9663140" lon="10.2004550">
	<ele>1314.60</ele>
	<time>2025-08-16T06:14:21.000Z</time>
</trkpt>
<trkpt lat="45.9663180" lon="10.2004400">
	<ele>1314.80</ele>
	<time>2025-08-16T06:14:22.000Z</time>
</trkpt>
<trkpt lat="45.9663150" lon="10.2004390">
	<ele>1315.00</ele>
	<time>2025-08-16T06:14:23.000Z</time>
</trkpt>
<trkpt lat="45.9663170" lon="10.2004400">
	<ele>1315.00</ele>
	<time>2025-08-16T06:14:24.000Z</time>
</trkpt>
<trkpt lat="45.9663000" lon="10.2004340">
	<ele>1315.20</ele>
	<time>2025-08-16T06:14:25.000Z</time>
</trkpt>
<trkpt lat="45.9663020" lon="10.2004300">
	<ele>1315.20</ele>
	<time>2025-08-16T06:14:26.000Z</time>
</trkpt>
<trkpt lat="45.9663130" lon="10.2004290">
	<ele>1315.20</ele>
	<time>2025-08-16T06:14:27.000Z</time>
</trkpt>
<trkpt lat="45.9663170" lon="10.2004290">
	<ele>1315.00</ele>
	<time>2025-08-16T06:14:28.000Z</time>
</trkpt>
<trkpt lat="45.9663310" lon="10.2004370">
	<ele>1314.80</ele>
	<time>2025-08-16T06:14:29.000Z</time>
</trkpt>
<trkpt lat="45.9663350" lon="10.2004340">
	<ele>1314.80</ele>
	<time>2025-08-16T06:14:30.000Z</time>
</trkpt>
<trkpt lat="45.9663550" lon="10.2004360">
	<ele>1314.80</ele>
	<time>2025-08-16T06:14:31.000Z</time>
</trkpt>
<trkpt lat="45.9663570" lon="10.2004330">
	<ele>1314.80</ele>
	<time>2025-08-16T06:14:32.000Z</time>
</trkpt>
<trkpt lat="45.9663590" lon="10.2004310">
	<ele>1314.80</ele>
	<time>2025-08-16T06:14:33.000Z</time>
</trkpt>
<trkpt lat="45.9663580" lon="10.2004310">
	<ele>1315.00</ele>
	<time>2025-08-16T06:14:34.000Z</time>
</trkpt>
<trkpt lat="45.9663590" lon="10.2004310">
	<ele>1315.20</ele>
	<time>2025-08-16T06:14:35.000Z</time>
</trkpt>
<trkpt lat="45.9663580" lon="10.2004320">
	<ele>1315.20</ele>
	<time>2025-08-16T06:14:36.000Z</time>
</trkpt>
<trkpt lat="45.9663550" lon="10.2004320">
	<ele>1315.20</ele>
	<time>2025-08-16T06:14:37.000Z</time>
</trkpt>
<trkpt lat="45.9663550" lon="10.2004320">
	<ele>1315.40</ele>
	<time>2025-08-16T06:14:38.000Z</time>
</trkpt>
<trkpt lat="45.9663550" lon="10.2004300">
	<ele>1315.40</ele>
	<time>2025-08-16T06:14:39.000Z</time>
</trkpt>
<trkpt lat="45.9663540" lon="10.2004290">
	<ele>1315.40</ele>
	<time>2025-08-16T06:14:40.000Z</time>
</trkpt>
<trkpt lat="45.9663560" lon="10.2004300">
	<ele>1315.40</ele>
	<time>2025-08-16T06:14:41.000Z</time>
</trkpt>
<trkpt lat="45.9663540" lon="10.2004280">
	<ele>1315.40</ele>
	<time>2025-08-16T06:14:42.000Z</time>
</trkpt>
<trkpt lat="45.9663510" lon="10.2004270">
	<ele>1315.40</ele>
	<time>2025-08-16T06:14:43.000Z</time>
</trkpt>
<trkpt lat="45.9663420" lon="10.2004250">
	<ele>1315.20</ele>
	<time>2025-08-16T06:14:44.000Z</time>
</trkpt>
<trkpt lat="45.9663380" lon="10.2004260">
	<ele>1315.20</ele>
	<time>2025-08-16T06:14:45.000Z</time>
</trkpt>
<trkpt lat="45.9663340" lon="10.2004290">
	<ele>1315.00</ele>
	<time>2025-08-16T06:14:46.000Z</time>
</trkpt>
<trkpt lat="45.9663300" lon="10.2004320">
	<ele>1315.00</ele>
	<time>2025-08-16T06:14:47.000Z</time>
</trkpt>
<trkpt lat="45.9663280" lon="10.2004350">
	<ele>1315.00</ele>
	<time>2025-08-16T06:14:48.000Z</time>
</trkpt>
<trkpt lat="45.9663260" lon="10.2004360">
	<ele>1315.00</ele>
	<time>2025-08-16T06:14:49.000Z</time>
</trkpt>
<trkpt lat="45.9663220" lon="10.2004350">
	<ele>1315.00</ele>
	<time>2025-08-16T06:14:50.000Z</time>
</trkpt>
<trkpt lat="45.9663190" lon="10.2004340">
	<ele>1315.00</ele>
	<time>2025-08-16T06:14:51.000Z</time>
</trkpt>
<trkpt lat="45.9663170" lon="10.2004350">
	<ele>1315.00</ele>
	<time>2025-08-16T06:14:52.000Z</time>
</trkpt>
<trkpt lat="45.9663170" lon="10.2004360">
	<ele>1315.00</ele>
	<time>2025-08-16T06:14:53.000Z</time>
</trkpt>
<trkpt lat="45.9663170" lon="10.2004360">
	<ele>1315.00</ele>
	<time>2025-08-16T06:14:54.000Z</time>
</trkpt>
<trkpt lat="45.9663170" lon="10.2004360">
	<ele>1315.00</ele>
	<time>2025-08-16T06:14:55.000Z</time>
</trkpt>
<trkpt lat="45.9663170" lon="10.2004360">
	<ele>1315.00</ele>
	<time>2025-08-16T06:14:56.000Z</time>
</trkpt>
<trkpt lat="45.9663170" lon="10.2004360">
	<ele>1315.00</ele>
	<time>2025-08-16T06:14:57.000Z</time>
</trkpt>
<trkpt lat="45.9663170" lon="10.2004360">
	<ele>1315.00</ele>
	<time>2025-08-16T06:14:58.000Z</time>
</trkpt>
<trkpt lat="45.9663170" lon="10.2004360">
	<ele>1315.00</ele>
	<time>2025-08-16T06:14:59.000Z</time>
</trkpt>
<trkpt lat="45.9663170" lon="10.2004360">
	<ele>1315.20</ele>
	<time>2025-08-16T06:15:00.000Z</time>
</trkpt>
<trkpt lat="45.9663150" lon="10.2004320">
	<ele>1315.20</ele>
	<time>2025-08-16T06:15:01.000Z</time>
</trkpt>
<trkpt lat="45.9663020" lon="10.2004250">
	<ele>1315.40</ele>
	<time>2025-08-16T06:15:02.000Z</time>
</trkpt>
<trkpt lat="45.9662980" lon="10.2004210">
	<ele>1315.40</ele>
	<time>2025-08-16T06:15:03.000Z</time>
</trkpt>
<trkpt lat="45.9662970" lon="10.2004230">
	<ele>1315.40</ele>
	<time>2025-08-16T06:15:04.000Z</time>
</trkpt>
<trkpt lat="45.9662930" lon="10.2004190">
	<ele>1315.40</ele>
	<time>2025-08-16T06:15:05.000Z</time>
</trkpt>
<trkpt lat="45.9662930" lon="10.2004120">
	<ele>1315.40</ele>
	<time>2025-08-16T06:15:06.000Z</time>
</trkpt>
<trkpt lat="45.9662900" lon="10.2003980">
	<ele>1315.60</ele>
	<time>2025-08-16T06:15:07.000Z</time>
</trkpt>
<trkpt lat="45.9662750" lon="10.2003830">
	<ele>1315.60</ele>
	<time>2025-08-16T06:15:08.000Z</time>
</trkpt>
<trkpt lat="45.9662640" lon="10.2003670">
	<ele>1315.60</ele>
	<time>2025-08-16T06:15:09.000Z</time>
</trkpt>
<trkpt lat="45.9662620" lon="10.2003660">
	<ele>1315.60</ele>
	<time>2025-08-16T06:15:10.000Z</time>
</trkpt>
<trkpt lat="45.9662590" lon="10.2003640">
	<ele>1315.60</ele>
	<time>2025-08-16T06:15:11.000Z</time>
</trkpt>
<trkpt lat="45.9662560" lon="10.2003630">
	<ele>1315.60</ele>
	<time>2025-08-16T06:15:12.000Z</time>
</trkpt>
<trkpt lat="45.9662550" lon="10.2003580">
	<ele>1315.60</ele>
	<time>2025-08-16T06:15:13.000Z</time>
</trkpt>
<trkpt lat="45.9662560" lon="10.2003550">
	<ele>1315.60</ele>
	<time>2025-08-16T06:15:14.000Z</time>
</trkpt>
<trkpt lat="45.9662620" lon="10.2003530">
	<ele>1315.40</ele>
	<time>2025-08-16T06:15:15.000Z</time>
</trkpt>
<trkpt lat="45.9662710" lon="10.2003510">
	<ele>1315.40</ele>
	<time>2025-08-16T06:15:16.000Z</time>
</trkpt>
<trkpt lat="45.9662750" lon="10.2003500">
	<ele>1315.40</ele>
	<time>2025-08-16T06:15:17.000Z</time>
</trkpt>
<trkpt lat="45.9662760" lon="10.2003470">
	<ele>1315.40</ele>
	<time>2025-08-16T06:15:18.000Z</time>
</trkpt>
<trkpt lat="45.9662760" lon="10.2003440">
	<ele>1315.60</ele>
	<time>2025-08-16T06:15:19.000Z</time>
</trkpt>
<trkpt lat="45.9662760" lon="10.2003430">
	<ele>1315.60</ele>
	<time>2025-08-16T06:15:20.000Z</time>
</trkpt>
<trkpt lat="45.9662740" lon="10.2003420">
	<ele>1315.60</ele>
	<time>2025-08-16T06:15:21.000Z</time>
</trkpt>
<trkpt lat="45.9662720" lon="10.2003380">
	<ele>1315.60</ele>
	<time>2025-08-16T06:15:22.000Z</time>
</trkpt>
<trkpt lat="45.9662760" lon="10.2003500">
	<ele>1315.80</ele>
	<time>2025-08-16T06:15:23.000Z</time>
</trkpt>
<trkpt lat="45.9662760" lon="10.2003620">
	<ele>1315.80</ele>
	<time>2025-08-16T06:15:24.000Z</time>
</trkpt>
<trkpt lat="45.9662800" lon="10.2003610">
	<ele>1315.80</ele>
	<time>2025-08-16T06:15:25.000Z</time>
</trkpt>
<trkpt lat="45.9662820" lon="10.2003570">
	<ele>1315.80</ele>
	<time>2025-08-16T06:15:26.000Z</time>
</trkpt>
<trkpt lat="45.9662810" lon="10.2003570">
	<ele>1315.60</ele>
	<time>2025-08-16T06:15:27.000Z</time>
</trkpt>
<trkpt lat="45.9662940" lon="10.2003640">
	<ele>1315.60</ele>
	<time>2025-08-16T06:15:28.000Z</time>
</trkpt>
<trkpt lat="45.9663060" lon="10.2003590">
	<ele>1315.40</ele>
	<time>2025-08-16T06:15:29.000Z</time>
</trkpt>
<trkpt lat="45.9663230" lon="10.2003520">
	<ele>1315.40</ele>
	<time>2025-08-16T06:15:30.000Z</time>
</trkpt>
<trkpt lat="45.9663460" lon="10.2003440">
	<ele>1315.40</ele>
	<time>2025-08-16T06:15:31.000Z</time>
</trkpt>
<trkpt lat="45.9663480" lon="10.2003420">
	<ele>1315.40</ele>
	<time>2025-08-16T06:15:32.000Z</time>
</trkpt>
<trkpt lat="45.9663480" lon="10.2003400">
	<ele>1315.60</ele>
	<time>2025-08-16T06:15:33.000Z</time>
</trkpt>
<trkpt lat="45.9663510" lon="10.2003380">
	<ele>1315.60</ele>
	<time>2025-08-16T06:15:34.000Z</time>
</trkpt>
<trkpt lat="45.9663530" lon="10.2003350">
	<ele>1315.80</ele>
	<time>2025-08-16T06:15:35.000Z</time>
</trkpt>
<trkpt lat="45.9663550" lon="10.2003310">
	<ele>1315.80</ele>
	<time>2025-08-16T06:15:36.000Z</time>
</trkpt>
<trkpt lat="45.9663570" lon="10.2003270">
	<ele>1316.00</ele>
	<time>2025-08-16T06:15:37.000Z</time>
</trkpt>
<trkpt lat="45.9663550" lon="10.2003240">
	<ele>1316.00</ele>
	<time>2025-08-16T06:15:38.000Z</time>
</trkpt>
<trkpt lat="45.9663620" lon="10.2003150">
	<ele>1316.20</ele>
	<time>2025-08-16T06:15:39.000Z</time>
</trkpt>
<trkpt lat="45.9663700" lon="10.2003070">
	<ele>1316.20</ele>
	<time>2025-08-16T06:15:40.000Z</time>
</trkpt>
<trkpt lat="45.9663830" lon="10.2003020">
	<ele>1316.40</ele>
	<time>2025-08-16T06:15:41.000Z</time>
</trkpt>
<trkpt lat="45.9663930" lon="10.2003010">
	<ele>1316.60</ele>
	<time>2025-08-16T06:15:42.000Z</time>
</trkpt>
<trkpt lat="45.9664020" lon="10.2003010">
	<ele>1316.80</ele>
	<time>2025-08-16T06:15:43.000Z</time>
</trkpt>
<trkpt lat="45.9664080" lon="10.2003050">
	<ele>1316.80</ele>
	<time>2025-08-16T06:15:44.000Z</time>
</trkpt>
<trkpt lat="45.9664180" lon="10.2003070">
	<ele>1317.00</ele>
	<time>2025-08-16T06:15:45.000Z</time>
</trkpt>
<trkpt lat="45.9664260" lon="10.2003020">
	<ele>1317.20</ele>
	<time>2025-08-16T06:15:46.000Z</time>
</trkpt>
<trkpt lat="45.9664320" lon="10.2002980">
	<ele>1317.60</ele>
	<time>2025-08-16T06:15:47.000Z</time>
</trkpt>
<trkpt lat="45.9664350" lon="10.2002970">
	<ele>1318.00</ele>
	<time>2025-08-16T06:15:48.000Z</time>
</trkpt>
<trkpt lat="45.9664380" lon="10.2002990">
	<ele>1318.20</ele>
	<time>2025-08-16T06:15:49.000Z</time>
</trkpt>
<trkpt lat="45.9664400" lon="10.2003010">
	<ele>1318.40</ele>
	<time>2025-08-16T06:15:50.000Z</time>
</trkpt>
<trkpt lat="45.9664490" lon="10.2003060">
	<ele>1318.40</ele>
	<time>2025-08-16T06:15:51.000Z</time>
</trkpt>
<trkpt lat="45.9664520" lon="10.2003150">
	<ele>1318.40</ele>
	<time>2025-08-16T06:15:52.000Z</time>
</trkpt>
<trkpt lat="45.9664550" lon="10.2003130">
	<ele>1318.40</ele>
	<time>2025-08-16T06:15:53.000Z</time>
</trkpt>
<trkpt lat="45.9664570" lon="10.2003100">
	<ele>1318.60</ele>
	<time>2025-08-16T06:15:54.000Z</time>
</trkpt>
<trkpt lat="45.9664590" lon="10.2003050">
	<ele>1318.60</ele>
	<time>2025-08-16T06:15:55.000Z</time>
</trkpt>
<trkpt lat="45.9664570" lon="10.2003010">
	<ele>1318.80</ele>
	<time>2025-08-16T06:15:56.000Z</time>
</trkpt>
<trkpt lat="45.9664580" lon="10.2002990">
	<ele>1319.00</ele>
	<time>2025-08-16T06:15:57.000Z</time>
</trkpt>
<trkpt lat="45.9664570" lon="10.2002970">
	<ele>1319.20</ele>
	<time>2025-08-16T06:15:58.000Z</time>
</trkpt>
<trkpt lat="45.9664560" lon="10.2002940">
	<ele>1319.40</ele>
	<time>2025-08-16T06:15:59.000Z</time>
</trkpt>
<trkpt lat="45.9664610" lon="10.2002960">
	<ele>1319.60</ele>
	<time>2025-08-16T06:16:00.000Z</time>
</trkpt>
<trkpt lat="45.9664720" lon="10.2003030">
	<ele>1319.60</ele>
	<time>2025-08-16T06:16:01.000Z</time>
</trkpt>
<trkpt lat="45.9664710" lon="10.2002990">
	<ele>1319.80</ele>
	<time>2025-08-16T06:16:02.000Z</time>
</trkpt>
<trkpt lat="45.9664700" lon="10.2002960">
	<ele>1319.80</ele>
	<time>2025-08-16T06:16:03.000Z</time>
</trkpt>
<trkpt lat="45.9664700" lon="10.2002960">
	<ele>1320.00</ele>
	<time>2025-08-16T06:16:04.000Z</time>
</trkpt>
<trkpt lat="45.9664800" lon="10.2003000">
	<ele>1320.20</ele>
	<time>2025-08-16T06:16:05.000Z</time>
</trkpt>
<trkpt lat="45.9664840" lon="10.2002990">
	<ele>1320.40</ele>
	<time>2025-08-16T06:16:06.000Z</time>
</trkpt>
<trkpt lat="45.9664910" lon="10.2002960">
	<ele>1320.40</ele>
	<time>2025-08-16T06:16:07.000Z</time>
</trkpt>
<trkpt lat="45.9664950" lon="10.2002990">
	<ele>1320.80</ele>
	<time>2025-08-16T06:16:08.000Z</time>
</trkpt>
<trkpt lat="45.9665030" lon="10.2003040">
	<ele>1321.00</ele>
	<time>2025-08-16T06:16:09.000Z</time>
</trkpt>
<trkpt lat="45.9665080" lon="10.2003080">
	<ele>1321.20</ele>
	<time>2025-08-16T06:16:10.000Z</time>
</trkpt>
<trkpt lat="45.9665150" lon="10.2003120">
	<ele>1321.40</ele>
	<time>2025-08-16T06:16:11.000Z</time>
</trkpt>
<trkpt lat="45.9665250" lon="10.2003140">
	<ele>1321.60</ele>
	<time>2025-08-16T06:16:12.000Z</time>
</trkpt>
<trkpt lat="45.9665290" lon="10.2003190">
	<ele>1322.00</ele>
	<time>2025-08-16T06:16:13.000Z</time>
</trkpt>
<trkpt lat="45.9665320" lon="10.2003220">
	<ele>1322.20</ele>
	<time>2025-08-16T06:16:14.000Z</time>
</trkpt>
<trkpt lat="45.9665450" lon="10.2003130">
	<ele>1322.20</ele>
	<time>2025-08-16T06:16:15.000Z</time>
</trkpt>
<trkpt lat="45.9665570" lon="10.2003080">
	<ele>1322.40</ele>
	<time>2025-08-16T06:16:16.000Z</time>
</trkpt>
<trkpt lat="45.9665660" lon="10.2003030">
	<ele>1322.60</ele>
	<time>2025-08-16T06:16:17.000Z</time>
</trkpt>
<trkpt lat="45.9665670" lon="10.2003020">
	<ele>1322.80</ele>
	<time>2025-08-16T06:16:18.000Z</time>
</trkpt>
<trkpt lat="45.9665690" lon="10.2003030">
	<ele>1323.00</ele>
	<time>2025-08-16T06:16:19.000Z</time>
</trkpt>
<trkpt lat="45.9665840" lon="10.2003140">
	<ele>1323.00</ele>
	<time>2025-08-16T06:16:20.000Z</time>
</trkpt>
<trkpt lat="45.9665980" lon="10.2003200">
	<ele>1323.20</ele>
	<time>2025-08-16T06:16:21.000Z</time>
</trkpt>
<trkpt lat="45.9666020" lon="10.2003190">
	<ele>1323.40</ele>
	<time>2025-08-16T06:16:22.000Z</time>
</trkpt>
<trkpt lat="45.9666080" lon="10.2003200">
	<ele>1323.60</ele>
	<time>2025-08-16T06:16:23.000Z</time>
</trkpt>
<trkpt lat="45.9666120" lon="10.2003220">
	<ele>1323.60</ele>
	<time>2025-08-16T06:16:24.000Z</time>
</trkpt>
<trkpt lat="45.9666140" lon="10.2003250">
	<ele>1323.80</ele>
	<time>2025-08-16T06:16:25.000Z</time>
</trkpt>
<trkpt lat="45.9666240" lon="10.2003330">
	<ele>1324.00</ele>
	<time>2025-08-16T06:16:26.000Z</time>
</trkpt>
<trkpt lat="45.9666310" lon="10.2003420">
	<ele>1324.00</ele>
	<time>2025-08-16T06:16:27.000Z</time>
</trkpt>
<trkpt lat="45.9666380" lon="10.2003540">
	<ele>1324.20</ele>
	<time>2025-08-16T06:16:28.000Z</time>
</trkpt>
<trkpt lat="45.9666480" lon="10.2003660">
	<ele>1324.40</ele>
	<time>2025-08-16T06:16:29.000Z</time>
</trkpt>
<trkpt lat="45.9666570" lon="10.2003800">
	<ele>1324.60</ele>
	<time>2025-08-16T06:16:30.000Z</time>
</trkpt>
<trkpt lat="45.9666640" lon="10.2003920">
	<ele>1324.80</ele>
	<time>2025-08-16T06:16:31.000Z</time>
</trkpt>
<trkpt lat="45.9666720" lon="10.2004010">
	<ele>1325.00</ele>
	<time>2025-08-16T06:16:32.000Z</time>
</trkpt>
<trkpt lat="45.9666780" lon="10.2004110">
	<ele>1325.00</ele>
	<time>2025-08-16T06:16:33.000Z</time>
</trkpt>
<trkpt lat="45.9666910" lon="10.2004250">
	<ele>1325.20</ele>
	<time>2025-08-16T06:16:34.000Z</time>
</trkpt>
<trkpt lat="45.9667030" lon="10.2004390">
	<ele>1325.20</ele>
	<time>2025-08-16T06:16:35.000Z</time>
</trkpt>
<trkpt lat="45.9667100" lon="10.2004590">
	<ele>1325.40</ele>
	<time>2025-08-16T06:16:36.000Z</time>
</trkpt>
<trkpt lat="45.9667100" lon="10.2004590">
	<ele>1325.60</ele>
	<time>2025-08-16T06:16:37.000Z</time>
</trkpt>
<trkpt lat="45.9667310" lon="10.2004900">
	<ele>1325.80</ele>
	<time>2025-08-16T06:16:38.000Z</time>
</trkpt>
<trkpt lat="45.9667350" lon="10.2004990">
	<ele>1325.80</ele>
	<time>2025-08-16T06:16:39.000Z</time>
</trkpt>
<trkpt lat="45.9667530" lon="10.2005070">
	<ele>1326.00</ele>
	<time>2025-08-16T06:16:40.000Z</time>
</trkpt>
<trkpt lat="45.9667630" lon="10.2005090">
	<ele>1326.20</ele>
	<time>2025-08-16T06:16:41.000Z</time>
</trkpt>
<trkpt lat="45.9667760" lon="10.2005190">
	<ele>1326.20</ele>
	<time>2025-08-16T06:16:42.000Z</time>
</trkpt>
<trkpt lat="45.9667850" lon="10.2005290">
	<ele>1326.40</ele>
	<time>2025-08-16T06:16:43.000Z</time>
</trkpt>
<trkpt lat="45.9667930" lon="10.2005430">
	<ele>1326.60</ele>
	<time>2025-08-16T06:16:44.000Z</time>
</trkpt>
<trkpt lat="45.9667990" lon="10.2005570">
	<ele>1326.80</ele>
	<time>2025-08-16T06:16:45.000Z</time>
</trkpt>
<trkpt lat="45.9668160" lon="10.2005630">
	<ele>1326.80</ele>
	<time>2025-08-16T06:16:46.000Z</time>
</trkpt>
<trkpt lat="45.9668190" lon="10.2005680">
	<ele>1327.00</ele>
	<time>2025-08-16T06:16:47.000Z</time>
</trkpt>
<trkpt lat="45.9668200" lon="10.2005730">
	<ele>1327.20</ele>
	<time>2025-08-16T06:16:48.000Z</time>
</trkpt>
<trkpt lat="45.9668210" lon="10.2005900">
	<ele>1327.40</ele>
	<time>2025-08-16T06:16:49.000Z</time>
</trkpt>
<trkpt lat="45.9668250" lon="10.2006080">
	<ele>1327.40</ele>
	<time>2025-08-16T06:16:50.000Z</time>
</trkpt>
<trkpt lat="45.9668270" lon="10.2006260">
	<ele>1327.60</ele>
	<time>2025-08-16T06:16:51.000Z</time>
</trkpt>
<trkpt lat="45.9668340" lon="10.2006390">
	<ele>1327.80</ele>
	<time>2025-08-16T06:16:52.000Z</time>
</trkpt>
<trkpt lat="45.9668310" lon="10.2006580">
	<ele>1327.80</ele>
	<time>2025-08-16T06:16:53.000Z</time>
</trkpt>
<trkpt lat="45.9668230" lon="10.2006700">
	<ele>1327.80</ele>
	<time>2025-08-16T06:16:54.000Z</time>
</trkpt>
<trkpt lat="45.9668410" lon="10.2006830">
	<ele>1328.00</ele>
	<time>2025-08-16T06:16:55.000Z</time>
</trkpt>
<trkpt lat="45.9668580" lon="10.2006850">
	<ele>1328.00</ele>
	<time>2025-08-16T06:16:56.000Z</time>
</trkpt>
<trkpt lat="45.9668770" lon="10.2006970">
	<ele>1328.20</ele>
	<time>2025-08-16T06:16:57.000Z</time>
</trkpt>
<trkpt lat="45.9668880" lon="10.2007100">
	<ele>1328.20</ele>
	<time>2025-08-16T06:16:58.000Z</time>
</trkpt>
<trkpt lat="45.9668920" lon="10.2007310">
	<ele>1328.40</ele>
	<time>2025-08-16T06:16:59.000Z</time>
</trkpt>
<trkpt lat="45.9668940" lon="10.2007480">
	<ele>1328.60</ele>
	<time>2025-08-16T06:17:00.000Z</time>
</trkpt>
<trkpt lat="45.9668930" lon="10.2007620">
	<ele>1328.80</ele>
	<time>2025-08-16T06:17:01.000Z</time>
</trkpt>
<trkpt lat="45.9668980" lon="10.2007640">
	<ele>1329.00</ele>
	<time>2025-08-16T06:17:02.000Z</time>
</trkpt>
<trkpt lat="45.9669040" lon="10.2007570">
	<ele>1329.20</ele>
	<time>2025-08-16T06:17:03.000Z</time>
</trkpt>
<trkpt lat="45.9669160" lon="10.2007600">
	<ele>1329.40</ele>
	<time>2025-08-16T06:17:04.000Z</time>
</trkpt>
<trkpt lat="45.9669290" lon="10.2007700">
	<ele>1329.40</ele>
	<time>2025-08-16T06:17:05.000Z</time>
</trkpt>
<trkpt lat="45.9669360" lon="10.2007890">
	<ele>1329.60</ele>
	<time>2025-08-16T06:17:06.000Z</time>
</trkpt>
<trkpt lat="45.9669300" lon="10.2007900">
	<ele>1329.80</ele>
	<time>2025-08-16T06:17:07.000Z</time>
</trkpt>
<trkpt lat="45.9669160" lon="10.2007930">
	<ele>1329.80</ele>
	<time>2025-08-16T06:17:08.000Z</time>
</trkpt>
<trkpt lat="45.9669180" lon="10.2008000">
	<ele>1329.80</ele>
	<time>2025-08-16T06:17:09.000Z</time>
</trkpt>
<trkpt lat="45.9669370" lon="10.2008090">
	<ele>1330.00</ele>
	<time>2025-08-16T06:17:10.000Z</time>
</trkpt>
<trkpt lat="45.9669460" lon="10.2008300">
	<ele>1330.20</ele>
	<time>2025-08-16T06:17:11.000Z</time>
</trkpt>
<trkpt lat="45.9669430" lon="10.2008480">
	<ele>1330.40</ele>
	<time>2025-08-16T06:17:12.000Z</time>
</trkpt>
<trkpt lat="45.9669330" lon="10.2008790">
	<ele>1330.40</ele>
	<time>2025-08-16T06:17:13.000Z</time>
</trkpt>
<trkpt lat="45.9669420" lon="10.2008800">
	<ele>1330.60</ele>
	<time>2025-08-16T06:17:14.000Z</time>
</trkpt>
<trkpt lat="45.9669520" lon="10.2008950">
	<ele>1330.60</ele>
	<time>2025-08-16T06:17:15.000Z</time>
</trkpt>
<trkpt lat="45.9669580" lon="10.2009040">
	<ele>1330.80</ele>
	<time>2025-08-16T06:17:16.000Z</time>
</trkpt>
<trkpt lat="45.9669630" lon="10.2009070">
	<ele>1330.80</ele>
	<time>2025-08-16T06:17:17.000Z</time>
</trkpt>
<trkpt lat="45.9669700" lon="10.2009200">
	<ele>1331.00</ele>
	<time>2025-08-16T06:17:18.000Z</time>
</trkpt>
<trkpt lat="45.9669760" lon="10.2009430">
	<ele>1331.20</ele>
	<time>2025-08-16T06:17:19.000Z</time>
</trkpt>
<trkpt lat="45.9669770" lon="10.2009600">
	<ele>1331.40</ele>
	<time>2025-08-16T06:17:20.000Z</time>
</trkpt>
<trkpt lat="45.9669800" lon="10.2009680">
	<ele>1331.40</ele>
	<time>2025-08-16T06:17:21.000Z</time>
</trkpt>
<trkpt lat="45.9669800" lon="10.2009740">
	<ele>1331.60</ele>
	<time>2025-08-16T06:17:22.000Z</time>
</trkpt>
<trkpt lat="45.9669700" lon="10.2009740">
	<ele>1331.80</ele>
	<time>2025-08-16T06:17:23.000Z</time>
</trkpt>
<trkpt lat="45.9669710" lon="10.2009810">
	<ele>1332.00</ele>
	<time>2025-08-16T06:17:24.000Z</time>
</trkpt>
<trkpt lat="45.9669750" lon="10.2009950">
	<ele>1332.20</ele>
	<time>2025-08-16T06:17:25.000Z</time>
</trkpt>
<trkpt lat="45.9669840" lon="10.2010160">
	<ele>1332.40</ele>
	<time>2025-08-16T06:17:26.000Z</time>
</trkpt>
<trkpt lat="45.9669880" lon="10.2010330">
	<ele>1332.60</ele>
	<time>2025-08-16T06:17:27.000Z</time>
</trkpt>
<trkpt lat="45.9669940" lon="10.2010500">
	<ele>1332.80</ele>
	<time>2025-08-16T06:17:28.000Z</time>
</trkpt>
<trkpt lat="45.9669940" lon="10.2010600">
	<ele>1332.80</ele>
	<time>2025-08-16T06:17:29.000Z</time>
</trkpt>
<trkpt lat="45.9669970" lon="10.2010660">
	<ele>1333.00</ele>
	<time>2025-08-16T06:17:30.000Z</time>
</trkpt>
<trkpt lat="45.9670010" lon="10.2010640">
	<ele>1333.00</ele>
	<time>2025-08-16T06:17:31.000Z</time>
</trkpt>
<trkpt lat="45.9670030" lon="10.2010670">
	<ele>1333.00</ele>
	<time>2025-08-16T06:17:32.000Z</time>
</trkpt>
<trkpt lat="45.9670050" lon="10.2010790">
	<ele>1333.20</ele>
	<time>2025-08-16T06:17:33.000Z</time>
</trkpt>
<trkpt lat="45.9670050" lon="10.2011040">
	<ele>1333.20</ele>
	<time>2025-08-16T06:17:34.000Z</time>
</trkpt>
<trkpt lat="45.9670020" lon="10.2011280">
	<ele>1333.20</ele>
	<time>2025-08-16T06:17:35.000Z</time>
</trkpt>
<trkpt lat="45.9670070" lon="10.2011530">
	<ele>1333.40</ele>
	<time>2025-08-16T06:17:36.000Z</time>
</trkpt>
<trkpt lat="45.9670060" lon="10.2011700">
	<ele>1333.60</ele>
	<time>2025-08-16T06:17:37.000Z</time>
</trkpt>
<trkpt lat="45.9670100" lon="10.2011870">
	<ele>1333.80</ele>
	<time>2025-08-16T06:17:38.000Z</time>
</trkpt>
<trkpt lat="45.9670180" lon="10.2011950">
	<ele>1333.80</ele>
	<time>2025-08-16T06:17:39.000Z</time>
</trkpt>
<trkpt lat="45.9670330" lon="10.2011970">
	<ele>1334.00</ele>
	<time>2025-08-16T06:17:40.000Z</time>
</trkpt>
<trkpt lat="45.9670430" lon="10.2012090">
	<ele>1334.00</ele>
	<time>2025-08-16T06:17:41.000Z</time>
</trkpt>
<trkpt lat="45.9670450" lon="10.2012140">
	<ele>1334.20</ele>
	<time>2025-08-16T06:17:42.000Z</time>
</trkpt>
<trkpt lat="45.9670470" lon="10.2012260">
	<ele>1334.20</ele>
	<time>2025-08-16T06:17:43.000Z</time>
</trkpt>
<trkpt lat="45.9670510" lon="10.2012410">
	<ele>1334.40</ele>
	<time>2025-08-16T06:17:44.000Z</time>
</trkpt>
<trkpt lat="45.9670590" lon="10.2012450">
	<ele>1334.40</ele>
	<time>2025-08-16T06:17:45.000Z</time>
</trkpt>
<trkpt lat="45.9670570" lon="10.2012550">
	<ele>1334.60</ele>
	<time>2025-08-16T06:17:46.000Z</time>
</trkpt>
<trkpt lat="45.9670630" lon="10.2012600">
	<ele>1334.80</ele>
	<time>2025-08-16T06:17:47.000Z</time>
</trkpt>
<trkpt lat="45.9670660" lon="10.2012650">
	<ele>1334.80</ele>
	<time>2025-08-16T06:17:48.000Z</time>
</trkpt>
<trkpt lat="45.9670730" lon="10.2012660">
	<ele>1335.00</ele>
	<time>2025-08-16T06:17:49.000Z</time>
</trkpt>
<trkpt lat="45.9670790" lon="10.2012700">
	<ele>1335.00</ele>
	<time>2025-08-16T06:17:50.000Z</time>
</trkpt>
<trkpt lat="45.9670870" lon="10.2012810">
	<ele>1335.20</ele>
	<time>2025-08-16T06:17:51.000Z</time>
</trkpt>
<trkpt lat="45.9670990" lon="10.2012990">
	<ele>1335.40</ele>
	<time>2025-08-16T06:17:52.000Z</time>
</trkpt>
<trkpt lat="45.9671090" lon="10.2013160">
	<ele>1335.60</ele>
	<time>2025-08-16T06:17:53.000Z</time>
</trkpt>
<trkpt lat="45.9671160" lon="10.2013400">
	<ele>1335.80</ele>
	<time>2025-08-16T06:17:54.000Z</time>
</trkpt>
<trkpt lat="45.9671200" lon="10.2013560">
	<ele>1336.00</ele>
	<time>2025-08-16T06:17:55.000Z</time>
</trkpt>
<trkpt lat="45.9671200" lon="10.2013720">
	<ele>1336.00</ele>
	<time>2025-08-16T06:17:56.000Z</time>
</trkpt>
<trkpt lat="45.9671200" lon="10.2013870">
	<ele>1336.00</ele>
	<time>2025-08-16T06:17:57.000Z</time>
</trkpt>
<trkpt lat="45.9671200" lon="10.2014000">
	<ele>1336.20</ele>
	<time>2025-08-16T06:17:58.000Z</time>
</trkpt>
<trkpt lat="45.9671250" lon="10.2014110">
	<ele>1336.40</ele>
	<time>2025-08-16T06:17:59.000Z</time>
</trkpt>
<trkpt lat="45.9671300" lon="10.2014190">
	<ele>1336.60</ele>
	<time>2025-08-16T06:18:00.000Z</time>
</trkpt>
<trkpt lat="45.9671310" lon="10.2014310">
	<ele>1336.60</ele>
	<time>2025-08-16T06:18:01.000Z</time>
</trkpt>
<trkpt lat="45.9671330" lon="10.2014360">
	<ele>1336.80</ele>
	<time>2025-08-16T06:18:02.000Z</time>
</trkpt>
<trkpt lat="45.9671360" lon="10.2014390">
	<ele>1337.00</ele>
	<time>2025-08-16T06:18:03.000Z</time>
</trkpt>
<trkpt lat="45.9671410" lon="10.2014470">
	<ele>1337.00</ele>
	<time>2025-08-16T06:18:04.000Z</time>
</trkpt>
<trkpt lat="45.9671490" lon="10.2014520">
	<ele>1337.20</ele>
	<time>2025-08-16T06:18:05.000Z</time>
</trkpt>
<trkpt lat="45.9671610" lon="10.2014550">
	<ele>1337.40</ele>
	<time>2025-08-16T06:18:06.000Z</time>
</trkpt>
<trkpt lat="45.9671720" lon="10.2014570">
	<ele>1337.60</ele>
	<time>2025-08-16T06:18:07.000Z</time>
</trkpt>
<trkpt lat="45.9671780" lon="10.2014660">
	<ele>1337.60</ele>
	<time>2025-08-16T06:18:08.000Z</time>
</trkpt>
<trkpt lat="45.9671770" lon="10.2014740">
	<ele>1337.80</ele>
	<time>2025-08-16T06:18:09.000Z</time>
</trkpt>
<trkpt lat="45.9671730" lon="10.2014790">
	<ele>1338.00</ele>
	<time>2025-08-16T06:18:10.000Z</time>
</trkpt>
<trkpt lat="45.9671740" lon="10.2014870">
	<ele>1338.00</ele>
	<time>2025-08-16T06:18:11.000Z</time>
</trkpt>
<trkpt lat="45.9671800" lon="10.2014940">
	<ele>1338.20</ele>
	<time>2025-08-16T06:18:12.000Z</time>
</trkpt>
<trkpt lat="45.9671860" lon="10.2015040">
	<ele>1338.40</ele>
	<time>2025-08-16T06:18:13.000Z</time>
</trkpt>
<trkpt lat="45.9671890" lon="10.2015090">
	<ele>1338.60</ele>
	<time>2025-08-16T06:18:14.000Z</time>
</trkpt>
<trkpt lat="45.9671920" lon="10.2015160">
	<ele>1338.60</ele>
	<time>2025-08-16T06:18:15.000Z</time>
</trkpt>
<trkpt lat="45.9671950" lon="10.2015270">
	<ele>1338.80</ele>
	<time>2025-08-16T06:18:16.000Z</time>
</trkpt>
<trkpt lat="45.9671980" lon="10.2015350">
	<ele>1339.00</ele>
	<time>2025-08-16T06:18:17.000Z</time>
</trkpt>
<trkpt lat="45.9672000" lon="10.2015400">
	<ele>1339.20</ele>
	<time>2025-08-16T06:18:18.000Z</time>
</trkpt>
<trkpt lat="45.9671970" lon="10.2015470">
	<ele>1339.20</ele>
	<time>2025-08-16T06:18:19.000Z</time>
</trkpt>
<trkpt lat="45.9672000" lon="10.2015540">
	<ele>1339.20</ele>
	<time>2025-08-16T06:18:20.000Z</time>
</trkpt>
<trkpt lat="45.9672070" lon="10.2015590">
	<ele>1339.40</ele>
	<time>2025-08-16T06:18:21.000Z</time>
</trkpt>
<trkpt lat="45.9672180" lon="10.2015730">
	<ele>1339.80</ele>
	<time>2025-08-16T06:18:22.000Z</time>
</trkpt>
<trkpt lat="45.9672260" lon="10.2015870">
	<ele>1339.80</ele>
	<time>2025-08-16T06:18:23.000Z</time>
</trkpt>
<trkpt lat="45.9672260" lon="10.2016030">
	<ele>1340.00</ele>
	<time>2025-08-16T06:18:24.000Z</time>
</trkpt>
<trkpt lat="45.9672230" lon="10.2016120">
	<ele>1340.20</ele>
	<time>2025-08-16T06:18:25.000Z</time>
</trkpt>
<trkpt lat="45.9672250" lon="10.2016240">
	<ele>1340.60</ele>
	<time>2025-08-16T06:18:26.000Z</time>
</trkpt>
<trkpt lat="45.9672230" lon="10.2016370">
	<ele>1340.80</ele>
	<time>2025-08-16T06:18:27.000Z</time>
</trkpt>
<trkpt lat="45.9672230" lon="10.2016430">
	<ele>1340.80</ele>
	<time>2025-08-16T06:18:28.000Z</time>
</trkpt>
<trkpt lat="45.9672310" lon="10.2016480">
	<ele>1341.00</ele>
	<time>2025-08-16T06:18:29.000Z</time>
</trkpt>
<trkpt lat="45.9672430" lon="10.2016500">
	<ele>1341.00</ele>
	<time>2025-08-16T06:18:30.000Z</time>
</trkpt>
<trkpt lat="45.9672580" lon="10.2016630">
	<ele>1341.20</ele>
	<time>2025-08-16T06:18:31.000Z</time>
</trkpt>
<trkpt lat="45.9672700" lon="10.2016760">
	<ele>1341.40</ele>
	<time>2025-08-16T06:18:32.000Z</time>
</trkpt>
<trkpt lat="45.9672770" lon="10.2016850">
	<ele>1341.40</ele>
	<time>2025-08-16T06:18:33.000Z</time>
</trkpt>
<trkpt lat="45.9672790" lon="10.2016930">
	<ele>1341.60</ele>
	<time>2025-08-16T06:18:34.000Z</time>
</trkpt>
<trkpt lat="45.9672760" lon="10.2017060">
	<ele>1341.80</ele>
	<time>2025-08-16T06:18:35.000Z</time>
</trkpt>
<trkpt lat="45.9672730" lon="10.2017070">
	<ele>1342.00</ele>
	<time>2025-08-16T06:18:36.000Z</time>
</trkpt>
<trkpt lat="45.9672700" lon="10.2017090">
	<ele>1342.40</ele>
	<time>2025-08-16T06:18:37.000Z</time>
</trkpt>
<trkpt lat="45.9672730" lon="10.2017130">
	<ele>1342.60</ele>
	<time>2025-08-16T06:18:38.000Z</time>
</trkpt>
<trkpt lat="45.9672780" lon="10.2017190">
	<ele>1342.60</ele>
	<time>2025-08-16T06:18:39.000Z</time>
</trkpt>
<trkpt lat="45.9672760" lon="10.2017240">
	<ele>1342.60</ele>
	<time>2025-08-16T06:18:40.000Z</time>
</trkpt>
<trkpt lat="45.9672770" lon="10.2017280">
	<ele>1342.80</ele>
	<time>2025-08-16T06:18:41.000Z</time>
</trkpt>
<trkpt lat="45.9672790" lon="10.2017330">
	<ele>1343.00</ele>
	<time>2025-08-16T06:18:42.000Z</time>
</trkpt>
<trkpt lat="45.9672800" lon="10.2017380">
	<ele>1343.20</ele>
	<time>2025-08-16T06:18:43.000Z</time>
</trkpt>
<trkpt lat="45.9672870" lon="10.2017470">
	<ele>1343.40</ele>
	<time>2025-08-16T06:18:44.000Z</time>
</trkpt>
<trkpt lat="45.9672940" lon="10.2017630">
	<ele>1343.40</ele>
	<time>2025-08-16T06:18:45.000Z</time>
</trkpt>
<trkpt lat="45.9672950" lon="10.2017770">
	<ele>1343.60</ele>
	<time>2025-08-16T06:18:46.000Z</time>
</trkpt>
<trkpt lat="45.9672980" lon="10.2017900">
	<ele>1343.80</ele>
	<time>2025-08-16T06:18:47.000Z</time>
</trkpt>
<trkpt lat="45.9672950" lon="10.2018090">
	<ele>1344.20</ele>
	<time>2025-08-16T06:18:48.000Z</time>
</trkpt>
<trkpt lat="45.9672940" lon="10.2018260">
	<ele>1344.40</ele>
	<time>2025-08-16T06:18:49.000Z</time>
</trkpt>
<trkpt lat="45.9672960" lon="10.2018350">
	<ele>1344.40</ele>
	<time>2025-08-16T06:18:50.000Z</time>
</trkpt>
<trkpt lat="45.9672960" lon="10.2018440">
	<ele>1344.60</ele>
	<time>2025-08-16T06:18:51.000Z</time>
</trkpt>
<trkpt lat="45.9672930" lon="10.2018550">
	<ele>1344.60</ele>
	<time>2025-08-16T06:18:52.000Z</time>
</trkpt>
<trkpt lat="45.9672930" lon="10.2018680">
	<ele>1344.80</ele>
	<time>2025-08-16T06:18:53.000Z</time>
</trkpt>
<trkpt lat="45.9672880" lon="10.2018830">
	<ele>1345.20</ele>
	<time>2025-08-16T06:18:54.000Z</time>
</trkpt>
<trkpt lat="45.9672910" lon="10.2018890">
	<ele>1345.40</ele>
	<time>2025-08-16T06:18:55.000Z</time>
</trkpt>
<trkpt lat="45.9672920" lon="10.2018930">
	<ele>1345.60</ele>
	<time>2025-08-16T06:18:56.000Z</time>
</trkpt>
<trkpt lat="45.9672940" lon="10.2019060">
	<ele>1345.60</ele>
	<time>2025-08-16T06:18:57.000Z</time>
</trkpt>
<trkpt lat="45.9672950" lon="10.2019260">
	<ele>1345.80</ele>
	<time>2025-08-16T06:18:58.000Z</time>
</trkpt>
<trkpt lat="45.9673010" lon="10.2019400">
	<ele>1346.00</ele>
	<time>2025-08-16T06:18:59.000Z</time>
</trkpt>
<trkpt lat="45.9672960" lon="10.2019500">
	<ele>1346.00</ele>
	<time>2025-08-16T06:19:00.000Z</time>
</trkpt>
<trkpt lat="45.9672980" lon="10.2019550">
	<ele>1346.20</ele>
	<time>2025-08-16T06:19:01.000Z</time>
</trkpt>
<trkpt lat="45.9673070" lon="10.2019690">
	<ele>1346.40</ele>
	<time>2025-08-16T06:19:02.000Z</time>
</trkpt>
<trkpt lat="45.9673140" lon="10.2019850">
	<ele>1346.60</ele>
	<time>2025-08-16T06:19:03.000Z</time>
</trkpt>
<trkpt lat="45.9673210" lon="10.2020000">
	<ele>1346.60</ele>
	<time>2025-08-16T06:19:04.000Z</time>
</trkpt>
<trkpt lat="45.9673270" lon="10.2020190">
	<ele>1346.80</ele>
	<time>2025-08-16T06:19:05.000Z</time>
</trkpt>
<trkpt lat="45.9673290" lon="10.2020320">
	<ele>1347.00</ele>
	<time>2025-08-16T06:19:06.000Z</time>
</trkpt>
<trkpt lat="45.9673360" lon="10.2020470">
	<ele>1347.00</ele>
	<time>2025-08-16T06:19:07.000Z</time>
</trkpt>
<trkpt lat="45.9673390" lon="10.2020610">
	<ele>1347.20</ele>
	<time>2025-08-16T06:19:08.000Z</time>
</trkpt>
<trkpt lat="45.9673390" lon="10.2020690">
	<ele>1347.40</ele>
	<time>2025-08-16T06:19:09.000Z</time>
</trkpt>
<trkpt lat="45.9673410" lon="10.2020720">
	<ele>1347.60</ele>
	<time>2025-08-16T06:19:10.000Z</time>
</trkpt>
<trkpt lat="45.9673430" lon="10.2020750">
	<ele>1347.80</ele>
	<time>2025-08-16T06:19:11.000Z</time>
</trkpt>
<trkpt lat="45.9673490" lon="10.2020740">
	<ele>1347.80</ele>
	<time>2025-08-16T06:19:12.000Z</time>
</trkpt>
<trkpt lat="45.9673520" lon="10.2020790">
	<ele>1348.00</ele>
	<time>2025-08-16T06:19:13.000Z</time>
</trkpt>
<trkpt lat="45.9673450" lon="10.2021040">
	<ele>1348.00</ele>
	<time>2025-08-16T06:19:14.000Z</time>
</trkpt>
<trkpt lat="45.9673550" lon="10.2021360">
	<ele>1348.40</ele>
	<time>2025-08-16T06:19:15.000Z</time>
</trkpt>
<trkpt lat="45.9673660" lon="10.2021510">
	<ele>1348.40</ele>
	<time>2025-08-16T06:19:16.000Z</time>
</trkpt>
<trkpt lat="45.9673690" lon="10.2021550">
	<ele>1348.60</ele>
	<time>2025-08-16T06:19:17.000Z</time>
</trkpt>
<trkpt lat="45.9673780" lon="10.2021630">
	<ele>1348.80</ele>
	<time>2025-08-16T06:19:18.000Z</time>
</trkpt>
<trkpt lat="45.9673900" lon="10.2021700">
	<ele>1349.00</ele>
	<time>2025-08-16T06:19:19.000Z</time>
</trkpt>
<trkpt lat="45.9674080" lon="10.2021680">
	<ele>1349.00</ele>
	<time>2025-08-16T06:19:20.000Z</time>
</trkpt>
<trkpt lat="45.9674160" lon="10.2021660">
	<ele>1349.20</ele>
	<time>2025-08-16T06:19:21.000Z</time>
</trkpt>
<trkpt lat="45.9674240" lon="10.2021780">
	<ele>1349.20</ele>
	<time>2025-08-16T06:19:22.000Z</time>
</trkpt>
<trkpt lat="45.9674270" lon="10.2021880">
	<ele>1349.40</ele>
	<time>2025-08-16T06:19:23.000Z</time>
</trkpt>
<trkpt lat="45.9674340" lon="10.2022070">
	<ele>1349.60</ele>
	<time>2025-08-16T06:19:24.000Z</time>
</trkpt>
<trkpt lat="45.9674410" lon="10.2022200">
	<ele>1349.60</ele>
	<time>2025-08-16T06:19:25.000Z</time>
</trkpt>
<trkpt lat="45.9674570" lon="10.2022310">
	<ele>1349.80</ele>
	<time>2025-08-16T06:19:26.000Z</time>
</trkpt>
<trkpt lat="45.9674740" lon="10.2022490">
	<ele>1350.00</ele>
	<time>2025-08-16T06:19:27.000Z</time>
</trkpt>
<trkpt lat="45.9674800" lon="10.2022660">
	<ele>1350.00</ele>
	<time>2025-08-16T06:19:28.000Z</time>
</trkpt>
<trkpt lat="45.9674840" lon="10.2022840">
	<ele>1350.40</ele>
	<time>2025-08-16T06:19:29.000Z</time>
</trkpt>
<trkpt lat="45.9674900" lon="10.2023000">
	<ele>1350.60</ele>
	<time>2025-08-16T06:19:30.000Z</time>
</trkpt>
<trkpt lat="45.9674980" lon="10.2023160">
	<ele>1350.60</ele>
	<time>2025-08-16T06:19:31.000Z</time>
</trkpt>
<trkpt lat="45.9675060" lon="10.2023320">
	<ele>1350.80</ele>
	<time>2025-08-16T06:19:32.000Z</time>
</trkpt>
<trkpt lat="45.9675130" lon="10.2023410">
	<ele>1351.00</ele>
	<time>2025-08-16T06:19:33.000Z</time>
</trkpt>
<trkpt lat="45.9675440" lon="10.2023240">
	<ele>1351.20</ele>
	<time>2025-08-16T06:19:34.000Z</time>
</trkpt>
<trkpt lat="45.9675340" lon="10.2023120">
	<ele>1351.40</ele>
	<time>2025-08-16T06:19:35.000Z</time>
</trkpt>
<trkpt lat="45.9675250" lon="10.2023190">
	<ele>1351.60</ele>
	<time>2025-08-16T06:19:36.000Z</time>
</trkpt>
<trkpt lat="45.9675160" lon="10.2023220">
	<ele>1351.60</ele>
	<time>2025-08-16T06:19:37.000Z</time>
</trkpt>
<trkpt lat="45.9675290" lon="10.2023380">
	<ele>1351.80</ele>
	<time>2025-08-16T06:19:38.000Z</time>
</trkpt>
<trkpt lat="45.9675330" lon="10.2023410">
	<ele>1352.00</ele>
	<time>2025-08-16T06:19:39.000Z</time>
</trkpt>
<trkpt lat="45.9675320" lon="10.2023440">
	<ele>1352.40</ele>
	<time>2025-08-16T06:19:40.000Z</time>
</trkpt>
<trkpt lat="45.9675300" lon="10.2023460">
	<ele>1352.40</ele>
	<time>2025-08-16T06:19:41.000Z</time>
</trkpt>
<trkpt lat="45.9675310" lon="10.2023470">
	<ele>1352.60</ele>
	<time>2025-08-16T06:19:42.000Z</time>
</trkpt>
<trkpt lat="45.9675300" lon="10.2023500">
	<ele>1352.60</ele>
	<time>2025-08-16T06:19:43.000Z</time>
</trkpt>
<trkpt lat="45.9675340" lon="10.2023680">
	<ele>1352.60</ele>
	<time>2025-08-16T06:19:44.000Z</time>
</trkpt>
<trkpt lat="45.9675340" lon="10.2023810">
	<ele>1352.60</ele>
	<time>2025-08-16T06:19:45.000Z</time>
</trkpt>
<trkpt lat="45.9675410" lon="10.2023920">
	<ele>1352.60</ele>
	<time>2025-08-16T06:19:46.000Z</time>
</trkpt>
<trkpt lat="45.9675450" lon="10.2023990">
	<ele>1352.60</ele>
	<time>2025-08-16T06:19:47.000Z</time>
</trkpt>
<trkpt lat="45.9675440" lon="10.2024120">
	<ele>1352.80</ele>
	<time>2025-08-16T06:19:48.000Z</time>
</trkpt>
<trkpt lat="45.9675490" lon="10.2024230">
	<ele>1353.00</ele>
	<time>2025-08-16T06:19:49.000Z</time>
</trkpt>
<trkpt lat="45.9675500" lon="10.2024320">
	<ele>1353.00</ele>
	<time>2025-08-16T06:19:50.000Z</time>
</trkpt>
<trkpt lat="45.9675630" lon="10.2024450">
	<ele>1353.40</ele>
	<time>2025-08-16T06:19:51.000Z</time>
</trkpt>
<trkpt lat="45.9675730" lon="10.2024540">
	<ele>1353.60</ele>
	<time>2025-08-16T06:19:52.000Z</time>
</trkpt>
<trkpt lat="45.9675780" lon="10.2024590">
	<ele>1353.60</ele>
	<time>2025-08-16T06:19:53.000Z</time>
</trkpt>
<trkpt lat="45.9675790" lon="10.2024620">
	<ele>1353.80</ele>
	<time>2025-08-16T06:19:54.000Z</time>
</trkpt>
<trkpt lat="45.9675820" lon="10.2024680">
	<ele>1354.00</ele>
	<time>2025-08-16T06:19:55.000Z</time>
</trkpt>
<trkpt lat="45.9675860" lon="10.2024750">
	<ele>1354.20</ele>
	<time>2025-08-16T06:19:56.000Z</time>
</trkpt>
<trkpt lat="45.9675940" lon="10.2024840">
	<ele>1354.40</ele>
	<time>2025-08-16T06:19:57.000Z</time>
</trkpt>
<trkpt lat="45.9676050" lon="10.2025030">
	<ele>1354.60</ele>
	<time>2025-08-16T06:19:58.000Z</time>
</trkpt>
<trkpt lat="45.9676080" lon="10.2025120">
	<ele>1354.80</ele>
	<time>2025-08-16T06:19:59.000Z</time>
</trkpt>
<trkpt lat="45.9676140" lon="10.2025230">
	<ele>1355.00</ele>
	<time>2025-08-16T06:20:00.000Z</time>
</trkpt>
<trkpt lat="45.9676190" lon="10.2025270">
	<ele>1355.20</ele>
	<time>2025-08-16T06:20:01.000Z</time>
</trkpt>
<trkpt lat="45.9676310" lon="10.2025490">
	<ele>1355.20</ele>
	<time>2025-08-16T06:20:02.000Z</time>
</trkpt>
<trkpt lat="45.9676340" lon="10.2025500">
	<ele>1355.40</ele>
	<time>2025-08-16T06:20:03.000Z</time>
</trkpt>
<trkpt lat="45.9676350" lon="10.2025510">
	<ele>1355.60</ele>
	<time>2025-08-16T06:20:04.000Z</time>
</trkpt>
<trkpt lat="45.9676350" lon="10.2025620">
	<ele>1355.80</ele>
	<time>2025-08-16T06:20:05.000Z</time>
</trkpt>
<trkpt lat="45.9676360" lon="10.2025710">
	<ele>1356.20</ele>
	<time>2025-08-16T06:20:06.000Z</time>
</trkpt>
<trkpt lat="45.9676400" lon="10.2025740">
	<ele>1356.20</ele>
	<time>2025-08-16T06:20:07.000Z</time>
</trkpt>
<trkpt lat="45.9676450" lon="10.2025710">
	<ele>1356.40</ele>
	<time>2025-08-16T06:20:08.000Z</time>
</trkpt>
<trkpt lat="45.9676510" lon="10.2025800">
	<ele>1356.40</ele>
	<time>2025-08-16T06:20:09.000Z</time>
</trkpt>
<trkpt lat="45.9676620" lon="10.2025840">
	<ele>1356.80</ele>
	<time>2025-08-16T06:20:10.000Z</time>
</trkpt>
<trkpt lat="45.9676650" lon="10.2025820">
	<ele>1357.00</ele>
	<time>2025-08-16T06:20:11.000Z</time>
</trkpt>
<trkpt lat="45.9676690" lon="10.2025810">
	<ele>1357.20</ele>
	<time>2025-08-16T06:20:12.000Z</time>
</trkpt>
<trkpt lat="45.9676680" lon="10.2025660">
	<ele>1357.20</ele>
	<time>2025-08-16T06:20:13.000Z</time>
</trkpt>
<trkpt lat="45.9676670" lon="10.2025670">
	<ele>1357.40</ele>
	<time>2025-08-16T06:20:14.000Z</time>
</trkpt>
<trkpt lat="45.9676690" lon="10.2025690">
	<ele>1357.60</ele>
	<time>2025-08-16T06:20:15.000Z</time>
</trkpt>
<trkpt lat="45.9676730" lon="10.2025600">
	<ele>1357.60</ele>
	<time>2025-08-16T06:20:16.000Z</time>
</trkpt>
<trkpt lat="45.9676750" lon="10.2025620">
	<ele>1357.60</ele>
	<time>2025-08-16T06:20:17.000Z</time>
</trkpt>
<trkpt lat="45.9676780" lon="10.2025650">
	<ele>1357.60</ele>
	<time>2025-08-16T06:20:18.000Z</time>
</trkpt>
<trkpt lat="45.9676820" lon="10.2025730">
	<ele>1357.60</ele>
	<time>2025-08-16T06:20:19.000Z</time>
</trkpt>
<trkpt lat="45.9676850" lon="10.2025760">
	<ele>1357.80</ele>
	<time>2025-08-16T06:20:20.000Z</time>
</trkpt>
<trkpt lat="45.9676910" lon="10.2025880">
	<ele>1358.20</ele>
	<time>2025-08-16T06:20:21.000Z</time>
</trkpt>
<trkpt lat="45.9677070" lon="10.2025940">
	<ele>1358.20</ele>
	<time>2025-08-16T06:20:22.000Z</time>
</trkpt>
<trkpt lat="45.9677170" lon="10.2026070">
	<ele>1358.60</ele>
	<time>2025-08-16T06:20:23.000Z</time>
</trkpt>
<trkpt lat="45.9677330" lon="10.2026100">
	<ele>1358.80</ele>
	<time>2025-08-16T06:20:24.000Z</time>
</trkpt>
<trkpt lat="45.9677550" lon="10.2026070">
	<ele>1358.80</ele>
	<time>2025-08-16T06:20:25.000Z</time>
</trkpt>
<trkpt lat="45.9677560" lon="10.2026090">
	<ele>1359.00</ele>
	<time>2025-08-16T06:20:26.000Z</time>
</trkpt>
<trkpt lat="45.9677550" lon="10.2026100">
	<ele>1359.20</ele>
	<time>2025-08-16T06:20:27.000Z</time>
</trkpt>
<trkpt lat="45.9677550" lon="10.2026100">
	<ele>1359.60</ele>
	<time>2025-08-16T06:20:28.000Z</time>
</trkpt>
<trkpt lat="45.9677560" lon="10.2026100">
	<ele>1359.80</ele>
	<time>2025-08-16T06:20:29.000Z</time>
</trkpt>
<trkpt lat="45.9677570" lon="10.2026120">
	<ele>1360.00</ele>
	<time>2025-08-16T06:20:30.000Z</time>
</trkpt>
<trkpt lat="45.9677640" lon="10.2026090">
	<ele>1360.20</ele>
	<time>2025-08-16T06:20:31.000Z</time>
</trkpt>
<trkpt lat="45.9677730" lon="10.2026060">
	<ele>1360.40</ele>
	<time>2025-08-16T06:20:32.000Z</time>
</trkpt>
<trkpt lat="45.9677820" lon="10.2026060">
	<ele>1360.60</ele>
	<time>2025-08-16T06:20:33.000Z</time>
</trkpt>
<trkpt lat="45.9677900" lon="10.2026030">
	<ele>1360.80</ele>
	<time>2025-08-16T06:20:34.000Z</time>
</trkpt>
<trkpt lat="45.9677990" lon="10.2025990">
	<ele>1360.80</ele>
	<time>2025-08-16T06:20:35.000Z</time>
</trkpt>
<trkpt lat="45.9678070" lon="10.2025920">
	<ele>1361.00</ele>
	<time>2025-08-16T06:20:36.000Z</time>
</trkpt>
<trkpt lat="45.9678150" lon="10.2025780">
	<ele>1361.20</ele>
	<time>2025-08-16T06:20:37.000Z</time>
</trkpt>
<trkpt lat="45.9678280" lon="10.2025660">
	<ele>1361.40</ele>
	<time>2025-08-16T06:20:38.000Z</time>
</trkpt>
<trkpt lat="45.9678310" lon="10.2025580">
	<ele>1361.60</ele>
	<time>2025-08-16T06:20:39.000Z</time>
</trkpt>
<trkpt lat="45.9678460" lon="10.2025550">
	<ele>1361.80</ele>
	<time>2025-08-16T06:20:40.000Z</time>
</trkpt>
<trkpt lat="45.9678590" lon="10.2025490">
	<ele>1362.00</ele>
	<time>2025-08-16T06:20:41.000Z</time>
</trkpt>
<trkpt lat="45.9678660" lon="10.2025440">
	<ele>1362.20</ele>
	<time>2025-08-16T06:20:42.000Z</time>
</trkpt>
<trkpt lat="45.9678700" lon="10.2025400">
	<ele>1362.20</ele>
	<time>2025-08-16T06:20:43.000Z</time>
</trkpt>
<trkpt lat="45.9678850" lon="10.2025330">
	<ele>1362.40</ele>
	<time>2025-08-16T06:20:44.000Z</time>
</trkpt>
<trkpt lat="45.9678970" lon="10.2025240">
	<ele>1362.40</ele>
	<time>2025-08-16T06:20:45.000Z</time>
</trkpt>
<trkpt lat="45.9678960" lon="10.2025140">
	<ele>1362.60</ele>
	<time>2025-08-16T06:20:46.000Z</time>
</trkpt>
<trkpt lat="45.9678950" lon="10.2025040">
	<ele>1362.60</ele>
	<time>2025-08-16T06:20:47.000Z</time>
</trkpt>
<trkpt lat="45.9678930" lon="10.2024980">
	<ele>1362.80</ele>
	<time>2025-08-16T06:20:48.000Z</time>
</trkpt>
<trkpt lat="45.9679010" lon="10.2024930">
	<ele>1363.00</ele>
	<time>2025-08-16T06:20:49.000Z</time>
</trkpt>
<trkpt lat="45.9679000" lon="10.2024810">
	<ele>1363.00</ele>
	<time>2025-08-16T06:20:50.000Z</time>
</trkpt>
<trkpt lat="45.9679060" lon="10.2024670">
	<ele>1363.20</ele>
	<time>2025-08-16T06:20:51.000Z</time>
</trkpt>
<trkpt lat="45.9679180" lon="10.2024590">
	<ele>1363.40</ele>
	<time>2025-08-16T06:20:52.000Z</time>
</trkpt>
<trkpt lat="45.9679300" lon="10.2024480">
	<ele>1363.40</ele>
	<time>2025-08-16T06:20:53.000Z</time>
</trkpt>
<trkpt lat="45.9679430" lon="10.2024300">
	<ele>1363.40</ele>
	<time>2025-08-16T06:20:54.000Z</time>
</trkpt>
<trkpt lat="45.9679530" lon="10.2024260">
	<ele>1363.60</ele>
	<time>2025-08-16T06:20:55.000Z</time>
</trkpt>
<trkpt lat="45.9679620" lon="10.2024310">
	<ele>1363.80</ele>
	<time>2025-08-16T06:20:56.000Z</time>
</trkpt>
<trkpt lat="45.9679680" lon="10.2024290">
	<ele>1364.00</ele>
	<time>2025-08-16T06:20:57.000Z</time>
</trkpt>
<trkpt lat="45.9679770" lon="10.2024300">
	<ele>1364.00</ele>
	<time>2025-08-16T06:20:58.000Z</time>
</trkpt>
<trkpt lat="45.9679760" lon="10.2024170">
	<ele>1364.20</ele>
	<time>2025-08-16T06:20:59.000Z</time>
</trkpt>
<trkpt lat="45.9679880" lon="10.2023960">
	<ele>1364.40</ele>
	<time>2025-08-16T06:21:00.000Z</time>
</trkpt>
<trkpt lat="45.9679900" lon="10.2023740">
	<ele>1364.60</ele>
	<time>2025-08-16T06:21:01.000Z</time>
</trkpt>
<trkpt lat="45.9679850" lon="10.2023480">
	<ele>1364.80</ele>
	<time>2025-08-16T06:21:02.000Z</time>
</trkpt>
<trkpt lat="45.9679730" lon="10.2023250">
	<ele>1365.00</ele>
	<time>2025-08-16T06:21:03.000Z</time>
</trkpt>
<trkpt lat="45.9679740" lon="10.2023150">
	<ele>1365.20</ele>
	<time>2025-08-16T06:21:04.000Z</time>
</trkpt>
<trkpt lat="45.9679750" lon="10.2023110">
	<ele>1365.20</ele>
	<time>2025-08-16T06:21:05.000Z</time>
</trkpt>
<trkpt lat="45.9679770" lon="10.2023040">
	<ele>1365.40</ele>
	<time>2025-08-16T06:21:06.000Z</time>
</trkpt>
<trkpt lat="45.9679840" lon="10.2022960">
	<ele>1365.60</ele>
	<time>2025-08-16T06:21:07.000Z</time>
</trkpt>
<trkpt lat="45.9679960" lon="10.2022920">
	<ele>1365.80</ele>
	<time>2025-08-16T06:21:08.000Z</time>
</trkpt>
<trkpt lat="45.9680030" lon="10.2022910">
	<ele>1366.00</ele>
	<time>2025-08-16T06:21:09.000Z</time>
</trkpt>
<trkpt lat="45.9680060" lon="10.2022870">
	<ele>1366.00</ele>
	<time>2025-08-16T06:21:10.000Z</time>
</trkpt>
<trkpt lat="45.9680070" lon="10.2022840">
	<ele>1366.40</ele>
	<time>2025-08-16T06:21:11.000Z</time>
</trkpt>
<trkpt lat="45.9680130" lon="10.2022820">
	<ele>1366.60</ele>
	<time>2025-08-16T06:21:12.000Z</time>
</trkpt>
<trkpt lat="45.9680200" lon="10.2022700">
	<ele>1366.80</ele>
	<time>2025-08-16T06:21:13.000Z</time>
</trkpt>
<trkpt lat="45.9680200" lon="10.2022670">
	<ele>1367.20</ele>
	<time>2025-08-16T06:21:14.000Z</time>
</trkpt>
<trkpt lat="45.9680200" lon="10.2022640">
	<ele>1367.40</ele>
	<time>2025-08-16T06:21:15.000Z</time>
</trkpt>
<trkpt lat="45.9680230" lon="10.2022620">
	<ele>1367.40</ele>
	<time>2025-08-16T06:21:16.000Z</time>
</trkpt>
<trkpt lat="45.9680370" lon="10.2022600">
	<ele>1367.60</ele>
	<time>2025-08-16T06:21:17.000Z</time>
</trkpt>
<trkpt lat="45.9680470" lon="10.2022630">
	<ele>1367.80</ele>
	<time>2025-08-16T06:21:18.000Z</time>
</trkpt>
<trkpt lat="45.9680500" lon="10.2022500">
	<ele>1368.00</ele>
	<time>2025-08-16T06:21:19.000Z</time>
</trkpt>
<trkpt lat="45.9680540" lon="10.2022460">
	<ele>1368.00</ele>
	<time>2025-08-16T06:21:20.000Z</time>
</trkpt>
<trkpt lat="45.9680550" lon="10.2022460">
	<ele>1368.20</ele>
	<time>2025-08-16T06:21:21.000Z</time>
</trkpt>
<trkpt lat="45.9680590" lon="10.2022320">
	<ele>1368.40</ele>
	<time>2025-08-16T06:21:22.000Z</time>
</trkpt>
<trkpt lat="45.9680620" lon="10.2022190">
	<ele>1368.60</ele>
	<time>2025-08-16T06:21:23.000Z</time>
</trkpt>
<trkpt lat="45.9680650" lon="10.2022100">
	<ele>1368.80</ele>
	<time>2025-08-16T06:21:24.000Z</time>
</trkpt>
<trkpt lat="45.9680790" lon="10.2022030">
	<ele>1369.20</ele>
	<time>2025-08-16T06:21:25.000Z</time>
</trkpt>
<trkpt lat="45.9680860" lon="10.2021900">
	<ele>1369.40</ele>
	<time>2025-08-16T06:21:26.000Z</time>
</trkpt>
<trkpt lat="45.9680910" lon="10.2021690">
	<ele>1369.40</ele>
	<time>2025-08-16T06:21:27.000Z</time>
</trkpt>
<trkpt lat="45.9680990" lon="10.2021480">
	<ele>1369.80</ele>
	<time>2025-08-16T06:21:28.000Z</time>
</trkpt>
<trkpt lat="45.9681070" lon="10.2021310">
	<ele>1370.00</ele>
	<time>2025-08-16T06:21:29.000Z</time>
</trkpt>
<trkpt lat="45.9681150" lon="10.2021200">
	<ele>1370.20</ele>
	<time>2025-08-16T06:21:30.000Z</time>
</trkpt>
<trkpt lat="45.9681250" lon="10.2021150">
	<ele>1370.40</ele>
	<time>2025-08-16T06:21:31.000Z</time>
</trkpt>
<trkpt lat="45.9681300" lon="10.2021110">
	<ele>1370.40</ele>
	<time>2025-08-16T06:21:32.000Z</time>
</trkpt>
<trkpt lat="45.9681340" lon="10.2021110">
	<ele>1370.80</ele>
	<time>2025-08-16T06:21:33.000Z</time>
</trkpt>
<trkpt lat="45.9681360" lon="10.2021120">
	<ele>1371.00</ele>
	<time>2025-08-16T06:21:34.000Z</time>
</trkpt>
<trkpt lat="45.9681370" lon="10.2021000">
	<ele>1371.20</ele>
	<time>2025-08-16T06:21:35.000Z</time>
</trkpt>
<trkpt lat="45.9681410" lon="10.2020830">
	<ele>1371.40</ele>
	<time>2025-08-16T06:21:36.000Z</time>
</trkpt>
<trkpt lat="45.9681450" lon="10.2020710">
	<ele>1371.60</ele>
	<time>2025-08-16T06:21:37.000Z</time>
</trkpt>
<trkpt lat="45.9681490" lon="10.2020690">
	<ele>1371.80</ele>
	<time>2025-08-16T06:21:38.000Z</time>
</trkpt>
<trkpt lat="45.9681510" lon="10.2020680">
	<ele>1372.00</ele>
	<time>2025-08-16T06:21:39.000Z</time>
</trkpt>
<trkpt lat="45.9681510" lon="10.2020720">
	<ele>1372.20</ele>
	<time>2025-08-16T06:21:40.000Z</time>
</trkpt>
<trkpt lat="45.9681500" lon="10.2020690">
	<ele>1372.40</ele>
	<time>2025-08-16T06:21:41.000Z</time>
</trkpt>
<trkpt lat="45.9681580" lon="10.2020690">
	<ele>1372.60</ele>
	<time>2025-08-16T06:21:42.000Z</time>
</trkpt>
<trkpt lat="45.9681580" lon="10.2020570">
	<ele>1372.80</ele>
	<time>2025-08-16T06:21:43.000Z</time>
</trkpt>
<trkpt lat="45.9681670" lon="10.2020490">
	<ele>1373.00</ele>
	<time>2025-08-16T06:21:44.000Z</time>
</trkpt>
<trkpt lat="45.9681750" lon="10.2020370">
	<ele>1373.20</ele>
	<time>2025-08-16T06:21:45.000Z</time>
</trkpt>
<trkpt lat="45.9681770" lon="10.2020330">
	<ele>1373.40</ele>
	<time>2025-08-16T06:21:46.000Z</time>
</trkpt>
<trkpt lat="45.9681800" lon="10.2020290">
	<ele>1373.40</ele>
	<time>2025-08-16T06:21:47.000Z</time>
</trkpt>
<trkpt lat="45.9681740" lon="10.2020230">
	<ele>1373.80</ele>
	<time>2025-08-16T06:21:48.000Z</time>
</trkpt>
<trkpt lat="45.9681750" lon="10.2020150">
	<ele>1374.00</ele>
	<time>2025-08-16T06:21:49.000Z</time>
</trkpt>
<trkpt lat="45.9681780" lon="10.2020130">
	<ele>1374.20</ele>
	<time>2025-08-16T06:21:50.000Z</time>
</trkpt>
<trkpt lat="45.9681750" lon="10.2020040">
	<ele>1374.40</ele>
	<time>2025-08-16T06:21:51.000Z</time>
</trkpt>
<trkpt lat="45.9681740" lon="10.2020020">
	<ele>1374.60</ele>
	<time>2025-08-16T06:21:52.000Z</time>
</trkpt>
<trkpt lat="45.9681780" lon="10.2019980">
	<ele>1374.80</ele>
	<time>2025-08-16T06:21:53.000Z</time>
</trkpt>
<trkpt lat="45.9681790" lon="10.2019930">
	<ele>1374.80</ele>
	<time>2025-08-16T06:21:54.000Z</time>
</trkpt>
<trkpt lat="45.9681860" lon="10.2019890">
	<ele>1375.20</ele>
	<time>2025-08-16T06:21:55.000Z</time>
</trkpt>
<trkpt lat="45.9681910" lon="10.2019820">
	<ele>1375.40</ele>
	<time>2025-08-16T06:21:56.000Z</time>
</trkpt>
<trkpt lat="45.9681920" lon="10.2019710">
	<ele>1375.60</ele>
	<time>2025-08-16T06:21:57.000Z</time>
</trkpt>
<trkpt lat="45.9681970" lon="10.2019670">
	<ele>1375.80</ele>
	<time>2025-08-16T06:21:58.000Z</time>
</trkpt>
<trkpt lat="45.9681970" lon="10.2019620">
	<ele>1376.00</ele>
	<time>2025-08-16T06:21:59.000Z</time>
</trkpt>
<trkpt lat="45.9681980" lon="10.2019520">
	<ele>1376.20</ele>
	<time>2025-08-16T06:22:00.000Z</time>
</trkpt>
<trkpt lat="45.9682060" lon="10.2019410">
	<ele>1376.40</ele>
	<time>2025-08-16T06:22:01.000Z</time>
</trkpt>
<trkpt lat="45.9682160" lon="10.2019370">
	<ele>1376.60</ele>
	<time>2025-08-16T06:22:02.000Z</time>
</trkpt>
<trkpt lat="45.9682180" lon="10.2019250">
	<ele>1376.80</ele>
	<time>2025-08-16T06:22:03.000Z</time>
</trkpt>
<trkpt lat="45.9682210" lon="10.2019180">
	<ele>1377.00</ele>
	<time>2025-08-16T06:22:04.000Z</time>
</trkpt>
<trkpt lat="45.9682240" lon="10.2019110">
	<ele>1377.20</ele>
	<time>2025-08-16T06:22:05.000Z</time>
</trkpt>
<trkpt lat="45.9682330" lon="10.2019030">
	<ele>1377.40</ele>
	<time>2025-08-16T06:22:06.000Z</time>
</trkpt>
<trkpt lat="45.9682450" lon="10.2018930">
	<ele>1377.40</ele>
	<time>2025-08-16T06:22:07.000Z</time>
</trkpt>
<trkpt lat="45.9682700" lon="10.2019020">
	<ele>1377.60</ele>
	<time>2025-08-16T06:22:08.000Z</time>
</trkpt>
<trkpt lat="45.9682800" lon="10.2018970">
	<ele>1377.80</ele>
	<time>2025-08-16T06:22:09.000Z</time>
</trkpt>
<trkpt lat="45.9682840" lon="10.2018950">
	<ele>1377.80</ele>
	<time>2025-08-16T06:22:10.000Z</time>
</trkpt>
<trkpt lat="45.9682950" lon="10.2018950">
	<ele>1378.20</ele>
	<time>2025-08-16T06:22:11.000Z</time>
</trkpt>
<trkpt lat="45.9683010" lon="10.2018920">
	<ele>1378.20</ele>
	<time>2025-08-16T06:22:12.000Z</time>
</trkpt>
<trkpt lat="45.9683040" lon="10.2018850">
	<ele>1378.60</ele>
	<time>2025-08-16T06:22:13.000Z</time>
</trkpt>
<trkpt lat="45.9683140" lon="10.2018720">
	<ele>1378.80</ele>
	<time>2025-08-16T06:22:14.000Z</time>
</trkpt>
<trkpt lat="45.9683320" lon="10.2018570">
	<ele>1378.80</ele>
	<time>2025-08-16T06:22:15.000Z</time>
</trkpt>
<trkpt lat="45.9683440" lon="10.2018510">
	<ele>1379.20</ele>
	<time>2025-08-16T06:22:16.000Z</time>
</trkpt>
<trkpt lat="45.9683530" lon="10.2018560">
	<ele>1379.40</ele>
	<time>2025-08-16T06:22:17.000Z</time>
</trkpt>
<trkpt lat="45.9683570" lon="10.2018510">
	<ele>1379.60</ele>
	<time>2025-08-16T06:22:18.000Z</time>
</trkpt>
<trkpt lat="45.9683630" lon="10.2018430">
	<ele>1379.80</ele>
	<time>2025-08-16T06:22:19.000Z</time>
</trkpt>
<trkpt lat="45.9683740" lon="10.2018330">
	<ele>1380.00</ele>
	<time>2025-08-16T06:22:20.000Z</time>
</trkpt>
<trkpt lat="45.9683830" lon="10.2018240">
	<ele>1380.00</ele>
	<time>2025-08-16T06:22:21.000Z</time>
</trkpt>
<trkpt lat="45.9683870" lon="10.2018100">
	<ele>1380.20</ele>
	<time>2025-08-16T06:22:22.000Z</time>
</trkpt>
<trkpt lat="45.9683850" lon="10.2017890">
	<ele>1380.60</ele>
	<time>2025-08-16T06:22:23.000Z</time>
</trkpt>
<trkpt lat="45.9683880" lon="10.2017830">
	<ele>1380.60</ele>
	<time>2025-08-16T06:22:24.000Z</time>
</trkpt>
<trkpt lat="45.9683910" lon="10.2017720">
	<ele>1380.80</ele>
	<time>2025-08-16T06:22:25.000Z</time>
</trkpt>
<trkpt lat="45.9683950" lon="10.2017680">
	<ele>1381.00</ele>
	<time>2025-08-16T06:22:26.000Z</time>
</trkpt>
<trkpt lat="45.9683960" lon="10.2017690">
	<ele>1381.00</ele>
	<time>2025-08-16T06:22:27.000Z</time>
</trkpt>
<trkpt lat="45.9683990" lon="10.2017650">
	<ele>1381.20</ele>
	<time>2025-08-16T06:22:28.000Z</time>
</trkpt>
<trkpt lat="45.9684020" lon="10.2017620">
	<ele>1381.20</ele>
	<time>2025-08-16T06:22:29.000Z</time>
</trkpt>
<trkpt lat="45.9684200" lon="10.2017560">
	<ele>1381.20</ele>
	<time>2025-08-16T06:22:30.000Z</time>
</trkpt>
<trkpt lat="45.9684280" lon="10.2017530">
	<ele>1381.60</ele>
	<time>2025-08-16T06:22:31.000Z</time>
</trkpt>
<trkpt lat="45.9684410" lon="10.2017470">
	<ele>1381.60</ele>
	<time>2025-08-16T06:22:32.000Z</time>
</trkpt>
<trkpt lat="45.9684470" lon="10.2017380">
	<ele>1382.00</ele>
	<time>2025-08-16T06:22:33.000Z</time>
</trkpt>
<trkpt lat="45.9684520" lon="10.2017380">
	<ele>1382.20</ele>
	<time>2025-08-16T06:22:34.000Z</time>
</trkpt>
<trkpt lat="45.9684620" lon="10.2017420">
	<ele>1382.20</ele>
	<time>2025-08-16T06:22:35.000Z</time>
</trkpt>
<trkpt lat="45.9684710" lon="10.2017430">
	<ele>1382.20</ele>
	<time>2025-08-16T06:22:36.000Z</time>
</trkpt>
<trkpt lat="45.9684720" lon="10.2017430">
	<ele>1382.40</ele>
	<time>2025-08-16T06:22:37.000Z</time>
</trkpt>
<trkpt lat="45.9684730" lon="10.2017430">
	<ele>1382.40</ele>
	<time>2025-08-16T06:22:38.000Z</time>
</trkpt>
<trkpt lat="45.9684730" lon="10.2017480">
	<ele>1382.40</ele>
	<time>2025-08-16T06:22:39.000Z</time>
</trkpt>
<trkpt lat="45.9684810" lon="10.2017510">
	<ele>1382.40</ele>
	<time>2025-08-16T06:22:40.000Z</time>
</trkpt>
<trkpt lat="45.9684800" lon="10.2017490">
	<ele>1382.40</ele>
	<time>2025-08-16T06:22:41.000Z</time>
</trkpt>
<trkpt lat="45.9684780" lon="10.2017480">
	<ele>1382.60</ele>
	<time>2025-08-16T06:22:42.000Z</time>
</trkpt>
<trkpt lat="45.9684780" lon="10.2017460">
	<ele>1382.60</ele>
	<time>2025-08-16T06:22:43.000Z</time>
</trkpt>
<trkpt lat="45.9684820" lon="10.2017590">
	<ele>1382.80</ele>
	<time>2025-08-16T06:22:44.000Z</time>
</trkpt>
<trkpt lat="45.9684840" lon="10.2017690">
	<ele>1382.80</ele>
	<time>2025-08-16T06:22:45.000Z</time>
</trkpt>
<trkpt lat="45.9684890" lon="10.2017680">
	<ele>1382.80</ele>
	<time>2025-08-16T06:22:46.000Z</time>
</trkpt>
<trkpt lat="45.9684950" lon="10.2017650">
	<ele>1383.00</ele>
	<time>2025-08-16T06:22:47.000Z</time>
</trkpt>
<trkpt lat="45.9684980" lon="10.2017630">
	<ele>1383.20</ele>
	<time>2025-08-16T06:22:48.000Z</time>
</trkpt>
<trkpt lat="45.9685020" lon="10.2017630">
	<ele>1383.20</ele>
	<time>2025-08-16T06:22:49.000Z</time>
</trkpt>
<trkpt lat="45.9685040" lon="10.2017640">
	<ele>1383.40</ele>
	<time>2025-08-16T06:22:50.000Z</time>
</trkpt>
<trkpt lat="45.9685050" lon="10.2017630">
	<ele>1383.60</ele>
	<time>2025-08-16T06:22:51.000Z</time>
</trkpt>
<trkpt lat="45.9685250" lon="10.2017580">
	<ele>1383.80</ele>
	<time>2025-08-16T06:22:52.000Z</time>
</trkpt>
<trkpt lat="45.9685490" lon="10.2017560">
	<ele>1383.80</ele>
	<time>2025-08-16T06:22:53.000Z</time>
</trkpt>
<trkpt lat="45.9685640" lon="10.2017470">
	<ele>1383.80</ele>
	<time>2025-08-16T06:22:54.000Z</time>
</trkpt>
<trkpt lat="45.9685770" lon="10.2017360">
	<ele>1384.00</ele>
	<time>2025-08-16T06:22:55.000Z</time>
</trkpt>
<trkpt lat="45.9686040" lon="10.2017130">
	<ele>1384.20</ele>
	<time>2025-08-16T06:22:56.000Z</time>
</trkpt>
<trkpt lat="45.9686320" lon="10.2016960">
	<ele>1384.40</ele>
	<time>2025-08-16T06:22:57.000Z</time>
</trkpt>
<trkpt lat="45.9686430" lon="10.2016840">
	<ele>1384.40</ele>
	<time>2025-08-16T06:22:58.000Z</time>
</trkpt>
<trkpt lat="45.9686490" lon="10.2016810">
	<ele>1384.60</ele>
	<time>2025-08-16T06:22:59.000Z</time>
</trkpt>
<trkpt lat="45.9686530" lon="10.2016770">
	<ele>1384.80</ele>
	<time>2025-08-16T06:23:00.000Z</time>
</trkpt>
<trkpt lat="45.9686610" lon="10.2016610">
	<ele>1385.00</ele>
	<time>2025-08-16T06:23:01.000Z</time>
</trkpt>
<trkpt lat="45.9686790" lon="10.2016480">
	<ele>1385.00</ele>
	<time>2025-08-16T06:23:02.000Z</time>
</trkpt>
<trkpt lat="45.9686830" lon="10.2016450">
	<ele>1385.20</ele>
	<time>2025-08-16T06:23:03.000Z</time>
</trkpt>
<trkpt lat="45.9686840" lon="10.2016400">
	<ele>1385.20</ele>
	<time>2025-08-16T06:23:04.000Z</time>
</trkpt>
<trkpt lat="45.9686800" lon="10.2016380">
	<ele>1385.40</ele>
	<time>2025-08-16T06:23:05.000Z</time>
</trkpt>
<trkpt lat="45.9686840" lon="10.2016390">
	<ele>1385.60</ele>
	<time>2025-08-16T06:23:06.000Z</time>
</trkpt>
<trkpt lat="45.9686950" lon="10.2016480">
	<ele>1385.60</ele>
	<time>2025-08-16T06:23:07.000Z</time>
</trkpt>
<trkpt lat="45.9687100" lon="10.2016550">
	<ele>1385.80</ele>
	<time>2025-08-16T06:23:08.000Z</time>
</trkpt>
<trkpt lat="45.9687060" lon="10.2016570">
	<ele>1385.80</ele>
	<time>2025-08-16T06:23:09.000Z</time>
</trkpt>
<trkpt lat="45.9687170" lon="10.2016570">
	<ele>1385.80</ele>
	<time>2025-08-16T06:23:10.000Z</time>
</trkpt>
<trkpt lat="45.9687290" lon="10.2016560">
	<ele>1386.00</ele>
	<time>2025-08-16T06:23:11.000Z</time>
</trkpt>
<trkpt lat="45.9687360" lon="10.2016510">
	<ele>1386.00</ele>
	<time>2025-08-16T06:23:12.000Z</time>
</trkpt>
<trkpt lat="45.9687430" lon="10.2016480">
	<ele>1386.20</ele>
	<time>2025-08-16T06:23:13.000Z</time>
</trkpt>
<trkpt lat="45.9687520" lon="10.2016460">
	<ele>1386.40</ele>
	<time>2025-08-16T06:23:14.000Z</time>
</trkpt>
<trkpt lat="45.9687550" lon="10.2016520">
	<ele>1386.40</ele>
	<time>2025-08-16T06:23:15.000Z</time>
</trkpt>
<trkpt lat="45.9687630" lon="10.2016520">
	<ele>1386.60</ele>
	<time>2025-08-16T06:23:16.000Z</time>
</trkpt>
<trkpt lat="45.9687690" lon="10.2016500">
	<ele>1386.60</ele>
	<time>2025-08-16T06:23:17.000Z</time>
</trkpt>
<trkpt lat="45.9687700" lon="10.2016490">
	<ele>1386.80</ele>
	<time>2025-08-16T06:23:18.000Z</time>
</trkpt>
<trkpt lat="45.9687670" lon="10.2016490">
	<ele>1386.80</ele>
	<time>2025-08-16T06:23:19.000Z</time>
</trkpt>
<trkpt lat="45.9687790" lon="10.2016530">
	<ele>1387.00</ele>
	<time>2025-08-16T06:23:20.000Z</time>
</trkpt>
<trkpt lat="45.9687890" lon="10.2016350">
	<ele>1387.00</ele>
	<time>2025-08-16T06:23:21.000Z</time>
</trkpt>
<trkpt lat="45.9688040" lon="10.2016270">
	<ele>1387.20</ele>
	<time>2025-08-16T06:23:22.000Z</time>
</trkpt>
<trkpt lat="45.9688200" lon="10.2016300">
	<ele>1387.40</ele>
	<time>2025-08-16T06:23:23.000Z</time>
</trkpt>
<trkpt lat="45.9688390" lon="10.2016170">
	<ele>1387.40</ele>
	<time>2025-08-16T06:23:24.000Z</time>
</trkpt>
<trkpt lat="45.9688540" lon="10.2016160">
	<ele>1387.60</ele>
	<time>2025-08-16T06:23:25.000Z</time>
</trkpt>
<trkpt lat="45.9688580" lon="10.2016090">
	<ele>1387.80</ele>
	<time>2025-08-16T06:23:26.000Z</time>
</trkpt>
<trkpt lat="45.9688760" lon="10.2016090">
	<ele>1387.80</ele>
	<time>2025-08-16T06:23:27.000Z</time>
</trkpt>
<trkpt lat="45.9688860" lon="10.2016200">
	<ele>1388.00</ele>
	<time>2025-08-16T06:23:28.000Z</time>
</trkpt>
<trkpt lat="45.9688870" lon="10.2016270">
	<ele>1388.00</ele>
	<time>2025-08-16T06:23:29.000Z</time>
</trkpt>
<trkpt lat="45.9688910" lon="10.2016300">
	<ele>1388.20</ele>
	<time>2025-08-16T06:23:30.000Z</time>
</trkpt>
<trkpt lat="45.9688900" lon="10.2016190">
	<ele>1388.60</ele>
	<time>2025-08-16T06:23:31.000Z</time>
</trkpt>
<trkpt lat="45.9688960" lon="10.2016080">
	<ele>1388.60</ele>
	<time>2025-08-16T06:23:32.000Z</time>
</trkpt>
<trkpt lat="45.9689170" lon="10.2016120">
	<ele>1388.80</ele>
	<time>2025-08-16T06:23:33.000Z</time>
</trkpt>
<trkpt lat="45.9689370" lon="10.2016100">
	<ele>1388.80</ele>
	<time>2025-08-16T06:23:34.000Z</time>
</trkpt>
<trkpt lat="45.9689450" lon="10.2015950">
	<ele>1389.00</ele>
	<time>2025-08-16T06:23:35.000Z</time>
</trkpt>
<trkpt lat="45.9689460" lon="10.2015730">
	<ele>1389.20</ele>
	<time>2025-08-16T06:23:36.000Z</time>
</trkpt>
<trkpt lat="45.9689490" lon="10.2015300">
	<ele>1389.20</ele>
	<time>2025-08-16T06:23:37.000Z</time>
</trkpt>
<trkpt lat="45.9689510" lon="10.2015230">
	<ele>1389.40</ele>
	<time>2025-08-16T06:23:38.000Z</time>
</trkpt>
<trkpt lat="45.9689570" lon="10.2015160">
	<ele>1389.60</ele>
	<time>2025-08-16T06:23:39.000Z</time>
</trkpt>
<trkpt lat="45.9689580" lon="10.2015090">
	<ele>1389.80</ele>
	<time>2025-08-16T06:23:40.000Z</time>
</trkpt>
<trkpt lat="45.9689720" lon="10.2015060">
	<ele>1389.80</ele>
	<time>2025-08-16T06:23:41.000Z</time>
</trkpt>
<trkpt lat="45.9689770" lon="10.2015030">
	<ele>1390.00</ele>
	<time>2025-08-16T06:23:42.000Z</time>
</trkpt>
<trkpt lat="45.9689800" lon="10.2015010">
	<ele>1390.20</ele>
	<time>2025-08-16T06:23:43.000Z</time>
</trkpt>
<trkpt lat="45.9689870" lon="10.2014970">
	<ele>1390.40</ele>
	<time>2025-08-16T06:23:44.000Z</time>
</trkpt>
<trkpt lat="45.9689980" lon="10.2014980">
	<ele>1390.40</ele>
	<time>2025-08-16T06:23:45.000Z</time>
</trkpt>
<trkpt lat="45.9690060" lon="10.2014940">
	<ele>1390.60</ele>
	<time>2025-08-16T06:23:46.000Z</time>
</trkpt>
<trkpt lat="45.9690170" lon="10.2014870">
	<ele>1390.80</ele>
	<time>2025-08-16T06:23:47.000Z</time>
</trkpt>
<trkpt lat="45.9690140" lon="10.2014830">
	<ele>1391.00</ele>
	<time>2025-08-16T06:23:48.000Z</time>
</trkpt>
<trkpt lat="45.9690190" lon="10.2014790">
	<ele>1391.20</ele>
	<time>2025-08-16T06:23:49.000Z</time>
</trkpt>
<trkpt lat="45.9690200" lon="10.2014720">
	<ele>1391.40</ele>
	<time>2025-08-16T06:23:50.000Z</time>
</trkpt>
<trkpt lat="45.9690330" lon="10.2014810">
	<ele>1391.60</ele>
	<time>2025-08-16T06:23:51.000Z</time>
</trkpt>
<trkpt lat="45.9690390" lon="10.2014970">
	<ele>1391.80</ele>
	<time>2025-08-16T06:23:52.000Z</time>
</trkpt>
<trkpt lat="45.9690410" lon="10.2014950">
	<ele>1392.00</ele>
	<time>2025-08-16T06:23:53.000Z</time>
</trkpt>
<trkpt lat="45.9690470" lon="10.2014930">
	<ele>1392.20</ele>
	<time>2025-08-16T06:23:54.000Z</time>
</trkpt>
<trkpt lat="45.9690560" lon="10.2014840">
	<ele>1392.20</ele>
	<time>2025-08-16T06:23:55.000Z</time>
</trkpt>
<trkpt lat="45.9690680" lon="10.2014700">
	<ele>1392.40</ele>
	<time>2025-08-16T06:23:56.000Z</time>
</trkpt>
<trkpt lat="45.9690800" lon="10.2014430">
	<ele>1392.40</ele>
	<time>2025-08-16T06:23:57.000Z</time>
</trkpt>
<trkpt lat="45.9690840" lon="10.2014370">
	<ele>1392.60</ele>
	<time>2025-08-16T06:23:58.000Z</time>
</trkpt>
<trkpt lat="45.9690870" lon="10.2014270">
	<ele>1392.80</ele>
	<time>2025-08-16T06:23:59.000Z</time>
</trkpt>
<trkpt lat="45.9690800" lon="10.2014160">
	<ele>1393.00</ele>
	<time>2025-08-16T06:24:00.000Z</time>
</trkpt>
<trkpt lat="45.9690740" lon="10.2014000">
	<ele>1393.20</ele>
	<time>2025-08-16T06:24:01.000Z</time>
</trkpt>
<trkpt lat="45.9690740" lon="10.2013970">
	<ele>1393.40</ele>
	<time>2025-08-16T06:24:02.000Z</time>
</trkpt>
<trkpt lat="45.9690800" lon="10.2013890">
	<ele>1393.60</ele>
	<time>2025-08-16T06:24:03.000Z</time>
</trkpt>
<trkpt lat="45.9690860" lon="10.2013830">
	<ele>1393.60</ele>
	<time>2025-08-16T06:24:04.000Z</time>
</trkpt>
<trkpt lat="45.9690920" lon="10.2013790">
	<ele>1393.60</ele>
	<time>2025-08-16T06:24:05.000Z</time>
</trkpt>
<trkpt lat="45.9690970" lon="10.2013750">
	<ele>1394.00</ele>
	<time>2025-08-16T06:24:06.000Z</time>
</trkpt>
<trkpt lat="45.9691050" lon="10.2013740">
	<ele>1394.00</ele>
	<time>2025-08-16T06:24:07.000Z</time>
</trkpt>
<trkpt lat="45.9691160" lon="10.2013740">
	<ele>1394.20</ele>
	<time>2025-08-16T06:24:08.000Z</time>
</trkpt>
<trkpt lat="45.9691260" lon="10.2013730">
	<ele>1394.40</ele>
	<time>2025-08-16T06:24:09.000Z</time>
</trkpt>
<trkpt lat="45.9691350" lon="10.2013720">
	<ele>1394.60</ele>
	<time>2025-08-16T06:24:10.000Z</time>
</trkpt>
<trkpt lat="45.9691410" lon="10.2013690">
	<ele>1394.60</ele>
	<time>2025-08-16T06:24:11.000Z</time>
</trkpt>
<trkpt lat="45.9691450" lon="10.2013670">
	<ele>1394.60</ele>
	<time>2025-08-16T06:24:12.000Z</time>
</trkpt>
<trkpt lat="45.9691480" lon="10.2013620">
	<ele>1394.80</ele>
	<time>2025-08-16T06:24:13.000Z</time>
</trkpt>
<trkpt lat="45.9691590" lon="10.2013450">
	<ele>1395.00</ele>
	<time>2025-08-16T06:24:14.000Z</time>
</trkpt>
<trkpt lat="45.9691670" lon="10.2013210">
	<ele>1395.20</ele>
	<time>2025-08-16T06:24:15.000Z</time>
</trkpt>
<trkpt lat="45.9691760" lon="10.2012990">
	<ele>1395.40</ele>
	<time>2025-08-16T06:24:16.000Z</time>
</trkpt>
<trkpt lat="45.9691900" lon="10.2012800">
	<ele>1395.40</ele>
	<time>2025-08-16T06:24:17.000Z</time>
</trkpt>
<trkpt lat="45.9691970" lon="10.2012620">
	<ele>1395.60</ele>
	<time>2025-08-16T06:24:18.000Z</time>
</trkpt>
<trkpt lat="45.9691980" lon="10.2012520">
	<ele>1395.60</ele>
	<time>2025-08-16T06:24:19.000Z</time>
</trkpt>
<trkpt lat="45.9691950" lon="10.2012420">
	<ele>1395.60</ele>
	<time>2025-08-16T06:24:20.000Z</time>
</trkpt>
<trkpt lat="45.9691940" lon="10.2012360">
	<ele>1395.80</ele>
	<time>2025-08-16T06:24:21.000Z</time>
</trkpt>
<trkpt lat="45.9691930" lon="10.2012290">
	<ele>1395.80</ele>
	<time>2025-08-16T06:24:22.000Z</time>
</trkpt>
<trkpt lat="45.9691900" lon="10.2012260">
	<ele>1396.00</ele>
	<time>2025-08-16T06:24:23.000Z</time>
</trkpt>
<trkpt lat="45.9691790" lon="10.2012130">
	<ele>1396.00</ele>
	<time>2025-08-16T06:24:24.000Z</time>
</trkpt>
<trkpt lat="45.9691690" lon="10.2011920">
	<ele>1396.20</ele>
	<time>2025-08-16T06:24:25.000Z</time>
</trkpt>
<trkpt lat="45.9691690" lon="10.2011690">
	<ele>1396.40</ele>
	<time>2025-08-16T06:24:26.000Z</time>
</trkpt>
<trkpt lat="45.9691790" lon="10.2011510">
	<ele>1396.60</ele>
	<time>2025-08-16T06:24:27.000Z</time>
</trkpt>
<trkpt lat="45.9691740" lon="10.2011480">
	<ele>1396.80</ele>
	<time>2025-08-16T06:24:28.000Z</time>
</trkpt>
<trkpt lat="45.9691800" lon="10.2011340">
	<ele>1397.20</ele>
	<time>2025-08-16T06:24:29.000Z</time>
</trkpt>
<trkpt lat="45.9691760" lon="10.2011150">
	<ele>1397.40</ele>
	<time>2025-08-16T06:24:30.000Z</time>
</trkpt>
<trkpt lat="45.9691590" lon="10.2011040">
	<ele>1397.60</ele>
	<time>2025-08-16T06:24:31.000Z</time>
</trkpt>
<trkpt lat="45.9691560" lon="10.2011040">
	<ele>1397.80</ele>
	<time>2025-08-16T06:24:32.000Z</time>
</trkpt>
<trkpt lat="45.9691430" lon="10.2011090">
	<ele>1398.00</ele>
	<time>2025-08-16T06:24:33.000Z</time>
</trkpt>
<trkpt lat="45.9691410" lon="10.2011210">
	<ele>1398.20</ele>
	<time>2025-08-16T06:24:34.000Z</time>
</trkpt>
<trkpt lat="45.9691390" lon="10.2011380">
	<ele>1398.40</ele>
	<time>2025-08-16T06:24:35.000Z</time>
</trkpt>
<trkpt lat="45.9691330" lon="10.2011420">
	<ele>1398.60</ele>
	<time>2025-08-16T06:24:36.000Z</time>
</trkpt>
<trkpt lat="45.9691310" lon="10.2011440">
	<ele>1398.80</ele>
	<time>2025-08-16T06:24:37.000Z</time>
</trkpt>
<trkpt lat="45.9691170" lon="10.2011270">
	<ele>1399.00</ele>
	<time>2025-08-16T06:24:38.000Z</time>
</trkpt>
<trkpt lat="45.9691020" lon="10.2011120">
	<ele>1399.20</ele>
	<time>2025-08-16T06:24:39.000Z</time>
</trkpt>
<trkpt lat="45.9690980" lon="10.2011170">
	<ele>1399.40</ele>
	<time>2025-08-16T06:24:40.000Z</time>
</trkpt>
<trkpt lat="45.9690870" lon="10.2011200">
	<ele>1399.60</ele>
	<time>2025-08-16T06:24:41.000Z</time>
</trkpt>
<trkpt lat="45.9690880" lon="10.2011240">
	<ele>1399.80</ele>
	<time>2025-08-16T06:24:42.000Z</time>
</trkpt>
<trkpt lat="45.9690870" lon="10.2011230">
	<ele>1400.00</ele>
	<time>2025-08-16T06:24:43.000Z</time>
</trkpt>
<trkpt lat="45.9690830" lon="10.2011280">
	<ele>1400.20</ele>
	<time>2025-08-16T06:24:44.000Z</time>
</trkpt>
<trkpt lat="45.9690900" lon="10.2011390">
	<ele>1400.40</ele>
	<time>2025-08-16T06:24:45.000Z</time>
</trkpt>
<trkpt lat="45.9690810" lon="10.2011600">
	<ele>1400.40</ele>
	<time>2025-08-16T06:24:46.000Z</time>
</trkpt>
<trkpt lat="45.9690800" lon="10.2011750">
	<ele>1400.60</ele>
	<time>2025-08-16T06:24:47.000Z</time>
</trkpt>
<trkpt lat="45.9690580" lon="10.2011950">
	<ele>1400.60</ele>
	<time>2025-08-16T06:24:48.000Z</time>
</trkpt>
<trkpt lat="45.9690490" lon="10.2012050">
	<ele>1400.80</ele>
	<time>2025-08-16T06:24:49.000Z</time>
</trkpt>
<trkpt lat="45.9690500" lon="10.2012050">
	<ele>1400.80</ele>
	<time>2025-08-16T06:24:50.000Z</time>
</trkpt>
<trkpt lat="45.9690470" lon="10.2012080">
	<ele>1400.80</ele>
	<time>2025-08-16T06:24:51.000Z</time>
</trkpt>
<trkpt lat="45.9690460" lon="10.2012040">
	<ele>1401.00</ele>
	<time>2025-08-16T06:24:52.000Z</time>
</trkpt>
<trkpt lat="45.9690580" lon="10.2012120">
	<ele>1401.00</ele>
	<time>2025-08-16T06:24:53.000Z</time>
</trkpt>
<trkpt lat="45.9690400" lon="10.2012160">
	<ele>1401.00</ele>
	<time>2025-08-16T06:24:54.000Z</time>
</trkpt>
<trkpt lat="45.9690380" lon="10.2012140">
	<ele>1401.00</ele>
	<time>2025-08-16T06:24:55.000Z</time>
</trkpt>
<trkpt lat="45.9690380" lon="10.2012130">
	<ele>1401.00</ele>
	<time>2025-08-16T06:24:56.000Z</time>
</trkpt>
<trkpt lat="45.9690360" lon="10.2011950">
	<ele>1401.00</ele>
	<time>2025-08-16T06:24:57.000Z</time>
</trkpt>
<trkpt lat="45.9690420" lon="10.2011810">
	<ele>1400.80</ele>
	<time>2025-08-16T06:24:58.000Z</time>
</trkpt>
<trkpt lat="45.9690330" lon="10.2011770">
	<ele>1400.80</ele>
	<time>2025-08-16T06:24:59.000Z</time>
</trkpt>
<trkpt lat="45.9690130" lon="10.2011820">
	<ele>1400.80</ele>
	<time>2025-08-16T06:25:00.000Z</time>
</trkpt>
<trkpt lat="45.9689960" lon="10.2011970">
	<ele>1400.80</ele>
	<time>2025-08-16T06:25:01.000Z</time>
</trkpt>
<trkpt lat="45.9689780" lon="10.2012020">
	<ele>1400.80</ele>
	<time>2025-08-16T06:25:02.000Z</time>
</trkpt>
<trkpt lat="45.9689690" lon="10.2012040">
	<ele>1400.80</ele>
	<time>2025-08-16T06:25:03.000Z</time>
</trkpt>
<trkpt lat="45.9689530" lon="10.2012000">
	<ele>1400.80</ele>
	<time>2025-08-16T06:25:04.000Z</time>
</trkpt>
<trkpt lat="45.9689380" lon="10.2011900">
	<ele>1401.00</ele>
	<time>2025-08-16T06:25:05.000Z</time>
</trkpt>
<trkpt lat="45.9689170" lon="10.2011720">
	<ele>1401.00</ele>
	<time>2025-08-16T06:25:06.000Z</time>
</trkpt>
<trkpt lat="45.9688980" lon="10.2011650">
	<ele>1401.20</ele>
	<time>2025-08-16T06:25:07.000Z</time>
</trkpt>
<trkpt lat="45.9688830" lon="10.2011620">
	<ele>1401.40</ele>
	<time>2025-08-16T06:25:08.000Z</time>
</trkpt>
<trkpt lat="45.9688720" lon="10.2011650">
	<ele>1401.40</ele>
	<time>2025-08-16T06:25:09.000Z</time>
</trkpt>
<trkpt lat="45.9688650" lon="10.2011660">
	<ele>1401.40</ele>
	<time>2025-08-16T06:25:10.000Z</time>
</trkpt>
<trkpt lat="45.9688600" lon="10.2011650">
	<ele>1401.60</ele>
	<time>2025-08-16T06:25:11.000Z</time>
</trkpt>
<trkpt lat="45.9688490" lon="10.2011600">
	<ele>1401.80</ele>
	<time>2025-08-16T06:25:12.000Z</time>
</trkpt>
<trkpt lat="45.9688370" lon="10.2011650">
	<ele>1401.80</ele>
	<time>2025-08-16T06:25:13.000Z</time>
</trkpt>
<trkpt lat="45.9688340" lon="10.2011660">
	<ele>1402.00</ele>
	<time>2025-08-16T06:25:14.000Z</time>
</trkpt>
<trkpt lat="45.9688190" lon="10.2011740">
	<ele>1402.20</ele>
	<time>2025-08-16T06:25:15.000Z</time>
</trkpt>
<trkpt lat="45.9688100" lon="10.2011780">
	<ele>1402.40</ele>
	<time>2025-08-16T06:25:16.000Z</time>
</trkpt>
<trkpt lat="45.9688040" lon="10.2011760">
	<ele>1402.40</ele>
	<time>2025-08-16T06:25:17.000Z</time>
</trkpt>
<trkpt lat="45.9688040" lon="10.2011630">
	<ele>1402.40</ele>
	<time>2025-08-16T06:25:18.000Z</time>
</trkpt>
<trkpt lat="45.9688080" lon="10.2011460">
	<ele>1402.60</ele>
	<time>2025-08-16T06:25:19.000Z</time>
</trkpt>
<trkpt lat="45.9688040" lon="10.2011370">
	<ele>1402.80</ele>
	<time>2025-08-16T06:25:20.000Z</time>
</trkpt>
<trkpt lat="45.9687990" lon="10.2011340">
	<ele>1402.80</ele>
	<time>2025-08-16T06:25:21.000Z</time>
</trkpt>
<trkpt lat="45.9687920" lon="10.2011280">
	<ele>1403.20</ele>
	<time>2025-08-16T06:25:22.000Z</time>
</trkpt>
<trkpt lat="45.9687900" lon="10.2011240">
	<ele>1403.20</ele>
	<time>2025-08-16T06:25:23.000Z</time>
</trkpt>
<trkpt lat="45.9687890" lon="10.2011190">
	<ele>1403.40</ele>
	<time>2025-08-16T06:25:24.000Z</time>
</trkpt>
<trkpt lat="45.9687880" lon="10.2011180">
	<ele>1403.60</ele>
	<time>2025-08-16T06:25:25.000Z</time>
</trkpt>
<trkpt lat="45.9687860" lon="10.2011110">
	<ele>1403.80</ele>
	<time>2025-08-16T06:25:26.000Z</time>
</trkpt>
<trkpt lat="45.9687840" lon="10.2011110">
	<ele>1404.00</ele>
	<time>2025-08-16T06:25:27.000Z</time>
</trkpt>
<trkpt lat="45.9687790" lon="10.2011040">
	<ele>1404.20</ele>
	<time>2025-08-16T06:25:28.000Z</time>
</trkpt>
<trkpt lat="45.9687760" lon="10.2011030">
	<ele>1404.40</ele>
	<time>2025-08-16T06:25:29.000Z</time>
</trkpt>
<trkpt lat="45.9687730" lon="10.2011020">
	<ele>1404.60</ele>
	<time>2025-08-16T06:25:30.000Z</time>
</trkpt>
<trkpt lat="45.9687660" lon="10.2011030">
	<ele>1404.80</ele>
	<time>2025-08-16T06:25:31.000Z</time>
</trkpt>
<trkpt lat="45.9687600" lon="10.2010940">
	<ele>1404.80</ele>
	<time>2025-08-16T06:25:32.000Z</time>
</trkpt>
<trkpt lat="45.9687560" lon="10.2010810">
	<ele>1405.00</ele>
	<time>2025-08-16T06:25:33.000Z</time>
</trkpt>
<trkpt lat="45.9687540" lon="10.2010750">
	<ele>1405.20</ele>
	<time>2025-08-16T06:25:34.000Z</time>
</trkpt>
<trkpt lat="45.9687520" lon="10.2010730">
	<ele>1405.40</ele>
	<time>2025-08-16T06:25:35.000Z</time>
</trkpt>
<trkpt lat="45.9687360" lon="10.2010650">
	<ele>1405.40</ele>
	<time>2025-08-16T06:25:36.000Z</time>
</trkpt>
<trkpt lat="45.9687140" lon="10.2010500">
	<ele>1405.60</ele>
	<time>2025-08-16T06:25:37.000Z</time>
</trkpt>
<trkpt lat="45.9687080" lon="10.2010480">
	<ele>1405.80</ele>
	<time>2025-08-16T06:25:38.000Z</time>
</trkpt>
<trkpt lat="45.9686940" lon="10.2010300">
	<ele>1406.00</ele>
	<time>2025-08-16T06:25:39.000Z</time>
</trkpt>
<trkpt lat="45.9686770" lon="10.2010060">
	<ele>1406.00</ele>
	<time>2025-08-16T06:25:40.000Z</time>
</trkpt>
<trkpt lat="45.9686740" lon="10.2010050">
	<ele>1406.20</ele>
	<time>2025-08-16T06:25:41.000Z</time>
</trkpt>
<trkpt lat="45.9686740" lon="10.2009930">
	<ele>1406.40</ele>
	<time>2025-08-16T06:25:42.000Z</time>
</trkpt>
<trkpt lat="45.9686660" lon="10.2009850">
	<ele>1406.60</ele>
	<time>2025-08-16T06:25:43.000Z</time>
</trkpt>
<trkpt lat="45.9686490" lon="10.2009770">
	<ele>1406.80</ele>
	<time>2025-08-16T06:25:44.000Z</time>
</trkpt>
<trkpt lat="45.9686470" lon="10.2009780">
	<ele>1406.80</ele>
	<time>2025-08-16T06:25:45.000Z</time>
</trkpt>
<trkpt lat="45.9686470" lon="10.2009780">
	<ele>1407.00</ele>
	<time>2025-08-16T06:25:46.000Z</time>
</trkpt>
<trkpt lat="45.9686320" lon="10.2009750">
	<ele>1407.00</ele>
	<time>2025-08-16T06:25:47.000Z</time>
</trkpt>
<trkpt lat="45.9686220" lon="10.2009750">
	<ele>1407.20</ele>
	<time>2025-08-16T06:25:48.000Z</time>
</trkpt>
<trkpt lat="45.9686060" lon="10.2009740">
	<ele>1407.40</ele>
	<time>2025-08-16T06:25:49.000Z</time>
</trkpt>
<trkpt lat="45.9685920" lon="10.2009730">
	<ele>1407.40</ele>
	<time>2025-08-16T06:25:50.000Z</time>
</trkpt>
<trkpt lat="45.9685890" lon="10.2009750">
	<ele>1407.60</ele>
	<time>2025-08-16T06:25:51.000Z</time>
</trkpt>
<trkpt lat="45.9685860" lon="10.2009750">
	<ele>1407.60</ele>
	<time>2025-08-16T06:25:52.000Z</time>
</trkpt>
<trkpt lat="45.9685720" lon="10.2009830">
	<ele>1407.80</ele>
	<time>2025-08-16T06:25:53.000Z</time>
</trkpt>
<trkpt lat="45.9685590" lon="10.2009960">
	<ele>1408.00</ele>
	<time>2025-08-16T06:25:54.000Z</time>
</trkpt>
<trkpt lat="45.9685440" lon="10.2010050">
	<ele>1408.40</ele>
	<time>2025-08-16T06:25:55.000Z</time>
</trkpt>
<trkpt lat="45.9685260" lon="10.2010150">
	<ele>1408.40</ele>
	<time>2025-08-16T06:25:56.000Z</time>
</trkpt>
<trkpt lat="45.9685050" lon="10.2010250">
	<ele>1408.60</ele>
	<time>2025-08-16T06:25:57.000Z</time>
</trkpt>
<trkpt lat="45.9684860" lon="10.2010350">
	<ele>1408.80</ele>
	<time>2025-08-16T06:25:58.000Z</time>
</trkpt>
<trkpt lat="45.9684720" lon="10.2010480">
	<ele>1409.00</ele>
	<time>2025-08-16T06:25:59.000Z</time>
</trkpt>
<trkpt lat="45.9684670" lon="10.2010640">
	<ele>1409.00</ele>
	<time>2025-08-16T06:26:00.000Z</time>
</trkpt>
<trkpt lat="45.9684610" lon="10.2010820">
	<ele>1409.20</ele>
	<time>2025-08-16T06:26:01.000Z</time>
</trkpt>
<trkpt lat="45.9684590" lon="10.2010850">
	<ele>1409.20</ele>
	<time>2025-08-16T06:26:02.000Z</time>
</trkpt>
<trkpt lat="45.9684600" lon="10.2010840">
	<ele>1409.40</ele>
	<time>2025-08-16T06:26:03.000Z</time>
</trkpt>
<trkpt lat="45.9684630" lon="10.2010830">
	<ele>1409.60</ele>
	<time>2025-08-16T06:26:04.000Z</time>
</trkpt>
<trkpt lat="45.9684570" lon="10.2010740">
	<ele>1409.80</ele>
	<time>2025-08-16T06:26:05.000Z</time>
</trkpt>
<trkpt lat="45.9684560" lon="10.2010580">
	<ele>1410.00</ele>
	<time>2025-08-16T06:26:06.000Z</time>
</trkpt>
<trkpt lat="45.9684540" lon="10.2010560">
	<ele>1410.20</ele>
	<time>2025-08-16T06:26:07.000Z</time>
</trkpt>
<trkpt lat="45.9684510" lon="10.2010370">
	<ele>1410.40</ele>
	<time>2025-08-16T06:26:08.000Z</time>
</trkpt>
<trkpt lat="45.9684470" lon="10.2010270">
	<ele>1410.60</ele>
	<time>2025-08-16T06:26:09.000Z</time>
</trkpt>
<trkpt lat="45.9684420" lon="10.2010150">
	<ele>1410.80</ele>
	<time>2025-08-16T06:26:10.000Z</time>
</trkpt>
<trkpt lat="45.9684340" lon="10.2010020">
	<ele>1411.00</ele>
	<time>2025-08-16T06:26:11.000Z</time>
</trkpt>
<trkpt lat="45.9684220" lon="10.2009930">
	<ele>1411.20</ele>
	<time>2025-08-16T06:26:12.000Z</time>
</trkpt>
<trkpt lat="45.9684190" lon="10.2009900">
	<ele>1411.40</ele>
	<time>2025-08-16T06:26:13.000Z</time>
</trkpt>
<trkpt lat="45.9684170" lon="10.2009870">
	<ele>1411.40</ele>
	<time>2025-08-16T06:26:14.000Z</time>
</trkpt>
<trkpt lat="45.9684080" lon="10.2009790">
	<ele>1411.60</ele>
	<time>2025-08-16T06:26:15.000Z</time>
</trkpt>
<trkpt lat="45.9684040" lon="10.2009800">
	<ele>1411.80</ele>
	<time>2025-08-16T06:26:16.000Z</time>
</trkpt>
<trkpt lat="45.9684050" lon="10.2009800">
	<ele>1412.00</ele>
	<time>2025-08-16T06:26:17.000Z</time>
</trkpt>
<trkpt lat="45.9684020" lon="10.2009750">
	<ele>1412.20</ele>
	<time>2025-08-16T06:26:18.000Z</time>
</trkpt>
<trkpt lat="45.9684000" lon="10.2009690">
	<ele>1412.40</ele>
	<time>2025-08-16T06:26:19.000Z</time>
</trkpt>
<trkpt lat="45.9684000" lon="10.2009480">
	<ele>1412.60</ele>
	<time>2025-08-16T06:26:20.000Z</time>
</trkpt>
<trkpt lat="45.9683880" lon="10.2009240">
	<ele>1412.80</ele>
	<time>2025-08-16T06:26:21.000Z</time>
</trkpt>
<trkpt lat="45.9683750" lon="10.2008900">
	<ele>1413.00</ele>
	<time>2025-08-16T06:26:22.000Z</time>
</trkpt>
<trkpt lat="45.9683630" lon="10.2008720">
	<ele>1413.20</ele>
	<time>2025-08-16T06:26:23.000Z</time>
</trkpt>
<trkpt lat="45.9683550" lon="10.2008660">
	<ele>1413.40</ele>
	<time>2025-08-16T06:26:24.000Z</time>
</trkpt>
<trkpt lat="45.9683510" lon="10.2008560">
	<ele>1413.60</ele>
	<time>2025-08-16T06:26:25.000Z</time>
</trkpt>
<trkpt lat="45.9683470" lon="10.2008490">
	<ele>1413.60</ele>
	<time>2025-08-16T06:26:26.000Z</time>
</trkpt>
<trkpt lat="45.9683510" lon="10.2008480">
	<ele>1413.80</ele>
	<time>2025-08-16T06:26:27.000Z</time>
</trkpt>
<trkpt lat="45.9683500" lon="10.2008420">
	<ele>1414.00</ele>
	<time>2025-08-16T06:26:28.000Z</time>
</trkpt>
<trkpt lat="45.9683490" lon="10.2008360">
	<ele>1414.20</ele>
	<time>2025-08-16T06:26:29.000Z</time>
</trkpt>
<trkpt lat="45.9683480" lon="10.2008300">
	<ele>1414.40</ele>
	<time>2025-08-16T06:26:30.000Z</time>
</trkpt>
<trkpt lat="45.9683430" lon="10.2008200">
	<ele>1414.60</ele>
	<time>2025-08-16T06:26:31.000Z</time>
</trkpt>
<trkpt lat="45.9683360" lon="10.2008050">
	<ele>1414.80</ele>
	<time>2025-08-16T06:26:32.000Z</time>
</trkpt>
<trkpt lat="45.9683220" lon="10.2007950">
	<ele>1414.80</ele>
	<time>2025-08-16T06:26:33.000Z</time>
</trkpt>
<trkpt lat="45.9683080" lon="10.2007840">
	<ele>1415.00</ele>
	<time>2025-08-16T06:26:34.000Z</time>
</trkpt>
<trkpt lat="45.9683010" lon="10.2007760">
	<ele>1415.20</ele>
	<time>2025-08-16T06:26:35.000Z</time>
</trkpt>
<trkpt lat="45.9682990" lon="10.2007660">
	<ele>1415.40</ele>
	<time>2025-08-16T06:26:36.000Z</time>
</trkpt>
<trkpt lat="45.9682990" lon="10.2007570">
	<ele>1415.80</ele>
	<time>2025-08-16T06:26:37.000Z</time>
</trkpt>
<trkpt lat="45.9683010" lon="10.2007510">
	<ele>1416.00</ele>
	<time>2025-08-16T06:26:38.000Z</time>
</trkpt>
<trkpt lat="45.9683000" lon="10.2007470">
	<ele>1416.20</ele>
	<time>2025-08-16T06:26:39.000Z</time>
</trkpt>
<trkpt lat="45.9683050" lon="10.2007370">
	<ele>1416.60</ele>
	<time>2025-08-16T06:26:40.000Z</time>
</trkpt>
<trkpt lat="45.9683100" lon="10.2007310">
	<ele>1416.60</ele>
	<time>2025-08-16T06:26:41.000Z</time>
</trkpt>
<trkpt lat="45.9683110" lon="10.2007270">
	<ele>1416.80</ele>
	<time>2025-08-16T06:26:42.000Z</time>
</trkpt>
<trkpt lat="45.9683120" lon="10.2007250">
	<ele>1416.80</ele>
	<time>2025-08-16T06:26:43.000Z</time>
</trkpt>
<trkpt lat="45.9683120" lon="10.2007240">
	<ele>1417.00</ele>
	<time>2025-08-16T06:26:44.000Z</time>
</trkpt>
<trkpt lat="45.9683120" lon="10.2007230">
	<ele>1417.00</ele>
	<time>2025-08-16T06:26:45.000Z</time>
</trkpt>
<trkpt lat="45.9683120" lon="10.2007210">
	<ele>1417.00</ele>
	<time>2025-08-16T06:26:46.000Z</time>
</trkpt>
<trkpt lat="45.9683180" lon="10.2007210">
	<ele>1417.20</ele>
	<time>2025-08-16T06:26:47.000Z</time>
</trkpt>
<trkpt lat="45.9683190" lon="10.2007220">
	<ele>1417.20</ele>
	<time>2025-08-16T06:26:48.000Z</time>
</trkpt>
<trkpt lat="45.9683190" lon="10.2007200">
	<ele>1417.20</ele>
	<time>2025-08-16T06:26:49.000Z</time>
</trkpt>
<trkpt lat="45.9683160" lon="10.2007210">
	<ele>1417.20</ele>
	<time>2025-08-16T06:26:50.000Z</time>
</trkpt>
<trkpt lat="45.9683130" lon="10.2007200">
	<ele>1417.20</ele>
	<time>2025-08-16T06:26:51.000Z</time>
</trkpt>
<trkpt lat="45.9683110" lon="10.2007180">
	<ele>1417.40</ele>
	<time>2025-08-16T06:26:52.000Z</time>
</trkpt>
<trkpt lat="45.9683100" lon="10.2007120">
	<ele>1417.40</ele>
	<time>2025-08-16T06:26:53.000Z</time>
</trkpt>
<trkpt lat="45.9683130" lon="10.2007100">
	<ele>1417.40</ele>
	<time>2025-08-16T06:26:54.000Z</time>
</trkpt>
<trkpt lat="45.9683140" lon="10.2007150">
	<ele>1417.40</ele>
	<time>2025-08-16T06:26:55.000Z</time>
</trkpt>
<trkpt lat="45.9683180" lon="10.2007190">
	<ele>1417.40</ele>
	<time>2025-08-16T06:26:56.000Z</time>
</trkpt>
<trkpt lat="45.9683310" lon="10.2007160">
	<ele>1417.40</ele>
	<time>2025-08-16T06:26:57.000Z</time>
</trkpt>
<trkpt lat="45.9683350" lon="10.2007180">
	<ele>1417.40</ele>
	<time>2025-08-16T06:26:58.000Z</time>
</trkpt>
<trkpt lat="45.9683430" lon="10.2007200">
	<ele>1417.60</ele>
	<time>2025-08-16T06:26:59.000Z</time>
</trkpt>
<trkpt lat="45.9683440" lon="10.2007200">
	<ele>1417.80</ele>
	<time>2025-08-16T06:27:00.000Z</time>
</trkpt>
<trkpt lat="45.9683470" lon="10.2007230">
	<ele>1418.00</ele>
	<time>2025-08-16T06:27:01.000Z</time>
</trkpt>
<trkpt lat="45.9683490" lon="10.2007350">
	<ele>1418.00</ele>
	<time>2025-08-16T06:27:02.000Z</time>
</trkpt>
<trkpt lat="45.9683370" lon="10.2007540">
	<ele>1418.20</ele>
	<time>2025-08-16T06:27:03.000Z</time>
</trkpt>
<trkpt lat="45.9683220" lon="10.2007760">
	<ele>1418.40</ele>
	<time>2025-08-16T06:27:04.000Z</time>
</trkpt>
<trkpt lat="45.9683090" lon="10.2007980">
	<ele>1418.40</ele>
	<time>2025-08-16T06:27:05.000Z</time>
</trkpt>
<trkpt lat="45.9682970" lon="10.2008210">
	<ele>1418.60</ele>
	<time>2025-08-16T06:27:06.000Z</time>
</trkpt>
<trkpt lat="45.9682820" lon="10.2008310">
	<ele>1418.80</ele>
	<time>2025-08-16T06:27:07.000Z</time>
</trkpt>
<trkpt lat="45.9682790" lon="10.2008230">
	<ele>1419.00</ele>
	<time>2025-08-16T06:27:08.000Z</time>
</trkpt>
<trkpt lat="45.9682760" lon="10.2008410">
	<ele>1419.00</ele>
	<time>2025-08-16T06:27:09.000Z</time>
</trkpt>
<trkpt lat="45.9682770" lon="10.2008430">
	<ele>1419.00</ele>
	<time>2025-08-16T06:27:10.000Z</time>
</trkpt>
<trkpt lat="45.9682770" lon="10.2008570">
	<ele>1419.00</ele>
	<time>2025-08-16T06:27:11.000Z</time>
</trkpt>
<trkpt lat="45.9682660" lon="10.2008750">
	<ele>1419.00</ele>
	<time>2025-08-16T06:27:12.000Z</time>
</trkpt>
<trkpt lat="45.9682470" lon="10.2008910">
	<ele>1418.80</ele>
	<time>2025-08-16T06:27:13.000Z</time>
</trkpt>
<trkpt lat="45.9682460" lon="10.2008910">
	<ele>1418.60</ele>
	<time>2025-08-16T06:27:14.000Z</time>
</trkpt>
<trkpt lat="45.9682370" lon="10.2008820">
	<ele>1418.60</ele>
	<time>2025-08-16T06:27:15.000Z</time>
</trkpt>
<trkpt lat="45.9682330" lon="10.2008630">
	<ele>1418.40</ele>
	<time>2025-08-16T06:27:16.000Z</time>
</trkpt>
<trkpt lat="45.9682350" lon="10.2008560">
	<ele>1418.40</ele>
	<time>2025-08-16T06:27:17.000Z</time>
</trkpt>
<trkpt lat="45.9682440" lon="10.2008310">
	<ele>1418.40</ele>
	<time>2025-08-16T06:27:18.000Z</time>
</trkpt>
<trkpt lat="45.9682510" lon="10.2008160">
	<ele>1418.20</ele>
	<time>2025-08-16T06:27:19.000Z</time>
</trkpt>
<trkpt lat="45.9682500" lon="10.2008080">
	<ele>1418.20</ele>
	<time>2025-08-16T06:27:20.000Z</time>
</trkpt>
<trkpt lat="45.9682460" lon="10.2008040">
	<ele>1418.20</ele>
	<time>2025-08-16T06:27:21.000Z</time>
</trkpt>
<trkpt lat="45.9682420" lon="10.2007870">
	<ele>1418.00</ele>
	<time>2025-08-16T06:27:22.000Z</time>
</trkpt>
<trkpt lat="45.9682400" lon="10.2007650">
	<ele>1418.00</ele>
	<time>2025-08-16T06:27:23.000Z</time>
</trkpt>
<trkpt lat="45.9682410" lon="10.2007400">
	<ele>1417.80</ele>
	<time>2025-08-16T06:27:24.000Z</time>
</trkpt>
<trkpt lat="45.9682490" lon="10.2007190">
	<ele>1417.80</ele>
	<time>2025-08-16T06:27:25.000Z</time>
</trkpt>
<trkpt lat="45.9682580" lon="10.2007020">
	<ele>1417.80</ele>
	<time>2025-08-16T06:27:26.000Z</time>
</trkpt>
<trkpt lat="45.9682650" lon="10.2006870">
	<ele>1417.80</ele>
	<time>2025-08-16T06:27:27.000Z</time>
</trkpt>
<trkpt lat="45.9682800" lon="10.2006740">
	<ele>1418.00</ele>
	<time>2025-08-16T06:27:28.000Z</time>
</trkpt>
<trkpt lat="45.9682950" lon="10.2006580">
	<ele>1418.20</ele>
	<time>2025-08-16T06:27:29.000Z</time>
</trkpt>
<trkpt lat="45.9683040" lon="10.2006400">
	<ele>1418.20</ele>
	<time>2025-08-16T06:27:30.000Z</time>
</trkpt>
<trkpt lat="45.9683130" lon="10.2006140">
	<ele>1418.40</ele>
	<time>2025-08-16T06:27:31.000Z</time>
</trkpt>
<trkpt lat="45.9683200" lon="10.2005920">
	<ele>1418.40</ele>
	<time>2025-08-16T06:27:32.000Z</time>
</trkpt>
<trkpt lat="45.9683230" lon="10.2005850">
	<ele>1418.40</ele>
	<time>2025-08-16T06:27:33.000Z</time>
</trkpt>
<trkpt lat="45.9683320" lon="10.2005740">
	<ele>1418.60</ele>
	<time>2025-08-16T06:27:34.000Z</time>
</trkpt>
<trkpt lat="45.9683410" lon="10.2005710">
	<ele>1418.80</ele>
	<time>2025-08-16T06:27:35.000Z</time>
</trkpt>
<trkpt lat="45.9683530" lon="10.2005590">
	<ele>1418.80</ele>
	<time>2025-08-16T06:27:36.000Z</time>
</trkpt>
<trkpt lat="45.9683690" lon="10.2005420">
	<ele>1419.20</ele>
	<time>2025-08-16T06:27:37.000Z</time>
</trkpt>
<trkpt lat="45.9683740" lon="10.2005400">
	<ele>1419.40</ele>
	<time>2025-08-16T06:27:38.000Z</time>
</trkpt>
<trkpt lat="45.9683820" lon="10.2005280">
	<ele>1419.40</ele>
	<time>2025-08-16T06:27:39.000Z</time>
</trkpt>
<trkpt lat="45.9683930" lon="10.2005220">
	<ele>1419.60</ele>
	<time>2025-08-16T06:27:40.000Z</time>
</trkpt>
<trkpt lat="45.9684010" lon="10.2005150">
	<ele>1419.60</ele>
	<time>2025-08-16T06:27:41.000Z</time>
</trkpt>
<trkpt lat="45.9684060" lon="10.2005160">
	<ele>1419.80</ele>
	<time>2025-08-16T06:27:42.000Z</time>
</trkpt>
<trkpt lat="45.9684050" lon="10.2005100">
	<ele>1419.80</ele>
	<time>2025-08-16T06:27:43.000Z</time>
</trkpt>
<trkpt lat="45.9684100" lon="10.2005080">
	<ele>1420.00</ele>
	<time>2025-08-16T06:27:44.000Z</time>
</trkpt>
<trkpt lat="45.9684130" lon="10.2005080">
	<ele>1420.00</ele>
	<time>2025-08-16T06:27:45.000Z</time>
</trkpt>
<trkpt lat="45.9684130" lon="10.2005030">
	<ele>1420.40</ele>
	<time>2025-08-16T06:27:46.000Z</time>
</trkpt>
<trkpt lat="45.9684180" lon="10.2005030">
	<ele>1420.60</ele>
	<time>2025-08-16T06:27:47.000Z</time>
</trkpt>
<trkpt lat="45.9684310" lon="10.2005050">
	<ele>1420.60</ele>
	<time>2025-08-16T06:27:48.000Z</time>
</trkpt>
<trkpt lat="45.9684320" lon="10.2005230">
	<ele>1420.80</ele>
	<time>2025-08-16T06:27:49.000Z</time>
</trkpt>
<trkpt lat="45.9684340" lon="10.2005290">
	<ele>1421.00</ele>
	<time>2025-08-16T06:27:50.000Z</time>
</trkpt>
<trkpt lat="45.9684480" lon="10.2005280">
	<ele>1421.40</ele>
	<time>2025-08-16T06:27:51.000Z</time>
</trkpt>
<trkpt lat="45.9684650" lon="10.2005410">
	<ele>1421.60</ele>
	<time>2025-08-16T06:27:52.000Z</time>
</trkpt>
<trkpt lat="45.9684680" lon="10.2005460">
	<ele>1421.80</ele>
	<time>2025-08-16T06:27:53.000Z</time>
</trkpt>
<trkpt lat="45.9684720" lon="10.2005660">
	<ele>1421.80</ele>
	<time>2025-08-16T06:27:54.000Z</time>
</trkpt>
<trkpt lat="45.9684810" lon="10.2005790">
	<ele>1422.00</ele>
	<time>2025-08-16T06:27:55.000Z</time>
</trkpt>
<trkpt lat="45.9684850" lon="10.2005880">
	<ele>1422.40</ele>
	<time>2025-08-16T06:27:56.000Z</time>
</trkpt>
<trkpt lat="45.9684860" lon="10.2005950">
	<ele>1422.60</ele>
	<time>2025-08-16T06:27:57.000Z</time>
</trkpt>
<trkpt lat="45.9684900" lon="10.2005950">
	<ele>1422.80</ele>
	<time>2025-08-16T06:27:58.000Z</time>
</trkpt>
<trkpt lat="45.9684890" lon="10.2005960">
	<ele>1422.80</ele>
	<time>2025-08-16T06:27:59.000Z</time>
</trkpt>
<trkpt lat="45.9684900" lon="10.2005980">
	<ele>1423.00</ele>
	<time>2025-08-16T06:28:00.000Z</time>
</trkpt>
<trkpt lat="45.9684930" lon="10.2006080">
	<ele>1423.20</ele>
	<time>2025-08-16T06:28:01.000Z</time>
</trkpt>
<trkpt lat="45.9684980" lon="10.2006140">
	<ele>1423.40</ele>
	<time>2025-08-16T06:28:02.000Z</time>
</trkpt>
<trkpt lat="45.9685060" lon="10.2006220">
	<ele>1423.60</ele>
	<time>2025-08-16T06:28:03.000Z</time>
</trkpt>
<trkpt lat="45.9685080" lon="10.2006300">
	<ele>1423.60</ele>
	<time>2025-08-16T06:28:04.000Z</time>
</trkpt>
<trkpt lat="45.9685090" lon="10.2006400">
	<ele>1423.80</ele>
	<time>2025-08-16T06:28:05.000Z</time>
</trkpt>
<trkpt lat="45.9685090" lon="10.2006530">
	<ele>1424.00</ele>
	<time>2025-08-16T06:28:06.000Z</time>
</trkpt>
<trkpt lat="45.9685140" lon="10.2006610">
	<ele>1424.20</ele>
	<time>2025-08-16T06:28:07.000Z</time>
</trkpt>
<trkpt lat="45.9685180" lon="10.2006620">
	<ele>1424.40</ele>
	<time>2025-08-16T06:28:08.000Z</time>
</trkpt>
<trkpt lat="45.9685270" lon="10.2006660">
	<ele>1424.60</ele>
	<time>2025-08-16T06:28:09.000Z</time>
</trkpt>
<trkpt lat="45.9685390" lon="10.2006710">
	<ele>1424.60</ele>
	<time>2025-08-16T06:28:10.000Z</time>
</trkpt>
<trkpt lat="45.9685500" lon="10.2006780">
	<ele>1424.80</ele>
	<time>2025-08-16T06:28:11.000Z</time>
</trkpt>
<trkpt lat="45.9685570" lon="10.2006830">
	<ele>1424.80</ele>
	<time>2025-08-16T06:28:12.000Z</time>
</trkpt>
<trkpt lat="45.9685590" lon="10.2006830">
	<ele>1425.00</ele>
	<time>2025-08-16T06:28:13.000Z</time>
</trkpt>
<trkpt lat="45.9685610" lon="10.2006840">
	<ele>1425.00</ele>
	<time>2025-08-16T06:28:14.000Z</time>
</trkpt>
<trkpt lat="45.9685740" lon="10.2006860">
	<ele>1425.20</ele>
	<time>2025-08-16T06:28:15.000Z</time>
</trkpt>
<trkpt lat="45.9685870" lon="10.2006870">
	<ele>1425.20</ele>
	<time>2025-08-16T06:28:16.000Z</time>
</trkpt>
<trkpt lat="45.9685910" lon="10.2006880">
	<ele>1425.40</ele>
	<time>2025-08-16T06:28:17.000Z</time>
</trkpt>
<trkpt lat="45.9685970" lon="10.2006800">
	<ele>1425.60</ele>
	<time>2025-08-16T06:28:18.000Z</time>
</trkpt>
<trkpt lat="45.9686000" lon="10.2006750">
	<ele>1426.00</ele>
	<time>2025-08-16T06:28:19.000Z</time>
</trkpt>
<trkpt lat="45.9686080" lon="10.2006670">
	<ele>1426.20</ele>
	<time>2025-08-16T06:28:20.000Z</time>
</trkpt>
<trkpt lat="45.9686190" lon="10.2006640">
	<ele>1426.60</ele>
	<time>2025-08-16T06:28:21.000Z</time>
</trkpt>
<trkpt lat="45.9686250" lon="10.2006610">
	<ele>1426.80</ele>
	<time>2025-08-16T06:28:22.000Z</time>
</trkpt>
<trkpt lat="45.9686350" lon="10.2006550">
	<ele>1427.00</ele>
	<time>2025-08-16T06:28:23.000Z</time>
</trkpt>
<trkpt lat="45.9686400" lon="10.2006520">
	<ele>1427.20</ele>
	<time>2025-08-16T06:28:24.000Z</time>
</trkpt>
<trkpt lat="45.9686520" lon="10.2006500">
	<ele>1427.20</ele>
	<time>2025-08-16T06:28:25.000Z</time>
</trkpt>
<trkpt lat="45.9686710" lon="10.2006570">
	<ele>1427.40</ele>
	<time>2025-08-16T06:28:26.000Z</time>
</trkpt>
<trkpt lat="45.9686900" lon="10.2006730">
	<ele>1427.40</ele>
	<time>2025-08-16T06:28:27.000Z</time>
</trkpt>
<trkpt lat="45.9687030" lon="10.2006720">
	<ele>1427.60</ele>
	<time>2025-08-16T06:28:28.000Z</time>
</trkpt>
<trkpt lat="45.9687110" lon="10.2006740">
	<ele>1427.60</ele>
	<time>2025-08-16T06:28:29.000Z</time>
</trkpt>
<trkpt lat="45.9687200" lon="10.2006820">
	<ele>1427.80</ele>
	<time>2025-08-16T06:28:30.000Z</time>
</trkpt>
<trkpt lat="45.9687330" lon="10.2006930">
	<ele>1427.80</ele>
	<time>2025-08-16T06:28:31.000Z</time>
</trkpt>
<trkpt lat="45.9687400" lon="10.2006940">
	<ele>1428.00</ele>
	<time>2025-08-16T06:28:32.000Z</time>
</trkpt>
<trkpt lat="45.9687510" lon="10.2006850">
	<ele>1428.00</ele>
	<time>2025-08-16T06:28:33.000Z</time>
</trkpt>
<trkpt lat="45.9687710" lon="10.2006840">
	<ele>1428.00</ele>
	<time>2025-08-16T06:28:34.000Z</time>
</trkpt>
<trkpt lat="45.9687900" lon="10.2006760">
	<ele>1428.20</ele>
	<time>2025-08-16T06:28:35.000Z</time>
</trkpt>
<trkpt lat="45.9688010" lon="10.2006680">
	<ele>1428.20</ele>
	<time>2025-08-16T06:28:36.000Z</time>
</trkpt>
<trkpt lat="45.9688130" lon="10.2006600">
	<ele>1428.40</ele>
	<time>2025-08-16T06:28:37.000Z</time>
</trkpt>
<trkpt lat="45.9688290" lon="10.2006530">
	<ele>1428.40</ele>
	<time>2025-08-16T06:28:38.000Z</time>
</trkpt>
<trkpt lat="45.9688560" lon="10.2006560">
	<ele>1428.40</ele>
	<time>2025-08-16T06:28:39.000Z</time>
</trkpt>
<trkpt lat="45.9688650" lon="10.2006540">
	<ele>1428.40</ele>
	<time>2025-08-16T06:28:40.000Z</time>
</trkpt>
<trkpt lat="45.9688630" lon="10.2006490">
	<ele>1428.40</ele>
	<time>2025-08-16T06:28:41.000Z</time>
</trkpt>
<trkpt lat="45.9688620" lon="10.2006460">
	<ele>1428.40</ele>
	<time>2025-08-16T06:28:42.000Z</time>
</trkpt>
<trkpt lat="45.9688750" lon="10.2006450">
	<ele>1428.40</ele>
	<time>2025-08-16T06:28:43.000Z</time>
</trkpt>
<trkpt lat="45.9688980" lon="10.2006540">
	<ele>1428.60</ele>
	<time>2025-08-16T06:28:44.000Z</time>
</trkpt>
<trkpt lat="45.9689030" lon="10.2006580">
	<ele>1428.60</ele>
	<time>2025-08-16T06:28:45.000Z</time>
</trkpt>
<trkpt lat="45.9689000" lon="10.2006510">
	<ele>1428.80</ele>
	<time>2025-08-16T06:28:46.000Z</time>
</trkpt>
<trkpt lat="45.9689060" lon="10.2006460">
	<ele>1428.80</ele>
	<time>2025-08-16T06:28:47.000Z</time>
</trkpt>
<trkpt lat="45.9689110" lon="10.2006400">
	<ele>1428.80</ele>
	<time>2025-08-16T06:28:48.000Z</time>
</trkpt>
<trkpt lat="45.9689170" lon="10.2006350">
	<ele>1429.00</ele>
	<time>2025-08-16T06:28:49.000Z</time>
</trkpt>
<trkpt lat="45.9689230" lon="10.2006250">
	<ele>1429.00</ele>
	<time>2025-08-16T06:28:50.000Z</time>
</trkpt>
<trkpt lat="45.9689270" lon="10.2006130">
	<ele>1429.20</ele>
	<time>2025-08-16T06:28:51.000Z</time>
</trkpt>
<trkpt lat="45.9689390" lon="10.2006060">
	<ele>1429.20</ele>
	<time>2025-08-16T06:28:52.000Z</time>
</trkpt>
<trkpt lat="45.9689500" lon="10.2006010">
	<ele>1429.40</ele>
	<time>2025-08-16T06:28:53.000Z</time>
</trkpt>
<trkpt lat="45.9689640" lon="10.2005990">
	<ele>1429.60</ele>
	<time>2025-08-16T06:28:54.000Z</time>
</trkpt>
<trkpt lat="45.9689720" lon="10.2005910">
	<ele>1429.60</ele>
	<time>2025-08-16T06:28:55.000Z</time>
</trkpt>
<trkpt lat="45.9689820" lon="10.2005810">
	<ele>1430.00</ele>
	<time>2025-08-16T06:28:56.000Z</time>
</trkpt>
<trkpt lat="45.9689970" lon="10.2005680">
	<ele>1430.00</ele>
	<time>2025-08-16T06:28:57.000Z</time>
</trkpt>
<trkpt lat="45.9690060" lon="10.2005480">
	<ele>1430.20</ele>
	<time>2025-08-16T06:28:58.000Z</time>
</trkpt>
<trkpt lat="45.9690200" lon="10.2005410">
	<ele>1430.40</ele>
	<time>2025-08-16T06:28:59.000Z</time>
</trkpt>
<trkpt lat="45.9690340" lon="10.2005410">
	<ele>1430.60</ele>
	<time>2025-08-16T06:29:00.000Z</time>
</trkpt>
<trkpt lat="45.9690460" lon="10.2005480">
	<ele>1431.00</ele>
	<time>2025-08-16T06:29:01.000Z</time>
</trkpt>
<trkpt lat="45.9690470" lon="10.2005520">
	<ele>1431.20</ele>
	<time>2025-08-16T06:29:02.000Z</time>
</trkpt>
<trkpt lat="45.9690470" lon="10.2005400">
	<ele>1431.40</ele>
	<time>2025-08-16T06:29:03.000Z</time>
</trkpt>
<trkpt lat="45.9690510" lon="10.2005340">
	<ele>1431.60</ele>
	<time>2025-08-16T06:29:04.000Z</time>
</trkpt>
<trkpt lat="45.9690550" lon="10.2005180">
	<ele>1431.80</ele>
	<time>2025-08-16T06:29:05.000Z</time>
</trkpt>
<trkpt lat="45.9690580" lon="10.2004880">
	<ele>1432.00</ele>
	<time>2025-08-16T06:29:06.000Z</time>
</trkpt>
<trkpt lat="45.9690650" lon="10.2004620">
	<ele>1432.20</ele>
	<time>2025-08-16T06:29:07.000Z</time>
</trkpt>
<trkpt lat="45.9690790" lon="10.2004450">
	<ele>1432.40</ele>
	<time>2025-08-16T06:29:08.000Z</time>
</trkpt>
<trkpt lat="45.9690900" lon="10.2004290">
	<ele>1432.60</ele>
	<time>2025-08-16T06:29:09.000Z</time>
</trkpt>
<trkpt lat="45.9691040" lon="10.2004190">
	<ele>1432.80</ele>
	<time>2025-08-16T06:29:10.000Z</time>
</trkpt>
<trkpt lat="45.9691080" lon="10.2004120">
	<ele>1432.80</ele>
	<time>2025-08-16T06:29:11.000Z</time>
</trkpt>
<trkpt lat="45.9691120" lon="10.2004070">
	<ele>1433.00</ele>
	<time>2025-08-16T06:29:12.000Z</time>
</trkpt>
<trkpt lat="45.9691150" lon="10.2004040">
	<ele>1433.00</ele>
	<time>2025-08-16T06:29:13.000Z</time>
</trkpt>
<trkpt lat="45.9691160" lon="10.2004040">
	<ele>1433.00</ele>
	<time>2025-08-16T06:29:14.000Z</time>
</trkpt>
<trkpt lat="45.9691170" lon="10.2004040">
	<ele>1433.00</ele>
	<time>2025-08-16T06:29:15.000Z</time>
</trkpt>
<trkpt lat="45.9691190" lon="10.2004040">
	<ele>1433.00</ele>
	<time>2025-08-16T06:29:16.000Z</time>
</trkpt>
<trkpt lat="45.9691420" lon="10.2003900">
	<ele>1433.20</ele>
	<time>2025-08-16T06:29:17.000Z</time>
</trkpt>
<trkpt lat="45.9691450" lon="10.2003860">
	<ele>1433.20</ele>
	<time>2025-08-16T06:29:18.000Z</time>
</trkpt>
<trkpt lat="45.9691490" lon="10.2003830">
	<ele>1433.20</ele>
	<time>2025-08-16T06:29:19.000Z</time>
</trkpt>
<trkpt lat="45.9691590" lon="10.2003880">
	<ele>1433.40</ele>
	<time>2025-08-16T06:29:20.000Z</time>
</trkpt>
<trkpt lat="45.9691580" lon="10.2003860">
	<ele>1433.40</ele>
	<time>2025-08-16T06:29:21.000Z</time>
</trkpt>
<trkpt lat="45.9691690" lon="10.2003630">
	<ele>1433.60</ele>
	<time>2025-08-16T06:29:22.000Z</time>
</trkpt>
<trkpt lat="45.9691680" lon="10.2003590">
	<ele>1433.60</ele>
	<time>2025-08-16T06:29:23.000Z</time>
</trkpt>
<trkpt lat="45.9691660" lon="10.2003540">
	<ele>1433.60</ele>
	<time>2025-08-16T06:29:24.000Z</time>
</trkpt>
<trkpt lat="45.9691670" lon="10.2003570">
	<ele>1433.80</ele>
	<time>2025-08-16T06:29:25.000Z</time>
</trkpt>
<trkpt lat="45.9691680" lon="10.2003540">
	<ele>1434.00</ele>
	<time>2025-08-16T06:29:26.000Z</time>
</trkpt>
<trkpt lat="45.9691680" lon="10.2003510">
	<ele>1434.40</ele>
	<time>2025-08-16T06:29:27.000Z</time>
</trkpt>
<trkpt lat="45.9691680" lon="10.2003480">
	<ele>1434.40</ele>
	<time>2025-08-16T06:29:28.000Z</time>
</trkpt>
<trkpt lat="45.9691680" lon="10.2003450">
	<ele>1434.60</ele>
	<time>2025-08-16T06:29:29.000Z</time>
</trkpt>
<trkpt lat="45.9691660" lon="10.2003430">
	<ele>1434.60</ele>
	<time>2025-08-16T06:29:30.000Z</time>
</trkpt>
<trkpt lat="45.9691640" lon="10.2003430">
	<ele>1434.40</ele>
	<time>2025-08-16T06:29:31.000Z</time>
</trkpt>
<trkpt lat="45.9691700" lon="10.2003470">
	<ele>1434.40</ele>
	<time>2025-08-16T06:29:32.000Z</time>
</trkpt>
<trkpt lat="45.9691720" lon="10.2003500">
	<ele>1434.40</ele>
	<time>2025-08-16T06:29:33.000Z</time>
</trkpt>
<trkpt lat="45.9691690" lon="10.2003500">
	<ele>1434.40</ele>
	<time>2025-08-16T06:29:34.000Z</time>
</trkpt>
<trkpt lat="45.9691680" lon="10.2003500">
	<ele>1434.40</ele>
	<time>2025-08-16T06:29:35.000Z</time>
</trkpt>
<trkpt lat="45.9691690" lon="10.2003500">
	<ele>1434.40</ele>
	<time>2025-08-16T06:29:36.000Z</time>
</trkpt>
<trkpt lat="45.9691690" lon="10.2003500">
	<ele>1434.40</ele>
	<time>2025-08-16T06:29:37.000Z</time>
</trkpt>
<trkpt lat="45.9691690" lon="10.2003500">
	<ele>1434.40</ele>
	<time>2025-08-16T06:29:38.000Z</time>
</trkpt>
<trkpt lat="45.9691690" lon="10.2003500">
	<ele>1434.40</ele>
	<time>2025-08-16T06:29:39.000Z</time>
</trkpt>
<trkpt lat="45.9691690" lon="10.2003500">
	<ele>1434.40</ele>
	<time>2025-08-16T06:29:40.000Z</time>
</trkpt>
<trkpt lat="45.9691690" lon="10.2003500">
	<ele>1434.20</ele>
	<time>2025-08-16T06:29:41.000Z</time>
</trkpt>
<trkpt lat="45.9691690" lon="10.2003500">
	<ele>1434.20</ele>
	<time>2025-08-16T06:29:42.000Z</time>
</trkpt>
<trkpt lat="45.9691690" lon="10.2003500">
	<ele>1434.20</ele>
	<time>2025-08-16T06:29:43.000Z</time>
</trkpt>
<trkpt lat="45.9691690" lon="10.2003500">
	<ele>1434.00</ele>
	<time>2025-08-16T06:29:44.000Z</time>
</trkpt>
<trkpt lat="45.9691690" lon="10.2003500">
	<ele>1434.00</ele>
	<time>2025-08-16T06:29:45.000Z</time>
</trkpt>
<trkpt lat="45.9691690" lon="10.2003500">
	<ele>1434.00</ele>
	<time>2025-08-16T06:29:46.000Z</time>
</trkpt>
<trkpt lat="45.9691690" lon="10.2003500">
	<ele>1434.00</ele>
	<time>2025-08-16T06:29:47.000Z</time>
</trkpt>
<trkpt lat="45.9691690" lon="10.2003500">
	<ele>1434.00</ele>
	<time>2025-08-16T06:29:48.000Z</time>
</trkpt>
<trkpt lat="45.9691690" lon="10.2003500">
	<ele>1434.00</ele>
	<time>2025-08-16T06:29:49.000Z</time>
</trkpt>
<trkpt lat="45.9691700" lon="10.2003500">
	<ele>1434.00</ele>
	<time>2025-08-16T06:29:50.000Z</time>
</trkpt>
<trkpt lat="45.9691700" lon="10.2003500">
	<ele>1434.00</ele>
	<time>2025-08-16T06:29:51.000Z</time>
</trkpt>
<trkpt lat="45.9691720" lon="10.2003500">
	<ele>1433.80</ele>
	<time>2025-08-16T06:29:52.000Z</time>
</trkpt>
<trkpt lat="45.9691730" lon="10.2003540">
	<ele>1433.80</ele>
	<time>2025-08-16T06:29:53.000Z</time>
</trkpt>
<trkpt lat="45.9691770" lon="10.2003560">
	<ele>1433.60</ele>
	<time>2025-08-16T06:29:54.000Z</time>
</trkpt>
<trkpt lat="45.9691790" lon="10.2003450">
	<ele>1433.80</ele>
	<time>2025-08-16T06:29:55.000Z</time>
</trkpt>
<trkpt lat="45.9691820" lon="10.2003390">
	<ele>1433.80</ele>
	<time>2025-08-16T06:29:56.000Z</time>
</trkpt>
<trkpt lat="45.9691960" lon="10.2003280">
	<ele>1433.80</ele>
	<time>2025-08-16T06:29:57.000Z</time>
</trkpt>
<trkpt lat="45.9692010" lon="10.2003280">
	<ele>1433.80</ele>
	<time>2025-08-16T06:29:58.000Z</time>
</trkpt>
<trkpt lat="45.9692090" lon="10.2003260">
	<ele>1434.00</ele>
	<time>2025-08-16T06:29:59.000Z</time>
</trkpt>
<trkpt lat="45.9692160" lon="10.2003200">
	<ele>1434.00</ele>
	<time>2025-08-16T06:30:00.000Z</time>
</trkpt>
<trkpt lat="45.9692280" lon="10.2003150">
	<ele>1434.00</ele>
	<time>2025-08-16T06:30:01.000Z</time>
</trkpt>
<trkpt lat="45.9692410" lon="10.2003090">
	<ele>1434.00</ele>
	<time>2025-08-16T06:30:02.000Z</time>
</trkpt>
<trkpt lat="45.9692460" lon="10.2003060">
	<ele>1434.00</ele>
	<time>2025-08-16T06:30:03.000Z</time>
</trkpt>
<trkpt lat="45.9692550" lon="10.2003030">
	<ele>1434.00</ele>
	<time>2025-08-16T06:30:04.000Z</time>
</trkpt>
<trkpt lat="45.9692590" lon="10.2003010">
	<ele>1434.20</ele>
	<time>2025-08-16T06:30:05.000Z</time>
</trkpt>
<trkpt lat="45.9692640" lon="10.2002920">
	<ele>1434.20</ele>
	<time>2025-08-16T06:30:06.000Z</time>
</trkpt>
<trkpt lat="45.9692670" lon="10.2002770">
	<ele>1434.40</ele>
	<time>2025-08-16T06:30:07.000Z</time>
</trkpt>
<trkpt lat="45.9692730" lon="10.2002620">
	<ele>1434.40</ele>
	<time>2025-08-16T06:30:08.000Z</time>
</trkpt>
<trkpt lat="45.9692780" lon="10.2002490">
	<ele>1434.60</ele>
	<time>2025-08-16T06:30:09.000Z</time>
</trkpt>
<trkpt lat="45.9692880" lon="10.2002360">
	<ele>1434.60</ele>
	<time>2025-08-16T06:30:10.000Z</time>
</trkpt>
<trkpt lat="45.9692980" lon="10.2002290">
	<ele>1434.80</ele>
	<time>2025-08-16T06:30:11.000Z</time>
</trkpt>
<trkpt lat="45.9693150" lon="10.2002280">
	<ele>1434.80</ele>
	<time>2025-08-16T06:30:12.000Z</time>
</trkpt>
<trkpt lat="45.9693350" lon="10.2002270">
	<ele>1434.80</ele>
	<time>2025-08-16T06:30:13.000Z</time>
</trkpt>
<trkpt lat="45.9693560" lon="10.2002240">
	<ele>1435.00</ele>
	<time>2025-08-16T06:30:14.000Z</time>
</trkpt>
<trkpt lat="45.9693740" lon="10.2002180">
	<ele>1435.00</ele>
	<time>2025-08-16T06:30:15.000Z</time>
</trkpt>
<trkpt lat="45.9693850" lon="10.2002110">
	<ele>1435.00</ele>
	<time>2025-08-16T06:30:16.000Z</time>
</trkpt>
<trkpt lat="45.9693860" lon="10.2002090">
	<ele>1435.40</ele>
	<time>2025-08-16T06:30:17.000Z</time>
</trkpt>
<trkpt lat="45.9693960" lon="10.2002170">
	<ele>1435.40</ele>
	<time>2025-08-16T06:30:18.000Z</time>
</trkpt>
<trkpt lat="45.9694110" lon="10.2002180">
	<ele>1435.60</ele>
	<time>2025-08-16T06:30:19.000Z</time>
</trkpt>
<trkpt lat="45.9694260" lon="10.2002190">
	<ele>1435.60</ele>
	<time>2025-08-16T06:30:20.000Z</time>
</trkpt>
<trkpt lat="45.9694310" lon="10.2002200">
	<ele>1435.80</ele>
	<time>2025-08-16T06:30:21.000Z</time>
</trkpt>
<trkpt lat="45.9694300" lon="10.2002210">
	<ele>1436.00</ele>
	<time>2025-08-16T06:30:22.000Z</time>
</trkpt>
<trkpt lat="45.9694350" lon="10.2002200">
	<ele>1436.20</ele>
	<time>2025-08-16T06:30:23.000Z</time>
</trkpt>
<trkpt lat="45.9694320" lon="10.2002200">
	<ele>1436.40</ele>
	<time>2025-08-16T06:30:24.000Z</time>
</trkpt>
<trkpt lat="45.9694320" lon="10.2002170">
	<ele>1436.40</ele>
	<time>2025-08-16T06:30:25.000Z</time>
</trkpt>
<trkpt lat="45.9694290" lon="10.2002200">
	<ele>1436.60</ele>
	<time>2025-08-16T06:30:26.000Z</time>
</trkpt>
<trkpt lat="45.9694370" lon="10.2002190">
	<ele>1436.60</ele>
	<time>2025-08-16T06:30:27.000Z</time>
</trkpt>
<trkpt lat="45.9694450" lon="10.2002160">
	<ele>1436.60</ele>
	<time>2025-08-16T06:30:28.000Z</time>
</trkpt>
<trkpt lat="45.9694490" lon="10.2002170">
	<ele>1436.60</ele>
	<time>2025-08-16T06:30:29.000Z</time>
</trkpt>
<trkpt lat="45.9694540" lon="10.2002170">
	<ele>1436.80</ele>
	<time>2025-08-16T06:30:30.000Z</time>
</trkpt>
<trkpt lat="45.9694550" lon="10.2002170">
	<ele>1436.80</ele>
	<time>2025-08-16T06:30:31.000Z</time>
</trkpt>
<trkpt lat="45.9694620" lon="10.2002230">
	<ele>1436.80</ele>
	<time>2025-08-16T06:30:32.000Z</time>
</trkpt>
<trkpt lat="45.9694750" lon="10.2002260">
	<ele>1437.00</ele>
	<time>2025-08-16T06:30:33.000Z</time>
</trkpt>
<trkpt lat="45.9694890" lon="10.2002250">
	<ele>1437.20</ele>
	<time>2025-08-16T06:30:34.000Z</time>
</trkpt>
<trkpt lat="45.9695040" lon="10.2002240">
	<ele>1437.40</ele>
	<time>2025-08-16T06:30:35.000Z</time>
</trkpt>
<trkpt lat="45.9695170" lon="10.2002290">
	<ele>1437.60</ele>
	<time>2025-08-16T06:30:36.000Z</time>
</trkpt>
<trkpt lat="45.9695230" lon="10.2002280">
	<ele>1437.80</ele>
	<time>2025-08-16T06:30:37.000Z</time>
</trkpt>
<trkpt lat="45.9695270" lon="10.2002370">
	<ele>1437.80</ele>
	<time>2025-08-16T06:30:38.000Z</time>
</trkpt>
<trkpt lat="45.9695360" lon="10.2002510">
	<ele>1438.00</ele>
	<time>2025-08-16T06:30:39.000Z</time>
</trkpt>
<trkpt lat="45.9695510" lon="10.2002650">
	<ele>1438.40</ele>
	<time>2025-08-16T06:30:40.000Z</time>
</trkpt>
<trkpt lat="45.9695690" lon="10.2002850">
	<ele>1438.60</ele>
	<time>2025-08-16T06:30:41.000Z</time>
</trkpt>
<trkpt lat="45.9695750" lon="10.2002880">
	<ele>1438.80</ele>
	<time>2025-08-16T06:30:42.000Z</time>
</trkpt>
<trkpt lat="45.9695780" lon="10.2002910">
	<ele>1439.00</ele>
	<time>2025-08-16T06:30:43.000Z</time>
</trkpt>
<trkpt lat="45.9695890" lon="10.2002960">
	<ele>1439.20</ele>
	<time>2025-08-16T06:30:44.000Z</time>
</trkpt>
<trkpt lat="45.9696020" lon="10.2002990">
	<ele>1439.40</ele>
	<time>2025-08-16T06:30:45.000Z</time>
</trkpt>
<trkpt lat="45.9696130" lon="10.2002950">
	<ele>1439.40</ele>
	<time>2025-08-16T06:30:46.000Z</time>
</trkpt>
<trkpt lat="45.9696230" lon="10.2002920">
	<ele>1439.60</ele>
	<time>2025-08-16T06:30:47.000Z</time>
</trkpt>
<trkpt lat="45.9696320" lon="10.2002890">
	<ele>1439.80</ele>
	<time>2025-08-16T06:30:48.000Z</time>
</trkpt>
<trkpt lat="45.9696370" lon="10.2002820">
	<ele>1440.20</ele>
	<time>2025-08-16T06:30:49.000Z</time>
</trkpt>
<trkpt lat="45.9696430" lon="10.2002710">
	<ele>1440.40</ele>
	<time>2025-08-16T06:30:50.000Z</time>
</trkpt>
<trkpt lat="45.9696600" lon="10.2002760">
	<ele>1440.40</ele>
	<time>2025-08-16T06:30:51.000Z</time>
</trkpt>
<trkpt lat="45.9696730" lon="10.2002810">
	<ele>1440.60</ele>
	<time>2025-08-16T06:30:52.000Z</time>
</trkpt>
<trkpt lat="45.9696820" lon="10.2002850">
	<ele>1440.80</ele>
	<time>2025-08-16T06:30:53.000Z</time>
</trkpt>
<trkpt lat="45.9696880" lon="10.2002850">
	<ele>1441.00</ele>
	<time>2025-08-16T06:30:54.000Z</time>
</trkpt>
<trkpt lat="45.9696900" lon="10.2002860">
	<ele>1441.20</ele>
	<time>2025-08-16T06:30:55.000Z</time>
</trkpt>
<trkpt lat="45.9696960" lon="10.2002880">
	<ele>1441.40</ele>
	<time>2025-08-16T06:30:56.000Z</time>
</trkpt>
<trkpt lat="45.9697040" lon="10.2002900">
	<ele>1441.60</ele>
	<time>2025-08-16T06:30:57.000Z</time>
</trkpt>
<trkpt lat="45.9697110" lon="10.2002900">
	<ele>1441.80</ele>
	<time>2025-08-16T06:30:58.000Z</time>
</trkpt>
<trkpt lat="45.9697190" lon="10.2002930">
	<ele>1441.80</ele>
	<time>2025-08-16T06:30:59.000Z</time>
</trkpt>
<trkpt lat="45.9697230" lon="10.2002940">
	<ele>1442.00</ele>
	<time>2025-08-16T06:31:00.000Z</time>
</trkpt>
<trkpt lat="45.9697230" lon="10.2002930">
	<ele>1442.20</ele>
	<time>2025-08-16T06:31:01.000Z</time>
</trkpt>
<trkpt lat="45.9697270" lon="10.2002940">
	<ele>1442.40</ele>
	<time>2025-08-16T06:31:02.000Z</time>
</trkpt>
<trkpt lat="45.9697310" lon="10.2002870">
	<ele>1442.60</ele>
	<time>2025-08-16T06:31:03.000Z</time>
</trkpt>
<trkpt lat="45.9697420" lon="10.2002880">
	<ele>1443.00</ele>
	<time>2025-08-16T06:31:04.000Z</time>
</trkpt>
<trkpt lat="45.9697510" lon="10.2002930">
	<ele>1443.20</ele>
	<time>2025-08-16T06:31:05.000Z</time>
</trkpt>
<trkpt lat="45.9697570" lon="10.2002930">
	<ele>1443.40</ele>
	<time>2025-08-16T06:31:06.000Z</time>
</trkpt>
<trkpt lat="45.9697600" lon="10.2002930">
	<ele>1443.40</ele>
	<time>2025-08-16T06:31:07.000Z</time>
</trkpt>
<trkpt lat="45.9697610" lon="10.2002820">
	<ele>1443.80</ele>
	<time>2025-08-16T06:31:08.000Z</time>
</trkpt>
<trkpt lat="45.9697680" lon="10.2002790">
	<ele>1443.80</ele>
	<time>2025-08-16T06:31:09.000Z</time>
</trkpt>
<trkpt lat="45.9697850" lon="10.2002820">
	<ele>1444.00</ele>
	<time>2025-08-16T06:31:10.000Z</time>
</trkpt>
<trkpt lat="45.9698030" lon="10.2002860">
	<ele>1444.20</ele>
	<time>2025-08-16T06:31:11.000Z</time>
</trkpt>
<trkpt lat="45.9698170" lon="10.2002840">
	<ele>1444.40</ele>
	<time>2025-08-16T06:31:12.000Z</time>
</trkpt>
<trkpt lat="45.9698240" lon="10.2002820">
	<ele>1444.60</ele>
	<time>2025-08-16T06:31:13.000Z</time>
</trkpt>
<trkpt lat="45.9698390" lon="10.2002880">
	<ele>1444.80</ele>
	<time>2025-08-16T06:31:14.000Z</time>
</trkpt>
<trkpt lat="45.9698530" lon="10.2002880">
	<ele>1445.00</ele>
	<time>2025-08-16T06:31:15.000Z</time>
</trkpt>
<trkpt lat="45.9698810" lon="10.2003000">
	<ele>1445.20</ele>
	<time>2025-08-16T06:31:16.000Z</time>
</trkpt>
<trkpt lat="45.9698980" lon="10.2003060">
	<ele>1445.60</ele>
	<time>2025-08-16T06:31:17.000Z</time>
</trkpt>
<trkpt lat="45.9699090" lon="10.2002990">
	<ele>1445.80</ele>
	<time>2025-08-16T06:31:18.000Z</time>
</trkpt>
<trkpt lat="45.9699250" lon="10.2002990">
	<ele>1446.00</ele>
	<time>2025-08-16T06:31:19.000Z</time>
</trkpt>
<trkpt lat="45.9699320" lon="10.2003020">
	<ele>1446.20</ele>
	<time>2025-08-16T06:31:20.000Z</time>
</trkpt>
<trkpt lat="45.9699450" lon="10.2003140">
	<ele>1446.40</ele>
	<time>2025-08-16T06:31:21.000Z</time>
</trkpt>
<trkpt lat="45.9699600" lon="10.2003190">
	<ele>1446.60</ele>
	<time>2025-08-16T06:31:22.000Z</time>
</trkpt>
<trkpt lat="45.9699710" lon="10.2003280">
	<ele>1446.80</ele>
	<time>2025-08-16T06:31:23.000Z</time>
</trkpt>
<trkpt lat="45.9699780" lon="10.2003440">
	<ele>1447.00</ele>
	<time>2025-08-16T06:31:24.000Z</time>
</trkpt>
<trkpt lat="45.9699860" lon="10.2003580">
	<ele>1447.20</ele>
	<time>2025-08-16T06:31:25.000Z</time>
</trkpt>
<trkpt lat="45.9699940" lon="10.2003600">
	<ele>1447.60</ele>
	<time>2025-08-16T06:31:26.000Z</time>
</trkpt>
<trkpt lat="45.9700030" lon="10.2003550">
	<ele>1447.80</ele>
	<time>2025-08-16T06:31:27.000Z</time>
</trkpt>
<trkpt lat="45.9700180" lon="10.2003510">
	<ele>1447.80</ele>
	<time>2025-08-16T06:31:28.000Z</time>
</trkpt>
<trkpt lat="45.9700320" lon="10.2003500">
	<ele>1448.00</ele>
	<time>2025-08-16T06:31:29.000Z</time>
</trkpt>
<trkpt lat="45.9700410" lon="10.2003520">
	<ele>1448.20</ele>
	<time>2025-08-16T06:31:30.000Z</time>
</trkpt>
<trkpt lat="45.9700390" lon="10.2003600">
	<ele>1448.20</ele>
	<time>2025-08-16T06:31:31.000Z</time>
</trkpt>
<trkpt lat="45.9700430" lon="10.2003660">
	<ele>1448.40</ele>
	<time>2025-08-16T06:31:32.000Z</time>
</trkpt>
<trkpt lat="45.9700490" lon="10.2003740">
	<ele>1448.40</ele>
	<time>2025-08-16T06:31:33.000Z</time>
</trkpt>
<trkpt lat="45.9700530" lon="10.2003860">
	<ele>1448.60</ele>
	<time>2025-08-16T06:31:34.000Z</time>
</trkpt>
<trkpt lat="45.9700550" lon="10.2003860">
	<ele>1448.60</ele>
	<time>2025-08-16T06:31:35.000Z</time>
</trkpt>
<trkpt lat="45.9700580" lon="10.2003900">
	<ele>1448.80</ele>
	<time>2025-08-16T06:31:36.000Z</time>
</trkpt>
<trkpt lat="45.9700640" lon="10.2003970">
	<ele>1449.00</ele>
	<time>2025-08-16T06:31:37.000Z</time>
</trkpt>
<trkpt lat="45.9700670" lon="10.2004070">
	<ele>1449.20</ele>
	<time>2025-08-16T06:31:38.000Z</time>
</trkpt>
<trkpt lat="45.9700690" lon="10.2004140">
	<ele>1449.40</ele>
	<time>2025-08-16T06:31:39.000Z</time>
</trkpt>
<trkpt lat="45.9700700" lon="10.2004310">
	<ele>1449.60</ele>
	<time>2025-08-16T06:31:40.000Z</time>
</trkpt>
<trkpt lat="45.9700780" lon="10.2004450">
	<ele>1449.60</ele>
	<time>2025-08-16T06:31:41.000Z</time>
</trkpt>
<trkpt lat="45.9700910" lon="10.2004650">
	<ele>1449.80</ele>
	<time>2025-08-16T06:31:42.000Z</time>
</trkpt>
<trkpt lat="45.9701000" lon="10.2004830">
	<ele>1449.80</ele>
	<time>2025-08-16T06:31:43.000Z</time>
</trkpt>
<trkpt lat="45.9701020" lon="10.2004980">
	<ele>1450.00</ele>
	<time>2025-08-16T06:31:44.000Z</time>
</trkpt>
<trkpt lat="45.9701060" lon="10.2005070">
	<ele>1450.00</ele>
	<time>2025-08-16T06:31:45.000Z</time>
</trkpt>
<trkpt lat="45.9701130" lon="10.2005170">
	<ele>1450.20</ele>
	<time>2025-08-16T06:31:46.000Z</time>
</trkpt>
<trkpt lat="45.9701180" lon="10.2005280">
	<ele>1450.20</ele>
	<time>2025-08-16T06:31:47.000Z</time>
</trkpt>
<trkpt lat="45.9701230" lon="10.2005370">
	<ele>1450.40</ele>
	<time>2025-08-16T06:31:48.000Z</time>
</trkpt>
<trkpt lat="45.9701340" lon="10.2005460">
	<ele>1450.40</ele>
	<time>2025-08-16T06:31:49.000Z</time>
</trkpt>
<trkpt lat="45.9701550" lon="10.2005540">
	<ele>1450.80</ele>
	<time>2025-08-16T06:31:50.000Z</time>
</trkpt>
<trkpt lat="45.9701620" lon="10.2005600">
	<ele>1450.80</ele>
	<time>2025-08-16T06:31:51.000Z</time>
</trkpt>
<trkpt lat="45.9701700" lon="10.2005760">
	<ele>1451.00</ele>
	<time>2025-08-16T06:31:52.000Z</time>
</trkpt>
<trkpt lat="45.9701700" lon="10.2005890">
	<ele>1451.00</ele>
	<time>2025-08-16T06:31:53.000Z</time>
</trkpt>
<trkpt lat="45.9701720" lon="10.2005980">
	<ele>1451.00</ele>
	<time>2025-08-16T06:31:54.000Z</time>
</trkpt>
<trkpt lat="45.9701750" lon="10.2006060">
	<ele>1451.20</ele>
	<time>2025-08-16T06:31:55.000Z</time>
</trkpt>
<trkpt lat="45.9701790" lon="10.2006140">
	<ele>1451.40</ele>
	<time>2025-08-16T06:31:56.000Z</time>
</trkpt>
<trkpt lat="45.9701840" lon="10.2006250">
	<ele>1451.40</ele>
	<time>2025-08-16T06:31:57.000Z</time>
</trkpt>
<trkpt lat="45.9701930" lon="10.2006390">
	<ele>1451.40</ele>
	<time>2025-08-16T06:31:58.000Z</time>
</trkpt>
<trkpt lat="45.9702030" lon="10.2006500">
	<ele>1451.60</ele>
	<time>2025-08-16T06:31:59.000Z</time>
</trkpt>
<trkpt lat="45.9702110" lon="10.2006560">
	<ele>1451.60</ele>
	<time>2025-08-16T06:32:00.000Z</time>
</trkpt>
<trkpt lat="45.9702160" lon="10.2006620">
	<ele>1451.60</ele>
	<time>2025-08-16T06:32:01.000Z</time>
</trkpt>
<trkpt lat="45.9702190" lon="10.2006620">
	<ele>1451.80</ele>
	<time>2025-08-16T06:32:02.000Z</time>
</trkpt>
<trkpt lat="45.9702230" lon="10.2006700">
	<ele>1451.80</ele>
	<time>2025-08-16T06:32:03.000Z</time>
</trkpt>
<trkpt lat="45.9702280" lon="10.2006760">
	<ele>1452.00</ele>
	<time>2025-08-16T06:32:04.000Z</time>
</trkpt>
<trkpt lat="45.9702350" lon="10.2006780">
	<ele>1452.20</ele>
	<time>2025-08-16T06:32:05.000Z</time>
</trkpt>
<trkpt lat="45.9702460" lon="10.2006730">
	<ele>1452.20</ele>
	<time>2025-08-16T06:32:06.000Z</time>
</trkpt>
<trkpt lat="45.9702590" lon="10.2006780">
	<ele>1452.20</ele>
	<time>2025-08-16T06:32:07.000Z</time>
</trkpt>
<trkpt lat="45.9702700" lon="10.2006820">
	<ele>1452.60</ele>
	<time>2025-08-16T06:32:08.000Z</time>
</trkpt>
<trkpt lat="45.9702780" lon="10.2006890">
	<ele>1452.60</ele>
	<time>2025-08-16T06:32:09.000Z</time>
</trkpt>
<trkpt lat="45.9702850" lon="10.2006970">
	<ele>1452.80</ele>
	<time>2025-08-16T06:32:10.000Z</time>
</trkpt>
<trkpt lat="45.9702970" lon="10.2007070">
	<ele>1452.80</ele>
	<time>2025-08-16T06:32:11.000Z</time>
</trkpt>
<trkpt lat="45.9703100" lon="10.2007170">
	<ele>1453.00</ele>
	<time>2025-08-16T06:32:12.000Z</time>
</trkpt>
<trkpt lat="45.9703220" lon="10.2007180">
	<ele>1453.20</ele>
	<time>2025-08-16T06:32:13.000Z</time>
</trkpt>
<trkpt lat="45.9703310" lon="10.2007150">
	<ele>1453.60</ele>
	<time>2025-08-16T06:32:14.000Z</time>
</trkpt>
<trkpt lat="45.9703380" lon="10.2007130">
	<ele>1453.80</ele>
	<time>2025-08-16T06:32:15.000Z</time>
</trkpt>
<trkpt lat="45.9703460" lon="10.2007130">
	<ele>1453.80</ele>
	<time>2025-08-16T06:32:16.000Z</time>
</trkpt>
<trkpt lat="45.9703470" lon="10.2007120">
	<ele>1454.00</ele>
	<time>2025-08-16T06:32:17.000Z</time>
</trkpt>
<trkpt lat="45.9703520" lon="10.2007100">
	<ele>1454.40</ele>
	<time>2025-08-16T06:32:18.000Z</time>
</trkpt>
<trkpt lat="45.9703620" lon="10.2007080">
	<ele>1454.40</ele>
	<time>2025-08-16T06:32:19.000Z</time>
</trkpt>
<trkpt lat="45.9703710" lon="10.2007060">
	<ele>1454.60</ele>
	<time>2025-08-16T06:32:20.000Z</time>
</trkpt>
<trkpt lat="45.9703770" lon="10.2007050">
	<ele>1454.80</ele>
	<time>2025-08-16T06:32:21.000Z</time>
</trkpt>
<trkpt lat="45.9703800" lon="10.2007030">
	<ele>1455.00</ele>
	<time>2025-08-16T06:32:22.000Z</time>
</trkpt>
<trkpt lat="45.9703830" lon="10.2007020">
	<ele>1455.20</ele>
	<time>2025-08-16T06:32:23.000Z</time>
</trkpt>
<trkpt lat="45.9703900" lon="10.2007000">
	<ele>1455.60</ele>
	<time>2025-08-16T06:32:24.000Z</time>
</trkpt>
<trkpt lat="45.9703950" lon="10.2007000">
	<ele>1455.80</ele>
	<time>2025-08-16T06:32:25.000Z</time>
</trkpt>
<trkpt lat="45.9704000" lon="10.2007000">
	<ele>1456.00</ele>
	<time>2025-08-16T06:32:26.000Z</time>
</trkpt>
<trkpt lat="45.9704030" lon="10.2007000">
	<ele>1456.20</ele>
	<time>2025-08-16T06:32:27.000Z</time>
</trkpt>
<trkpt lat="45.9704210" lon="10.2007050">
	<ele>1456.40</ele>
	<time>2025-08-16T06:32:28.000Z</time>
</trkpt>
<trkpt lat="45.9704330" lon="10.2007080">
	<ele>1456.40</ele>
	<time>2025-08-16T06:32:29.000Z</time>
</trkpt>
<trkpt lat="45.9704430" lon="10.2007100">
	<ele>1456.60</ele>
	<time>2025-08-16T06:32:30.000Z</time>
</trkpt>
<trkpt lat="45.9704540" lon="10.2007070">
	<ele>1457.00</ele>
	<time>2025-08-16T06:32:31.000Z</time>
</trkpt>
<trkpt lat="45.9704650" lon="10.2007040">
	<ele>1457.00</ele>
	<time>2025-08-16T06:32:32.000Z</time>
</trkpt>
<trkpt lat="45.9704720" lon="10.2007050">
	<ele>1457.20</ele>
	<time>2025-08-16T06:32:33.000Z</time>
</trkpt>
<trkpt lat="45.9704760" lon="10.2007040">
	<ele>1457.40</ele>
	<time>2025-08-16T06:32:34.000Z</time>
</trkpt>
<trkpt lat="45.9704850" lon="10.2007000">
	<ele>1457.40</ele>
	<time>2025-08-16T06:32:35.000Z</time>
</trkpt>
<trkpt lat="45.9704950" lon="10.2006960">
	<ele>1457.60</ele>
	<time>2025-08-16T06:32:36.000Z</time>
</trkpt>
<trkpt lat="45.9705000" lon="10.2006960">
	<ele>1457.80</ele>
	<time>2025-08-16T06:32:37.000Z</time>
</trkpt>
<trkpt lat="45.9705090" lon="10.2006970">
	<ele>1458.00</ele>
	<time>2025-08-16T06:32:38.000Z</time>
</trkpt>
<trkpt lat="45.9705170" lon="10.2007020">
	<ele>1458.20</ele>
	<time>2025-08-16T06:32:39.000Z</time>
</trkpt>
<trkpt lat="45.9705200" lon="10.2007030">
	<ele>1458.40</ele>
	<time>2025-08-16T06:32:40.000Z</time>
</trkpt>
<trkpt lat="45.9705260" lon="10.2007100">
	<ele>1458.60</ele>
	<time>2025-08-16T06:32:41.000Z</time>
</trkpt>
<trkpt lat="45.9705350" lon="10.2007120">
	<ele>1458.80</ele>
	<time>2025-08-16T06:32:42.000Z</time>
</trkpt>
<trkpt lat="45.9705470" lon="10.2007040">
	<ele>1459.00</ele>
	<time>2025-08-16T06:32:43.000Z</time>
</trkpt>
<trkpt lat="45.9705520" lon="10.2007080">
	<ele>1459.20</ele>
	<time>2025-08-16T06:32:44.000Z</time>
</trkpt>
<trkpt lat="45.9705650" lon="10.2007040">
	<ele>1459.20</ele>
	<time>2025-08-16T06:32:45.000Z</time>
</trkpt>
<trkpt lat="45.9705770" lon="10.2006940">
	<ele>1459.40</ele>
	<time>2025-08-16T06:32:46.000Z</time>
</trkpt>
<trkpt lat="45.9705840" lon="10.2006920">
	<ele>1459.60</ele>
	<time>2025-08-16T06:32:47.000Z</time>
</trkpt>
<trkpt lat="45.9705930" lon="10.2006920">
	<ele>1460.00</ele>
	<time>2025-08-16T06:32:48.000Z</time>
</trkpt>
<trkpt lat="45.9706030" lon="10.2006980">
	<ele>1460.00</ele>
	<time>2025-08-16T06:32:49.000Z</time>
</trkpt>
<trkpt lat="45.9706160" lon="10.2007030">
	<ele>1460.20</ele>
	<time>2025-08-16T06:32:50.000Z</time>
</trkpt>
<trkpt lat="45.9706200" lon="10.2007060">
	<ele>1460.40</ele>
	<time>2025-08-16T06:32:51.000Z</time>
</trkpt>
<trkpt lat="45.9706320" lon="10.2007110">
	<ele>1460.40</ele>
	<time>2025-08-16T06:32:52.000Z</time>
</trkpt>
<trkpt lat="45.9706360" lon="10.2007100">
	<ele>1460.60</ele>
	<time>2025-08-16T06:32:53.000Z</time>
</trkpt>
<trkpt lat="45.9706530" lon="10.2007110">
	<ele>1460.80</ele>
	<time>2025-08-16T06:32:54.000Z</time>
</trkpt>
<trkpt lat="45.9706540" lon="10.2007080">
	<ele>1461.00</ele>
	<time>2025-08-16T06:32:55.000Z</time>
</trkpt>
<trkpt lat="45.9706550" lon="10.2007050">
	<ele>1461.40</ele>
	<time>2025-08-16T06:32:56.000Z</time>
</trkpt>
<trkpt lat="45.9706560" lon="10.2007030">
	<ele>1461.60</ele>
	<time>2025-08-16T06:32:57.000Z</time>
</trkpt>
<trkpt lat="45.9706560" lon="10.2007040">
	<ele>1461.80</ele>
	<time>2025-08-16T06:32:58.000Z</time>
</trkpt>
<trkpt lat="45.9706590" lon="10.2007060">
	<ele>1461.80</ele>
	<time>2025-08-16T06:32:59.000Z</time>
</trkpt>
<trkpt lat="45.9706600" lon="10.2007070">
	<ele>1461.80</ele>
	<time>2025-08-16T06:33:00.000Z</time>
</trkpt>
<trkpt lat="45.9706710" lon="10.2007130">
	<ele>1461.60</ele>
	<time>2025-08-16T06:33:01.000Z</time>
</trkpt>
<trkpt lat="45.9706730" lon="10.2007080">
	<ele>1461.60</ele>
	<time>2025-08-16T06:33:02.000Z</time>
</trkpt>
<trkpt lat="45.9706750" lon="10.2007040">
	<ele>1461.60</ele>
	<time>2025-08-16T06:33:03.000Z</time>
</trkpt>
<trkpt lat="45.9706930" lon="10.2006940">
	<ele>1461.60</ele>
	<time>2025-08-16T06:33:04.000Z</time>
</trkpt>
<trkpt lat="45.9707100" lon="10.2006790">
	<ele>1461.60</ele>
	<time>2025-08-16T06:33:05.000Z</time>
</trkpt>
<trkpt lat="45.9707200" lon="10.2006690">
	<ele>1461.60</ele>
	<time>2025-08-16T06:33:06.000Z</time>
</trkpt>
<trkpt lat="45.9707310" lon="10.2006580">
	<ele>1461.60</ele>
	<time>2025-08-16T06:33:07.000Z</time>
</trkpt>
<trkpt lat="45.9707360" lon="10.2006500">
	<ele>1461.80</ele>
	<time>2025-08-16T06:33:08.000Z</time>
</trkpt>
<trkpt lat="45.9707430" lon="10.2006440">
	<ele>1461.80</ele>
	<time>2025-08-16T06:33:09.000Z</time>
</trkpt>
<trkpt lat="45.9707530" lon="10.2006430">
	<ele>1462.00</ele>
	<time>2025-08-16T06:33:10.000Z</time>
</trkpt>
<trkpt lat="45.9707620" lon="10.2006440">
	<ele>1462.20</ele>
	<time>2025-08-16T06:33:11.000Z</time>
</trkpt>
<trkpt lat="45.9707700" lon="10.2006410">
	<ele>1462.40</ele>
	<time>2025-08-16T06:33:12.000Z</time>
</trkpt>
<trkpt lat="45.9707820" lon="10.2006440">
	<ele>1462.60</ele>
	<time>2025-08-16T06:33:13.000Z</time>
</trkpt>
<trkpt lat="45.9707890" lon="10.2006450">
	<ele>1462.60</ele>
	<time>2025-08-16T06:33:14.000Z</time>
</trkpt>
<trkpt lat="45.9707900" lon="10.2006420">
	<ele>1463.00</ele>
	<time>2025-08-16T06:33:15.000Z</time>
</trkpt>
<trkpt lat="45.9707920" lon="10.2006330">
	<ele>1463.00</ele>
	<time>2025-08-16T06:33:16.000Z</time>
</trkpt>
<trkpt lat="45.9707920" lon="10.2006300">
	<ele>1463.20</ele>
	<time>2025-08-16T06:33:17.000Z</time>
</trkpt>
<trkpt lat="45.9707980" lon="10.2006250">
	<ele>1463.40</ele>
	<time>2025-08-16T06:33:18.000Z</time>
</trkpt>
<trkpt lat="45.9708050" lon="10.2006210">
	<ele>1463.60</ele>
	<time>2025-08-16T06:33:19.000Z</time>
</trkpt>
<trkpt lat="45.9708130" lon="10.2006180">
	<ele>1463.80</ele>
	<time>2025-08-16T06:33:20.000Z</time>
</trkpt>
<trkpt lat="45.9708240" lon="10.2006170">
	<ele>1464.20</ele>
	<time>2025-08-16T06:33:21.000Z</time>
</trkpt>
<trkpt lat="45.9708360" lon="10.2006130">
	<ele>1464.40</ele>
	<time>2025-08-16T06:33:22.000Z</time>
</trkpt>
<trkpt lat="45.9708400" lon="10.2006080">
	<ele>1464.60</ele>
	<time>2025-08-16T06:33:23.000Z</time>
</trkpt>
<trkpt lat="45.9708480" lon="10.2006020">
	<ele>1464.80</ele>
	<time>2025-08-16T06:33:24.000Z</time>
</trkpt>
<trkpt lat="45.9708510" lon="10.2006000">
	<ele>1465.20</ele>
	<time>2025-08-16T06:33:25.000Z</time>
</trkpt>
<trkpt lat="45.9708550" lon="10.2006000">
	<ele>1465.20</ele>
	<time>2025-08-16T06:33:26.000Z</time>
</trkpt>
<trkpt lat="45.9708560" lon="10.2006020">
	<ele>1465.40</ele>
	<time>2025-08-16T06:33:27.000Z</time>
</trkpt>
<trkpt lat="45.9708570" lon="10.2006030">
	<ele>1465.60</ele>
	<time>2025-08-16T06:33:28.000Z</time>
</trkpt>
<trkpt lat="45.9708650" lon="10.2006040">
	<ele>1465.60</ele>
	<time>2025-08-16T06:33:29.000Z</time>
</trkpt>
<trkpt lat="45.9708730" lon="10.2006000">
	<ele>1465.60</ele>
	<time>2025-08-16T06:33:30.000Z</time>
</trkpt>
<trkpt lat="45.9708840" lon="10.2005910">
	<ele>1465.80</ele>
	<time>2025-08-16T06:33:31.000Z</time>
</trkpt>
<trkpt lat="45.9708940" lon="10.2005810">
	<ele>1466.00</ele>
	<time>2025-08-16T06:33:32.000Z</time>
</trkpt>
<trkpt lat="45.9709060" lon="10.2005720">
	<ele>1466.00</ele>
	<time>2025-08-16T06:33:33.000Z</time>
</trkpt>
<trkpt lat="45.9709130" lon="10.2005710">
	<ele>1466.00</ele>
	<time>2025-08-16T06:33:34.000Z</time>
</trkpt>
<trkpt lat="45.9709190" lon="10.2005710">
	<ele>1466.20</ele>
	<time>2025-08-16T06:33:35.000Z</time>
</trkpt>
<trkpt lat="45.9709220" lon="10.2005700">
	<ele>1466.40</ele>
	<time>2025-08-16T06:33:36.000Z</time>
</trkpt>
<trkpt lat="45.9709290" lon="10.2005710">
	<ele>1466.40</ele>
	<time>2025-08-16T06:33:37.000Z</time>
</trkpt>
<trkpt lat="45.9709330" lon="10.2005700">
	<ele>1466.80</ele>
	<time>2025-08-16T06:33:38.000Z</time>
</trkpt>
<trkpt lat="45.9709410" lon="10.2005680">
	<ele>1466.80</ele>
	<time>2025-08-16T06:33:39.000Z</time>
</trkpt>
<trkpt lat="45.9709470" lon="10.2005620">
	<ele>1467.00</ele>
	<time>2025-08-16T06:33:40.000Z</time>
</trkpt>
<trkpt lat="45.9709560" lon="10.2005560">
	<ele>1467.20</ele>
	<time>2025-08-16T06:33:41.000Z</time>
</trkpt>
<trkpt lat="45.9709580" lon="10.2005550">
	<ele>1467.60</ele>
	<time>2025-08-16T06:33:42.000Z</time>
</trkpt>
<trkpt lat="45.9709600" lon="10.2005550">
	<ele>1467.80</ele>
	<time>2025-08-16T06:33:43.000Z</time>
</trkpt>
<trkpt lat="45.9709710" lon="10.2005510">
	<ele>1468.00</ele>
	<time>2025-08-16T06:33:44.000Z</time>
</trkpt>
<trkpt lat="45.9709720" lon="10.2005520">
	<ele>1468.00</ele>
	<time>2025-08-16T06:33:45.000Z</time>
</trkpt>
<trkpt lat="45.9709720" lon="10.2005540">
	<ele>1468.20</ele>
	<time>2025-08-16T06:33:46.000Z</time>
</trkpt>
<trkpt lat="45.9709720" lon="10.2005570">
	<ele>1468.00</ele>
	<time>2025-08-16T06:33:47.000Z</time>
</trkpt>
<trkpt lat="45.9709740" lon="10.2005630">
	<ele>1468.00</ele>
	<time>2025-08-16T06:33:48.000Z</time>
</trkpt>
<trkpt lat="45.9709760" lon="10.2005700">
	<ele>1468.00</ele>
	<time>2025-08-16T06:33:49.000Z</time>
</trkpt>
<trkpt lat="45.9709780" lon="10.2005700">
	<ele>1468.20</ele>
	<time>2025-08-16T06:33:50.000Z</time>
</trkpt>
<trkpt lat="45.9709780" lon="10.2005700">
	<ele>1468.20</ele>
	<time>2025-08-16T06:33:51.000Z</time>
</trkpt>
<trkpt lat="45.9709800" lon="10.2005720">
	<ele>1468.20</ele>
	<time>2025-08-16T06:33:52.000Z</time>
</trkpt>
<trkpt lat="45.9709810" lon="10.2005740">
	<ele>1468.20</ele>
	<time>2025-08-16T06:33:53.000Z</time>
</trkpt>
<trkpt lat="45.9709780" lon="10.2005740">
	<ele>1468.20</ele>
	<time>2025-08-16T06:33:54.000Z</time>
</trkpt>
<trkpt lat="45.9709790" lon="10.2005790">
	<ele>1468.20</ele>
	<time>2025-08-16T06:33:55.000Z</time>
</trkpt>
<trkpt lat="45.9709820" lon="10.2005800">
	<ele>1468.20</ele>
	<time>2025-08-16T06:33:56.000Z</time>
</trkpt>
<trkpt lat="45.9709880" lon="10.2005810">
	<ele>1468.20</ele>
	<time>2025-08-16T06:33:57.000Z</time>
</trkpt>
<trkpt lat="45.9709950" lon="10.2005790">
	<ele>1468.20</ele>
	<time>2025-08-16T06:33:58.000Z</time>
</trkpt>
<trkpt lat="45.9710050" lon="10.2005730">
	<ele>1468.20</ele>
	<time>2025-08-16T06:33:59.000Z</time>
</trkpt>
<trkpt lat="45.9710050" lon="10.2005730">
	<ele>1468.40</ele>
	<time>2025-08-16T06:34:00.000Z</time>
</trkpt>
<trkpt lat="45.9710170" lon="10.2005770">
	<ele>1468.40</ele>
	<time>2025-08-16T06:34:01.000Z</time>
</trkpt>
<trkpt lat="45.9710290" lon="10.2005770">
	<ele>1468.60</ele>
	<time>2025-08-16T06:34:02.000Z</time>
</trkpt>
<trkpt lat="45.9710380" lon="10.2005790">
	<ele>1468.80</ele>
	<time>2025-08-16T06:34:03.000Z</time>
</trkpt>
<trkpt lat="45.9710470" lon="10.2005810">
	<ele>1468.80</ele>
	<time>2025-08-16T06:34:04.000Z</time>
</trkpt>
<trkpt lat="45.9710500" lon="10.2005810">
	<ele>1468.80</ele>
	<time>2025-08-16T06:34:05.000Z</time>
</trkpt>
<trkpt lat="45.9710520" lon="10.2005840">
	<ele>1469.00</ele>
	<time>2025-08-16T06:34:06.000Z</time>
</trkpt>
<trkpt lat="45.9710530" lon="10.2005850">
	<ele>1469.00</ele>
	<time>2025-08-16T06:34:07.000Z</time>
</trkpt>
<trkpt lat="45.9710520" lon="10.2005930">
	<ele>1469.00</ele>
	<time>2025-08-16T06:34:08.000Z</time>
</trkpt>
<trkpt lat="45.9710550" lon="10.2005910">
	<ele>1469.20</ele>
	<time>2025-08-16T06:34:09.000Z</time>
</trkpt>
<trkpt lat="45.9710580" lon="10.2005880">
	<ele>1469.20</ele>
	<time>2025-08-16T06:34:10.000Z</time>
</trkpt>
<trkpt lat="45.9710590" lon="10.2005870">
	<ele>1469.40</ele>
	<time>2025-08-16T06:34:11.000Z</time>
</trkpt>
<trkpt lat="45.9710680" lon="10.2005860">
	<ele>1469.60</ele>
	<time>2025-08-16T06:34:12.000Z</time>
</trkpt>
<trkpt lat="45.9710760" lon="10.2005890">
	<ele>1469.80</ele>
	<time>2025-08-16T06:34:13.000Z</time>
</trkpt>
<trkpt lat="45.9710790" lon="10.2005890">
	<ele>1470.00</ele>
	<time>2025-08-16T06:34:14.000Z</time>
</trkpt>
<trkpt lat="45.9710890" lon="10.2005950">
	<ele>1470.20</ele>
	<time>2025-08-16T06:34:15.000Z</time>
</trkpt>
<trkpt lat="45.9710930" lon="10.2005960">
	<ele>1470.20</ele>
	<time>2025-08-16T06:34:16.000Z</time>
</trkpt>
<trkpt lat="45.9710910" lon="10.2005960">
	<ele>1470.40</ele>
	<time>2025-08-16T06:34:17.000Z</time>
</trkpt>
<trkpt lat="45.9711040" lon="10.2005940">
	<ele>1470.40</ele>
	<time>2025-08-16T06:34:18.000Z</time>
</trkpt>
<trkpt lat="45.9711090" lon="10.2005940">
	<ele>1470.60</ele>
	<time>2025-08-16T06:34:19.000Z</time>
</trkpt>
<trkpt lat="45.9711160" lon="10.2005910">
	<ele>1470.60</ele>
	<time>2025-08-16T06:34:20.000Z</time>
</trkpt>
<trkpt lat="45.9711170" lon="10.2005880">
	<ele>1470.80</ele>
	<time>2025-08-16T06:34:21.000Z</time>
</trkpt>
<trkpt lat="45.9711270" lon="10.2005890">
	<ele>1470.80</ele>
	<time>2025-08-16T06:34:22.000Z</time>
</trkpt>
<trkpt lat="45.9711410" lon="10.2005910">
	<ele>1471.00</ele>
	<time>2025-08-16T06:34:23.000Z</time>
</trkpt>
<trkpt lat="45.9711410" lon="10.2005940">
	<ele>1471.20</ele>
	<time>2025-08-16T06:34:24.000Z</time>
</trkpt>
<trkpt lat="45.9711430" lon="10.2005950">
	<ele>1471.40</ele>
	<time>2025-08-16T06:34:25.000Z</time>
</trkpt>
<trkpt lat="45.9711460" lon="10.2005950">
	<ele>1471.60</ele>
	<time>2025-08-16T06:34:26.000Z</time>
</trkpt>
<trkpt lat="45.9711580" lon="10.2005990">
	<ele>1471.80</ele>
	<time>2025-08-16T06:34:27.000Z</time>
</trkpt>
<trkpt lat="45.9711700" lon="10.2006030">
	<ele>1472.00</ele>
	<time>2025-08-16T06:34:28.000Z</time>
</trkpt>
<trkpt lat="45.9711790" lon="10.2006080">
	<ele>1472.00</ele>
	<time>2025-08-16T06:34:29.000Z</time>
</trkpt>
<trkpt lat="45.9711850" lon="10.2006110">
	<ele>1472.20</ele>
	<time>2025-08-16T06:34:30.000Z</time>
</trkpt>
<trkpt lat="45.9711930" lon="10.2006160">
	<ele>1472.40</ele>
	<time>2025-08-16T06:34:31.000Z</time>
</trkpt>
<trkpt lat="45.9711970" lon="10.2006170">
	<ele>1472.60</ele>
	<time>2025-08-16T06:34:32.000Z</time>
</trkpt>
<trkpt lat="45.9712000" lon="10.2006140">
	<ele>1472.60</ele>
	<time>2025-08-16T06:34:33.000Z</time>
</trkpt>
<trkpt lat="45.9712060" lon="10.2006130">
	<ele>1472.80</ele>
	<time>2025-08-16T06:34:34.000Z</time>
</trkpt>
<trkpt lat="45.9712180" lon="10.2006160">
	<ele>1473.00</ele>
	<time>2025-08-16T06:34:35.000Z</time>
</trkpt>
<trkpt lat="45.9712240" lon="10.2006180">
	<ele>1473.00</ele>
	<time>2025-08-16T06:34:36.000Z</time>
</trkpt>
<trkpt lat="45.9712340" lon="10.2006180">
	<ele>1473.00</ele>
	<time>2025-08-16T06:34:37.000Z</time>
</trkpt>
<trkpt lat="45.9712450" lon="10.2006220">
	<ele>1473.20</ele>
	<time>2025-08-16T06:34:38.000Z</time>
</trkpt>
<trkpt lat="45.9712540" lon="10.2006230">
	<ele>1473.60</ele>
	<time>2025-08-16T06:34:39.000Z</time>
</trkpt>
<trkpt lat="45.9712680" lon="10.2006250">
	<ele>1474.00</ele>
	<time>2025-08-16T06:34:40.000Z</time>
</trkpt>
<trkpt lat="45.9712800" lon="10.2006270">
	<ele>1474.00</ele>
	<time>2025-08-16T06:34:41.000Z</time>
</trkpt>
<trkpt lat="45.9712920" lon="10.2006270">
	<ele>1474.20</ele>
	<time>2025-08-16T06:34:42.000Z</time>
</trkpt>
<trkpt lat="45.9713050" lon="10.2006300">
	<ele>1474.40</ele>
	<time>2025-08-16T06:34:43.000Z</time>
</trkpt>
<trkpt lat="45.9713190" lon="10.2006300">
	<ele>1474.60</ele>
	<time>2025-08-16T06:34:44.000Z</time>
</trkpt>
<trkpt lat="45.9713380" lon="10.2006290">
	<ele>1474.80</ele>
	<time>2025-08-16T06:34:45.000Z</time>
</trkpt>
<trkpt lat="45.9713530" lon="10.2006290">
	<ele>1474.80</ele>
	<time>2025-08-16T06:34:46.000Z</time>
</trkpt>
<trkpt lat="45.9713710" lon="10.2006400">
	<ele>1475.00</ele>
	<time>2025-08-16T06:34:47.000Z</time>
</trkpt>
<trkpt lat="45.9713870" lon="10.2006540">
	<ele>1475.20</ele>
	<time>2025-08-16T06:34:48.000Z</time>
</trkpt>
<trkpt lat="45.9714020" lon="10.2006670">
	<ele>1475.40</ele>
	<time>2025-08-16T06:34:49.000Z</time>
</trkpt>
<trkpt lat="45.9714280" lon="10.2006820">
	<ele>1475.60</ele>
	<time>2025-08-16T06:34:50.000Z</time>
</trkpt>
<trkpt lat="45.9714440" lon="10.2006810">
	<ele>1476.00</ele>
	<time>2025-08-16T06:34:51.000Z</time>
</trkpt>
<trkpt lat="45.9714600" lon="10.2006700">
	<ele>1476.20</ele>
	<time>2025-08-16T06:34:52.000Z</time>
</trkpt>
<trkpt lat="45.9714730" lon="10.2006670">
	<ele>1476.40</ele>
	<time>2025-08-16T06:34:53.000Z</time>
</trkpt>
<trkpt lat="45.9714810" lon="10.2006690">
	<ele>1476.60</ele>
	<time>2025-08-16T06:34:54.000Z</time>
</trkpt>
<trkpt lat="45.9714930" lon="10.2006820">
	<ele>1476.80</ele>
	<time>2025-08-16T06:34:55.000Z</time>
</trkpt>
<trkpt lat="45.9715030" lon="10.2006930">
	<ele>1477.00</ele>
	<time>2025-08-16T06:34:56.000Z</time>
</trkpt>
<trkpt lat="45.9715110" lon="10.2006960">
	<ele>1477.20</ele>
	<time>2025-08-16T06:34:57.000Z</time>
</trkpt>
<trkpt lat="45.9715260" lon="10.2007010">
	<ele>1477.40</ele>
	<time>2025-08-16T06:34:58.000Z</time>
</trkpt>
<trkpt lat="45.9715420" lon="10.2007040">
	<ele>1477.60</ele>
	<time>2025-08-16T06:34:59.000Z</time>
</trkpt>
<trkpt lat="45.9715550" lon="10.2007060">
	<ele>1477.80</ele>
	<time>2025-08-16T06:35:00.000Z</time>
</trkpt>
<trkpt lat="45.9715660" lon="10.2007010">
	<ele>1477.80</ele>
	<time>2025-08-16T06:35:01.000Z</time>
</trkpt>
<trkpt lat="45.9715690" lon="10.2007030">
	<ele>1478.00</ele>
	<time>2025-08-16T06:35:02.000Z</time>
</trkpt>
<trkpt lat="45.9715780" lon="10.2006990">
	<ele>1478.20</ele>
	<time>2025-08-16T06:35:03.000Z</time>
</trkpt>
<trkpt lat="45.9715860" lon="10.2006890">
	<ele>1478.60</ele>
	<time>2025-08-16T06:35:04.000Z</time>
</trkpt>
<trkpt lat="45.9715910" lon="10.2006820">
	<ele>1478.80</ele>
	<time>2025-08-16T06:35:05.000Z</time>
</trkpt>
<trkpt lat="45.9716070" lon="10.2006870">
	<ele>1479.00</ele>
	<time>2025-08-16T06:35:06.000Z</time>
</trkpt>
<trkpt lat="45.9716090" lon="10.2006960">
	<ele>1479.20</ele>
	<time>2025-08-16T06:35:07.000Z</time>
</trkpt>
<trkpt lat="45.9716130" lon="10.2007060">
	<ele>1479.20</ele>
	<time>2025-08-16T06:35:08.000Z</time>
</trkpt>
<trkpt lat="45.9716230" lon="10.2007150">
	<ele>1479.40</ele>
	<time>2025-08-16T06:35:09.000Z</time>
</trkpt>
<trkpt lat="45.9716280" lon="10.2007170">
	<ele>1479.60</ele>
	<time>2025-08-16T06:35:10.000Z</time>
</trkpt>
<trkpt lat="45.9716340" lon="10.2007280">
	<ele>1479.80</ele>
	<time>2025-08-16T06:35:11.000Z</time>
</trkpt>
<trkpt lat="45.9716390" lon="10.2007280">
	<ele>1480.00</ele>
	<time>2025-08-16T06:35:12.000Z</time>
</trkpt>
<trkpt lat="45.9716450" lon="10.2007380">
	<ele>1480.20</ele>
	<time>2025-08-16T06:35:13.000Z</time>
</trkpt>
<trkpt lat="45.9716560" lon="10.2007520">
	<ele>1480.40</ele>
	<time>2025-08-16T06:35:14.000Z</time>
</trkpt>
<trkpt lat="45.9716680" lon="10.2007660">
	<ele>1480.60</ele>
	<time>2025-08-16T06:35:15.000Z</time>
</trkpt>
<trkpt lat="45.9716790" lon="10.2007690">
	<ele>1480.80</ele>
	<time>2025-08-16T06:35:16.000Z</time>
</trkpt>
<trkpt lat="45.9716910" lon="10.2007660">
	<ele>1481.00</ele>
	<time>2025-08-16T06:35:17.000Z</time>
</trkpt>
<trkpt lat="45.9717020" lon="10.2007680">
	<ele>1481.20</ele>
	<time>2025-08-16T06:35:18.000Z</time>
</trkpt>
<trkpt lat="45.9717130" lon="10.2007670">
	<ele>1481.40</ele>
	<time>2025-08-16T06:35:19.000Z</time>
</trkpt>
<trkpt lat="45.9717250" lon="10.2007650">
	<ele>1481.60</ele>
	<time>2025-08-16T06:35:20.000Z</time>
</trkpt>
<trkpt lat="45.9717390" lon="10.2007610">
	<ele>1481.80</ele>
	<time>2025-08-16T06:35:21.000Z</time>
</trkpt>
<trkpt lat="45.9717560" lon="10.2007590">
	<ele>1482.00</ele>
	<time>2025-08-16T06:35:22.000Z</time>
</trkpt>
<trkpt lat="45.9717700" lon="10.2007600">
	<ele>1482.20</ele>
	<time>2025-08-16T06:35:23.000Z</time>
</trkpt>
<trkpt lat="45.9717790" lon="10.2007640">
	<ele>1482.40</ele>
	<time>2025-08-16T06:35:24.000Z</time>
</trkpt>
<trkpt lat="45.9717870" lon="10.2007600">
	<ele>1482.40</ele>
	<time>2025-08-16T06:35:25.000Z</time>
</trkpt>
<trkpt lat="45.9717900" lon="10.2007560">
	<ele>1482.80</ele>
	<time>2025-08-16T06:35:26.000Z</time>
</trkpt>
<trkpt lat="45.9717970" lon="10.2007500">
	<ele>1483.00</ele>
	<time>2025-08-16T06:35:27.000Z</time>
</trkpt>
<trkpt lat="45.9718070" lon="10.2007120">
	<ele>1483.20</ele>
	<time>2025-08-16T06:35:28.000Z</time>
</trkpt>
<trkpt lat="45.9718180" lon="10.2007080">
	<ele>1483.20</ele>
	<time>2025-08-16T06:35:29.000Z</time>
</trkpt>
<trkpt lat="45.9718190" lon="10.2007150">
	<ele>1483.40</ele>
	<time>2025-08-16T06:35:30.000Z</time>
</trkpt>
<trkpt lat="45.9718250" lon="10.2007030">
	<ele>1483.60</ele>
	<time>2025-08-16T06:35:31.000Z</time>
</trkpt>
<trkpt lat="45.9718350" lon="10.2007020">
	<ele>1483.80</ele>
	<time>2025-08-16T06:35:32.000Z</time>
</trkpt>
<trkpt lat="45.9718470" lon="10.2007010">
	<ele>1484.00</ele>
	<time>2025-08-16T06:35:33.000Z</time>
</trkpt>
<trkpt lat="45.9718610" lon="10.2007060">
	<ele>1484.20</ele>
	<time>2025-08-16T06:35:34.000Z</time>
</trkpt>
<trkpt lat="45.9718720" lon="10.2007080">
	<ele>1484.40</ele>
	<time>2025-08-16T06:35:35.000Z</time>
</trkpt>
<trkpt lat="45.9718770" lon="10.2007020">
	<ele>1484.40</ele>
	<time>2025-08-16T06:35:36.000Z</time>
</trkpt>
<trkpt lat="45.9718760" lon="10.2006990">
	<ele>1484.60</ele>
	<time>2025-08-16T06:35:37.000Z</time>
</trkpt>
<trkpt lat="45.9718760" lon="10.2006960">
	<ele>1484.80</ele>
	<time>2025-08-16T06:35:38.000Z</time>
</trkpt>
<trkpt lat="45.9718760" lon="10.2006960">
	<ele>1485.00</ele>
	<time>2025-08-16T06:35:39.000Z</time>
</trkpt>
<trkpt lat="45.9718780" lon="10.2006940">
	<ele>1485.20</ele>
	<time>2025-08-16T06:35:40.000Z</time>
</trkpt>
<trkpt lat="45.9718860" lon="10.2006990">
	<ele>1485.40</ele>
	<time>2025-08-16T06:35:41.000Z</time>
</trkpt>
<trkpt lat="45.9718930" lon="10.2007050">
	<ele>1485.40</ele>
	<time>2025-08-16T06:35:42.000Z</time>
</trkpt>
<trkpt lat="45.9719060" lon="10.2007130">
	<ele>1485.20</ele>
	<time>2025-08-16T06:35:43.000Z</time>
</trkpt>
<trkpt lat="45.9719160" lon="10.2007230">
	<ele>1485.00</ele>
	<time>2025-08-16T06:35:44.000Z</time>
</trkpt>
<trkpt lat="45.9719240" lon="10.2007390">
	<ele>1485.00</ele>
	<time>2025-08-16T06:35:45.000Z</time>
</trkpt>
<trkpt lat="45.9719330" lon="10.2007500">
	<ele>1485.00</ele>
	<time>2025-08-16T06:35:46.000Z</time>
</trkpt>
<trkpt lat="45.9719400" lon="10.2007540">
	<ele>1485.00</ele>
	<time>2025-08-16T06:35:47.000Z</time>
</trkpt>
<trkpt lat="45.9719530" lon="10.2007580">
	<ele>1485.00</ele>
	<time>2025-08-16T06:35:48.000Z</time>
</trkpt>
<trkpt lat="45.9719660" lon="10.2007590">
	<ele>1485.00</ele>
	<time>2025-08-16T06:35:49.000Z</time>
</trkpt>
<trkpt lat="45.9719800" lon="10.2007680">
	<ele>1485.20</ele>
	<time>2025-08-16T06:35:50.000Z</time>
</trkpt>
<trkpt lat="45.9719900" lon="10.2007760">
	<ele>1485.40</ele>
	<time>2025-08-16T06:35:51.000Z</time>
</trkpt>
<trkpt lat="45.9719970" lon="10.2007760">
	<ele>1485.40</ele>
	<time>2025-08-16T06:35:52.000Z</time>
</trkpt>
<trkpt lat="45.9720090" lon="10.2007720">
	<ele>1485.60</ele>
	<time>2025-08-16T06:35:53.000Z</time>
</trkpt>
<trkpt lat="45.9720210" lon="10.2007710">
	<ele>1485.80</ele>
	<time>2025-08-16T06:35:54.000Z</time>
</trkpt>
<trkpt lat="45.9720310" lon="10.2007720">
	<ele>1485.80</ele>
	<time>2025-08-16T06:35:55.000Z</time>
</trkpt>
<trkpt lat="45.9720320" lon="10.2007770">
	<ele>1486.00</ele>
	<time>2025-08-16T06:35:56.000Z</time>
</trkpt>
<trkpt lat="45.9720390" lon="10.2007820">
	<ele>1486.20</ele>
	<time>2025-08-16T06:35:57.000Z</time>
</trkpt>
<trkpt lat="45.9720480" lon="10.2007870">
	<ele>1486.20</ele>
	<time>2025-08-16T06:35:58.000Z</time>
</trkpt>
<trkpt lat="45.9720580" lon="10.2007920">
	<ele>1486.40</ele>
	<time>2025-08-16T06:35:59.000Z</time>
</trkpt>
<trkpt lat="45.9720710" lon="10.2008000">
	<ele>1486.60</ele>
	<time>2025-08-16T06:36:00.000Z</time>
</trkpt>
<trkpt lat="45.9720800" lon="10.2008020">
	<ele>1486.80</ele>
	<time>2025-08-16T06:36:01.000Z</time>
</trkpt>
<trkpt lat="45.9720890" lon="10.2008010">
	<ele>1486.80</ele>
	<time>2025-08-16T06:36:02.000Z</time>
</trkpt>
<trkpt lat="45.9720980" lon="10.2007960">
	<ele>1487.00</ele>
	<time>2025-08-16T06:36:03.000Z</time>
</trkpt>
<trkpt lat="45.9721140" lon="10.2007950">
	<ele>1487.00</ele>
	<time>2025-08-16T06:36:04.000Z</time>
</trkpt>
<trkpt lat="45.9721260" lon="10.2007940">
	<ele>1487.00</ele>
	<time>2025-08-16T06:36:05.000Z</time>
</trkpt>
<trkpt lat="45.9721380" lon="10.2007950">
	<ele>1487.00</ele>
	<time>2025-08-16T06:36:06.000Z</time>
</trkpt>
<trkpt lat="45.9721480" lon="10.2008020">
	<ele>1487.20</ele>
	<time>2025-08-16T06:36:07.000Z</time>
</trkpt>
<trkpt lat="45.9721570" lon="10.2008080">
	<ele>1487.20</ele>
	<time>2025-08-16T06:36:08.000Z</time>
</trkpt>
<trkpt lat="45.9721690" lon="10.2008060">
	<ele>1487.20</ele>
	<time>2025-08-16T06:36:09.000Z</time>
</trkpt>
<trkpt lat="45.9721830" lon="10.2008050">
	<ele>1487.40</ele>
	<time>2025-08-16T06:36:10.000Z</time>
</trkpt>
<trkpt lat="45.9721930" lon="10.2008010">
	<ele>1487.60</ele>
	<time>2025-08-16T06:36:11.000Z</time>
</trkpt>
<trkpt lat="45.9722050" lon="10.2007960">
	<ele>1488.00</ele>
	<time>2025-08-16T06:36:12.000Z</time>
</trkpt>
<trkpt lat="45.9722180" lon="10.2007920">
	<ele>1488.20</ele>
	<time>2025-08-16T06:36:13.000Z</time>
</trkpt>
<trkpt lat="45.9722280" lon="10.2007900">
	<ele>1488.20</ele>
	<time>2025-08-16T06:36:14.000Z</time>
</trkpt>
<trkpt lat="45.9722390" lon="10.2007880">
	<ele>1488.20</ele>
	<time>2025-08-16T06:36:15.000Z</time>
</trkpt>
<trkpt lat="45.9722510" lon="10.2007880">
	<ele>1488.20</ele>
	<time>2025-08-16T06:36:16.000Z</time>
</trkpt>
<trkpt lat="45.9722630" lon="10.2007890">
	<ele>1488.40</ele>
	<time>2025-08-16T06:36:17.000Z</time>
</trkpt>
<trkpt lat="45.9722730" lon="10.2007930">
	<ele>1488.40</ele>
	<time>2025-08-16T06:36:18.000Z</time>
</trkpt>
<trkpt lat="45.9722850" lon="10.2007960">
	<ele>1488.40</ele>
	<time>2025-08-16T06:36:19.000Z</time>
</trkpt>
<trkpt lat="45.9722980" lon="10.2007960">
	<ele>1488.60</ele>
	<time>2025-08-16T06:36:20.000Z</time>
</trkpt>
<trkpt lat="45.9723070" lon="10.2007980">
	<ele>1488.60</ele>
	<time>2025-08-16T06:36:21.000Z</time>
</trkpt>
<trkpt lat="45.9723180" lon="10.2007970">
	<ele>1488.80</ele>
	<time>2025-08-16T06:36:22.000Z</time>
</trkpt>
<trkpt lat="45.9723270" lon="10.2007970">
	<ele>1488.80</ele>
	<time>2025-08-16T06:36:23.000Z</time>
</trkpt>
<trkpt lat="45.9723380" lon="10.2007940">
	<ele>1488.80</ele>
	<time>2025-08-16T06:36:24.000Z</time>
</trkpt>
<trkpt lat="45.9723490" lon="10.2007860">
	<ele>1489.20</ele>
	<time>2025-08-16T06:36:25.000Z</time>
</trkpt>
<trkpt lat="45.9723600" lon="10.2007830">
	<ele>1489.40</ele>
	<time>2025-08-16T06:36:26.000Z</time>
</trkpt>
<trkpt lat="45.9723660" lon="10.2007840">
	<ele>1489.60</ele>
	<time>2025-08-16T06:36:27.000Z</time>
</trkpt>
<trkpt lat="45.9723750" lon="10.2007830">
	<ele>1489.80</ele>
	<time>2025-08-16T06:36:28.000Z</time>
</trkpt>
<trkpt lat="45.9723860" lon="10.2007890">
	<ele>1489.80</ele>
	<time>2025-08-16T06:36:29.000Z</time>
</trkpt>
<trkpt lat="45.9723950" lon="10.2007920">
	<ele>1490.20</ele>
	<time>2025-08-16T06:36:30.000Z</time>
</trkpt>
<trkpt lat="45.9724040" lon="10.2007870">
	<ele>1490.40</ele>
	<time>2025-08-16T06:36:31.000Z</time>
</trkpt>
<trkpt lat="45.9724170" lon="10.2007860">
	<ele>1490.60</ele>
	<time>2025-08-16T06:36:32.000Z</time>
</trkpt>
<trkpt lat="45.9724240" lon="10.2007810">
	<ele>1490.60</ele>
	<time>2025-08-16T06:36:33.000Z</time>
</trkpt>
<trkpt lat="45.9724290" lon="10.2007740">
	<ele>1490.80</ele>
	<time>2025-08-16T06:36:34.000Z</time>
</trkpt>
<trkpt lat="45.9724400" lon="10.2007680">
	<ele>1490.80</ele>
	<time>2025-08-16T06:36:35.000Z</time>
</trkpt>
<trkpt lat="45.9724480" lon="10.2007620">
	<ele>1491.00</ele>
	<time>2025-08-16T06:36:36.000Z</time>
</trkpt>
<trkpt lat="45.9724580" lon="10.2007590">
	<ele>1491.20</ele>
	<time>2025-08-16T06:36:37.000Z</time>
</trkpt>
<trkpt lat="45.9724670" lon="10.2007560">
	<ele>1491.20</ele>
	<time>2025-08-16T06:36:38.000Z</time>
</trkpt>
<trkpt lat="45.9724770" lon="10.2007500">
	<ele>1491.40</ele>
	<time>2025-08-16T06:36:39.000Z</time>
</trkpt>
<trkpt lat="45.9724890" lon="10.2007450">
	<ele>1491.40</ele>
	<time>2025-08-16T06:36:40.000Z</time>
</trkpt>
<trkpt lat="45.9725010" lon="10.2007470">
	<ele>1491.60</ele>
	<time>2025-08-16T06:36:41.000Z</time>
</trkpt>
<trkpt lat="45.9725110" lon="10.2007480">
	<ele>1491.60</ele>
	<time>2025-08-16T06:36:42.000Z</time>
</trkpt>
<trkpt lat="45.9725220" lon="10.2007520">
	<ele>1492.00</ele>
	<time>2025-08-16T06:36:43.000Z</time>
</trkpt>
<trkpt lat="45.9725330" lon="10.2007570">
	<ele>1492.00</ele>
	<time>2025-08-16T06:36:44.000Z</time>
</trkpt>
<trkpt lat="45.9725430" lon="10.2007620">
	<ele>1492.20</ele>
	<time>2025-08-16T06:36:45.000Z</time>
</trkpt>
<trkpt lat="45.9725530" lon="10.2007660">
	<ele>1492.20</ele>
	<time>2025-08-16T06:36:46.000Z</time>
</trkpt>
<trkpt lat="45.9725610" lon="10.2007700">
	<ele>1492.40</ele>
	<time>2025-08-16T06:36:47.000Z</time>
</trkpt>
<trkpt lat="45.9725720" lon="10.2007780">
	<ele>1492.40</ele>
	<time>2025-08-16T06:36:48.000Z</time>
</trkpt>
<trkpt lat="45.9725800" lon="10.2007860">
	<ele>1492.60</ele>
	<time>2025-08-16T06:36:49.000Z</time>
</trkpt>
<trkpt lat="45.9725880" lon="10.2007950">
	<ele>1492.80</ele>
	<time>2025-08-16T06:36:50.000Z</time>
</trkpt>
<trkpt lat="45.9725940" lon="10.2008070">
	<ele>1493.00</ele>
	<time>2025-08-16T06:36:51.000Z</time>
</trkpt>
<trkpt lat="45.9726020" lon="10.2008190">
	<ele>1493.00</ele>
	<time>2025-08-16T06:36:52.000Z</time>
</trkpt>
<trkpt lat="45.9726100" lon="10.2008300">
	<ele>1493.00</ele>
	<time>2025-08-16T06:36:53.000Z</time>
</trkpt>
<trkpt lat="45.9726170" lon="10.2008400">
	<ele>1493.20</ele>
	<time>2025-08-16T06:36:54.000Z</time>
</trkpt>
<trkpt lat="45.9726210" lon="10.2008520">
	<ele>1493.20</ele>
	<time>2025-08-16T06:36:55.000Z</time>
</trkpt>
<trkpt lat="45.9726280" lon="10.2008630">
	<ele>1493.40</ele>
	<time>2025-08-16T06:36:56.000Z</time>
</trkpt>
<trkpt lat="45.9726340" lon="10.2008740">
	<ele>1493.40</ele>
	<time>2025-08-16T06:36:57.000Z</time>
</trkpt>
<trkpt lat="45.9726400" lon="10.2008860">
	<ele>1493.60</ele>
	<time>2025-08-16T06:36:58.000Z</time>
</trkpt>
<trkpt lat="45.9726480" lon="10.2008950">
	<ele>1493.80</ele>
	<time>2025-08-16T06:36:59.000Z</time>
</trkpt>
<trkpt lat="45.9726560" lon="10.2009050">
	<ele>1493.80</ele>
	<time>2025-08-16T06:37:00.000Z</time>
</trkpt>
<trkpt lat="45.9726630" lon="10.2009150">
	<ele>1494.00</ele>
	<time>2025-08-16T06:37:01.000Z</time>
</trkpt>
<trkpt lat="45.9726690" lon="10.2009270">
	<ele>1494.00</ele>
	<time>2025-08-16T06:37:02.000Z</time>
</trkpt>
<trkpt lat="45.9726730" lon="10.2009400">
	<ele>1494.00</ele>
	<time>2025-08-16T06:37:03.000Z</time>
</trkpt>
<trkpt lat="45.9726780" lon="10.2009550">
	<ele>1494.20</ele>
	<time>2025-08-16T06:37:04.000Z</time>
</trkpt>
<trkpt lat="45.9726820" lon="10.2009680">
	<ele>1494.40</ele>
	<time>2025-08-16T06:37:05.000Z</time>
</trkpt>
<trkpt lat="45.9726890" lon="10.2009800">
	<ele>1494.40</ele>
	<time>2025-08-16T06:37:06.000Z</time>
</trkpt>
<trkpt lat="45.9726950" lon="10.2009900">
	<ele>1494.60</ele>
	<time>2025-08-16T06:37:07.000Z</time>
</trkpt>
<trkpt lat="45.9727020" lon="10.2010030">
	<ele>1494.80</ele>
	<time>2025-08-16T06:37:08.000Z</time>
</trkpt>
<trkpt lat="45.9727080" lon="10.2010130">
	<ele>1494.80</ele>
	<time>2025-08-16T06:37:09.000Z</time>
</trkpt>
<trkpt lat="45.9727120" lon="10.2010250">
	<ele>1495.00</ele>
	<time>2025-08-16T06:37:10.000Z</time>
</trkpt>
<trkpt lat="45.9727210" lon="10.2010290">
	<ele>1495.00</ele>
	<time>2025-08-16T06:37:11.000Z</time>
</trkpt>
<trkpt lat="45.9727270" lon="10.2010420">
	<ele>1495.00</ele>
	<time>2025-08-16T06:37:12.000Z</time>
</trkpt>
<trkpt lat="45.9727340" lon="10.2010540">
	<ele>1495.20</ele>
	<time>2025-08-16T06:37:13.000Z</time>
</trkpt>
<trkpt lat="45.9727380" lon="10.2010690">
	<ele>1495.40</ele>
	<time>2025-08-16T06:37:14.000Z</time>
</trkpt>
<trkpt lat="45.9727430" lon="10.2010820">
	<ele>1495.40</ele>
	<time>2025-08-16T06:37:15.000Z</time>
</trkpt>
<trkpt lat="45.9727490" lon="10.2010930">
	<ele>1495.60</ele>
	<time>2025-08-16T06:37:16.000Z</time>
</trkpt>
<trkpt lat="45.9727520" lon="10.2011060">
	<ele>1495.80</ele>
	<time>2025-08-16T06:37:17.000Z</time>
</trkpt>
<trkpt lat="45.9727560" lon="10.2011200">
	<ele>1495.80</ele>
	<time>2025-08-16T06:37:18.000Z</time>
</trkpt>
<trkpt lat="45.9727630" lon="10.2011310">
	<ele>1496.00</ele>
	<time>2025-08-16T06:37:19.000Z</time>
</trkpt>
<trkpt lat="45.9727660" lon="10.2011390">
	<ele>1496.00</ele>
	<time>2025-08-16T06:37:20.000Z</time>
</trkpt>
<trkpt lat="45.9727710" lon="10.2011480">
	<ele>1496.20</ele>
	<time>2025-08-16T06:37:21.000Z</time>
</trkpt>
<trkpt lat="45.9727740" lon="10.2011610">
	<ele>1496.40</ele>
	<time>2025-08-16T06:37:22.000Z</time>
</trkpt>
<trkpt lat="45.9727760" lon="10.2011730">
	<ele>1496.40</ele>
	<time>2025-08-16T06:37:23.000Z</time>
</trkpt>
<trkpt lat="45.9727790" lon="10.2011880">
	<ele>1496.60</ele>
	<time>2025-08-16T06:37:24.000Z</time>
</trkpt>
<trkpt lat="45.9727820" lon="10.2012030">
	<ele>1496.80</ele>
	<time>2025-08-16T06:37:25.000Z</time>
</trkpt>
<trkpt lat="45.9727840" lon="10.2012110">
	<ele>1496.80</ele>
	<time>2025-08-16T06:37:26.000Z</time>
</trkpt>
<trkpt lat="45.9727850" lon="10.2012140">
	<ele>1496.80</ele>
	<time>2025-08-16T06:37:27.000Z</time>
</trkpt>
<trkpt lat="45.9727870" lon="10.2012160">
	<ele>1497.20</ele>
	<time>2025-08-16T06:37:28.000Z</time>
</trkpt>
<trkpt lat="45.9727870" lon="10.2012170">
	<ele>1497.20</ele>
	<time>2025-08-16T06:37:29.000Z</time>
</trkpt>
<trkpt lat="45.9727860" lon="10.2012160">
	<ele>1497.40</ele>
	<time>2025-08-16T06:37:30.000Z</time>
</trkpt>
<trkpt lat="45.9727840" lon="10.2012150">
	<ele>1497.40</ele>
	<time>2025-08-16T06:37:31.000Z</time>
</trkpt>
<trkpt lat="45.9727840" lon="10.2012150">
	<ele>1497.40</ele>
	<time>2025-08-16T06:37:32.000Z</time>
</trkpt>
<trkpt lat="45.9727840" lon="10.2012160">
	<ele>1497.40</ele>
	<time>2025-08-16T06:37:33.000Z</time>
</trkpt>
<trkpt lat="45.9727840" lon="10.2012160">
	<ele>1497.60</ele>
	<time>2025-08-16T06:37:34.000Z</time>
</trkpt>
<trkpt lat="45.9727850" lon="10.2012150">
	<ele>1497.40</ele>
	<time>2025-08-16T06:37:35.000Z</time>
</trkpt>
<trkpt lat="45.9727880" lon="10.2012120">
	<ele>1497.40</ele>
	<time>2025-08-16T06:37:36.000Z</time>
</trkpt>
<trkpt lat="45.9727890" lon="10.2012120">
	<ele>1497.40</ele>
	<time>2025-08-16T06:37:37.000Z</time>
</trkpt>
<trkpt lat="45.9727850" lon="10.2012110">
	<ele>1497.40</ele>
	<time>2025-08-16T06:37:38.000Z</time>
</trkpt>
<trkpt lat="45.9727840" lon="10.2012110">
	<ele>1497.60</ele>
	<time>2025-08-16T06:37:39.000Z</time>
</trkpt>
<trkpt lat="45.9727800" lon="10.2012110">
	<ele>1497.40</ele>
	<time>2025-08-16T06:37:40.000Z</time>
</trkpt>
<trkpt lat="45.9727780" lon="10.2012150">
	<ele>1497.40</ele>
	<time>2025-08-16T06:37:41.000Z</time>
</trkpt>
<trkpt lat="45.9727790" lon="10.2012210">
	<ele>1497.40</ele>
	<time>2025-08-16T06:37:42.000Z</time>
</trkpt>
<trkpt lat="45.9727840" lon="10.2012260">
	<ele>1497.40</ele>
	<time>2025-08-16T06:37:43.000Z</time>
</trkpt>
<trkpt lat="45.9727890" lon="10.2012360">
	<ele>1497.60</ele>
	<time>2025-08-16T06:37:44.000Z</time>
</trkpt>
<trkpt lat="45.9727960" lon="10.2012420">
	<ele>1497.80</ele>
	<time>2025-08-16T06:37:45.000Z</time>
</trkpt>
<trkpt lat="45.9728000" lon="10.2012510">
	<ele>1497.80</ele>
	<time>2025-08-16T06:37:46.000Z</time>
</trkpt>
<trkpt lat="45.9728060" lon="10.2012600">
	<ele>1498.00</ele>
	<time>2025-08-16T06:37:47.000Z</time>
</trkpt>
<trkpt lat="45.9728120" lon="10.2012740">
	<ele>1498.20</ele>
	<time>2025-08-16T06:37:48.000Z</time>
</trkpt>
<trkpt lat="45.9728160" lon="10.2012870">
	<ele>1498.40</ele>
	<time>2025-08-16T06:37:49.000Z</time>
</trkpt>
<trkpt lat="45.9728180" lon="10.2012980">
	<ele>1498.40</ele>
	<time>2025-08-16T06:37:50.000Z</time>
</trkpt>
<trkpt lat="45.9728210" lon="10.2013070">
	<ele>1498.60</ele>
	<time>2025-08-16T06:37:51.000Z</time>
</trkpt>
<trkpt lat="45.9728270" lon="10.2013180">
	<ele>1498.60</ele>
	<time>2025-08-16T06:37:52.000Z</time>
</trkpt>
<trkpt lat="45.9728320" lon="10.2013300">
	<ele>1498.60</ele>
	<time>2025-08-16T06:37:53.000Z</time>
</trkpt>
<trkpt lat="45.9728360" lon="10.2013460">
	<ele>1498.80</ele>
	<time>2025-08-16T06:37:54.000Z</time>
</trkpt>
<trkpt lat="45.9728410" lon="10.2013580">
	<ele>1498.80</ele>
	<time>2025-08-16T06:37:55.000Z</time>
</trkpt>
<trkpt lat="45.9728460" lon="10.2013760">
	<ele>1499.00</ele>
	<time>2025-08-16T06:37:56.000Z</time>
</trkpt>
<trkpt lat="45.9728510" lon="10.2013930">
	<ele>1499.20</ele>
	<time>2025-08-16T06:37:57.000Z</time>
</trkpt>
<trkpt lat="45.9728570" lon="10.2014120">
	<ele>1499.20</ele>
	<time>2025-08-16T06:37:58.000Z</time>
</trkpt>
<trkpt lat="45.9728610" lon="10.2014280">
	<ele>1499.40</ele>
	<time>2025-08-16T06:37:59.000Z</time>
</trkpt>
<trkpt lat="45.9728700" lon="10.2014420">
	<ele>1499.40</ele>
	<time>2025-08-16T06:38:00.000Z</time>
</trkpt>
<trkpt lat="45.9728770" lon="10.2014560">
	<ele>1499.40</ele>
	<time>2025-08-16T06:38:01.000Z</time>
</trkpt>
<trkpt lat="45.9728820" lon="10.2014730">
	<ele>1499.60</ele>
	<time>2025-08-16T06:38:02.000Z</time>
</trkpt>
<trkpt lat="45.9728880" lon="10.2014920">
	<ele>1499.60</ele>
	<time>2025-08-16T06:38:03.000Z</time>
</trkpt>
<trkpt lat="45.9728960" lon="10.2015090">
	<ele>1499.80</ele>
	<time>2025-08-16T06:38:04.000Z</time>
</trkpt>
<trkpt lat="45.9729020" lon="10.2015250">
	<ele>1500.00</ele>
	<time>2025-08-16T06:38:05.000Z</time>
</trkpt>
<trkpt lat="45.9729070" lon="10.2015420">
	<ele>1500.00</ele>
	<time>2025-08-16T06:38:06.000Z</time>
</trkpt>
<trkpt lat="45.9729110" lon="10.2015600">
	<ele>1500.20</ele>
	<time>2025-08-16T06:38:07.000Z</time>
</trkpt>
<trkpt lat="45.9729170" lon="10.2015770">
	<ele>1500.40</ele>
	<time>2025-08-16T06:38:08.000Z</time>
</trkpt>
<trkpt lat="45.9729250" lon="10.2015940">
	<ele>1500.60</ele>
	<time>2025-08-16T06:38:09.000Z</time>
</trkpt>
<trkpt lat="45.9729340" lon="10.2016050">
	<ele>1500.60</ele>
	<time>2025-08-16T06:38:10.000Z</time>
</trkpt>
<trkpt lat="45.9729420" lon="10.2016160">
	<ele>1500.80</ele>
	<time>2025-08-16T06:38:11.000Z</time>
</trkpt>
<trkpt lat="45.9729480" lon="10.2016250">
	<ele>1500.80</ele>
	<time>2025-08-16T06:38:12.000Z</time>
</trkpt>
<trkpt lat="45.9729560" lon="10.2016380">
	<ele>1501.00</ele>
	<time>2025-08-16T06:38:13.000Z</time>
</trkpt>
<trkpt lat="45.9729610" lon="10.2016570">
	<ele>1501.00</ele>
	<time>2025-08-16T06:38:14.000Z</time>
</trkpt>
<trkpt lat="45.9729670" lon="10.2016710">
	<ele>1501.20</ele>
	<time>2025-08-16T06:38:15.000Z</time>
</trkpt>
<trkpt lat="45.9729760" lon="10.2016860">
	<ele>1501.40</ele>
	<time>2025-08-16T06:38:16.000Z</time>
</trkpt>
<trkpt lat="45.9729860" lon="10.2016970">
	<ele>1501.40</ele>
	<time>2025-08-16T06:38:17.000Z</time>
</trkpt>
<trkpt lat="45.9729930" lon="10.2017090">
	<ele>1501.60</ele>
	<time>2025-08-16T06:38:18.000Z</time>
</trkpt>
<trkpt lat="45.9730010" lon="10.2017220">
	<ele>1501.80</ele>
	<time>2025-08-16T06:38:19.000Z</time>
</trkpt>
<trkpt lat="45.9730140" lon="10.2017400">
	<ele>1501.80</ele>
	<time>2025-08-16T06:38:20.000Z</time>
</trkpt>
<trkpt lat="45.9730260" lon="10.2017460">
	<ele>1502.00</ele>
	<time>2025-08-16T06:38:21.000Z</time>
</trkpt>
<trkpt lat="45.9730410" lon="10.2017590">
	<ele>1502.20</ele>
	<time>2025-08-16T06:38:22.000Z</time>
</trkpt>
<trkpt lat="45.9730510" lon="10.2017690">
	<ele>1502.40</ele>
	<time>2025-08-16T06:38:23.000Z</time>
</trkpt>
<trkpt lat="45.9730600" lon="10.2017790">
	<ele>1502.60</ele>
	<time>2025-08-16T06:38:24.000Z</time>
</trkpt>
<trkpt lat="45.9730670" lon="10.2017890">
	<ele>1502.60</ele>
	<time>2025-08-16T06:38:25.000Z</time>
</trkpt>
<trkpt lat="45.9730740" lon="10.2017980">
	<ele>1502.80</ele>
	<time>2025-08-16T06:38:26.000Z</time>
</trkpt>
<trkpt lat="45.9730840" lon="10.2018060">
	<ele>1502.80</ele>
	<time>2025-08-16T06:38:27.000Z</time>
</trkpt>
<trkpt lat="45.9730970" lon="10.2018180">
	<ele>1503.00</ele>
	<time>2025-08-16T06:38:28.000Z</time>
</trkpt>
<trkpt lat="45.9731060" lon="10.2018320">
	<ele>1503.00</ele>
	<time>2025-08-16T06:38:29.000Z</time>
</trkpt>
<trkpt lat="45.9731140" lon="10.2018510">
	<ele>1503.00</ele>
	<time>2025-08-16T06:38:30.000Z</time>
</trkpt>
<trkpt lat="45.9731210" lon="10.2018680">
	<ele>1503.20</ele>
	<time>2025-08-16T06:38:31.000Z</time>
</trkpt>
<trkpt lat="45.9731290" lon="10.2018870">
	<ele>1503.20</ele>
	<time>2025-08-16T06:38:32.000Z</time>
</trkpt>
<trkpt lat="45.9731370" lon="10.2019060">
	<ele>1503.20</ele>
	<time>2025-08-16T06:38:33.000Z</time>
</trkpt>
<trkpt lat="45.9731420" lon="10.2019270">
	<ele>1503.40</ele>
	<time>2025-08-16T06:38:34.000Z</time>
</trkpt>
<trkpt lat="45.9731470" lon="10.2019400">
	<ele>1503.40</ele>
	<time>2025-08-16T06:38:35.000Z</time>
</trkpt>
<trkpt lat="45.9731510" lon="10.2019540">
	<ele>1503.40</ele>
	<time>2025-08-16T06:38:36.000Z</time>
</trkpt>
<trkpt lat="45.9731590" lon="10.2019680">
	<ele>1503.60</ele>
	<time>2025-08-16T06:38:37.000Z</time>
</trkpt>
<trkpt lat="45.9731630" lon="10.2019770">
	<ele>1503.80</ele>
	<time>2025-08-16T06:38:38.000Z</time>
</trkpt>
<trkpt lat="45.9731660" lon="10.2019920">
	<ele>1504.00</ele>
	<time>2025-08-16T06:38:39.000Z</time>
</trkpt>
<trkpt lat="45.9731760" lon="10.2020070">
	<ele>1504.00</ele>
	<time>2025-08-16T06:38:40.000Z</time>
</trkpt>
<trkpt lat="45.9731810" lon="10.2020220">
	<ele>1504.20</ele>
	<time>2025-08-16T06:38:41.000Z</time>
</trkpt>
<trkpt lat="45.9731850" lon="10.2020410">
	<ele>1504.60</ele>
	<time>2025-08-16T06:38:42.000Z</time>
</trkpt>
<trkpt lat="45.9731900" lon="10.2020570">
	<ele>1504.80</ele>
	<time>2025-08-16T06:38:43.000Z</time>
</trkpt>
<trkpt lat="45.9731920" lon="10.2020740">
	<ele>1504.80</ele>
	<time>2025-08-16T06:38:44.000Z</time>
</trkpt>
<trkpt lat="45.9732000" lon="10.2020880">
	<ele>1505.00</ele>
	<time>2025-08-16T06:38:45.000Z</time>
</trkpt>
<trkpt lat="45.9732060" lon="10.2021010">
	<ele>1505.00</ele>
	<time>2025-08-16T06:38:46.000Z</time>
</trkpt>
<trkpt lat="45.9732100" lon="10.2021170">
	<ele>1505.00</ele>
	<time>2025-08-16T06:38:47.000Z</time>
</trkpt>
<trkpt lat="45.9732140" lon="10.2021290">
	<ele>1505.20</ele>
	<time>2025-08-16T06:38:48.000Z</time>
</trkpt>
<trkpt lat="45.9732190" lon="10.2021390">
	<ele>1505.20</ele>
	<time>2025-08-16T06:38:49.000Z</time>
</trkpt>
<trkpt lat="45.9732250" lon="10.2021510">
	<ele>1505.40</ele>
	<time>2025-08-16T06:38:50.000Z</time>
</trkpt>
<trkpt lat="45.9732250" lon="10.2021660">
	<ele>1505.40</ele>
	<time>2025-08-16T06:38:51.000Z</time>
</trkpt>
<trkpt lat="45.9732270" lon="10.2021780">
	<ele>1505.60</ele>
	<time>2025-08-16T06:38:52.000Z</time>
</trkpt>
<trkpt lat="45.9732350" lon="10.2021920">
	<ele>1505.80</ele>
	<time>2025-08-16T06:38:53.000Z</time>
</trkpt>
<trkpt lat="45.9732420" lon="10.2022040">
	<ele>1506.00</ele>
	<time>2025-08-16T06:38:54.000Z</time>
</trkpt>
<trkpt lat="45.9732470" lon="10.2022170">
	<ele>1506.00</ele>
	<time>2025-08-16T06:38:55.000Z</time>
</trkpt>
<trkpt lat="45.9732470" lon="10.2022300">
	<ele>1506.20</ele>
	<time>2025-08-16T06:38:56.000Z</time>
</trkpt>
<trkpt lat="45.9732530" lon="10.2022470">
	<ele>1506.40</ele>
	<time>2025-08-16T06:38:57.000Z</time>
</trkpt>
<trkpt lat="45.9732530" lon="10.2022620">
	<ele>1506.60</ele>
	<time>2025-08-16T06:38:58.000Z</time>
</trkpt>
<trkpt lat="45.9732540" lon="10.2022810">
	<ele>1506.80</ele>
	<time>2025-08-16T06:38:59.000Z</time>
</trkpt>
<trkpt lat="45.9732570" lon="10.2022980">
	<ele>1507.20</ele>
	<time>2025-08-16T06:39:00.000Z</time>
</trkpt>
<trkpt lat="45.9732600" lon="10.2023180">
	<ele>1507.20</ele>
	<time>2025-08-16T06:39:01.000Z</time>
</trkpt>
<trkpt lat="45.9732610" lon="10.2023360">
	<ele>1507.40</ele>
	<time>2025-08-16T06:39:02.000Z</time>
</trkpt>
<trkpt lat="45.9732600" lon="10.2023510">
	<ele>1507.60</ele>
	<time>2025-08-16T06:39:03.000Z</time>
</trkpt>
<trkpt lat="45.9732660" lon="10.2023630">
	<ele>1507.80</ele>
	<time>2025-08-16T06:39:04.000Z</time>
</trkpt>
<trkpt lat="45.9732650" lon="10.2023760">
	<ele>1508.00</ele>
	<time>2025-08-16T06:39:05.000Z</time>
</trkpt>
<trkpt lat="45.9732720" lon="10.2023890">
	<ele>1508.00</ele>
	<time>2025-08-16T06:39:06.000Z</time>
</trkpt>
<trkpt lat="45.9732810" lon="10.2024070">
	<ele>1508.20</ele>
	<time>2025-08-16T06:39:07.000Z</time>
</trkpt>
<trkpt lat="45.9732840" lon="10.2024240">
	<ele>1508.40</ele>
	<time>2025-08-16T06:39:08.000Z</time>
</trkpt>
<trkpt lat="45.9732840" lon="10.2024400">
	<ele>1508.40</ele>
	<time>2025-08-16T06:39:09.000Z</time>
</trkpt>
<trkpt lat="45.9732910" lon="10.2024620">
	<ele>1508.40</ele>
	<time>2025-08-16T06:39:10.000Z</time>
</trkpt>
<trkpt lat="45.9732960" lon="10.2024810">
	<ele>1508.40</ele>
	<time>2025-08-16T06:39:11.000Z</time>
</trkpt>
<trkpt lat="45.9733000" lon="10.2025000">
	<ele>1508.60</ele>
	<time>2025-08-16T06:39:12.000Z</time>
</trkpt>
<trkpt lat="45.9733030" lon="10.2025200">
	<ele>1508.60</ele>
	<time>2025-08-16T06:39:13.000Z</time>
</trkpt>
<trkpt lat="45.9733090" lon="10.2025370">
	<ele>1508.60</ele>
	<time>2025-08-16T06:39:14.000Z</time>
</trkpt>
<trkpt lat="45.9733150" lon="10.2025530">
	<ele>1508.80</ele>
	<time>2025-08-16T06:39:15.000Z</time>
</trkpt>
<trkpt lat="45.9733190" lon="10.2025700">
	<ele>1508.80</ele>
	<time>2025-08-16T06:39:16.000Z</time>
</trkpt>
<trkpt lat="45.9733210" lon="10.2025870">
	<ele>1508.80</ele>
	<time>2025-08-16T06:39:17.000Z</time>
</trkpt>
<trkpt lat="45.9733240" lon="10.2026040">
	<ele>1508.80</ele>
	<time>2025-08-16T06:39:18.000Z</time>
</trkpt>
<trkpt lat="45.9733260" lon="10.2026190">
	<ele>1509.00</ele>
	<time>2025-08-16T06:39:19.000Z</time>
</trkpt>
<trkpt lat="45.9733300" lon="10.2026370">
	<ele>1509.00</ele>
	<time>2025-08-16T06:39:20.000Z</time>
</trkpt>
<trkpt lat="45.9733320" lon="10.2026540">
	<ele>1509.00</ele>
	<time>2025-08-16T06:39:21.000Z</time>
</trkpt>
<trkpt lat="45.9733340" lon="10.2026770">
	<ele>1509.00</ele>
	<time>2025-08-16T06:39:22.000Z</time>
</trkpt>
<trkpt lat="45.9733380" lon="10.2026930">
	<ele>1509.20</ele>
	<time>2025-08-16T06:39:23.000Z</time>
</trkpt>
<trkpt lat="45.9733430" lon="10.2027090">
	<ele>1509.20</ele>
	<time>2025-08-16T06:39:24.000Z</time>
</trkpt>
<trkpt lat="45.9733470" lon="10.2027260">
	<ele>1509.20</ele>
	<time>2025-08-16T06:39:25.000Z</time>
</trkpt>
<trkpt lat="45.9733510" lon="10.2027430">
	<ele>1509.40</ele>
	<time>2025-08-16T06:39:26.000Z</time>
</trkpt>
<trkpt lat="45.9733590" lon="10.2027650">
	<ele>1509.40</ele>
	<time>2025-08-16T06:39:27.000Z</time>
</trkpt>
<trkpt lat="45.9733640" lon="10.2027830">
	<ele>1509.40</ele>
	<time>2025-08-16T06:39:28.000Z</time>
</trkpt>
<trkpt lat="45.9733660" lon="10.2027980">
	<ele>1509.60</ele>
	<time>2025-08-16T06:39:29.000Z</time>
</trkpt>
<trkpt lat="45.9733690" lon="10.2028160">
	<ele>1509.60</ele>
	<time>2025-08-16T06:39:30.000Z</time>
</trkpt>
<trkpt lat="45.9733700" lon="10.2028350">
	<ele>1509.60</ele>
	<time>2025-08-16T06:39:31.000Z</time>
</trkpt>
<trkpt lat="45.9733710" lon="10.2028530">
	<ele>1509.60</ele>
	<time>2025-08-16T06:39:32.000Z</time>
</trkpt>
<trkpt lat="45.9733720" lon="10.2028710">
	<ele>1509.60</ele>
	<time>2025-08-16T06:39:33.000Z</time>
</trkpt>
<trkpt lat="45.9733770" lon="10.2028890">
	<ele>1509.80</ele>
	<time>2025-08-16T06:39:34.000Z</time>
</trkpt>
<trkpt lat="45.9733800" lon="10.2029100">
	<ele>1509.80</ele>
	<time>2025-08-16T06:39:35.000Z</time>
</trkpt>
<trkpt lat="45.9733820" lon="10.2029280">
	<ele>1509.80</ele>
	<time>2025-08-16T06:39:36.000Z</time>
</trkpt>
<trkpt lat="45.9733810" lon="10.2029500">
	<ele>1509.80</ele>
	<time>2025-08-16T06:39:37.000Z</time>
</trkpt>
<trkpt lat="45.9733810" lon="10.2029710">
	<ele>1509.80</ele>
	<time>2025-08-16T06:39:38.000Z</time>
</trkpt>
<trkpt lat="45.9733800" lon="10.2029960">
	<ele>1509.80</ele>
	<time>2025-08-16T06:39:39.000Z</time>
</trkpt>
<trkpt lat="45.9733800" lon="10.2030100">
	<ele>1510.00</ele>
	<time>2025-08-16T06:39:40.000Z</time>
</trkpt>
<trkpt lat="45.9733800" lon="10.2030320">
	<ele>1510.00</ele>
	<time>2025-08-16T06:39:41.000Z</time>
</trkpt>
<trkpt lat="45.9733780" lon="10.2030510">
	<ele>1510.20</ele>
	<time>2025-08-16T06:39:42.000Z</time>
</trkpt>
<trkpt lat="45.9733750" lon="10.2030630">
	<ele>1510.20</ele>
	<time>2025-08-16T06:39:43.000Z</time>
</trkpt>
<trkpt lat="45.9733730" lon="10.2030810">
	<ele>1510.20</ele>
	<time>2025-08-16T06:39:44.000Z</time>
</trkpt>
<trkpt lat="45.9733730" lon="10.2031020">
	<ele>1510.40</ele>
	<time>2025-08-16T06:39:45.000Z</time>
</trkpt>
<trkpt lat="45.9733740" lon="10.2031170">
	<ele>1510.40</ele>
	<time>2025-08-16T06:39:46.000Z</time>
</trkpt>
<trkpt lat="45.9733720" lon="10.2031340">
	<ele>1510.60</ele>
	<time>2025-08-16T06:39:47.000Z</time>
</trkpt>
<trkpt lat="45.9733690" lon="10.2031500">
	<ele>1510.60</ele>
	<time>2025-08-16T06:39:48.000Z</time>
</trkpt>
<trkpt lat="45.9733660" lon="10.2031650">
	<ele>1510.80</ele>
	<time>2025-08-16T06:39:49.000Z</time>
</trkpt>
<trkpt lat="45.9733630" lon="10.2031770">
	<ele>1510.80</ele>
	<time>2025-08-16T06:39:50.000Z</time>
</trkpt>
<trkpt lat="45.9733610" lon="10.2031910">
	<ele>1511.00</ele>
	<time>2025-08-16T06:39:51.000Z</time>
</trkpt>
<trkpt lat="45.9733600" lon="10.2032030">
	<ele>1511.20</ele>
	<time>2025-08-16T06:39:52.000Z</time>
</trkpt>
<trkpt lat="45.9733620" lon="10.2032180">
	<ele>1511.20</ele>
	<time>2025-08-16T06:39:53.000Z</time>
</trkpt>
<trkpt lat="45.9733640" lon="10.2032330">
	<ele>1511.60</ele>
	<time>2025-08-16T06:39:54.000Z</time>
</trkpt>
<trkpt lat="45.9733650" lon="10.2032460">
	<ele>1511.60</ele>
	<time>2025-08-16T06:39:55.000Z</time>
</trkpt>
<trkpt lat="45.9733660" lon="10.2032570">
	<ele>1511.80</ele>
	<time>2025-08-16T06:39:56.000Z</time>
</trkpt>
<trkpt lat="45.9733670" lon="10.2032730">
	<ele>1512.00</ele>
	<time>2025-08-16T06:39:57.000Z</time>
</trkpt>
<trkpt lat="45.9733700" lon="10.2032820">
	<ele>1512.00</ele>
	<time>2025-08-16T06:39:58.000Z</time>
</trkpt>
<trkpt lat="45.9733700" lon="10.2032870">
	<ele>1512.40</ele>
	<time>2025-08-16T06:39:59.000Z</time>
</trkpt>
<trkpt lat="45.9733710" lon="10.2032970">
	<ele>1512.60</ele>
	<time>2025-08-16T06:40:00.000Z</time>
</trkpt>
<trkpt lat="45.9733690" lon="10.2033050">
	<ele>1512.80</ele>
	<time>2025-08-16T06:40:01.000Z</time>
</trkpt>
<trkpt lat="45.9733690" lon="10.2033100">
	<ele>1512.80</ele>
	<time>2025-08-16T06:40:02.000Z</time>
</trkpt>
<trkpt lat="45.9733690" lon="10.2033100">
	<ele>1513.00</ele>
	<time>2025-08-16T06:40:03.000Z</time>
</trkpt>
<trkpt lat="45.9733680" lon="10.2033130">
	<ele>1513.00</ele>
	<time>2025-08-16T06:40:04.000Z</time>
</trkpt>
<trkpt lat="45.9733680" lon="10.2033150">
	<ele>1513.00</ele>
	<time>2025-08-16T06:40:05.000Z</time>
</trkpt>
<trkpt lat="45.9733700" lon="10.2033170">
	<ele>1513.00</ele>
	<time>2025-08-16T06:40:06.000Z</time>
</trkpt>
<trkpt lat="45.9733730" lon="10.2033200">
	<ele>1513.20</ele>
	<time>2025-08-16T06:40:07.000Z</time>
</trkpt>
<trkpt lat="45.9733810" lon="10.2033260">
	<ele>1513.20</ele>
	<time>2025-08-16T06:40:08.000Z</time>
</trkpt>
<trkpt lat="45.9733850" lon="10.2033270">
	<ele>1513.20</ele>
	<time>2025-08-16T06:40:09.000Z</time>
</trkpt>
<trkpt lat="45.9733870" lon="10.2033270">
	<ele>1513.20</ele>
	<time>2025-08-16T06:40:10.000Z</time>
</trkpt>
<trkpt lat="45.9733890" lon="10.2033240">
	<ele>1513.40</ele>
	<time>2025-08-16T06:40:11.000Z</time>
</trkpt>
<trkpt lat="45.9733910" lon="10.2033190">
	<ele>1513.60</ele>
	<time>2025-08-16T06:40:12.000Z</time>
</trkpt>
<trkpt lat="45.9733910" lon="10.2033160">
	<ele>1513.80</ele>
	<time>2025-08-16T06:40:13.000Z</time>
</trkpt>
<trkpt lat="45.9733890" lon="10.2033150">
	<ele>1514.00</ele>
	<time>2025-08-16T06:40:14.000Z</time>
</trkpt>
<trkpt lat="45.9733890" lon="10.2033150">
	<ele>1514.00</ele>
	<time>2025-08-16T06:40:15.000Z</time>
</trkpt>
<trkpt lat="45.9733910" lon="10.2033200">
	<ele>1514.00</ele>
	<time>2025-08-16T06:40:16.000Z</time>
</trkpt>
<trkpt lat="45.9733890" lon="10.2033220">
	<ele>1514.00</ele>
	<time>2025-08-16T06:40:17.000Z</time>
</trkpt>
<trkpt lat="45.9733890" lon="10.2033250">
	<ele>1514.20</ele>
	<time>2025-08-16T06:40:18.000Z</time>
</trkpt>
<trkpt lat="45.9733910" lon="10.2033310">
	<ele>1514.20</ele>
	<time>2025-08-16T06:40:19.000Z</time>
</trkpt>
<trkpt lat="45.9733960" lon="10.2033300">
	<ele>1514.20</ele>
	<time>2025-08-16T06:40:20.000Z</time>
</trkpt>
<trkpt lat="45.9733970" lon="10.2033310">
	<ele>1514.20</ele>
	<time>2025-08-16T06:40:21.000Z</time>
</trkpt>
<trkpt lat="45.9733990" lon="10.2033310">
	<ele>1514.20</ele>
	<time>2025-08-16T06:40:22.000Z</time>
</trkpt>
<trkpt lat="45.9734010" lon="10.2033310">
	<ele>1514.20</ele>
	<time>2025-08-16T06:40:23.000Z</time>
</trkpt>
<trkpt lat="45.9734010" lon="10.2033300">
	<ele>1514.40</ele>
	<time>2025-08-16T06:40:24.000Z</time>
</trkpt>
<trkpt lat="45.9734020" lon="10.2033280">
	<ele>1514.40</ele>
	<time>2025-08-16T06:40:25.000Z</time>
</trkpt>
<trkpt lat="45.9734030" lon="10.2033260">
	<ele>1514.40</ele>
	<time>2025-08-16T06:40:26.000Z</time>
</trkpt>
<trkpt lat="45.9734000" lon="10.2033240">
	<ele>1514.40</ele>
	<time>2025-08-16T06:40:27.000Z</time>
</trkpt>
<trkpt lat="45.9734000" lon="10.2033240">
	<ele>1514.40</ele>
	<time>2025-08-16T06:40:28.000Z</time>
</trkpt>
<trkpt lat="45.9733960" lon="10.2033210">
	<ele>1514.40</ele>
	<time>2025-08-16T06:40:29.000Z</time>
</trkpt>
<trkpt lat="45.9733950" lon="10.2033210">
	<ele>1514.60</ele>
	<time>2025-08-16T06:40:30.000Z</time>
</trkpt>
<trkpt lat="45.9733980" lon="10.2033210">
	<ele>1514.60</ele>
	<time>2025-08-16T06:40:31.000Z</time>
</trkpt>
<trkpt lat="45.9733990" lon="10.2033220">
	<ele>1514.60</ele>
	<time>2025-08-16T06:40:32.000Z</time>
</trkpt>
<trkpt lat="45.9734000" lon="10.2033240">
	<ele>1514.80</ele>
	<time>2025-08-16T06:40:33.000Z</time>
</trkpt>
<trkpt lat="45.9734000" lon="10.2033260">
	<ele>1514.80</ele>
	<time>2025-08-16T06:40:34.000Z</time>
</trkpt>
<trkpt lat="45.9734000" lon="10.2033260">
	<ele>1514.80</ele>
	<time>2025-08-16T06:40:35.000Z</time>
</trkpt>
<trkpt lat="45.9734000" lon="10.2033260">
	<ele>1514.80</ele>
	<time>2025-08-16T06:40:36.000Z</time>
</trkpt>
<trkpt lat="45.9734000" lon="10.2033260">
	<ele>1514.80</ele>
	<time>2025-08-16T06:40:37.000Z</time>
</trkpt>
<trkpt lat="45.9734000" lon="10.2033260">
	<ele>1514.80</ele>
	<time>2025-08-16T06:40:38.000Z</time>
</trkpt>
<trkpt lat="45.9734000" lon="10.2033260">
	<ele>1514.60</ele>
	<time>2025-08-16T06:40:39.000Z</time>
</trkpt>
<trkpt lat="45.9734000" lon="10.2033260">
	<ele>1514.40</ele>
	<time>2025-08-16T06:40:40.000Z</time>
</trkpt>
<trkpt lat="45.9734000" lon="10.2033260">
	<ele>1514.40</ele>
	<time>2025-08-16T06:40:41.000Z</time>
</trkpt>
<trkpt lat="45.9734000" lon="10.2033260">
	<ele>1514.20</ele>
	<time>2025-08-16T06:40:42.000Z</time>
</trkpt>
<trkpt lat="45.9734000" lon="10.2033260">
	<ele>1514.20</ele>
	<time>2025-08-16T06:40:43.000Z</time>
</trkpt>
<trkpt lat="45.9734000" lon="10.2033250">
	<ele>1514.40</ele>
	<time>2025-08-16T06:40:44.000Z</time>
</trkpt>
<trkpt lat="45.9734000" lon="10.2033240">
	<ele>1514.40</ele>
	<time>2025-08-16T06:40:45.000Z</time>
</trkpt>
<trkpt lat="45.9734000" lon="10.2033240">
	<ele>1514.60</ele>
	<time>2025-08-16T06:40:46.000Z</time>
</trkpt>
<trkpt lat="45.9734000" lon="10.2033240">
	<ele>1514.60</ele>
	<time>2025-08-16T06:40:47.000Z</time>
</trkpt>
<trkpt lat="45.9734000" lon="10.2033240">
	<ele>1514.80</ele>
	<time>2025-08-16T06:40:48.000Z</time>
</trkpt>
<trkpt lat="45.9734000" lon="10.2033230">
	<ele>1514.80</ele>
	<time>2025-08-16T06:40:49.000Z</time>
</trkpt>
<trkpt lat="45.9734000" lon="10.2033220">
	<ele>1514.80</ele>
	<time>2025-08-16T06:40:50.000Z</time>
</trkpt>
<trkpt lat="45.9734000" lon="10.2033220">
	<ele>1514.80</ele>
	<time>2025-08-16T06:40:51.000Z</time>
</trkpt>
<trkpt lat="45.9734060" lon="10.2033140">
	<ele>1515.00</ele>
	<time>2025-08-16T06:40:52.000Z</time>
</trkpt>
<trkpt lat="45.9734130" lon="10.2032900">
	<ele>1515.00</ele>
	<time>2025-08-16T06:40:53.000Z</time>
</trkpt>
<trkpt lat="45.9734270" lon="10.2032750">
	<ele>1515.40</ele>
	<time>2025-08-16T06:40:54.000Z</time>
</trkpt>
<trkpt lat="45.9734400" lon="10.2032660">
	<ele>1515.60</ele>
	<time>2025-08-16T06:40:55.000Z</time>
</trkpt>
<trkpt lat="45.9734470" lon="10.2032580">
	<ele>1515.80</ele>
	<time>2025-08-16T06:40:56.000Z</time>
</trkpt>
<trkpt lat="45.9734560" lon="10.2032430">
	<ele>1516.00</ele>
	<time>2025-08-16T06:40:57.000Z</time>
</trkpt>
<trkpt lat="45.9734660" lon="10.2032280">
	<ele>1516.20</ele>
	<time>2025-08-16T06:40:58.000Z</time>
</trkpt>
<trkpt lat="45.9734790" lon="10.2032130">
	<ele>1516.40</ele>
	<time>2025-08-16T06:40:59.000Z</time>
</trkpt>
<trkpt lat="45.9734930" lon="10.2031950">
	<ele>1516.40</ele>
	<time>2025-08-16T06:41:00.000Z</time>
</trkpt>
<trkpt lat="45.9735030" lon="10.2031760">
	<ele>1516.60</ele>
	<time>2025-08-16T06:41:01.000Z</time>
</trkpt>
<trkpt lat="45.9735070" lon="10.2031680">
	<ele>1517.00</ele>
	<time>2025-08-16T06:41:02.000Z</time>
</trkpt>
<trkpt lat="45.9735150" lon="10.2031600">
	<ele>1517.20</ele>
	<time>2025-08-16T06:41:03.000Z</time>
</trkpt>
<trkpt lat="45.9735160" lon="10.2031500">
	<ele>1517.20</ele>
	<time>2025-08-16T06:41:04.000Z</time>
</trkpt>
<trkpt lat="45.9735210" lon="10.2031390">
	<ele>1517.60</ele>
	<time>2025-08-16T06:41:05.000Z</time>
</trkpt>
<trkpt lat="45.9735280" lon="10.2031310">
	<ele>1517.60</ele>
	<time>2025-08-16T06:41:06.000Z</time>
</trkpt>
<trkpt lat="45.9735350" lon="10.2031230">
	<ele>1517.80</ele>
	<time>2025-08-16T06:41:07.000Z</time>
</trkpt>
<trkpt lat="45.9735420" lon="10.2031110">
	<ele>1518.00</ele>
	<time>2025-08-16T06:41:08.000Z</time>
</trkpt>
<trkpt lat="45.9735470" lon="10.2030980">
	<ele>1518.20</ele>
	<time>2025-08-16T06:41:09.000Z</time>
</trkpt>
<trkpt lat="45.9735540" lon="10.2030870">
	<ele>1518.20</ele>
	<time>2025-08-16T06:41:10.000Z</time>
</trkpt>
<trkpt lat="45.9735590" lon="10.2030730">
	<ele>1518.40</ele>
	<time>2025-08-16T06:41:11.000Z</time>
</trkpt>
<trkpt lat="45.9735620" lon="10.2030640">
	<ele>1518.40</ele>
	<time>2025-08-16T06:41:12.000Z</time>
</trkpt>
<trkpt lat="45.9735670" lon="10.2030510">
	<ele>1518.60</ele>
	<time>2025-08-16T06:41:13.000Z</time>
</trkpt>
<trkpt lat="45.9735740" lon="10.2030420">
	<ele>1518.60</ele>
	<time>2025-08-16T06:41:14.000Z</time>
</trkpt>
<trkpt lat="45.9735790" lon="10.2030320">
	<ele>1518.80</ele>
	<time>2025-08-16T06:41:15.000Z</time>
</trkpt>
<trkpt lat="45.9735840" lon="10.2030230">
	<ele>1519.00</ele>
	<time>2025-08-16T06:41:16.000Z</time>
</trkpt>
<trkpt lat="45.9735880" lon="10.2030140">
	<ele>1519.20</ele>
	<time>2025-08-16T06:41:17.000Z</time>
</trkpt>
<trkpt lat="45.9735910" lon="10.2030050">
	<ele>1519.60</ele>
	<time>2025-08-16T06:41:18.000Z</time>
</trkpt>
<trkpt lat="45.9735990" lon="10.2029960">
	<ele>1519.80</ele>
	<time>2025-08-16T06:41:19.000Z</time>
</trkpt>
<trkpt lat="45.9736070" lon="10.2029870">
	<ele>1520.00</ele>
	<time>2025-08-16T06:41:20.000Z</time>
</trkpt>
<trkpt lat="45.9736110" lon="10.2029800">
	<ele>1520.20</ele>
	<time>2025-08-16T06:41:21.000Z</time>
</trkpt>
<trkpt lat="45.9736130" lon="10.2029670">
	<ele>1520.40</ele>
	<time>2025-08-16T06:41:22.000Z</time>
</trkpt>
<trkpt lat="45.9736170" lon="10.2029530">
	<ele>1520.40</ele>
	<time>2025-08-16T06:41:23.000Z</time>
</trkpt>
<trkpt lat="45.9736180" lon="10.2029430">
	<ele>1520.60</ele>
	<time>2025-08-16T06:41:24.000Z</time>
</trkpt>
<trkpt lat="45.9736190" lon="10.2029310">
	<ele>1520.80</ele>
	<time>2025-08-16T06:41:25.000Z</time>
</trkpt>
<trkpt lat="45.9736210" lon="10.2029240">
	<ele>1521.00</ele>
	<time>2025-08-16T06:41:26.000Z</time>
</trkpt>
<trkpt lat="45.9736240" lon="10.2029160">
	<ele>1521.00</ele>
	<time>2025-08-16T06:41:27.000Z</time>
</trkpt>
<trkpt lat="45.9736250" lon="10.2029120">
	<ele>1521.20</ele>
	<time>2025-08-16T06:41:28.000Z</time>
</trkpt>
<trkpt lat="45.9736290" lon="10.2029090">
	<ele>1521.40</ele>
	<time>2025-08-16T06:41:29.000Z</time>
</trkpt>
<trkpt lat="45.9736420" lon="10.2029040">
	<ele>1521.60</ele>
	<time>2025-08-16T06:41:30.000Z</time>
</trkpt>
<trkpt lat="45.9736490" lon="10.2028900">
	<ele>1521.80</ele>
	<time>2025-08-16T06:41:31.000Z</time>
</trkpt>
<trkpt lat="45.9736520" lon="10.2028790">
	<ele>1522.00</ele>
	<time>2025-08-16T06:41:32.000Z</time>
</trkpt>
<trkpt lat="45.9736560" lon="10.2028720">
	<ele>1522.20</ele>
	<time>2025-08-16T06:41:33.000Z</time>
</trkpt>
<trkpt lat="45.9736580" lon="10.2028650">
	<ele>1522.40</ele>
	<time>2025-08-16T06:41:34.000Z</time>
</trkpt>
<trkpt lat="45.9736610" lon="10.2028570">
	<ele>1522.60</ele>
	<time>2025-08-16T06:41:35.000Z</time>
</trkpt>
<trkpt lat="45.9736670" lon="10.2028470">
	<ele>1522.80</ele>
	<time>2025-08-16T06:41:36.000Z</time>
</trkpt>
<trkpt lat="45.9736700" lon="10.2028370">
	<ele>1522.80</ele>
	<time>2025-08-16T06:41:37.000Z</time>
</trkpt>
<trkpt lat="45.9736720" lon="10.2028280">
	<ele>1523.00</ele>
	<time>2025-08-16T06:41:38.000Z</time>
</trkpt>
<trkpt lat="45.9736750" lon="10.2028200">
	<ele>1523.20</ele>
	<time>2025-08-16T06:41:39.000Z</time>
</trkpt>
<trkpt lat="45.9736790" lon="10.2028090">
	<ele>1523.40</ele>
	<time>2025-08-16T06:41:40.000Z</time>
</trkpt>
<trkpt lat="45.9736760" lon="10.2027980">
	<ele>1523.60</ele>
	<time>2025-08-16T06:41:41.000Z</time>
</trkpt>
<trkpt lat="45.9736750" lon="10.2027870">
	<ele>1523.80</ele>
	<time>2025-08-16T06:41:42.000Z</time>
</trkpt>
<trkpt lat="45.9736800" lon="10.2027690">
	<ele>1523.80</ele>
	<time>2025-08-16T06:41:43.000Z</time>
</trkpt>
<trkpt lat="45.9736810" lon="10.2027590">
	<ele>1524.00</ele>
	<time>2025-08-16T06:41:44.000Z</time>
</trkpt>
<trkpt lat="45.9736810" lon="10.2027490">
	<ele>1524.40</ele>
	<time>2025-08-16T06:41:45.000Z</time>
</trkpt>
<trkpt lat="45.9736800" lon="10.2027380">
	<ele>1524.60</ele>
	<time>2025-08-16T06:41:46.000Z</time>
</trkpt>
<trkpt lat="45.9736820" lon="10.2027320">
	<ele>1524.60</ele>
	<time>2025-08-16T06:41:47.000Z</time>
</trkpt>
<trkpt lat="45.9736880" lon="10.2027250">
	<ele>1524.80</ele>
	<time>2025-08-16T06:41:48.000Z</time>
</trkpt>
<trkpt lat="45.9736920" lon="10.2027180">
	<ele>1525.00</ele>
	<time>2025-08-16T06:41:49.000Z</time>
</trkpt>
<trkpt lat="45.9736960" lon="10.2027080">
	<ele>1525.40</ele>
	<time>2025-08-16T06:41:50.000Z</time>
</trkpt>
<trkpt lat="45.9736980" lon="10.2027040">
	<ele>1525.60</ele>
	<time>2025-08-16T06:41:51.000Z</time>
</trkpt>
<trkpt lat="45.9736990" lon="10.2027010">
	<ele>1525.80</ele>
	<time>2025-08-16T06:41:52.000Z</time>
</trkpt>
<trkpt lat="45.9737030" lon="10.2026970">
	<ele>1525.80</ele>
	<time>2025-08-16T06:41:53.000Z</time>
</trkpt>
<trkpt lat="45.9737060" lon="10.2026910">
	<ele>1526.20</ele>
	<time>2025-08-16T06:41:54.000Z</time>
</trkpt>
<trkpt lat="45.9737130" lon="10.2026830">
	<ele>1526.40</ele>
	<time>2025-08-16T06:41:55.000Z</time>
</trkpt>
<trkpt lat="45.9737180" lon="10.2026750">
	<ele>1526.40</ele>
	<time>2025-08-16T06:41:56.000Z</time>
</trkpt>
<trkpt lat="45.9737190" lon="10.2026620">
	<ele>1526.60</ele>
	<time>2025-08-16T06:41:57.000Z</time>
</trkpt>
<trkpt lat="45.9737250" lon="10.2026590">
	<ele>1526.80</ele>
	<time>2025-08-16T06:41:58.000Z</time>
</trkpt>
<trkpt lat="45.9737270" lon="10.2026580">
	<ele>1527.00</ele>
	<time>2025-08-16T06:41:59.000Z</time>
</trkpt>
<trkpt lat="45.9737360" lon="10.2026480">
	<ele>1527.40</ele>
	<time>2025-08-16T06:42:00.000Z</time>
</trkpt>
<trkpt lat="45.9737390" lon="10.2026350">
	<ele>1527.60</ele>
	<time>2025-08-16T06:42:01.000Z</time>
</trkpt>
<trkpt lat="45.9737470" lon="10.2026270">
	<ele>1527.80</ele>
	<time>2025-08-16T06:42:02.000Z</time>
</trkpt>
<trkpt lat="45.9737560" lon="10.2026190">
	<ele>1528.00</ele>
	<time>2025-08-16T06:42:03.000Z</time>
</trkpt>
<trkpt lat="45.9737580" lon="10.2026110">
	<ele>1528.20</ele>
	<time>2025-08-16T06:42:04.000Z</time>
</trkpt>
<trkpt lat="45.9737570" lon="10.2026020">
	<ele>1528.60</ele>
	<time>2025-08-16T06:42:05.000Z</time>
</trkpt>
<trkpt lat="45.9737600" lon="10.2025950">
	<ele>1528.80</ele>
	<time>2025-08-16T06:42:06.000Z</time>
</trkpt>
<trkpt lat="45.9737610" lon="10.2025890">
	<ele>1529.00</ele>
	<time>2025-08-16T06:42:07.000Z</time>
</trkpt>
<trkpt lat="45.9737620" lon="10.2025850">
	<ele>1529.20</ele>
	<time>2025-08-16T06:42:08.000Z</time>
</trkpt>
<trkpt lat="45.9737680" lon="10.2025780">
	<ele>1529.40</ele>
	<time>2025-08-16T06:42:09.000Z</time>
</trkpt>
<trkpt lat="45.9737730" lon="10.2025680">
	<ele>1529.60</ele>
	<time>2025-08-16T06:42:10.000Z</time>
</trkpt>
<trkpt lat="45.9737760" lon="10.2025550">
	<ele>1529.60</ele>
	<time>2025-08-16T06:42:11.000Z</time>
</trkpt>
<trkpt lat="45.9737820" lon="10.2025470">
	<ele>1529.60</ele>
	<time>2025-08-16T06:42:12.000Z</time>
</trkpt>
<trkpt lat="45.9737850" lon="10.2025370">
	<ele>1529.80</ele>
	<time>2025-08-16T06:42:13.000Z</time>
</trkpt>
<trkpt lat="45.9737900" lon="10.2025250">
	<ele>1529.80</ele>
	<time>2025-08-16T06:42:14.000Z</time>
</trkpt>
<trkpt lat="45.9737920" lon="10.2025200">
	<ele>1530.00</ele>
	<time>2025-08-16T06:42:15.000Z</time>
</trkpt>
<trkpt lat="45.9737980" lon="10.2025120">
	<ele>1530.40</ele>
	<time>2025-08-16T06:42:16.000Z</time>
</trkpt>
<trkpt lat="45.9738020" lon="10.2025020">
	<ele>1530.40</ele>
	<time>2025-08-16T06:42:17.000Z</time>
</trkpt>
<trkpt lat="45.9738060" lon="10.2024910">
	<ele>1530.60</ele>
	<time>2025-08-16T06:42:18.000Z</time>
</trkpt>
<trkpt lat="45.9738100" lon="10.2024830">
	<ele>1530.80</ele>
	<time>2025-08-16T06:42:19.000Z</time>
</trkpt>
<trkpt lat="45.9738150" lon="10.2024720">
	<ele>1531.00</ele>
	<time>2025-08-16T06:42:20.000Z</time>
</trkpt>
<trkpt lat="45.9738180" lon="10.2024640">
	<ele>1531.00</ele>
	<time>2025-08-16T06:42:21.000Z</time>
</trkpt>
<trkpt lat="45.9738190" lon="10.2024570">
	<ele>1531.20</ele>
	<time>2025-08-16T06:42:22.000Z</time>
</trkpt>
<trkpt lat="45.9738200" lon="10.2024470">
	<ele>1531.40</ele>
	<time>2025-08-16T06:42:23.000Z</time>
</trkpt>
<trkpt lat="45.9738190" lon="10.2024350">
	<ele>1531.60</ele>
	<time>2025-08-16T06:42:24.000Z</time>
</trkpt>
<trkpt lat="45.9738200" lon="10.2024290">
	<ele>1531.80</ele>
	<time>2025-08-16T06:42:25.000Z</time>
</trkpt>
<trkpt lat="45.9738230" lon="10.2024230">
	<ele>1532.00</ele>
	<time>2025-08-16T06:42:26.000Z</time>
</trkpt>
<trkpt lat="45.9738250" lon="10.2024170">
	<ele>1532.00</ele>
	<time>2025-08-16T06:42:27.000Z</time>
</trkpt>
<trkpt lat="45.9738260" lon="10.2024100">
	<ele>1532.20</ele>
	<time>2025-08-16T06:42:28.000Z</time>
</trkpt>
<trkpt lat="45.9738310" lon="10.2024030">
	<ele>1532.40</ele>
	<time>2025-08-16T06:42:29.000Z</time>
</trkpt>
<trkpt lat="45.9738370" lon="10.2024010">
	<ele>1532.60</ele>
	<time>2025-08-16T06:42:30.000Z</time>
</trkpt>
<trkpt lat="45.9738440" lon="10.2023960">
	<ele>1532.80</ele>
	<time>2025-08-16T06:42:31.000Z</time>
</trkpt>
<trkpt lat="45.9738490" lon="10.2023870">
	<ele>1533.00</ele>
	<time>2025-08-16T06:42:32.000Z</time>
</trkpt>
<trkpt lat="45.9738530" lon="10.2023780">
	<ele>1533.00</ele>
	<time>2025-08-16T06:42:33.000Z</time>
</trkpt>
<trkpt lat="45.9738610" lon="10.2023650">
	<ele>1533.20</ele>
	<time>2025-08-16T06:42:34.000Z</time>
</trkpt>
<trkpt lat="45.9738630" lon="10.2023580">
	<ele>1533.40</ele>
	<time>2025-08-16T06:42:35.000Z</time>
</trkpt>
<trkpt lat="45.9738670" lon="10.2023510">
	<ele>1533.60</ele>
	<time>2025-08-16T06:42:36.000Z</time>
</trkpt>
<trkpt lat="45.9738690" lon="10.2023440">
	<ele>1533.80</ele>
	<time>2025-08-16T06:42:37.000Z</time>
</trkpt>
<trkpt lat="45.9738710" lon="10.2023370">
	<ele>1534.00</ele>
	<time>2025-08-16T06:42:38.000Z</time>
</trkpt>
<trkpt lat="45.9738730" lon="10.2023310">
	<ele>1534.20</ele>
	<time>2025-08-16T06:42:39.000Z</time>
</trkpt>
<trkpt lat="45.9738760" lon="10.2023200">
	<ele>1534.20</ele>
	<time>2025-08-16T06:42:40.000Z</time>
</trkpt>
<trkpt lat="45.9738790" lon="10.2023100">
	<ele>1534.40</ele>
	<time>2025-08-16T06:42:41.000Z</time>
</trkpt>
<trkpt lat="45.9738860" lon="10.2023000">
	<ele>1534.60</ele>
	<time>2025-08-16T06:42:42.000Z</time>
</trkpt>
<trkpt lat="45.9738910" lon="10.2022930">
	<ele>1535.00</ele>
	<time>2025-08-16T06:42:43.000Z</time>
</trkpt>
<trkpt lat="45.9738930" lon="10.2022840">
	<ele>1535.20</ele>
	<time>2025-08-16T06:42:44.000Z</time>
</trkpt>
<trkpt lat="45.9738990" lon="10.2022770">
	<ele>1535.40</ele>
	<time>2025-08-16T06:42:45.000Z</time>
</trkpt>
<trkpt lat="45.9739010" lon="10.2022690">
	<ele>1535.60</ele>
	<time>2025-08-16T06:42:46.000Z</time>
</trkpt>
<trkpt lat="45.9739010" lon="10.2022640">
	<ele>1535.60</ele>
	<time>2025-08-16T06:42:47.000Z</time>
</trkpt>
<trkpt lat="45.9739000" lon="10.2022620">
	<ele>1536.00</ele>
	<time>2025-08-16T06:42:48.000Z</time>
</trkpt>
<trkpt lat="45.9739010" lon="10.2022580">
	<ele>1536.00</ele>
	<time>2025-08-16T06:42:49.000Z</time>
</trkpt>
<trkpt lat="45.9739020" lon="10.2022500">
	<ele>1536.20</ele>
	<time>2025-08-16T06:42:50.000Z</time>
</trkpt>
<trkpt lat="45.9739000" lon="10.2022480">
	<ele>1536.40</ele>
	<time>2025-08-16T06:42:51.000Z</time>
</trkpt>
<trkpt lat="45.9739000" lon="10.2022440">
	<ele>1536.40</ele>
	<time>2025-08-16T06:42:52.000Z</time>
</trkpt>
<trkpt lat="45.9739000" lon="10.2022430">
	<ele>1536.60</ele>
	<time>2025-08-16T06:42:53.000Z</time>
</trkpt>
<trkpt lat="45.9739000" lon="10.2022450">
	<ele>1536.80</ele>
	<time>2025-08-16T06:42:54.000Z</time>
</trkpt>
<trkpt lat="45.9739020" lon="10.2022470">
	<ele>1536.80</ele>
	<time>2025-08-16T06:42:55.000Z</time>
</trkpt>
<trkpt lat="45.9739020" lon="10.2022480">
	<ele>1536.80</ele>
	<time>2025-08-16T06:42:56.000Z</time>
</trkpt>
<trkpt lat="45.9739040" lon="10.2022500">
	<ele>1537.00</ele>
	<time>2025-08-16T06:42:57.000Z</time>
</trkpt>
<trkpt lat="45.9739040" lon="10.2022550">
	<ele>1537.00</ele>
	<time>2025-08-16T06:42:58.000Z</time>
</trkpt>
<trkpt lat="45.9739090" lon="10.2022620">
	<ele>1537.00</ele>
	<time>2025-08-16T06:42:59.000Z</time>
</trkpt>
<trkpt lat="45.9739120" lon="10.2022730">
	<ele>1537.20</ele>
	<time>2025-08-16T06:43:00.000Z</time>
</trkpt>
<trkpt lat="45.9739150" lon="10.2022830">
	<ele>1537.20</ele>
	<time>2025-08-16T06:43:01.000Z</time>
</trkpt>
<trkpt lat="45.9739200" lon="10.2022930">
	<ele>1537.40</ele>
	<time>2025-08-16T06:43:02.000Z</time>
</trkpt>
<trkpt lat="45.9739230" lon="10.2023020">
	<ele>1537.40</ele>
	<time>2025-08-16T06:43:03.000Z</time>
</trkpt>
<trkpt lat="45.9739280" lon="10.2023080">
	<ele>1537.60</ele>
	<time>2025-08-16T06:43:04.000Z</time>
</trkpt>
<trkpt lat="45.9739340" lon="10.2023160">
	<ele>1537.80</ele>
	<time>2025-08-16T06:43:05.000Z</time>
</trkpt>
<trkpt lat="45.9739400" lon="10.2023240">
	<ele>1537.80</ele>
	<time>2025-08-16T06:43:06.000Z</time>
</trkpt>
<trkpt lat="45.9739450" lon="10.2023350">
	<ele>1538.00</ele>
	<time>2025-08-16T06:43:07.000Z</time>
</trkpt>
<trkpt lat="45.9739490" lon="10.2023480">
	<ele>1538.20</ele>
	<time>2025-08-16T06:43:08.000Z</time>
</trkpt>
<trkpt lat="45.9739550" lon="10.2023610">
	<ele>1538.40</ele>
	<time>2025-08-16T06:43:09.000Z</time>
</trkpt>
<trkpt lat="45.9739600" lon="10.2023680">
	<ele>1538.60</ele>
	<time>2025-08-16T06:43:10.000Z</time>
</trkpt>
<trkpt lat="45.9739620" lon="10.2023790">
	<ele>1538.60</ele>
	<time>2025-08-16T06:43:11.000Z</time>
</trkpt>
<trkpt lat="45.9739640" lon="10.2023850">
	<ele>1538.80</ele>
	<time>2025-08-16T06:43:12.000Z</time>
</trkpt>
<trkpt lat="45.9739680" lon="10.2023920">
	<ele>1539.00</ele>
	<time>2025-08-16T06:43:13.000Z</time>
</trkpt>
<trkpt lat="45.9739680" lon="10.2024000">
	<ele>1539.20</ele>
	<time>2025-08-16T06:43:14.000Z</time>
</trkpt>
<trkpt lat="45.9739710" lon="10.2024100">
	<ele>1539.40</ele>
	<time>2025-08-16T06:43:15.000Z</time>
</trkpt>
<trkpt lat="45.9739730" lon="10.2024190">
	<ele>1539.60</ele>
	<time>2025-08-16T06:43:16.000Z</time>
</trkpt>
<trkpt lat="45.9739760" lon="10.2024320">
	<ele>1539.60</ele>
	<time>2025-08-16T06:43:17.000Z</time>
</trkpt>
<trkpt lat="45.9739820" lon="10.2024450">
	<ele>1540.00</ele>
	<time>2025-08-16T06:43:18.000Z</time>
</trkpt>
<trkpt lat="45.9739870" lon="10.2024560">
	<ele>1540.20</ele>
	<time>2025-08-16T06:43:19.000Z</time>
</trkpt>
<trkpt lat="45.9739950" lon="10.2024630">
	<ele>1540.20</ele>
	<time>2025-08-16T06:43:20.000Z</time>
</trkpt>
<trkpt lat="45.9740050" lon="10.2024680">
	<ele>1540.40</ele>
	<time>2025-08-16T06:43:21.000Z</time>
</trkpt>
<trkpt lat="45.9740140" lon="10.2024790">
	<ele>1540.40</ele>
	<time>2025-08-16T06:43:22.000Z</time>
</trkpt>
<trkpt lat="45.9740170" lon="10.2024890">
	<ele>1540.80</ele>
	<time>2025-08-16T06:43:23.000Z</time>
</trkpt>
<trkpt lat="45.9740170" lon="10.2024960">
	<ele>1541.00</ele>
	<time>2025-08-16T06:43:24.000Z</time>
</trkpt>
<trkpt lat="45.9740210" lon="10.2025030">
	<ele>1541.20</ele>
	<time>2025-08-16T06:43:25.000Z</time>
</trkpt>
<trkpt lat="45.9740260" lon="10.2025100">
	<ele>1541.40</ele>
	<time>2025-08-16T06:43:26.000Z</time>
</trkpt>
<trkpt lat="45.9740280" lon="10.2025160">
	<ele>1541.60</ele>
	<time>2025-08-16T06:43:27.000Z</time>
</trkpt>
<trkpt lat="45.9740280" lon="10.2025150">
	<ele>1541.80</ele>
	<time>2025-08-16T06:43:28.000Z</time>
</trkpt>
<trkpt lat="45.9740270" lon="10.2025130">
	<ele>1541.80</ele>
	<time>2025-08-16T06:43:29.000Z</time>
</trkpt>
<trkpt lat="45.9740270" lon="10.2025120">
	<ele>1542.00</ele>
	<time>2025-08-16T06:43:30.000Z</time>
</trkpt>
<trkpt lat="45.9740250" lon="10.2025100">
	<ele>1542.00</ele>
	<time>2025-08-16T06:43:31.000Z</time>
</trkpt>
<trkpt lat="45.9740240" lon="10.2025090">
	<ele>1542.20</ele>
	<time>2025-08-16T06:43:32.000Z</time>
</trkpt>
<trkpt lat="45.9740240" lon="10.2025080">
	<ele>1542.40</ele>
	<time>2025-08-16T06:43:33.000Z</time>
</trkpt>
<trkpt lat="45.9740230" lon="10.2025070">
	<ele>1542.40</ele>
	<time>2025-08-16T06:43:34.000Z</time>
</trkpt>
<trkpt lat="45.9740230" lon="10.2025070">
	<ele>1542.40</ele>
	<time>2025-08-16T06:43:35.000Z</time>
</trkpt>
<trkpt lat="45.9740230" lon="10.2025070">
	<ele>1542.60</ele>
	<time>2025-08-16T06:43:36.000Z</time>
</trkpt>
<trkpt lat="45.9740230" lon="10.2025070">
	<ele>1542.60</ele>
	<time>2025-08-16T06:43:37.000Z</time>
</trkpt>
<trkpt lat="45.9740230" lon="10.2025070">
	<ele>1542.40</ele>
	<time>2025-08-16T06:43:38.000Z</time>
</trkpt>
<trkpt lat="45.9740230" lon="10.2025070">
	<ele>1542.40</ele>
	<time>2025-08-16T06:43:39.000Z</time>
</trkpt>
<trkpt lat="45.9740230" lon="10.2025070">
	<ele>1542.40</ele>
	<time>2025-08-16T06:43:40.000Z</time>
</trkpt>
<trkpt lat="45.9740230" lon="10.2025070">
	<ele>1542.40</ele>
	<time>2025-08-16T06:43:41.000Z</time>
</trkpt>
<trkpt lat="45.9740230" lon="10.2025070">
	<ele>1542.40</ele>
	<time>2025-08-16T06:43:42.000Z</time>
</trkpt>
<trkpt lat="45.9740240" lon="10.2025120">
	<ele>1542.40</ele>
	<time>2025-08-16T06:43:43.000Z</time>
</trkpt>
<trkpt lat="45.9740320" lon="10.2025280">
	<ele>1542.60</ele>
	<time>2025-08-16T06:43:44.000Z</time>
</trkpt>
<trkpt lat="45.9740370" lon="10.2025440">
	<ele>1542.60</ele>
	<time>2025-08-16T06:43:45.000Z</time>
</trkpt>
<trkpt lat="45.9740440" lon="10.2025580">
	<ele>1542.80</ele>
	<time>2025-08-16T06:43:46.000Z</time>
</trkpt>
<trkpt lat="45.9740510" lon="10.2025700">
	<ele>1543.00</ele>
	<time>2025-08-16T06:43:47.000Z</time>
</trkpt>
<trkpt lat="45.9740600" lon="10.2025830">
	<ele>1543.20</ele>
	<time>2025-08-16T06:43:48.000Z</time>
</trkpt>
<trkpt lat="45.9740680" lon="10.2025940">
	<ele>1543.60</ele>
	<time>2025-08-16T06:43:49.000Z</time>
</trkpt>
<trkpt lat="45.9740780" lon="10.2026050">
	<ele>1543.80</ele>
	<time>2025-08-16T06:43:50.000Z</time>
</trkpt>
<trkpt lat="45.9740840" lon="10.2026200">
	<ele>1544.00</ele>
	<time>2025-08-16T06:43:51.000Z</time>
</trkpt>
<trkpt lat="45.9740870" lon="10.2026340">
	<ele>1544.00</ele>
	<time>2025-08-16T06:43:52.000Z</time>
</trkpt>
<trkpt lat="45.9740900" lon="10.2026470">
	<ele>1544.20</ele>
	<time>2025-08-16T06:43:53.000Z</time>
</trkpt>
<trkpt lat="45.9740950" lon="10.2026580">
	<ele>1544.40</ele>
	<time>2025-08-16T06:43:54.000Z</time>
</trkpt>
<trkpt lat="45.9741000" lon="10.2026690">
	<ele>1544.60</ele>
	<time>2025-08-16T06:43:55.000Z</time>
</trkpt>
<trkpt lat="45.9741050" lon="10.2026760">
	<ele>1545.00</ele>
	<time>2025-08-16T06:43:56.000Z</time>
</trkpt>
<trkpt lat="45.9741120" lon="10.2026860">
	<ele>1545.20</ele>
	<time>2025-08-16T06:43:57.000Z</time>
</trkpt>
<trkpt lat="45.9741170" lon="10.2026920">
	<ele>1545.40</ele>
	<time>2025-08-16T06:43:58.000Z</time>
</trkpt>
<trkpt lat="45.9741210" lon="10.2027030">
	<ele>1545.60</ele>
	<time>2025-08-16T06:43:59.000Z</time>
</trkpt>
<trkpt lat="45.9741270" lon="10.2027100">
	<ele>1545.80</ele>
	<time>2025-08-16T06:44:00.000Z</time>
</trkpt>
<trkpt lat="45.9741320" lon="10.2027200">
	<ele>1546.00</ele>
	<time>2025-08-16T06:44:01.000Z</time>
</trkpt>
<trkpt lat="45.9741390" lon="10.2027290">
	<ele>1546.00</ele>
	<time>2025-08-16T06:44:02.000Z</time>
</trkpt>
<trkpt lat="45.9741450" lon="10.2027380">
	<ele>1546.20</ele>
	<time>2025-08-16T06:44:03.000Z</time>
</trkpt>
<trkpt lat="45.9741530" lon="10.2027480">
	<ele>1546.40</ele>
	<time>2025-08-16T06:44:04.000Z</time>
</trkpt>
<trkpt lat="45.9741600" lon="10.2027530">
	<ele>1546.60</ele>
	<time>2025-08-16T06:44:05.000Z</time>
</trkpt>
<trkpt lat="45.9741640" lon="10.2027640">
	<ele>1546.80</ele>
	<time>2025-08-16T06:44:06.000Z</time>
</trkpt>
<trkpt lat="45.9741690" lon="10.2027750">
	<ele>1547.20</ele>
	<time>2025-08-16T06:44:07.000Z</time>
</trkpt>
<trkpt lat="45.9741730" lon="10.2027840">
	<ele>1547.20</ele>
	<time>2025-08-16T06:44:08.000Z</time>
</trkpt>
<trkpt lat="45.9741770" lon="10.2027910">
	<ele>1547.40</ele>
	<time>2025-08-16T06:44:09.000Z</time>
</trkpt>
<trkpt lat="45.9741780" lon="10.2028000">
	<ele>1547.60</ele>
	<time>2025-08-16T06:44:10.000Z</time>
</trkpt>
<trkpt lat="45.9741810" lon="10.2028130">
	<ele>1547.80</ele>
	<time>2025-08-16T06:44:11.000Z</time>
</trkpt>
<trkpt lat="45.9741860" lon="10.2028210">
	<ele>1548.00</ele>
	<time>2025-08-16T06:44:12.000Z</time>
</trkpt>
<trkpt lat="45.9741920" lon="10.2028300">
	<ele>1548.20</ele>
	<time>2025-08-16T06:44:13.000Z</time>
</trkpt>
<trkpt lat="45.9741980" lon="10.2028350">
	<ele>1548.20</ele>
	<time>2025-08-16T06:44:14.000Z</time>
</trkpt>
<trkpt lat="45.9742020" lon="10.2028430">
	<ele>1548.40</ele>
	<time>2025-08-16T06:44:15.000Z</time>
</trkpt>
<trkpt lat="45.9742090" lon="10.2028500">
	<ele>1548.60</ele>
	<time>2025-08-16T06:44:16.000Z</time>
</trkpt>
<trkpt lat="45.9742120" lon="10.2028590">
	<ele>1548.80</ele>
	<time>2025-08-16T06:44:17.000Z</time>
</trkpt>
<trkpt lat="45.9742160" lon="10.2028680">
	<ele>1549.00</ele>
	<time>2025-08-16T06:44:18.000Z</time>
</trkpt>
<trkpt lat="45.9742180" lon="10.2028770">
	<ele>1549.20</ele>
	<time>2025-08-16T06:44:19.000Z</time>
</trkpt>
<trkpt lat="45.9742230" lon="10.2028890">
	<ele>1549.40</ele>
	<time>2025-08-16T06:44:20.000Z</time>
</trkpt>
<trkpt lat="45.9742320" lon="10.2029000">
	<ele>1549.40</ele>
	<time>2025-08-16T06:44:21.000Z</time>
</trkpt>
<trkpt lat="45.9742360" lon="10.2029050">
	<ele>1549.60</ele>
	<time>2025-08-16T06:44:22.000Z</time>
</trkpt>
<trkpt lat="45.9742420" lon="10.2029130">
	<ele>1549.80</ele>
	<time>2025-08-16T06:44:23.000Z</time>
</trkpt>
<trkpt lat="45.9742460" lon="10.2029220">
	<ele>1550.00</ele>
	<time>2025-08-16T06:44:24.000Z</time>
</trkpt>
<trkpt lat="45.9742500" lon="10.2029330">
	<ele>1550.20</ele>
	<time>2025-08-16T06:44:25.000Z</time>
</trkpt>
<trkpt lat="45.9742530" lon="10.2029440">
	<ele>1550.20</ele>
	<time>2025-08-16T06:44:26.000Z</time>
</trkpt>
<trkpt lat="45.9742550" lon="10.2029540">
	<ele>1550.40</ele>
	<time>2025-08-16T06:44:27.000Z</time>
</trkpt>
<trkpt lat="45.9742590" lon="10.2029630">
	<ele>1550.60</ele>
	<time>2025-08-16T06:44:28.000Z</time>
</trkpt>
<trkpt lat="45.9742640" lon="10.2029710">
	<ele>1550.60</ele>
	<time>2025-08-16T06:44:29.000Z</time>
</trkpt>
<trkpt lat="45.9742690" lon="10.2029750">
	<ele>1551.00</ele>
	<time>2025-08-16T06:44:30.000Z</time>
</trkpt>
<trkpt lat="45.9742730" lon="10.2029810">
	<ele>1551.00</ele>
	<time>2025-08-16T06:44:31.000Z</time>
</trkpt>
<trkpt lat="45.9742770" lon="10.2029870">
	<ele>1551.20</ele>
	<time>2025-08-16T06:44:32.000Z</time>
</trkpt>
<trkpt lat="45.9742800" lon="10.2029960">
	<ele>1551.40</ele>
	<time>2025-08-16T06:44:33.000Z</time>
</trkpt>
<trkpt lat="45.9742860" lon="10.2030120">
	<ele>1551.60</ele>
	<time>2025-08-16T06:44:34.000Z</time>
</trkpt>
<trkpt lat="45.9742900" lon="10.2030260">
	<ele>1551.60</ele>
	<time>2025-08-16T06:44:35.000Z</time>
</trkpt>
<trkpt lat="45.9742960" lon="10.2030360">
	<ele>1551.80</ele>
	<time>2025-08-16T06:44:36.000Z</time>
</trkpt>
<trkpt lat="45.9743010" lon="10.2030440">
	<ele>1552.00</ele>
	<time>2025-08-16T06:44:37.000Z</time>
</trkpt>
<trkpt lat="45.9743050" lon="10.2030540">
	<ele>1552.20</ele>
	<time>2025-08-16T06:44:38.000Z</time>
</trkpt>
<trkpt lat="45.9743090" lon="10.2030610">
	<ele>1552.40</ele>
	<time>2025-08-16T06:44:39.000Z</time>
</trkpt>
<trkpt lat="45.9743110" lon="10.2030660">
	<ele>1552.60</ele>
	<time>2025-08-16T06:44:40.000Z</time>
</trkpt>
<trkpt lat="45.9743080" lon="10.2030660">
	<ele>1552.60</ele>
	<time>2025-08-16T06:44:41.000Z</time>
</trkpt>
<trkpt lat="45.9743050" lon="10.2030670">
	<ele>1552.80</ele>
	<time>2025-08-16T06:44:42.000Z</time>
</trkpt>
<trkpt lat="45.9743030" lon="10.2030680">
	<ele>1552.80</ele>
	<time>2025-08-16T06:44:43.000Z</time>
</trkpt>
<trkpt lat="45.9743100" lon="10.2030710">
	<ele>1553.00</ele>
	<time>2025-08-16T06:44:44.000Z</time>
</trkpt>
<trkpt lat="45.9743150" lon="10.2030770">
	<ele>1553.20</ele>
	<time>2025-08-16T06:44:45.000Z</time>
</trkpt>
<trkpt lat="45.9743150" lon="10.2030820">
	<ele>1553.40</ele>
	<time>2025-08-16T06:44:46.000Z</time>
</trkpt>
<trkpt lat="45.9743180" lon="10.2030880">
	<ele>1553.60</ele>
	<time>2025-08-16T06:44:47.000Z</time>
</trkpt>
<trkpt lat="45.9743230" lon="10.2031040">
	<ele>1553.60</ele>
	<time>2025-08-16T06:44:48.000Z</time>
</trkpt>
<trkpt lat="45.9743330" lon="10.2031130">
	<ele>1553.60</ele>
	<time>2025-08-16T06:44:49.000Z</time>
</trkpt>
<trkpt lat="45.9743410" lon="10.2031290">
	<ele>1553.60</ele>
	<time>2025-08-16T06:44:50.000Z</time>
</trkpt>
<trkpt lat="45.9743500" lon="10.2031420">
	<ele>1553.80</ele>
	<time>2025-08-16T06:44:51.000Z</time>
</trkpt>
<trkpt lat="45.9743580" lon="10.2031480">
	<ele>1554.00</ele>
	<time>2025-08-16T06:44:52.000Z</time>
</trkpt>
<trkpt lat="45.9743640" lon="10.2031500">
	<ele>1554.00</ele>
	<time>2025-08-16T06:44:53.000Z</time>
</trkpt>
<trkpt lat="45.9743700" lon="10.2031470">
	<ele>1554.20</ele>
	<time>2025-08-16T06:44:54.000Z</time>
</trkpt>
<trkpt lat="45.9743740" lon="10.2031470">
	<ele>1554.40</ele>
	<time>2025-08-16T06:44:55.000Z</time>
</trkpt>
<trkpt lat="45.9743760" lon="10.2031380">
	<ele>1554.40</ele>
	<time>2025-08-16T06:44:56.000Z</time>
</trkpt>
<trkpt lat="45.9743780" lon="10.2031320">
	<ele>1554.60</ele>
	<time>2025-08-16T06:44:57.000Z</time>
</trkpt>
<trkpt lat="45.9743830" lon="10.2031250">
	<ele>1554.80</ele>
	<time>2025-08-16T06:44:58.000Z</time>
</trkpt>
<trkpt lat="45.9743870" lon="10.2031130">
	<ele>1555.00</ele>
	<time>2025-08-16T06:44:59.000Z</time>
</trkpt>
<trkpt lat="45.9743860" lon="10.2031030">
	<ele>1555.20</ele>
	<time>2025-08-16T06:45:00.000Z</time>
</trkpt>
<trkpt lat="45.9743860" lon="10.2030920">
	<ele>1555.40</ele>
	<time>2025-08-16T06:45:01.000Z</time>
</trkpt>
<trkpt lat="45.9743870" lon="10.2030830">
	<ele>1555.60</ele>
	<time>2025-08-16T06:45:02.000Z</time>
</trkpt>
<trkpt lat="45.9743910" lon="10.2030750">
	<ele>1555.80</ele>
	<time>2025-08-16T06:45:03.000Z</time>
</trkpt>
<trkpt lat="45.9743930" lon="10.2030600">
	<ele>1556.00</ele>
	<time>2025-08-16T06:45:04.000Z</time>
</trkpt>
<trkpt lat="45.9743910" lon="10.2030480">
	<ele>1556.20</ele>
	<time>2025-08-16T06:45:05.000Z</time>
</trkpt>
<trkpt lat="45.9743930" lon="10.2030330">
	<ele>1556.40</ele>
	<time>2025-08-16T06:45:06.000Z</time>
</trkpt>
<trkpt lat="45.9743940" lon="10.2030220">
	<ele>1556.60</ele>
	<time>2025-08-16T06:45:07.000Z</time>
</trkpt>
<trkpt lat="45.9743950" lon="10.2030140">
	<ele>1556.80</ele>
	<time>2025-08-16T06:45:08.000Z</time>
</trkpt>
<trkpt lat="45.9743990" lon="10.2030090">
	<ele>1557.00</ele>
	<time>2025-08-16T06:45:09.000Z</time>
</trkpt>
<trkpt lat="45.9743990" lon="10.2030020">
	<ele>1557.20</ele>
	<time>2025-08-16T06:45:10.000Z</time>
</trkpt>
<trkpt lat="45.9743980" lon="10.2029910">
	<ele>1557.40</ele>
	<time>2025-08-16T06:45:11.000Z</time>
</trkpt>
<trkpt lat="45.9743960" lon="10.2029750">
	<ele>1557.60</ele>
	<time>2025-08-16T06:45:12.000Z</time>
</trkpt>
<trkpt lat="45.9743990" lon="10.2029610">
	<ele>1557.60</ele>
	<time>2025-08-16T06:45:13.000Z</time>
</trkpt>
<trkpt lat="45.9744010" lon="10.2029480">
	<ele>1557.80</ele>
	<time>2025-08-16T06:45:14.000Z</time>
</trkpt>
<trkpt lat="45.9744050" lon="10.2029380">
	<ele>1557.80</ele>
	<time>2025-08-16T06:45:15.000Z</time>
</trkpt>
<trkpt lat="45.9744080" lon="10.2029280">
	<ele>1558.00</ele>
	<time>2025-08-16T06:45:16.000Z</time>
</trkpt>
<trkpt lat="45.9744110" lon="10.2029200">
	<ele>1558.40</ele>
	<time>2025-08-16T06:45:17.000Z</time>
</trkpt>
<trkpt lat="45.9744110" lon="10.2029120">
	<ele>1558.60</ele>
	<time>2025-08-16T06:45:18.000Z</time>
</trkpt>
<trkpt lat="45.9744110" lon="10.2029000">
	<ele>1558.80</ele>
	<time>2025-08-16T06:45:19.000Z</time>
</trkpt>
<trkpt lat="45.9744140" lon="10.2028880">
	<ele>1558.80</ele>
	<time>2025-08-16T06:45:20.000Z</time>
</trkpt>
<trkpt lat="45.9744170" lon="10.2028770">
	<ele>1559.00</ele>
	<time>2025-08-16T06:45:21.000Z</time>
</trkpt>
<trkpt lat="45.9744170" lon="10.2028620">
	<ele>1559.20</ele>
	<time>2025-08-16T06:45:22.000Z</time>
</trkpt>
<trkpt lat="45.9744160" lon="10.2028480">
	<ele>1559.20</ele>
	<time>2025-08-16T06:45:23.000Z</time>
</trkpt>
<trkpt lat="45.9744150" lon="10.2028360">
	<ele>1559.40</ele>
	<time>2025-08-16T06:45:24.000Z</time>
</trkpt>
<trkpt lat="45.9744160" lon="10.2028200">
	<ele>1559.60</ele>
	<time>2025-08-16T06:45:25.000Z</time>
</trkpt>
<trkpt lat="45.9744190" lon="10.2028030">
	<ele>1559.60</ele>
	<time>2025-08-16T06:45:26.000Z</time>
</trkpt>
<trkpt lat="45.9744160" lon="10.2027840">
	<ele>1559.80</ele>
	<time>2025-08-16T06:45:27.000Z</time>
</trkpt>
<trkpt lat="45.9744090" lon="10.2027680">
	<ele>1560.20</ele>
	<time>2025-08-16T06:45:28.000Z</time>
</trkpt>
<trkpt lat="45.9744080" lon="10.2027520">
	<ele>1560.20</ele>
	<time>2025-08-16T06:45:29.000Z</time>
</trkpt>
<trkpt lat="45.9744100" lon="10.2027380">
	<ele>1560.40</ele>
	<time>2025-08-16T06:45:30.000Z</time>
</trkpt>
<trkpt lat="45.9744130" lon="10.2027310">
	<ele>1560.60</ele>
	<time>2025-08-16T06:45:31.000Z</time>
</trkpt>
<trkpt lat="45.9744140" lon="10.2027190">
	<ele>1560.60</ele>
	<time>2025-08-16T06:45:32.000Z</time>
</trkpt>
<trkpt lat="45.9744190" lon="10.2027070">
	<ele>1560.80</ele>
	<time>2025-08-16T06:45:33.000Z</time>
</trkpt>
<trkpt lat="45.9744210" lon="10.2026930">
	<ele>1561.00</ele>
	<time>2025-08-16T06:45:34.000Z</time>
</trkpt>
<trkpt lat="45.9744320" lon="10.2026760">
	<ele>1561.20</ele>
	<time>2025-08-16T06:45:35.000Z</time>
</trkpt>
<trkpt lat="45.9744350" lon="10.2026730">
	<ele>1561.40</ele>
	<time>2025-08-16T06:45:36.000Z</time>
</trkpt>
<trkpt lat="45.9744380" lon="10.2026780">
	<ele>1561.60</ele>
	<time>2025-08-16T06:45:37.000Z</time>
</trkpt>
<trkpt lat="45.9744390" lon="10.2026930">
	<ele>1561.60</ele>
	<time>2025-08-16T06:45:38.000Z</time>
</trkpt>
<trkpt lat="45.9744390" lon="10.2026900">
	<ele>1562.00</ele>
	<time>2025-08-16T06:45:39.000Z</time>
</trkpt>
<trkpt lat="45.9744460" lon="10.2026970">
	<ele>1562.20</ele>
	<time>2025-08-16T06:45:40.000Z</time>
</trkpt>
<trkpt lat="45.9744580" lon="10.2027000">
	<ele>1562.40</ele>
	<time>2025-08-16T06:45:41.000Z</time>
</trkpt>
<trkpt lat="45.9744680" lon="10.2027010">
	<ele>1562.60</ele>
	<time>2025-08-16T06:45:42.000Z</time>
</trkpt>
<trkpt lat="45.9744720" lon="10.2027090">
	<ele>1562.80</ele>
	<time>2025-08-16T06:45:43.000Z</time>
</trkpt>
<trkpt lat="45.9744770" lon="10.2027150">
	<ele>1563.20</ele>
	<time>2025-08-16T06:45:44.000Z</time>
</trkpt>
<trkpt lat="45.9744820" lon="10.2027190">
	<ele>1563.40</ele>
	<time>2025-08-16T06:45:45.000Z</time>
</trkpt>
<trkpt lat="45.9744880" lon="10.2027250">
	<ele>1563.60</ele>
	<time>2025-08-16T06:45:46.000Z</time>
</trkpt>
<trkpt lat="45.9744940" lon="10.2027310">
	<ele>1563.80</ele>
	<time>2025-08-16T06:45:47.000Z</time>
</trkpt>
<trkpt lat="45.9744970" lon="10.2027420">
	<ele>1564.00</ele>
	<time>2025-08-16T06:45:48.000Z</time>
</trkpt>
<trkpt lat="45.9744990" lon="10.2027490">
	<ele>1564.20</ele>
	<time>2025-08-16T06:45:49.000Z</time>
</trkpt>
<trkpt lat="45.9745050" lon="10.2027540">
	<ele>1564.40</ele>
	<time>2025-08-16T06:45:50.000Z</time>
</trkpt>
<trkpt lat="45.9745120" lon="10.2027570">
	<ele>1564.60</ele>
	<time>2025-08-16T06:45:51.000Z</time>
</trkpt>
<trkpt lat="45.9745170" lon="10.2027610">
	<ele>1564.80</ele>
	<time>2025-08-16T06:45:52.000Z</time>
</trkpt>
<trkpt lat="45.9745230" lon="10.2027650">
	<ele>1565.00</ele>
	<time>2025-08-16T06:45:53.000Z</time>
</trkpt>
<trkpt lat="45.9745320" lon="10.2027670">
	<ele>1565.20</ele>
	<time>2025-08-16T06:45:54.000Z</time>
</trkpt>
<trkpt lat="45.9745380" lon="10.2027700">
	<ele>1565.20</ele>
	<time>2025-08-16T06:45:55.000Z</time>
</trkpt>
<trkpt lat="45.9745460" lon="10.2027710">
	<ele>1565.60</ele>
	<time>2025-08-16T06:45:56.000Z</time>
</trkpt>
<trkpt lat="45.9745540" lon="10.2027750">
	<ele>1565.80</ele>
	<time>2025-08-16T06:45:57.000Z</time>
</trkpt>
<trkpt lat="45.9745590" lon="10.2027780">
	<ele>1566.00</ele>
	<time>2025-08-16T06:45:58.000Z</time>
</trkpt>
<trkpt lat="45.9745660" lon="10.2027880">
	<ele>1566.20</ele>
	<time>2025-08-16T06:45:59.000Z</time>
</trkpt>
<trkpt lat="45.9745660" lon="10.2027970">
	<ele>1566.40</ele>
	<time>2025-08-16T06:46:00.000Z</time>
</trkpt>
<trkpt lat="45.9745680" lon="10.2028040">
	<ele>1566.60</ele>
	<time>2025-08-16T06:46:01.000Z</time>
</trkpt>
<trkpt lat="45.9745720" lon="10.2028090">
	<ele>1566.80</ele>
	<time>2025-08-16T06:46:02.000Z</time>
</trkpt>
<trkpt lat="45.9745760" lon="10.2028120">
	<ele>1567.00</ele>
	<time>2025-08-16T06:46:03.000Z</time>
</trkpt>
<trkpt lat="45.9745820" lon="10.2028120">
	<ele>1567.20</ele>
	<time>2025-08-16T06:46:04.000Z</time>
</trkpt>
<trkpt lat="45.9745880" lon="10.2028130">
	<ele>1567.40</ele>
	<time>2025-08-16T06:46:05.000Z</time>
</trkpt>
<trkpt lat="45.9745920" lon="10.2028150">
	<ele>1567.60</ele>
	<time>2025-08-16T06:46:06.000Z</time>
</trkpt>
<trkpt lat="45.9745970" lon="10.2028180">
	<ele>1567.80</ele>
	<time>2025-08-16T06:46:07.000Z</time>
</trkpt>
<trkpt lat="45.9746000" lon="10.2028220">
	<ele>1568.20</ele>
	<time>2025-08-16T06:46:08.000Z</time>
</trkpt>
<trkpt lat="45.9746040" lon="10.2028270">
	<ele>1568.40</ele>
	<time>2025-08-16T06:46:09.000Z</time>
</trkpt>
<trkpt lat="45.9746060" lon="10.2028330">
	<ele>1568.60</ele>
	<time>2025-08-16T06:46:10.000Z</time>
</trkpt>
<trkpt lat="45.9746100" lon="10.2028390">
	<ele>1568.80</ele>
	<time>2025-08-16T06:46:11.000Z</time>
</trkpt>
<trkpt lat="45.9746170" lon="10.2028480">
	<ele>1569.00</ele>
	<time>2025-08-16T06:46:12.000Z</time>
</trkpt>
<trkpt lat="45.9746220" lon="10.2028540">
	<ele>1569.40</ele>
	<time>2025-08-16T06:46:13.000Z</time>
</trkpt>
<trkpt lat="45.9746250" lon="10.2028560">
	<ele>1569.60</ele>
	<time>2025-08-16T06:46:14.000Z</time>
</trkpt>
<trkpt lat="45.9746300" lon="10.2028600">
	<ele>1569.80</ele>
	<time>2025-08-16T06:46:15.000Z</time>
</trkpt>
<trkpt lat="45.9746390" lon="10.2028630">
	<ele>1570.00</ele>
	<time>2025-08-16T06:46:16.000Z</time>
</trkpt>
<trkpt lat="45.9746450" lon="10.2028640">
	<ele>1570.20</ele>
	<time>2025-08-16T06:46:17.000Z</time>
</trkpt>
<trkpt lat="45.9746540" lon="10.2028670">
	<ele>1570.20</ele>
	<time>2025-08-16T06:46:18.000Z</time>
</trkpt>
<trkpt lat="45.9746590" lon="10.2028730">
	<ele>1570.40</ele>
	<time>2025-08-16T06:46:19.000Z</time>
</trkpt>
<trkpt lat="45.9746620" lon="10.2028840">
	<ele>1570.40</ele>
	<time>2025-08-16T06:46:20.000Z</time>
</trkpt>
<trkpt lat="45.9746660" lon="10.2028940">
	<ele>1570.60</ele>
	<time>2025-08-16T06:46:21.000Z</time>
</trkpt>
<trkpt lat="45.9746690" lon="10.2028970">
	<ele>1570.80</ele>
	<time>2025-08-16T06:46:22.000Z</time>
</trkpt>
<trkpt lat="45.9746750" lon="10.2029000">
	<ele>1571.20</ele>
	<time>2025-08-16T06:46:23.000Z</time>
</trkpt>
<trkpt lat="45.9746850" lon="10.2029040">
	<ele>1571.40</ele>
	<time>2025-08-16T06:46:24.000Z</time>
</trkpt>
<trkpt lat="45.9746960" lon="10.2029070">
	<ele>1571.40</ele>
	<time>2025-08-16T06:46:25.000Z</time>
</trkpt>
<trkpt lat="45.9747030" lon="10.2029130">
	<ele>1571.60</ele>
	<time>2025-08-16T06:46:26.000Z</time>
</trkpt>
<trkpt lat="45.9747090" lon="10.2029270">
	<ele>1571.80</ele>
	<time>2025-08-16T06:46:27.000Z</time>
</trkpt>
<trkpt lat="45.9747160" lon="10.2029340">
	<ele>1572.00</ele>
	<time>2025-08-16T06:46:28.000Z</time>
</trkpt>
<trkpt lat="45.9747210" lon="10.2029380">
	<ele>1572.20</ele>
	<time>2025-08-16T06:46:29.000Z</time>
</trkpt>
<trkpt lat="45.9747250" lon="10.2029410">
	<ele>1572.40</ele>
	<time>2025-08-16T06:46:30.000Z</time>
</trkpt>
<trkpt lat="45.9747290" lon="10.2029420">
	<ele>1572.60</ele>
	<time>2025-08-16T06:46:31.000Z</time>
</trkpt>
<trkpt lat="45.9747320" lon="10.2029450">
	<ele>1572.80</ele>
	<time>2025-08-16T06:46:32.000Z</time>
</trkpt>
<trkpt lat="45.9747350" lon="10.2029490">
	<ele>1572.80</ele>
	<time>2025-08-16T06:46:33.000Z</time>
</trkpt>
<trkpt lat="45.9747390" lon="10.2029540">
	<ele>1573.20</ele>
	<time>2025-08-16T06:46:34.000Z</time>
</trkpt>
<trkpt lat="45.9747460" lon="10.2029570">
	<ele>1573.40</ele>
	<time>2025-08-16T06:46:35.000Z</time>
</trkpt>
<trkpt lat="45.9747520" lon="10.2029580">
	<ele>1573.60</ele>
	<time>2025-08-16T06:46:36.000Z</time>
</trkpt>
<trkpt lat="45.9747540" lon="10.2029640">
	<ele>1573.80</ele>
	<time>2025-08-16T06:46:37.000Z</time>
</trkpt>
<trkpt lat="45.9747590" lon="10.2029700">
	<ele>1573.80</ele>
	<time>2025-08-16T06:46:38.000Z</time>
</trkpt>
<trkpt lat="45.9747630" lon="10.2029750">
	<ele>1574.00</ele>
	<time>2025-08-16T06:46:39.000Z</time>
</trkpt>
<trkpt lat="45.9747680" lon="10.2029780">
	<ele>1574.20</ele>
	<time>2025-08-16T06:46:40.000Z</time>
</trkpt>
<trkpt lat="45.9747740" lon="10.2029760">
	<ele>1574.40</ele>
	<time>2025-08-16T06:46:41.000Z</time>
</trkpt>
<trkpt lat="45.9747840" lon="10.2029710">
	<ele>1574.40</ele>
	<time>2025-08-16T06:46:42.000Z</time>
</trkpt>
<trkpt lat="45.9747920" lon="10.2029720">
	<ele>1574.80</ele>
	<time>2025-08-16T06:46:43.000Z</time>
</trkpt>
<trkpt lat="45.9747960" lon="10.2029740">
	<ele>1575.00</ele>
	<time>2025-08-16T06:46:44.000Z</time>
</trkpt>
<trkpt lat="45.9748020" lon="10.2029750">
	<ele>1575.20</ele>
	<time>2025-08-16T06:46:45.000Z</time>
</trkpt>
<trkpt lat="45.9748040" lon="10.2029800">
	<ele>1575.40</ele>
	<time>2025-08-16T06:46:46.000Z</time>
</trkpt>
<trkpt lat="45.9748070" lon="10.2029840">
	<ele>1575.60</ele>
	<time>2025-08-16T06:46:47.000Z</time>
</trkpt>
<trkpt lat="45.9748140" lon="10.2029850">
	<ele>1575.80</ele>
	<time>2025-08-16T06:46:48.000Z</time>
</trkpt>
<trkpt lat="45.9748230" lon="10.2029820">
	<ele>1576.00</ele>
	<time>2025-08-16T06:46:49.000Z</time>
</trkpt>
<trkpt lat="45.9748310" lon="10.2029860">
	<ele>1576.00</ele>
	<time>2025-08-16T06:46:50.000Z</time>
</trkpt>
<trkpt lat="45.9748320" lon="10.2029960">
	<ele>1576.20</ele>
	<time>2025-08-16T06:46:51.000Z</time>
</trkpt>
<trkpt lat="45.9748390" lon="10.2030020">
	<ele>1576.40</ele>
	<time>2025-08-16T06:46:52.000Z</time>
</trkpt>
<trkpt lat="45.9748430" lon="10.2030060">
	<ele>1576.60</ele>
	<time>2025-08-16T06:46:53.000Z</time>
</trkpt>
<trkpt lat="45.9748520" lon="10.2030090">
	<ele>1577.00</ele>
	<time>2025-08-16T06:46:54.000Z</time>
</trkpt>
<trkpt lat="45.9748610" lon="10.2030130">
	<ele>1577.40</ele>
	<time>2025-08-16T06:46:55.000Z</time>
</trkpt>
<trkpt lat="45.9748720" lon="10.2030130">
	<ele>1577.80</ele>
	<time>2025-08-16T06:46:56.000Z</time>
</trkpt>
<trkpt lat="45.9748780" lon="10.2030150">
	<ele>1578.00</ele>
	<time>2025-08-16T06:46:57.000Z</time>
</trkpt>
<trkpt lat="45.9748840" lon="10.2030200">
	<ele>1578.00</ele>
	<time>2025-08-16T06:46:58.000Z</time>
</trkpt>
<trkpt lat="45.9748880" lon="10.2030230">
	<ele>1578.20</ele>
	<time>2025-08-16T06:46:59.000Z</time>
</trkpt>
<trkpt lat="45.9748920" lon="10.2030290">
	<ele>1578.40</ele>
	<time>2025-08-16T06:47:00.000Z</time>
</trkpt>
<trkpt lat="45.9748940" lon="10.2030300">
	<ele>1578.60</ele>
	<time>2025-08-16T06:47:01.000Z</time>
</trkpt>
<trkpt lat="45.9748940" lon="10.2030230">
	<ele>1578.80</ele>
	<time>2025-08-16T06:47:02.000Z</time>
</trkpt>
<trkpt lat="45.9748900" lon="10.2030230">
	<ele>1578.80</ele>
	<time>2025-08-16T06:47:03.000Z</time>
</trkpt>
<trkpt lat="45.9748910" lon="10.2030270">
	<ele>1579.20</ele>
	<time>2025-08-16T06:47:04.000Z</time>
</trkpt>
<trkpt lat="45.9749000" lon="10.2030380">
	<ele>1579.40</ele>
	<time>2025-08-16T06:47:05.000Z</time>
</trkpt>
<trkpt lat="45.9749110" lon="10.2030400">
	<ele>1579.60</ele>
	<time>2025-08-16T06:47:06.000Z</time>
</trkpt>
<trkpt lat="45.9749200" lon="10.2030480">
	<ele>1579.80</ele>
	<time>2025-08-16T06:47:07.000Z</time>
</trkpt>
<trkpt lat="45.9749350" lon="10.2030550">
	<ele>1580.00</ele>
	<time>2025-08-16T06:47:08.000Z</time>
</trkpt>
<trkpt lat="45.9749400" lon="10.2030550">
	<ele>1580.20</ele>
	<time>2025-08-16T06:47:09.000Z</time>
</trkpt>
<trkpt lat="45.9749410" lon="10.2030560">
	<ele>1580.40</ele>
	<time>2025-08-16T06:47:10.000Z</time>
</trkpt>
<trkpt lat="45.9749510" lon="10.2030590">
	<ele>1580.60</ele>
	<time>2025-08-16T06:47:11.000Z</time>
</trkpt>
<trkpt lat="45.9749570" lon="10.2030600">
	<ele>1580.80</ele>
	<time>2025-08-16T06:47:12.000Z</time>
</trkpt>
<trkpt lat="45.9749630" lon="10.2030650">
	<ele>1581.00</ele>
	<time>2025-08-16T06:47:13.000Z</time>
</trkpt>
<trkpt lat="45.9749680" lon="10.2030690">
	<ele>1581.00</ele>
	<time>2025-08-16T06:47:14.000Z</time>
</trkpt>
<trkpt lat="45.9749730" lon="10.2030700">
	<ele>1581.20</ele>
	<time>2025-08-16T06:47:15.000Z</time>
</trkpt>
<trkpt lat="45.9749780" lon="10.2030700">
	<ele>1581.40</ele>
	<time>2025-08-16T06:47:16.000Z</time>
</trkpt>
<trkpt lat="45.9749830" lon="10.2030710">
	<ele>1581.40</ele>
	<time>2025-08-16T06:47:17.000Z</time>
</trkpt>
<trkpt lat="45.9749890" lon="10.2030720">
	<ele>1581.80</ele>
	<time>2025-08-16T06:47:18.000Z</time>
</trkpt>
<trkpt lat="45.9749940" lon="10.2030740">
	<ele>1582.00</ele>
	<time>2025-08-16T06:47:19.000Z</time>
</trkpt>
<trkpt lat="45.9749990" lon="10.2030730">
	<ele>1582.00</ele>
	<time>2025-08-16T06:47:20.000Z</time>
</trkpt>
<trkpt lat="45.9750050" lon="10.2030710">
	<ele>1582.20</ele>
	<time>2025-08-16T06:47:21.000Z</time>
</trkpt>
<trkpt lat="45.9750120" lon="10.2030730">
	<ele>1582.40</ele>
	<time>2025-08-16T06:47:22.000Z</time>
</trkpt>
<trkpt lat="45.9750150" lon="10.2030740">
	<ele>1582.60</ele>
	<time>2025-08-16T06:47:23.000Z</time>
</trkpt>
<trkpt lat="45.9750180" lon="10.2030770">
	<ele>1583.00</ele>
	<time>2025-08-16T06:47:24.000Z</time>
</trkpt>
<trkpt lat="45.9750220" lon="10.2030830">
	<ele>1583.20</ele>
	<time>2025-08-16T06:47:25.000Z</time>
</trkpt>
<trkpt lat="45.9750270" lon="10.2030830">
	<ele>1583.20</ele>
	<time>2025-08-16T06:47:26.000Z</time>
</trkpt>
<trkpt lat="45.9750330" lon="10.2030790">
	<ele>1583.60</ele>
	<time>2025-08-16T06:47:27.000Z</time>
</trkpt>
<trkpt lat="45.9750390" lon="10.2030810">
	<ele>1583.80</ele>
	<time>2025-08-16T06:47:28.000Z</time>
</trkpt>
<trkpt lat="45.9750460" lon="10.2030870">
	<ele>1584.00</ele>
	<time>2025-08-16T06:47:29.000Z</time>
</trkpt>
<trkpt lat="45.9750540" lon="10.2030940">
	<ele>1584.20</ele>
	<time>2025-08-16T06:47:30.000Z</time>
</trkpt>
<trkpt lat="45.9750590" lon="10.2030970">
	<ele>1584.40</ele>
	<time>2025-08-16T06:47:31.000Z</time>
</trkpt>
<trkpt lat="45.9750620" lon="10.2030970">
	<ele>1584.80</ele>
	<time>2025-08-16T06:47:32.000Z</time>
</trkpt>
<trkpt lat="45.9750640" lon="10.2030980">
	<ele>1585.00</ele>
	<time>2025-08-16T06:47:33.000Z</time>
</trkpt>
<trkpt lat="45.9750700" lon="10.2030940">
	<ele>1585.20</ele>
	<time>2025-08-16T06:47:34.000Z</time>
</trkpt>
<trkpt lat="45.9750730" lon="10.2030920">
	<ele>1585.40</ele>
	<time>2025-08-16T06:47:35.000Z</time>
</trkpt>
<trkpt lat="45.9750750" lon="10.2030940">
	<ele>1585.60</ele>
	<time>2025-08-16T06:47:36.000Z</time>
</trkpt>
<trkpt lat="45.9750780" lon="10.2030980">
	<ele>1585.60</ele>
	<time>2025-08-16T06:47:37.000Z</time>
</trkpt>
<trkpt lat="45.9750840" lon="10.2030980">
	<ele>1585.80</ele>
	<time>2025-08-16T06:47:38.000Z</time>
</trkpt>
<trkpt lat="45.9750930" lon="10.2030980">
	<ele>1586.00</ele>
	<time>2025-08-16T06:47:39.000Z</time>
</trkpt>
<trkpt lat="45.9751040" lon="10.2030960">
	<ele>1586.40</ele>
	<time>2025-08-16T06:47:40.000Z</time>
</trkpt>
<trkpt lat="45.9751070" lon="10.2030990">
	<ele>1586.60</ele>
	<time>2025-08-16T06:47:41.000Z</time>
</trkpt>
<trkpt lat="45.9751060" lon="10.2031040">
	<ele>1586.80</ele>
	<time>2025-08-16T06:47:42.000Z</time>
</trkpt>
<trkpt lat="45.9751080" lon="10.2031080">
	<ele>1586.80</ele>
	<time>2025-08-16T06:47:43.000Z</time>
</trkpt>
<trkpt lat="45.9751140" lon="10.2031060">
	<ele>1587.20</ele>
	<time>2025-08-16T06:47:44.000Z</time>
</trkpt>
<trkpt lat="45.9751210" lon="10.2031030">
	<ele>1587.20</ele>
	<time>2025-08-16T06:47:45.000Z</time>
</trkpt>
<trkpt lat="45.9751250" lon="10.2031010">
	<ele>1587.40</ele>
	<time>2025-08-16T06:47:46.000Z</time>
</trkpt>
<trkpt lat="45.9751300" lon="10.2031000">
	<ele>1587.60</ele>
	<time>2025-08-16T06:47:47.000Z</time>
</trkpt>
<trkpt lat="45.9751350" lon="10.2031040">
	<ele>1587.60</ele>
	<time>2025-08-16T06:47:48.000Z</time>
</trkpt>
<trkpt lat="45.9751330" lon="10.2031050">
	<ele>1588.00</ele>
	<time>2025-08-16T06:47:49.000Z</time>
</trkpt>
<trkpt lat="45.9751360" lon="10.2031050">
	<ele>1588.00</ele>
	<time>2025-08-16T06:47:50.000Z</time>
</trkpt>
<trkpt lat="45.9751500" lon="10.2031030">
	<ele>1588.20</ele>
	<time>2025-08-16T06:47:51.000Z</time>
</trkpt>
<trkpt lat="45.9751690" lon="10.2031050">
	<ele>1588.20</ele>
	<time>2025-08-16T06:47:52.000Z</time>
</trkpt>
<trkpt lat="45.9751790" lon="10.2030990">
	<ele>1588.40</ele>
	<time>2025-08-16T06:47:53.000Z</time>
</trkpt>
<trkpt lat="45.9751850" lon="10.2030900">
	<ele>1588.40</ele>
	<time>2025-08-16T06:47:54.000Z</time>
</trkpt>
<trkpt lat="45.9751890" lon="10.2030870">
	<ele>1588.80</ele>
	<time>2025-08-16T06:47:55.000Z</time>
</trkpt>
<trkpt lat="45.9751900" lon="10.2030860">
	<ele>1589.20</ele>
	<time>2025-08-16T06:47:56.000Z</time>
</trkpt>
<trkpt lat="45.9751930" lon="10.2030860">
	<ele>1589.40</ele>
	<time>2025-08-16T06:47:57.000Z</time>
</trkpt>
<trkpt lat="45.9751980" lon="10.2030860">
	<ele>1589.60</ele>
	<time>2025-08-16T06:47:58.000Z</time>
</trkpt>
<trkpt lat="45.9752040" lon="10.2030830">
	<ele>1589.80</ele>
	<time>2025-08-16T06:47:59.000Z</time>
</trkpt>
<trkpt lat="45.9752110" lon="10.2030770">
	<ele>1589.80</ele>
	<time>2025-08-16T06:48:00.000Z</time>
</trkpt>
<trkpt lat="45.9752190" lon="10.2030780">
	<ele>1589.80</ele>
	<time>2025-08-16T06:48:01.000Z</time>
</trkpt>
<trkpt lat="45.9752210" lon="10.2030800">
	<ele>1590.00</ele>
	<time>2025-08-16T06:48:02.000Z</time>
</trkpt>
<trkpt lat="45.9752240" lon="10.2030810">
	<ele>1590.40</ele>
	<time>2025-08-16T06:48:03.000Z</time>
</trkpt>
<trkpt lat="45.9752280" lon="10.2030830">
	<ele>1590.60</ele>
	<time>2025-08-16T06:48:04.000Z</time>
</trkpt>
<trkpt lat="45.9752330" lon="10.2030850">
	<ele>1590.80</ele>
	<time>2025-08-16T06:48:05.000Z</time>
</trkpt>
<trkpt lat="45.9752390" lon="10.2030910">
	<ele>1591.00</ele>
	<time>2025-08-16T06:48:06.000Z</time>
</trkpt>
<trkpt lat="45.9752490" lon="10.2030970">
	<ele>1591.20</ele>
	<time>2025-08-16T06:48:07.000Z</time>
</trkpt>
<trkpt lat="45.9752550" lon="10.2031010">
	<ele>1591.40</ele>
	<time>2025-08-16T06:48:08.000Z</time>
</trkpt>
<trkpt lat="45.9752660" lon="10.2030950">
	<ele>1591.60</ele>
	<time>2025-08-16T06:48:09.000Z</time>
</trkpt>
<trkpt lat="45.9752690" lon="10.2030930">
	<ele>1591.80</ele>
	<time>2025-08-16T06:48:10.000Z</time>
</trkpt>
<trkpt lat="45.9752770" lon="10.2030890">
	<ele>1592.00</ele>
	<time>2025-08-16T06:48:11.000Z</time>
</trkpt>
<trkpt lat="45.9752800" lon="10.2030980">
	<ele>1592.20</ele>
	<time>2025-08-16T06:48:12.000Z</time>
</trkpt>
<trkpt lat="45.9752820" lon="10.2031000">
	<ele>1592.20</ele>
	<time>2025-08-16T06:48:13.000Z</time>
</trkpt>
<trkpt lat="45.9752850" lon="10.2031020">
	<ele>1592.40</ele>
	<time>2025-08-16T06:48:14.000Z</time>
</trkpt>
<trkpt lat="45.9752910" lon="10.2031030">
	<ele>1592.40</ele>
	<time>2025-08-16T06:48:15.000Z</time>
</trkpt>
<trkpt lat="45.9752920" lon="10.2031040">
	<ele>1592.40</ele>
	<time>2025-08-16T06:48:16.000Z</time>
</trkpt>
<trkpt lat="45.9752910" lon="10.2031030">
	<ele>1592.60</ele>
	<time>2025-08-16T06:48:17.000Z</time>
</trkpt>
<trkpt lat="45.9752920" lon="10.2031040">
	<ele>1592.80</ele>
	<time>2025-08-16T06:48:18.000Z</time>
</trkpt>
<trkpt lat="45.9752930" lon="10.2031060">
	<ele>1592.80</ele>
	<time>2025-08-16T06:48:19.000Z</time>
</trkpt>
<trkpt lat="45.9753010" lon="10.2031060">
	<ele>1593.00</ele>
	<time>2025-08-16T06:48:20.000Z</time>
</trkpt>
<trkpt lat="45.9753070" lon="10.2031120">
	<ele>1593.00</ele>
	<time>2025-08-16T06:48:21.000Z</time>
</trkpt>
<trkpt lat="45.9753140" lon="10.2031170">
	<ele>1593.20</ele>
	<time>2025-08-16T06:48:22.000Z</time>
</trkpt>
<trkpt lat="45.9753210" lon="10.2031210">
	<ele>1593.20</ele>
	<time>2025-08-16T06:48:23.000Z</time>
</trkpt>
<trkpt lat="45.9753250" lon="10.2031230">
	<ele>1593.20</ele>
	<time>2025-08-16T06:48:24.000Z</time>
</trkpt>
<trkpt lat="45.9753350" lon="10.2031230">
	<ele>1593.60</ele>
	<time>2025-08-16T06:48:25.000Z</time>
</trkpt>
<trkpt lat="45.9753430" lon="10.2031200">
	<ele>1593.80</ele>
	<time>2025-08-16T06:48:26.000Z</time>
</trkpt>
<trkpt lat="45.9753520" lon="10.2031220">
	<ele>1593.80</ele>
	<time>2025-08-16T06:48:27.000Z</time>
</trkpt>
<trkpt lat="45.9753620" lon="10.2031270">
	<ele>1594.00</ele>
	<time>2025-08-16T06:48:28.000Z</time>
</trkpt>
<trkpt lat="45.9753680" lon="10.2031300">
	<ele>1594.20</ele>
	<time>2025-08-16T06:48:29.000Z</time>
</trkpt>
<trkpt lat="45.9753730" lon="10.2031360">
	<ele>1594.60</ele>
	<time>2025-08-16T06:48:30.000Z</time>
</trkpt>
<trkpt lat="45.9753770" lon="10.2031440">
	<ele>1595.00</ele>
	<time>2025-08-16T06:48:31.000Z</time>
</trkpt>
<trkpt lat="45.9753820" lon="10.2031510">
	<ele>1595.00</ele>
	<time>2025-08-16T06:48:32.000Z</time>
</trkpt>
<trkpt lat="45.9753900" lon="10.2031570">
	<ele>1595.20</ele>
	<time>2025-08-16T06:48:33.000Z</time>
</trkpt>
<trkpt lat="45.9753970" lon="10.2031620">
	<ele>1595.20</ele>
	<time>2025-08-16T06:48:34.000Z</time>
</trkpt>
<trkpt lat="45.9754010" lon="10.2031680">
	<ele>1595.40</ele>
	<time>2025-08-16T06:48:35.000Z</time>
</trkpt>
<trkpt lat="45.9754070" lon="10.2031740">
	<ele>1595.60</ele>
	<time>2025-08-16T06:48:36.000Z</time>
</trkpt>
<trkpt lat="45.9754170" lon="10.2031830">
	<ele>1595.80</ele>
	<time>2025-08-16T06:48:37.000Z</time>
</trkpt>
<trkpt lat="45.9754210" lon="10.2031880">
	<ele>1596.00</ele>
	<time>2025-08-16T06:48:38.000Z</time>
</trkpt>
<trkpt lat="45.9754270" lon="10.2031890">
	<ele>1596.00</ele>
	<time>2025-08-16T06:48:39.000Z</time>
</trkpt>
<trkpt lat="45.9754350" lon="10.2031900">
	<ele>1596.20</ele>
	<time>2025-08-16T06:48:40.000Z</time>
</trkpt>
<trkpt lat="45.9754420" lon="10.2031960">
	<ele>1596.40</ele>
	<time>2025-08-16T06:48:41.000Z</time>
</trkpt>
<trkpt lat="45.9754520" lon="10.2032020">
	<ele>1596.60</ele>
	<time>2025-08-16T06:48:42.000Z</time>
</trkpt>
<trkpt lat="45.9754510" lon="10.2032050">
	<ele>1596.60</ele>
	<time>2025-08-16T06:48:43.000Z</time>
</trkpt>
<trkpt lat="45.9754550" lon="10.2032090">
	<ele>1597.00</ele>
	<time>2025-08-16T06:48:44.000Z</time>
</trkpt>
<trkpt lat="45.9754640" lon="10.2032160">
	<ele>1597.20</ele>
	<time>2025-08-16T06:48:45.000Z</time>
</trkpt>
<trkpt lat="45.9754710" lon="10.2032250">
	<ele>1597.40</ele>
	<time>2025-08-16T06:48:46.000Z</time>
</trkpt>
<trkpt lat="45.9754820" lon="10.2032310">
	<ele>1597.60</ele>
	<time>2025-08-16T06:48:47.000Z</time>
</trkpt>
<trkpt lat="45.9754910" lon="10.2032350">
	<ele>1597.60</ele>
	<time>2025-08-16T06:48:48.000Z</time>
</trkpt>
<trkpt lat="45.9754990" lon="10.2032360">
	<ele>1597.80</ele>
	<time>2025-08-16T06:48:49.000Z</time>
</trkpt>
<trkpt lat="45.9755060" lon="10.2032380">
	<ele>1598.00</ele>
	<time>2025-08-16T06:48:50.000Z</time>
</trkpt>
<trkpt lat="45.9755160" lon="10.2032420">
	<ele>1598.40</ele>
	<time>2025-08-16T06:48:51.000Z</time>
</trkpt>
<trkpt lat="45.9755220" lon="10.2032420">
	<ele>1598.40</ele>
	<time>2025-08-16T06:48:52.000Z</time>
</trkpt>
<trkpt lat="45.9755320" lon="10.2032460">
	<ele>1598.60</ele>
	<time>2025-08-16T06:48:53.000Z</time>
</trkpt>
<trkpt lat="45.9755410" lon="10.2032470">
	<ele>1599.00</ele>
	<time>2025-08-16T06:48:54.000Z</time>
</trkpt>
<trkpt lat="45.9755480" lon="10.2032480">
	<ele>1599.20</ele>
	<time>2025-08-16T06:48:55.000Z</time>
</trkpt>
<trkpt lat="45.9755530" lon="10.2032540">
	<ele>1599.40</ele>
	<time>2025-08-16T06:48:56.000Z</time>
</trkpt>
<trkpt lat="45.9755600" lon="10.2032600">
	<ele>1599.60</ele>
	<time>2025-08-16T06:48:57.000Z</time>
</trkpt>
<trkpt lat="45.9755660" lon="10.2032630">
	<ele>1599.80</ele>
	<time>2025-08-16T06:48:58.000Z</time>
</trkpt>
<trkpt lat="45.9755710" lon="10.2032670">
	<ele>1599.80</ele>
	<time>2025-08-16T06:48:59.000Z</time>
</trkpt>
<trkpt lat="45.9755750" lon="10.2032690">
	<ele>1600.00</ele>
	<time>2025-08-16T06:49:00.000Z</time>
</trkpt>
<trkpt lat="45.9755770" lon="10.2032700">
	<ele>1600.20</ele>
	<time>2025-08-16T06:49:01.000Z</time>
</trkpt>
<trkpt lat="45.9755840" lon="10.2032730">
	<ele>1600.40</ele>
	<time>2025-08-16T06:49:02.000Z</time>
</trkpt>
<trkpt lat="45.9755940" lon="10.2032760">
	<ele>1600.80</ele>
	<time>2025-08-16T06:49:03.000Z</time>
</trkpt>
<trkpt lat="45.9755990" lon="10.2032790">
	<ele>1601.00</ele>
	<time>2025-08-16T06:49:04.000Z</time>
</trkpt>
<trkpt lat="45.9756030" lon="10.2032850">
	<ele>1601.40</ele>
	<time>2025-08-16T06:49:05.000Z</time>
</trkpt>
<trkpt lat="45.9756100" lon="10.2032910">
	<ele>1601.60</ele>
	<time>2025-08-16T06:49:06.000Z</time>
</trkpt>
<trkpt lat="45.9756150" lon="10.2032970">
	<ele>1601.60</ele>
	<time>2025-08-16T06:49:07.000Z</time>
</trkpt>
<trkpt lat="45.9756180" lon="10.2033010">
	<ele>1601.80</ele>
	<time>2025-08-16T06:49:08.000Z</time>
</trkpt>
<trkpt lat="45.9756240" lon="10.2033060">
	<ele>1602.00</ele>
	<time>2025-08-16T06:49:09.000Z</time>
</trkpt>
<trkpt lat="45.9756330" lon="10.2033050">
	<ele>1602.00</ele>
	<time>2025-08-16T06:49:10.000Z</time>
</trkpt>
<trkpt lat="45.9756390" lon="10.2033050">
	<ele>1602.00</ele>
	<time>2025-08-16T06:49:11.000Z</time>
</trkpt>
<trkpt lat="45.9756480" lon="10.2033060">
	<ele>1602.40</ele>
	<time>2025-08-16T06:49:12.000Z</time>
</trkpt>
<trkpt lat="45.9756570" lon="10.2033050">
	<ele>1602.80</ele>
	<time>2025-08-16T06:49:13.000Z</time>
</trkpt>
<trkpt lat="45.9756650" lon="10.2033050">
	<ele>1603.00</ele>
	<time>2025-08-16T06:49:14.000Z</time>
</trkpt>
<trkpt lat="45.9756750" lon="10.2033090">
	<ele>1603.00</ele>
	<time>2025-08-16T06:49:15.000Z</time>
</trkpt>
<trkpt lat="45.9756900" lon="10.2033110">
	<ele>1603.20</ele>
	<time>2025-08-16T06:49:16.000Z</time>
</trkpt>
<trkpt lat="45.9757010" lon="10.2033140">
	<ele>1603.20</ele>
	<time>2025-08-16T06:49:17.000Z</time>
</trkpt>
<trkpt lat="45.9757070" lon="10.2033180">
	<ele>1603.40</ele>
	<time>2025-08-16T06:49:18.000Z</time>
</trkpt>
<trkpt lat="45.9757130" lon="10.2033280">
	<ele>1603.60</ele>
	<time>2025-08-16T06:49:19.000Z</time>
</trkpt>
<trkpt lat="45.9757170" lon="10.2033320">
	<ele>1603.60</ele>
	<time>2025-08-16T06:49:20.000Z</time>
</trkpt>
<trkpt lat="45.9757200" lon="10.2033340">
	<ele>1603.80</ele>
	<time>2025-08-16T06:49:21.000Z</time>
</trkpt>
<trkpt lat="45.9757210" lon="10.2033380">
	<ele>1603.80</ele>
	<time>2025-08-16T06:49:22.000Z</time>
</trkpt>
<trkpt lat="45.9757250" lon="10.2033410">
	<ele>1604.00</ele>
	<time>2025-08-16T06:49:23.000Z</time>
</trkpt>
<trkpt lat="45.9757300" lon="10.2033390">
	<ele>1604.20</ele>
	<time>2025-08-16T06:49:24.000Z</time>
</trkpt>
<trkpt lat="45.9757350" lon="10.2033450">
	<ele>1604.40</ele>
	<time>2025-08-16T06:49:25.000Z</time>
</trkpt>
<trkpt lat="45.9757470" lon="10.2033500">
	<ele>1604.40</ele>
	<time>2025-08-16T06:49:26.000Z</time>
</trkpt>
<trkpt lat="45.9757600" lon="10.2033520">
	<ele>1604.60</ele>
	<time>2025-08-16T06:49:27.000Z</time>
</trkpt>
<trkpt lat="45.9757730" lon="10.2033550">
	<ele>1604.80</ele>
	<time>2025-08-16T06:49:28.000Z</time>
</trkpt>
<trkpt lat="45.9757870" lon="10.2033550">
	<ele>1605.00</ele>
	<time>2025-08-16T06:49:29.000Z</time>
</trkpt>
<trkpt lat="45.9757980" lon="10.2033550">
	<ele>1605.40</ele>
	<time>2025-08-16T06:49:30.000Z</time>
</trkpt>
<trkpt lat="45.9758030" lon="10.2033640">
	<ele>1605.60</ele>
	<time>2025-08-16T06:49:31.000Z</time>
</trkpt>
<trkpt lat="45.9758060" lon="10.2033770">
	<ele>1605.80</ele>
	<time>2025-08-16T06:49:32.000Z</time>
</trkpt>
<trkpt lat="45.9758060" lon="10.2033910">
	<ele>1606.00</ele>
	<time>2025-08-16T06:49:33.000Z</time>
</trkpt>
<trkpt lat="45.9758150" lon="10.2034000">
	<ele>1606.00</ele>
	<time>2025-08-16T06:49:34.000Z</time>
</trkpt>
<trkpt lat="45.9758180" lon="10.2034050">
	<ele>1606.20</ele>
	<time>2025-08-16T06:49:35.000Z</time>
</trkpt>
<trkpt lat="45.9758240" lon="10.2034110">
	<ele>1606.40</ele>
	<time>2025-08-16T06:49:36.000Z</time>
</trkpt>
<trkpt lat="45.9758280" lon="10.2034200">
	<ele>1606.60</ele>
	<time>2025-08-16T06:49:37.000Z</time>
</trkpt>
<trkpt lat="45.9758330" lon="10.2034260">
	<ele>1607.00</ele>
	<time>2025-08-16T06:49:38.000Z</time>
</trkpt>
<trkpt lat="45.9758370" lon="10.2034340">
	<ele>1607.20</ele>
	<time>2025-08-16T06:49:39.000Z</time>
</trkpt>
<trkpt lat="45.9758430" lon="10.2034430">
	<ele>1607.40</ele>
	<time>2025-08-16T06:49:40.000Z</time>
</trkpt>
<trkpt lat="45.9758500" lon="10.2034520">
	<ele>1607.80</ele>
	<time>2025-08-16T06:49:41.000Z</time>
</trkpt>
<trkpt lat="45.9758600" lon="10.2034560">
	<ele>1607.80</ele>
	<time>2025-08-16T06:49:42.000Z</time>
</trkpt>
<trkpt lat="45.9758690" lon="10.2034570">
	<ele>1608.00</ele>
	<time>2025-08-16T06:49:43.000Z</time>
</trkpt>
<trkpt lat="45.9758780" lon="10.2034540">
	<ele>1608.20</ele>
	<time>2025-08-16T06:49:44.000Z</time>
</trkpt>
<trkpt lat="45.9758880" lon="10.2034530">
	<ele>1608.40</ele>
	<time>2025-08-16T06:49:45.000Z</time>
</trkpt>
<trkpt lat="45.9758960" lon="10.2034520">
	<ele>1608.60</ele>
	<time>2025-08-16T06:49:46.000Z</time>
</trkpt>
<trkpt lat="45.9759080" lon="10.2034550">
	<ele>1609.00</ele>
	<time>2025-08-16T06:49:47.000Z</time>
</trkpt>
<trkpt lat="45.9759200" lon="10.2034560">
	<ele>1609.20</ele>
	<time>2025-08-16T06:49:48.000Z</time>
</trkpt>
<trkpt lat="45.9759260" lon="10.2034590">
	<ele>1609.40</ele>
	<time>2025-08-16T06:49:49.000Z</time>
</trkpt>
<trkpt lat="45.9759350" lon="10.2034590">
	<ele>1609.40</ele>
	<time>2025-08-16T06:49:50.000Z</time>
</trkpt>
<trkpt lat="45.9759440" lon="10.2034630">
	<ele>1609.40</ele>
	<time>2025-08-16T06:49:51.000Z</time>
</trkpt>
<trkpt lat="45.9759480" lon="10.2034660">
	<ele>1609.80</ele>
	<time>2025-08-16T06:49:52.000Z</time>
</trkpt>
<trkpt lat="45.9759570" lon="10.2034720">
	<ele>1610.00</ele>
	<time>2025-08-16T06:49:53.000Z</time>
</trkpt>
<trkpt lat="45.9759720" lon="10.2034770">
	<ele>1610.20</ele>
	<time>2025-08-16T06:49:54.000Z</time>
</trkpt>
<trkpt lat="45.9759820" lon="10.2034800">
	<ele>1610.40</ele>
	<time>2025-08-16T06:49:55.000Z</time>
</trkpt>
<trkpt lat="45.9759890" lon="10.2034850">
	<ele>1610.60</ele>
	<time>2025-08-16T06:49:56.000Z</time>
</trkpt>
<trkpt lat="45.9759980" lon="10.2034910">
	<ele>1610.80</ele>
	<time>2025-08-16T06:49:57.000Z</time>
</trkpt>
<trkpt lat="45.9760060" lon="10.2034980">
	<ele>1611.00</ele>
	<time>2025-08-16T06:49:58.000Z</time>
</trkpt>
<trkpt lat="45.9760130" lon="10.2035020">
	<ele>1611.20</ele>
	<time>2025-08-16T06:49:59.000Z</time>
</trkpt>
<trkpt lat="45.9760220" lon="10.2035090">
	<ele>1611.40</ele>
	<time>2025-08-16T06:50:00.000Z</time>
</trkpt>
<trkpt lat="45.9760300" lon="10.2035100">
	<ele>1611.60</ele>
	<time>2025-08-16T06:50:01.000Z</time>
</trkpt>
<trkpt lat="45.9760400" lon="10.2035160">
	<ele>1611.80</ele>
	<time>2025-08-16T06:50:02.000Z</time>
</trkpt>
<trkpt lat="45.9760440" lon="10.2035240">
	<ele>1611.80</ele>
	<time>2025-08-16T06:50:03.000Z</time>
</trkpt>
<trkpt lat="45.9760470" lon="10.2035300">
	<ele>1612.20</ele>
	<time>2025-08-16T06:50:04.000Z</time>
</trkpt>
<trkpt lat="45.9760540" lon="10.2035410">
	<ele>1612.40</ele>
	<time>2025-08-16T06:50:05.000Z</time>
</trkpt>
<trkpt lat="45.9760580" lon="10.2035460">
	<ele>1612.60</ele>
	<time>2025-08-16T06:50:06.000Z</time>
</trkpt>
<trkpt lat="45.9760690" lon="10.2035560">
	<ele>1613.00</ele>
	<time>2025-08-16T06:50:07.000Z</time>
</trkpt>
<trkpt lat="45.9760770" lon="10.2035610">
	<ele>1613.20</ele>
	<time>2025-08-16T06:50:08.000Z</time>
</trkpt>
<trkpt lat="45.9760870" lon="10.2035610">
	<ele>1613.20</ele>
	<time>2025-08-16T06:50:09.000Z</time>
</trkpt>
<trkpt lat="45.9760940" lon="10.2035650">
	<ele>1613.40</ele>
	<time>2025-08-16T06:50:10.000Z</time>
</trkpt>
<trkpt lat="45.9761070" lon="10.2035670">
	<ele>1613.80</ele>
	<time>2025-08-16T06:50:11.000Z</time>
</trkpt>
<trkpt lat="45.9761150" lon="10.2035670">
	<ele>1613.80</ele>
	<time>2025-08-16T06:50:12.000Z</time>
</trkpt>
<trkpt lat="45.9761210" lon="10.2035720">
	<ele>1614.00</ele>
	<time>2025-08-16T06:50:13.000Z</time>
</trkpt>
<trkpt lat="45.9761300" lon="10.2035610">
	<ele>1614.20</ele>
	<time>2025-08-16T06:50:14.000Z</time>
</trkpt>
<trkpt lat="45.9761360" lon="10.2035550">
	<ele>1614.60</ele>
	<time>2025-08-16T06:50:15.000Z</time>
</trkpt>
<trkpt lat="45.9761470" lon="10.2035550">
	<ele>1614.60</ele>
	<time>2025-08-16T06:50:16.000Z</time>
</trkpt>
<trkpt lat="45.9761530" lon="10.2035520">
	<ele>1614.80</ele>
	<time>2025-08-16T06:50:17.000Z</time>
</trkpt>
<trkpt lat="45.9761620" lon="10.2035580">
	<ele>1615.00</ele>
	<time>2025-08-16T06:50:18.000Z</time>
</trkpt>
<trkpt lat="45.9761700" lon="10.2035640">
	<ele>1615.00</ele>
	<time>2025-08-16T06:50:19.000Z</time>
</trkpt>
<trkpt lat="45.9761820" lon="10.2035730">
	<ele>1615.00</ele>
	<time>2025-08-16T06:50:20.000Z</time>
</trkpt>
<trkpt lat="45.9761900" lon="10.2035810">
	<ele>1615.20</ele>
	<time>2025-08-16T06:50:21.000Z</time>
</trkpt>
<trkpt lat="45.9761960" lon="10.2035850">
	<ele>1615.60</ele>
	<time>2025-08-16T06:50:22.000Z</time>
</trkpt>
<trkpt lat="45.9762030" lon="10.2035930">
	<ele>1615.60</ele>
	<time>2025-08-16T06:50:23.000Z</time>
</trkpt>
<trkpt lat="45.9762050" lon="10.2036000">
	<ele>1615.80</ele>
	<time>2025-08-16T06:50:24.000Z</time>
</trkpt>
<trkpt lat="45.9762100" lon="10.2036050">
	<ele>1616.00</ele>
	<time>2025-08-16T06:50:25.000Z</time>
</trkpt>
<trkpt lat="45.9762230" lon="10.2036180">
	<ele>1616.00</ele>
	<time>2025-08-16T06:50:26.000Z</time>
</trkpt>
<trkpt lat="45.9762260" lon="10.2036260">
	<ele>1616.20</ele>
	<time>2025-08-16T06:50:27.000Z</time>
</trkpt>
<trkpt lat="45.9762300" lon="10.2036320">
	<ele>1616.20</ele>
	<time>2025-08-16T06:50:28.000Z</time>
</trkpt>
<trkpt lat="45.9762350" lon="10.2036380">
	<ele>1616.40</ele>
	<time>2025-08-16T06:50:29.000Z</time>
</trkpt>
<trkpt lat="45.9762410" lon="10.2036430">
	<ele>1616.60</ele>
	<time>2025-08-16T06:50:30.000Z</time>
</trkpt>
<trkpt lat="45.9762480" lon="10.2036460">
	<ele>1616.80</ele>
	<time>2025-08-16T06:50:31.000Z</time>
</trkpt>
<trkpt lat="45.9762590" lon="10.2036520">
	<ele>1617.00</ele>
	<time>2025-08-16T06:50:32.000Z</time>
</trkpt>
<trkpt lat="45.9762690" lon="10.2036570">
	<ele>1617.20</ele>
	<time>2025-08-16T06:50:33.000Z</time>
</trkpt>
<trkpt lat="45.9762750" lon="10.2036580">
	<ele>1617.40</ele>
	<time>2025-08-16T06:50:34.000Z</time>
</trkpt>
<trkpt lat="45.9762770" lon="10.2036590">
	<ele>1617.60</ele>
	<time>2025-08-16T06:50:35.000Z</time>
</trkpt>
<trkpt lat="45.9762820" lon="10.2036590">
	<ele>1617.80</ele>
	<time>2025-08-16T06:50:36.000Z</time>
</trkpt>
<trkpt lat="45.9762820" lon="10.2036710">
	<ele>1618.20</ele>
	<time>2025-08-16T06:50:37.000Z</time>
</trkpt>
<trkpt lat="45.9762870" lon="10.2036810">
	<ele>1618.40</ele>
	<time>2025-08-16T06:50:38.000Z</time>
</trkpt>
<trkpt lat="45.9762940" lon="10.2036920">
	<ele>1618.40</ele>
	<time>2025-08-16T06:50:39.000Z</time>
</trkpt>
<trkpt lat="45.9763050" lon="10.2036930">
	<ele>1618.60</ele>
	<time>2025-08-16T06:50:40.000Z</time>
</trkpt>
<trkpt lat="45.9763150" lon="10.2037010">
	<ele>1618.60</ele>
	<time>2025-08-16T06:50:41.000Z</time>
</trkpt>
<trkpt lat="45.9763250" lon="10.2037080">
	<ele>1618.80</ele>
	<time>2025-08-16T06:50:42.000Z</time>
</trkpt>
<trkpt lat="45.9763310" lon="10.2037130">
	<ele>1619.00</ele>
	<time>2025-08-16T06:50:43.000Z</time>
</trkpt>
<trkpt lat="45.9763350" lon="10.2037170">
	<ele>1619.00</ele>
	<time>2025-08-16T06:50:44.000Z</time>
</trkpt>
<trkpt lat="45.9763420" lon="10.2037200">
	<ele>1619.20</ele>
	<time>2025-08-16T06:50:45.000Z</time>
</trkpt>
<trkpt lat="45.9763500" lon="10.2037240">
	<ele>1619.40</ele>
	<time>2025-08-16T06:50:46.000Z</time>
</trkpt>
<trkpt lat="45.9763610" lon="10.2037220">
	<ele>1619.40</ele>
	<time>2025-08-16T06:50:47.000Z</time>
</trkpt>
<trkpt lat="45.9763690" lon="10.2037200">
	<ele>1619.60</ele>
	<time>2025-08-16T06:50:48.000Z</time>
</trkpt>
<trkpt lat="45.9763780" lon="10.2037220">
	<ele>1620.00</ele>
	<time>2025-08-16T06:50:49.000Z</time>
</trkpt>
<trkpt lat="45.9763850" lon="10.2037260">
	<ele>1620.20</ele>
	<time>2025-08-16T06:50:50.000Z</time>
</trkpt>
<trkpt lat="45.9763910" lon="10.2037320">
	<ele>1620.40</ele>
	<time>2025-08-16T06:50:51.000Z</time>
</trkpt>
<trkpt lat="45.9764000" lon="10.2037350">
	<ele>1620.60</ele>
	<time>2025-08-16T06:50:52.000Z</time>
</trkpt>
<trkpt lat="45.9764120" lon="10.2037420">
	<ele>1620.80</ele>
	<time>2025-08-16T06:50:53.000Z</time>
</trkpt>
<trkpt lat="45.9764230" lon="10.2037460">
	<ele>1621.00</ele>
	<time>2025-08-16T06:50:54.000Z</time>
</trkpt>
<trkpt lat="45.9764320" lon="10.2037590">
	<ele>1621.20</ele>
	<time>2025-08-16T06:50:55.000Z</time>
</trkpt>
<trkpt lat="45.9764430" lon="10.2037620">
	<ele>1621.40</ele>
	<time>2025-08-16T06:50:56.000Z</time>
</trkpt>
<trkpt lat="45.9764490" lon="10.2037620">
	<ele>1621.60</ele>
	<time>2025-08-16T06:50:57.000Z</time>
</trkpt>
<trkpt lat="45.9764600" lon="10.2037640">
	<ele>1621.60</ele>
	<time>2025-08-16T06:50:58.000Z</time>
</trkpt>
<trkpt lat="45.9764740" lon="10.2037590">
	<ele>1621.80</ele>
	<time>2025-08-16T06:50:59.000Z</time>
</trkpt>
<trkpt lat="45.9764830" lon="10.2037640">
	<ele>1621.80</ele>
	<time>2025-08-16T06:51:00.000Z</time>
</trkpt>
<trkpt lat="45.9764900" lon="10.2037720">
	<ele>1622.00</ele>
	<time>2025-08-16T06:51:01.000Z</time>
</trkpt>
<trkpt lat="45.9764940" lon="10.2037770">
	<ele>1622.40</ele>
	<time>2025-08-16T06:51:02.000Z</time>
</trkpt>
<trkpt lat="45.9765030" lon="10.2037850">
	<ele>1622.40</ele>
	<time>2025-08-16T06:51:03.000Z</time>
</trkpt>
<trkpt lat="45.9765110" lon="10.2037960">
	<ele>1622.60</ele>
	<time>2025-08-16T06:51:04.000Z</time>
</trkpt>
<trkpt lat="45.9765180" lon="10.2038050">
	<ele>1622.80</ele>
	<time>2025-08-16T06:51:05.000Z</time>
</trkpt>
<trkpt lat="45.9765210" lon="10.2038050">
	<ele>1622.80</ele>
	<time>2025-08-16T06:51:06.000Z</time>
</trkpt>
<trkpt lat="45.9765240" lon="10.2038050">
	<ele>1623.00</ele>
	<time>2025-08-16T06:51:07.000Z</time>
</trkpt>
<trkpt lat="45.9765260" lon="10.2038050">
	<ele>1623.00</ele>
	<time>2025-08-16T06:51:08.000Z</time>
</trkpt>
<trkpt lat="45.9765270" lon="10.2038010">
	<ele>1623.20</ele>
	<time>2025-08-16T06:51:09.000Z</time>
</trkpt>
<trkpt lat="45.9765250" lon="10.2038000">
	<ele>1623.20</ele>
	<time>2025-08-16T06:51:10.000Z</time>
</trkpt>
<trkpt lat="45.9765250" lon="10.2038010">
	<ele>1623.20</ele>
	<time>2025-08-16T06:51:11.000Z</time>
</trkpt>
<trkpt lat="45.9765260" lon="10.2038020">
	<ele>1623.20</ele>
	<time>2025-08-16T06:51:12.000Z</time>
</trkpt>
<trkpt lat="45.9765250" lon="10.2038030">
	<ele>1623.20</ele>
	<time>2025-08-16T06:51:13.000Z</time>
</trkpt>
<trkpt lat="45.9765230" lon="10.2038040">
	<ele>1623.20</ele>
	<time>2025-08-16T06:51:14.000Z</time>
</trkpt>
<trkpt lat="45.9765220" lon="10.2038040">
	<ele>1623.00</ele>
	<time>2025-08-16T06:51:15.000Z</time>
</trkpt>
<trkpt lat="45.9765260" lon="10.2038070">
	<ele>1623.00</ele>
	<time>2025-08-16T06:51:16.000Z</time>
</trkpt>
<trkpt lat="45.9765330" lon="10.2038090">
	<ele>1623.00</ele>
	<time>2025-08-16T06:51:17.000Z</time>
</trkpt>
<trkpt lat="45.9765420" lon="10.2038110">
	<ele>1623.00</ele>
	<time>2025-08-16T06:51:18.000Z</time>
</trkpt>
<trkpt lat="45.9765500" lon="10.2038110">
	<ele>1623.20</ele>
	<time>2025-08-16T06:51:19.000Z</time>
</trkpt>
<trkpt lat="45.9765600" lon="10.2038120">
	<ele>1623.40</ele>
	<time>2025-08-16T06:51:20.000Z</time>
</trkpt>
<trkpt lat="45.9765700" lon="10.2038170">
	<ele>1623.40</ele>
	<time>2025-08-16T06:51:21.000Z</time>
</trkpt>
<trkpt lat="45.9765800" lon="10.2038170">
	<ele>1623.60</ele>
	<time>2025-08-16T06:51:22.000Z</time>
</trkpt>
<trkpt lat="45.9765880" lon="10.2038200">
	<ele>1623.80</ele>
	<time>2025-08-16T06:51:23.000Z</time>
</trkpt>
<trkpt lat="45.9765970" lon="10.2038250">
	<ele>1624.00</ele>
	<time>2025-08-16T06:51:24.000Z</time>
</trkpt>
<trkpt lat="45.9766070" lon="10.2038290">
	<ele>1624.20</ele>
	<time>2025-08-16T06:51:25.000Z</time>
</trkpt>
<trkpt lat="45.9766190" lon="10.2038340">
	<ele>1624.20</ele>
	<time>2025-08-16T06:51:26.000Z</time>
</trkpt>
<trkpt lat="45.9766320" lon="10.2038340">
	<ele>1624.20</ele>
	<time>2025-08-16T06:51:27.000Z</time>
</trkpt>
<trkpt lat="45.9766380" lon="10.2038320">
	<ele>1624.40</ele>
	<time>2025-08-16T06:51:28.000Z</time>
</trkpt>
<trkpt lat="45.9766490" lon="10.2038320">
	<ele>1624.60</ele>
	<time>2025-08-16T06:51:29.000Z</time>
</trkpt>
<trkpt lat="45.9766610" lon="10.2038310">
	<ele>1624.80</ele>
	<time>2025-08-16T06:51:30.000Z</time>
</trkpt>
<trkpt lat="45.9766730" lon="10.2038420">
	<ele>1625.00</ele>
	<time>2025-08-16T06:51:31.000Z</time>
</trkpt>
<trkpt lat="45.9766830" lon="10.2038490">
	<ele>1625.00</ele>
	<time>2025-08-16T06:51:32.000Z</time>
</trkpt>
<trkpt lat="45.9766910" lon="10.2038580">
	<ele>1625.20</ele>
	<time>2025-08-16T06:51:33.000Z</time>
</trkpt>
<trkpt lat="45.9766980" lon="10.2038660">
	<ele>1625.40</ele>
	<time>2025-08-16T06:51:34.000Z</time>
</trkpt>
<trkpt lat="45.9767080" lon="10.2038760">
	<ele>1625.60</ele>
	<time>2025-08-16T06:51:35.000Z</time>
</trkpt>
<trkpt lat="45.9767220" lon="10.2038920">
	<ele>1625.80</ele>
	<time>2025-08-16T06:51:36.000Z</time>
</trkpt>
<trkpt lat="45.9767300" lon="10.2038980">
	<ele>1625.80</ele>
	<time>2025-08-16T06:51:37.000Z</time>
</trkpt>
<trkpt lat="45.9767400" lon="10.2039000">
	<ele>1626.00</ele>
	<time>2025-08-16T06:51:38.000Z</time>
</trkpt>
<trkpt lat="45.9767470" lon="10.2038970">
	<ele>1626.00</ele>
	<time>2025-08-16T06:51:39.000Z</time>
</trkpt>
<trkpt lat="45.9767530" lon="10.2039020">
	<ele>1626.20</ele>
	<time>2025-08-16T06:51:40.000Z</time>
</trkpt>
<trkpt lat="45.9767650" lon="10.2039130">
	<ele>1626.20</ele>
	<time>2025-08-16T06:51:41.000Z</time>
</trkpt>
<trkpt lat="45.9767720" lon="10.2039180">
	<ele>1626.40</ele>
	<time>2025-08-16T06:51:42.000Z</time>
</trkpt>
<trkpt lat="45.9767780" lon="10.2039250">
	<ele>1626.60</ele>
	<time>2025-08-16T06:51:43.000Z</time>
</trkpt>
<trkpt lat="45.9767880" lon="10.2039230">
	<ele>1626.80</ele>
	<time>2025-08-16T06:51:44.000Z</time>
</trkpt>
<trkpt lat="45.9767980" lon="10.2039180">
	<ele>1627.00</ele>
	<time>2025-08-16T06:51:45.000Z</time>
</trkpt>
<trkpt lat="45.9768090" lon="10.2039190">
	<ele>1627.20</ele>
	<time>2025-08-16T06:51:46.000Z</time>
</trkpt>
<trkpt lat="45.9768200" lon="10.2039160">
	<ele>1627.40</ele>
	<time>2025-08-16T06:51:47.000Z</time>
</trkpt>
<trkpt lat="45.9768320" lon="10.2039150">
	<ele>1627.60</ele>
	<time>2025-08-16T06:51:48.000Z</time>
</trkpt>
<trkpt lat="45.9768420" lon="10.2039210">
	<ele>1627.60</ele>
	<time>2025-08-16T06:51:49.000Z</time>
</trkpt>
<trkpt lat="45.9768510" lon="10.2039400">
	<ele>1627.80</ele>
	<time>2025-08-16T06:51:50.000Z</time>
</trkpt>
<trkpt lat="45.9768620" lon="10.2039670">
	<ele>1628.00</ele>
	<time>2025-08-16T06:51:51.000Z</time>
</trkpt>
<trkpt lat="45.9768730" lon="10.2039850">
	<ele>1628.20</ele>
	<time>2025-08-16T06:51:52.000Z</time>
</trkpt>
<trkpt lat="45.9768810" lon="10.2039920">
	<ele>1628.40</ele>
	<time>2025-08-16T06:51:53.000Z</time>
</trkpt>
<trkpt lat="45.9768860" lon="10.2040000">
	<ele>1628.40</ele>
	<time>2025-08-16T06:51:54.000Z</time>
</trkpt>
<trkpt lat="45.9768930" lon="10.2040080">
	<ele>1628.60</ele>
	<time>2025-08-16T06:51:55.000Z</time>
</trkpt>
<trkpt lat="45.9769090" lon="10.2040060">
	<ele>1628.60</ele>
	<time>2025-08-16T06:51:56.000Z</time>
</trkpt>
<trkpt lat="45.9769210" lon="10.2040000">
	<ele>1628.80</ele>
	<time>2025-08-16T06:51:57.000Z</time>
</trkpt>
<trkpt lat="45.9769390" lon="10.2039920">
	<ele>1629.00</ele>
	<time>2025-08-16T06:51:58.000Z</time>
</trkpt>
<trkpt lat="45.9769510" lon="10.2039940">
	<ele>1629.20</ele>
	<time>2025-08-16T06:51:59.000Z</time>
</trkpt>
<trkpt lat="45.9769630" lon="10.2040020">
	<ele>1629.20</ele>
	<time>2025-08-16T06:52:00.000Z</time>
</trkpt>
<trkpt lat="45.9769750" lon="10.2040100">
	<ele>1629.40</ele>
	<time>2025-08-16T06:52:01.000Z</time>
</trkpt>
<trkpt lat="45.9769860" lon="10.2040040">
	<ele>1629.40</ele>
	<time>2025-08-16T06:52:02.000Z</time>
</trkpt>
<trkpt lat="45.9769950" lon="10.2039980">
	<ele>1629.60</ele>
	<time>2025-08-16T06:52:03.000Z</time>
</trkpt>
<trkpt lat="45.9770040" lon="10.2039990">
	<ele>1629.60</ele>
	<time>2025-08-16T06:52:04.000Z</time>
</trkpt>
<trkpt lat="45.9770060" lon="10.2040020">
	<ele>1629.80</ele>
	<time>2025-08-16T06:52:05.000Z</time>
</trkpt>
<trkpt lat="45.9770120" lon="10.2040130">
	<ele>1629.80</ele>
	<time>2025-08-16T06:52:06.000Z</time>
</trkpt>
<trkpt lat="45.9770210" lon="10.2040200">
	<ele>1630.00</ele>
	<time>2025-08-16T06:52:07.000Z</time>
</trkpt>
<trkpt lat="45.9770370" lon="10.2040170">
	<ele>1630.00</ele>
	<time>2025-08-16T06:52:08.000Z</time>
</trkpt>
<trkpt lat="45.9770530" lon="10.2040070">
	<ele>1630.20</ele>
	<time>2025-08-16T06:52:09.000Z</time>
</trkpt>
<trkpt lat="45.9770600" lon="10.2040090">
	<ele>1630.40</ele>
	<time>2025-08-16T06:52:10.000Z</time>
</trkpt>
<trkpt lat="45.9770670" lon="10.2040100">
	<ele>1630.60</ele>
	<time>2025-08-16T06:52:11.000Z</time>
</trkpt>
<trkpt lat="45.9770790" lon="10.2040220">
	<ele>1630.80</ele>
	<time>2025-08-16T06:52:12.000Z</time>
</trkpt>
<trkpt lat="45.9770890" lon="10.2040300">
	<ele>1631.00</ele>
	<time>2025-08-16T06:52:13.000Z</time>
</trkpt>
<trkpt lat="45.9770960" lon="10.2040420">
	<ele>1631.20</ele>
	<time>2025-08-16T06:52:14.000Z</time>
</trkpt>
<trkpt lat="45.9771000" lon="10.2040520">
	<ele>1631.20</ele>
	<time>2025-08-16T06:52:15.000Z</time>
</trkpt>
<trkpt lat="45.9771060" lon="10.2040580">
	<ele>1631.40</ele>
	<time>2025-08-16T06:52:16.000Z</time>
</trkpt>
<trkpt lat="45.9771140" lon="10.2040620">
	<ele>1631.60</ele>
	<time>2025-08-16T06:52:17.000Z</time>
</trkpt>
<trkpt lat="45.9771220" lon="10.2040720">
	<ele>1631.60</ele>
	<time>2025-08-16T06:52:18.000Z</time>
</trkpt>
<trkpt lat="45.9771300" lon="10.2040670">
	<ele>1631.80</ele>
	<time>2025-08-16T06:52:19.000Z</time>
</trkpt>
<trkpt lat="45.9771440" lon="10.2040630">
	<ele>1631.80</ele>
	<time>2025-08-16T06:52:20.000Z</time>
</trkpt>
<trkpt lat="45.9771540" lon="10.2040620">
	<ele>1632.00</ele>
	<time>2025-08-16T06:52:21.000Z</time>
</trkpt>
<trkpt lat="45.9771620" lon="10.2040590">
	<ele>1632.00</ele>
	<time>2025-08-16T06:52:22.000Z</time>
</trkpt>
<trkpt lat="45.9771660" lon="10.2040590">
	<ele>1632.20</ele>
	<time>2025-08-16T06:52:23.000Z</time>
</trkpt>
<trkpt lat="45.9771690" lon="10.2040580">
	<ele>1632.40</ele>
	<time>2025-08-16T06:52:24.000Z</time>
</trkpt>
<trkpt lat="45.9771710" lon="10.2040410">
	<ele>1632.60</ele>
	<time>2025-08-16T06:52:25.000Z</time>
</trkpt>
<trkpt lat="45.9771770" lon="10.2040470">
	<ele>1632.60</ele>
	<time>2025-08-16T06:52:26.000Z</time>
</trkpt>
<trkpt lat="45.9771820" lon="10.2040490">
	<ele>1632.80</ele>
	<time>2025-08-16T06:52:27.000Z</time>
</trkpt>
<trkpt lat="45.9771890" lon="10.2040490">
	<ele>1632.80</ele>
	<time>2025-08-16T06:52:28.000Z</time>
</trkpt>
<trkpt lat="45.9771940" lon="10.2040580">
	<ele>1632.80</ele>
	<time>2025-08-16T06:52:29.000Z</time>
</trkpt>
<trkpt lat="45.9772030" lon="10.2040630">
	<ele>1632.80</ele>
	<time>2025-08-16T06:52:30.000Z</time>
</trkpt>
<trkpt lat="45.9772070" lon="10.2040750">
	<ele>1632.80</ele>
	<time>2025-08-16T06:52:31.000Z</time>
</trkpt>
<trkpt lat="45.9772160" lon="10.2040820">
	<ele>1633.00</ele>
	<time>2025-08-16T06:52:32.000Z</time>
</trkpt>
<trkpt lat="45.9772180" lon="10.2040870">
	<ele>1633.00</ele>
	<time>2025-08-16T06:52:33.000Z</time>
</trkpt>
<trkpt lat="45.9772270" lon="10.2040930">
	<ele>1633.20</ele>
	<time>2025-08-16T06:52:34.000Z</time>
</trkpt>
<trkpt lat="45.9772350" lon="10.2040940">
	<ele>1633.40</ele>
	<time>2025-08-16T06:52:35.000Z</time>
</trkpt>
<trkpt lat="45.9772440" lon="10.2040900">
	<ele>1633.40</ele>
	<time>2025-08-16T06:52:36.000Z</time>
</trkpt>
<trkpt lat="45.9772540" lon="10.2040900">
	<ele>1633.60</ele>
	<time>2025-08-16T06:52:37.000Z</time>
</trkpt>
<trkpt lat="45.9772660" lon="10.2040930">
	<ele>1633.80</ele>
	<time>2025-08-16T06:52:38.000Z</time>
</trkpt>
<trkpt lat="45.9772780" lon="10.2040930">
	<ele>1633.80</ele>
	<time>2025-08-16T06:52:39.000Z</time>
</trkpt>
<trkpt lat="45.9772900" lon="10.2040970">
	<ele>1634.00</ele>
	<time>2025-08-16T06:52:40.000Z</time>
</trkpt>
<trkpt lat="45.9772980" lon="10.2041090">
	<ele>1634.00</ele>
	<time>2025-08-16T06:52:41.000Z</time>
</trkpt>
<trkpt lat="45.9773040" lon="10.2041130">
	<ele>1634.20</ele>
	<time>2025-08-16T06:52:42.000Z</time>
</trkpt>
<trkpt lat="45.9773170" lon="10.2041230">
	<ele>1634.40</ele>
	<time>2025-08-16T06:52:43.000Z</time>
</trkpt>
<trkpt lat="45.9773230" lon="10.2041230">
	<ele>1634.40</ele>
	<time>2025-08-16T06:52:44.000Z</time>
</trkpt>
<trkpt lat="45.9773290" lon="10.2041240">
	<ele>1634.80</ele>
	<time>2025-08-16T06:52:45.000Z</time>
</trkpt>
<trkpt lat="45.9773380" lon="10.2041240">
	<ele>1635.20</ele>
	<time>2025-08-16T06:52:46.000Z</time>
</trkpt>
<trkpt lat="45.9773460" lon="10.2041140">
	<ele>1635.40</ele>
	<time>2025-08-16T06:52:47.000Z</time>
</trkpt>
<trkpt lat="45.9773510" lon="10.2041140">
	<ele>1635.60</ele>
	<time>2025-08-16T06:52:48.000Z</time>
</trkpt>
<trkpt lat="45.9773550" lon="10.2041140">
	<ele>1635.80</ele>
	<time>2025-08-16T06:52:49.000Z</time>
</trkpt>
<trkpt lat="45.9773580" lon="10.2041150">
	<ele>1636.00</ele>
	<time>2025-08-16T06:52:50.000Z</time>
</trkpt>
<trkpt lat="45.9773660" lon="10.2041170">
	<ele>1636.20</ele>
	<time>2025-08-16T06:52:51.000Z</time>
</trkpt>
<trkpt lat="45.9773720" lon="10.2041140">
	<ele>1636.40</ele>
	<time>2025-08-16T06:52:52.000Z</time>
</trkpt>
<trkpt lat="45.9773790" lon="10.2041120">
	<ele>1636.60</ele>
	<time>2025-08-16T06:52:53.000Z</time>
</trkpt>
<trkpt lat="45.9773890" lon="10.2041130">
	<ele>1636.80</ele>
	<time>2025-08-16T06:52:54.000Z</time>
</trkpt>
<trkpt lat="45.9774010" lon="10.2041210">
	<ele>1637.00</ele>
	<time>2025-08-16T06:52:55.000Z</time>
</trkpt>
<trkpt lat="45.9774100" lon="10.2041260">
	<ele>1637.00</ele>
	<time>2025-08-16T06:52:56.000Z</time>
</trkpt>
<trkpt lat="45.9774160" lon="10.2041350">
	<ele>1637.20</ele>
	<time>2025-08-16T06:52:57.000Z</time>
</trkpt>
<trkpt lat="45.9774180" lon="10.2041410">
	<ele>1637.20</ele>
	<time>2025-08-16T06:52:58.000Z</time>
</trkpt>
<trkpt lat="45.9774220" lon="10.2041430">
	<ele>1637.40</ele>
	<time>2025-08-16T06:52:59.000Z</time>
</trkpt>
<trkpt lat="45.9774270" lon="10.2041420">
	<ele>1637.40</ele>
	<time>2025-08-16T06:53:00.000Z</time>
</trkpt>
<trkpt lat="45.9774380" lon="10.2041400">
	<ele>1637.60</ele>
	<time>2025-08-16T06:53:01.000Z</time>
</trkpt>
<trkpt lat="45.9774450" lon="10.2041410">
	<ele>1637.80</ele>
	<time>2025-08-16T06:53:02.000Z</time>
</trkpt>
<trkpt lat="45.9774480" lon="10.2041360">
	<ele>1638.00</ele>
	<time>2025-08-16T06:53:03.000Z</time>
</trkpt>
<trkpt lat="45.9774540" lon="10.2041220">
	<ele>1638.40</ele>
	<time>2025-08-16T06:53:04.000Z</time>
</trkpt>
<trkpt lat="45.9774720" lon="10.2041110">
	<ele>1638.60</ele>
	<time>2025-08-16T06:53:05.000Z</time>
</trkpt>
<trkpt lat="45.9774780" lon="10.2041120">
	<ele>1638.80</ele>
	<time>2025-08-16T06:53:06.000Z</time>
</trkpt>
<trkpt lat="45.9774940" lon="10.2041090">
	<ele>1639.00</ele>
	<time>2025-08-16T06:53:07.000Z</time>
</trkpt>
<trkpt lat="45.9775010" lon="10.2041080">
	<ele>1639.00</ele>
	<time>2025-08-16T06:53:08.000Z</time>
</trkpt>
<trkpt lat="45.9775030" lon="10.2041140">
	<ele>1639.00</ele>
	<time>2025-08-16T06:53:09.000Z</time>
</trkpt>
<trkpt lat="45.9775050" lon="10.2041000">
	<ele>1639.40</ele>
	<time>2025-08-16T06:53:10.000Z</time>
</trkpt>
<trkpt lat="45.9775130" lon="10.2040890">
	<ele>1639.60</ele>
	<time>2025-08-16T06:53:11.000Z</time>
</trkpt>
<trkpt lat="45.9775180" lon="10.2040900">
	<ele>1639.60</ele>
	<time>2025-08-16T06:53:12.000Z</time>
</trkpt>
<trkpt lat="45.9775380" lon="10.2040820">
	<ele>1639.80</ele>
	<time>2025-08-16T06:53:13.000Z</time>
</trkpt>
<trkpt lat="45.9775410" lon="10.2040740">
	<ele>1640.00</ele>
	<time>2025-08-16T06:53:14.000Z</time>
</trkpt>
<trkpt lat="45.9775450" lon="10.2040770">
	<ele>1640.20</ele>
	<time>2025-08-16T06:53:15.000Z</time>
</trkpt>
<trkpt lat="45.9775490" lon="10.2040750">
	<ele>1640.20</ele>
	<time>2025-08-16T06:53:16.000Z</time>
</trkpt>
<trkpt lat="45.9775560" lon="10.2040680">
	<ele>1640.40</ele>
	<time>2025-08-16T06:53:17.000Z</time>
</trkpt>
<trkpt lat="45.9775660" lon="10.2040610">
	<ele>1640.60</ele>
	<time>2025-08-16T06:53:18.000Z</time>
</trkpt>
<trkpt lat="45.9775760" lon="10.2040580">
	<ele>1640.60</ele>
	<time>2025-08-16T06:53:19.000Z</time>
</trkpt>
<trkpt lat="45.9775830" lon="10.2040500">
	<ele>1641.00</ele>
	<time>2025-08-16T06:53:20.000Z</time>
</trkpt>
<trkpt lat="45.9775950" lon="10.2040440">
	<ele>1641.00</ele>
	<time>2025-08-16T06:53:21.000Z</time>
</trkpt>
<trkpt lat="45.9776010" lon="10.2040410">
	<ele>1641.20</ele>
	<time>2025-08-16T06:53:22.000Z</time>
</trkpt>
<trkpt lat="45.9776050" lon="10.2040380">
	<ele>1641.20</ele>
	<time>2025-08-16T06:53:23.000Z</time>
</trkpt>
<trkpt lat="45.9776100" lon="10.2040330">
	<ele>1641.40</ele>
	<time>2025-08-16T06:53:24.000Z</time>
</trkpt>
<trkpt lat="45.9776110" lon="10.2040340">
	<ele>1641.80</ele>
	<time>2025-08-16T06:53:25.000Z</time>
</trkpt>
<trkpt lat="45.9776160" lon="10.2040260">
	<ele>1642.00</ele>
	<time>2025-08-16T06:53:26.000Z</time>
</trkpt>
<trkpt lat="45.9776100" lon="10.2040190">
	<ele>1642.00</ele>
	<time>2025-08-16T06:53:27.000Z</time>
</trkpt>
<trkpt lat="45.9776080" lon="10.2040170">
	<ele>1642.20</ele>
	<time>2025-08-16T06:53:28.000Z</time>
</trkpt>
<trkpt lat="45.9776050" lon="10.2040150">
	<ele>1642.20</ele>
	<time>2025-08-16T06:53:29.000Z</time>
</trkpt>
<trkpt lat="45.9776080" lon="10.2040190">
	<ele>1642.40</ele>
	<time>2025-08-16T06:53:30.000Z</time>
</trkpt>
<trkpt lat="45.9776130" lon="10.2040170">
	<ele>1642.40</ele>
	<time>2025-08-16T06:53:31.000Z</time>
</trkpt>
<trkpt lat="45.9776180" lon="10.2040190">
	<ele>1642.40</ele>
	<time>2025-08-16T06:53:32.000Z</time>
</trkpt>
<trkpt lat="45.9776220" lon="10.2040170">
	<ele>1642.40</ele>
	<time>2025-08-16T06:53:33.000Z</time>
</trkpt>
<trkpt lat="45.9776280" lon="10.2040160">
	<ele>1642.40</ele>
	<time>2025-08-16T06:53:34.000Z</time>
</trkpt>
<trkpt lat="45.9776310" lon="10.2040140">
	<ele>1642.60</ele>
	<time>2025-08-16T06:53:35.000Z</time>
</trkpt>
<trkpt lat="45.9776340" lon="10.2040140">
	<ele>1642.60</ele>
	<time>2025-08-16T06:53:36.000Z</time>
</trkpt>
<trkpt lat="45.9776300" lon="10.2040100">
	<ele>1642.80</ele>
	<time>2025-08-16T06:53:37.000Z</time>
</trkpt>
<trkpt lat="45.9776290" lon="10.2040130">
	<ele>1642.80</ele>
	<time>2025-08-16T06:53:38.000Z</time>
</trkpt>
<trkpt lat="45.9776290" lon="10.2040110">
	<ele>1642.80</ele>
	<time>2025-08-16T06:53:39.000Z</time>
</trkpt>
<trkpt lat="45.9776250" lon="10.2040120">
	<ele>1643.00</ele>
	<time>2025-08-16T06:53:40.000Z</time>
</trkpt>
<trkpt lat="45.9776230" lon="10.2040140">
	<ele>1643.20</ele>
	<time>2025-08-16T06:53:41.000Z</time>
</trkpt>
<trkpt lat="45.9776240" lon="10.2040170">
	<ele>1643.20</ele>
	<time>2025-08-16T06:53:42.000Z</time>
</trkpt>
<trkpt lat="45.9776290" lon="10.2040140">
	<ele>1643.20</ele>
	<time>2025-08-16T06:53:43.000Z</time>
</trkpt>
<trkpt lat="45.9776340" lon="10.2040110">
	<ele>1643.20</ele>
	<time>2025-08-16T06:53:44.000Z</time>
</trkpt>
<trkpt lat="45.9776450" lon="10.2040100">
	<ele>1643.20</ele>
	<time>2025-08-16T06:53:45.000Z</time>
</trkpt>
<trkpt lat="45.9776490" lon="10.2040090">
	<ele>1643.20</ele>
	<time>2025-08-16T06:53:46.000Z</time>
</trkpt>
<trkpt lat="45.9776530" lon="10.2040110">
	<ele>1643.20</ele>
	<time>2025-08-16T06:53:47.000Z</time>
</trkpt>
<trkpt lat="45.9776560" lon="10.2040110">
	<ele>1643.20</ele>
	<time>2025-08-16T06:53:48.000Z</time>
</trkpt>
<trkpt lat="45.9776580" lon="10.2040120">
	<ele>1643.20</ele>
	<time>2025-08-16T06:53:49.000Z</time>
</trkpt>
<trkpt lat="45.9776590" lon="10.2040120">
	<ele>1643.40</ele>
	<time>2025-08-16T06:53:50.000Z</time>
</trkpt>
<trkpt lat="45.9776590" lon="10.2040130">
	<ele>1643.40</ele>
	<time>2025-08-16T06:53:51.000Z</time>
</trkpt>
<trkpt lat="45.9776600" lon="10.2040130">
	<ele>1643.60</ele>
	<time>2025-08-16T06:53:52.000Z</time>
</trkpt>
<trkpt lat="45.9776630" lon="10.2040140">
	<ele>1643.60</ele>
	<time>2025-08-16T06:53:53.000Z</time>
</trkpt>
<trkpt lat="45.9776650" lon="10.2040150">
	<ele>1643.60</ele>
	<time>2025-08-16T06:53:54.000Z</time>
</trkpt>
<trkpt lat="45.9776670" lon="10.2040170">
	<ele>1643.40</ele>
	<time>2025-08-16T06:53:55.000Z</time>
</trkpt>
<trkpt lat="45.9776670" lon="10.2040210">
	<ele>1643.40</ele>
	<time>2025-08-16T06:53:56.000Z</time>
</trkpt>
<trkpt lat="45.9776650" lon="10.2040240">
	<ele>1643.40</ele>
	<time>2025-08-16T06:53:57.000Z</time>
</trkpt>
<trkpt lat="45.9776640" lon="10.2040250">
	<ele>1643.40</ele>
	<time>2025-08-16T06:53:58.000Z</time>
</trkpt>
<trkpt lat="45.9776630" lon="10.2040260">
	<ele>1643.40</ele>
	<time>2025-08-16T06:53:59.000Z</time>
</trkpt>
<trkpt lat="45.9776630" lon="10.2040260">
	<ele>1643.40</ele>
	<time>2025-08-16T06:54:00.000Z</time>
</trkpt>
<trkpt lat="45.9776630" lon="10.2040260">
	<ele>1643.40</ele>
	<time>2025-08-16T06:54:01.000Z</time>
</trkpt>
<trkpt lat="45.9776630" lon="10.2040260">
	<ele>1643.40</ele>
	<time>2025-08-16T06:54:02.000Z</time>
</trkpt>
<trkpt lat="45.9776630" lon="10.2040260">
	<ele>1643.40</ele>
	<time>2025-08-16T06:54:03.000Z</time>
</trkpt>
<trkpt lat="45.9776630" lon="10.2040260">
	<ele>1643.40</ele>
	<time>2025-08-16T06:54:04.000Z</time>
</trkpt>
<trkpt lat="45.9776630" lon="10.2040260">
	<ele>1643.40</ele>
	<time>2025-08-16T06:54:05.000Z</time>
</trkpt>
<trkpt lat="45.9776630" lon="10.2040260">
	<ele>1643.60</ele>
	<time>2025-08-16T06:54:06.000Z</time>
</trkpt>
<trkpt lat="45.9776630" lon="10.2040260">
	<ele>1643.80</ele>
	<time>2025-08-16T06:54:07.000Z</time>
</trkpt>
<trkpt lat="45.9776630" lon="10.2040260">
	<ele>1644.00</ele>
	<time>2025-08-16T06:54:08.000Z</time>
</trkpt>
<trkpt lat="45.9776630" lon="10.2040260">
	<ele>1644.20</ele>
	<time>2025-08-16T06:54:09.000Z</time>
</trkpt>
<trkpt lat="45.9776680" lon="10.2040200">
	<ele>1644.40</ele>
	<time>2025-08-16T06:54:10.000Z</time>
</trkpt>
<trkpt lat="45.9776810" lon="10.2040070">
	<ele>1644.60</ele>
	<time>2025-08-16T06:54:11.000Z</time>
</trkpt>
<trkpt lat="45.9776930" lon="10.2039930">
	<ele>1644.80</ele>
	<time>2025-08-16T06:54:12.000Z</time>
</trkpt>
<trkpt lat="45.9777020" lon="10.2039740">
	<ele>1645.00</ele>
	<time>2025-08-16T06:54:13.000Z</time>
</trkpt>
<trkpt lat="45.9777110" lon="10.2039550">
	<ele>1645.20</ele>
	<time>2025-08-16T06:54:14.000Z</time>
</trkpt>
<trkpt lat="45.9777220" lon="10.2039400">
	<ele>1645.40</ele>
	<time>2025-08-16T06:54:15.000Z</time>
</trkpt>
<trkpt lat="45.9777320" lon="10.2039260">
	<ele>1645.60</ele>
	<time>2025-08-16T06:54:16.000Z</time>
</trkpt>
<trkpt lat="45.9777440" lon="10.2039070">
	<ele>1646.00</ele>
	<time>2025-08-16T06:54:17.000Z</time>
</trkpt>
<trkpt lat="45.9777570" lon="10.2038920">
	<ele>1646.20</ele>
	<time>2025-08-16T06:54:18.000Z</time>
</trkpt>
<trkpt lat="45.9777690" lon="10.2038780">
	<ele>1646.40</ele>
	<time>2025-08-16T06:54:19.000Z</time>
</trkpt>
<trkpt lat="45.9777780" lon="10.2038700">
	<ele>1646.60</ele>
	<time>2025-08-16T06:54:20.000Z</time>
</trkpt>
<trkpt lat="45.9777860" lon="10.2038610">
	<ele>1646.80</ele>
	<time>2025-08-16T06:54:21.000Z</time>
</trkpt>
<trkpt lat="45.9777950" lon="10.2038510">
	<ele>1647.00</ele>
	<time>2025-08-16T06:54:22.000Z</time>
</trkpt>
<trkpt lat="45.9778030" lon="10.2038430">
	<ele>1647.20</ele>
	<time>2025-08-16T06:54:23.000Z</time>
</trkpt>
<trkpt lat="45.9778110" lon="10.2038350">
	<ele>1647.20</ele>
	<time>2025-08-16T06:54:24.000Z</time>
</trkpt>
<trkpt lat="45.9778230" lon="10.2038290">
	<ele>1647.40</ele>
	<time>2025-08-16T06:54:25.000Z</time>
</trkpt>
<trkpt lat="45.9778320" lon="10.2038230">
	<ele>1647.60</ele>
	<time>2025-08-16T06:54:26.000Z</time>
</trkpt>
<trkpt lat="45.9778390" lon="10.2038160">
	<ele>1647.80</ele>
	<time>2025-08-16T06:54:27.000Z</time>
</trkpt>
<trkpt lat="45.9778450" lon="10.2038100">
	<ele>1647.80</ele>
	<time>2025-08-16T06:54:28.000Z</time>
</trkpt>
<trkpt lat="45.9778530" lon="10.2038040">
	<ele>1648.00</ele>
	<time>2025-08-16T06:54:29.000Z</time>
</trkpt>
<trkpt lat="45.9778620" lon="10.2038010">
	<ele>1648.20</ele>
	<time>2025-08-16T06:54:30.000Z</time>
</trkpt>
<trkpt lat="45.9778720" lon="10.2037940">
	<ele>1648.20</ele>
	<time>2025-08-16T06:54:31.000Z</time>
</trkpt>
<trkpt lat="45.9778800" lon="10.2037870">
	<ele>1648.20</ele>
	<time>2025-08-16T06:54:32.000Z</time>
</trkpt>
<trkpt lat="45.9778830" lon="10.2037830">
	<ele>1648.40</ele>
	<time>2025-08-16T06:54:33.000Z</time>
</trkpt>
<trkpt lat="45.9778840" lon="10.2037810">
	<ele>1648.60</ele>
	<time>2025-08-16T06:54:34.000Z</time>
</trkpt>
<trkpt lat="45.9778840" lon="10.2037800">
	<ele>1648.80</ele>
	<time>2025-08-16T06:54:35.000Z</time>
</trkpt>
<trkpt lat="45.9778870" lon="10.2037760">
	<ele>1649.00</ele>
	<time>2025-08-16T06:54:36.000Z</time>
</trkpt>
<trkpt lat="45.9778890" lon="10.2037770">
	<ele>1649.00</ele>
	<time>2025-08-16T06:54:37.000Z</time>
</trkpt>
<trkpt lat="45.9778910" lon="10.2037760">
	<ele>1649.20</ele>
	<time>2025-08-16T06:54:38.000Z</time>
</trkpt>
<trkpt lat="45.9778890" lon="10.2037710">
	<ele>1649.20</ele>
	<time>2025-08-16T06:54:39.000Z</time>
</trkpt>
<trkpt lat="45.9778820" lon="10.2037640">
	<ele>1649.40</ele>
	<time>2025-08-16T06:54:40.000Z</time>
</trkpt>
<trkpt lat="45.9778790" lon="10.2037620">
	<ele>1649.60</ele>
	<time>2025-08-16T06:54:41.000Z</time>
</trkpt>
<trkpt lat="45.9778730" lon="10.2037570">
	<ele>1649.60</ele>
	<time>2025-08-16T06:54:42.000Z</time>
</trkpt>
<trkpt lat="45.9778740" lon="10.2037560">
	<ele>1649.80</ele>
	<time>2025-08-16T06:54:43.000Z</time>
</trkpt>
<trkpt lat="45.9778730" lon="10.2037550">
	<ele>1649.80</ele>
	<time>2025-08-16T06:54:44.000Z</time>
</trkpt>
<trkpt lat="45.9778730" lon="10.2037550">
	<ele>1649.80</ele>
	<time>2025-08-16T06:54:45.000Z</time>
</trkpt>
<trkpt lat="45.9778730" lon="10.2037550">
	<ele>1649.80</ele>
	<time>2025-08-16T06:54:46.000Z</time>
</trkpt>
<trkpt lat="45.9778760" lon="10.2037530">
	<ele>1649.80</ele>
	<time>2025-08-16T06:54:47.000Z</time>
</trkpt>
<trkpt lat="45.9778830" lon="10.2037500">
	<ele>1650.00</ele>
	<time>2025-08-16T06:54:48.000Z</time>
</trkpt>
<trkpt lat="45.9778910" lon="10.2037420">
	<ele>1650.00</ele>
	<time>2025-08-16T06:54:49.000Z</time>
</trkpt>
<trkpt lat="45.9778970" lon="10.2037320">
	<ele>1650.00</ele>
	<time>2025-08-16T06:54:50.000Z</time>
</trkpt>
<trkpt lat="45.9779100" lon="10.2037230">
	<ele>1650.00</ele>
	<time>2025-08-16T06:54:51.000Z</time>
</trkpt>
<trkpt lat="45.9779230" lon="10.2037130">
	<ele>1650.20</ele>
	<time>2025-08-16T06:54:52.000Z</time>
</trkpt>
<trkpt lat="45.9779380" lon="10.2037030">
	<ele>1650.40</ele>
	<time>2025-08-16T06:54:53.000Z</time>
</trkpt>
<trkpt lat="45.9779460" lon="10.2036930">
	<ele>1650.60</ele>
	<time>2025-08-16T06:54:54.000Z</time>
</trkpt>
<trkpt lat="45.9779590" lon="10.2036770">
	<ele>1650.60</ele>
	<time>2025-08-16T06:54:55.000Z</time>
</trkpt>
<trkpt lat="45.9779710" lon="10.2036620">
	<ele>1650.80</ele>
	<time>2025-08-16T06:54:56.000Z</time>
</trkpt>
<trkpt lat="45.9779790" lon="10.2036560">
	<ele>1651.00</ele>
	<time>2025-08-16T06:54:57.000Z</time>
</trkpt>
<trkpt lat="45.9779890" lon="10.2036500">
	<ele>1651.20</ele>
	<time>2025-08-16T06:54:58.000Z</time>
</trkpt>
<trkpt lat="45.9779960" lon="10.2036440">
	<ele>1651.40</ele>
	<time>2025-08-16T06:54:59.000Z</time>
</trkpt>
<trkpt lat="45.9780000" lon="10.2036360">
	<ele>1651.40</ele>
	<time>2025-08-16T06:55:00.000Z</time>
</trkpt>
<trkpt lat="45.9780040" lon="10.2036260">
	<ele>1651.60</ele>
	<time>2025-08-16T06:55:01.000Z</time>
</trkpt>
<trkpt lat="45.9780090" lon="10.2036160">
	<ele>1652.00</ele>
	<time>2025-08-16T06:55:02.000Z</time>
</trkpt>
<trkpt lat="45.9780160" lon="10.2036100">
	<ele>1652.20</ele>
	<time>2025-08-16T06:55:03.000Z</time>
</trkpt>
<trkpt lat="45.9780190" lon="10.2036040">
	<ele>1652.40</ele>
	<time>2025-08-16T06:55:04.000Z</time>
</trkpt>
<trkpt lat="45.9780260" lon="10.2035950">
	<ele>1652.60</ele>
	<time>2025-08-16T06:55:05.000Z</time>
</trkpt>
<trkpt lat="45.9780330" lon="10.2035830">
	<ele>1652.80</ele>
	<time>2025-08-16T06:55:06.000Z</time>
</trkpt>
<trkpt lat="45.9780420" lon="10.2035690">
	<ele>1653.00</ele>
	<time>2025-08-16T06:55:07.000Z</time>
</trkpt>
<trkpt lat="45.9780480" lon="10.2035580">
	<ele>1653.20</ele>
	<time>2025-08-16T06:55:08.000Z</time>
</trkpt>
<trkpt lat="45.9780560" lon="10.2035500">
	<ele>1653.40</ele>
	<time>2025-08-16T06:55:09.000Z</time>
</trkpt>
<trkpt lat="45.9780610" lon="10.2035400">
	<ele>1653.60</ele>
	<time>2025-08-16T06:55:10.000Z</time>
</trkpt>
<trkpt lat="45.9780660" lon="10.2035330">
	<ele>1653.80</ele>
	<time>2025-08-16T06:55:11.000Z</time>
</trkpt>
<trkpt lat="45.9780710" lon="10.2035220">
	<ele>1654.00</ele>
	<time>2025-08-16T06:55:12.000Z</time>
</trkpt>
<trkpt lat="45.9780740" lon="10.2035080">
	<ele>1654.20</ele>
	<time>2025-08-16T06:55:13.000Z</time>
</trkpt>
<trkpt lat="45.9780750" lon="10.2034990">
	<ele>1654.40</ele>
	<time>2025-08-16T06:55:14.000Z</time>
</trkpt>
<trkpt lat="45.9780760" lon="10.2034870">
	<ele>1654.60</ele>
	<time>2025-08-16T06:55:15.000Z</time>
</trkpt>
<trkpt lat="45.9780760" lon="10.2034810">
	<ele>1655.00</ele>
	<time>2025-08-16T06:55:16.000Z</time>
</trkpt>
<trkpt lat="45.9780740" lon="10.2034740">
	<ele>1655.00</ele>
	<time>2025-08-16T06:55:17.000Z</time>
</trkpt>
<trkpt lat="45.9780690" lon="10.2034680">
	<ele>1655.20</ele>
	<time>2025-08-16T06:55:18.000Z</time>
</trkpt>
<trkpt lat="45.9780670" lon="10.2034630">
	<ele>1655.40</ele>
	<time>2025-08-16T06:55:19.000Z</time>
</trkpt>
<trkpt lat="45.9780670" lon="10.2034600">
	<ele>1655.60</ele>
	<time>2025-08-16T06:55:20.000Z</time>
</trkpt>
<trkpt lat="45.9780670" lon="10.2034600">
	<ele>1655.80</ele>
	<time>2025-08-16T06:55:21.000Z</time>
</trkpt>
<trkpt lat="45.9780670" lon="10.2034600">
	<ele>1656.00</ele>
	<time>2025-08-16T06:55:22.000Z</time>
</trkpt>
<trkpt lat="45.9780670" lon="10.2034590">
	<ele>1656.20</ele>
	<time>2025-08-16T06:55:23.000Z</time>
</trkpt>
<trkpt lat="45.9780670" lon="10.2034600">
	<ele>1656.20</ele>
	<time>2025-08-16T06:55:24.000Z</time>
</trkpt>
<trkpt lat="45.9780660" lon="10.2034620">
	<ele>1656.40</ele>
	<time>2025-08-16T06:55:25.000Z</time>
</trkpt>
<trkpt lat="45.9780650" lon="10.2034610">
	<ele>1656.40</ele>
	<time>2025-08-16T06:55:26.000Z</time>
</trkpt>
<trkpt lat="45.9780670" lon="10.2034650">
	<ele>1656.40</ele>
	<time>2025-08-16T06:55:27.000Z</time>
</trkpt>
<trkpt lat="45.9780680" lon="10.2034670">
	<ele>1656.40</ele>
	<time>2025-08-16T06:55:28.000Z</time>
</trkpt>
<trkpt lat="45.9780680" lon="10.2034690">
	<ele>1656.40</ele>
	<time>2025-08-16T06:55:29.000Z</time>
</trkpt>
<trkpt lat="45.9780660" lon="10.2034680">
	<ele>1656.40</ele>
	<time>2025-08-16T06:55:30.000Z</time>
</trkpt>
<trkpt lat="45.9780660" lon="10.2034670">
	<ele>1656.20</ele>
	<time>2025-08-16T06:55:31.000Z</time>
</trkpt>
<trkpt lat="45.9780660" lon="10.2034660">
	<ele>1656.20</ele>
	<time>2025-08-16T06:55:32.000Z</time>
</trkpt>
<trkpt lat="45.9780660" lon="10.2034660">
	<ele>1656.20</ele>
	<time>2025-08-16T06:55:33.000Z</time>
</trkpt>
<trkpt lat="45.9780660" lon="10.2034660">
	<ele>1656.20</ele>
	<time>2025-08-16T06:55:34.000Z</time>
</trkpt>
<trkpt lat="45.9780660" lon="10.2034660">
	<ele>1656.20</ele>
	<time>2025-08-16T06:55:35.000Z</time>
</trkpt>
<trkpt lat="45.9780660" lon="10.2034660">
	<ele>1656.20</ele>
	<time>2025-08-16T06:55:36.000Z</time>
</trkpt>
<trkpt lat="45.9780660" lon="10.2034660">
	<ele>1656.20</ele>
	<time>2025-08-16T06:55:37.000Z</time>
</trkpt>
<trkpt lat="45.9780660" lon="10.2034660">
	<ele>1656.20</ele>
	<time>2025-08-16T06:55:38.000Z</time>
</trkpt>
<trkpt lat="45.9780660" lon="10.2034660">
	<ele>1656.20</ele>
	<time>2025-08-16T06:55:39.000Z</time>
</trkpt>
<trkpt lat="45.9780660" lon="10.2034660">
	<ele>1656.20</ele>
	<time>2025-08-16T06:55:40.000Z</time>
</trkpt>
<trkpt lat="45.9780660" lon="10.2034660">
	<ele>1656.20</ele>
	<time>2025-08-16T06:55:41.000Z</time>
</trkpt>
<trkpt lat="45.9780660" lon="10.2034660">
	<ele>1656.20</ele>
	<time>2025-08-16T06:55:42.000Z</time>
</trkpt>
<trkpt lat="45.9780660" lon="10.2034660">
	<ele>1656.20</ele>
	<time>2025-08-16T06:55:43.000Z</time>
</trkpt>
<trkpt lat="45.9780660" lon="10.2034650">
	<ele>1656.20</ele>
	<time>2025-08-16T06:55:44.000Z</time>
</trkpt>
<trkpt lat="45.9780660" lon="10.2034620">
	<ele>1656.20</ele>
	<time>2025-08-16T06:55:45.000Z</time>
</trkpt>
<trkpt lat="45.9780660" lon="10.2034620">
	<ele>1656.20</ele>
	<time>2025-08-16T06:55:46.000Z</time>
</trkpt>
<trkpt lat="45.9780660" lon="10.2034620">
	<ele>1656.20</ele>
	<time>2025-08-16T06:55:47.000Z</time>
</trkpt>
<trkpt lat="45.9780660" lon="10.2034620">
	<ele>1656.20</ele>
	<time>2025-08-16T06:55:48.000Z</time>
</trkpt>
<trkpt lat="45.9780660" lon="10.2034620">
	<ele>1656.20</ele>
	<time>2025-08-16T06:55:49.000Z</time>
</trkpt>
<trkpt lat="45.9780690" lon="10.2034620">
	<ele>1656.20</ele>
	<time>2025-08-16T06:55:50.000Z</time>
</trkpt>
<trkpt lat="45.9780740" lon="10.2034510">
	<ele>1656.20</ele>
	<time>2025-08-16T06:55:51.000Z</time>
</trkpt>
<trkpt lat="45.9780810" lon="10.2034430">
	<ele>1656.20</ele>
	<time>2025-08-16T06:55:52.000Z</time>
</trkpt>
<trkpt lat="45.9780860" lon="10.2034330">
	<ele>1656.20</ele>
	<time>2025-08-16T06:55:53.000Z</time>
</trkpt>
<trkpt lat="45.9780940" lon="10.2034220">
	<ele>1656.20</ele>
	<time>2025-08-16T06:55:54.000Z</time>
</trkpt>
<trkpt lat="45.9781030" lon="10.2034080">
	<ele>1656.20</ele>
	<time>2025-08-16T06:55:55.000Z</time>
</trkpt>
<trkpt lat="45.9781140" lon="10.2033940">
	<ele>1656.20</ele>
	<time>2025-08-16T06:55:56.000Z</time>
</trkpt>
<trkpt lat="45.9781220" lon="10.2033820">
	<ele>1656.20</ele>
	<time>2025-08-16T06:55:57.000Z</time>
</trkpt>
<trkpt lat="45.9781290" lon="10.2033700">
	<ele>1657.00</ele>
	<time>2025-08-16T06:55:58.000Z</time>
</trkpt>
<trkpt lat="45.9781370" lon="10.2033600">
	<ele>1657.40</ele>
	<time>2025-08-16T06:55:59.000Z</time>
</trkpt>
<trkpt lat="45.9781410" lon="10.2033500">
	<ele>1657.60</ele>
	<time>2025-08-16T06:56:00.000Z</time>
</trkpt>
<trkpt lat="45.9781410" lon="10.2033410">
	<ele>1657.80</ele>
	<time>2025-08-16T06:56:01.000Z</time>
</trkpt>
<trkpt lat="45.9781470" lon="10.2033290">
	<ele>1658.00</ele>
	<time>2025-08-16T06:56:02.000Z</time>
</trkpt>
<trkpt lat="45.9781550" lon="10.2033160">
	<ele>1658.20</ele>
	<time>2025-08-16T06:56:03.000Z</time>
</trkpt>
<trkpt lat="45.9781620" lon="10.2033040">
	<ele>1658.40</ele>
	<time>2025-08-16T06:56:04.000Z</time>
</trkpt>
<trkpt lat="45.9781670" lon="10.2032910">
	<ele>1658.40</ele>
	<time>2025-08-16T06:56:05.000Z</time>
</trkpt>
<trkpt lat="45.9781660" lon="10.2032790">
	<ele>1658.60</ele>
	<time>2025-08-16T06:56:06.000Z</time>
</trkpt>
<trkpt lat="45.9781710" lon="10.2032590">
	<ele>1658.60</ele>
	<time>2025-08-16T06:56:07.000Z</time>
</trkpt>
<trkpt lat="45.9781750" lon="10.2032440">
	<ele>1658.60</ele>
	<time>2025-08-16T06:56:08.000Z</time>
</trkpt>
<trkpt lat="45.9781800" lon="10.2032270">
	<ele>1659.00</ele>
	<time>2025-08-16T06:56:09.000Z</time>
</trkpt>
<trkpt lat="45.9781810" lon="10.2032190">
	<ele>1659.20</ele>
	<time>2025-08-16T06:56:10.000Z</time>
</trkpt>
<trkpt lat="45.9781840" lon="10.2032130">
	<ele>1659.40</ele>
	<time>2025-08-16T06:56:11.000Z</time>
</trkpt>
<trkpt lat="45.9781940" lon="10.2032060">
	<ele>1659.40</ele>
	<time>2025-08-16T06:56:12.000Z</time>
</trkpt>
<trkpt lat="45.9782060" lon="10.2031940">
	<ele>1659.60</ele>
	<time>2025-08-16T06:56:13.000Z</time>
</trkpt>
<trkpt lat="45.9782140" lon="10.2031860">
	<ele>1659.80</ele>
	<time>2025-08-16T06:56:14.000Z</time>
</trkpt>
<trkpt lat="45.9782110" lon="10.2031790">
	<ele>1660.00</ele>
	<time>2025-08-16T06:56:15.000Z</time>
</trkpt>
<trkpt lat="45.9782010" lon="10.2031700">
	<ele>1660.20</ele>
	<time>2025-08-16T06:56:16.000Z</time>
</trkpt>
<trkpt lat="45.9781950" lon="10.2031540">
	<ele>1660.40</ele>
	<time>2025-08-16T06:56:17.000Z</time>
</trkpt>
<trkpt lat="45.9781930" lon="10.2031420">
	<ele>1660.80</ele>
	<time>2025-08-16T06:56:18.000Z</time>
</trkpt>
<trkpt lat="45.9781960" lon="10.2031270">
	<ele>1661.00</ele>
	<time>2025-08-16T06:56:19.000Z</time>
</trkpt>
<trkpt lat="45.9782000" lon="10.2031150">
	<ele>1661.40</ele>
	<time>2025-08-16T06:56:20.000Z</time>
</trkpt>
<trkpt lat="45.9782030" lon="10.2030970">
	<ele>1661.60</ele>
	<time>2025-08-16T06:56:21.000Z</time>
</trkpt>
<trkpt lat="45.9782090" lon="10.2030820">
	<ele>1661.80</ele>
	<time>2025-08-16T06:56:22.000Z</time>
</trkpt>
<trkpt lat="45.9782110" lon="10.2030680">
	<ele>1661.80</ele>
	<time>2025-08-16T06:56:23.000Z</time>
</trkpt>
<trkpt lat="45.9782160" lon="10.2030540">
	<ele>1662.00</ele>
	<time>2025-08-16T06:56:24.000Z</time>
</trkpt>
<trkpt lat="45.9782240" lon="10.2030410">
	<ele>1662.20</ele>
	<time>2025-08-16T06:56:25.000Z</time>
</trkpt>
<trkpt lat="45.9782290" lon="10.2030270">
	<ele>1662.40</ele>
	<time>2025-08-16T06:56:26.000Z</time>
</trkpt>
<trkpt lat="45.9782340" lon="10.2030130">
	<ele>1662.60</ele>
	<time>2025-08-16T06:56:27.000Z</time>
</trkpt>
<trkpt lat="45.9782370" lon="10.2030010">
	<ele>1662.80</ele>
	<time>2025-08-16T06:56:28.000Z</time>
</trkpt>
<trkpt lat="45.9782380" lon="10.2029880">
	<ele>1662.80</ele>
	<time>2025-08-16T06:56:29.000Z</time>
</trkpt>
<trkpt lat="45.9782360" lon="10.2029750">
	<ele>1662.80</ele>
	<time>2025-08-16T06:56:30.000Z</time>
</trkpt>
<trkpt lat="45.9782380" lon="10.2029640">
	<ele>1663.00</ele>
	<time>2025-08-16T06:56:31.000Z</time>
</trkpt>
<trkpt lat="45.9782420" lon="10.2029530">
	<ele>1663.00</ele>
	<time>2025-08-16T06:56:32.000Z</time>
</trkpt>
<trkpt lat="45.9782440" lon="10.2029420">
	<ele>1663.20</ele>
	<time>2025-08-16T06:56:33.000Z</time>
</trkpt>
<trkpt lat="45.9782430" lon="10.2029310">
	<ele>1663.20</ele>
	<time>2025-08-16T06:56:34.000Z</time>
</trkpt>
<trkpt lat="45.9782450" lon="10.2029160">
	<ele>1663.20</ele>
	<time>2025-08-16T06:56:35.000Z</time>
</trkpt>
<trkpt lat="45.9782510" lon="10.2029080">
	<ele>1663.40</ele>
	<time>2025-08-16T06:56:36.000Z</time>
</trkpt>
<trkpt lat="45.9782540" lon="10.2028980">
	<ele>1663.60</ele>
	<time>2025-08-16T06:56:37.000Z</time>
</trkpt>
<trkpt lat="45.9782570" lon="10.2028870">
	<ele>1663.80</ele>
	<time>2025-08-16T06:56:38.000Z</time>
</trkpt>
<trkpt lat="45.9782610" lon="10.2028780">
	<ele>1664.00</ele>
	<time>2025-08-16T06:56:39.000Z</time>
</trkpt>
<trkpt lat="45.9782660" lon="10.2028670">
	<ele>1664.20</ele>
	<time>2025-08-16T06:56:40.000Z</time>
</trkpt>
<trkpt lat="45.9782710" lon="10.2028560">
	<ele>1664.20</ele>
	<time>2025-08-16T06:56:41.000Z</time>
</trkpt>
<trkpt lat="45.9782740" lon="10.2028470">
	<ele>1664.40</ele>
	<time>2025-08-16T06:56:42.000Z</time>
</trkpt>
<trkpt lat="45.9782770" lon="10.2028350">
	<ele>1664.60</ele>
	<time>2025-08-16T06:56:43.000Z</time>
</trkpt>
<trkpt lat="45.9782800" lon="10.2028240">
	<ele>1665.00</ele>
	<time>2025-08-16T06:56:44.000Z</time>
</trkpt>
<trkpt lat="45.9782820" lon="10.2028110">
	<ele>1665.20</ele>
	<time>2025-08-16T06:56:45.000Z</time>
</trkpt>
<trkpt lat="45.9782850" lon="10.2027990">
	<ele>1665.40</ele>
	<time>2025-08-16T06:56:46.000Z</time>
</trkpt>
<trkpt lat="45.9782890" lon="10.2027890">
	<ele>1665.60</ele>
	<time>2025-08-16T06:56:47.000Z</time>
</trkpt>
<trkpt lat="45.9782930" lon="10.2027790">
	<ele>1665.80</ele>
	<time>2025-08-16T06:56:48.000Z</time>
</trkpt>
<trkpt lat="45.9782950" lon="10.2027700">
	<ele>1666.00</ele>
	<time>2025-08-16T06:56:49.000Z</time>
</trkpt>
<trkpt lat="45.9782970" lon="10.2027610">
	<ele>1666.00</ele>
	<time>2025-08-16T06:56:50.000Z</time>
</trkpt>
<trkpt lat="45.9782970" lon="10.2027560">
	<ele>1666.20</ele>
	<time>2025-08-16T06:56:51.000Z</time>
</trkpt>
<trkpt lat="45.9783000" lon="10.2027460">
	<ele>1666.40</ele>
	<time>2025-08-16T06:56:52.000Z</time>
</trkpt>
<trkpt lat="45.9783040" lon="10.2027360">
	<ele>1666.60</ele>
	<time>2025-08-16T06:56:53.000Z</time>
</trkpt>
<trkpt lat="45.9783070" lon="10.2027270">
	<ele>1666.80</ele>
	<time>2025-08-16T06:56:54.000Z</time>
</trkpt>
<trkpt lat="45.9783100" lon="10.2027200">
	<ele>1667.00</ele>
	<time>2025-08-16T06:56:55.000Z</time>
</trkpt>
<trkpt lat="45.9783130" lon="10.2027090">
	<ele>1667.20</ele>
	<time>2025-08-16T06:56:56.000Z</time>
</trkpt>
<trkpt lat="45.9783160" lon="10.2026980">
	<ele>1667.40</ele>
	<time>2025-08-16T06:56:57.000Z</time>
</trkpt>
<trkpt lat="45.9783150" lon="10.2026870">
	<ele>1667.60</ele>
	<time>2025-08-16T06:56:58.000Z</time>
</trkpt>
<trkpt lat="45.9783160" lon="10.2026790">
	<ele>1667.80</ele>
	<time>2025-08-16T06:56:59.000Z</time>
</trkpt>
<trkpt lat="45.9783160" lon="10.2026710">
	<ele>1668.20</ele>
	<time>2025-08-16T06:57:00.000Z</time>
</trkpt>
<trkpt lat="45.9783170" lon="10.2026550">
	<ele>1668.40</ele>
	<time>2025-08-16T06:57:01.000Z</time>
</trkpt>
<trkpt lat="45.9783200" lon="10.2026420">
	<ele>1668.40</ele>
	<time>2025-08-16T06:57:02.000Z</time>
</trkpt>
<trkpt lat="45.9783240" lon="10.2026350">
	<ele>1668.60</ele>
	<time>2025-08-16T06:57:03.000Z</time>
</trkpt>
<trkpt lat="45.9783290" lon="10.2026300">
	<ele>1669.00</ele>
	<time>2025-08-16T06:57:04.000Z</time>
</trkpt>
<trkpt lat="45.9783280" lon="10.2026220">
	<ele>1669.20</ele>
	<time>2025-08-16T06:57:05.000Z</time>
</trkpt>
<trkpt lat="45.9783280" lon="10.2026120">
	<ele>1669.20</ele>
	<time>2025-08-16T06:57:06.000Z</time>
</trkpt>
<trkpt lat="45.9783300" lon="10.2026000">
	<ele>1669.40</ele>
	<time>2025-08-16T06:57:07.000Z</time>
</trkpt>
<trkpt lat="45.9783350" lon="10.2025900">
	<ele>1669.60</ele>
	<time>2025-08-16T06:57:08.000Z</time>
</trkpt>
<trkpt lat="45.9783380" lon="10.2025810">
	<ele>1669.80</ele>
	<time>2025-08-16T06:57:09.000Z</time>
</trkpt>
<trkpt lat="45.9783420" lon="10.2025720">
	<ele>1670.00</ele>
	<time>2025-08-16T06:57:10.000Z</time>
</trkpt>
<trkpt lat="45.9783470" lon="10.2025600">
	<ele>1670.20</ele>
	<time>2025-08-16T06:57:11.000Z</time>
</trkpt>
<trkpt lat="45.9783510" lon="10.2025500">
	<ele>1670.60</ele>
	<time>2025-08-16T06:57:12.000Z</time>
</trkpt>
<trkpt lat="45.9783570" lon="10.2025420">
	<ele>1670.60</ele>
	<time>2025-08-16T06:57:13.000Z</time>
</trkpt>
<trkpt lat="45.9783650" lon="10.2025350">
	<ele>1670.80</ele>
	<time>2025-08-16T06:57:14.000Z</time>
</trkpt>
<trkpt lat="45.9783690" lon="10.2025260">
	<ele>1671.00</ele>
	<time>2025-08-16T06:57:15.000Z</time>
</trkpt>
<trkpt lat="45.9783720" lon="10.2025150">
	<ele>1671.00</ele>
	<time>2025-08-16T06:57:16.000Z</time>
</trkpt>
<trkpt lat="45.9783700" lon="10.2025080">
	<ele>1671.20</ele>
	<time>2025-08-16T06:57:17.000Z</time>
</trkpt>
<trkpt lat="45.9783690" lon="10.2024970">
	<ele>1671.40</ele>
	<time>2025-08-16T06:57:18.000Z</time>
</trkpt>
<trkpt lat="45.9783720" lon="10.2024910">
	<ele>1671.60</ele>
	<time>2025-08-16T06:57:19.000Z</time>
</trkpt>
<trkpt lat="45.9783780" lon="10.2024820">
	<ele>1672.00</ele>
	<time>2025-08-16T06:57:20.000Z</time>
</trkpt>
<trkpt lat="45.9783860" lon="10.2024710">
	<ele>1672.20</ele>
	<time>2025-08-16T06:57:21.000Z</time>
</trkpt>
<trkpt lat="45.9783910" lon="10.2024590">
	<ele>1672.40</ele>
	<time>2025-08-16T06:57:22.000Z</time>
</trkpt>
<trkpt lat="45.9783930" lon="10.2024440">
	<ele>1672.40</ele>
	<time>2025-08-16T06:57:23.000Z</time>
</trkpt>
<trkpt lat="45.9783960" lon="10.2024330">
	<ele>1672.60</ele>
	<time>2025-08-16T06:57:24.000Z</time>
</trkpt>
<trkpt lat="45.9784010" lon="10.2024150">
	<ele>1672.60</ele>
	<time>2025-08-16T06:57:25.000Z</time>
</trkpt>
<trkpt lat="45.9784060" lon="10.2024050">
	<ele>1672.80</ele>
	<time>2025-08-16T06:57:26.000Z</time>
</trkpt>
<trkpt lat="45.9784120" lon="10.2023970">
	<ele>1673.00</ele>
	<time>2025-08-16T06:57:27.000Z</time>
</trkpt>
<trkpt lat="45.9784170" lon="10.2023880">
	<ele>1673.20</ele>
	<time>2025-08-16T06:57:28.000Z</time>
</trkpt>
<trkpt lat="45.9784260" lon="10.2023810">
	<ele>1673.20</ele>
	<time>2025-08-16T06:57:29.000Z</time>
</trkpt>
<trkpt lat="45.9784310" lon="10.2023720">
	<ele>1673.40</ele>
	<time>2025-08-16T06:57:30.000Z</time>
</trkpt>
<trkpt lat="45.9784340" lon="10.2023610">
	<ele>1673.60</ele>
	<time>2025-08-16T06:57:31.000Z</time>
</trkpt>
<trkpt lat="45.9784370" lon="10.2023500">
	<ele>1673.60</ele>
	<time>2025-08-16T06:57:32.000Z</time>
</trkpt>
<trkpt lat="45.9784440" lon="10.2023340">
	<ele>1673.80</ele>
	<time>2025-08-16T06:57:33.000Z</time>
</trkpt>
<trkpt lat="45.9784500" lon="10.2023170">
	<ele>1674.00</ele>
	<time>2025-08-16T06:57:34.000Z</time>
</trkpt>
<trkpt lat="45.9784550" lon="10.2023020">
	<ele>1674.20</ele>
	<time>2025-08-16T06:57:35.000Z</time>
</trkpt>
<trkpt lat="45.9784620" lon="10.2022870">
	<ele>1674.40</ele>
	<time>2025-08-16T06:57:36.000Z</time>
</trkpt>
<trkpt lat="45.9784630" lon="10.2022710">
	<ele>1674.60</ele>
	<time>2025-08-16T06:57:37.000Z</time>
</trkpt>
<trkpt lat="45.9784660" lon="10.2022480">
	<ele>1674.60</ele>
	<time>2025-08-16T06:57:38.000Z</time>
</trkpt>
<trkpt lat="45.9784660" lon="10.2022390">
	<ele>1674.80</ele>
	<time>2025-08-16T06:57:39.000Z</time>
</trkpt>
<trkpt lat="45.9784760" lon="10.2022330">
	<ele>1674.80</ele>
	<time>2025-08-16T06:57:40.000Z</time>
</trkpt>
<trkpt lat="45.9784770" lon="10.2022260">
	<ele>1674.80</ele>
	<time>2025-08-16T06:57:41.000Z</time>
</trkpt>
<trkpt lat="45.9784780" lon="10.2022220">
	<ele>1675.00</ele>
	<time>2025-08-16T06:57:42.000Z</time>
</trkpt>
<trkpt lat="45.9784760" lon="10.2022190">
	<ele>1675.20</ele>
	<time>2025-08-16T06:57:43.000Z</time>
</trkpt>
<trkpt lat="45.9784770" lon="10.2022170">
	<ele>1675.20</ele>
	<time>2025-08-16T06:57:44.000Z</time>
</trkpt>
<trkpt lat="45.9784740" lon="10.2022240">
	<ele>1675.40</ele>
	<time>2025-08-16T06:57:45.000Z</time>
</trkpt>
<trkpt lat="45.9784740" lon="10.2022230">
	<ele>1675.40</ele>
	<time>2025-08-16T06:57:46.000Z</time>
</trkpt>
<trkpt lat="45.9784740" lon="10.2022200">
	<ele>1675.60</ele>
	<time>2025-08-16T06:57:47.000Z</time>
</trkpt>
<trkpt lat="45.9784760" lon="10.2022100">
	<ele>1675.60</ele>
	<time>2025-08-16T06:57:48.000Z</time>
</trkpt>
<trkpt lat="45.9784800" lon="10.2021950">
	<ele>1675.60</ele>
	<time>2025-08-16T06:57:49.000Z</time>
</trkpt>
<trkpt lat="45.9784810" lon="10.2021830">
	<ele>1675.80</ele>
	<time>2025-08-16T06:57:50.000Z</time>
</trkpt>
<trkpt lat="45.9784820" lon="10.2021710">
	<ele>1675.80</ele>
	<time>2025-08-16T06:57:51.000Z</time>
</trkpt>
<trkpt lat="45.9784860" lon="10.2021650">
	<ele>1675.80</ele>
	<time>2025-08-16T06:57:52.000Z</time>
</trkpt>
<trkpt lat="45.9784900" lon="10.2021580">
	<ele>1676.00</ele>
	<time>2025-08-16T06:57:53.000Z</time>
</trkpt>
<trkpt lat="45.9784950" lon="10.2021480">
	<ele>1676.00</ele>
	<time>2025-08-16T06:57:54.000Z</time>
</trkpt>
<trkpt lat="45.9785000" lon="10.2021400">
	<ele>1676.20</ele>
	<time>2025-08-16T06:57:55.000Z</time>
</trkpt>
<trkpt lat="45.9785080" lon="10.2021320">
	<ele>1676.40</ele>
	<time>2025-08-16T06:57:56.000Z</time>
</trkpt>
<trkpt lat="45.9785140" lon="10.2021250">
	<ele>1676.60</ele>
	<time>2025-08-16T06:57:57.000Z</time>
</trkpt>
<trkpt lat="45.9785190" lon="10.2021180">
	<ele>1676.80</ele>
	<time>2025-08-16T06:57:58.000Z</time>
</trkpt>
<trkpt lat="45.9785260" lon="10.2021100">
	<ele>1676.80</ele>
	<time>2025-08-16T06:57:59.000Z</time>
</trkpt>
<trkpt lat="45.9785340" lon="10.2021030">
	<ele>1677.00</ele>
	<time>2025-08-16T06:58:00.000Z</time>
</trkpt>
<trkpt lat="45.9785430" lon="10.2020940">
	<ele>1677.00</ele>
	<time>2025-08-16T06:58:01.000Z</time>
</trkpt>
<trkpt lat="45.9785500" lon="10.2020890">
	<ele>1677.20</ele>
	<time>2025-08-16T06:58:02.000Z</time>
</trkpt>
<trkpt lat="45.9785570" lon="10.2020790">
	<ele>1677.40</ele>
	<time>2025-08-16T06:58:03.000Z</time>
</trkpt>
<trkpt lat="45.9785660" lon="10.2020640">
	<ele>1677.40</ele>
	<time>2025-08-16T06:58:04.000Z</time>
</trkpt>
<trkpt lat="45.9785710" lon="10.2020510">
	<ele>1677.60</ele>
	<time>2025-08-16T06:58:05.000Z</time>
</trkpt>
<trkpt lat="45.9785710" lon="10.2020400">
	<ele>1677.60</ele>
	<time>2025-08-16T06:58:06.000Z</time>
</trkpt>
<trkpt lat="45.9785770" lon="10.2020260">
	<ele>1677.60</ele>
	<time>2025-08-16T06:58:07.000Z</time>
</trkpt>
<trkpt lat="45.9785790" lon="10.2020170">
	<ele>1677.80</ele>
	<time>2025-08-16T06:58:08.000Z</time>
</trkpt>
<trkpt lat="45.9785790" lon="10.2020070">
	<ele>1677.80</ele>
	<time>2025-08-16T06:58:09.000Z</time>
</trkpt>
<trkpt lat="45.9785810" lon="10.2019940">
	<ele>1678.00</ele>
	<time>2025-08-16T06:58:10.000Z</time>
</trkpt>
<trkpt lat="45.9785830" lon="10.2019790">
	<ele>1678.20</ele>
	<time>2025-08-16T06:58:11.000Z</time>
</trkpt>
<trkpt lat="45.9785850" lon="10.2019690">
	<ele>1678.40</ele>
	<time>2025-08-16T06:58:12.000Z</time>
</trkpt>
<trkpt lat="45.9785870" lon="10.2019620">
	<ele>1678.60</ele>
	<time>2025-08-16T06:58:13.000Z</time>
</trkpt>
<trkpt lat="45.9785900" lon="10.2019520">
	<ele>1678.80</ele>
	<time>2025-08-16T06:58:14.000Z</time>
</trkpt>
<trkpt lat="45.9785940" lon="10.2019410">
	<ele>1678.80</ele>
	<time>2025-08-16T06:58:15.000Z</time>
</trkpt>
<trkpt lat="45.9785990" lon="10.2019300">
	<ele>1679.00</ele>
	<time>2025-08-16T06:58:16.000Z</time>
</trkpt>
<trkpt lat="45.9786010" lon="10.2019110">
	<ele>1679.00</ele>
	<time>2025-08-16T06:58:17.000Z</time>
</trkpt>
<trkpt lat="45.9786040" lon="10.2018940">
	<ele>1679.20</ele>
	<time>2025-08-16T06:58:18.000Z</time>
</trkpt>
<trkpt lat="45.9786040" lon="10.2018780">
	<ele>1679.20</ele>
	<time>2025-08-16T06:58:19.000Z</time>
</trkpt>
<trkpt lat="45.9786030" lon="10.2018700">
	<ele>1679.40</ele>
	<time>2025-08-16T06:58:20.000Z</time>
</trkpt>
<trkpt lat="45.9785960" lon="10.2018580">
	<ele>1679.40</ele>
	<time>2025-08-16T06:58:21.000Z</time>
</trkpt>
<trkpt lat="45.9785880" lon="10.2018480">
	<ele>1679.60</ele>
	<time>2025-08-16T06:58:22.000Z</time>
</trkpt>
<trkpt lat="45.9785790" lon="10.2018390">
	<ele>1679.80</ele>
	<time>2025-08-16T06:58:23.000Z</time>
</trkpt>
<trkpt lat="45.9785720" lon="10.2018280">
	<ele>1679.80</ele>
	<time>2025-08-16T06:58:24.000Z</time>
</trkpt>
<trkpt lat="45.9785720" lon="10.2018150">
	<ele>1680.00</ele>
	<time>2025-08-16T06:58:25.000Z</time>
</trkpt>
<trkpt lat="45.9785830" lon="10.2018060">
	<ele>1680.00</ele>
	<time>2025-08-16T06:58:26.000Z</time>
</trkpt>
<trkpt lat="45.9785850" lon="10.2018050">
	<ele>1680.00</ele>
	<time>2025-08-16T06:58:27.000Z</time>
</trkpt>
<trkpt lat="45.9785840" lon="10.2018030">
	<ele>1680.00</ele>
	<time>2025-08-16T06:58:28.000Z</time>
</trkpt>
<trkpt lat="45.9785860" lon="10.2017970">
	<ele>1680.00</ele>
	<time>2025-08-16T06:58:29.000Z</time>
</trkpt>
<trkpt lat="45.9785880" lon="10.2017920">
	<ele>1680.00</ele>
	<time>2025-08-16T06:58:30.000Z</time>
</trkpt>
<trkpt lat="45.9785820" lon="10.2017820">
	<ele>1679.80</ele>
	<time>2025-08-16T06:58:31.000Z</time>
</trkpt>
<trkpt lat="45.9785820" lon="10.2017710">
	<ele>1679.60</ele>
	<time>2025-08-16T06:58:32.000Z</time>
</trkpt>
<trkpt lat="45.9785860" lon="10.2017610">
	<ele>1679.60</ele>
	<time>2025-08-16T06:58:33.000Z</time>
</trkpt>
<trkpt lat="45.9785860" lon="10.2017520">
	<ele>1679.40</ele>
	<time>2025-08-16T06:58:34.000Z</time>
</trkpt>
<trkpt lat="45.9785910" lon="10.2017460">
	<ele>1679.40</ele>
	<time>2025-08-16T06:58:35.000Z</time>
</trkpt>
<trkpt lat="45.9785990" lon="10.2017450">
	<ele>1679.20</ele>
	<time>2025-08-16T06:58:36.000Z</time>
</trkpt>
<trkpt lat="45.9786160" lon="10.2017480">
	<ele>1679.00</ele>
	<time>2025-08-16T06:58:37.000Z</time>
</trkpt>
<trkpt lat="45.9786260" lon="10.2017370">
	<ele>1678.80</ele>
	<time>2025-08-16T06:58:38.000Z</time>
</trkpt>
<trkpt lat="45.9786310" lon="10.2017210">
	<ele>1678.40</ele>
	<time>2025-08-16T06:58:39.000Z</time>
</trkpt>
<trkpt lat="45.9786380" lon="10.2017130">
	<ele>1678.20</ele>
	<time>2025-08-16T06:58:40.000Z</time>
</trkpt>
<trkpt lat="45.9786410" lon="10.2017030">
	<ele>1678.20</ele>
	<time>2025-08-16T06:58:41.000Z</time>
</trkpt>
<trkpt lat="45.9786420" lon="10.2016910">
	<ele>1678.00</ele>
	<time>2025-08-16T06:58:42.000Z</time>
</trkpt>
<trkpt lat="45.9786410" lon="10.2016740">
	<ele>1677.80</ele>
	<time>2025-08-16T06:58:43.000Z</time>
</trkpt>
<trkpt lat="45.9786430" lon="10.2016620">
	<ele>1677.60</ele>
	<time>2025-08-16T06:58:44.000Z</time>
</trkpt>
<trkpt lat="45.9786430" lon="10.2016490">
	<ele>1677.40</ele>
	<time>2025-08-16T06:58:45.000Z</time>
</trkpt>
<trkpt lat="45.9786410" lon="10.2016420">
	<ele>1677.20</ele>
	<time>2025-08-16T06:58:46.000Z</time>
</trkpt>
<trkpt lat="45.9786400" lon="10.2016350">
	<ele>1677.00</ele>
	<time>2025-08-16T06:58:47.000Z</time>
</trkpt>
<trkpt lat="45.9786390" lon="10.2016320">
	<ele>1676.80</ele>
	<time>2025-08-16T06:58:48.000Z</time>
</trkpt>
<trkpt lat="45.9786380" lon="10.2016290">
	<ele>1676.60</ele>
	<time>2025-08-16T06:58:49.000Z</time>
</trkpt>
<trkpt lat="45.9786420" lon="10.2016280">
	<ele>1676.40</ele>
	<time>2025-08-16T06:58:50.000Z</time>
</trkpt>
<trkpt lat="45.9786580" lon="10.2016280">
	<ele>1676.20</ele>
	<time>2025-08-16T06:58:51.000Z</time>
</trkpt>
<trkpt lat="45.9786650" lon="10.2016190">
	<ele>1676.00</ele>
	<time>2025-08-16T06:58:52.000Z</time>
</trkpt>
<trkpt lat="45.9786740" lon="10.2016020">
	<ele>1675.60</ele>
	<time>2025-08-16T06:58:53.000Z</time>
</trkpt>
<trkpt lat="45.9786800" lon="10.2015930">
	<ele>1675.40</ele>
	<time>2025-08-16T06:58:54.000Z</time>
</trkpt>
<trkpt lat="45.9786910" lon="10.2015780">
	<ele>1675.20</ele>
	<time>2025-08-16T06:58:55.000Z</time>
</trkpt>
<trkpt lat="45.9787050" lon="10.2015670">
	<ele>1675.00</ele>
	<time>2025-08-16T06:58:56.000Z</time>
</trkpt>
<trkpt lat="45.9787100" lon="10.2015510">
	<ele>1675.00</ele>
	<time>2025-08-16T06:58:57.000Z</time>
</trkpt>
<trkpt lat="45.9787060" lon="10.2015330">
	<ele>1674.80</ele>
	<time>2025-08-16T06:58:58.000Z</time>
</trkpt>
<trkpt lat="45.9787010" lon="10.2015230">
	<ele>1674.60</ele>
	<time>2025-08-16T06:58:59.000Z</time>
</trkpt>
<trkpt lat="45.9787030" lon="10.2015160">
	<ele>1674.40</ele>
	<time>2025-08-16T06:59:00.000Z</time>
</trkpt>
<trkpt lat="45.9787080" lon="10.2015100">
	<ele>1674.40</ele>
	<time>2025-08-16T06:59:01.000Z</time>
</trkpt>
<trkpt lat="45.9787000" lon="10.2014920">
	<ele>1674.20</ele>
	<time>2025-08-16T06:59:02.000Z</time>
</trkpt>
<trkpt lat="45.9786910" lon="10.2014720">
	<ele>1674.20</ele>
	<time>2025-08-16T06:59:03.000Z</time>
</trkpt>
<trkpt lat="45.9786900" lon="10.2014510">
	<ele>1674.00</ele>
	<time>2025-08-16T06:59:04.000Z</time>
</trkpt>
<trkpt lat="45.9786880" lon="10.2014260">
	<ele>1673.80</ele>
	<time>2025-08-16T06:59:05.000Z</time>
</trkpt>
<trkpt lat="45.9786930" lon="10.2013900">
	<ele>1673.80</ele>
	<time>2025-08-16T06:59:06.000Z</time>
</trkpt>
<trkpt lat="45.9786890" lon="10.2013620">
	<ele>1673.60</ele>
	<time>2025-08-16T06:59:07.000Z</time>
</trkpt>
<trkpt lat="45.9786840" lon="10.2013220">
	<ele>1673.60</ele>
	<time>2025-08-16T06:59:08.000Z</time>
</trkpt>
<trkpt lat="45.9786920" lon="10.2012940">
	<ele>1673.60</ele>
	<time>2025-08-16T06:59:09.000Z</time>
</trkpt>
<trkpt lat="45.9787010" lon="10.2012760">
	<ele>1673.40</ele>
	<time>2025-08-16T06:59:10.000Z</time>
</trkpt>
<trkpt lat="45.9787050" lon="10.2012650">
	<ele>1673.40</ele>
	<time>2025-08-16T06:59:11.000Z</time>
</trkpt>
<trkpt lat="45.9787080" lon="10.2012470">
	<ele>1673.40</ele>
	<time>2025-08-16T06:59:12.000Z</time>
</trkpt>
<trkpt lat="45.9787170" lon="10.2012290">
	<ele>1673.40</ele>
	<time>2025-08-16T06:59:13.000Z</time>
</trkpt>
<trkpt lat="45.9787240" lon="10.2012020">
	<ele>1673.40</ele>
	<time>2025-08-16T06:59:14.000Z</time>
</trkpt>
<trkpt lat="45.9787290" lon="10.2011820">
	<ele>1673.40</ele>
	<time>2025-08-16T06:59:15.000Z</time>
</trkpt>
<trkpt lat="45.9787330" lon="10.2011690">
	<ele>1673.60</ele>
	<time>2025-08-16T06:59:16.000Z</time>
</trkpt>
<trkpt lat="45.9787130" lon="10.2011530">
	<ele>1673.80</ele>
	<time>2025-08-16T06:59:17.000Z</time>
</trkpt>
<trkpt lat="45.9787110" lon="10.2011420">
	<ele>1673.80</ele>
	<time>2025-08-16T06:59:18.000Z</time>
</trkpt>
<trkpt lat="45.9787120" lon="10.2011250">
	<ele>1673.80</ele>
	<time>2025-08-16T06:59:19.000Z</time>
</trkpt>
<trkpt lat="45.9787150" lon="10.2011090">
	<ele>1673.80</ele>
	<time>2025-08-16T06:59:20.000Z</time>
</trkpt>
<trkpt lat="45.9787200" lon="10.2010920">
	<ele>1673.80</ele>
	<time>2025-08-16T06:59:21.000Z</time>
</trkpt>
<trkpt lat="45.9787210" lon="10.2010700">
	<ele>1673.80</ele>
	<time>2025-08-16T06:59:22.000Z</time>
</trkpt>
<trkpt lat="45.9787230" lon="10.2010470">
	<ele>1673.80</ele>
	<time>2025-08-16T06:59:23.000Z</time>
</trkpt>
<trkpt lat="45.9787240" lon="10.2010250">
	<ele>1674.00</ele>
	<time>2025-08-16T06:59:24.000Z</time>
</trkpt>
<trkpt lat="45.9787350" lon="10.2010090">
	<ele>1674.00</ele>
	<time>2025-08-16T06:59:25.000Z</time>
</trkpt>
<trkpt lat="45.9787390" lon="10.2009950">
	<ele>1674.00</ele>
	<time>2025-08-16T06:59:26.000Z</time>
</trkpt>
<trkpt lat="45.9787400" lon="10.2009760">
	<ele>1674.00</ele>
	<time>2025-08-16T06:59:27.000Z</time>
</trkpt>
<trkpt lat="45.9787410" lon="10.2009560">
	<ele>1674.00</ele>
	<time>2025-08-16T06:59:28.000Z</time>
</trkpt>
<trkpt lat="45.9787450" lon="10.2009420">
	<ele>1674.20</ele>
	<time>2025-08-16T06:59:29.000Z</time>
</trkpt>
<trkpt lat="45.9787470" lon="10.2009330">
	<ele>1674.20</ele>
	<time>2025-08-16T06:59:30.000Z</time>
</trkpt>
<trkpt lat="45.9787480" lon="10.2009210">
	<ele>1674.20</ele>
	<time>2025-08-16T06:59:31.000Z</time>
</trkpt>
<trkpt lat="45.9787510" lon="10.2009050">
	<ele>1674.40</ele>
	<time>2025-08-16T06:59:32.000Z</time>
</trkpt>
<trkpt lat="45.9787590" lon="10.2008990">
	<ele>1674.40</ele>
	<time>2025-08-16T06:59:33.000Z</time>
</trkpt>
<trkpt lat="45.9787690" lon="10.2008860">
	<ele>1674.60</ele>
	<time>2025-08-16T06:59:34.000Z</time>
</trkpt>
<trkpt lat="45.9787820" lon="10.2008690">
	<ele>1674.60</ele>
	<time>2025-08-16T06:59:35.000Z</time>
</trkpt>
<trkpt lat="45.9787940" lon="10.2008580">
	<ele>1674.60</ele>
	<time>2025-08-16T06:59:36.000Z</time>
</trkpt>
<trkpt lat="45.9788060" lon="10.2008450">
	<ele>1674.60</ele>
	<time>2025-08-16T06:59:37.000Z</time>
</trkpt>
<trkpt lat="45.9788100" lon="10.2008280">
	<ele>1674.80</ele>
	<time>2025-08-16T06:59:38.000Z</time>
</trkpt>
<trkpt lat="45.9788070" lon="10.2008000">
	<ele>1674.80</ele>
	<time>2025-08-16T06:59:39.000Z</time>
</trkpt>
<trkpt lat="45.9788070" lon="10.2007920">
	<ele>1675.00</ele>
	<time>2025-08-16T06:59:40.000Z</time>
</trkpt>
<trkpt lat="45.9788180" lon="10.2007730">
	<ele>1675.00</ele>
	<time>2025-08-16T06:59:41.000Z</time>
</trkpt>
<trkpt lat="45.9788240" lon="10.2007600">
	<ele>1675.00</ele>
	<time>2025-08-16T06:59:42.000Z</time>
</trkpt>
<trkpt lat="45.9788370" lon="10.2007370">
	<ele>1675.00</ele>
	<time>2025-08-16T06:59:43.000Z</time>
</trkpt>
<trkpt lat="45.9788450" lon="10.2007140">
	<ele>1675.20</ele>
	<time>2025-08-16T06:59:44.000Z</time>
</trkpt>
<trkpt lat="45.9788520" lon="10.2007030">
	<ele>1675.40</ele>
	<time>2025-08-16T06:59:45.000Z</time>
</trkpt>
<trkpt lat="45.9788510" lon="10.2007030">
	<ele>1675.40</ele>
	<time>2025-08-16T06:59:46.000Z</time>
</trkpt>
<trkpt lat="45.9788480" lon="10.2007120">
	<ele>1675.40</ele>
	<time>2025-08-16T06:59:47.000Z</time>
</trkpt>
<trkpt lat="45.9788630" lon="10.2007140">
	<ele>1675.40</ele>
	<time>2025-08-16T06:59:48.000Z</time>
</trkpt>
<trkpt lat="45.9788710" lon="10.2006960">
	<ele>1675.20</ele>
	<time>2025-08-16T06:59:49.000Z</time>
</trkpt>
<trkpt lat="45.9788780" lon="10.2006760">
	<ele>1675.20</ele>
	<time>2025-08-16T06:59:50.000Z</time>
</trkpt>
<trkpt lat="45.9788840" lon="10.2006420">
	<ele>1675.20</ele>
	<time>2025-08-16T06:59:51.000Z</time>
</trkpt>
<trkpt lat="45.9788890" lon="10.2006220">
	<ele>1675.00</ele>
	<time>2025-08-16T06:59:52.000Z</time>
</trkpt>
<trkpt lat="45.9788970" lon="10.2005980">
	<ele>1675.00</ele>
	<time>2025-08-16T06:59:53.000Z</time>
</trkpt>
<trkpt lat="45.9789000" lon="10.2005710">
	<ele>1675.00</ele>
	<time>2025-08-16T06:59:54.000Z</time>
</trkpt>
<trkpt lat="45.9788950" lon="10.2005460">
	<ele>1675.00</ele>
	<time>2025-08-16T06:59:55.000Z</time>
</trkpt>
<trkpt lat="45.9788940" lon="10.2005290">
	<ele>1675.00</ele>
	<time>2025-08-16T06:59:56.000Z</time>
</trkpt>
<trkpt lat="45.9788980" lon="10.2005220">
	<ele>1675.00</ele>
	<time>2025-08-16T06:59:57.000Z</time>
</trkpt>
<trkpt lat="45.9789070" lon="10.2005140">
	<ele>1675.00</ele>
	<time>2025-08-16T06:59:58.000Z</time>
</trkpt>
<trkpt lat="45.9789040" lon="10.2005040">
	<ele>1675.00</ele>
	<time>2025-08-16T06:59:59.000Z</time>
</trkpt>
<trkpt lat="45.9789000" lon="10.2004860">
	<ele>1675.00</ele>
	<time>2025-08-16T07:00:00.000Z</time>
</trkpt>
<trkpt lat="45.9788920" lon="10.2004770">
	<ele>1675.00</ele>
	<time>2025-08-16T07:00:01.000Z</time>
</trkpt>
<trkpt lat="45.9788930" lon="10.2004630">
	<ele>1675.00</ele>
	<time>2025-08-16T07:00:02.000Z</time>
</trkpt>
<trkpt lat="45.9789050" lon="10.2004480">
	<ele>1675.00</ele>
	<time>2025-08-16T07:00:03.000Z</time>
</trkpt>
<trkpt lat="45.9789040" lon="10.2004340">
	<ele>1675.00</ele>
	<time>2025-08-16T07:00:04.000Z</time>
</trkpt>
<trkpt lat="45.9789070" lon="10.2004180">
	<ele>1675.20</ele>
	<time>2025-08-16T07:00:05.000Z</time>
</trkpt>
<trkpt lat="45.9789110" lon="10.2004030">
	<ele>1675.20</ele>
	<time>2025-08-16T07:00:06.000Z</time>
</trkpt>
<trkpt lat="45.9789160" lon="10.2003900">
	<ele>1675.40</ele>
	<time>2025-08-16T07:00:07.000Z</time>
</trkpt>
<trkpt lat="45.9788970" lon="10.2003560">
	<ele>1675.40</ele>
	<time>2025-08-16T07:00:08.000Z</time>
</trkpt>
<trkpt lat="45.9789000" lon="10.2003290">
	<ele>1675.80</ele>
	<time>2025-08-16T07:00:09.000Z</time>
</trkpt>
<trkpt lat="45.9789120" lon="10.2003210">
	<ele>1676.00</ele>
	<time>2025-08-16T07:00:10.000Z</time>
</trkpt>
<trkpt lat="45.9789140" lon="10.2003130">
	<ele>1676.20</ele>
	<time>2025-08-16T07:00:11.000Z</time>
</trkpt>
<trkpt lat="45.9789200" lon="10.2003080">
	<ele>1676.40</ele>
	<time>2025-08-16T07:00:12.000Z</time>
</trkpt>
<trkpt lat="45.9789200" lon="10.2003170">
	<ele>1676.60</ele>
	<time>2025-08-16T07:00:13.000Z</time>
</trkpt>
<trkpt lat="45.9789200" lon="10.2003150">
	<ele>1676.80</ele>
	<time>2025-08-16T07:00:14.000Z</time>
</trkpt>
<trkpt lat="45.9789220" lon="10.2003050">
	<ele>1676.80</ele>
	<time>2025-08-16T07:00:15.000Z</time>
</trkpt>
<trkpt lat="45.9789210" lon="10.2003020">
	<ele>1677.00</ele>
	<time>2025-08-16T07:00:16.000Z</time>
</trkpt>
<trkpt lat="45.9789250" lon="10.2002980">
	<ele>1677.20</ele>
	<time>2025-08-16T07:00:17.000Z</time>
</trkpt>
<trkpt lat="45.9789300" lon="10.2002950">
	<ele>1677.40</ele>
	<time>2025-08-16T07:00:18.000Z</time>
</trkpt>
<trkpt lat="45.9789360" lon="10.2002900">
	<ele>1677.60</ele>
	<time>2025-08-16T07:00:19.000Z</time>
</trkpt>
<trkpt lat="45.9789440" lon="10.2002860">
	<ele>1677.80</ele>
	<time>2025-08-16T07:00:20.000Z</time>
</trkpt>
<trkpt lat="45.9789530" lon="10.2002860">
	<ele>1677.80</ele>
	<time>2025-08-16T07:00:21.000Z</time>
</trkpt>
<trkpt lat="45.9789580" lon="10.2002800">
	<ele>1678.20</ele>
	<time>2025-08-16T07:00:22.000Z</time>
</trkpt>
<trkpt lat="45.9789650" lon="10.2002770">
	<ele>1678.20</ele>
	<time>2025-08-16T07:00:23.000Z</time>
</trkpt>
<trkpt lat="45.9789680" lon="10.2002690">
	<ele>1678.40</ele>
	<time>2025-08-16T07:00:24.000Z</time>
</trkpt>
<trkpt lat="45.9789720" lon="10.2002610">
	<ele>1678.60</ele>
	<time>2025-08-16T07:00:25.000Z</time>
</trkpt>
<trkpt lat="45.9789810" lon="10.2002600">
	<ele>1678.60</ele>
	<time>2025-08-16T07:00:26.000Z</time>
</trkpt>
<trkpt lat="45.9789900" lon="10.2002560">
	<ele>1678.60</ele>
	<time>2025-08-16T07:00:27.000Z</time>
</trkpt>
<trkpt lat="45.9789990" lon="10.2002470">
	<ele>1678.80</ele>
	<time>2025-08-16T07:00:28.000Z</time>
</trkpt>
<trkpt lat="45.9790100" lon="10.2002300">
	<ele>1678.80</ele>
	<time>2025-08-16T07:00:29.000Z</time>
</trkpt>
<trkpt lat="45.9790190" lon="10.2002180">
	<ele>1679.00</ele>
	<time>2025-08-16T07:00:30.000Z</time>
</trkpt>
<trkpt lat="45.9790280" lon="10.2002090">
	<ele>1679.20</ele>
	<time>2025-08-16T07:00:31.000Z</time>
</trkpt>
<trkpt lat="45.9790380" lon="10.2002050">
	<ele>1679.40</ele>
	<time>2025-08-16T07:00:32.000Z</time>
</trkpt>
<trkpt lat="45.9790480" lon="10.2002010">
	<ele>1679.60</ele>
	<time>2025-08-16T07:00:33.000Z</time>
</trkpt>
<trkpt lat="45.9790580" lon="10.2001950">
	<ele>1679.60</ele>
	<time>2025-08-16T07:00:34.000Z</time>
</trkpt>
<trkpt lat="45.9790670" lon="10.2001900">
	<ele>1679.80</ele>
	<time>2025-08-16T07:00:35.000Z</time>
</trkpt>
<trkpt lat="45.9790750" lon="10.2001890">
	<ele>1680.00</ele>
	<time>2025-08-16T07:00:36.000Z</time>
</trkpt>
<trkpt lat="45.9790840" lon="10.2001900">
	<ele>1680.20</ele>
	<time>2025-08-16T07:00:37.000Z</time>
</trkpt>
<trkpt lat="45.9790900" lon="10.2001900">
	<ele>1680.20</ele>
	<time>2025-08-16T07:00:38.000Z</time>
</trkpt>
<trkpt lat="45.9790950" lon="10.2001890">
	<ele>1680.40</ele>
	<time>2025-08-16T07:00:39.000Z</time>
</trkpt>
<trkpt lat="45.9791040" lon="10.2001800">
	<ele>1680.40</ele>
	<time>2025-08-16T07:00:40.000Z</time>
</trkpt>
<trkpt lat="45.9791110" lon="10.2001660">
	<ele>1680.40</ele>
	<time>2025-08-16T07:00:41.000Z</time>
</trkpt>
<trkpt lat="45.9791220" lon="10.2001500">
	<ele>1680.60</ele>
	<time>2025-08-16T07:00:42.000Z</time>
</trkpt>
<trkpt lat="45.9791240" lon="10.2001330">
	<ele>1680.80</ele>
	<time>2025-08-16T07:00:43.000Z</time>
</trkpt>
<trkpt lat="45.9791220" lon="10.2001180">
	<ele>1680.80</ele>
	<time>2025-08-16T07:00:44.000Z</time>
</trkpt>
<trkpt lat="45.9791180" lon="10.2001050">
	<ele>1681.00</ele>
	<time>2025-08-16T07:00:45.000Z</time>
</trkpt>
<trkpt lat="45.9791170" lon="10.2000980">
	<ele>1681.20</ele>
	<time>2025-08-16T07:00:46.000Z</time>
</trkpt>
<trkpt lat="45.9791160" lon="10.2000910">
	<ele>1681.20</ele>
	<time>2025-08-16T07:00:47.000Z</time>
</trkpt>
<trkpt lat="45.9791180" lon="10.2000870">
	<ele>1681.40</ele>
	<time>2025-08-16T07:00:48.000Z</time>
</trkpt>
<trkpt lat="45.9791190" lon="10.2000840">
	<ele>1681.40</ele>
	<time>2025-08-16T07:00:49.000Z</time>
</trkpt>
<trkpt lat="45.9791270" lon="10.2000950">
	<ele>1681.60</ele>
	<time>2025-08-16T07:00:50.000Z</time>
</trkpt>
<trkpt lat="45.9791380" lon="10.2001050">
	<ele>1681.80</ele>
	<time>2025-08-16T07:00:51.000Z</time>
</trkpt>
<trkpt lat="45.9791520" lon="10.2001130">
	<ele>1681.80</ele>
	<time>2025-08-16T07:00:52.000Z</time>
</trkpt>
<trkpt lat="45.9791570" lon="10.2001120">
	<ele>1681.80</ele>
	<time>2025-08-16T07:00:53.000Z</time>
</trkpt>
<trkpt lat="45.9791650" lon="10.2001070">
	<ele>1682.00</ele>
	<time>2025-08-16T07:00:54.000Z</time>
</trkpt>
<trkpt lat="45.9791730" lon="10.2001050">
	<ele>1682.20</ele>
	<time>2025-08-16T07:00:55.000Z</time>
</trkpt>
<trkpt lat="45.9791830" lon="10.2001100">
	<ele>1682.40</ele>
	<time>2025-08-16T07:00:56.000Z</time>
</trkpt>
<trkpt lat="45.9791960" lon="10.2001150">
	<ele>1682.40</ele>
	<time>2025-08-16T07:00:57.000Z</time>
</trkpt>
<trkpt lat="45.9792090" lon="10.2001130">
	<ele>1682.40</ele>
	<time>2025-08-16T07:00:58.000Z</time>
</trkpt>
<trkpt lat="45.9792250" lon="10.2001100">
	<ele>1682.60</ele>
	<time>2025-08-16T07:00:59.000Z</time>
</trkpt>
<trkpt lat="45.9792410" lon="10.2001100">
	<ele>1682.60</ele>
	<time>2025-08-16T07:01:00.000Z</time>
</trkpt>
<trkpt lat="45.9792520" lon="10.2001100">
	<ele>1682.60</ele>
	<time>2025-08-16T07:01:01.000Z</time>
</trkpt>
<trkpt lat="45.9792620" lon="10.2001110">
	<ele>1682.60</ele>
	<time>2025-08-16T07:01:02.000Z</time>
</trkpt>
<trkpt lat="45.9792670" lon="10.2001130">
	<ele>1682.80</ele>
	<time>2025-08-16T07:01:03.000Z</time>
</trkpt>
<trkpt lat="45.9792710" lon="10.2001110">
	<ele>1682.80</ele>
	<time>2025-08-16T07:01:04.000Z</time>
</trkpt>
<trkpt lat="45.9792720" lon="10.2001000">
	<ele>1682.80</ele>
	<time>2025-08-16T07:01:05.000Z</time>
</trkpt>
<trkpt lat="45.9792730" lon="10.2000990">
	<ele>1683.00</ele>
	<time>2025-08-16T07:01:06.000Z</time>
</trkpt>
<trkpt lat="45.9792730" lon="10.2001000">
	<ele>1683.00</ele>
	<time>2025-08-16T07:01:07.000Z</time>
</trkpt>
<trkpt lat="45.9792740" lon="10.2001030">
	<ele>1683.00</ele>
	<time>2025-08-16T07:01:08.000Z</time>
</trkpt>
<trkpt lat="45.9792730" lon="10.2001050">
	<ele>1683.00</ele>
	<time>2025-08-16T07:01:09.000Z</time>
</trkpt>
<trkpt lat="45.9792720" lon="10.2001050">
	<ele>1683.00</ele>
	<time>2025-08-16T07:01:10.000Z</time>
</trkpt>
<trkpt lat="45.9792660" lon="10.2001050">
	<ele>1683.00</ele>
	<time>2025-08-16T07:01:11.000Z</time>
</trkpt>
<trkpt lat="45.9792660" lon="10.2001070">
	<ele>1683.00</ele>
	<time>2025-08-16T07:01:12.000Z</time>
</trkpt>
<trkpt lat="45.9792670" lon="10.2001090">
	<ele>1683.00</ele>
	<time>2025-08-16T07:01:13.000Z</time>
</trkpt>
<trkpt lat="45.9792680" lon="10.2001130">
	<ele>1683.00</ele>
	<time>2025-08-16T07:01:14.000Z</time>
</trkpt>
<trkpt lat="45.9792680" lon="10.2001140">
	<ele>1683.00</ele>
	<time>2025-08-16T07:01:15.000Z</time>
</trkpt>
<trkpt lat="45.9792670" lon="10.2001170">
	<ele>1683.00</ele>
	<time>2025-08-16T07:01:16.000Z</time>
</trkpt>
<trkpt lat="45.9792660" lon="10.2001160">
	<ele>1682.80</ele>
	<time>2025-08-16T07:01:17.000Z</time>
</trkpt>
<trkpt lat="45.9792660" lon="10.2001160">
	<ele>1682.80</ele>
	<time>2025-08-16T07:01:18.000Z</time>
</trkpt>
<trkpt lat="45.9792660" lon="10.2001160">
	<ele>1682.80</ele>
	<time>2025-08-16T07:01:19.000Z</time>
</trkpt>
<trkpt lat="45.9792660" lon="10.2001160">
	<ele>1682.80</ele>
	<time>2025-08-16T07:01:20.000Z</time>
</trkpt>
<trkpt lat="45.9792660" lon="10.2001160">
	<ele>1682.80</ele>
	<time>2025-08-16T07:01:21.000Z</time>
</trkpt>
<trkpt lat="45.9792660" lon="10.2001160">
	<ele>1682.80</ele>
	<time>2025-08-16T07:01:22.000Z</time>
</trkpt>
<trkpt lat="45.9792660" lon="10.2001160">
	<ele>1682.80</ele>
	<time>2025-08-16T07:01:23.000Z</time>
</trkpt>
<trkpt lat="45.9792660" lon="10.2001160">
	<ele>1682.80</ele>
	<time>2025-08-16T07:01:24.000Z</time>
</trkpt>
<trkpt lat="45.9792660" lon="10.2001160">
	<ele>1682.80</ele>
	<time>2025-08-16T07:01:25.000Z</time>
</trkpt>
<trkpt lat="45.9792660" lon="10.2001160">
	<ele>1682.80</ele>
	<time>2025-08-16T07:01:26.000Z</time>
</trkpt>
<trkpt lat="45.9792660" lon="10.2001160">
	<ele>1683.00</ele>
	<time>2025-08-16T07:01:27.000Z</time>
</trkpt>
<trkpt lat="45.9792660" lon="10.2001160">
	<ele>1683.00</ele>
	<time>2025-08-16T07:01:28.000Z</time>
</trkpt>
<trkpt lat="45.9792660" lon="10.2001160">
	<ele>1683.00</ele>
	<time>2025-08-16T07:01:29.000Z</time>
</trkpt>
<trkpt lat="45.9792660" lon="10.2001160">
	<ele>1683.00</ele>
	<time>2025-08-16T07:01:30.000Z</time>
</trkpt>
<trkpt lat="45.9792660" lon="10.2001160">
	<ele>1683.00</ele>
	<time>2025-08-16T07:01:31.000Z</time>
</trkpt>
<trkpt lat="45.9792660" lon="10.2001160">
	<ele>1683.00</ele>
	<time>2025-08-16T07:01:32.000Z</time>
</trkpt>
<trkpt lat="45.9792660" lon="10.2001160">
	<ele>1683.00</ele>
	<time>2025-08-16T07:01:33.000Z</time>
</trkpt>
<trkpt lat="45.9792660" lon="10.2001160">
	<ele>1683.00</ele>
	<time>2025-08-16T07:01:34.000Z</time>
</trkpt>
<trkpt lat="45.9792670" lon="10.2001150">
	<ele>1683.00</ele>
	<time>2025-08-16T07:01:35.000Z</time>
</trkpt>
<trkpt lat="45.9792670" lon="10.2001150">
	<ele>1683.00</ele>
	<time>2025-08-16T07:01:36.000Z</time>
</trkpt>
<trkpt lat="45.9792670" lon="10.2001140">
	<ele>1683.00</ele>
	<time>2025-08-16T07:01:37.000Z</time>
</trkpt>
<trkpt lat="45.9792670" lon="10.2001140">
	<ele>1683.00</ele>
	<time>2025-08-16T07:01:38.000Z</time>
</trkpt>
<trkpt lat="45.9792720" lon="10.2001140">
	<ele>1683.00</ele>
	<time>2025-08-16T07:01:39.000Z</time>
</trkpt>
<trkpt lat="45.9792910" lon="10.2001100">
	<ele>1682.60</ele>
	<time>2025-08-16T07:01:40.000Z</time>
</trkpt>
<trkpt lat="45.9793090" lon="10.2001010">
	<ele>1682.60</ele>
	<time>2025-08-16T07:01:41.000Z</time>
</trkpt>
<trkpt lat="45.9793260" lon="10.2000900">
	<ele>1682.40</ele>
	<time>2025-08-16T07:01:42.000Z</time>
</trkpt>
<trkpt lat="45.9793440" lon="10.2000820">
	<ele>1682.20</ele>
	<time>2025-08-16T07:01:43.000Z</time>
</trkpt>
<trkpt lat="45.9793530" lon="10.2000770">
	<ele>1682.20</ele>
	<time>2025-08-16T07:01:44.000Z</time>
</trkpt>
<trkpt lat="45.9793680" lon="10.2000700">
	<ele>1682.20</ele>
	<time>2025-08-16T07:01:45.000Z</time>
</trkpt>
<trkpt lat="45.9793820" lon="10.2000630">
	<ele>1682.20</ele>
	<time>2025-08-16T07:01:46.000Z</time>
</trkpt>
<trkpt lat="45.9793970" lon="10.2000550">
	<ele>1682.20</ele>
	<time>2025-08-16T07:01:47.000Z</time>
</trkpt>
<trkpt lat="45.9794100" lon="10.2000520">
	<ele>1682.20</ele>
	<time>2025-08-16T07:01:48.000Z</time>
</trkpt>
<trkpt lat="45.9794150" lon="10.2000540">
	<ele>1682.20</ele>
	<time>2025-08-16T07:01:49.000Z</time>
</trkpt>
<trkpt lat="45.9794200" lon="10.2000590">
	<ele>1682.20</ele>
	<time>2025-08-16T07:01:50.000Z</time>
</trkpt>
<trkpt lat="45.9794280" lon="10.2000600">
	<ele>1682.20</ele>
	<time>2025-08-16T07:01:51.000Z</time>
</trkpt>
<trkpt lat="45.9794410" lon="10.2000640">
	<ele>1682.40</ele>
	<time>2025-08-16T07:01:52.000Z</time>
</trkpt>
<trkpt lat="45.9794500" lon="10.2000720">
	<ele>1682.40</ele>
	<time>2025-08-16T07:01:53.000Z</time>
</trkpt>
<trkpt lat="45.9794650" lon="10.2000730">
	<ele>1682.40</ele>
	<time>2025-08-16T07:01:54.000Z</time>
</trkpt>
<trkpt lat="45.9794790" lon="10.2000680">
	<ele>1682.40</ele>
	<time>2025-08-16T07:01:55.000Z</time>
</trkpt>
<trkpt lat="45.9794920" lon="10.2000590">
	<ele>1682.60</ele>
	<time>2025-08-16T07:01:56.000Z</time>
</trkpt>
<trkpt lat="45.9795100" lon="10.2000540">
	<ele>1682.60</ele>
	<time>2025-08-16T07:01:57.000Z</time>
</trkpt>
<trkpt lat="45.9795240" lon="10.2000470">
	<ele>1682.80</ele>
	<time>2025-08-16T07:01:58.000Z</time>
</trkpt>
<trkpt lat="45.9795360" lon="10.2000350">
	<ele>1683.00</ele>
	<time>2025-08-16T07:01:59.000Z</time>
</trkpt>
<trkpt lat="45.9795440" lon="10.2000220">
	<ele>1683.20</ele>
	<time>2025-08-16T07:02:00.000Z</time>
</trkpt>
<trkpt lat="45.9795570" lon="10.2000070">
	<ele>1683.20</ele>
	<time>2025-08-16T07:02:01.000Z</time>
</trkpt>
<trkpt lat="45.9795690" lon="10.1999930">
	<ele>1683.40</ele>
	<time>2025-08-16T07:02:02.000Z</time>
</trkpt>
<trkpt lat="45.9795810" lon="10.1999760">
	<ele>1683.40</ele>
	<time>2025-08-16T07:02:03.000Z</time>
</trkpt>
<trkpt lat="45.9795890" lon="10.1999600">
	<ele>1683.80</ele>
	<time>2025-08-16T07:02:04.000Z</time>
</trkpt>
<trkpt lat="45.9795940" lon="10.1999530">
	<ele>1684.00</ele>
	<time>2025-08-16T07:02:05.000Z</time>
</trkpt>
<trkpt lat="45.9796010" lon="10.1999470">
	<ele>1684.00</ele>
	<time>2025-08-16T07:02:06.000Z</time>
</trkpt>
<trkpt lat="45.9796140" lon="10.1999440">
	<ele>1684.20</ele>
	<time>2025-08-16T07:02:07.000Z</time>
</trkpt>
<trkpt lat="45.9796310" lon="10.1999370">
	<ele>1684.20</ele>
	<time>2025-08-16T07:02:08.000Z</time>
</trkpt>
<trkpt lat="45.9796470" lon="10.1999220">
	<ele>1684.20</ele>
	<time>2025-08-16T07:02:09.000Z</time>
</trkpt>
<trkpt lat="45.9796640" lon="10.1999100">
	<ele>1684.20</ele>
	<time>2025-08-16T07:02:10.000Z</time>
</trkpt>
<trkpt lat="45.9796720" lon="10.1998940">
	<ele>1684.20</ele>
	<time>2025-08-16T07:02:11.000Z</time>
</trkpt>
<trkpt lat="45.9796840" lon="10.1998780">
	<ele>1684.20</ele>
	<time>2025-08-16T07:02:12.000Z</time>
</trkpt>
<trkpt lat="45.9796970" lon="10.1998690">
	<ele>1684.20</ele>
	<time>2025-08-16T07:02:13.000Z</time>
</trkpt>
<trkpt lat="45.9797090" lon="10.1998650">
	<ele>1684.20</ele>
	<time>2025-08-16T07:02:14.000Z</time>
</trkpt>
<trkpt lat="45.9797180" lon="10.1998510">
	<ele>1684.20</ele>
	<time>2025-08-16T07:02:15.000Z</time>
</trkpt>
<trkpt lat="45.9797230" lon="10.1998450">
	<ele>1684.20</ele>
	<time>2025-08-16T07:02:16.000Z</time>
</trkpt>
<trkpt lat="45.9797250" lon="10.1998410">
	<ele>1684.20</ele>
	<time>2025-08-16T07:02:17.000Z</time>
</trkpt>
<trkpt lat="45.9797270" lon="10.1998340">
	<ele>1684.40</ele>
	<time>2025-08-16T07:02:18.000Z</time>
</trkpt>
<trkpt lat="45.9797340" lon="10.1998260">
	<ele>1684.60</ele>
	<time>2025-08-16T07:02:19.000Z</time>
</trkpt>
<trkpt lat="45.9797420" lon="10.1998160">
	<ele>1684.80</ele>
	<time>2025-08-16T07:02:20.000Z</time>
</trkpt>
<trkpt lat="45.9797460" lon="10.1997980">
	<ele>1685.00</ele>
	<time>2025-08-16T07:02:21.000Z</time>
</trkpt>
<trkpt lat="45.9797560" lon="10.1997740">
	<ele>1685.20</ele>
	<time>2025-08-16T07:02:22.000Z</time>
</trkpt>
<trkpt lat="45.9797670" lon="10.1997580">
	<ele>1685.40</ele>
	<time>2025-08-16T07:02:23.000Z</time>
</trkpt>
<trkpt lat="45.9797770" lon="10.1997450">
	<ele>1685.60</ele>
	<time>2025-08-16T07:02:24.000Z</time>
</trkpt>
<trkpt lat="45.9797780" lon="10.1997420">
	<ele>1686.00</ele>
	<time>2025-08-16T07:02:25.000Z</time>
</trkpt>
<trkpt lat="45.9797820" lon="10.1997330">
	<ele>1686.20</ele>
	<time>2025-08-16T07:02:26.000Z</time>
</trkpt>
<trkpt lat="45.9797880" lon="10.1997240">
	<ele>1686.40</ele>
	<time>2025-08-16T07:02:27.000Z</time>
</trkpt>
<trkpt lat="45.9797890" lon="10.1997140">
	<ele>1686.60</ele>
	<time>2025-08-16T07:02:28.000Z</time>
</trkpt>
<trkpt lat="45.9797840" lon="10.1997080">
	<ele>1686.80</ele>
	<time>2025-08-16T07:02:29.000Z</time>
</trkpt>
<trkpt lat="45.9797890" lon="10.1996950">
	<ele>1686.80</ele>
	<time>2025-08-16T07:02:30.000Z</time>
</trkpt>
<trkpt lat="45.9797980" lon="10.1996700">
	<ele>1686.80</ele>
	<time>2025-08-16T07:02:31.000Z</time>
</trkpt>
<trkpt lat="45.9798040" lon="10.1996490">
	<ele>1687.00</ele>
	<time>2025-08-16T07:02:32.000Z</time>
</trkpt>
<trkpt lat="45.9798120" lon="10.1996410">
	<ele>1687.20</ele>
	<time>2025-08-16T07:02:33.000Z</time>
</trkpt>
<trkpt lat="45.9798150" lon="10.1996370">
	<ele>1687.40</ele>
	<time>2025-08-16T07:02:34.000Z</time>
</trkpt>
<trkpt lat="45.9798270" lon="10.1996300">
	<ele>1687.60</ele>
	<time>2025-08-16T07:02:35.000Z</time>
</trkpt>
<trkpt lat="45.9798380" lon="10.1996170">
	<ele>1687.60</ele>
	<time>2025-08-16T07:02:36.000Z</time>
</trkpt>
<trkpt lat="45.9798350" lon="10.1996060">
	<ele>1687.80</ele>
	<time>2025-08-16T07:02:37.000Z</time>
</trkpt>
<trkpt lat="45.9798390" lon="10.1995900">
	<ele>1687.80</ele>
	<time>2025-08-16T07:02:38.000Z</time>
</trkpt>
<trkpt lat="45.9798380" lon="10.1995780">
	<ele>1688.20</ele>
	<time>2025-08-16T07:02:39.000Z</time>
</trkpt>
<trkpt lat="45.9798360" lon="10.1995720">
	<ele>1688.40</ele>
	<time>2025-08-16T07:02:40.000Z</time>
</trkpt>
<trkpt lat="45.9798350" lon="10.1995660">
	<ele>1688.40</ele>
	<time>2025-08-16T07:02:41.000Z</time>
</trkpt>
<trkpt lat="45.9798340" lon="10.1995640">
	<ele>1688.60</ele>
	<time>2025-08-16T07:02:42.000Z</time>
</trkpt>
<trkpt lat="45.9798370" lon="10.1995610">
	<ele>1688.60</ele>
	<time>2025-08-16T07:02:43.000Z</time>
</trkpt>
<trkpt lat="45.9798430" lon="10.1995620">
	<ele>1688.60</ele>
	<time>2025-08-16T07:02:44.000Z</time>
</trkpt>
<trkpt lat="45.9798480" lon="10.1995610">
	<ele>1688.40</ele>
	<time>2025-08-16T07:02:45.000Z</time>
</trkpt>
<trkpt lat="45.9798550" lon="10.1995670">
	<ele>1688.20</ele>
	<time>2025-08-16T07:02:46.000Z</time>
</trkpt>
<trkpt lat="45.9798650" lon="10.1995700">
	<ele>1688.20</ele>
	<time>2025-08-16T07:02:47.000Z</time>
</trkpt>
<trkpt lat="45.9798750" lon="10.1995560">
	<ele>1688.20</ele>
	<time>2025-08-16T07:02:48.000Z</time>
</trkpt>
<trkpt lat="45.9798830" lon="10.1995430">
	<ele>1688.00</ele>
	<time>2025-08-16T07:02:49.000Z</time>
</trkpt>
<trkpt lat="45.9798880" lon="10.1995350">
	<ele>1688.00</ele>
	<time>2025-08-16T07:02:50.000Z</time>
</trkpt>
<trkpt lat="45.9798910" lon="10.1995300">
	<ele>1687.80</ele>
	<time>2025-08-16T07:02:51.000Z</time>
</trkpt>
<trkpt lat="45.9798980" lon="10.1995300">
	<ele>1687.80</ele>
	<time>2025-08-16T07:02:52.000Z</time>
</trkpt>
<trkpt lat="45.9799000" lon="10.1995290">
	<ele>1687.60</ele>
	<time>2025-08-16T07:02:53.000Z</time>
</trkpt>
<trkpt lat="45.9799020" lon="10.1995170">
	<ele>1687.60</ele>
	<time>2025-08-16T07:02:54.000Z</time>
</trkpt>
<trkpt lat="45.9799090" lon="10.1995050">
	<ele>1687.40</ele>
	<time>2025-08-16T07:02:55.000Z</time>
</trkpt>
<trkpt lat="45.9799150" lon="10.1994940">
	<ele>1687.40</ele>
	<time>2025-08-16T07:02:56.000Z</time>
</trkpt>
<trkpt lat="45.9799230" lon="10.1994770">
	<ele>1687.40</ele>
	<time>2025-08-16T07:02:57.000Z</time>
</trkpt>
<trkpt lat="45.9799300" lon="10.1994590">
	<ele>1687.20</ele>
	<time>2025-08-16T07:02:58.000Z</time>
</trkpt>
<trkpt lat="45.9799370" lon="10.1994460">
	<ele>1687.20</ele>
	<time>2025-08-16T07:02:59.000Z</time>
</trkpt>
<trkpt lat="45.9799420" lon="10.1994430">
	<ele>1687.20</ele>
	<time>2025-08-16T07:03:00.000Z</time>
</trkpt>
<trkpt lat="45.9799440" lon="10.1994410">
	<ele>1687.20</ele>
	<time>2025-08-16T07:03:01.000Z</time>
</trkpt>
<trkpt lat="45.9799460" lon="10.1994340">
	<ele>1687.20</ele>
	<time>2025-08-16T07:03:02.000Z</time>
</trkpt>
<trkpt lat="45.9799490" lon="10.1994340">
	<ele>1687.20</ele>
	<time>2025-08-16T07:03:03.000Z</time>
</trkpt>
<trkpt lat="45.9799530" lon="10.1994350">
	<ele>1687.00</ele>
	<time>2025-08-16T07:03:04.000Z</time>
</trkpt>
<trkpt lat="45.9799590" lon="10.1994320">
	<ele>1686.80</ele>
	<time>2025-08-16T07:03:05.000Z</time>
</trkpt>
<trkpt lat="45.9799650" lon="10.1994220">
	<ele>1686.60</ele>
	<time>2025-08-16T07:03:06.000Z</time>
</trkpt>
<trkpt lat="45.9799710" lon="10.1994060">
	<ele>1686.20</ele>
	<time>2025-08-16T07:03:07.000Z</time>
</trkpt>
<trkpt lat="45.9799710" lon="10.1994000">
	<ele>1685.80</ele>
	<time>2025-08-16T07:03:08.000Z</time>
</trkpt>
<trkpt lat="45.9799710" lon="10.1993970">
	<ele>1685.40</ele>
	<time>2025-08-16T07:03:09.000Z</time>
</trkpt>
<trkpt lat="45.9799750" lon="10.1993840">
	<ele>1685.20</ele>
	<time>2025-08-16T07:03:10.000Z</time>
</trkpt>
<trkpt lat="45.9799800" lon="10.1993700">
	<ele>1685.20</ele>
	<time>2025-08-16T07:03:11.000Z</time>
</trkpt>
<trkpt lat="45.9799800" lon="10.1993500">
	<ele>1684.80</ele>
	<time>2025-08-16T07:03:12.000Z</time>
</trkpt>
<trkpt lat="45.9799900" lon="10.1993390">
	<ele>1684.80</ele>
	<time>2025-08-16T07:03:13.000Z</time>
</trkpt>
<trkpt lat="45.9800060" lon="10.1993220">
	<ele>1684.40</ele>
	<time>2025-08-16T07:03:14.000Z</time>
</trkpt>
<trkpt lat="45.9800280" lon="10.1993060">
	<ele>1684.40</ele>
	<time>2025-08-16T07:03:15.000Z</time>
</trkpt>
<trkpt lat="45.9800380" lon="10.1992830">
	<ele>1684.40</ele>
	<time>2025-08-16T07:03:16.000Z</time>
</trkpt>
<trkpt lat="45.9800480" lon="10.1992640">
	<ele>1684.20</ele>
	<time>2025-08-16T07:03:17.000Z</time>
</trkpt>
<trkpt lat="45.9800480" lon="10.1992330">
	<ele>1684.20</ele>
	<time>2025-08-16T07:03:18.000Z</time>
</trkpt>
<trkpt lat="45.9800540" lon="10.1992110">
	<ele>1684.20</ele>
	<time>2025-08-16T07:03:19.000Z</time>
</trkpt>
<trkpt lat="45.9800550" lon="10.1991830">
	<ele>1684.40</ele>
	<time>2025-08-16T07:03:20.000Z</time>
</trkpt>
<trkpt lat="45.9800470" lon="10.1991610">
	<ele>1684.40</ele>
	<time>2025-08-16T07:03:21.000Z</time>
</trkpt>
<trkpt lat="45.9800500" lon="10.1991430">
	<ele>1684.60</ele>
	<time>2025-08-16T07:03:22.000Z</time>
</trkpt>
<trkpt lat="45.9800600" lon="10.1991340">
	<ele>1684.60</ele>
	<time>2025-08-16T07:03:23.000Z</time>
</trkpt>
<trkpt lat="45.9800770" lon="10.1991350">
	<ele>1685.00</ele>
	<time>2025-08-16T07:03:24.000Z</time>
</trkpt>
<trkpt lat="45.9800770" lon="10.1991300">
	<ele>1685.20</ele>
	<time>2025-08-16T07:03:25.000Z</time>
</trkpt>
<trkpt lat="45.9800790" lon="10.1991320">
	<ele>1685.20</ele>
	<time>2025-08-16T07:03:26.000Z</time>
</trkpt>
<trkpt lat="45.9800890" lon="10.1991300">
	<ele>1685.40</ele>
	<time>2025-08-16T07:03:27.000Z</time>
</trkpt>
<trkpt lat="45.9800910" lon="10.1991210">
	<ele>1685.40</ele>
	<time>2025-08-16T07:03:28.000Z</time>
</trkpt>
<trkpt lat="45.9801010" lon="10.1991040">
	<ele>1685.60</ele>
	<time>2025-08-16T07:03:29.000Z</time>
</trkpt>
<trkpt lat="45.9801100" lon="10.1990900">
	<ele>1685.40</ele>
	<time>2025-08-16T07:03:30.000Z</time>
</trkpt>
<trkpt lat="45.9801130" lon="10.1990740">
	<ele>1685.40</ele>
	<time>2025-08-16T07:03:31.000Z</time>
</trkpt>
<trkpt lat="45.9801130" lon="10.1990600">
	<ele>1685.40</ele>
	<time>2025-08-16T07:03:32.000Z</time>
</trkpt>
<trkpt lat="45.9801170" lon="10.1990400">
	<ele>1685.20</ele>
	<time>2025-08-16T07:03:33.000Z</time>
</trkpt>
<trkpt lat="45.9801240" lon="10.1990240">
	<ele>1685.20</ele>
	<time>2025-08-16T07:03:34.000Z</time>
</trkpt>
<trkpt lat="45.9801310" lon="10.1990060">
	<ele>1685.00</ele>
	<time>2025-08-16T07:03:35.000Z</time>
</trkpt>
<trkpt lat="45.9801330" lon="10.1989840">
	<ele>1685.00</ele>
	<time>2025-08-16T07:03:36.000Z</time>
</trkpt>
<trkpt lat="45.9801370" lon="10.1989680">
	<ele>1685.00</ele>
	<time>2025-08-16T07:03:37.000Z</time>
</trkpt>
<trkpt lat="45.9801400" lon="10.1989520">
	<ele>1684.80</ele>
	<time>2025-08-16T07:03:38.000Z</time>
</trkpt>
<trkpt lat="45.9801380" lon="10.1989330">
	<ele>1684.80</ele>
	<time>2025-08-16T07:03:39.000Z</time>
</trkpt>
<trkpt lat="45.9801370" lon="10.1989160">
	<ele>1684.80</ele>
	<time>2025-08-16T07:03:40.000Z</time>
</trkpt>
<trkpt lat="45.9801390" lon="10.1989030">
	<ele>1684.80</ele>
	<time>2025-08-16T07:03:41.000Z</time>
</trkpt>
<trkpt lat="45.9801420" lon="10.1988870">
	<ele>1684.60</ele>
	<time>2025-08-16T07:03:42.000Z</time>
</trkpt>
<trkpt lat="45.9801420" lon="10.1988770">
	<ele>1684.80</ele>
	<time>2025-08-16T07:03:43.000Z</time>
</trkpt>
<trkpt lat="45.9801490" lon="10.1988640">
	<ele>1684.80</ele>
	<time>2025-08-16T07:03:44.000Z</time>
</trkpt>
<trkpt lat="45.9801590" lon="10.1988450">
	<ele>1684.80</ele>
	<time>2025-08-16T07:03:45.000Z</time>
</trkpt>
<trkpt lat="45.9801570" lon="10.1988310">
	<ele>1685.00</ele>
	<time>2025-08-16T07:03:46.000Z</time>
</trkpt>
<trkpt lat="45.9801490" lon="10.1988180">
	<ele>1685.00</ele>
	<time>2025-08-16T07:03:47.000Z</time>
</trkpt>
<trkpt lat="45.9801490" lon="10.1988080">
	<ele>1685.20</ele>
	<time>2025-08-16T07:03:48.000Z</time>
</trkpt>
<trkpt lat="45.9801510" lon="10.1987910">
	<ele>1685.20</ele>
	<time>2025-08-16T07:03:49.000Z</time>
</trkpt>
<trkpt lat="45.9801580" lon="10.1987770">
	<ele>1685.40</ele>
	<time>2025-08-16T07:03:50.000Z</time>
</trkpt>
<trkpt lat="45.9801590" lon="10.1987760">
	<ele>1685.40</ele>
	<time>2025-08-16T07:03:51.000Z</time>
</trkpt>
<trkpt lat="45.9801580" lon="10.1987710">
	<ele>1685.40</ele>
	<time>2025-08-16T07:03:52.000Z</time>
</trkpt>
<trkpt lat="45.9801590" lon="10.1987630">
	<ele>1685.40</ele>
	<time>2025-08-16T07:03:53.000Z</time>
</trkpt>
<trkpt lat="45.9801640" lon="10.1987540">
	<ele>1685.20</ele>
	<time>2025-08-16T07:03:54.000Z</time>
</trkpt>
<trkpt lat="45.9801650" lon="10.1987480">
	<ele>1685.00</ele>
	<time>2025-08-16T07:03:55.000Z</time>
</trkpt>
<trkpt lat="45.9801670" lon="10.1987440">
	<ele>1685.00</ele>
	<time>2025-08-16T07:03:56.000Z</time>
</trkpt>
<trkpt lat="45.9801720" lon="10.1987300">
	<ele>1684.80</ele>
	<time>2025-08-16T07:03:57.000Z</time>
</trkpt>
<trkpt lat="45.9801700" lon="10.1987190">
	<ele>1684.80</ele>
	<time>2025-08-16T07:03:58.000Z</time>
</trkpt>
<trkpt lat="45.9801670" lon="10.1987090">
	<ele>1684.60</ele>
	<time>2025-08-16T07:03:59.000Z</time>
</trkpt>
<trkpt lat="45.9801660" lon="10.1986990">
	<ele>1684.60</ele>
	<time>2025-08-16T07:04:00.000Z</time>
</trkpt>
<trkpt lat="45.9801670" lon="10.1986900">
	<ele>1684.60</ele>
	<time>2025-08-16T07:04:01.000Z</time>
</trkpt>
<trkpt lat="45.9801700" lon="10.1986780">
	<ele>1684.60</ele>
	<time>2025-08-16T07:04:02.000Z</time>
</trkpt>
<trkpt lat="45.9801710" lon="10.1986700">
	<ele>1684.40</ele>
	<time>2025-08-16T07:04:03.000Z</time>
</trkpt>
<trkpt lat="45.9801730" lon="10.1986640">
	<ele>1684.40</ele>
	<time>2025-08-16T07:04:04.000Z</time>
</trkpt>
<trkpt lat="45.9801750" lon="10.1986590">
	<ele>1684.40</ele>
	<time>2025-08-16T07:04:05.000Z</time>
</trkpt>
<trkpt lat="45.9801830" lon="10.1986530">
	<ele>1684.20</ele>
	<time>2025-08-16T07:04:06.000Z</time>
</trkpt>
<trkpt lat="45.9801940" lon="10.1986450">
	<ele>1683.80</ele>
	<time>2025-08-16T07:04:07.000Z</time>
</trkpt>
<trkpt lat="45.9801970" lon="10.1986280">
	<ele>1683.60</ele>
	<time>2025-08-16T07:04:08.000Z</time>
</trkpt>
<trkpt lat="45.9802010" lon="10.1986150">
	<ele>1683.40</ele>
	<time>2025-08-16T07:04:09.000Z</time>
</trkpt>
<trkpt lat="45.9802080" lon="10.1986000">
	<ele>1683.40</ele>
	<time>2025-08-16T07:04:10.000Z</time>
</trkpt>
<trkpt lat="45.9802230" lon="10.1985820">
	<ele>1683.00</ele>
	<time>2025-08-16T07:04:11.000Z</time>
</trkpt>
<trkpt lat="45.9802340" lon="10.1985660">
	<ele>1682.60</ele>
	<time>2025-08-16T07:04:12.000Z</time>
</trkpt>
<trkpt lat="45.9802340" lon="10.1985510">
	<ele>1682.40</ele>
	<time>2025-08-16T07:04:13.000Z</time>
</trkpt>
<trkpt lat="45.9802400" lon="10.1985350">
	<ele>1682.40</ele>
	<time>2025-08-16T07:04:14.000Z</time>
</trkpt>
<trkpt lat="45.9802410" lon="10.1985250">
	<ele>1682.40</ele>
	<time>2025-08-16T07:04:15.000Z</time>
</trkpt>
<trkpt lat="45.9802440" lon="10.1985200">
	<ele>1682.20</ele>
	<time>2025-08-16T07:04:16.000Z</time>
</trkpt>
<trkpt lat="45.9802450" lon="10.1985160">
	<ele>1682.20</ele>
	<time>2025-08-16T07:04:17.000Z</time>
</trkpt>
<trkpt lat="45.9802500" lon="10.1985120">
	<ele>1682.20</ele>
	<time>2025-08-16T07:04:18.000Z</time>
</trkpt>
<trkpt lat="45.9802510" lon="10.1985070">
	<ele>1682.40</ele>
	<time>2025-08-16T07:04:19.000Z</time>
</trkpt>
<trkpt lat="45.9802530" lon="10.1985030">
	<ele>1682.40</ele>
	<time>2025-08-16T07:04:20.000Z</time>
</trkpt>
<trkpt lat="45.9802560" lon="10.1985040">
	<ele>1682.40</ele>
	<time>2025-08-16T07:04:21.000Z</time>
</trkpt>
<trkpt lat="45.9802590" lon="10.1985020">
	<ele>1682.40</ele>
	<time>2025-08-16T07:04:22.000Z</time>
</trkpt>
<trkpt lat="45.9802670" lon="10.1984990">
	<ele>1682.40</ele>
	<time>2025-08-16T07:04:23.000Z</time>
</trkpt>
<trkpt lat="45.9802730" lon="10.1984960">
	<ele>1682.40</ele>
	<time>2025-08-16T07:04:24.000Z</time>
</trkpt>
<trkpt lat="45.9802800" lon="10.1984930">
	<ele>1682.00</ele>
	<time>2025-08-16T07:04:25.000Z</time>
</trkpt>
<trkpt lat="45.9802880" lon="10.1984870">
	<ele>1681.80</ele>
	<time>2025-08-16T07:04:26.000Z</time>
</trkpt>
<trkpt lat="45.9802950" lon="10.1984840">
	<ele>1681.80</ele>
	<time>2025-08-16T07:04:27.000Z</time>
</trkpt>
<trkpt lat="45.9803050" lon="10.1984820">
	<ele>1681.80</ele>
	<time>2025-08-16T07:04:28.000Z</time>
</trkpt>
<trkpt lat="45.9803110" lon="10.1984710">
	<ele>1681.80</ele>
	<time>2025-08-16T07:04:29.000Z</time>
</trkpt>
<trkpt lat="45.9803160" lon="10.1984530">
	<ele>1681.80</ele>
	<time>2025-08-16T07:04:30.000Z</time>
</trkpt>
<trkpt lat="45.9803230" lon="10.1984370">
	<ele>1681.80</ele>
	<time>2025-08-16T07:04:31.000Z</time>
</trkpt>
<trkpt lat="45.9803300" lon="10.1984270">
	<ele>1682.00</ele>
	<time>2025-08-16T07:04:32.000Z</time>
</trkpt>
<trkpt lat="45.9803300" lon="10.1984150">
	<ele>1682.40</ele>
	<time>2025-08-16T07:04:33.000Z</time>
</trkpt>
<trkpt lat="45.9803370" lon="10.1984070">
	<ele>1682.60</ele>
	<time>2025-08-16T07:04:34.000Z</time>
</trkpt>
<trkpt lat="45.9803450" lon="10.1984010">
	<ele>1682.80</ele>
	<time>2025-08-16T07:04:35.000Z</time>
</trkpt>
<trkpt lat="45.9803510" lon="10.1983890">
	<ele>1683.00</ele>
	<time>2025-08-16T07:04:36.000Z</time>
</trkpt>
<trkpt lat="45.9803550" lon="10.1983760">
	<ele>1683.20</ele>
	<time>2025-08-16T07:04:37.000Z</time>
</trkpt>
<trkpt lat="45.9803600" lon="10.1983620">
	<ele>1683.40</ele>
	<time>2025-08-16T07:04:38.000Z</time>
</trkpt>
<trkpt lat="45.9803710" lon="10.1983510">
	<ele>1683.60</ele>
	<time>2025-08-16T07:04:39.000Z</time>
</trkpt>
<trkpt lat="45.9803790" lon="10.1983440">
	<ele>1683.60</ele>
	<time>2025-08-16T07:04:40.000Z</time>
</trkpt>
<trkpt lat="45.9803880" lon="10.1983400">
	<ele>1683.80</ele>
	<time>2025-08-16T07:04:41.000Z</time>
</trkpt>
<trkpt lat="45.9803960" lon="10.1983330">
	<ele>1684.00</ele>
	<time>2025-08-16T07:04:42.000Z</time>
</trkpt>
<trkpt lat="45.9804010" lon="10.1983240">
	<ele>1684.20</ele>
	<time>2025-08-16T07:04:43.000Z</time>
</trkpt>
<trkpt lat="45.9804060" lon="10.1983100">
	<ele>1684.20</ele>
	<time>2025-08-16T07:04:44.000Z</time>
</trkpt>
<trkpt lat="45.9804160" lon="10.1983010">
	<ele>1684.40</ele>
	<time>2025-08-16T07:04:45.000Z</time>
</trkpt>
<trkpt lat="45.9804280" lon="10.1982910">
	<ele>1684.60</ele>
	<time>2025-08-16T07:04:46.000Z</time>
</trkpt>
<trkpt lat="45.9804400" lon="10.1982850">
	<ele>1684.80</ele>
	<time>2025-08-16T07:04:47.000Z</time>
</trkpt>
<trkpt lat="45.9804540" lon="10.1982750">
	<ele>1684.80</ele>
	<time>2025-08-16T07:04:48.000Z</time>
</trkpt>
<trkpt lat="45.9804670" lon="10.1982630">
	<ele>1684.80</ele>
	<time>2025-08-16T07:04:49.000Z</time>
</trkpt>
<trkpt lat="45.9804770" lon="10.1982520">
	<ele>1684.80</ele>
	<time>2025-08-16T07:04:50.000Z</time>
</trkpt>
<trkpt lat="45.9804860" lon="10.1982440">
	<ele>1684.80</ele>
	<time>2025-08-16T07:04:51.000Z</time>
</trkpt>
<trkpt lat="45.9804950" lon="10.1982370">
	<ele>1684.80</ele>
	<time>2025-08-16T07:04:52.000Z</time>
</trkpt>
<trkpt lat="45.9805050" lon="10.1982290">
	<ele>1685.00</ele>
	<time>2025-08-16T07:04:53.000Z</time>
</trkpt>
<trkpt lat="45.9805160" lon="10.1982160">
	<ele>1685.00</ele>
	<time>2025-08-16T07:04:54.000Z</time>
</trkpt>
<trkpt lat="45.9805230" lon="10.1982070">
	<ele>1685.00</ele>
	<time>2025-08-16T07:04:55.000Z</time>
</trkpt>
<trkpt lat="45.9805310" lon="10.1981990">
	<ele>1685.20</ele>
	<time>2025-08-16T07:04:56.000Z</time>
</trkpt>
<trkpt lat="45.9805410" lon="10.1981940">
	<ele>1685.20</ele>
	<time>2025-08-16T07:04:57.000Z</time>
</trkpt>
<trkpt lat="45.9805530" lon="10.1981880">
	<ele>1685.40</ele>
	<time>2025-08-16T07:04:58.000Z</time>
</trkpt>
<trkpt lat="45.9805620" lon="10.1981800">
	<ele>1685.60</ele>
	<time>2025-08-16T07:04:59.000Z</time>
</trkpt>
<trkpt lat="45.9805680" lon="10.1981710">
	<ele>1685.80</ele>
	<time>2025-08-16T07:05:00.000Z</time>
</trkpt>
<trkpt lat="45.9805780" lon="10.1981620">
	<ele>1686.00</ele>
	<time>2025-08-16T07:05:01.000Z</time>
</trkpt>
<trkpt lat="45.9805880" lon="10.1981530">
	<ele>1686.40</ele>
	<time>2025-08-16T07:05:02.000Z</time>
</trkpt>
<trkpt lat="45.9806000" lon="10.1981450">
	<ele>1686.60</ele>
	<time>2025-08-16T07:05:03.000Z</time>
</trkpt>
<trkpt lat="45.9806120" lon="10.1981320">
	<ele>1686.80</ele>
	<time>2025-08-16T07:05:04.000Z</time>
</trkpt>
<trkpt lat="45.9806230" lon="10.1981190">
	<ele>1687.00</ele>
	<time>2025-08-16T07:05:05.000Z</time>
</trkpt>
<trkpt lat="45.9806320" lon="10.1981090">
	<ele>1687.20</ele>
	<time>2025-08-16T07:05:06.000Z</time>
</trkpt>
<trkpt lat="45.9806370" lon="10.1981000">
	<ele>1687.20</ele>
	<time>2025-08-16T07:05:07.000Z</time>
</trkpt>
<trkpt lat="45.9806440" lon="10.1980900">
	<ele>1687.40</ele>
	<time>2025-08-16T07:05:08.000Z</time>
</trkpt>
<trkpt lat="45.9806460" lon="10.1980740">
	<ele>1687.40</ele>
	<time>2025-08-16T07:05:09.000Z</time>
</trkpt>
<trkpt lat="45.9806460" lon="10.1980510">
	<ele>1687.60</ele>
	<time>2025-08-16T07:05:10.000Z</time>
</trkpt>
<trkpt lat="45.9806550" lon="10.1980320">
	<ele>1687.60</ele>
	<time>2025-08-16T07:05:11.000Z</time>
</trkpt>
<trkpt lat="45.9806660" lon="10.1980180">
	<ele>1687.60</ele>
	<time>2025-08-16T07:05:12.000Z</time>
</trkpt>
<trkpt lat="45.9806720" lon="10.1980090">
	<ele>1687.80</ele>
	<time>2025-08-16T07:05:13.000Z</time>
</trkpt>
<trkpt lat="45.9806760" lon="10.1979980">
	<ele>1688.00</ele>
	<time>2025-08-16T07:05:14.000Z</time>
</trkpt>
<trkpt lat="45.9806800" lon="10.1979840">
	<ele>1688.00</ele>
	<time>2025-08-16T07:05:15.000Z</time>
</trkpt>
<trkpt lat="45.9806850" lon="10.1979730">
	<ele>1688.00</ele>
	<time>2025-08-16T07:05:16.000Z</time>
</trkpt>
<trkpt lat="45.9806890" lon="10.1979640">
	<ele>1688.20</ele>
	<time>2025-08-16T07:05:17.000Z</time>
</trkpt>
<trkpt lat="45.9806890" lon="10.1979580">
	<ele>1688.60</ele>
	<time>2025-08-16T07:05:18.000Z</time>
</trkpt>
<trkpt lat="45.9806810" lon="10.1979470">
	<ele>1688.80</ele>
	<time>2025-08-16T07:05:19.000Z</time>
</trkpt>
<trkpt lat="45.9806690" lon="10.1979220">
	<ele>1689.00</ele>
	<time>2025-08-16T07:05:20.000Z</time>
</trkpt>
<trkpt lat="45.9806750" lon="10.1978990">
	<ele>1689.20</ele>
	<time>2025-08-16T07:05:21.000Z</time>
</trkpt>
<trkpt lat="45.9806800" lon="10.1979070">
	<ele>1689.20</ele>
	<time>2025-08-16T07:05:22.000Z</time>
</trkpt>
<trkpt lat="45.9806800" lon="10.1979040">
	<ele>1689.40</ele>
	<time>2025-08-16T07:05:23.000Z</time>
</trkpt>
<trkpt lat="45.9806800" lon="10.1979030">
	<ele>1690.00</ele>
	<time>2025-08-16T07:05:24.000Z</time>
</trkpt>
<trkpt lat="45.9806810" lon="10.1979030">
	<ele>1690.20</ele>
	<time>2025-08-16T07:05:25.000Z</time>
</trkpt>
<trkpt lat="45.9806800" lon="10.1979040">
	<ele>1690.40</ele>
	<time>2025-08-16T07:05:26.000Z</time>
</trkpt>
<trkpt lat="45.9806790" lon="10.1979060">
	<ele>1690.40</ele>
	<time>2025-08-16T07:05:27.000Z</time>
</trkpt>
<trkpt lat="45.9806790" lon="10.1979070">
	<ele>1690.40</ele>
	<time>2025-08-16T07:05:28.000Z</time>
</trkpt>
<trkpt lat="45.9806790" lon="10.1979070">
	<ele>1690.40</ele>
	<time>2025-08-16T07:05:29.000Z</time>
</trkpt>
<trkpt lat="45.9806780" lon="10.1979080">
	<ele>1690.20</ele>
	<time>2025-08-16T07:05:30.000Z</time>
</trkpt>
<trkpt lat="45.9806820" lon="10.1979100">
	<ele>1690.20</ele>
	<time>2025-08-16T07:05:31.000Z</time>
</trkpt>
<trkpt lat="45.9806850" lon="10.1979110">
	<ele>1690.20</ele>
	<time>2025-08-16T07:05:32.000Z</time>
</trkpt>
<trkpt lat="45.9806870" lon="10.1979120">
	<ele>1690.20</ele>
	<time>2025-08-16T07:05:33.000Z</time>
</trkpt>
<trkpt lat="45.9806860" lon="10.1979130">
	<ele>1690.20</ele>
	<time>2025-08-16T07:05:34.000Z</time>
</trkpt>
<trkpt lat="45.9806860" lon="10.1979130">
	<ele>1690.40</ele>
	<time>2025-08-16T07:05:35.000Z</time>
</trkpt>
<trkpt lat="45.9806860" lon="10.1979130">
	<ele>1690.40</ele>
	<time>2025-08-16T07:05:36.000Z</time>
</trkpt>
<trkpt lat="45.9806860" lon="10.1979130">
	<ele>1690.40</ele>
	<time>2025-08-16T07:05:37.000Z</time>
</trkpt>
<trkpt lat="45.9806860" lon="10.1979130">
	<ele>1690.60</ele>
	<time>2025-08-16T07:05:38.000Z</time>
</trkpt>
<trkpt lat="45.9806860" lon="10.1979130">
	<ele>1690.60</ele>
	<time>2025-08-16T07:05:39.000Z</time>
</trkpt>
<trkpt lat="45.9806860" lon="10.1979130">
	<ele>1690.60</ele>
	<time>2025-08-16T07:05:40.000Z</time>
</trkpt>
<trkpt lat="45.9806860" lon="10.1979130">
	<ele>1690.60</ele>
	<time>2025-08-16T07:05:41.000Z</time>
</trkpt>
<trkpt lat="45.9806860" lon="10.1979130">
	<ele>1690.60</ele>
	<time>2025-08-16T07:05:42.000Z</time>
</trkpt>
<trkpt lat="45.9806860" lon="10.1979130">
	<ele>1690.60</ele>
	<time>2025-08-16T07:05:43.000Z</time>
</trkpt>
<trkpt lat="45.9806860" lon="10.1979130">
	<ele>1690.60</ele>
	<time>2025-08-16T07:05:44.000Z</time>
</trkpt>
<trkpt lat="45.9806860" lon="10.1979130">
	<ele>1690.40</ele>
	<time>2025-08-16T07:05:45.000Z</time>
</trkpt>
<trkpt lat="45.9806860" lon="10.1979130">
	<ele>1690.40</ele>
	<time>2025-08-16T07:05:46.000Z</time>
</trkpt>
<trkpt lat="45.9806860" lon="10.1979130">
	<ele>1690.20</ele>
	<time>2025-08-16T07:05:47.000Z</time>
</trkpt>
<trkpt lat="45.9806860" lon="10.1979130">
	<ele>1690.20</ele>
	<time>2025-08-16T07:05:48.000Z</time>
</trkpt>
<trkpt lat="45.9806860" lon="10.1979130">
	<ele>1690.20</ele>
	<time>2025-08-16T07:05:49.000Z</time>
</trkpt>
<trkpt lat="45.9806860" lon="10.1979130">
	<ele>1690.20</ele>
	<time>2025-08-16T07:05:50.000Z</time>
</trkpt>
<trkpt lat="45.9806860" lon="10.1979130">
	<ele>1690.00</ele>
	<time>2025-08-16T07:05:51.000Z</time>
</trkpt>
<trkpt lat="45.9806850" lon="10.1979130">
	<ele>1690.00</ele>
	<time>2025-08-16T07:05:52.000Z</time>
</trkpt>
<trkpt lat="45.9806820" lon="10.1979180">
	<ele>1690.00</ele>
	<time>2025-08-16T07:05:53.000Z</time>
</trkpt>
<trkpt lat="45.9806730" lon="10.1979340">
	<ele>1689.60</ele>
	<time>2025-08-16T07:05:54.000Z</time>
</trkpt>
<trkpt lat="45.9806630" lon="10.1979490">
	<ele>1689.40</ele>
	<time>2025-08-16T07:05:55.000Z</time>
</trkpt>
<trkpt lat="45.9806550" lon="10.1979660">
	<ele>1689.00</ele>
	<time>2025-08-16T07:05:56.000Z</time>
</trkpt>
<trkpt lat="45.9806500" lon="10.1979760">
	<ele>1688.80</ele>
	<time>2025-08-16T07:05:57.000Z</time>
</trkpt>
<trkpt lat="45.9806440" lon="10.1979770">
	<ele>1688.60</ele>
	<time>2025-08-16T07:05:58.000Z</time>
</trkpt>
<trkpt lat="45.9806370" lon="10.1979740">
	<ele>1688.40</ele>
	<time>2025-08-16T07:05:59.000Z</time>
</trkpt>
<trkpt lat="45.9806320" lon="10.1979720">
	<ele>1688.40</ele>
	<time>2025-08-16T07:06:00.000Z</time>
</trkpt>
<trkpt lat="45.9806240" lon="10.1979720">
	<ele>1688.20</ele>
	<time>2025-08-16T07:06:01.000Z</time>
</trkpt>
<trkpt lat="45.9806180" lon="10.1979720">
	<ele>1687.80</ele>
	<time>2025-08-16T07:06:02.000Z</time>
</trkpt>
<trkpt lat="45.9806150" lon="10.1979650">
	<ele>1687.40</ele>
	<time>2025-08-16T07:06:03.000Z</time>
</trkpt>
<trkpt lat="45.9806140" lon="10.1979580">
	<ele>1687.00</ele>
	<time>2025-08-16T07:06:04.000Z</time>
</trkpt>
<trkpt lat="45.9806140" lon="10.1979490">
	<ele>1686.80</ele>
	<time>2025-08-16T07:06:05.000Z</time>
</trkpt>
<trkpt lat="45.9806140" lon="10.1979400">
	<ele>1686.40</ele>
	<time>2025-08-16T07:06:06.000Z</time>
</trkpt>
<trkpt lat="45.9806130" lon="10.1979330">
	<ele>1686.20</ele>
	<time>2025-08-16T07:06:07.000Z</time>
</trkpt>
<trkpt lat="45.9806120" lon="10.1979260">
	<ele>1685.80</ele>
	<time>2025-08-16T07:06:08.000Z</time>
</trkpt>
<trkpt lat="45.9806120" lon="10.1979150">
	<ele>1685.40</ele>
	<time>2025-08-16T07:06:09.000Z</time>
</trkpt>
<trkpt lat="45.9806130" lon="10.1979010">
	<ele>1685.20</ele>
	<time>2025-08-16T07:06:10.000Z</time>
</trkpt>
<trkpt lat="45.9806160" lon="10.1978870">
	<ele>1684.80</ele>
	<time>2025-08-16T07:06:11.000Z</time>
</trkpt>
<trkpt lat="45.9806200" lon="10.1978720">
	<ele>1684.60</ele>
	<time>2025-08-16T07:06:12.000Z</time>
</trkpt>
<trkpt lat="45.9806240" lon="10.1978610">
	<ele>1684.20</ele>
	<time>2025-08-16T07:06:13.000Z</time>
</trkpt>
<trkpt lat="45.9806300" lon="10.1978480">
	<ele>1684.00</ele>
	<time>2025-08-16T07:06:14.000Z</time>
</trkpt>
<trkpt lat="45.9806350" lon="10.1978360">
	<ele>1683.60</ele>
	<time>2025-08-16T07:06:15.000Z</time>
</trkpt>
<trkpt lat="45.9806410" lon="10.1978190">
	<ele>1683.40</ele>
	<time>2025-08-16T07:06:16.000Z</time>
</trkpt>
<trkpt lat="45.9806470" lon="10.1978030">
	<ele>1683.00</ele>
	<time>2025-08-16T07:06:17.000Z</time>
</trkpt>
<trkpt lat="45.9806530" lon="10.1977860">
	<ele>1682.80</ele>
	<time>2025-08-16T07:06:18.000Z</time>
</trkpt>
<trkpt lat="45.9806590" lon="10.1977680">
	<ele>1682.20</ele>
	<time>2025-08-16T07:06:19.000Z</time>
</trkpt>
<trkpt lat="45.9806710" lon="10.1977440">
	<ele>1681.80</ele>
	<time>2025-08-16T07:06:20.000Z</time>
</trkpt>
<trkpt lat="45.9806720" lon="10.1977440">
	<ele>1681.40</ele>
	<time>2025-08-16T07:06:21.000Z</time>
</trkpt>
<trkpt lat="45.9806740" lon="10.1977240">
	<ele>1681.00</ele>
	<time>2025-08-16T07:06:22.000Z</time>
</trkpt>
<trkpt lat="45.9806720" lon="10.1977090">
	<ele>1680.80</ele>
	<time>2025-08-16T07:06:23.000Z</time>
</trkpt>
<trkpt lat="45.9806740" lon="10.1976870">
	<ele>1680.40</ele>
	<time>2025-08-16T07:06:24.000Z</time>
</trkpt>
<trkpt lat="45.9806690" lon="10.1976560">
	<ele>1680.00</ele>
	<time>2025-08-16T07:06:25.000Z</time>
</trkpt>
<trkpt lat="45.9806720" lon="10.1976340">
	<ele>1679.80</ele>
	<time>2025-08-16T07:06:26.000Z</time>
</trkpt>
<trkpt lat="45.9806790" lon="10.1976170">
	<ele>1679.40</ele>
	<time>2025-08-16T07:06:27.000Z</time>
</trkpt>
<trkpt lat="45.9806820" lon="10.1976000">
	<ele>1679.20</ele>
	<time>2025-08-16T07:06:28.000Z</time>
</trkpt>
<trkpt lat="45.9806860" lon="10.1975810">
	<ele>1679.00</ele>
	<time>2025-08-16T07:06:29.000Z</time>
</trkpt>
<trkpt lat="45.9806930" lon="10.1975650">
	<ele>1678.80</ele>
	<time>2025-08-16T07:06:30.000Z</time>
</trkpt>
<trkpt lat="45.9807010" lon="10.1975470">
	<ele>1678.60</ele>
	<time>2025-08-16T07:06:31.000Z</time>
</trkpt>
<trkpt lat="45.9807110" lon="10.1975230">
	<ele>1678.40</ele>
	<time>2025-08-16T07:06:32.000Z</time>
</trkpt>
<trkpt lat="45.9807160" lon="10.1974990">
	<ele>1678.00</ele>
	<time>2025-08-16T07:06:33.000Z</time>
</trkpt>
<trkpt lat="45.9807220" lon="10.1974780">
	<ele>1677.80</ele>
	<time>2025-08-16T07:06:34.000Z</time>
</trkpt>
<trkpt lat="45.9807250" lon="10.1974550">
	<ele>1677.60</ele>
	<time>2025-08-16T07:06:35.000Z</time>
</trkpt>
<trkpt lat="45.9807340" lon="10.1974310">
	<ele>1677.40</ele>
	<time>2025-08-16T07:06:36.000Z</time>
</trkpt>
<trkpt lat="45.9807420" lon="10.1974090">
	<ele>1677.20</ele>
	<time>2025-08-16T07:06:37.000Z</time>
</trkpt>
<trkpt lat="45.9807490" lon="10.1973890">
	<ele>1676.80</ele>
	<time>2025-08-16T07:06:38.000Z</time>
</trkpt>
<trkpt lat="45.9807550" lon="10.1973770">
	<ele>1676.80</ele>
	<time>2025-08-16T07:06:39.000Z</time>
</trkpt>
<trkpt lat="45.9807630" lon="10.1973590">
	<ele>1676.60</ele>
	<time>2025-08-16T07:06:40.000Z</time>
</trkpt>
<trkpt lat="45.9807700" lon="10.1973370">
	<ele>1676.60</ele>
	<time>2025-08-16T07:06:41.000Z</time>
</trkpt>
<trkpt lat="45.9807750" lon="10.1973170">
	<ele>1676.40</ele>
	<time>2025-08-16T07:06:42.000Z</time>
</trkpt>
<trkpt lat="45.9807790" lon="10.1972940">
	<ele>1676.40</ele>
	<time>2025-08-16T07:06:43.000Z</time>
</trkpt>
<trkpt lat="45.9807840" lon="10.1972730">
	<ele>1676.40</ele>
	<time>2025-08-16T07:06:44.000Z</time>
</trkpt>
<trkpt lat="45.9807900" lon="10.1972520">
	<ele>1676.20</ele>
	<time>2025-08-16T07:06:45.000Z</time>
</trkpt>
<trkpt lat="45.9807970" lon="10.1972320">
	<ele>1676.20</ele>
	<time>2025-08-16T07:06:46.000Z</time>
</trkpt>
<trkpt lat="45.9808040" lon="10.1972130">
	<ele>1676.00</ele>
	<time>2025-08-16T07:06:47.000Z</time>
</trkpt>
<trkpt lat="45.9808100" lon="10.1971910">
	<ele>1675.80</ele>
	<time>2025-08-16T07:06:48.000Z</time>
</trkpt>
<trkpt lat="45.9808170" lon="10.1971730">
	<ele>1675.60</ele>
	<time>2025-08-16T07:06:49.000Z</time>
</trkpt>
<trkpt lat="45.9808210" lon="10.1971540">
	<ele>1675.60</ele>
	<time>2025-08-16T07:06:50.000Z</time>
</trkpt>
<trkpt lat="45.9808250" lon="10.1971340">
	<ele>1675.60</ele>
	<time>2025-08-16T07:06:51.000Z</time>
</trkpt>
<trkpt lat="45.9808300" lon="10.1971150">
	<ele>1675.60</ele>
	<time>2025-08-16T07:06:52.000Z</time>
</trkpt>
<trkpt lat="45.9808380" lon="10.1970960">
	<ele>1675.60</ele>
	<time>2025-08-16T07:06:53.000Z</time>
</trkpt>
<trkpt lat="45.9808490" lon="10.1970800">
	<ele>1675.60</ele>
	<time>2025-08-16T07:06:54.000Z</time>
</trkpt>
<trkpt lat="45.9808550" lon="10.1970630">
	<ele>1675.60</ele>
	<time>2025-08-16T07:06:55.000Z</time>
</trkpt>
<trkpt lat="45.9808570" lon="10.1970470">
	<ele>1675.60</ele>
	<time>2025-08-16T07:06:56.000Z</time>
</trkpt>
<trkpt lat="45.9808680" lon="10.1970310">
	<ele>1675.60</ele>
	<time>2025-08-16T07:06:57.000Z</time>
</trkpt>
<trkpt lat="45.9808720" lon="10.1970080">
	<ele>1675.80</ele>
	<time>2025-08-16T07:06:58.000Z</time>
</trkpt>
<trkpt lat="45.9808720" lon="10.1969880">
	<ele>1676.00</ele>
	<time>2025-08-16T07:06:59.000Z</time>
</trkpt>
<trkpt lat="45.9808760" lon="10.1969680">
	<ele>1676.00</ele>
	<time>2025-08-16T07:07:00.000Z</time>
</trkpt>
<trkpt lat="45.9808870" lon="10.1969560">
	<ele>1676.20</ele>
	<time>2025-08-16T07:07:01.000Z</time>
</trkpt>
<trkpt lat="45.9808940" lon="10.1969390">
	<ele>1676.20</ele>
	<time>2025-08-16T07:07:02.000Z</time>
</trkpt>
<trkpt lat="45.9809010" lon="10.1969250">
	<ele>1676.40</ele>
	<time>2025-08-16T07:07:03.000Z</time>
</trkpt>
<trkpt lat="45.9809070" lon="10.1969130">
	<ele>1676.60</ele>
	<time>2025-08-16T07:07:04.000Z</time>
</trkpt>
<trkpt lat="45.9809080" lon="10.1968890">
	<ele>1676.60</ele>
	<time>2025-08-16T07:07:05.000Z</time>
</trkpt>
<trkpt lat="45.9809070" lon="10.1968670">
	<ele>1676.80</ele>
	<time>2025-08-16T07:07:06.000Z</time>
</trkpt>
<trkpt lat="45.9809120" lon="10.1968500">
	<ele>1677.00</ele>
	<time>2025-08-16T07:07:07.000Z</time>
</trkpt>
<trkpt lat="45.9809190" lon="10.1968370">
	<ele>1677.00</ele>
	<time>2025-08-16T07:07:08.000Z</time>
</trkpt>
<trkpt lat="45.9809280" lon="10.1968280">
	<ele>1677.20</ele>
	<time>2025-08-16T07:07:09.000Z</time>
</trkpt>
<trkpt lat="45.9809320" lon="10.1968160">
	<ele>1677.40</ele>
	<time>2025-08-16T07:07:10.000Z</time>
</trkpt>
<trkpt lat="45.9809380" lon="10.1968020">
	<ele>1677.60</ele>
	<time>2025-08-16T07:07:11.000Z</time>
</trkpt>
<trkpt lat="45.9809370" lon="10.1967860">
	<ele>1677.60</ele>
	<time>2025-08-16T07:07:12.000Z</time>
</trkpt>
<trkpt lat="45.9809350" lon="10.1967770">
	<ele>1677.60</ele>
	<time>2025-08-16T07:07:13.000Z</time>
</trkpt>
<trkpt lat="45.9809330" lon="10.1967690">
	<ele>1677.80</ele>
	<time>2025-08-16T07:07:14.000Z</time>
</trkpt>
<trkpt lat="45.9809380" lon="10.1967560">
	<ele>1678.00</ele>
	<time>2025-08-16T07:07:15.000Z</time>
</trkpt>
<trkpt lat="45.9809450" lon="10.1967410">
	<ele>1678.00</ele>
	<time>2025-08-16T07:07:16.000Z</time>
</trkpt>
<trkpt lat="45.9809480" lon="10.1967250">
	<ele>1678.20</ele>
	<time>2025-08-16T07:07:17.000Z</time>
</trkpt>
<trkpt lat="45.9809550" lon="10.1967130">
	<ele>1678.40</ele>
	<time>2025-08-16T07:07:18.000Z</time>
</trkpt>
<trkpt lat="45.9809560" lon="10.1966950">
	<ele>1678.40</ele>
	<time>2025-08-16T07:07:19.000Z</time>
</trkpt>
<trkpt lat="45.9809620" lon="10.1966840">
	<ele>1678.60</ele>
	<time>2025-08-16T07:07:20.000Z</time>
</trkpt>
<trkpt lat="45.9809660" lon="10.1966730">
	<ele>1679.00</ele>
	<time>2025-08-16T07:07:21.000Z</time>
</trkpt>
<trkpt lat="45.9809670" lon="10.1966610">
	<ele>1679.20</ele>
	<time>2025-08-16T07:07:22.000Z</time>
</trkpt>
<trkpt lat="45.9809650" lon="10.1966500">
	<ele>1679.20</ele>
	<time>2025-08-16T07:07:23.000Z</time>
</trkpt>
<trkpt lat="45.9809680" lon="10.1966350">
	<ele>1679.60</ele>
	<time>2025-08-16T07:07:24.000Z</time>
</trkpt>
<trkpt lat="45.9809760" lon="10.1966160">
	<ele>1679.80</ele>
	<time>2025-08-16T07:07:25.000Z</time>
</trkpt>
<trkpt lat="45.9809780" lon="10.1966010">
	<ele>1680.00</ele>
	<time>2025-08-16T07:07:26.000Z</time>
</trkpt>
<trkpt lat="45.9809790" lon="10.1965820">
	<ele>1680.20</ele>
	<time>2025-08-16T07:07:27.000Z</time>
</trkpt>
<trkpt lat="45.9809810" lon="10.1965670">
	<ele>1680.20</ele>
	<time>2025-08-16T07:07:28.000Z</time>
</trkpt>
<trkpt lat="45.9809830" lon="10.1965500">
	<ele>1680.40</ele>
	<time>2025-08-16T07:07:29.000Z</time>
</trkpt>
<trkpt lat="45.9809850" lon="10.1965380">
	<ele>1680.60</ele>
	<time>2025-08-16T07:07:30.000Z</time>
</trkpt>
<trkpt lat="45.9809880" lon="10.1965290">
	<ele>1681.00</ele>
	<time>2025-08-16T07:07:31.000Z</time>
</trkpt>
<trkpt lat="45.9809930" lon="10.1965160">
	<ele>1681.00</ele>
	<time>2025-08-16T07:07:32.000Z</time>
</trkpt>
<trkpt lat="45.9809970" lon="10.1965040">
	<ele>1681.40</ele>
	<time>2025-08-16T07:07:33.000Z</time>
</trkpt>
<trkpt lat="45.9810010" lon="10.1964950">
	<ele>1681.60</ele>
	<time>2025-08-16T07:07:34.000Z</time>
</trkpt>
<trkpt lat="45.9810060" lon="10.1964860">
	<ele>1681.60</ele>
	<time>2025-08-16T07:07:35.000Z</time>
</trkpt>
<trkpt lat="45.9810130" lon="10.1964750">
	<ele>1682.00</ele>
	<time>2025-08-16T07:07:36.000Z</time>
</trkpt>
<trkpt lat="45.9810200" lon="10.1964660">
	<ele>1682.20</ele>
	<time>2025-08-16T07:07:37.000Z</time>
</trkpt>
<trkpt lat="45.9810260" lon="10.1964580">
	<ele>1682.60</ele>
	<time>2025-08-16T07:07:38.000Z</time>
</trkpt>
<trkpt lat="45.9810310" lon="10.1964450">
	<ele>1682.80</ele>
	<time>2025-08-16T07:07:39.000Z</time>
</trkpt>
<trkpt lat="45.9810360" lon="10.1964310">
	<ele>1683.00</ele>
	<time>2025-08-16T07:07:40.000Z</time>
</trkpt>
<trkpt lat="45.9810430" lon="10.1964180">
	<ele>1683.00</ele>
	<time>2025-08-16T07:07:41.000Z</time>
</trkpt>
<trkpt lat="45.9810500" lon="10.1964070">
	<ele>1683.20</ele>
	<time>2025-08-16T07:07:42.000Z</time>
</trkpt>
<trkpt lat="45.9810580" lon="10.1963920">
	<ele>1683.20</ele>
	<time>2025-08-16T07:07:43.000Z</time>
</trkpt>
<trkpt lat="45.9810660" lon="10.1963790">
	<ele>1683.20</ele>
	<time>2025-08-16T07:07:44.000Z</time>
</trkpt>
<trkpt lat="45.9810780" lon="10.1963710">
	<ele>1683.00</ele>
	<time>2025-08-16T07:07:45.000Z</time>
</trkpt>
<trkpt lat="45.9810870" lon="10.1963610">
	<ele>1682.80</ele>
	<time>2025-08-16T07:07:46.000Z</time>
</trkpt>
<trkpt lat="45.9810960" lon="10.1963460">
	<ele>1682.60</ele>
	<time>2025-08-16T07:07:47.000Z</time>
</trkpt>
<trkpt lat="45.9811050" lon="10.1963300">
	<ele>1682.60</ele>
	<time>2025-08-16T07:07:48.000Z</time>
</trkpt>
<trkpt lat="45.9811070" lon="10.1963160">
	<ele>1682.40</ele>
	<time>2025-08-16T07:07:49.000Z</time>
</trkpt>
<trkpt lat="45.9811110" lon="10.1962990">
	<ele>1682.20</ele>
	<time>2025-08-16T07:07:50.000Z</time>
</trkpt>
<trkpt lat="45.9811150" lon="10.1962810">
	<ele>1682.00</ele>
	<time>2025-08-16T07:07:51.000Z</time>
</trkpt>
<trkpt lat="45.9811190" lon="10.1962650">
	<ele>1681.60</ele>
	<time>2025-08-16T07:07:52.000Z</time>
</trkpt>
<trkpt lat="45.9811270" lon="10.1962430">
	<ele>1681.60</ele>
	<time>2025-08-16T07:07:53.000Z</time>
</trkpt>
<trkpt lat="45.9811320" lon="10.1962180">
	<ele>1681.40</ele>
	<time>2025-08-16T07:07:54.000Z</time>
</trkpt>
<trkpt lat="45.9811410" lon="10.1962000">
	<ele>1681.40</ele>
	<time>2025-08-16T07:07:55.000Z</time>
</trkpt>
<trkpt lat="45.9811450" lon="10.1961760">
	<ele>1681.40</ele>
	<time>2025-08-16T07:07:56.000Z</time>
</trkpt>
<trkpt lat="45.9811480" lon="10.1961600">
	<ele>1681.40</ele>
	<time>2025-08-16T07:07:57.000Z</time>
</trkpt>
<trkpt lat="45.9811540" lon="10.1961440">
	<ele>1681.40</ele>
	<time>2025-08-16T07:07:58.000Z</time>
</trkpt>
<trkpt lat="45.9811580" lon="10.1961370">
	<ele>1681.40</ele>
	<time>2025-08-16T07:07:59.000Z</time>
</trkpt>
<trkpt lat="45.9811620" lon="10.1961300">
	<ele>1681.40</ele>
	<time>2025-08-16T07:08:00.000Z</time>
</trkpt>
<trkpt lat="45.9811710" lon="10.1961140">
	<ele>1681.40</ele>
	<time>2025-08-16T07:08:01.000Z</time>
</trkpt>
<trkpt lat="45.9811760" lon="10.1960960">
	<ele>1681.60</ele>
	<time>2025-08-16T07:08:02.000Z</time>
</trkpt>
<trkpt lat="45.9811780" lon="10.1960770">
	<ele>1681.40</ele>
	<time>2025-08-16T07:08:03.000Z</time>
</trkpt>
<trkpt lat="45.9811770" lon="10.1960590">
	<ele>1681.40</ele>
	<time>2025-08-16T07:08:04.000Z</time>
</trkpt>
<trkpt lat="45.9811750" lon="10.1960450">
	<ele>1681.40</ele>
	<time>2025-08-16T07:08:05.000Z</time>
</trkpt>
<trkpt lat="45.9811730" lon="10.1960330">
	<ele>1681.40</ele>
	<time>2025-08-16T07:08:06.000Z</time>
</trkpt>
<trkpt lat="45.9811660" lon="10.1960220">
	<ele>1681.40</ele>
	<time>2025-08-16T07:08:07.000Z</time>
</trkpt>
<trkpt lat="45.9811360" lon="10.1959890">
	<ele>1681.40</ele>
	<time>2025-08-16T07:08:08.000Z</time>
</trkpt>
<trkpt lat="45.9811200" lon="10.1959690">
	<ele>1681.40</ele>
	<time>2025-08-16T07:08:09.000Z</time>
</trkpt>
<trkpt lat="45.9811180" lon="10.1959530">
	<ele>1681.40</ele>
	<time>2025-08-16T07:08:10.000Z</time>
</trkpt>
<trkpt lat="45.9811160" lon="10.1959450">
	<ele>1681.40</ele>
	<time>2025-08-16T07:08:11.000Z</time>
</trkpt>
<trkpt lat="45.9811140" lon="10.1959350">
	<ele>1681.40</ele>
	<time>2025-08-16T07:08:12.000Z</time>
</trkpt>
<trkpt lat="45.9811180" lon="10.1959230">
	<ele>1681.60</ele>
	<time>2025-08-16T07:08:13.000Z</time>
</trkpt>
<trkpt lat="45.9811230" lon="10.1958990">
	<ele>1681.60</ele>
	<time>2025-08-16T07:08:14.000Z</time>
</trkpt>
<trkpt lat="45.9811270" lon="10.1958770">
	<ele>1681.60</ele>
	<time>2025-08-16T07:08:15.000Z</time>
</trkpt>
<trkpt lat="45.9811380" lon="10.1958630">
	<ele>1681.60</ele>
	<time>2025-08-16T07:08:16.000Z</time>
</trkpt>
<trkpt lat="45.9811410" lon="10.1958450">
	<ele>1681.60</ele>
	<time>2025-08-16T07:08:17.000Z</time>
</trkpt>
<trkpt lat="45.9811540" lon="10.1958230">
	<ele>1681.60</ele>
	<time>2025-08-16T07:08:18.000Z</time>
</trkpt>
<trkpt lat="45.9811610" lon="10.1958030">
	<ele>1681.60</ele>
	<time>2025-08-16T07:08:19.000Z</time>
</trkpt>
<trkpt lat="45.9811630" lon="10.1957800">
	<ele>1681.60</ele>
	<time>2025-08-16T07:08:20.000Z</time>
</trkpt>
<trkpt lat="45.9811590" lon="10.1957610">
	<ele>1681.40</ele>
	<time>2025-08-16T07:08:21.000Z</time>
</trkpt>
<trkpt lat="45.9811530" lon="10.1957480">
	<ele>1681.20</ele>
	<time>2025-08-16T07:08:22.000Z</time>
</trkpt>
<trkpt lat="45.9811470" lon="10.1957300">
	<ele>1681.20</ele>
	<time>2025-08-16T07:08:23.000Z</time>
</trkpt>
<trkpt lat="45.9811440" lon="10.1957100">
	<ele>1681.00</ele>
	<time>2025-08-16T07:08:24.000Z</time>
</trkpt>
<trkpt lat="45.9811360" lon="10.1956900">
	<ele>1681.00</ele>
	<time>2025-08-16T07:08:25.000Z</time>
</trkpt>
<trkpt lat="45.9811300" lon="10.1956710">
	<ele>1681.00</ele>
	<time>2025-08-16T07:08:26.000Z</time>
</trkpt>
<trkpt lat="45.9811290" lon="10.1956550">
	<ele>1681.00</ele>
	<time>2025-08-16T07:08:27.000Z</time>
</trkpt>
<trkpt lat="45.9811270" lon="10.1956410">
	<ele>1680.80</ele>
	<time>2025-08-16T07:08:28.000Z</time>
</trkpt>
<trkpt lat="45.9811200" lon="10.1956310">
	<ele>1680.80</ele>
	<time>2025-08-16T07:08:29.000Z</time>
</trkpt>
<trkpt lat="45.9811170" lon="10.1956200">
	<ele>1680.80</ele>
	<time>2025-08-16T07:08:30.000Z</time>
</trkpt>
<trkpt lat="45.9811150" lon="10.1956160">
	<ele>1680.80</ele>
	<time>2025-08-16T07:08:31.000Z</time>
</trkpt>
<trkpt lat="45.9811140" lon="10.1956140">
	<ele>1681.20</ele>
	<time>2025-08-16T07:08:32.000Z</time>
</trkpt>
<trkpt lat="45.9811140" lon="10.1956120">
	<ele>1681.40</ele>
	<time>2025-08-16T07:08:33.000Z</time>
</trkpt>
<trkpt lat="45.9811130" lon="10.1956130">
	<ele>1681.40</ele>
	<time>2025-08-16T07:08:34.000Z</time>
</trkpt>
<trkpt lat="45.9811040" lon="10.1956100">
	<ele>1681.60</ele>
	<time>2025-08-16T07:08:35.000Z</time>
</trkpt>
<trkpt lat="45.9810980" lon="10.1955940">
	<ele>1681.60</ele>
	<time>2025-08-16T07:08:36.000Z</time>
</trkpt>
<trkpt lat="45.9811010" lon="10.1955700">
	<ele>1681.40</ele>
	<time>2025-08-16T07:08:37.000Z</time>
</trkpt>
<trkpt lat="45.9811150" lon="10.1955500">
	<ele>1681.20</ele>
	<time>2025-08-16T07:08:38.000Z</time>
</trkpt>
<trkpt lat="45.9811230" lon="10.1955360">
	<ele>1681.20</ele>
	<time>2025-08-16T07:08:39.000Z</time>
</trkpt>
<trkpt lat="45.9811190" lon="10.1955250">
	<ele>1681.00</ele>
	<time>2025-08-16T07:08:40.000Z</time>
</trkpt>
<trkpt lat="45.9811120" lon="10.1955230">
	<ele>1681.00</ele>
	<time>2025-08-16T07:08:41.000Z</time>
</trkpt>
<trkpt lat="45.9811030" lon="10.1955100">
	<ele>1681.00</ele>
	<time>2025-08-16T07:08:42.000Z</time>
</trkpt>
<trkpt lat="45.9810910" lon="10.1954950">
	<ele>1681.20</ele>
	<time>2025-08-16T07:08:43.000Z</time>
</trkpt>
<trkpt lat="45.9810830" lon="10.1954780">
	<ele>1681.20</ele>
	<time>2025-08-16T07:08:44.000Z</time>
</trkpt>
<trkpt lat="45.9810790" lon="10.1954600">
	<ele>1681.40</ele>
	<time>2025-08-16T07:08:45.000Z</time>
</trkpt>
<trkpt lat="45.9810790" lon="10.1954410">
	<ele>1681.40</ele>
	<time>2025-08-16T07:08:46.000Z</time>
</trkpt>
<trkpt lat="45.9810780" lon="10.1954270">
	<ele>1681.40</ele>
	<time>2025-08-16T07:08:47.000Z</time>
</trkpt>
<trkpt lat="45.9810790" lon="10.1954150">
	<ele>1681.40</ele>
	<time>2025-08-16T07:08:48.000Z</time>
</trkpt>
<trkpt lat="45.9810810" lon="10.1953970">
	<ele>1681.40</ele>
	<time>2025-08-16T07:08:49.000Z</time>
</trkpt>
<trkpt lat="45.9810780" lon="10.1953790">
	<ele>1681.40</ele>
	<time>2025-08-16T07:08:50.000Z</time>
</trkpt>
<trkpt lat="45.9810800" lon="10.1953610">
	<ele>1681.40</ele>
	<time>2025-08-16T07:08:51.000Z</time>
</trkpt>
<trkpt lat="45.9810790" lon="10.1953460">
	<ele>1681.40</ele>
	<time>2025-08-16T07:08:52.000Z</time>
</trkpt>
<trkpt lat="45.9810800" lon="10.1953320">
	<ele>1681.40</ele>
	<time>2025-08-16T07:08:53.000Z</time>
</trkpt>
<trkpt lat="45.9810810" lon="10.1953160">
	<ele>1681.40</ele>
	<time>2025-08-16T07:08:54.000Z</time>
</trkpt>
<trkpt lat="45.9810810" lon="10.1952980">
	<ele>1681.40</ele>
	<time>2025-08-16T07:08:55.000Z</time>
</trkpt>
<trkpt lat="45.9810830" lon="10.1952820">
	<ele>1681.40</ele>
	<time>2025-08-16T07:08:56.000Z</time>
</trkpt>
<trkpt lat="45.9810790" lon="10.1952680">
	<ele>1681.40</ele>
	<time>2025-08-16T07:08:57.000Z</time>
</trkpt>
<trkpt lat="45.9810770" lon="10.1952550">
	<ele>1681.60</ele>
	<time>2025-08-16T07:08:58.000Z</time>
</trkpt>
<trkpt lat="45.9810790" lon="10.1952420">
	<ele>1681.60</ele>
	<time>2025-08-16T07:08:59.000Z</time>
</trkpt>
<trkpt lat="45.9810830" lon="10.1952240">
	<ele>1681.60</ele>
	<time>2025-08-16T07:09:00.000Z</time>
</trkpt>
<trkpt lat="45.9810860" lon="10.1952090">
	<ele>1681.60</ele>
	<time>2025-08-16T07:09:01.000Z</time>
</trkpt>
<trkpt lat="45.9810910" lon="10.1951880">
	<ele>1681.80</ele>
	<time>2025-08-16T07:09:02.000Z</time>
</trkpt>
<trkpt lat="45.9810930" lon="10.1951710">
	<ele>1681.80</ele>
	<time>2025-08-16T07:09:03.000Z</time>
</trkpt>
<trkpt lat="45.9810980" lon="10.1951550">
	<ele>1681.80</ele>
	<time>2025-08-16T07:09:04.000Z</time>
</trkpt>
<trkpt lat="45.9810990" lon="10.1951380">
	<ele>1682.00</ele>
	<time>2025-08-16T07:09:05.000Z</time>
</trkpt>
<trkpt lat="45.9811000" lon="10.1951280">
	<ele>1682.00</ele>
	<time>2025-08-16T07:09:06.000Z</time>
</trkpt>
<trkpt lat="45.9811060" lon="10.1951110">
	<ele>1682.00</ele>
	<time>2025-08-16T07:09:07.000Z</time>
</trkpt>
<trkpt lat="45.9811140" lon="10.1950990">
	<ele>1682.00</ele>
	<time>2025-08-16T07:09:08.000Z</time>
</trkpt>
<trkpt lat="45.9811180" lon="10.1950870">
	<ele>1682.20</ele>
	<time>2025-08-16T07:09:09.000Z</time>
</trkpt>
<trkpt lat="45.9811180" lon="10.1950750">
	<ele>1682.40</ele>
	<time>2025-08-16T07:09:10.000Z</time>
</trkpt>
<trkpt lat="45.9811190" lon="10.1950630">
	<ele>1682.60</ele>
	<time>2025-08-16T07:09:11.000Z</time>
</trkpt>
<trkpt lat="45.9811240" lon="10.1950480">
	<ele>1682.60</ele>
	<time>2025-08-16T07:09:12.000Z</time>
</trkpt>
<trkpt lat="45.9811260" lon="10.1950370">
	<ele>1682.80</ele>
	<time>2025-08-16T07:09:13.000Z</time>
</trkpt>
<trkpt lat="45.9811260" lon="10.1950260">
	<ele>1683.00</ele>
	<time>2025-08-16T07:09:14.000Z</time>
</trkpt>
<trkpt lat="45.9811230" lon="10.1950120">
	<ele>1683.20</ele>
	<time>2025-08-16T07:09:15.000Z</time>
</trkpt>
<trkpt lat="45.9811230" lon="10.1950020">
	<ele>1683.40</ele>
	<time>2025-08-16T07:09:16.000Z</time>
</trkpt>
<trkpt lat="45.9811200" lon="10.1949970">
	<ele>1683.60</ele>
	<time>2025-08-16T07:09:17.000Z</time>
</trkpt>
<trkpt lat="45.9811180" lon="10.1949910">
	<ele>1684.00</ele>
	<time>2025-08-16T07:09:18.000Z</time>
</trkpt>
<trkpt lat="45.9811170" lon="10.1949810">
	<ele>1684.40</ele>
	<time>2025-08-16T07:09:19.000Z</time>
</trkpt>
<trkpt lat="45.9811180" lon="10.1949740">
	<ele>1684.60</ele>
	<time>2025-08-16T07:09:20.000Z</time>
</trkpt>
<trkpt lat="45.9811170" lon="10.1949690">
	<ele>1685.00</ele>
	<time>2025-08-16T07:09:21.000Z</time>
</trkpt>
<trkpt lat="45.9811120" lon="10.1949630">
	<ele>1685.20</ele>
	<time>2025-08-16T07:09:22.000Z</time>
</trkpt>
<trkpt lat="45.9811090" lon="10.1949530">
	<ele>1685.20</ele>
	<time>2025-08-16T07:09:23.000Z</time>
</trkpt>
<trkpt lat="45.9811090" lon="10.1949440">
	<ele>1685.40</ele>
	<time>2025-08-16T07:09:24.000Z</time>
</trkpt>
<trkpt lat="45.9811100" lon="10.1949370">
	<ele>1685.40</ele>
	<time>2025-08-16T07:09:25.000Z</time>
</trkpt>
<trkpt lat="45.9811090" lon="10.1949310">
	<ele>1685.60</ele>
	<time>2025-08-16T07:09:26.000Z</time>
</trkpt>
<trkpt lat="45.9811100" lon="10.1949200">
	<ele>1685.80</ele>
	<time>2025-08-16T07:09:27.000Z</time>
</trkpt>
<trkpt lat="45.9811070" lon="10.1949080">
	<ele>1686.00</ele>
	<time>2025-08-16T07:09:28.000Z</time>
</trkpt>
<trkpt lat="45.9810980" lon="10.1948980">
	<ele>1686.20</ele>
	<time>2025-08-16T07:09:29.000Z</time>
</trkpt>
<trkpt lat="45.9810880" lon="10.1948900">
	<ele>1686.20</ele>
	<time>2025-08-16T07:09:30.000Z</time>
</trkpt>
<trkpt lat="45.9810840" lon="10.1948780">
	<ele>1686.40</ele>
	<time>2025-08-16T07:09:31.000Z</time>
</trkpt>
<trkpt lat="45.9810810" lon="10.1948710">
	<ele>1686.60</ele>
	<time>2025-08-16T07:09:32.000Z</time>
</trkpt>
<trkpt lat="45.9810780" lon="10.1948590">
	<ele>1686.60</ele>
	<time>2025-08-16T07:09:33.000Z</time>
</trkpt>
<trkpt lat="45.9810770" lon="10.1948450">
	<ele>1686.80</ele>
	<time>2025-08-16T07:09:34.000Z</time>
</trkpt>
<trkpt lat="45.9810730" lon="10.1948310">
	<ele>1687.00</ele>
	<time>2025-08-16T07:09:35.000Z</time>
</trkpt>
<trkpt lat="45.9810730" lon="10.1948170">
	<ele>1687.00</ele>
	<time>2025-08-16T07:09:36.000Z</time>
</trkpt>
<trkpt lat="45.9810740" lon="10.1948030">
	<ele>1687.20</ele>
	<time>2025-08-16T07:09:37.000Z</time>
</trkpt>
<trkpt lat="45.9810730" lon="10.1947880">
	<ele>1687.40</ele>
	<time>2025-08-16T07:09:38.000Z</time>
</trkpt>
<trkpt lat="45.9810720" lon="10.1947730">
	<ele>1687.40</ele>
	<time>2025-08-16T07:09:39.000Z</time>
</trkpt>
<trkpt lat="45.9810730" lon="10.1947560">
	<ele>1687.60</ele>
	<time>2025-08-16T07:09:40.000Z</time>
</trkpt>
<trkpt lat="45.9810740" lon="10.1947410">
	<ele>1687.80</ele>
	<time>2025-08-16T07:09:41.000Z</time>
</trkpt>
<trkpt lat="45.9810740" lon="10.1947270">
	<ele>1688.00</ele>
	<time>2025-08-16T07:09:42.000Z</time>
</trkpt>
<trkpt lat="45.9810750" lon="10.1947120">
	<ele>1688.00</ele>
	<time>2025-08-16T07:09:43.000Z</time>
</trkpt>
<trkpt lat="45.9810740" lon="10.1947010">
	<ele>1688.40</ele>
	<time>2025-08-16T07:09:44.000Z</time>
</trkpt>
<trkpt lat="45.9810740" lon="10.1946910">
	<ele>1688.60</ele>
	<time>2025-08-16T07:09:45.000Z</time>
</trkpt>
<trkpt lat="45.9810720" lon="10.1946790">
	<ele>1688.80</ele>
	<time>2025-08-16T07:09:46.000Z</time>
</trkpt>
<trkpt lat="45.9810700" lon="10.1946690">
	<ele>1688.80</ele>
	<time>2025-08-16T07:09:47.000Z</time>
</trkpt>
<trkpt lat="45.9810720" lon="10.1946570">
	<ele>1689.00</ele>
	<time>2025-08-16T07:09:48.000Z</time>
</trkpt>
<trkpt lat="45.9810710" lon="10.1946450">
	<ele>1689.00</ele>
	<time>2025-08-16T07:09:49.000Z</time>
</trkpt>
<trkpt lat="45.9810730" lon="10.1946290">
	<ele>1689.20</ele>
	<time>2025-08-16T07:09:50.000Z</time>
</trkpt>
<trkpt lat="45.9810720" lon="10.1946160">
	<ele>1689.40</ele>
	<time>2025-08-16T07:09:51.000Z</time>
</trkpt>
<trkpt lat="45.9810700" lon="10.1946030">
	<ele>1689.40</ele>
	<time>2025-08-16T07:09:52.000Z</time>
</trkpt>
<trkpt lat="45.9810690" lon="10.1945890">
	<ele>1689.60</ele>
	<time>2025-08-16T07:09:53.000Z</time>
</trkpt>
<trkpt lat="45.9810670" lon="10.1945770">
	<ele>1689.80</ele>
	<time>2025-08-16T07:09:54.000Z</time>
</trkpt>
<trkpt lat="45.9810680" lon="10.1945650">
	<ele>1690.00</ele>
	<time>2025-08-16T07:09:55.000Z</time>
</trkpt>
<trkpt lat="45.9810730" lon="10.1945500">
	<ele>1690.20</ele>
	<time>2025-08-16T07:09:56.000Z</time>
</trkpt>
<trkpt lat="45.9810770" lon="10.1945380">
	<ele>1690.60</ele>
	<time>2025-08-16T07:09:57.000Z</time>
</trkpt>
<trkpt lat="45.9810790" lon="10.1945260">
	<ele>1690.80</ele>
	<time>2025-08-16T07:09:58.000Z</time>
</trkpt>
<trkpt lat="45.9810800" lon="10.1945150">
	<ele>1690.80</ele>
	<time>2025-08-16T07:09:59.000Z</time>
</trkpt>
<trkpt lat="45.9810850" lon="10.1945070">
	<ele>1691.20</ele>
	<time>2025-08-16T07:10:00.000Z</time>
</trkpt>
<trkpt lat="45.9810900" lon="10.1944960">
	<ele>1691.20</ele>
	<time>2025-08-16T07:10:01.000Z</time>
</trkpt>
<trkpt lat="45.9810940" lon="10.1944810">
	<ele>1691.20</ele>
	<time>2025-08-16T07:10:02.000Z</time>
</trkpt>
<trkpt lat="45.9810950" lon="10.1944700">
	<ele>1691.60</ele>
	<time>2025-08-16T07:10:03.000Z</time>
</trkpt>
<trkpt lat="45.9810970" lon="10.1944590">
	<ele>1691.60</ele>
	<time>2025-08-16T07:10:04.000Z</time>
</trkpt>
<trkpt lat="45.9811010" lon="10.1944480">
	<ele>1691.80</ele>
	<time>2025-08-16T07:10:05.000Z</time>
</trkpt>
<trkpt lat="45.9811040" lon="10.1944360">
	<ele>1692.00</ele>
	<time>2025-08-16T07:10:06.000Z</time>
</trkpt>
<trkpt lat="45.9811070" lon="10.1944260">
	<ele>1692.20</ele>
	<time>2025-08-16T07:10:07.000Z</time>
</trkpt>
<trkpt lat="45.9811100" lon="10.1944150">
	<ele>1692.20</ele>
	<time>2025-08-16T07:10:08.000Z</time>
</trkpt>
<trkpt lat="45.9811110" lon="10.1944040">
	<ele>1692.40</ele>
	<time>2025-08-16T07:10:09.000Z</time>
</trkpt>
<trkpt lat="45.9811080" lon="10.1943900">
	<ele>1692.60</ele>
	<time>2025-08-16T07:10:10.000Z</time>
</trkpt>
<trkpt lat="45.9811060" lon="10.1943760">
	<ele>1692.80</ele>
	<time>2025-08-16T07:10:11.000Z</time>
</trkpt>
<trkpt lat="45.9811020" lon="10.1943630">
	<ele>1693.00</ele>
	<time>2025-08-16T07:10:12.000Z</time>
</trkpt>
<trkpt lat="45.9811010" lon="10.1943560">
	<ele>1693.20</ele>
	<time>2025-08-16T07:10:13.000Z</time>
</trkpt>
<trkpt lat="45.9811020" lon="10.1943460">
	<ele>1693.20</ele>
	<time>2025-08-16T07:10:14.000Z</time>
</trkpt>
<trkpt lat="45.9811040" lon="10.1943400">
	<ele>1693.40</ele>
	<time>2025-08-16T07:10:15.000Z</time>
</trkpt>
<trkpt lat="45.9811080" lon="10.1943310">
	<ele>1693.60</ele>
	<time>2025-08-16T07:10:16.000Z</time>
</trkpt>
<trkpt lat="45.9811110" lon="10.1943230">
	<ele>1693.60</ele>
	<time>2025-08-16T07:10:17.000Z</time>
</trkpt>
<trkpt lat="45.9811100" lon="10.1943120">
	<ele>1693.80</ele>
	<time>2025-08-16T07:10:18.000Z</time>
</trkpt>
<trkpt lat="45.9811040" lon="10.1943030">
	<ele>1694.00</ele>
	<time>2025-08-16T07:10:19.000Z</time>
</trkpt>
<trkpt lat="45.9811040" lon="10.1942990">
	<ele>1694.40</ele>
	<time>2025-08-16T07:10:20.000Z</time>
</trkpt>
<trkpt lat="45.9811050" lon="10.1942960">
	<ele>1694.60</ele>
	<time>2025-08-16T07:10:21.000Z</time>
</trkpt>
<trkpt lat="45.9811070" lon="10.1942870">
	<ele>1694.80</ele>
	<time>2025-08-16T07:10:22.000Z</time>
</trkpt>
<trkpt lat="45.9811110" lon="10.1942810">
	<ele>1695.00</ele>
	<time>2025-08-16T07:10:23.000Z</time>
</trkpt>
<trkpt lat="45.9811190" lon="10.1942760">
	<ele>1695.00</ele>
	<time>2025-08-16T07:10:24.000Z</time>
</trkpt>
<trkpt lat="45.9811290" lon="10.1942710">
	<ele>1695.20</ele>
	<time>2025-08-16T07:10:25.000Z</time>
</trkpt>
<trkpt lat="45.9811340" lon="10.1942610">
	<ele>1695.20</ele>
	<time>2025-08-16T07:10:26.000Z</time>
</trkpt>
<trkpt lat="45.9811370" lon="10.1942500">
	<ele>1695.20</ele>
	<time>2025-08-16T07:10:27.000Z</time>
</trkpt>
<trkpt lat="45.9811360" lon="10.1942380">
	<ele>1695.40</ele>
	<time>2025-08-16T07:10:28.000Z</time>
</trkpt>
<trkpt lat="45.9811340" lon="10.1942280">
	<ele>1695.40</ele>
	<time>2025-08-16T07:10:29.000Z</time>
</trkpt>
<trkpt lat="45.9811320" lon="10.1942170">
	<ele>1695.40</ele>
	<time>2025-08-16T07:10:30.000Z</time>
</trkpt>
<trkpt lat="45.9811300" lon="10.1942050">
	<ele>1695.60</ele>
	<time>2025-08-16T07:10:31.000Z</time>
</trkpt>
<trkpt lat="45.9811290" lon="10.1941900">
	<ele>1695.60</ele>
	<time>2025-08-16T07:10:32.000Z</time>
</trkpt>
<trkpt lat="45.9811240" lon="10.1941790">
	<ele>1695.60</ele>
	<time>2025-08-16T07:10:33.000Z</time>
</trkpt>
<trkpt lat="45.9811230" lon="10.1941670">
	<ele>1695.80</ele>
	<time>2025-08-16T07:10:34.000Z</time>
</trkpt>
<trkpt lat="45.9811240" lon="10.1941550">
	<ele>1695.80</ele>
	<time>2025-08-16T07:10:35.000Z</time>
</trkpt>
<trkpt lat="45.9811280" lon="10.1941450">
	<ele>1695.80</ele>
	<time>2025-08-16T07:10:36.000Z</time>
</trkpt>
<trkpt lat="45.9811300" lon="10.1941330">
	<ele>1696.00</ele>
	<time>2025-08-16T07:10:37.000Z</time>
</trkpt>
<trkpt lat="45.9811340" lon="10.1941220">
	<ele>1696.00</ele>
	<time>2025-08-16T07:10:38.000Z</time>
</trkpt>
<trkpt lat="45.9811370" lon="10.1941090">
	<ele>1696.00</ele>
	<time>2025-08-16T07:10:39.000Z</time>
</trkpt>
<trkpt lat="45.9811290" lon="10.1940980">
	<ele>1696.20</ele>
	<time>2025-08-16T07:10:40.000Z</time>
</trkpt>
<trkpt lat="45.9811290" lon="10.1940940">
	<ele>1696.40</ele>
	<time>2025-08-16T07:10:41.000Z</time>
</trkpt>
<trkpt lat="45.9811280" lon="10.1940870">
	<ele>1696.60</ele>
	<time>2025-08-16T07:10:42.000Z</time>
</trkpt>
<trkpt lat="45.9811220" lon="10.1940830">
	<ele>1697.00</ele>
	<time>2025-08-16T07:10:43.000Z</time>
</trkpt>
<trkpt lat="45.9811200" lon="10.1940770">
	<ele>1697.20</ele>
	<time>2025-08-16T07:10:44.000Z</time>
</trkpt>
<trkpt lat="45.9811160" lon="10.1940690">
	<ele>1697.40</ele>
	<time>2025-08-16T07:10:45.000Z</time>
</trkpt>
<trkpt lat="45.9811070" lon="10.1940610">
	<ele>1697.40</ele>
	<time>2025-08-16T07:10:46.000Z</time>
</trkpt>
<trkpt lat="45.9811000" lon="10.1940520">
	<ele>1697.60</ele>
	<time>2025-08-16T07:10:47.000Z</time>
</trkpt>
<trkpt lat="45.9810940" lon="10.1940450">
	<ele>1697.60</ele>
	<time>2025-08-16T07:10:48.000Z</time>
</trkpt>
<trkpt lat="45.9810890" lon="10.1940400">
	<ele>1697.80</ele>
	<time>2025-08-16T07:10:49.000Z</time>
</trkpt>
<trkpt lat="45.9810800" lon="10.1940280">
	<ele>1698.00</ele>
	<time>2025-08-16T07:10:50.000Z</time>
</trkpt>
<trkpt lat="45.9810750" lon="10.1940100">
	<ele>1698.00</ele>
	<time>2025-08-16T07:10:51.000Z</time>
</trkpt>
<trkpt lat="45.9810810" lon="10.1939910">
	<ele>1698.40</ele>
	<time>2025-08-16T07:10:52.000Z</time>
</trkpt>
<trkpt lat="45.9810880" lon="10.1939700">
	<ele>1698.40</ele>
	<time>2025-08-16T07:10:53.000Z</time>
</trkpt>
<trkpt lat="45.9810880" lon="10.1939620">
	<ele>1698.60</ele>
	<time>2025-08-16T07:10:54.000Z</time>
</trkpt>
<trkpt lat="45.9810870" lon="10.1939540">
	<ele>1698.80</ele>
	<time>2025-08-16T07:10:55.000Z</time>
</trkpt>
<trkpt lat="45.9810860" lon="10.1939480">
	<ele>1699.20</ele>
	<time>2025-08-16T07:10:56.000Z</time>
</trkpt>
<trkpt lat="45.9810910" lon="10.1939320">
	<ele>1699.20</ele>
	<time>2025-08-16T07:10:57.000Z</time>
</trkpt>
<trkpt lat="45.9811340" lon="10.1939200">
	<ele>1700.20</ele>
	<time>2025-08-16T07:33:01.000Z</time>
</trkpt>
<trkpt lat="45.9811550" lon="10.1939060">
	<ele>1700.40</ele>
	<time>2025-08-16T07:33:02.000Z</time>
</trkpt>
<trkpt lat="45.9811710" lon="10.1938940">
	<ele>1700.40</ele>
	<time>2025-08-16T07:33:03.000Z</time>
</trkpt>
<trkpt lat="45.9811850" lon="10.1938820">
	<ele>1700.60</ele>
	<time>2025-08-16T07:33:04.000Z</time>
</trkpt>
<trkpt lat="45.9811900" lon="10.1938760">
	<ele>1700.80</ele>
	<time>2025-08-16T07:33:05.000Z</time>
</trkpt>
<trkpt lat="45.9811940" lon="10.1938740">
	<ele>1700.80</ele>
	<time>2025-08-16T07:33:06.000Z</time>
</trkpt>
<trkpt lat="45.9811980" lon="10.1938750">
	<ele>1701.00</ele>
	<time>2025-08-16T07:33:07.000Z</time>
</trkpt>
<trkpt lat="45.9812020" lon="10.1938720">
	<ele>1701.00</ele>
	<time>2025-08-16T07:33:08.000Z</time>
</trkpt>
<trkpt lat="45.9812080" lon="10.1938620">
	<ele>1701.20</ele>
	<time>2025-08-16T07:33:09.000Z</time>
</trkpt>
<trkpt lat="45.9812060" lon="10.1938540">
	<ele>1701.20</ele>
	<time>2025-08-16T07:33:10.000Z</time>
</trkpt>
<trkpt lat="45.9812070" lon="10.1938420">
	<ele>1701.20</ele>
	<time>2025-08-16T07:33:11.000Z</time>
</trkpt>
<trkpt lat="45.9812130" lon="10.1938310">
	<ele>1701.20</ele>
	<time>2025-08-16T07:33:12.000Z</time>
</trkpt>
<trkpt lat="45.9812180" lon="10.1938160">
	<ele>1701.20</ele>
	<time>2025-08-16T07:33:13.000Z</time>
</trkpt>
<trkpt lat="45.9812240" lon="10.1938000">
	<ele>1701.20</ele>
	<time>2025-08-16T07:33:14.000Z</time>
</trkpt>
<trkpt lat="45.9812320" lon="10.1937830">
	<ele>1701.20</ele>
	<time>2025-08-16T07:33:15.000Z</time>
</trkpt>
<trkpt lat="45.9812340" lon="10.1937720">
	<ele>1701.40</ele>
	<time>2025-08-16T07:33:16.000Z</time>
</trkpt>
<trkpt lat="45.9812390" lon="10.1937560">
	<ele>1701.40</ele>
	<time>2025-08-16T07:33:17.000Z</time>
</trkpt>
<trkpt lat="45.9812420" lon="10.1937440">
	<ele>1701.60</ele>
	<time>2025-08-16T07:33:18.000Z</time>
</trkpt>
<trkpt lat="45.9812440" lon="10.1937330">
	<ele>1701.60</ele>
	<time>2025-08-16T07:33:19.000Z</time>
</trkpt>
<trkpt lat="45.9812450" lon="10.1937250">
	<ele>1701.80</ele>
	<time>2025-08-16T07:33:20.000Z</time>
</trkpt>
<trkpt lat="45.9812470" lon="10.1937150">
	<ele>1702.00</ele>
	<time>2025-08-16T07:33:21.000Z</time>
</trkpt>
<trkpt lat="45.9812480" lon="10.1937060">
	<ele>1702.20</ele>
	<time>2025-08-16T07:33:22.000Z</time>
</trkpt>
<trkpt lat="45.9812530" lon="10.1936900">
	<ele>1702.40</ele>
	<time>2025-08-16T07:33:23.000Z</time>
</trkpt>
<trkpt lat="45.9812580" lon="10.1936730">
	<ele>1702.40</ele>
	<time>2025-08-16T07:33:24.000Z</time>
</trkpt>
<trkpt lat="45.9812560" lon="10.1936610">
	<ele>1702.60</ele>
	<time>2025-08-16T07:33:25.000Z</time>
</trkpt>
<trkpt lat="45.9812590" lon="10.1936490">
	<ele>1702.60</ele>
	<time>2025-08-16T07:33:26.000Z</time>
</trkpt>
<trkpt lat="45.9812680" lon="10.1936350">
	<ele>1702.80</ele>
	<time>2025-08-16T07:33:27.000Z</time>
</trkpt>
<trkpt lat="45.9812730" lon="10.1936090">
	<ele>1702.80</ele>
	<time>2025-08-16T07:33:28.000Z</time>
</trkpt>
<trkpt lat="45.9812740" lon="10.1935930">
	<ele>1703.00</ele>
	<time>2025-08-16T07:33:29.000Z</time>
</trkpt>
<trkpt lat="45.9812760" lon="10.1935810">
	<ele>1703.00</ele>
	<time>2025-08-16T07:33:30.000Z</time>
</trkpt>
<trkpt lat="45.9812790" lon="10.1935670">
	<ele>1703.20</ele>
	<time>2025-08-16T07:33:31.000Z</time>
</trkpt>
<trkpt lat="45.9812790" lon="10.1935600">
	<ele>1703.20</ele>
	<time>2025-08-16T07:33:32.000Z</time>
</trkpt>
<trkpt lat="45.9812820" lon="10.1935540">
	<ele>1703.20</ele>
	<time>2025-08-16T07:33:33.000Z</time>
</trkpt>
<trkpt lat="45.9812790" lon="10.1935470">
	<ele>1703.40</ele>
	<time>2025-08-16T07:33:34.000Z</time>
</trkpt>
<trkpt lat="45.9812790" lon="10.1935360">
	<ele>1703.40</ele>
	<time>2025-08-16T07:33:35.000Z</time>
</trkpt>
<trkpt lat="45.9812860" lon="10.1935190">
	<ele>1703.40</ele>
	<time>2025-08-16T07:33:36.000Z</time>
</trkpt>
<trkpt lat="45.9812950" lon="10.1935070">
	<ele>1703.20</ele>
	<time>2025-08-16T07:33:37.000Z</time>
</trkpt>
<trkpt lat="45.9812950" lon="10.1935110">
	<ele>1703.20</ele>
	<time>2025-08-16T07:33:38.000Z</time>
</trkpt>
<trkpt lat="45.9812930" lon="10.1935120">
	<ele>1703.20</ele>
	<time>2025-08-16T07:33:39.000Z</time>
</trkpt>
<trkpt lat="45.9812960" lon="10.1935130">
	<ele>1703.00</ele>
	<time>2025-08-16T07:33:40.000Z</time>
</trkpt>
<trkpt lat="45.9812960" lon="10.1935310">
	<ele>1703.00</ele>
	<time>2025-08-16T07:33:41.000Z</time>
</trkpt>
<trkpt lat="45.9813040" lon="10.1935290">
	<ele>1702.80</ele>
	<time>2025-08-16T07:33:42.000Z</time>
</trkpt>
<trkpt lat="45.9813170" lon="10.1935120">
	<ele>1702.80</ele>
	<time>2025-08-16T07:33:43.000Z</time>
</trkpt>
<trkpt lat="45.9813280" lon="10.1934960">
	<ele>1702.60</ele>
	<time>2025-08-16T07:33:44.000Z</time>
</trkpt>
<trkpt lat="45.9813410" lon="10.1934900">
	<ele>1702.60</ele>
	<time>2025-08-16T07:33:45.000Z</time>
</trkpt>
<trkpt lat="45.9813470" lon="10.1934920">
	<ele>1702.40</ele>
	<time>2025-08-16T07:33:46.000Z</time>
</trkpt>
<trkpt lat="45.9813580" lon="10.1934960">
	<ele>1702.20</ele>
	<time>2025-08-16T07:33:47.000Z</time>
</trkpt>
<trkpt lat="45.9813770" lon="10.1934870">
	<ele>1702.00</ele>
	<time>2025-08-16T07:33:48.000Z</time>
</trkpt>
<trkpt lat="45.9813930" lon="10.1934800">
	<ele>1701.80</ele>
	<time>2025-08-16T07:33:49.000Z</time>
</trkpt>
<trkpt lat="45.9814040" lon="10.1934820">
	<ele>1701.60</ele>
	<time>2025-08-16T07:33:50.000Z</time>
</trkpt>
<trkpt lat="45.9814100" lon="10.1934780">
	<ele>1701.60</ele>
	<time>2025-08-16T07:33:51.000Z</time>
</trkpt>
<trkpt lat="45.9814100" lon="10.1934680">
	<ele>1701.60</ele>
	<time>2025-08-16T07:33:52.000Z</time>
</trkpt>
<trkpt lat="45.9814040" lon="10.1934580">
	<ele>1701.60</ele>
	<time>2025-08-16T07:33:53.000Z</time>
</trkpt>
<trkpt lat="45.9814040" lon="10.1934550">
	<ele>1701.80</ele>
	<time>2025-08-16T07:33:54.000Z</time>
</trkpt>
<trkpt lat="45.9814050" lon="10.1934550">
	<ele>1701.80</ele>
	<time>2025-08-16T07:33:55.000Z</time>
</trkpt>
<trkpt lat="45.9814100" lon="10.1934560">
	<ele>1702.00</ele>
	<time>2025-08-16T07:33:56.000Z</time>
</trkpt>
<trkpt lat="45.9814180" lon="10.1934550">
	<ele>1702.20</ele>
	<time>2025-08-16T07:33:57.000Z</time>
</trkpt>
<trkpt lat="45.9814240" lon="10.1934540">
	<ele>1702.40</ele>
	<time>2025-08-16T07:33:58.000Z</time>
</trkpt>
<trkpt lat="45.9814350" lon="10.1934540">
	<ele>1702.60</ele>
	<time>2025-08-16T07:33:59.000Z</time>
</trkpt>
<trkpt lat="45.9814400" lon="10.1934530">
	<ele>1702.60</ele>
	<time>2025-08-16T07:34:00.000Z</time>
</trkpt>
<trkpt lat="45.9814430" lon="10.1934510">
	<ele>1702.60</ele>
	<time>2025-08-16T07:34:01.000Z</time>
</trkpt>
<trkpt lat="45.9814390" lon="10.1934530">
	<ele>1702.80</ele>
	<time>2025-08-16T07:34:02.000Z</time>
</trkpt>
<trkpt lat="45.9814350" lon="10.1934520">
	<ele>1702.80</ele>
	<time>2025-08-16T07:34:03.000Z</time>
</trkpt>
<trkpt lat="45.9814320" lon="10.1934460">
	<ele>1702.80</ele>
	<time>2025-08-16T07:34:04.000Z</time>
</trkpt>
<trkpt lat="45.9814290" lon="10.1934420">
	<ele>1703.20</ele>
	<time>2025-08-16T07:34:05.000Z</time>
</trkpt>
<trkpt lat="45.9814310" lon="10.1934250">
	<ele>1703.40</ele>
	<time>2025-08-16T07:34:06.000Z</time>
</trkpt>
<trkpt lat="45.9814380" lon="10.1934050">
	<ele>1703.40</ele>
	<time>2025-08-16T07:34:07.000Z</time>
</trkpt>
<trkpt lat="45.9814360" lon="10.1934000">
	<ele>1703.40</ele>
	<time>2025-08-16T07:34:08.000Z</time>
</trkpt>
<trkpt lat="45.9814400" lon="10.1934120">
	<ele>1703.40</ele>
	<time>2025-08-16T07:34:09.000Z</time>
</trkpt>
<trkpt lat="45.9814470" lon="10.1934170">
	<ele>1703.40</ele>
	<time>2025-08-16T07:34:10.000Z</time>
</trkpt>
<trkpt lat="45.9814520" lon="10.1934100">
	<ele>1703.40</ele>
	<time>2025-08-16T07:34:11.000Z</time>
</trkpt>
<trkpt lat="45.9814540" lon="10.1934050">
	<ele>1703.20</ele>
	<time>2025-08-16T07:34:12.000Z</time>
</trkpt>
<trkpt lat="45.9814570" lon="10.1933980">
	<ele>1703.20</ele>
	<time>2025-08-16T07:34:13.000Z</time>
</trkpt>
<trkpt lat="45.9814570" lon="10.1933980">
	<ele>1703.20</ele>
	<time>2025-08-16T07:34:14.000Z</time>
</trkpt>
<trkpt lat="45.9814570" lon="10.1933980">
	<ele>1703.20</ele>
	<time>2025-08-16T07:34:15.000Z</time>
</trkpt>
<trkpt lat="45.9814570" lon="10.1933980">
	<ele>1703.20</ele>
	<time>2025-08-16T07:34:16.000Z</time>
</trkpt>
<trkpt lat="45.9814570" lon="10.1933980">
	<ele>1703.20</ele>
	<time>2025-08-16T07:34:17.000Z</time>
</trkpt>
<trkpt lat="45.9814570" lon="10.1933980">
	<ele>1703.20</ele>
	<time>2025-08-16T07:34:18.000Z</time>
</trkpt>
<trkpt lat="45.9814570" lon="10.1933980">
	<ele>1703.20</ele>
	<time>2025-08-16T07:34:19.000Z</time>
</trkpt>
<trkpt lat="45.9814570" lon="10.1933980">
	<ele>1703.00</ele>
	<time>2025-08-16T07:34:20.000Z</time>
</trkpt>
<trkpt lat="45.9814570" lon="10.1933980">
	<ele>1703.00</ele>
	<time>2025-08-16T07:34:21.000Z</time>
</trkpt>
<trkpt lat="45.9814570" lon="10.1933980">
	<ele>1702.80</ele>
	<time>2025-08-16T07:34:22.000Z</time>
</trkpt>
<trkpt lat="45.9814570" lon="10.1933980">
	<ele>1702.80</ele>
	<time>2025-08-16T07:34:23.000Z</time>
</trkpt>
<trkpt lat="45.9814570" lon="10.1933980">
	<ele>1702.80</ele>
	<time>2025-08-16T07:34:24.000Z</time>
</trkpt>
<trkpt lat="45.9814570" lon="10.1933980">
	<ele>1702.80</ele>
	<time>2025-08-16T07:34:25.000Z</time>
</trkpt>
<trkpt lat="45.9814570" lon="10.1933980">
	<ele>1702.80</ele>
	<time>2025-08-16T07:34:26.000Z</time>
</trkpt>
<trkpt lat="45.9814540" lon="10.1933980">
	<ele>1702.80</ele>
	<time>2025-08-16T07:34:27.000Z</time>
</trkpt>
<trkpt lat="45.9814520" lon="10.1933980">
	<ele>1702.80</ele>
	<time>2025-08-16T07:34:28.000Z</time>
</trkpt>
<trkpt lat="45.9814520" lon="10.1933950">
	<ele>1703.00</ele>
	<time>2025-08-16T07:34:29.000Z</time>
</trkpt>
<trkpt lat="45.9814520" lon="10.1933910">
	<ele>1703.20</ele>
	<time>2025-08-16T07:34:30.000Z</time>
</trkpt>
<trkpt lat="45.9814520" lon="10.1933880">
	<ele>1703.20</ele>
	<time>2025-08-16T07:34:31.000Z</time>
</trkpt>
<trkpt lat="45.9814520" lon="10.1933770">
	<ele>1703.20</ele>
	<time>2025-08-16T07:34:32.000Z</time>
</trkpt>
<trkpt lat="45.9814490" lon="10.1933540">
	<ele>1703.40</ele>
	<time>2025-08-16T07:34:33.000Z</time>
</trkpt>
<trkpt lat="45.9814450" lon="10.1933340">
	<ele>1703.40</ele>
	<time>2025-08-16T07:34:34.000Z</time>
</trkpt>
<trkpt lat="45.9814390" lon="10.1933170">
	<ele>1703.60</ele>
	<time>2025-08-16T07:34:35.000Z</time>
</trkpt>
<trkpt lat="45.9814300" lon="10.1933040">
	<ele>1703.80</ele>
	<time>2025-08-16T07:34:36.000Z</time>
</trkpt>
<trkpt lat="45.9814230" lon="10.1932930">
	<ele>1704.20</ele>
	<time>2025-08-16T07:34:37.000Z</time>
</trkpt>
<trkpt lat="45.9814180" lon="10.1932820">
	<ele>1704.20</ele>
	<time>2025-08-16T07:34:38.000Z</time>
</trkpt>
<trkpt lat="45.9814170" lon="10.1932660">
	<ele>1704.20</ele>
	<time>2025-08-16T07:34:39.000Z</time>
</trkpt>
<trkpt lat="45.9814170" lon="10.1932520">
	<ele>1704.20</ele>
	<time>2025-08-16T07:34:40.000Z</time>
</trkpt>
<trkpt lat="45.9814160" lon="10.1932350">
	<ele>1704.20</ele>
	<time>2025-08-16T07:34:41.000Z</time>
</trkpt>
<trkpt lat="45.9814120" lon="10.1932300">
	<ele>1704.40</ele>
	<time>2025-08-16T07:34:42.000Z</time>
</trkpt>
<trkpt lat="45.9814080" lon="10.1932260">
	<ele>1704.40</ele>
	<time>2025-08-16T07:34:43.000Z</time>
</trkpt>
<trkpt lat="45.9814040" lon="10.1932220">
	<ele>1704.40</ele>
	<time>2025-08-16T07:34:44.000Z</time>
</trkpt>
<trkpt lat="45.9813950" lon="10.1932160">
	<ele>1704.60</ele>
	<time>2025-08-16T07:34:45.000Z</time>
</trkpt>
<trkpt lat="45.9813860" lon="10.1932040">
	<ele>1704.60</ele>
	<time>2025-08-16T07:34:46.000Z</time>
</trkpt>
<trkpt lat="45.9813800" lon="10.1931890">
	<ele>1704.80</ele>
	<time>2025-08-16T07:34:47.000Z</time>
</trkpt>
<trkpt lat="45.9813800" lon="10.1931800">
	<ele>1705.00</ele>
	<time>2025-08-16T07:34:48.000Z</time>
</trkpt>
<trkpt lat="45.9813820" lon="10.1931670">
	<ele>1705.20</ele>
	<time>2025-08-16T07:34:49.000Z</time>
</trkpt>
<trkpt lat="45.9813890" lon="10.1931420">
	<ele>1705.20</ele>
	<time>2025-08-16T07:34:50.000Z</time>
</trkpt>
<trkpt lat="45.9813850" lon="10.1931300">
	<ele>1705.40</ele>
	<time>2025-08-16T07:34:51.000Z</time>
</trkpt>
<trkpt lat="45.9813830" lon="10.1931120">
	<ele>1705.60</ele>
	<time>2025-08-16T07:34:52.000Z</time>
</trkpt>
<trkpt lat="45.9813810" lon="10.1930980">
	<ele>1705.60</ele>
	<time>2025-08-16T07:34:53.000Z</time>
</trkpt>
<trkpt lat="45.9813730" lon="10.1930850">
	<ele>1705.80</ele>
	<time>2025-08-16T07:34:54.000Z</time>
</trkpt>
<trkpt lat="45.9813700" lon="10.1930780">
	<ele>1705.80</ele>
	<time>2025-08-16T07:34:55.000Z</time>
</trkpt>
<trkpt lat="45.9813690" lon="10.1930760">
	<ele>1706.00</ele>
	<time>2025-08-16T07:34:56.000Z</time>
</trkpt>
<trkpt lat="45.9813870" lon="10.1930760">
	<ele>1706.00</ele>
	<time>2025-08-16T07:34:57.000Z</time>
</trkpt>
<trkpt lat="45.9814090" lon="10.1930670">
	<ele>1706.00</ele>
	<time>2025-08-16T07:34:58.000Z</time>
</trkpt>
<trkpt lat="45.9814310" lon="10.1930440">
	<ele>1706.20</ele>
	<time>2025-08-16T07:34:59.000Z</time>
</trkpt>
<trkpt lat="45.9814500" lon="10.1930180">
	<ele>1706.20</ele>
	<time>2025-08-16T07:35:00.000Z</time>
</trkpt>
<trkpt lat="45.9814560" lon="10.1930160">
	<ele>1706.20</ele>
	<time>2025-08-16T07:35:01.000Z</time>
</trkpt>
<trkpt lat="45.9814550" lon="10.1930150">
	<ele>1706.20</ele>
	<time>2025-08-16T07:35:02.000Z</time>
</trkpt>
<trkpt lat="45.9814540" lon="10.1930180">
	<ele>1706.20</ele>
	<time>2025-08-16T07:35:03.000Z</time>
</trkpt>
<trkpt lat="45.9814490" lon="10.1930220">
	<ele>1706.40</ele>
	<time>2025-08-16T07:35:04.000Z</time>
</trkpt>
<trkpt lat="45.9814430" lon="10.1930240">
	<ele>1706.40</ele>
	<time>2025-08-16T07:35:05.000Z</time>
</trkpt>
<trkpt lat="45.9814370" lon="10.1930180">
	<ele>1706.40</ele>
	<time>2025-08-16T07:35:06.000Z</time>
</trkpt>
<trkpt lat="45.9814280" lon="10.1930130">
	<ele>1706.40</ele>
	<time>2025-08-16T07:35:07.000Z</time>
</trkpt>
<trkpt lat="45.9814200" lon="10.1930060">
	<ele>1706.20</ele>
	<time>2025-08-16T07:35:08.000Z</time>
</trkpt>
<trkpt lat="45.9814160" lon="10.1929970">
	<ele>1706.40</ele>
	<time>2025-08-16T07:35:09.000Z</time>
</trkpt>
<trkpt lat="45.9814150" lon="10.1929830">
	<ele>1706.20</ele>
	<time>2025-08-16T07:35:10.000Z</time>
</trkpt>
<trkpt lat="45.9814120" lon="10.1929680">
	<ele>1706.20</ele>
	<time>2025-08-16T07:35:11.000Z</time>
</trkpt>
<trkpt lat="45.9814100" lon="10.1929560">
	<ele>1706.40</ele>
	<time>2025-08-16T07:35:12.000Z</time>
</trkpt>
<trkpt lat="45.9814070" lon="10.1929520">
	<ele>1706.40</ele>
	<time>2025-08-16T07:35:13.000Z</time>
</trkpt>
<trkpt lat="45.9814030" lon="10.1929510">
	<ele>1706.40</ele>
	<time>2025-08-16T07:35:14.000Z</time>
</trkpt>
<trkpt lat="45.9814000" lon="10.1929540">
	<ele>1706.60</ele>
	<time>2025-08-16T07:35:15.000Z</time>
</trkpt>
<trkpt lat="45.9813980" lon="10.1929500">
	<ele>1706.60</ele>
	<time>2025-08-16T07:35:16.000Z</time>
</trkpt>
<trkpt lat="45.9813970" lon="10.1929420">
	<ele>1706.80</ele>
	<time>2025-08-16T07:35:17.000Z</time>
</trkpt>
<trkpt lat="45.9813870" lon="10.1929390">
	<ele>1706.80</ele>
	<time>2025-08-16T07:35:18.000Z</time>
</trkpt>
<trkpt lat="45.9813760" lon="10.1929320">
	<ele>1706.80</ele>
	<time>2025-08-16T07:35:19.000Z</time>
</trkpt>
<trkpt lat="45.9813740" lon="10.1929220">
	<ele>1706.80</ele>
	<time>2025-08-16T07:35:20.000Z</time>
</trkpt>
<trkpt lat="45.9813670" lon="10.1929150">
	<ele>1706.80</ele>
	<time>2025-08-16T07:35:21.000Z</time>
</trkpt>
<trkpt lat="45.9813570" lon="10.1929070">
	<ele>1707.00</ele>
	<time>2025-08-16T07:35:22.000Z</time>
</trkpt>
<trkpt lat="45.9813420" lon="10.1928980">
	<ele>1707.20</ele>
	<time>2025-08-16T07:35:23.000Z</time>
</trkpt>
<trkpt lat="45.9813390" lon="10.1928870">
	<ele>1707.60</ele>
	<time>2025-08-16T07:35:24.000Z</time>
</trkpt>
<trkpt lat="45.9813390" lon="10.1928730">
	<ele>1707.80</ele>
	<time>2025-08-16T07:35:25.000Z</time>
</trkpt>
<trkpt lat="45.9813360" lon="10.1928750">
	<ele>1708.00</ele>
	<time>2025-08-16T07:35:26.000Z</time>
</trkpt>
<trkpt lat="45.9813320" lon="10.1928820">
	<ele>1708.20</ele>
	<time>2025-08-16T07:35:27.000Z</time>
</trkpt>
<trkpt lat="45.9813290" lon="10.1928780">
	<ele>1708.40</ele>
	<time>2025-08-16T07:35:28.000Z</time>
</trkpt>
<trkpt lat="45.9813210" lon="10.1928780">
	<ele>1708.60</ele>
	<time>2025-08-16T07:35:29.000Z</time>
</trkpt>
<trkpt lat="45.9812980" lon="10.1928820">
	<ele>1708.80</ele>
	<time>2025-08-16T07:35:30.000Z</time>
</trkpt>
<trkpt lat="45.9812990" lon="10.1928770">
	<ele>1709.20</ele>
	<time>2025-08-16T07:35:31.000Z</time>
</trkpt>
<trkpt lat="45.9812920" lon="10.1928810">
	<ele>1709.40</ele>
	<time>2025-08-16T07:35:32.000Z</time>
</trkpt>
<trkpt lat="45.9812820" lon="10.1928860">
	<ele>1709.60</ele>
	<time>2025-08-16T07:35:33.000Z</time>
</trkpt>
<trkpt lat="45.9812770" lon="10.1928760">
	<ele>1709.80</ele>
	<time>2025-08-16T07:35:34.000Z</time>
</trkpt>
<trkpt lat="45.9812790" lon="10.1928600">
	<ele>1710.00</ele>
	<time>2025-08-16T07:35:35.000Z</time>
</trkpt>
<trkpt lat="45.9812840" lon="10.1928460">
	<ele>1710.20</ele>
	<time>2025-08-16T07:35:36.000Z</time>
</trkpt>
<trkpt lat="45.9812910" lon="10.1928310">
	<ele>1710.40</ele>
	<time>2025-08-16T07:35:37.000Z</time>
</trkpt>
<trkpt lat="45.9812920" lon="10.1928280">
	<ele>1710.60</ele>
	<time>2025-08-16T07:35:38.000Z</time>
</trkpt>
<trkpt lat="45.9812890" lon="10.1928270">
	<ele>1710.60</ele>
	<time>2025-08-16T07:35:39.000Z</time>
</trkpt>
<trkpt lat="45.9812870" lon="10.1928240">
	<ele>1710.80</ele>
	<time>2025-08-16T07:35:40.000Z</time>
</trkpt>
<trkpt lat="45.9812830" lon="10.1928160">
	<ele>1710.80</ele>
	<time>2025-08-16T07:35:41.000Z</time>
</trkpt>
<trkpt lat="45.9812800" lon="10.1928040">
	<ele>1711.00</ele>
	<time>2025-08-16T07:35:42.000Z</time>
</trkpt>
<trkpt lat="45.9812780" lon="10.1927920">
	<ele>1711.20</ele>
	<time>2025-08-16T07:35:43.000Z</time>
</trkpt>
<trkpt lat="45.9812770" lon="10.1927820">
	<ele>1711.40</ele>
	<time>2025-08-16T07:35:44.000Z</time>
</trkpt>
<trkpt lat="45.9812750" lon="10.1927700">
	<ele>1711.40</ele>
	<time>2025-08-16T07:35:45.000Z</time>
</trkpt>
<trkpt lat="45.9812780" lon="10.1927600">
	<ele>1711.60</ele>
	<time>2025-08-16T07:35:46.000Z</time>
</trkpt>
<trkpt lat="45.9812830" lon="10.1927430">
	<ele>1711.80</ele>
	<time>2025-08-16T07:35:47.000Z</time>
</trkpt>
<trkpt lat="45.9812860" lon="10.1927330">
	<ele>1712.00</ele>
	<time>2025-08-16T07:35:48.000Z</time>
</trkpt>
<trkpt lat="45.9812880" lon="10.1927210">
	<ele>1712.20</ele>
	<time>2025-08-16T07:35:49.000Z</time>
</trkpt>
<trkpt lat="45.9812880" lon="10.1927150">
	<ele>1712.40</ele>
	<time>2025-08-16T07:35:50.000Z</time>
</trkpt>
<trkpt lat="45.9812820" lon="10.1927060">
	<ele>1712.40</ele>
	<time>2025-08-16T07:35:51.000Z</time>
</trkpt>
<trkpt lat="45.9812800" lon="10.1926970">
	<ele>1712.60</ele>
	<time>2025-08-16T07:35:52.000Z</time>
</trkpt>
<trkpt lat="45.9812750" lon="10.1926880">
	<ele>1712.80</ele>
	<time>2025-08-16T07:35:53.000Z</time>
</trkpt>
<trkpt lat="45.9812760" lon="10.1926700">
	<ele>1713.00</ele>
	<time>2025-08-16T07:35:54.000Z</time>
</trkpt>
<trkpt lat="45.9812770" lon="10.1926550">
	<ele>1713.20</ele>
	<time>2025-08-16T07:35:55.000Z</time>
</trkpt>
<trkpt lat="45.9812790" lon="10.1926430">
	<ele>1713.40</ele>
	<time>2025-08-16T07:35:56.000Z</time>
</trkpt>
<trkpt lat="45.9812770" lon="10.1926360">
	<ele>1713.60</ele>
	<time>2025-08-16T07:35:57.000Z</time>
</trkpt>
<trkpt lat="45.9812740" lon="10.1926310">
	<ele>1713.80</ele>
	<time>2025-08-16T07:35:58.000Z</time>
</trkpt>
<trkpt lat="45.9812730" lon="10.1926220">
	<ele>1714.00</ele>
	<time>2025-08-16T07:35:59.000Z</time>
</trkpt>
<trkpt lat="45.9812740" lon="10.1926150">
	<ele>1714.20</ele>
	<time>2025-08-16T07:36:00.000Z</time>
</trkpt>
<trkpt lat="45.9812760" lon="10.1926020">
	<ele>1714.20</ele>
	<time>2025-08-16T07:36:01.000Z</time>
</trkpt>
<trkpt lat="45.9812760" lon="10.1925920">
	<ele>1714.40</ele>
	<time>2025-08-16T07:36:02.000Z</time>
</trkpt>
<trkpt lat="45.9812730" lon="10.1925850">
	<ele>1714.60</ele>
	<time>2025-08-16T07:36:03.000Z</time>
</trkpt>
<trkpt lat="45.9812690" lon="10.1925750">
	<ele>1714.80</ele>
	<time>2025-08-16T07:36:04.000Z</time>
</trkpt>
<trkpt lat="45.9812650" lon="10.1925690">
	<ele>1714.80</ele>
	<time>2025-08-16T07:36:05.000Z</time>
</trkpt>
<trkpt lat="45.9812630" lon="10.1925660">
	<ele>1715.00</ele>
	<time>2025-08-16T07:36:06.000Z</time>
</trkpt>
<trkpt lat="45.9812630" lon="10.1925570">
	<ele>1715.20</ele>
	<time>2025-08-16T07:36:07.000Z</time>
</trkpt>
<trkpt lat="45.9812650" lon="10.1925470">
	<ele>1715.20</ele>
	<time>2025-08-16T07:36:08.000Z</time>
</trkpt>
<trkpt lat="45.9812600" lon="10.1925290">
	<ele>1715.40</ele>
	<time>2025-08-16T07:36:09.000Z</time>
</trkpt>
<trkpt lat="45.9812590" lon="10.1925210">
	<ele>1715.40</ele>
	<time>2025-08-16T07:36:10.000Z</time>
</trkpt>
<trkpt lat="45.9812580" lon="10.1925090">
	<ele>1715.60</ele>
	<time>2025-08-16T07:36:11.000Z</time>
</trkpt>
<trkpt lat="45.9812550" lon="10.1925020">
	<ele>1715.60</ele>
	<time>2025-08-16T07:36:12.000Z</time>
</trkpt>
<trkpt lat="45.9812480" lon="10.1924980">
	<ele>1715.80</ele>
	<time>2025-08-16T07:36:13.000Z</time>
</trkpt>
<trkpt lat="45.9812490" lon="10.1924860">
	<ele>1716.00</ele>
	<time>2025-08-16T07:36:14.000Z</time>
</trkpt>
<trkpt lat="45.9812430" lon="10.1924720">
	<ele>1716.20</ele>
	<time>2025-08-16T07:36:15.000Z</time>
</trkpt>
<trkpt lat="45.9812340" lon="10.1924580">
	<ele>1716.20</ele>
	<time>2025-08-16T07:36:16.000Z</time>
</trkpt>
<trkpt lat="45.9812240" lon="10.1924460">
	<ele>1716.40</ele>
	<time>2025-08-16T07:36:17.000Z</time>
</trkpt>
<trkpt lat="45.9812170" lon="10.1924360">
	<ele>1716.60</ele>
	<time>2025-08-16T07:36:18.000Z</time>
</trkpt>
<trkpt lat="45.9812100" lon="10.1924220">
	<ele>1716.60</ele>
	<time>2025-08-16T07:36:19.000Z</time>
</trkpt>
<trkpt lat="45.9812000" lon="10.1924170">
	<ele>1716.80</ele>
	<time>2025-08-16T07:36:20.000Z</time>
</trkpt>
<trkpt lat="45.9811920" lon="10.1924150">
	<ele>1716.80</ele>
	<time>2025-08-16T07:36:21.000Z</time>
</trkpt>
<trkpt lat="45.9811810" lon="10.1924020">
	<ele>1716.80</ele>
	<time>2025-08-16T07:36:22.000Z</time>
</trkpt>
<trkpt lat="45.9811700" lon="10.1923950">
	<ele>1717.00</ele>
	<time>2025-08-16T07:36:23.000Z</time>
</trkpt>
<trkpt lat="45.9811610" lon="10.1923970">
	<ele>1717.40</ele>
	<time>2025-08-16T07:36:24.000Z</time>
</trkpt>
<trkpt lat="45.9811540" lon="10.1923950">
	<ele>1717.60</ele>
	<time>2025-08-16T07:36:25.000Z</time>
</trkpt>
<trkpt lat="45.9811480" lon="10.1923850">
	<ele>1717.60</ele>
	<time>2025-08-16T07:36:26.000Z</time>
</trkpt>
<trkpt lat="45.9811420" lon="10.1923700">
	<ele>1717.80</ele>
	<time>2025-08-16T07:36:27.000Z</time>
</trkpt>
<trkpt lat="45.9811400" lon="10.1923550">
	<ele>1717.80</ele>
	<time>2025-08-16T07:36:28.000Z</time>
</trkpt>
<trkpt lat="45.9811380" lon="10.1923380">
	<ele>1717.80</ele>
	<time>2025-08-16T07:36:29.000Z</time>
</trkpt>
<trkpt lat="45.9811340" lon="10.1923230">
	<ele>1717.80</ele>
	<time>2025-08-16T07:36:30.000Z</time>
</trkpt>
<trkpt lat="45.9811340" lon="10.1923060">
	<ele>1718.00</ele>
	<time>2025-08-16T07:36:31.000Z</time>
</trkpt>
<trkpt lat="45.9811380" lon="10.1922860">
	<ele>1718.20</ele>
	<time>2025-08-16T07:36:32.000Z</time>
</trkpt>
<trkpt lat="45.9811380" lon="10.1922680">
	<ele>1718.20</ele>
	<time>2025-08-16T07:36:33.000Z</time>
</trkpt>
<trkpt lat="45.9811400" lon="10.1922610">
	<ele>1718.40</ele>
	<time>2025-08-16T07:36:34.000Z</time>
</trkpt>
<trkpt lat="45.9811370" lon="10.1922560">
	<ele>1718.60</ele>
	<time>2025-08-16T07:36:35.000Z</time>
</trkpt>
<trkpt lat="45.9811340" lon="10.1922450">
	<ele>1718.60</ele>
	<time>2025-08-16T07:36:36.000Z</time>
</trkpt>
<trkpt lat="45.9811290" lon="10.1922310">
	<ele>1718.80</ele>
	<time>2025-08-16T07:36:37.000Z</time>
</trkpt>
<trkpt lat="45.9811190" lon="10.1922200">
	<ele>1718.80</ele>
	<time>2025-08-16T07:36:38.000Z</time>
</trkpt>
<trkpt lat="45.9811190" lon="10.1922060">
	<ele>1718.80</ele>
	<time>2025-08-16T07:36:39.000Z</time>
</trkpt>
<trkpt lat="45.9811180" lon="10.1921980">
	<ele>1719.00</ele>
	<time>2025-08-16T07:36:40.000Z</time>
</trkpt>
<trkpt lat="45.9811170" lon="10.1921920">
	<ele>1719.20</ele>
	<time>2025-08-16T07:36:41.000Z</time>
</trkpt>
<trkpt lat="45.9811170" lon="10.1921820">
	<ele>1719.40</ele>
	<time>2025-08-16T07:36:42.000Z</time>
</trkpt>
<trkpt lat="45.9811150" lon="10.1921710">
	<ele>1719.60</ele>
	<time>2025-08-16T07:36:43.000Z</time>
</trkpt>
<trkpt lat="45.9811210" lon="10.1921560">
	<ele>1719.60</ele>
	<time>2025-08-16T07:36:44.000Z</time>
</trkpt>
<trkpt lat="45.9811190" lon="10.1921500">
	<ele>1719.80</ele>
	<time>2025-08-16T07:36:45.000Z</time>
</trkpt>
<trkpt lat="45.9811140" lon="10.1921370">
	<ele>1720.00</ele>
	<time>2025-08-16T07:36:46.000Z</time>
</trkpt>
<trkpt lat="45.9811080" lon="10.1921260">
	<ele>1720.20</ele>
	<time>2025-08-16T07:36:47.000Z</time>
</trkpt>
<trkpt lat="45.9810980" lon="10.1921210">
	<ele>1720.40</ele>
	<time>2025-08-16T07:36:48.000Z</time>
</trkpt>
<trkpt lat="45.9811010" lon="10.1921120">
	<ele>1720.60</ele>
	<time>2025-08-16T07:36:49.000Z</time>
</trkpt>
<trkpt lat="45.9811060" lon="10.1920990">
	<ele>1720.80</ele>
	<time>2025-08-16T07:36:50.000Z</time>
</trkpt>
<trkpt lat="45.9811110" lon="10.1920870">
	<ele>1721.20</ele>
	<time>2025-08-16T07:36:51.000Z</time>
</trkpt>
<trkpt lat="45.9811090" lon="10.1920770">
	<ele>1721.40</ele>
	<time>2025-08-16T07:36:52.000Z</time>
</trkpt>
<trkpt lat="45.9811030" lon="10.1920670">
	<ele>1721.40</ele>
	<time>2025-08-16T07:36:53.000Z</time>
</trkpt>
<trkpt lat="45.9811000" lon="10.1920600">
	<ele>1721.60</ele>
	<time>2025-08-16T07:36:54.000Z</time>
</trkpt>
<trkpt lat="45.9810990" lon="10.1920490">
	<ele>1721.60</ele>
	<time>2025-08-16T07:36:55.000Z</time>
</trkpt>
<trkpt lat="45.9811000" lon="10.1920500">
	<ele>1721.80</ele>
	<time>2025-08-16T07:36:56.000Z</time>
</trkpt>
<trkpt lat="45.9811030" lon="10.1920240">
	<ele>1722.00</ele>
	<time>2025-08-16T07:36:57.000Z</time>
</trkpt>
<trkpt lat="45.9811020" lon="10.1920040">
	<ele>1722.20</ele>
	<time>2025-08-16T07:36:58.000Z</time>
</trkpt>
<trkpt lat="45.9810970" lon="10.1919890">
	<ele>1722.40</ele>
	<time>2025-08-16T07:36:59.000Z</time>
</trkpt>
<trkpt lat="45.9810910" lon="10.1919860">
	<ele>1722.60</ele>
	<time>2025-08-16T07:37:00.000Z</time>
</trkpt>
<trkpt lat="45.9810870" lon="10.1919870">
	<ele>1722.80</ele>
	<time>2025-08-16T07:37:01.000Z</time>
</trkpt>
<trkpt lat="45.9810820" lon="10.1919810">
	<ele>1722.80</ele>
	<time>2025-08-16T07:37:02.000Z</time>
</trkpt>
<trkpt lat="45.9810810" lon="10.1919750">
	<ele>1723.00</ele>
	<time>2025-08-16T07:37:03.000Z</time>
</trkpt>
<trkpt lat="45.9810790" lon="10.1919690">
	<ele>1723.40</ele>
	<time>2025-08-16T07:37:04.000Z</time>
</trkpt>
<trkpt lat="45.9810780" lon="10.1919620">
	<ele>1723.60</ele>
	<time>2025-08-16T07:37:05.000Z</time>
</trkpt>
<trkpt lat="45.9810800" lon="10.1919510">
	<ele>1723.80</ele>
	<time>2025-08-16T07:37:06.000Z</time>
</trkpt>
<trkpt lat="45.9810800" lon="10.1919390">
	<ele>1723.80</ele>
	<time>2025-08-16T07:37:07.000Z</time>
</trkpt>
<trkpt lat="45.9810820" lon="10.1919290">
	<ele>1724.00</ele>
	<time>2025-08-16T07:37:08.000Z</time>
</trkpt>
<trkpt lat="45.9810830" lon="10.1919200">
	<ele>1724.20</ele>
	<time>2025-08-16T07:37:09.000Z</time>
</trkpt>
<trkpt lat="45.9810830" lon="10.1919140">
	<ele>1724.40</ele>
	<time>2025-08-16T07:37:10.000Z</time>
</trkpt>
<trkpt lat="45.9810830" lon="10.1919010">
	<ele>1724.40</ele>
	<time>2025-08-16T07:37:11.000Z</time>
</trkpt>
<trkpt lat="45.9810790" lon="10.1918850">
	<ele>1724.60</ele>
	<time>2025-08-16T07:37:12.000Z</time>
</trkpt>
<trkpt lat="45.9810710" lon="10.1918750">
	<ele>1725.00</ele>
	<time>2025-08-16T07:37:13.000Z</time>
</trkpt>
<trkpt lat="45.9810630" lon="10.1918730">
	<ele>1725.20</ele>
	<time>2025-08-16T07:37:14.000Z</time>
</trkpt>
<trkpt lat="45.9810550" lon="10.1918700">
	<ele>1725.40</ele>
	<time>2025-08-16T07:37:15.000Z</time>
</trkpt>
<trkpt lat="45.9810490" lon="10.1918700">
	<ele>1725.60</ele>
	<time>2025-08-16T07:37:16.000Z</time>
</trkpt>
<trkpt lat="45.9810490" lon="10.1918600">
	<ele>1725.80</ele>
	<time>2025-08-16T07:37:17.000Z</time>
</trkpt>
<trkpt lat="45.9810470" lon="10.1918510">
	<ele>1725.80</ele>
	<time>2025-08-16T07:37:18.000Z</time>
</trkpt>
<trkpt lat="45.9810370" lon="10.1918410">
	<ele>1726.00</ele>
	<time>2025-08-16T07:37:19.000Z</time>
</trkpt>
<trkpt lat="45.9810340" lon="10.1918350">
	<ele>1726.00</ele>
	<time>2025-08-16T07:37:20.000Z</time>
</trkpt>
<trkpt lat="45.9810320" lon="10.1918330">
	<ele>1726.20</ele>
	<time>2025-08-16T07:37:21.000Z</time>
</trkpt>
<trkpt lat="45.9810190" lon="10.1918250">
	<ele>1726.40</ele>
	<time>2025-08-16T07:37:22.000Z</time>
</trkpt>
<trkpt lat="45.9810090" lon="10.1918180">
	<ele>1726.40</ele>
	<time>2025-08-16T07:37:23.000Z</time>
</trkpt>
<trkpt lat="45.9810020" lon="10.1918140">
	<ele>1726.60</ele>
	<time>2025-08-16T07:37:24.000Z</time>
</trkpt>
<trkpt lat="45.9809950" lon="10.1918100">
	<ele>1726.80</ele>
	<time>2025-08-16T07:37:25.000Z</time>
</trkpt>
<trkpt lat="45.9809900" lon="10.1918030">
	<ele>1727.00</ele>
	<time>2025-08-16T07:37:26.000Z</time>
</trkpt>
<trkpt lat="45.9809880" lon="10.1917910">
	<ele>1727.20</ele>
	<time>2025-08-16T07:37:27.000Z</time>
</trkpt>
<trkpt lat="45.9809760" lon="10.1917890">
	<ele>1727.40</ele>
	<time>2025-08-16T07:37:28.000Z</time>
</trkpt>
<trkpt lat="45.9809780" lon="10.1917760">
	<ele>1727.60</ele>
	<time>2025-08-16T07:37:29.000Z</time>
</trkpt>
<trkpt lat="45.9809810" lon="10.1917660">
	<ele>1727.80</ele>
	<time>2025-08-16T07:37:30.000Z</time>
</trkpt>
<trkpt lat="45.9809830" lon="10.1917530">
	<ele>1728.20</ele>
	<time>2025-08-16T07:37:31.000Z</time>
</trkpt>
<trkpt lat="45.9809870" lon="10.1917380">
	<ele>1728.40</ele>
	<time>2025-08-16T07:37:32.000Z</time>
</trkpt>
<trkpt lat="45.9809860" lon="10.1917270">
	<ele>1728.60</ele>
	<time>2025-08-16T07:37:33.000Z</time>
</trkpt>
<trkpt lat="45.9809820" lon="10.1917170">
	<ele>1728.60</ele>
	<time>2025-08-16T07:37:34.000Z</time>
</trkpt>
<trkpt lat="45.9809740" lon="10.1917130">
	<ele>1728.80</ele>
	<time>2025-08-16T07:37:35.000Z</time>
</trkpt>
<trkpt lat="45.9809660" lon="10.1917020">
	<ele>1729.00</ele>
	<time>2025-08-16T07:37:36.000Z</time>
</trkpt>
<trkpt lat="45.9809620" lon="10.1916900">
	<ele>1729.00</ele>
	<time>2025-08-16T07:37:37.000Z</time>
</trkpt>
<trkpt lat="45.9809570" lon="10.1916850">
	<ele>1729.20</ele>
	<time>2025-08-16T07:37:38.000Z</time>
</trkpt>
<trkpt lat="45.9809540" lon="10.1916820">
	<ele>1729.40</ele>
	<time>2025-08-16T07:37:39.000Z</time>
</trkpt>
<trkpt lat="45.9809520" lon="10.1916740">
	<ele>1729.40</ele>
	<time>2025-08-16T07:37:40.000Z</time>
</trkpt>
<trkpt lat="45.9809520" lon="10.1916690">
	<ele>1729.60</ele>
	<time>2025-08-16T07:37:41.000Z</time>
</trkpt>
<trkpt lat="45.9809500" lon="10.1916660">
	<ele>1729.80</ele>
	<time>2025-08-16T07:37:42.000Z</time>
</trkpt>
<trkpt lat="45.9809490" lon="10.1916650">
	<ele>1729.80</ele>
	<time>2025-08-16T07:37:43.000Z</time>
</trkpt>
<trkpt lat="45.9809510" lon="10.1916660">
	<ele>1730.00</ele>
	<time>2025-08-16T07:37:44.000Z</time>
</trkpt>
<trkpt lat="45.9809530" lon="10.1916650">
	<ele>1730.20</ele>
	<time>2025-08-16T07:37:45.000Z</time>
</trkpt>
<trkpt lat="45.9809570" lon="10.1916620">
	<ele>1730.20</ele>
	<time>2025-08-16T07:37:46.000Z</time>
</trkpt>
<trkpt lat="45.9809560" lon="10.1916660">
	<ele>1730.40</ele>
	<time>2025-08-16T07:37:47.000Z</time>
</trkpt>
<trkpt lat="45.9809600" lon="10.1916650">
	<ele>1730.60</ele>
	<time>2025-08-16T07:37:48.000Z</time>
</trkpt>
<trkpt lat="45.9809610" lon="10.1916580">
	<ele>1730.60</ele>
	<time>2025-08-16T07:37:49.000Z</time>
</trkpt>
<trkpt lat="45.9809610" lon="10.1916590">
	<ele>1730.60</ele>
	<time>2025-08-16T07:37:50.000Z</time>
</trkpt>
<trkpt lat="45.9809550" lon="10.1916580">
	<ele>1730.60</ele>
	<time>2025-08-16T07:37:51.000Z</time>
</trkpt>
<trkpt lat="45.9809440" lon="10.1916640">
	<ele>1730.60</ele>
	<time>2025-08-16T07:37:52.000Z</time>
</trkpt>
<trkpt lat="45.9809440" lon="10.1916680">
	<ele>1730.60</ele>
	<time>2025-08-16T07:37:53.000Z</time>
</trkpt>
<trkpt lat="45.9809470" lon="10.1916630">
	<ele>1730.40</ele>
	<time>2025-08-16T07:37:54.000Z</time>
</trkpt>
<trkpt lat="45.9809600" lon="10.1916520">
	<ele>1730.40</ele>
	<time>2025-08-16T07:37:55.000Z</time>
</trkpt>
<trkpt lat="45.9809600" lon="10.1916520">
	<ele>1730.60</ele>
	<time>2025-08-16T07:37:56.000Z</time>
</trkpt>
<trkpt lat="45.9809600" lon="10.1916520">
	<ele>1730.40</ele>
	<time>2025-08-16T07:37:57.000Z</time>
</trkpt>
<trkpt lat="45.9809600" lon="10.1916520">
	<ele>1730.40</ele>
	<time>2025-08-16T07:37:58.000Z</time>
</trkpt>
<trkpt lat="45.9809600" lon="10.1916520">
	<ele>1730.40</ele>
	<time>2025-08-16T07:37:59.000Z</time>
</trkpt>
<trkpt lat="45.9809600" lon="10.1916520">
	<ele>1730.40</ele>
	<time>2025-08-16T07:38:00.000Z</time>
</trkpt>
<trkpt lat="45.9809600" lon="10.1916520">
	<ele>1730.40</ele>
	<time>2025-08-16T07:38:01.000Z</time>
</trkpt>
<trkpt lat="45.9809600" lon="10.1916520">
	<ele>1730.60</ele>
	<time>2025-08-16T07:38:02.000Z</time>
</trkpt>
<trkpt lat="45.9809600" lon="10.1916520">
	<ele>1730.60</ele>
	<time>2025-08-16T07:38:03.000Z</time>
</trkpt>
<trkpt lat="45.9809600" lon="10.1916520">
	<ele>1730.80</ele>
	<time>2025-08-16T07:38:04.000Z</time>
</trkpt>
<trkpt lat="45.9809600" lon="10.1916520">
	<ele>1731.00</ele>
	<time>2025-08-16T07:38:05.000Z</time>
</trkpt>
<trkpt lat="45.9809600" lon="10.1916520">
	<ele>1731.40</ele>
	<time>2025-08-16T07:38:06.000Z</time>
</trkpt>
<trkpt lat="45.9809600" lon="10.1916520">
	<ele>1731.60</ele>
	<time>2025-08-16T07:38:07.000Z</time>
</trkpt>
<trkpt lat="45.9809600" lon="10.1916520">
	<ele>1731.80</ele>
	<time>2025-08-16T07:38:08.000Z</time>
</trkpt>
<trkpt lat="45.9809600" lon="10.1916520">
	<ele>1731.80</ele>
	<time>2025-08-16T07:38:09.000Z</time>
</trkpt>
<trkpt lat="45.9809600" lon="10.1916520">
	<ele>1732.00</ele>
	<time>2025-08-16T07:38:10.000Z</time>
</trkpt>
<trkpt lat="45.9809600" lon="10.1916470">
	<ele>1732.20</ele>
	<time>2025-08-16T07:38:11.000Z</time>
</trkpt>
<trkpt lat="45.9809600" lon="10.1916460">
	<ele>1732.40</ele>
	<time>2025-08-16T07:38:12.000Z</time>
</trkpt>
<trkpt lat="45.9809560" lon="10.1916440">
	<ele>1732.60</ele>
	<time>2025-08-16T07:38:13.000Z</time>
</trkpt>
<trkpt lat="45.9809560" lon="10.1916390">
	<ele>1732.60</ele>
	<time>2025-08-16T07:38:14.000Z</time>
</trkpt>
<trkpt lat="45.9809560" lon="10.1916320">
	<ele>1732.80</ele>
	<time>2025-08-16T07:38:15.000Z</time>
</trkpt>
<trkpt lat="45.9809550" lon="10.1916260">
	<ele>1733.00</ele>
	<time>2025-08-16T07:38:16.000Z</time>
</trkpt>
<trkpt lat="45.9809550" lon="10.1916210">
	<ele>1733.40</ele>
	<time>2025-08-16T07:38:17.000Z</time>
</trkpt>
<trkpt lat="45.9809540" lon="10.1916140">
	<ele>1733.60</ele>
	<time>2025-08-16T07:38:18.000Z</time>
</trkpt>
<trkpt lat="45.9809530" lon="10.1916070">
	<ele>1733.80</ele>
	<time>2025-08-16T07:38:19.000Z</time>
</trkpt>
<trkpt lat="45.9809530" lon="10.1916040">
	<ele>1734.00</ele>
	<time>2025-08-16T07:38:20.000Z</time>
</trkpt>
<trkpt lat="45.9809490" lon="10.1915980">
	<ele>1734.00</ele>
	<time>2025-08-16T07:38:21.000Z</time>
</trkpt>
<trkpt lat="45.9809490" lon="10.1915960">
	<ele>1734.20</ele>
	<time>2025-08-16T07:38:22.000Z</time>
</trkpt>
<trkpt lat="45.9809490" lon="10.1915860">
	<ele>1734.40</ele>
	<time>2025-08-16T07:38:23.000Z</time>
</trkpt>
<trkpt lat="45.9809490" lon="10.1915840">
	<ele>1734.60</ele>
	<time>2025-08-16T07:38:24.000Z</time>
</trkpt>
<trkpt lat="45.9809450" lon="10.1915800">
	<ele>1734.80</ele>
	<time>2025-08-16T07:38:25.000Z</time>
</trkpt>
<trkpt lat="45.9809410" lon="10.1915720">
	<ele>1735.00</ele>
	<time>2025-08-16T07:38:26.000Z</time>
</trkpt>
<trkpt lat="45.9809390" lon="10.1915600">
	<ele>1735.00</ele>
	<time>2025-08-16T07:38:27.000Z</time>
</trkpt>
<trkpt lat="45.9809370" lon="10.1915430">
	<ele>1735.20</ele>
	<time>2025-08-16T07:38:28.000Z</time>
</trkpt>
<trkpt lat="45.9809350" lon="10.1915310">
	<ele>1735.40</ele>
	<time>2025-08-16T07:38:29.000Z</time>
</trkpt>
<trkpt lat="45.9809300" lon="10.1915240">
	<ele>1735.40</ele>
	<time>2025-08-16T07:38:30.000Z</time>
</trkpt>
<trkpt lat="45.9809240" lon="10.1915180">
	<ele>1735.60</ele>
	<time>2025-08-16T07:38:31.000Z</time>
</trkpt>
<trkpt lat="45.9809200" lon="10.1915100">
	<ele>1735.60</ele>
	<time>2025-08-16T07:38:32.000Z</time>
</trkpt>
<trkpt lat="45.9809180" lon="10.1915000">
	<ele>1735.60</ele>
	<time>2025-08-16T07:38:33.000Z</time>
</trkpt>
<trkpt lat="45.9809200" lon="10.1914870">
	<ele>1735.60</ele>
	<time>2025-08-16T07:38:34.000Z</time>
</trkpt>
<trkpt lat="45.9809200" lon="10.1914730">
	<ele>1735.60</ele>
	<time>2025-08-16T07:38:35.000Z</time>
</trkpt>
<trkpt lat="45.9809200" lon="10.1914730">
	<ele>1735.60</ele>
	<time>2025-08-16T07:38:36.000Z</time>
</trkpt>
<trkpt lat="45.9809200" lon="10.1914730">
	<ele>1735.60</ele>
	<time>2025-08-16T07:38:37.000Z</time>
</trkpt>
<trkpt lat="45.9809200" lon="10.1914730">
	<ele>1735.60</ele>
	<time>2025-08-16T07:38:38.000Z</time>
</trkpt>
<trkpt lat="45.9809200" lon="10.1914730">
	<ele>1735.80</ele>
	<time>2025-08-16T07:38:39.000Z</time>
</trkpt>
<trkpt lat="45.9809200" lon="10.1914730">
	<ele>1735.80</ele>
	<time>2025-08-16T07:38:40.000Z</time>
</trkpt>
<trkpt lat="45.9809200" lon="10.1914730">
	<ele>1735.80</ele>
	<time>2025-08-16T07:38:41.000Z</time>
</trkpt>
<trkpt lat="45.9809200" lon="10.1914650">
	<ele>1735.80</ele>
	<time>2025-08-16T07:38:42.000Z</time>
</trkpt>
<trkpt lat="45.9809200" lon="10.1914640">
	<ele>1735.80</ele>
	<time>2025-08-16T07:38:43.000Z</time>
</trkpt>
<trkpt lat="45.9809200" lon="10.1914630">
	<ele>1736.00</ele>
	<time>2025-08-16T07:38:44.000Z</time>
</trkpt>
<trkpt lat="45.9809190" lon="10.1914620">
	<ele>1736.00</ele>
	<time>2025-08-16T07:38:45.000Z</time>
</trkpt>
<trkpt lat="45.9809180" lon="10.1914620">
	<ele>1736.00</ele>
	<time>2025-08-16T07:38:46.000Z</time>
</trkpt>
<trkpt lat="45.9809180" lon="10.1914610">
	<ele>1736.00</ele>
	<time>2025-08-16T07:38:47.000Z</time>
</trkpt>
<trkpt lat="45.9809180" lon="10.1914590">
	<ele>1736.20</ele>
	<time>2025-08-16T07:38:48.000Z</time>
</trkpt>
<trkpt lat="45.9809180" lon="10.1914570">
	<ele>1736.40</ele>
	<time>2025-08-16T07:38:49.000Z</time>
</trkpt>
<trkpt lat="45.9809180" lon="10.1914550">
	<ele>1736.60</ele>
	<time>2025-08-16T07:38:50.000Z</time>
</trkpt>
<trkpt lat="45.9809170" lon="10.1914540">
	<ele>1736.60</ele>
	<time>2025-08-16T07:38:51.000Z</time>
</trkpt>
<trkpt lat="45.9809170" lon="10.1914520">
	<ele>1736.80</ele>
	<time>2025-08-16T07:38:52.000Z</time>
</trkpt>
<trkpt lat="45.9809170" lon="10.1914510">
	<ele>1736.80</ele>
	<time>2025-08-16T07:38:53.000Z</time>
</trkpt>
<trkpt lat="45.9809170" lon="10.1914510">
	<ele>1736.80</ele>
	<time>2025-08-16T07:38:54.000Z</time>
</trkpt>
<trkpt lat="45.9809170" lon="10.1914480">
	<ele>1736.80</ele>
	<time>2025-08-16T07:38:55.000Z</time>
</trkpt>
<trkpt lat="45.9809170" lon="10.1914470">
	<ele>1736.80</ele>
	<time>2025-08-16T07:38:56.000Z</time>
</trkpt>
<trkpt lat="45.9809170" lon="10.1914460">
	<ele>1736.80</ele>
	<time>2025-08-16T07:38:57.000Z</time>
</trkpt>
<trkpt lat="45.9809170" lon="10.1914460">
	<ele>1736.80</ele>
	<time>2025-08-16T07:38:58.000Z</time>
</trkpt>
<trkpt lat="45.9809170" lon="10.1914450">
	<ele>1737.00</ele>
	<time>2025-08-16T07:38:59.000Z</time>
</trkpt>
<trkpt lat="45.9809170" lon="10.1914430">
	<ele>1737.00</ele>
	<time>2025-08-16T07:39:00.000Z</time>
</trkpt>
<trkpt lat="45.9809170" lon="10.1914390">
	<ele>1737.00</ele>
	<time>2025-08-16T07:39:01.000Z</time>
</trkpt>
<trkpt lat="45.9809180" lon="10.1914380">
	<ele>1737.00</ele>
	<time>2025-08-16T07:39:02.000Z</time>
</trkpt>
<trkpt lat="45.9809180" lon="10.1914370">
	<ele>1737.00</ele>
	<time>2025-08-16T07:39:03.000Z</time>
</trkpt>
<trkpt lat="45.9809180" lon="10.1914370">
	<ele>1737.20</ele>
	<time>2025-08-16T07:39:04.000Z</time>
</trkpt>
<trkpt lat="45.9809180" lon="10.1914350">
	<ele>1737.40</ele>
	<time>2025-08-16T07:39:05.000Z</time>
</trkpt>
<trkpt lat="45.9809180" lon="10.1914350">
	<ele>1737.60</ele>
	<time>2025-08-16T07:39:06.000Z</time>
</trkpt>
<trkpt lat="45.9809190" lon="10.1914340">
	<ele>1737.80</ele>
	<time>2025-08-16T07:39:07.000Z</time>
</trkpt>
<trkpt lat="45.9809190" lon="10.1914330">
	<ele>1737.80</ele>
	<time>2025-08-16T07:39:08.000Z</time>
</trkpt>
<trkpt lat="45.9809200" lon="10.1914300">
	<ele>1738.20</ele>
	<time>2025-08-16T07:39:09.000Z</time>
</trkpt>
<trkpt lat="45.9809200" lon="10.1914250">
	<ele>1738.20</ele>
	<time>2025-08-16T07:39:10.000Z</time>
</trkpt>
<trkpt lat="45.9809200" lon="10.1914220">
	<ele>1738.40</ele>
	<time>2025-08-16T07:39:11.000Z</time>
</trkpt>
<trkpt lat="45.9809210" lon="10.1914210">
	<ele>1738.80</ele>
	<time>2025-08-16T07:39:12.000Z</time>
</trkpt>
<trkpt lat="45.9809210" lon="10.1914200">
	<ele>1739.00</ele>
	<time>2025-08-16T07:39:13.000Z</time>
</trkpt>
<trkpt lat="45.9809220" lon="10.1914190">
	<ele>1739.00</ele>
	<time>2025-08-16T07:39:14.000Z</time>
</trkpt>
<trkpt lat="45.9809230" lon="10.1914190">
	<ele>1739.20</ele>
	<time>2025-08-16T07:39:15.000Z</time>
</trkpt>
<trkpt lat="45.9809250" lon="10.1914180">
	<ele>1739.20</ele>
	<time>2025-08-16T07:39:16.000Z</time>
</trkpt>
<trkpt lat="45.9809290" lon="10.1914030">
	<ele>1739.60</ele>
	<time>2025-08-16T07:39:17.000Z</time>
</trkpt>
<trkpt lat="45.9809150" lon="10.1913810">
	<ele>1738.40</ele>
	<time>2025-08-16T07:42:18.000Z</time>
</trkpt>
<trkpt lat="45.9809130" lon="10.1913920">
	<ele>1738.20</ele>
	<time>2025-08-16T07:42:19.000Z</time>
</trkpt>
<trkpt lat="45.9809130" lon="10.1913950">
	<ele>1738.00</ele>
	<time>2025-08-16T07:42:20.000Z</time>
</trkpt>
<trkpt lat="45.9809120" lon="10.1913960">
	<ele>1737.80</ele>
	<time>2025-08-16T07:42:21.000Z</time>
</trkpt>
<trkpt lat="45.9809130" lon="10.1913990">
	<ele>1737.60</ele>
	<time>2025-08-16T07:42:22.000Z</time>
</trkpt>
<trkpt lat="45.9809140" lon="10.1914000">
	<ele>1737.60</ele>
	<time>2025-08-16T07:42:23.000Z</time>
</trkpt>
<trkpt lat="45.9809120" lon="10.1914010">
	<ele>1737.40</ele>
	<time>2025-08-16T07:42:24.000Z</time>
</trkpt>
<trkpt lat="45.9809130" lon="10.1914010">
	<ele>1737.40</ele>
	<time>2025-08-16T07:42:25.000Z</time>
</trkpt>
<trkpt lat="45.9809140" lon="10.1914020">
	<ele>1737.40</ele>
	<time>2025-08-16T07:42:26.000Z</time>
</trkpt>
<trkpt lat="45.9809130" lon="10.1914030">
	<ele>1737.40</ele>
	<time>2025-08-16T07:42:27.000Z</time>
</trkpt>
<trkpt lat="45.9809130" lon="10.1914040">
	<ele>1737.40</ele>
	<time>2025-08-16T07:42:28.000Z</time>
</trkpt>
<trkpt lat="45.9809130" lon="10.1914050">
	<ele>1737.40</ele>
	<time>2025-08-16T07:42:29.000Z</time>
</trkpt>
<trkpt lat="45.9809140" lon="10.1914080">
	<ele>1737.40</ele>
	<time>2025-08-16T07:42:30.000Z</time>
</trkpt>
<trkpt lat="45.9809120" lon="10.1914050">
	<ele>1737.40</ele>
	<time>2025-08-16T07:42:31.000Z</time>
</trkpt>
<trkpt lat="45.9809120" lon="10.1914050">
	<ele>1737.40</ele>
	<time>2025-08-16T07:42:32.000Z</time>
</trkpt>
<trkpt lat="45.9809120" lon="10.1914050">
	<ele>1737.40</ele>
	<time>2025-08-16T07:42:33.000Z</time>
</trkpt>
<trkpt lat="45.9809120" lon="10.1914050">
	<ele>1737.40</ele>
	<time>2025-08-16T07:42:34.000Z</time>
</trkpt>
<trkpt lat="45.9809120" lon="10.1914050">
	<ele>1737.60</ele>
	<time>2025-08-16T07:42:35.000Z</time>
</trkpt>
<trkpt lat="45.9809120" lon="10.1914050">
	<ele>1737.60</ele>
	<time>2025-08-16T07:42:36.000Z</time>
</trkpt>
<trkpt lat="45.9809120" lon="10.1914050">
	<ele>1737.60</ele>
	<time>2025-08-16T07:42:37.000Z</time>
</trkpt>
<trkpt lat="45.9809120" lon="10.1914050">
	<ele>1737.80</ele>
	<time>2025-08-16T07:42:38.000Z</time>
</trkpt>
<trkpt lat="45.9809120" lon="10.1914050">
	<ele>1737.60</ele>
	<time>2025-08-16T07:42:39.000Z</time>
</trkpt>
<trkpt lat="45.9809120" lon="10.1914050">
	<ele>1737.60</ele>
	<time>2025-08-16T07:42:40.000Z</time>
</trkpt>
<trkpt lat="45.9809120" lon="10.1914050">
	<ele>1737.60</ele>
	<time>2025-08-16T07:42:41.000Z</time>
</trkpt>
<trkpt lat="45.9809120" lon="10.1914050">
	<ele>1737.60</ele>
	<time>2025-08-16T07:42:42.000Z</time>
</trkpt>
<trkpt lat="45.9809120" lon="10.1914050">
	<ele>1737.40</ele>
	<time>2025-08-16T07:42:43.000Z</time>
</trkpt>
<trkpt lat="45.9809120" lon="10.1914050">
	<ele>1737.20</ele>
	<time>2025-08-16T07:42:44.000Z</time>
</trkpt>
<trkpt lat="45.9809120" lon="10.1914050">
	<ele>1737.00</ele>
	<time>2025-08-16T07:42:45.000Z</time>
</trkpt>
<trkpt lat="45.9809120" lon="10.1914050">
	<ele>1737.00</ele>
	<time>2025-08-16T07:42:46.000Z</time>
</trkpt>
<trkpt lat="45.9809110" lon="10.1914050">
	<ele>1736.80</ele>
	<time>2025-08-16T07:42:47.000Z</time>
</trkpt>
<trkpt lat="45.9809110" lon="10.1914050">
	<ele>1736.80</ele>
	<time>2025-08-16T07:42:48.000Z</time>
</trkpt>
<trkpt lat="45.9809110" lon="10.1914050">
	<ele>1736.80</ele>
	<time>2025-08-16T07:42:49.000Z</time>
</trkpt>
<trkpt lat="45.9809110" lon="10.1914050">
	<ele>1736.80</ele>
	<time>2025-08-16T07:42:50.000Z</time>
</trkpt>
<trkpt lat="45.9809070" lon="10.1914080">
	<ele>1736.80</ele>
	<time>2025-08-16T07:42:51.000Z</time>
</trkpt>
<trkpt lat="45.9808960" lon="10.1914160">
	<ele>1737.00</ele>
	<time>2025-08-16T07:42:52.000Z</time>
</trkpt>
<trkpt lat="45.9808840" lon="10.1914210">
	<ele>1737.00</ele>
	<time>2025-08-16T07:42:53.000Z</time>
</trkpt>
<trkpt lat="45.9808760" lon="10.1914260">
	<ele>1737.20</ele>
	<time>2025-08-16T07:42:54.000Z</time>
</trkpt>
<trkpt lat="45.9808650" lon="10.1914300">
	<ele>1737.40</ele>
	<time>2025-08-16T07:42:55.000Z</time>
</trkpt>
<trkpt lat="45.9808520" lon="10.1914370">
	<ele>1737.40</ele>
	<time>2025-08-16T07:42:56.000Z</time>
</trkpt>
<trkpt lat="45.9808400" lon="10.1914450">
	<ele>1737.60</ele>
	<time>2025-08-16T07:42:57.000Z</time>
</trkpt>
<trkpt lat="45.9808290" lon="10.1914550">
	<ele>1737.60</ele>
	<time>2025-08-16T07:42:58.000Z</time>
</trkpt>
<trkpt lat="45.9808270" lon="10.1914630">
	<ele>1738.00</ele>
	<time>2025-08-16T07:42:59.000Z</time>
</trkpt>
<trkpt lat="45.9808230" lon="10.1914710">
	<ele>1738.20</ele>
	<time>2025-08-16T07:43:00.000Z</time>
</trkpt>
<trkpt lat="45.9808220" lon="10.1914740">
	<ele>1738.40</ele>
	<time>2025-08-16T07:43:01.000Z</time>
</trkpt>
<trkpt lat="45.9808040" lon="10.1914810">
	<ele>1738.40</ele>
	<time>2025-08-16T07:43:02.000Z</time>
</trkpt>
<trkpt lat="45.9807900" lon="10.1914880">
	<ele>1738.60</ele>
	<time>2025-08-16T07:43:03.000Z</time>
</trkpt>
<trkpt lat="45.9807840" lon="10.1914920">
	<ele>1738.60</ele>
	<time>2025-08-16T07:43:04.000Z</time>
</trkpt>
<trkpt lat="45.9807840" lon="10.1914980">
	<ele>1738.80</ele>
	<time>2025-08-16T07:43:05.000Z</time>
</trkpt>
<trkpt lat="45.9807800" lon="10.1915050">
	<ele>1739.20</ele>
	<time>2025-08-16T07:43:06.000Z</time>
</trkpt>
<trkpt lat="45.9807790" lon="10.1915080">
	<ele>1739.40</ele>
	<time>2025-08-16T07:43:07.000Z</time>
</trkpt>
<trkpt lat="45.9807810" lon="10.1915140">
	<ele>1739.40</ele>
	<time>2025-08-16T07:43:08.000Z</time>
</trkpt>
<trkpt lat="45.9807830" lon="10.1915200">
	<ele>1739.60</ele>
	<time>2025-08-16T07:43:09.000Z</time>
</trkpt>
<trkpt lat="45.9807790" lon="10.1915250">
	<ele>1739.80</ele>
	<time>2025-08-16T07:43:10.000Z</time>
</trkpt>
<trkpt lat="45.9807750" lon="10.1915310">
	<ele>1740.00</ele>
	<time>2025-08-16T07:43:11.000Z</time>
</trkpt>
<trkpt lat="45.9807660" lon="10.1915340">
	<ele>1740.20</ele>
	<time>2025-08-16T07:43:12.000Z</time>
</trkpt>
<trkpt lat="45.9807590" lon="10.1915330">
	<ele>1740.40</ele>
	<time>2025-08-16T07:43:13.000Z</time>
</trkpt>
<trkpt lat="45.9807510" lon="10.1915410">
	<ele>1740.60</ele>
	<time>2025-08-16T07:43:14.000Z</time>
</trkpt>
<trkpt lat="45.9807430" lon="10.1915400">
	<ele>1740.80</ele>
	<time>2025-08-16T07:43:15.000Z</time>
</trkpt>
<trkpt lat="45.9807350" lon="10.1915470">
	<ele>1741.00</ele>
	<time>2025-08-16T07:43:16.000Z</time>
</trkpt>
<trkpt lat="45.9807290" lon="10.1915520">
	<ele>1741.00</ele>
	<time>2025-08-16T07:43:17.000Z</time>
</trkpt>
<trkpt lat="45.9807200" lon="10.1915570">
	<ele>1741.20</ele>
	<time>2025-08-16T07:43:18.000Z</time>
</trkpt>
<trkpt lat="45.9807150" lon="10.1915670">
	<ele>1741.40</ele>
	<time>2025-08-16T07:43:19.000Z</time>
</trkpt>
<trkpt lat="45.9807060" lon="10.1915700">
	<ele>1741.60</ele>
	<time>2025-08-16T07:43:20.000Z</time>
</trkpt>
<trkpt lat="45.9806960" lon="10.1915840">
	<ele>1741.80</ele>
	<time>2025-08-16T07:43:21.000Z</time>
</trkpt>
<trkpt lat="45.9806800" lon="10.1915860">
	<ele>1742.00</ele>
	<time>2025-08-16T07:43:22.000Z</time>
</trkpt>
<trkpt lat="45.9806770" lon="10.1915940">
	<ele>1742.20</ele>
	<time>2025-08-16T07:43:23.000Z</time>
</trkpt>
<trkpt lat="45.9806710" lon="10.1915910">
	<ele>1742.40</ele>
	<time>2025-08-16T07:43:24.000Z</time>
</trkpt>
<trkpt lat="45.9806700" lon="10.1915960">
	<ele>1742.40</ele>
	<time>2025-08-16T07:43:25.000Z</time>
</trkpt>
<trkpt lat="45.9806660" lon="10.1915990">
	<ele>1742.60</ele>
	<time>2025-08-16T07:43:26.000Z</time>
</trkpt>
<trkpt lat="45.9806610" lon="10.1916010">
	<ele>1742.80</ele>
	<time>2025-08-16T07:43:27.000Z</time>
</trkpt>
<trkpt lat="45.9806570" lon="10.1916030">
	<ele>1743.00</ele>
	<time>2025-08-16T07:43:28.000Z</time>
</trkpt>
<trkpt lat="45.9806490" lon="10.1916060">
	<ele>1743.00</ele>
	<time>2025-08-16T07:43:29.000Z</time>
</trkpt>
<trkpt lat="45.9806440" lon="10.1916090">
	<ele>1743.20</ele>
	<time>2025-08-16T07:43:30.000Z</time>
</trkpt>
<trkpt lat="45.9806430" lon="10.1916080">
	<ele>1743.40</ele>
	<time>2025-08-16T07:43:31.000Z</time>
</trkpt>
<trkpt lat="45.9806400" lon="10.1916180">
	<ele>1743.60</ele>
	<time>2025-08-16T07:43:32.000Z</time>
</trkpt>
<trkpt lat="45.9806380" lon="10.1916300">
	<ele>1743.60</ele>
	<time>2025-08-16T07:43:33.000Z</time>
</trkpt>
<trkpt lat="45.9806370" lon="10.1916500">
	<ele>1743.80</ele>
	<time>2025-08-16T07:43:34.000Z</time>
</trkpt>
<trkpt lat="45.9806330" lon="10.1916600">
	<ele>1744.00</ele>
	<time>2025-08-16T07:43:35.000Z</time>
</trkpt>
<trkpt lat="45.9806290" lon="10.1916620">
	<ele>1744.20</ele>
	<time>2025-08-16T07:43:36.000Z</time>
</trkpt>
<trkpt lat="45.9806260" lon="10.1916660">
	<ele>1744.20</ele>
	<time>2025-08-16T07:43:37.000Z</time>
</trkpt>
<trkpt lat="45.9806190" lon="10.1916660">
	<ele>1744.60</ele>
	<time>2025-08-16T07:43:38.000Z</time>
</trkpt>
<trkpt lat="45.9806090" lon="10.1916750">
	<ele>1744.80</ele>
	<time>2025-08-16T07:43:39.000Z</time>
</trkpt>
<trkpt lat="45.9806030" lon="10.1916770">
	<ele>1745.00</ele>
	<time>2025-08-16T07:43:40.000Z</time>
</trkpt>
<trkpt lat="45.9805970" lon="10.1916780">
	<ele>1745.00</ele>
	<time>2025-08-16T07:43:41.000Z</time>
</trkpt>
<trkpt lat="45.9805940" lon="10.1916810">
	<ele>1745.20</ele>
	<time>2025-08-16T07:43:42.000Z</time>
</trkpt>
<trkpt lat="45.9805940" lon="10.1916810">
	<ele>1745.40</ele>
	<time>2025-08-16T07:43:43.000Z</time>
</trkpt>
<trkpt lat="45.9805840" lon="10.1916870">
	<ele>1745.60</ele>
	<time>2025-08-16T07:43:44.000Z</time>
</trkpt>
<trkpt lat="45.9805840" lon="10.1916890">
	<ele>1745.60</ele>
	<time>2025-08-16T07:43:45.000Z</time>
</trkpt>
<trkpt lat="45.9805830" lon="10.1916890">
	<ele>1745.80</ele>
	<time>2025-08-16T07:43:46.000Z</time>
</trkpt>
<trkpt lat="45.9805830" lon="10.1916900">
	<ele>1746.00</ele>
	<time>2025-08-16T07:43:47.000Z</time>
</trkpt>
<trkpt lat="45.9805830" lon="10.1916900">
	<ele>1746.00</ele>
	<time>2025-08-16T07:43:48.000Z</time>
</trkpt>
<trkpt lat="45.9805830" lon="10.1916910">
	<ele>1746.00</ele>
	<time>2025-08-16T07:43:49.000Z</time>
</trkpt>
<trkpt lat="45.9805820" lon="10.1916940">
	<ele>1746.20</ele>
	<time>2025-08-16T07:43:50.000Z</time>
</trkpt>
<trkpt lat="45.9805830" lon="10.1916950">
	<ele>1746.20</ele>
	<time>2025-08-16T07:43:51.000Z</time>
</trkpt>
<trkpt lat="45.9805830" lon="10.1916940">
	<ele>1746.40</ele>
	<time>2025-08-16T07:43:52.000Z</time>
</trkpt>
<trkpt lat="45.9805830" lon="10.1916960">
	<ele>1746.40</ele>
	<time>2025-08-16T07:43:53.000Z</time>
</trkpt>
<trkpt lat="45.9805830" lon="10.1916960">
	<ele>1746.40</ele>
	<time>2025-08-16T07:43:54.000Z</time>
</trkpt>
<trkpt lat="45.9805830" lon="10.1916960">
	<ele>1746.40</ele>
	<time>2025-08-16T07:43:55.000Z</time>
</trkpt>
<trkpt lat="45.9805830" lon="10.1916960">
	<ele>1746.40</ele>
	<time>2025-08-16T07:43:56.000Z</time>
</trkpt>
<trkpt lat="45.9805830" lon="10.1916960">
	<ele>1746.40</ele>
	<time>2025-08-16T07:43:57.000Z</time>
</trkpt>
<trkpt lat="45.9805830" lon="10.1916960">
	<ele>1746.40</ele>
	<time>2025-08-16T07:43:58.000Z</time>
</trkpt>
<trkpt lat="45.9805830" lon="10.1916960">
	<ele>1746.40</ele>
	<time>2025-08-16T07:44:00.000Z</time>
</trkpt>
<trkpt lat="45.9805830" lon="10.1916960">
	<ele>1746.60</ele>
	<time>2025-08-16T07:44:01.000Z</time>
</trkpt>
<trkpt lat="45.9805830" lon="10.1916960">
	<ele>1746.60</ele>
	<time>2025-08-16T07:44:02.000Z</time>
</trkpt>
<trkpt lat="45.9805830" lon="10.1916960">
	<ele>1746.80</ele>
	<time>2025-08-16T07:44:03.000Z</time>
</trkpt>
<trkpt lat="45.9805830" lon="10.1916960">
	<ele>1746.80</ele>
	<time>2025-08-16T07:44:04.000Z</time>
</trkpt>
<trkpt lat="45.9805830" lon="10.1916960">
	<ele>1747.00</ele>
	<time>2025-08-16T07:44:05.000Z</time>
</trkpt>
<trkpt lat="45.9805830" lon="10.1916960">
	<ele>1747.00</ele>
	<time>2025-08-16T07:44:06.000Z</time>
</trkpt>
<trkpt lat="45.9805830" lon="10.1916960">
	<ele>1747.20</ele>
	<time>2025-08-16T07:44:07.000Z</time>
</trkpt>
<trkpt lat="45.9805830" lon="10.1916960">
	<ele>1747.20</ele>
	<time>2025-08-16T07:44:08.000Z</time>
</trkpt>
<trkpt lat="45.9805820" lon="10.1916960">
	<ele>1747.40</ele>
	<time>2025-08-16T07:44:09.000Z</time>
</trkpt>
<trkpt lat="45.9805740" lon="10.1916960">
	<ele>1747.40</ele>
	<time>2025-08-16T07:44:10.000Z</time>
</trkpt>
<trkpt lat="45.9805670" lon="10.1916960">
	<ele>1747.60</ele>
	<time>2025-08-16T07:44:11.000Z</time>
</trkpt>
<trkpt lat="45.9805630" lon="10.1916960">
	<ele>1747.60</ele>
	<time>2025-08-16T07:44:12.000Z</time>
</trkpt>
<trkpt lat="45.9805580" lon="10.1916960">
	<ele>1747.60</ele>
	<time>2025-08-16T07:44:13.000Z</time>
</trkpt>
<trkpt lat="45.9805530" lon="10.1916960">
	<ele>1747.60</ele>
	<time>2025-08-16T07:44:14.000Z</time>
</trkpt>
<trkpt lat="45.9805480" lon="10.1916960">
	<ele>1747.60</ele>
	<time>2025-08-16T07:44:15.000Z</time>
</trkpt>
<trkpt lat="45.9805430" lon="10.1916990">
	<ele>1747.60</ele>
	<time>2025-08-16T07:44:16.000Z</time>
</trkpt>
<trkpt lat="45.9805370" lon="10.1916990">
	<ele>1747.80</ele>
	<time>2025-08-16T07:44:17.000Z</time>
</trkpt>
<trkpt lat="45.9805330" lon="10.1917000">
	<ele>1748.00</ele>
	<time>2025-08-16T07:44:18.000Z</time>
</trkpt>
<trkpt lat="45.9805290" lon="10.1917000">
	<ele>1748.20</ele>
	<time>2025-08-16T07:44:19.000Z</time>
</trkpt>
<trkpt lat="45.9805260" lon="10.1917000">
	<ele>1748.40</ele>
	<time>2025-08-16T07:44:20.000Z</time>
</trkpt>
<trkpt lat="45.9805240" lon="10.1917010">
	<ele>1748.60</ele>
	<time>2025-08-16T07:44:21.000Z</time>
</trkpt>
<trkpt lat="45.9805230" lon="10.1917010">
	<ele>1748.80</ele>
	<time>2025-08-16T07:44:22.000Z</time>
</trkpt>
<trkpt lat="45.9805230" lon="10.1917020">
	<ele>1748.80</ele>
	<time>2025-08-16T07:44:23.000Z</time>
</trkpt>
<trkpt lat="45.9805220" lon="10.1917020">
	<ele>1749.00</ele>
	<time>2025-08-16T07:44:24.000Z</time>
</trkpt>
<trkpt lat="45.9805220" lon="10.1917030">
	<ele>1749.20</ele>
	<time>2025-08-16T07:44:25.000Z</time>
</trkpt>
<trkpt lat="45.9805220" lon="10.1917030">
	<ele>1749.40</ele>
	<time>2025-08-16T07:44:26.000Z</time>
</trkpt>
<trkpt lat="45.9805210" lon="10.1917040">
	<ele>1749.60</ele>
	<time>2025-08-16T07:44:27.000Z</time>
</trkpt>
<trkpt lat="45.9805180" lon="10.1917040">
	<ele>1750.00</ele>
	<time>2025-08-16T07:44:28.000Z</time>
</trkpt>
<trkpt lat="45.9805140" lon="10.1917050">
	<ele>1750.20</ele>
	<time>2025-08-16T07:44:29.000Z</time>
</trkpt>
<trkpt lat="45.9805100" lon="10.1917050">
	<ele>1750.20</ele>
	<time>2025-08-16T07:44:30.000Z</time>
</trkpt>
<trkpt lat="45.9805010" lon="10.1917120">
	<ele>1750.40</ele>
	<time>2025-08-16T07:44:31.000Z</time>
</trkpt>
<trkpt lat="45.9804840" lon="10.1917260">
	<ele>1750.60</ele>
	<time>2025-08-16T07:44:32.000Z</time>
</trkpt>
<trkpt lat="45.9804640" lon="10.1917400">
	<ele>1750.80</ele>
	<time>2025-08-16T07:44:33.000Z</time>
</trkpt>
<trkpt lat="45.9804460" lon="10.1917470">
	<ele>1751.00</ele>
	<time>2025-08-16T07:44:34.000Z</time>
</trkpt>
<trkpt lat="45.9804320" lon="10.1917590">
	<ele>1751.00</ele>
	<time>2025-08-16T07:44:35.000Z</time>
</trkpt>
<trkpt lat="45.9804210" lon="10.1917720">
	<ele>1751.20</ele>
	<time>2025-08-16T07:44:36.000Z</time>
</trkpt>
<trkpt lat="45.9804080" lon="10.1917920">
	<ele>1751.40</ele>
	<time>2025-08-16T07:44:37.000Z</time>
</trkpt>
<trkpt lat="45.9803930" lon="10.1918110">
	<ele>1751.60</ele>
	<time>2025-08-16T07:44:38.000Z</time>
</trkpt>
<trkpt lat="45.9803770" lon="10.1918300">
	<ele>1751.80</ele>
	<time>2025-08-16T07:44:39.000Z</time>
</trkpt>
<trkpt lat="45.9803640" lon="10.1918340">
	<ele>1752.00</ele>
	<time>2025-08-16T07:44:40.000Z</time>
</trkpt>
<trkpt lat="45.9803630" lon="10.1918290">
	<ele>1752.40</ele>
	<time>2025-08-16T07:44:41.000Z</time>
</trkpt>
<trkpt lat="45.9803600" lon="10.1918310">
	<ele>1752.40</ele>
	<time>2025-08-16T07:44:42.000Z</time>
</trkpt>
<trkpt lat="45.9803560" lon="10.1918300">
	<ele>1752.60</ele>
	<time>2025-08-16T07:44:43.000Z</time>
</trkpt>
<trkpt lat="45.9803490" lon="10.1918270">
	<ele>1752.80</ele>
	<time>2025-08-16T07:44:44.000Z</time>
</trkpt>
<trkpt lat="45.9803460" lon="10.1918150">
	<ele>1753.00</ele>
	<time>2025-08-16T07:44:45.000Z</time>
</trkpt>
<trkpt lat="45.9803440" lon="10.1918090">
	<ele>1753.20</ele>
	<time>2025-08-16T07:44:46.000Z</time>
</trkpt>
<trkpt lat="45.9803330" lon="10.1918060">
	<ele>1753.40</ele>
	<time>2025-08-16T07:44:47.000Z</time>
</trkpt>
<trkpt lat="45.9803280" lon="10.1918040">
	<ele>1753.60</ele>
	<time>2025-08-16T07:44:48.000Z</time>
</trkpt>
<trkpt lat="45.9803250" lon="10.1917960">
	<ele>1753.80</ele>
	<time>2025-08-16T07:44:49.000Z</time>
</trkpt>
<trkpt lat="45.9803260" lon="10.1917870">
	<ele>1754.00</ele>
	<time>2025-08-16T07:44:50.000Z</time>
</trkpt>
<trkpt lat="45.9803220" lon="10.1917800">
	<ele>1754.40</ele>
	<time>2025-08-16T07:44:51.000Z</time>
</trkpt>
<trkpt lat="45.9803150" lon="10.1917790">
	<ele>1754.60</ele>
	<time>2025-08-16T07:44:52.000Z</time>
</trkpt>
<trkpt lat="45.9803110" lon="10.1917740">
	<ele>1754.60</ele>
	<time>2025-08-16T07:44:53.000Z</time>
</trkpt>
<trkpt lat="45.9803080" lon="10.1917720">
	<ele>1754.80</ele>
	<time>2025-08-16T07:44:54.000Z</time>
</trkpt>
<trkpt lat="45.9803060" lon="10.1917700">
	<ele>1755.00</ele>
	<time>2025-08-16T07:44:55.000Z</time>
</trkpt>
<trkpt lat="45.9803020" lon="10.1917720">
	<ele>1755.20</ele>
	<time>2025-08-16T07:44:56.000Z</time>
</trkpt>
<trkpt lat="45.9803000" lon="10.1917740">
	<ele>1755.20</ele>
	<time>2025-08-16T07:44:57.000Z</time>
</trkpt>
<trkpt lat="45.9802980" lon="10.1917750">
	<ele>1755.40</ele>
	<time>2025-08-16T07:44:58.000Z</time>
</trkpt>
<trkpt lat="45.9802950" lon="10.1917730">
	<ele>1755.40</ele>
	<time>2025-08-16T07:44:59.000Z</time>
</trkpt>
<trkpt lat="45.9802890" lon="10.1917730">
	<ele>1755.40</ele>
	<time>2025-08-16T07:45:00.000Z</time>
</trkpt>
<trkpt lat="45.9802880" lon="10.1917630">
	<ele>1755.40</ele>
	<time>2025-08-16T07:45:01.000Z</time>
</trkpt>
<trkpt lat="45.9802790" lon="10.1917520">
	<ele>1755.20</ele>
	<time>2025-08-16T07:45:02.000Z</time>
</trkpt>
<trkpt lat="45.9802750" lon="10.1917500">
	<ele>1755.20</ele>
	<time>2025-08-16T07:45:03.000Z</time>
</trkpt>
<trkpt lat="45.9802660" lon="10.1917430">
	<ele>1755.20</ele>
	<time>2025-08-16T07:45:04.000Z</time>
</trkpt>
<trkpt lat="45.9802570" lon="10.1917440">
	<ele>1755.20</ele>
	<time>2025-08-16T07:45:05.000Z</time>
</trkpt>
<trkpt lat="45.9802470" lon="10.1917420">
	<ele>1755.20</ele>
	<time>2025-08-16T07:45:06.000Z</time>
</trkpt>
<trkpt lat="45.9802400" lon="10.1917420">
	<ele>1755.40</ele>
	<time>2025-08-16T07:45:07.000Z</time>
</trkpt>
<trkpt lat="45.9802300" lon="10.1917440">
	<ele>1755.40</ele>
	<time>2025-08-16T07:45:08.000Z</time>
</trkpt>
<trkpt lat="45.9802190" lon="10.1917440">
	<ele>1755.40</ele>
	<time>2025-08-16T07:45:09.000Z</time>
</trkpt>
<trkpt lat="45.9802090" lon="10.1917420">
	<ele>1755.60</ele>
	<time>2025-08-16T07:45:10.000Z</time>
</trkpt>
<trkpt lat="45.9802050" lon="10.1917300">
	<ele>1755.80</ele>
	<time>2025-08-16T07:45:11.000Z</time>
</trkpt>
<trkpt lat="45.9801990" lon="10.1917240">
	<ele>1756.00</ele>
	<time>2025-08-16T07:45:12.000Z</time>
</trkpt>
<trkpt lat="45.9801960" lon="10.1917200">
	<ele>1756.20</ele>
	<time>2025-08-16T07:45:13.000Z</time>
</trkpt>
<trkpt lat="45.9801930" lon="10.1917180">
	<ele>1756.40</ele>
	<time>2025-08-16T07:45:14.000Z</time>
</trkpt>
<trkpt lat="45.9801860" lon="10.1917180">
	<ele>1756.80</ele>
	<time>2025-08-16T07:45:15.000Z</time>
</trkpt>
<trkpt lat="45.9801780" lon="10.1917200">
	<ele>1757.00</ele>
	<time>2025-08-16T07:45:16.000Z</time>
</trkpt>
<trkpt lat="45.9801740" lon="10.1917180">
	<ele>1757.20</ele>
	<time>2025-08-16T07:45:17.000Z</time>
</trkpt>
<trkpt lat="45.9801730" lon="10.1917050">
	<ele>1757.40</ele>
	<time>2025-08-16T07:45:18.000Z</time>
</trkpt>
<trkpt lat="45.9801630" lon="10.1917020">
	<ele>1757.40</ele>
	<time>2025-08-16T07:45:19.000Z</time>
</trkpt>
<trkpt lat="45.9801580" lon="10.1916990">
	<ele>1757.80</ele>
	<time>2025-08-16T07:45:20.000Z</time>
</trkpt>
<trkpt lat="45.9801420" lon="10.1916980">
	<ele>1758.00</ele>
	<time>2025-08-16T07:45:21.000Z</time>
</trkpt>
<trkpt lat="45.9801330" lon="10.1916990">
	<ele>1758.20</ele>
	<time>2025-08-16T07:45:22.000Z</time>
</trkpt>
<trkpt lat="45.9801320" lon="10.1916950">
	<ele>1758.40</ele>
	<time>2025-08-16T07:45:23.000Z</time>
</trkpt>
<trkpt lat="45.9801310" lon="10.1916940">
	<ele>1758.80</ele>
	<time>2025-08-16T07:45:24.000Z</time>
</trkpt>
<trkpt lat="45.9801270" lon="10.1916920">
	<ele>1759.00</ele>
	<time>2025-08-16T07:45:25.000Z</time>
</trkpt>
<trkpt lat="45.9801220" lon="10.1916890">
	<ele>1759.40</ele>
	<time>2025-08-16T07:45:26.000Z</time>
</trkpt>
<trkpt lat="45.9801160" lon="10.1916860">
	<ele>1759.40</ele>
	<time>2025-08-16T07:45:27.000Z</time>
</trkpt>
<trkpt lat="45.9801110" lon="10.1916810">
	<ele>1759.60</ele>
	<time>2025-08-16T07:45:28.000Z</time>
</trkpt>
<trkpt lat="45.9801030" lon="10.1916750">
	<ele>1759.60</ele>
	<time>2025-08-16T07:45:29.000Z</time>
</trkpt>
<trkpt lat="45.9800970" lon="10.1916690">
	<ele>1760.00</ele>
	<time>2025-08-16T07:45:30.000Z</time>
</trkpt>
<trkpt lat="45.9800890" lon="10.1916680">
	<ele>1760.20</ele>
	<time>2025-08-16T07:45:31.000Z</time>
</trkpt>
<trkpt lat="45.9800850" lon="10.1916630">
	<ele>1760.40</ele>
	<time>2025-08-16T07:45:32.000Z</time>
</trkpt>
<trkpt lat="45.9800790" lon="10.1916590">
	<ele>1760.80</ele>
	<time>2025-08-16T07:45:33.000Z</time>
</trkpt>
<trkpt lat="45.9800720" lon="10.1916540">
	<ele>1761.20</ele>
	<time>2025-08-16T07:45:34.000Z</time>
</trkpt>
<trkpt lat="45.9800680" lon="10.1916450">
	<ele>1761.20</ele>
	<time>2025-08-16T07:45:35.000Z</time>
</trkpt>
<trkpt lat="45.9800650" lon="10.1916390">
	<ele>1761.40</ele>
	<time>2025-08-16T07:45:36.000Z</time>
</trkpt>
<trkpt lat="45.9800620" lon="10.1916320">
	<ele>1761.60</ele>
	<time>2025-08-16T07:45:37.000Z</time>
</trkpt>
<trkpt lat="45.9800590" lon="10.1916280">
	<ele>1761.60</ele>
	<time>2025-08-16T07:45:38.000Z</time>
</trkpt>
<trkpt lat="45.9800560" lon="10.1916260">
	<ele>1761.80</ele>
	<time>2025-08-16T07:45:39.000Z</time>
</trkpt>
<trkpt lat="45.9800550" lon="10.1916170">
	<ele>1761.80</ele>
	<time>2025-08-16T07:45:40.000Z</time>
</trkpt>
<trkpt lat="45.9800560" lon="10.1916110">
	<ele>1762.20</ele>
	<time>2025-08-16T07:45:41.000Z</time>
</trkpt>
<trkpt lat="45.9800560" lon="10.1916060">
	<ele>1762.40</ele>
	<time>2025-08-16T07:45:42.000Z</time>
</trkpt>
<trkpt lat="45.9800610" lon="10.1915960">
	<ele>1762.40</ele>
	<time>2025-08-16T07:45:43.000Z</time>
</trkpt>
<trkpt lat="45.9800640" lon="10.1915880">
	<ele>1762.60</ele>
	<time>2025-08-16T07:45:44.000Z</time>
</trkpt>
<trkpt lat="45.9800690" lon="10.1915810">
	<ele>1762.60</ele>
	<time>2025-08-16T07:45:45.000Z</time>
</trkpt>
<trkpt lat="45.9800790" lon="10.1915730">
	<ele>1762.60</ele>
	<time>2025-08-16T07:45:46.000Z</time>
</trkpt>
<trkpt lat="45.9800880" lon="10.1915630">
	<ele>1762.80</ele>
	<time>2025-08-16T07:45:47.000Z</time>
</trkpt>
<trkpt lat="45.9800930" lon="10.1915550">
	<ele>1763.00</ele>
	<time>2025-08-16T07:45:48.000Z</time>
</trkpt>
<trkpt lat="45.9801010" lon="10.1915470">
	<ele>1763.20</ele>
	<time>2025-08-16T07:45:49.000Z</time>
</trkpt>
<trkpt lat="45.9801040" lon="10.1915460">
	<ele>1763.40</ele>
	<time>2025-08-16T07:45:50.000Z</time>
</trkpt>
<trkpt lat="45.9801050" lon="10.1915430">
	<ele>1763.60</ele>
	<time>2025-08-16T07:45:51.000Z</time>
</trkpt>
<trkpt lat="45.9801080" lon="10.1915460">
	<ele>1763.80</ele>
	<time>2025-08-16T07:45:52.000Z</time>
</trkpt>
<trkpt lat="45.9801090" lon="10.1915430">
	<ele>1763.80</ele>
	<time>2025-08-16T07:45:53.000Z</time>
</trkpt>
<trkpt lat="45.9801110" lon="10.1915410">
	<ele>1764.00</ele>
	<time>2025-08-16T07:45:54.000Z</time>
</trkpt>
<trkpt lat="45.9801210" lon="10.1915340">
	<ele>1764.00</ele>
	<time>2025-08-16T07:45:55.000Z</time>
</trkpt>
<trkpt lat="45.9801230" lon="10.1915310">
	<ele>1764.20</ele>
	<time>2025-08-16T07:45:56.000Z</time>
</trkpt>
<trkpt lat="45.9801240" lon="10.1915300">
	<ele>1764.20</ele>
	<time>2025-08-16T07:45:57.000Z</time>
</trkpt>
<trkpt lat="45.9801210" lon="10.1915290">
	<ele>1764.20</ele>
	<time>2025-08-16T07:45:58.000Z</time>
</trkpt>
<trkpt lat="45.9801070" lon="10.1915280">
	<ele>1764.20</ele>
	<time>2025-08-16T07:45:59.000Z</time>
</trkpt>
<trkpt lat="45.9800950" lon="10.1915270">
	<ele>1764.20</ele>
	<time>2025-08-16T07:46:00.000Z</time>
</trkpt>
<trkpt lat="45.9800830" lon="10.1915240">
	<ele>1764.40</ele>
	<time>2025-08-16T07:46:01.000Z</time>
</trkpt>
<trkpt lat="45.9800710" lon="10.1915190">
	<ele>1764.40</ele>
	<time>2025-08-16T07:46:02.000Z</time>
</trkpt>
<trkpt lat="45.9800600" lon="10.1915070">
	<ele>1764.40</ele>
	<time>2025-08-16T07:46:03.000Z</time>
</trkpt>
<trkpt lat="45.9800520" lon="10.1915030">
	<ele>1764.20</ele>
	<time>2025-08-16T07:46:04.000Z</time>
</trkpt>
<trkpt lat="45.9800420" lon="10.1915020">
	<ele>1764.00</ele>
	<time>2025-08-16T07:46:05.000Z</time>
</trkpt>
<trkpt lat="45.9800310" lon="10.1915010">
	<ele>1764.00</ele>
	<time>2025-08-16T07:46:06.000Z</time>
</trkpt>
<trkpt lat="45.9800230" lon="10.1915010">
	<ele>1764.00</ele>
	<time>2025-08-16T07:46:07.000Z</time>
</trkpt>
<trkpt lat="45.9800140" lon="10.1914980">
	<ele>1763.80</ele>
	<time>2025-08-16T07:46:08.000Z</time>
</trkpt>
<trkpt lat="45.9800050" lon="10.1914970">
	<ele>1763.80</ele>
	<time>2025-08-16T07:46:09.000Z</time>
</trkpt>
<trkpt lat="45.9799990" lon="10.1914940">
	<ele>1763.80</ele>
	<time>2025-08-16T07:46:10.000Z</time>
</trkpt>
<trkpt lat="45.9799970" lon="10.1914910">
	<ele>1763.80</ele>
	<time>2025-08-16T07:46:11.000Z</time>
</trkpt>
<trkpt lat="45.9799970" lon="10.1914900">
	<ele>1764.00</ele>
	<time>2025-08-16T07:46:12.000Z</time>
</trkpt>
<trkpt lat="45.9799970" lon="10.1914860">
	<ele>1764.00</ele>
	<time>2025-08-16T07:46:13.000Z</time>
</trkpt>
<trkpt lat="45.9799970" lon="10.1914790">
	<ele>1764.00</ele>
	<time>2025-08-16T07:46:14.000Z</time>
</trkpt>
<trkpt lat="45.9799970" lon="10.1914710">
	<ele>1764.20</ele>
	<time>2025-08-16T07:46:15.000Z</time>
</trkpt>
<trkpt lat="45.9799980" lon="10.1914610">
	<ele>1764.20</ele>
	<time>2025-08-16T07:46:16.000Z</time>
</trkpt>
<trkpt lat="45.9800020" lon="10.1914490">
	<ele>1764.20</ele>
	<time>2025-08-16T07:46:17.000Z</time>
</trkpt>
<trkpt lat="45.9800060" lon="10.1914370">
	<ele>1764.20</ele>
	<time>2025-08-16T07:46:18.000Z</time>
</trkpt>
<trkpt lat="45.9800100" lon="10.1914310">
	<ele>1764.40</ele>
	<time>2025-08-16T07:46:19.000Z</time>
</trkpt>
<trkpt lat="45.9800140" lon="10.1914260">
	<ele>1764.60</ele>
	<time>2025-08-16T07:46:20.000Z</time>
</trkpt>
<trkpt lat="45.9800180" lon="10.1914190">
	<ele>1764.80</ele>
	<time>2025-08-16T07:46:21.000Z</time>
</trkpt>
<trkpt lat="45.9800220" lon="10.1914080">
	<ele>1765.00</ele>
	<time>2025-08-16T07:46:22.000Z</time>
</trkpt>
<trkpt lat="45.9800220" lon="10.1913980">
	<ele>1765.00</ele>
	<time>2025-08-16T07:46:23.000Z</time>
</trkpt>
<trkpt lat="45.9800210" lon="10.1913850">
	<ele>1765.20</ele>
	<time>2025-08-16T07:46:24.000Z</time>
</trkpt>
<trkpt lat="45.9800170" lon="10.1913730">
	<ele>1765.20</ele>
	<time>2025-08-16T07:46:25.000Z</time>
</trkpt>
<trkpt lat="45.9800160" lon="10.1913640">
	<ele>1765.20</ele>
	<time>2025-08-16T07:46:26.000Z</time>
</trkpt>
<trkpt lat="45.9800160" lon="10.1913550">
	<ele>1765.20</ele>
	<time>2025-08-16T07:46:27.000Z</time>
</trkpt>
<trkpt lat="45.9800240" lon="10.1913460">
	<ele>1765.40</ele>
	<time>2025-08-16T07:46:28.000Z</time>
</trkpt>
<trkpt lat="45.9800280" lon="10.1913410">
	<ele>1765.40</ele>
	<time>2025-08-16T07:46:29.000Z</time>
</trkpt>
<trkpt lat="45.9800270" lon="10.1913330">
	<ele>1765.40</ele>
	<time>2025-08-16T07:46:30.000Z</time>
</trkpt>
<trkpt lat="45.9800170" lon="10.1913250">
	<ele>1765.60</ele>
	<time>2025-08-16T07:46:31.000Z</time>
</trkpt>
<trkpt lat="45.9800070" lon="10.1913140">
	<ele>1765.80</ele>
	<time>2025-08-16T07:46:32.000Z</time>
</trkpt>
<trkpt lat="45.9799990" lon="10.1913000">
	<ele>1766.00</ele>
	<time>2025-08-16T07:46:33.000Z</time>
</trkpt>
<trkpt lat="45.9799950" lon="10.1912970">
	<ele>1766.20</ele>
	<time>2025-08-16T07:46:34.000Z</time>
</trkpt>
<trkpt lat="45.9799940" lon="10.1912960">
	<ele>1766.40</ele>
	<time>2025-08-16T07:46:35.000Z</time>
</trkpt>
<trkpt lat="45.9799930" lon="10.1912950">
	<ele>1766.40</ele>
	<time>2025-08-16T07:46:36.000Z</time>
</trkpt>
<trkpt lat="45.9799900" lon="10.1912970">
	<ele>1766.60</ele>
	<time>2025-08-16T07:46:37.000Z</time>
</trkpt>
<trkpt lat="45.9799870" lon="10.1913010">
	<ele>1766.60</ele>
	<time>2025-08-16T07:46:38.000Z</time>
</trkpt>
<trkpt lat="45.9799860" lon="10.1913030">
	<ele>1766.60</ele>
	<time>2025-08-16T07:46:39.000Z</time>
</trkpt>
<trkpt lat="45.9799820" lon="10.1913120">
	<ele>1766.40</ele>
	<time>2025-08-16T07:46:40.000Z</time>
</trkpt>
<trkpt lat="45.9799710" lon="10.1913280">
	<ele>1766.40</ele>
	<time>2025-08-16T07:46:41.000Z</time>
</trkpt>
<trkpt lat="45.9799580" lon="10.1913330">
	<ele>1766.40</ele>
	<time>2025-08-16T07:46:42.000Z</time>
</trkpt>
<trkpt lat="45.9799450" lon="10.1913360">
	<ele>1766.20</ele>
	<time>2025-08-16T07:46:43.000Z</time>
</trkpt>
<trkpt lat="45.9799420" lon="10.1913340">
	<ele>1766.20</ele>
	<time>2025-08-16T07:46:44.000Z</time>
</trkpt>
<trkpt lat="45.9799380" lon="10.1913350">
	<ele>1766.20</ele>
	<time>2025-08-16T07:46:45.000Z</time>
</trkpt>
<trkpt lat="45.9799340" lon="10.1913360">
	<ele>1766.20</ele>
	<time>2025-08-16T07:46:46.000Z</time>
</trkpt>
<trkpt lat="45.9799290" lon="10.1913340">
	<ele>1766.20</ele>
	<time>2025-08-16T07:46:47.000Z</time>
</trkpt>
<trkpt lat="45.9799200" lon="10.1913310">
	<ele>1766.40</ele>
	<time>2025-08-16T07:46:48.000Z</time>
</trkpt>
<trkpt lat="45.9799120" lon="10.1913190">
	<ele>1766.40</ele>
	<time>2025-08-16T07:46:49.000Z</time>
</trkpt>
<trkpt lat="45.9799030" lon="10.1913150">
	<ele>1766.40</ele>
	<time>2025-08-16T07:46:50.000Z</time>
</trkpt>
<trkpt lat="45.9798930" lon="10.1913160">
	<ele>1766.40</ele>
	<time>2025-08-16T07:46:51.000Z</time>
</trkpt>
<trkpt lat="45.9798820" lon="10.1913290">
	<ele>1766.40</ele>
	<time>2025-08-16T07:46:52.000Z</time>
</trkpt>
<trkpt lat="45.9798710" lon="10.1913390">
	<ele>1766.20</ele>
	<time>2025-08-16T07:46:53.000Z</time>
</trkpt>
<trkpt lat="45.9798630" lon="10.1913460">
	<ele>1766.20</ele>
	<time>2025-08-16T07:46:54.000Z</time>
</trkpt>
<trkpt lat="45.9798580" lon="10.1913470">
	<ele>1766.00</ele>
	<time>2025-08-16T07:46:55.000Z</time>
</trkpt>
<trkpt lat="45.9798540" lon="10.1913480">
	<ele>1766.00</ele>
	<time>2025-08-16T07:46:56.000Z</time>
</trkpt>
<trkpt lat="45.9798530" lon="10.1913490">
	<ele>1766.00</ele>
	<time>2025-08-16T07:46:57.000Z</time>
</trkpt>
<trkpt lat="45.9798520" lon="10.1913500">
	<ele>1766.00</ele>
	<time>2025-08-16T07:46:58.000Z</time>
</trkpt>
<trkpt lat="45.9798520" lon="10.1913510">
	<ele>1766.00</ele>
	<time>2025-08-16T07:46:59.000Z</time>
</trkpt>
<trkpt lat="45.9798530" lon="10.1913500">
	<ele>1766.20</ele>
	<time>2025-08-16T07:47:00.000Z</time>
</trkpt>
<trkpt lat="45.9798510" lon="10.1913510">
	<ele>1766.20</ele>
	<time>2025-08-16T07:47:01.000Z</time>
</trkpt>
<trkpt lat="45.9798480" lon="10.1913530">
	<ele>1766.20</ele>
	<time>2025-08-16T07:47:02.000Z</time>
</trkpt>
<trkpt lat="45.9798410" lon="10.1913530">
	<ele>1766.20</ele>
	<time>2025-08-16T07:47:03.000Z</time>
</trkpt>
<trkpt lat="45.9798350" lon="10.1913580">
	<ele>1766.00</ele>
	<time>2025-08-16T07:47:04.000Z</time>
</trkpt>
<trkpt lat="45.9798300" lon="10.1913600">
	<ele>1766.00</ele>
	<time>2025-08-16T07:47:05.000Z</time>
</trkpt>
<trkpt lat="45.9798250" lon="10.1913610">
	<ele>1766.00</ele>
	<time>2025-08-16T07:47:06.000Z</time>
</trkpt>
<trkpt lat="45.9798160" lon="10.1913680">
	<ele>1765.80</ele>
	<time>2025-08-16T07:47:07.000Z</time>
</trkpt>
<trkpt lat="45.9798060" lon="10.1913800">
	<ele>1765.80</ele>
	<time>2025-08-16T07:47:08.000Z</time>
</trkpt>
<trkpt lat="45.9798000" lon="10.1913850">
	<ele>1765.60</ele>
	<time>2025-08-16T07:47:09.000Z</time>
</trkpt>
<trkpt lat="45.9797950" lon="10.1913830">
	<ele>1765.60</ele>
	<time>2025-08-16T07:47:10.000Z</time>
</trkpt>
<trkpt lat="45.9797900" lon="10.1913820">
	<ele>1765.40</ele>
	<time>2025-08-16T07:47:11.000Z</time>
</trkpt>
<trkpt lat="45.9797900" lon="10.1913750">
	<ele>1765.20</ele>
	<time>2025-08-16T07:47:12.000Z</time>
</trkpt>
<trkpt lat="45.9797890" lon="10.1913680">
	<ele>1765.20</ele>
	<time>2025-08-16T07:47:13.000Z</time>
</trkpt>
<trkpt lat="45.9797880" lon="10.1913630">
	<ele>1765.00</ele>
	<time>2025-08-16T07:47:14.000Z</time>
</trkpt>
<trkpt lat="45.9797870" lon="10.1913600">
	<ele>1765.00</ele>
	<time>2025-08-16T07:47:15.000Z</time>
</trkpt>
<trkpt lat="45.9797870" lon="10.1913540">
	<ele>1765.00</ele>
	<time>2025-08-16T07:47:16.000Z</time>
</trkpt>
<trkpt lat="45.9797900" lon="10.1913470">
	<ele>1765.20</ele>
	<time>2025-08-16T07:47:17.000Z</time>
</trkpt>
<trkpt lat="45.9797940" lon="10.1913400">
	<ele>1765.20</ele>
	<time>2025-08-16T07:47:18.000Z</time>
</trkpt>
<trkpt lat="45.9797940" lon="10.1913370">
	<ele>1765.20</ele>
	<time>2025-08-16T07:47:19.000Z</time>
</trkpt>
<trkpt lat="45.9797950" lon="10.1913350">
	<ele>1765.20</ele>
	<time>2025-08-16T07:47:20.000Z</time>
</trkpt>
<trkpt lat="45.9797940" lon="10.1913350">
	<ele>1765.20</ele>
	<time>2025-08-16T07:47:21.000Z</time>
</trkpt>
<trkpt lat="45.9797870" lon="10.1913360">
	<ele>1765.20</ele>
	<time>2025-08-16T07:47:22.000Z</time>
</trkpt>
<trkpt lat="45.9797800" lon="10.1913370">
	<ele>1765.20</ele>
	<time>2025-08-16T07:47:23.000Z</time>
</trkpt>
<trkpt lat="45.9797760" lon="10.1913470">
	<ele>1765.20</ele>
	<time>2025-08-16T07:47:24.000Z</time>
</trkpt>
<trkpt lat="45.9797750" lon="10.1913560">
	<ele>1765.00</ele>
	<time>2025-08-16T07:47:25.000Z</time>
</trkpt>
<trkpt lat="45.9797750" lon="10.1913630">
	<ele>1765.00</ele>
	<time>2025-08-16T07:47:26.000Z</time>
</trkpt>
<trkpt lat="45.9797700" lon="10.1913780">
	<ele>1764.80</ele>
	<time>2025-08-16T07:47:27.000Z</time>
</trkpt>
<trkpt lat="45.9797640" lon="10.1913850">
	<ele>1764.80</ele>
	<time>2025-08-16T07:47:28.000Z</time>
</trkpt>
<trkpt lat="45.9797550" lon="10.1913880">
	<ele>1764.80</ele>
	<time>2025-08-16T07:47:29.000Z</time>
</trkpt>
<trkpt lat="45.9797490" lon="10.1913840">
	<ele>1764.80</ele>
	<time>2025-08-16T07:47:30.000Z</time>
</trkpt>
<trkpt lat="45.9797450" lon="10.1913770">
	<ele>1764.80</ele>
	<time>2025-08-16T07:47:31.000Z</time>
</trkpt>
<trkpt lat="45.9797350" lon="10.1913730">
	<ele>1764.80</ele>
	<time>2025-08-16T07:47:32.000Z</time>
</trkpt>
<trkpt lat="45.9797220" lon="10.1913660">
	<ele>1764.80</ele>
	<time>2025-08-16T07:47:33.000Z</time>
</trkpt>
<trkpt lat="45.9797100" lon="10.1913620">
	<ele>1764.80</ele>
	<time>2025-08-16T07:47:34.000Z</time>
</trkpt>
<trkpt lat="45.9796960" lon="10.1913540">
	<ele>1765.00</ele>
	<time>2025-08-16T07:47:35.000Z</time>
</trkpt>
<trkpt lat="45.9796860" lon="10.1913500">
	<ele>1765.00</ele>
	<time>2025-08-16T07:47:36.000Z</time>
</trkpt>
<trkpt lat="45.9796770" lon="10.1913510">
	<ele>1765.00</ele>
	<time>2025-08-16T07:47:37.000Z</time>
</trkpt>
<trkpt lat="45.9796690" lon="10.1913470">
	<ele>1765.20</ele>
	<time>2025-08-16T07:47:38.000Z</time>
</trkpt>
<trkpt lat="45.9796670" lon="10.1913420">
	<ele>1765.40</ele>
	<time>2025-08-16T07:47:39.000Z</time>
</trkpt>
<trkpt lat="45.9796640" lon="10.1913300">
	<ele>1765.60</ele>
	<time>2025-08-16T07:47:40.000Z</time>
</trkpt>
<trkpt lat="45.9796580" lon="10.1913240">
	<ele>1765.60</ele>
	<time>2025-08-16T07:47:41.000Z</time>
</trkpt>
<trkpt lat="45.9796640" lon="10.1913090">
	<ele>1765.80</ele>
	<time>2025-08-16T07:47:42.000Z</time>
</trkpt>
<trkpt lat="45.9796670" lon="10.1912970">
	<ele>1766.20</ele>
	<time>2025-08-16T07:47:43.000Z</time>
</trkpt>
<trkpt lat="45.9796650" lon="10.1912890">
	<ele>1766.40</ele>
	<time>2025-08-16T07:47:44.000Z</time>
</trkpt>
<trkpt lat="45.9796630" lon="10.1912830">
	<ele>1766.60</ele>
	<time>2025-08-16T07:47:45.000Z</time>
</trkpt>
<trkpt lat="45.9796630" lon="10.1912810">
	<ele>1766.80</ele>
	<time>2025-08-16T07:47:46.000Z</time>
</trkpt>
<trkpt lat="45.9796640" lon="10.1912790">
	<ele>1767.00</ele>
	<time>2025-08-16T07:47:47.000Z</time>
</trkpt>
<trkpt lat="45.9796640" lon="10.1912770">
	<ele>1767.00</ele>
	<time>2025-08-16T07:47:48.000Z</time>
</trkpt>
<trkpt lat="45.9796620" lon="10.1912780">
	<ele>1767.00</ele>
	<time>2025-08-16T07:47:49.000Z</time>
</trkpt>
<trkpt lat="45.9796540" lon="10.1912810">
	<ele>1767.20</ele>
	<time>2025-08-16T07:47:50.000Z</time>
</trkpt>
<trkpt lat="45.9796450" lon="10.1912830">
	<ele>1767.20</ele>
	<time>2025-08-16T07:47:51.000Z</time>
</trkpt>
<trkpt lat="45.9796350" lon="10.1912850">
	<ele>1767.20</ele>
	<time>2025-08-16T07:47:52.000Z</time>
</trkpt>
<trkpt lat="45.9796230" lon="10.1912870">
	<ele>1767.00</ele>
	<time>2025-08-16T07:47:53.000Z</time>
</trkpt>
<trkpt lat="45.9796120" lon="10.1912870">
	<ele>1767.00</ele>
	<time>2025-08-16T07:47:54.000Z</time>
</trkpt>
<trkpt lat="45.9795970" lon="10.1912930">
	<ele>1767.00</ele>
	<time>2025-08-16T07:47:55.000Z</time>
</trkpt>
<trkpt lat="45.9795820" lon="10.1913030">
	<ele>1767.00</ele>
	<time>2025-08-16T07:47:56.000Z</time>
</trkpt>
<trkpt lat="45.9795710" lon="10.1913150">
	<ele>1766.80</ele>
	<time>2025-08-16T07:47:57.000Z</time>
</trkpt>
<trkpt lat="45.9795580" lon="10.1913330">
	<ele>1766.80</ele>
	<time>2025-08-16T07:47:58.000Z</time>
</trkpt>
<trkpt lat="45.9795440" lon="10.1913450">
	<ele>1766.80</ele>
	<time>2025-08-16T07:47:59.000Z</time>
</trkpt>
<trkpt lat="45.9795330" lon="10.1913500">
	<ele>1766.80</ele>
	<time>2025-08-16T07:48:00.000Z</time>
</trkpt>
<trkpt lat="45.9795240" lon="10.1913560">
	<ele>1766.80</ele>
	<time>2025-08-16T07:48:01.000Z</time>
</trkpt>
<trkpt lat="45.9795130" lon="10.1913650">
	<ele>1767.00</ele>
	<time>2025-08-16T07:48:02.000Z</time>
</trkpt>
<trkpt lat="45.9794980" lon="10.1913590">
	<ele>1767.00</ele>
	<time>2025-08-16T07:48:03.000Z</time>
</trkpt>
<trkpt lat="45.9794930" lon="10.1913580">
	<ele>1767.20</ele>
	<time>2025-08-16T07:48:04.000Z</time>
</trkpt>
<trkpt lat="45.9794870" lon="10.1913600">
	<ele>1767.60</ele>
	<time>2025-08-16T07:48:05.000Z</time>
</trkpt>
<trkpt lat="45.9794800" lon="10.1913590">
	<ele>1767.60</ele>
	<time>2025-08-16T07:48:06.000Z</time>
</trkpt>
<trkpt lat="45.9794690" lon="10.1913550">
	<ele>1767.80</ele>
	<time>2025-08-16T07:48:07.000Z</time>
</trkpt>
<trkpt lat="45.9794650" lon="10.1913490">
	<ele>1768.00</ele>
	<time>2025-08-16T07:48:08.000Z</time>
</trkpt>
<trkpt lat="45.9794620" lon="10.1913450">
	<ele>1768.00</ele>
	<time>2025-08-16T07:48:09.000Z</time>
</trkpt>
<trkpt lat="45.9794590" lon="10.1913370">
	<ele>1768.00</ele>
	<time>2025-08-16T07:48:10.000Z</time>
</trkpt>
<trkpt lat="45.9794560" lon="10.1913320">
	<ele>1768.20</ele>
	<time>2025-08-16T07:48:11.000Z</time>
</trkpt>
<trkpt lat="45.9794540" lon="10.1913290">
	<ele>1768.40</ele>
	<time>2025-08-16T07:48:12.000Z</time>
</trkpt>
<trkpt lat="45.9794540" lon="10.1913270">
	<ele>1768.60</ele>
	<time>2025-08-16T07:48:13.000Z</time>
</trkpt>
<trkpt lat="45.9794530" lon="10.1913260">
	<ele>1768.60</ele>
	<time>2025-08-16T07:48:14.000Z</time>
</trkpt>
<trkpt lat="45.9794510" lon="10.1913280">
	<ele>1768.80</ele>
	<time>2025-08-16T07:48:15.000Z</time>
</trkpt>
<trkpt lat="45.9794470" lon="10.1913310">
	<ele>1768.80</ele>
	<time>2025-08-16T07:48:16.000Z</time>
</trkpt>
<trkpt lat="45.9794450" lon="10.1913310">
	<ele>1769.00</ele>
	<time>2025-08-16T07:48:17.000Z</time>
</trkpt>
<trkpt lat="45.9794440" lon="10.1913320">
	<ele>1769.00</ele>
	<time>2025-08-16T07:48:18.000Z</time>
</trkpt>
<trkpt lat="45.9794420" lon="10.1913340">
	<ele>1769.00</ele>
	<time>2025-08-16T07:48:19.000Z</time>
</trkpt>
<trkpt lat="45.9794360" lon="10.1913420">
	<ele>1769.00</ele>
	<time>2025-08-16T07:48:20.000Z</time>
</trkpt>
<trkpt lat="45.9794300" lon="10.1913470">
	<ele>1769.00</ele>
	<time>2025-08-16T07:48:21.000Z</time>
</trkpt>
<trkpt lat="45.9794230" lon="10.1913480">
	<ele>1768.80</ele>
	<time>2025-08-16T07:48:22.000Z</time>
</trkpt>
<trkpt lat="45.9794150" lon="10.1913550">
	<ele>1768.80</ele>
	<time>2025-08-16T07:48:23.000Z</time>
</trkpt>
<trkpt lat="45.9794100" lon="10.1913580">
	<ele>1768.80</ele>
	<time>2025-08-16T07:48:24.000Z</time>
</trkpt>
<trkpt lat="45.9794050" lon="10.1913590">
	<ele>1768.80</ele>
	<time>2025-08-16T07:48:25.000Z</time>
</trkpt>
<trkpt lat="45.9794030" lon="10.1913590">
	<ele>1768.80</ele>
	<time>2025-08-16T07:48:26.000Z</time>
</trkpt>
<trkpt lat="45.9794000" lon="10.1913630">
	<ele>1768.80</ele>
	<time>2025-08-16T07:48:27.000Z</time>
</trkpt>
<trkpt lat="45.9793960" lon="10.1913650">
	<ele>1768.80</ele>
	<time>2025-08-16T07:48:28.000Z</time>
</trkpt>
<trkpt lat="45.9793930" lon="10.1913630">
	<ele>1768.80</ele>
	<time>2025-08-16T07:48:29.000Z</time>
</trkpt>
<trkpt lat="45.9793870" lon="10.1913600">
	<ele>1768.80</ele>
	<time>2025-08-16T07:48:30.000Z</time>
</trkpt>
<trkpt lat="45.9793830" lon="10.1913520">
	<ele>1768.60</ele>
	<time>2025-08-16T07:48:31.000Z</time>
</trkpt>
<trkpt lat="45.9793820" lon="10.1913530">
	<ele>1768.40</ele>
	<time>2025-08-16T07:48:32.000Z</time>
</trkpt>
<trkpt lat="45.9793820" lon="10.1913510">
	<ele>1768.40</ele>
	<time>2025-08-16T07:48:33.000Z</time>
</trkpt>
<trkpt lat="45.9793750" lon="10.1913570">
	<ele>1768.20</ele>
	<time>2025-08-16T07:48:34.000Z</time>
</trkpt>
<trkpt lat="45.9793630" lon="10.1913670">
	<ele>1768.20</ele>
	<time>2025-08-16T07:48:35.000Z</time>
</trkpt>
<trkpt lat="45.9793540" lon="10.1913800">
	<ele>1768.20</ele>
	<time>2025-08-16T07:48:36.000Z</time>
</trkpt>
<trkpt lat="45.9793450" lon="10.1913920">
	<ele>1768.00</ele>
	<time>2025-08-16T07:48:37.000Z</time>
</trkpt>
<trkpt lat="45.9793340" lon="10.1914020">
	<ele>1768.00</ele>
	<time>2025-08-16T07:48:38.000Z</time>
</trkpt>
<trkpt lat="45.9793230" lon="10.1914060">
	<ele>1768.00</ele>
	<time>2025-08-16T07:48:39.000Z</time>
</trkpt>
<trkpt lat="45.9793120" lon="10.1914100">
	<ele>1768.00</ele>
	<time>2025-08-16T07:48:40.000Z</time>
</trkpt>
<trkpt lat="45.9793010" lon="10.1914110">
	<ele>1767.80</ele>
	<time>2025-08-16T07:48:41.000Z</time>
</trkpt>
<trkpt lat="45.9792870" lon="10.1914120">
	<ele>1767.80</ele>
	<time>2025-08-16T07:48:42.000Z</time>
</trkpt>
<trkpt lat="45.9792770" lon="10.1914060">
	<ele>1767.60</ele>
	<time>2025-08-16T07:48:43.000Z</time>
</trkpt>
<trkpt lat="45.9792650" lon="10.1914010">
	<ele>1767.60</ele>
	<time>2025-08-16T07:48:44.000Z</time>
</trkpt>
<trkpt lat="45.9792570" lon="10.1913990">
	<ele>1767.40</ele>
	<time>2025-08-16T07:48:45.000Z</time>
</trkpt>
<trkpt lat="45.9792490" lon="10.1913900">
	<ele>1767.40</ele>
	<time>2025-08-16T07:48:46.000Z</time>
</trkpt>
<trkpt lat="45.9792410" lon="10.1913860">
	<ele>1767.20</ele>
	<time>2025-08-16T07:48:47.000Z</time>
</trkpt>
<trkpt lat="45.9792280" lon="10.1913840">
	<ele>1767.20</ele>
	<time>2025-08-16T07:48:48.000Z</time>
</trkpt>
<trkpt lat="45.9792110" lon="10.1913860">
	<ele>1767.00</ele>
	<time>2025-08-16T07:48:49.000Z</time>
</trkpt>
<trkpt lat="45.9791950" lon="10.1913830">
	<ele>1767.00</ele>
	<time>2025-08-16T07:48:50.000Z</time>
</trkpt>
<trkpt lat="45.9791850" lon="10.1913850">
	<ele>1767.00</ele>
	<time>2025-08-16T07:48:51.000Z</time>
</trkpt>
<trkpt lat="45.9791790" lon="10.1913880">
	<ele>1767.00</ele>
	<time>2025-08-16T07:48:52.000Z</time>
</trkpt>
<trkpt lat="45.9791720" lon="10.1913950">
	<ele>1766.80</ele>
	<time>2025-08-16T07:48:53.000Z</time>
</trkpt>
<trkpt lat="45.9791670" lon="10.1914000">
	<ele>1766.80</ele>
	<time>2025-08-16T07:48:54.000Z</time>
</trkpt>
<trkpt lat="45.9791640" lon="10.1914040">
	<ele>1766.80</ele>
	<time>2025-08-16T07:48:55.000Z</time>
</trkpt>
<trkpt lat="45.9791550" lon="10.1914010">
	<ele>1766.80</ele>
	<time>2025-08-16T07:48:56.000Z</time>
</trkpt>
<trkpt lat="45.9791520" lon="10.1914000">
	<ele>1766.80</ele>
	<time>2025-08-16T07:48:57.000Z</time>
</trkpt>
<trkpt lat="45.9791510" lon="10.1914000">
	<ele>1766.80</ele>
	<time>2025-08-16T07:48:58.000Z</time>
</trkpt>
<trkpt lat="45.9791490" lon="10.1913980">
	<ele>1766.80</ele>
	<time>2025-08-16T07:48:59.000Z</time>
</trkpt>
<trkpt lat="45.9791440" lon="10.1913940">
	<ele>1766.80</ele>
	<time>2025-08-16T07:49:00.000Z</time>
</trkpt>
<trkpt lat="45.9791370" lon="10.1913900">
	<ele>1766.80</ele>
	<time>2025-08-16T07:49:01.000Z</time>
</trkpt>
<trkpt lat="45.9791310" lon="10.1913820">
	<ele>1766.60</ele>
	<time>2025-08-16T07:49:02.000Z</time>
</trkpt>
<trkpt lat="45.9791260" lon="10.1913750">
	<ele>1766.40</ele>
	<time>2025-08-16T07:49:03.000Z</time>
</trkpt>
<trkpt lat="45.9791200" lon="10.1913690">
	<ele>1766.20</ele>
	<time>2025-08-16T07:49:04.000Z</time>
</trkpt>
<trkpt lat="45.9791170" lon="10.1913590">
	<ele>1766.20</ele>
	<time>2025-08-16T07:49:05.000Z</time>
</trkpt>
<trkpt lat="45.9791130" lon="10.1913540">
	<ele>1766.00</ele>
	<time>2025-08-16T07:49:06.000Z</time>
</trkpt>
<trkpt lat="45.9791090" lon="10.1913490">
	<ele>1766.00</ele>
	<time>2025-08-16T07:49:07.000Z</time>
</trkpt>
<trkpt lat="45.9791020" lon="10.1913470">
	<ele>1766.00</ele>
	<time>2025-08-16T07:49:08.000Z</time>
</trkpt>
<trkpt lat="45.9790990" lon="10.1913510">
	<ele>1765.80</ele>
	<time>2025-08-16T07:49:09.000Z</time>
</trkpt>
<trkpt lat="45.9790860" lon="10.1913420">
	<ele>1765.40</ele>
	<time>2025-08-16T07:49:10.000Z</time>
</trkpt>
<trkpt lat="45.9790810" lon="10.1913340">
	<ele>1765.00</ele>
	<time>2025-08-16T07:49:11.000Z</time>
</trkpt>
<trkpt lat="45.9790730" lon="10.1913300">
	<ele>1764.80</ele>
	<time>2025-08-16T07:49:12.000Z</time>
</trkpt>
<trkpt lat="45.9790670" lon="10.1913320">
	<ele>1764.60</ele>
	<time>2025-08-16T07:49:13.000Z</time>
</trkpt>
<trkpt lat="45.9790580" lon="10.1913390">
	<ele>1764.40</ele>
	<time>2025-08-16T07:49:14.000Z</time>
</trkpt>
<trkpt lat="45.9790530" lon="10.1913330">
	<ele>1764.20</ele>
	<time>2025-08-16T07:49:15.000Z</time>
</trkpt>
<trkpt lat="45.9790450" lon="10.1913210">
	<ele>1764.00</ele>
	<time>2025-08-16T07:49:16.000Z</time>
</trkpt>
<trkpt lat="45.9790380" lon="10.1913090">
	<ele>1763.80</ele>
	<time>2025-08-16T07:49:17.000Z</time>
</trkpt>
<trkpt lat="45.9790270" lon="10.1913010">
	<ele>1763.40</ele>
	<time>2025-08-16T07:49:18.000Z</time>
</trkpt>
<trkpt lat="45.9790160" lon="10.1912970">
	<ele>1763.40</ele>
	<time>2025-08-16T07:49:19.000Z</time>
</trkpt>
<trkpt lat="45.9790050" lon="10.1913000">
	<ele>1763.20</ele>
	<time>2025-08-16T07:49:20.000Z</time>
</trkpt>
<trkpt lat="45.9789980" lon="10.1913080">
	<ele>1763.20</ele>
	<time>2025-08-16T07:49:21.000Z</time>
</trkpt>
<trkpt lat="45.9789900" lon="10.1913200">
	<ele>1763.40</ele>
	<time>2025-08-16T07:49:22.000Z</time>
</trkpt>
<trkpt lat="45.9789800" lon="10.1913340">
	<ele>1763.40</ele>
	<time>2025-08-16T07:49:23.000Z</time>
</trkpt>
<trkpt lat="45.9789710" lon="10.1913470">
	<ele>1763.40</ele>
	<time>2025-08-16T07:49:24.000Z</time>
</trkpt>
<trkpt lat="45.9789600" lon="10.1913610">
	<ele>1763.40</ele>
	<time>2025-08-16T07:49:25.000Z</time>
</trkpt>
<trkpt lat="45.9789510" lon="10.1913740">
	<ele>1763.40</ele>
	<time>2025-08-16T07:49:26.000Z</time>
</trkpt>
<trkpt lat="45.9789440" lon="10.1913800">
	<ele>1763.60</ele>
	<time>2025-08-16T07:49:27.000Z</time>
</trkpt>
<trkpt lat="45.9789360" lon="10.1913870">
	<ele>1763.80</ele>
	<time>2025-08-16T07:49:28.000Z</time>
</trkpt>
<trkpt lat="45.9789310" lon="10.1913940">
	<ele>1764.00</ele>
	<time>2025-08-16T07:49:29.000Z</time>
</trkpt>
<trkpt lat="45.9789240" lon="10.1914010">
	<ele>1764.20</ele>
	<time>2025-08-16T07:49:30.000Z</time>
</trkpt>
<trkpt lat="45.9789150" lon="10.1914020">
	<ele>1764.40</ele>
	<time>2025-08-16T07:49:31.000Z</time>
</trkpt>
<trkpt lat="45.9789050" lon="10.1914040">
	<ele>1764.40</ele>
	<time>2025-08-16T07:49:32.000Z</time>
</trkpt>
<trkpt lat="45.9788940" lon="10.1914110">
	<ele>1764.80</ele>
	<time>2025-08-16T07:49:33.000Z</time>
</trkpt>
<trkpt lat="45.9788850" lon="10.1914190">
	<ele>1765.00</ele>
	<time>2025-08-16T07:49:34.000Z</time>
</trkpt>
<trkpt lat="45.9788750" lon="10.1914230">
	<ele>1765.00</ele>
	<time>2025-08-16T07:49:35.000Z</time>
</trkpt>
<trkpt lat="45.9788650" lon="10.1914280">
	<ele>1765.20</ele>
	<time>2025-08-16T07:49:36.000Z</time>
</trkpt>
<trkpt lat="45.9788550" lon="10.1914360">
	<ele>1765.20</ele>
	<time>2025-08-16T07:49:37.000Z</time>
</trkpt>
<trkpt lat="45.9788460" lon="10.1914430">
	<ele>1765.40</ele>
	<time>2025-08-16T07:49:38.000Z</time>
</trkpt>
<trkpt lat="45.9788370" lon="10.1914460">
	<ele>1765.60</ele>
	<time>2025-08-16T07:49:39.000Z</time>
</trkpt>
<trkpt lat="45.9788290" lon="10.1914480">
	<ele>1765.60</ele>
	<time>2025-08-16T07:49:40.000Z</time>
</trkpt>
<trkpt lat="45.9788180" lon="10.1914480">
	<ele>1765.80</ele>
	<time>2025-08-16T07:49:41.000Z</time>
</trkpt>
<trkpt lat="45.9788050" lon="10.1914480">
	<ele>1765.80</ele>
	<time>2025-08-16T07:49:42.000Z</time>
</trkpt>
<trkpt lat="45.9787930" lon="10.1914490">
	<ele>1765.80</ele>
	<time>2025-08-16T07:49:43.000Z</time>
</trkpt>
<trkpt lat="45.9787850" lon="10.1914490">
	<ele>1766.00</ele>
	<time>2025-08-16T07:49:44.000Z</time>
</trkpt>
<trkpt lat="45.9787800" lon="10.1914500">
	<ele>1766.00</ele>
	<time>2025-08-16T07:49:45.000Z</time>
</trkpt>
<trkpt lat="45.9787740" lon="10.1914470">
	<ele>1766.20</ele>
	<time>2025-08-16T07:49:46.000Z</time>
</trkpt>
<trkpt lat="45.9787640" lon="10.1914400">
	<ele>1766.20</ele>
	<time>2025-08-16T07:49:47.000Z</time>
</trkpt>
<trkpt lat="45.9787570" lon="10.1914270">
	<ele>1766.20</ele>
	<time>2025-08-16T07:49:48.000Z</time>
</trkpt>
<trkpt lat="45.9787520" lon="10.1914190">
	<ele>1766.40</ele>
	<time>2025-08-16T07:49:49.000Z</time>
</trkpt>
<trkpt lat="45.9787470" lon="10.1914090">
	<ele>1766.60</ele>
	<time>2025-08-16T07:49:50.000Z</time>
</trkpt>
<trkpt lat="45.9787400" lon="10.1914000">
	<ele>1766.60</ele>
	<time>2025-08-16T07:49:51.000Z</time>
</trkpt>
<trkpt lat="45.9787340" lon="10.1913960">
	<ele>1766.80</ele>
	<time>2025-08-16T07:49:52.000Z</time>
</trkpt>
<trkpt lat="45.9787280" lon="10.1913880">
	<ele>1767.00</ele>
	<time>2025-08-16T07:49:53.000Z</time>
</trkpt>
<trkpt lat="45.9787190" lon="10.1913810">
	<ele>1767.00</ele>
	<time>2025-08-16T07:49:54.000Z</time>
</trkpt>
<trkpt lat="45.9787160" lon="10.1913780">
	<ele>1767.20</ele>
	<time>2025-08-16T07:49:55.000Z</time>
</trkpt>
<trkpt lat="45.9787110" lon="10.1913770">
	<ele>1767.20</ele>
	<time>2025-08-16T07:49:56.000Z</time>
</trkpt>
<trkpt lat="45.9787040" lon="10.1913760">
	<ele>1767.40</ele>
	<time>2025-08-16T07:49:57.000Z</time>
</trkpt>
<trkpt lat="45.9786980" lon="10.1913750">
	<ele>1767.40</ele>
	<time>2025-08-16T07:49:58.000Z</time>
</trkpt>
<trkpt lat="45.9786970" lon="10.1913740">
	<ele>1767.40</ele>
	<time>2025-08-16T07:49:59.000Z</time>
</trkpt>
<trkpt lat="45.9786950" lon="10.1913760">
	<ele>1767.60</ele>
	<time>2025-08-16T07:50:00.000Z</time>
</trkpt>
<trkpt lat="45.9786950" lon="10.1913770">
	<ele>1767.60</ele>
	<time>2025-08-16T07:50:01.000Z</time>
</trkpt>
<trkpt lat="45.9786940" lon="10.1913750">
	<ele>1767.60</ele>
	<time>2025-08-16T07:50:02.000Z</time>
</trkpt>
<trkpt lat="45.9786950" lon="10.1913720">
	<ele>1767.80</ele>
	<time>2025-08-16T07:50:03.000Z</time>
</trkpt>
<trkpt lat="45.9786930" lon="10.1913730">
	<ele>1767.80</ele>
	<time>2025-08-16T07:50:04.000Z</time>
</trkpt>
<trkpt lat="45.9786890" lon="10.1913690">
	<ele>1767.80</ele>
	<time>2025-08-16T07:50:05.000Z</time>
</trkpt>
<trkpt lat="45.9786860" lon="10.1913650">
	<ele>1767.60</ele>
	<time>2025-08-16T07:50:06.000Z</time>
</trkpt>
<trkpt lat="45.9786790" lon="10.1913620">
	<ele>1767.60</ele>
	<time>2025-08-16T07:50:07.000Z</time>
</trkpt>
<trkpt lat="45.9786710" lon="10.1913590">
	<ele>1767.40</ele>
	<time>2025-08-16T07:50:08.000Z</time>
</trkpt>
<trkpt lat="45.9786620" lon="10.1913620">
	<ele>1767.40</ele>
	<time>2025-08-16T07:50:09.000Z</time>
</trkpt>
<trkpt lat="45.9786530" lon="10.1913640">
	<ele>1767.60</ele>
	<time>2025-08-16T07:50:10.000Z</time>
</trkpt>
<trkpt lat="45.9786450" lon="10.1913670">
	<ele>1767.60</ele>
	<time>2025-08-16T07:50:11.000Z</time>
</trkpt>
<trkpt lat="45.9786350" lon="10.1913710">
	<ele>1767.80</ele>
	<time>2025-08-16T07:50:12.000Z</time>
</trkpt>
<trkpt lat="45.9786220" lon="10.1913690">
	<ele>1767.80</ele>
	<time>2025-08-16T07:50:13.000Z</time>
</trkpt>
<trkpt lat="45.9786130" lon="10.1913640">
	<ele>1767.80</ele>
	<time>2025-08-16T07:50:14.000Z</time>
</trkpt>
<trkpt lat="45.9786010" lon="10.1913670">
	<ele>1768.00</ele>
	<time>2025-08-16T07:50:15.000Z</time>
</trkpt>
<trkpt lat="45.9785920" lon="10.1913620">
	<ele>1768.20</ele>
	<time>2025-08-16T07:50:16.000Z</time>
</trkpt>
<trkpt lat="45.9785830" lon="10.1913590">
	<ele>1768.20</ele>
	<time>2025-08-16T07:50:17.000Z</time>
</trkpt>
<trkpt lat="45.9785740" lon="10.1913580">
	<ele>1768.40</ele>
	<time>2025-08-16T07:50:18.000Z</time>
</trkpt>
<trkpt lat="45.9785660" lon="10.1913570">
	<ele>1768.40</ele>
	<time>2025-08-16T07:50:19.000Z</time>
</trkpt>
<trkpt lat="45.9785580" lon="10.1913560">
	<ele>1768.40</ele>
	<time>2025-08-16T07:50:20.000Z</time>
</trkpt>
<trkpt lat="45.9785470" lon="10.1913570">
	<ele>1768.60</ele>
	<time>2025-08-16T07:50:21.000Z</time>
</trkpt>
<trkpt lat="45.9785370" lon="10.1913560">
	<ele>1768.60</ele>
	<time>2025-08-16T07:50:22.000Z</time>
</trkpt>
<trkpt lat="45.9785170" lon="10.1913500">
	<ele>1768.80</ele>
	<time>2025-08-16T07:50:23.000Z</time>
</trkpt>
<trkpt lat="45.9785090" lon="10.1913440">
	<ele>1768.80</ele>
	<time>2025-08-16T07:50:24.000Z</time>
</trkpt>
<trkpt lat="45.9785000" lon="10.1913420">
	<ele>1769.00</ele>
	<time>2025-08-16T07:50:25.000Z</time>
</trkpt>
<trkpt lat="45.9784910" lon="10.1913440">
	<ele>1769.20</ele>
	<time>2025-08-16T07:50:26.000Z</time>
</trkpt>
<trkpt lat="45.9784760" lon="10.1913580">
	<ele>1769.40</ele>
	<time>2025-08-16T07:50:27.000Z</time>
</trkpt>
<trkpt lat="45.9784620" lon="10.1913730">
	<ele>1769.60</ele>
	<time>2025-08-16T07:50:28.000Z</time>
</trkpt>
<trkpt lat="45.9784530" lon="10.1913770">
	<ele>1769.60</ele>
	<time>2025-08-16T07:50:29.000Z</time>
</trkpt>
<trkpt lat="45.9784420" lon="10.1913860">
	<ele>1769.80</ele>
	<time>2025-08-16T07:50:30.000Z</time>
</trkpt>
<trkpt lat="45.9784300" lon="10.1913940">
	<ele>1769.80</ele>
	<time>2025-08-16T07:50:31.000Z</time>
</trkpt>
<trkpt lat="45.9784190" lon="10.1913970">
	<ele>1770.00</ele>
	<time>2025-08-16T07:50:32.000Z</time>
</trkpt>
<trkpt lat="45.9784100" lon="10.1913990">
	<ele>1770.00</ele>
	<time>2025-08-16T07:50:33.000Z</time>
</trkpt>
<trkpt lat="45.9784030" lon="10.1913950">
	<ele>1770.20</ele>
	<time>2025-08-16T07:50:34.000Z</time>
</trkpt>
<trkpt lat="45.9783980" lon="10.1913870">
	<ele>1770.20</ele>
	<time>2025-08-16T07:50:35.000Z</time>
</trkpt>
<trkpt lat="45.9783930" lon="10.1913780">
	<ele>1770.40</ele>
	<time>2025-08-16T07:50:36.000Z</time>
</trkpt>
<trkpt lat="45.9783850" lon="10.1913740">
	<ele>1770.60</ele>
	<time>2025-08-16T07:50:37.000Z</time>
</trkpt>
<trkpt lat="45.9783780" lon="10.1913710">
	<ele>1770.60</ele>
	<time>2025-08-16T07:50:38.000Z</time>
</trkpt>
<trkpt lat="45.9783710" lon="10.1913700">
	<ele>1770.80</ele>
	<time>2025-08-16T07:50:39.000Z</time>
</trkpt>
<trkpt lat="45.9783600" lon="10.1913710">
	<ele>1771.00</ele>
	<time>2025-08-16T07:50:40.000Z</time>
</trkpt>
<trkpt lat="45.9783520" lon="10.1913730">
	<ele>1771.40</ele>
	<time>2025-08-16T07:50:41.000Z</time>
</trkpt>
<trkpt lat="45.9783460" lon="10.1913760">
	<ele>1771.80</ele>
	<time>2025-08-16T07:50:42.000Z</time>
</trkpt>
<trkpt lat="45.9783460" lon="10.1913650">
	<ele>1772.00</ele>
	<time>2025-08-16T07:50:43.000Z</time>
</trkpt>
<trkpt lat="45.9783420" lon="10.1913590">
	<ele>1772.00</ele>
	<time>2025-08-16T07:50:44.000Z</time>
</trkpt>
<trkpt lat="45.9783400" lon="10.1913510">
	<ele>1772.20</ele>
	<time>2025-08-16T07:50:45.000Z</time>
</trkpt>
<trkpt lat="45.9783280" lon="10.1913470">
	<ele>1772.20</ele>
	<time>2025-08-16T07:50:46.000Z</time>
</trkpt>
<trkpt lat="45.9783200" lon="10.1913440">
	<ele>1772.40</ele>
	<time>2025-08-16T07:50:47.000Z</time>
</trkpt>
<trkpt lat="45.9783140" lon="10.1913400">
	<ele>1772.80</ele>
	<time>2025-08-16T07:50:48.000Z</time>
</trkpt>
<trkpt lat="45.9783070" lon="10.1913320">
	<ele>1773.00</ele>
	<time>2025-08-16T07:50:49.000Z</time>
</trkpt>
<trkpt lat="45.9783030" lon="10.1913210">
	<ele>1773.00</ele>
	<time>2025-08-16T07:50:50.000Z</time>
</trkpt>
<trkpt lat="45.9782970" lon="10.1913120">
	<ele>1773.20</ele>
	<time>2025-08-16T07:50:51.000Z</time>
</trkpt>
<trkpt lat="45.9782890" lon="10.1913040">
	<ele>1773.40</ele>
	<time>2025-08-16T07:50:52.000Z</time>
</trkpt>
<trkpt lat="45.9782850" lon="10.1912950">
	<ele>1773.60</ele>
	<time>2025-08-16T07:50:53.000Z</time>
</trkpt>
<trkpt lat="45.9782800" lon="10.1912890">
	<ele>1773.80</ele>
	<time>2025-08-16T07:50:54.000Z</time>
</trkpt>
<trkpt lat="45.9782800" lon="10.1912730">
	<ele>1774.00</ele>
	<time>2025-08-16T07:50:55.000Z</time>
</trkpt>
<trkpt lat="45.9782760" lon="10.1912570">
	<ele>1774.20</ele>
	<time>2025-08-16T07:50:56.000Z</time>
</trkpt>
<trkpt lat="45.9782740" lon="10.1912470">
	<ele>1774.20</ele>
	<time>2025-08-16T07:50:57.000Z</time>
</trkpt>
<trkpt lat="45.9782710" lon="10.1912410">
	<ele>1774.40</ele>
	<time>2025-08-16T07:50:58.000Z</time>
</trkpt>
<trkpt lat="45.9782700" lon="10.1912380">
	<ele>1774.40</ele>
	<time>2025-08-16T07:50:59.000Z</time>
</trkpt>
<trkpt lat="45.9782700" lon="10.1912380">
	<ele>1774.40</ele>
	<time>2025-08-16T07:51:00.000Z</time>
</trkpt>
<trkpt lat="45.9782870" lon="10.1912130">
	<ele>1774.60</ele>
	<time>2025-08-16T07:51:01.000Z</time>
</trkpt>
<trkpt lat="45.9782900" lon="10.1912090">
	<ele>1774.60</ele>
	<time>2025-08-16T07:51:02.000Z</time>
</trkpt>
<trkpt lat="45.9782930" lon="10.1912070">
	<ele>1774.60</ele>
	<time>2025-08-16T07:51:03.000Z</time>
</trkpt>
<trkpt lat="45.9782940" lon="10.1912040">
	<ele>1774.60</ele>
	<time>2025-08-16T07:51:04.000Z</time>
</trkpt>
<trkpt lat="45.9782910" lon="10.1912100">
	<ele>1774.60</ele>
	<time>2025-08-16T07:51:05.000Z</time>
</trkpt>
<trkpt lat="45.9782890" lon="10.1912060">
	<ele>1774.60</ele>
	<time>2025-08-16T07:51:06.000Z</time>
</trkpt>
<trkpt lat="45.9782830" lon="10.1911980">
	<ele>1774.80</ele>
	<time>2025-08-16T07:51:07.000Z</time>
</trkpt>
<trkpt lat="45.9782790" lon="10.1911800">
	<ele>1774.80</ele>
	<time>2025-08-16T07:51:08.000Z</time>
</trkpt>
<trkpt lat="45.9782710" lon="10.1911650">
	<ele>1774.80</ele>
	<time>2025-08-16T07:51:09.000Z</time>
</trkpt>
<trkpt lat="45.9782650" lon="10.1911490">
	<ele>1774.80</ele>
	<time>2025-08-16T07:51:10.000Z</time>
</trkpt>
<trkpt lat="45.9782620" lon="10.1911370">
	<ele>1774.80</ele>
	<time>2025-08-16T07:51:11.000Z</time>
</trkpt>
<trkpt lat="45.9782550" lon="10.1911280">
	<ele>1774.80</ele>
	<time>2025-08-16T07:51:12.000Z</time>
</trkpt>
<trkpt lat="45.9782550" lon="10.1911110">
	<ele>1774.80</ele>
	<time>2025-08-16T07:51:13.000Z</time>
</trkpt>
<trkpt lat="45.9782550" lon="10.1911000">
	<ele>1774.80</ele>
	<time>2025-08-16T07:51:14.000Z</time>
</trkpt>
<trkpt lat="45.9782520" lon="10.1910910">
	<ele>1774.80</ele>
	<time>2025-08-16T07:51:15.000Z</time>
</trkpt>
<trkpt lat="45.9782470" lon="10.1910810">
	<ele>1775.00</ele>
	<time>2025-08-16T07:51:16.000Z</time>
</trkpt>
<trkpt lat="45.9782470" lon="10.1910740">
	<ele>1775.00</ele>
	<time>2025-08-16T07:51:17.000Z</time>
</trkpt>
<trkpt lat="45.9782480" lon="10.1910640">
	<ele>1775.00</ele>
	<time>2025-08-16T07:51:18.000Z</time>
</trkpt>
<trkpt lat="45.9782490" lon="10.1910540">
	<ele>1775.20</ele>
	<time>2025-08-16T07:51:19.000Z</time>
</trkpt>
<trkpt lat="45.9782500" lon="10.1910390">
	<ele>1775.20</ele>
	<time>2025-08-16T07:51:20.000Z</time>
</trkpt>
<trkpt lat="45.9782440" lon="10.1910290">
	<ele>1775.20</ele>
	<time>2025-08-16T07:51:21.000Z</time>
</trkpt>
<trkpt lat="45.9782410" lon="10.1910230">
	<ele>1775.40</ele>
	<time>2025-08-16T07:51:22.000Z</time>
</trkpt>
<trkpt lat="45.9782360" lon="10.1910160">
	<ele>1775.60</ele>
	<time>2025-08-16T07:51:23.000Z</time>
</trkpt>
<trkpt lat="45.9782340" lon="10.1910080">
	<ele>1775.60</ele>
	<time>2025-08-16T07:51:24.000Z</time>
</trkpt>
<trkpt lat="45.9782300" lon="10.1910010">
	<ele>1775.80</ele>
	<time>2025-08-16T07:51:25.000Z</time>
</trkpt>
<trkpt lat="45.9782260" lon="10.1909950">
	<ele>1776.00</ele>
	<time>2025-08-16T07:51:26.000Z</time>
</trkpt>
<trkpt lat="45.9782190" lon="10.1909920">
	<ele>1776.20</ele>
	<time>2025-08-16T07:51:27.000Z</time>
</trkpt>
<trkpt lat="45.9782160" lon="10.1909890">
	<ele>1776.40</ele>
	<time>2025-08-16T07:51:28.000Z</time>
</trkpt>
<trkpt lat="45.9782150" lon="10.1909820">
	<ele>1776.60</ele>
	<time>2025-08-16T07:51:29.000Z</time>
</trkpt>
<trkpt lat="45.9782110" lon="10.1909770">
	<ele>1776.80</ele>
	<time>2025-08-16T07:51:30.000Z</time>
</trkpt>
<trkpt lat="45.9782080" lon="10.1909730">
	<ele>1776.80</ele>
	<time>2025-08-16T07:51:31.000Z</time>
</trkpt>
<trkpt lat="45.9782060" lon="10.1909680">
	<ele>1777.20</ele>
	<time>2025-08-16T07:51:32.000Z</time>
</trkpt>
<trkpt lat="45.9782040" lon="10.1909630">
	<ele>1777.40</ele>
	<time>2025-08-16T07:51:33.000Z</time>
</trkpt>
<trkpt lat="45.9782030" lon="10.1909560">
	<ele>1777.80</ele>
	<time>2025-08-16T07:51:34.000Z</time>
</trkpt>
<trkpt lat="45.9782010" lon="10.1909480">
	<ele>1778.00</ele>
	<time>2025-08-16T07:51:35.000Z</time>
</trkpt>
<trkpt lat="45.9782010" lon="10.1909380">
	<ele>1778.20</ele>
	<time>2025-08-16T07:51:36.000Z</time>
</trkpt>
<trkpt lat="45.9781980" lon="10.1909320">
	<ele>1778.40</ele>
	<time>2025-08-16T07:51:37.000Z</time>
</trkpt>
<trkpt lat="45.9781910" lon="10.1909250">
	<ele>1778.60</ele>
	<time>2025-08-16T07:51:38.000Z</time>
</trkpt>
<trkpt lat="45.9781870" lon="10.1909210">
	<ele>1778.60</ele>
	<time>2025-08-16T07:51:39.000Z</time>
</trkpt>
<trkpt lat="45.9781860" lon="10.1909180">
	<ele>1778.80</ele>
	<time>2025-08-16T07:51:40.000Z</time>
</trkpt>
<trkpt lat="45.9781850" lon="10.1909100">
	<ele>1779.00</ele>
	<time>2025-08-16T07:51:41.000Z</time>
</trkpt>
<trkpt lat="45.9781840" lon="10.1909020">
	<ele>1779.20</ele>
	<time>2025-08-16T07:51:42.000Z</time>
</trkpt>
<trkpt lat="45.9781800" lon="10.1908950">
	<ele>1779.40</ele>
	<time>2025-08-16T07:51:43.000Z</time>
</trkpt>
<trkpt lat="45.9781780" lon="10.1908890">
	<ele>1779.60</ele>
	<time>2025-08-16T07:51:44.000Z</time>
</trkpt>
<trkpt lat="45.9781730" lon="10.1908820">
	<ele>1779.80</ele>
	<time>2025-08-16T07:51:45.000Z</time>
</trkpt>
<trkpt lat="45.9781690" lon="10.1908750">
	<ele>1780.00</ele>
	<time>2025-08-16T07:51:46.000Z</time>
</trkpt>
<trkpt lat="45.9781650" lon="10.1908680">
	<ele>1780.00</ele>
	<time>2025-08-16T07:51:47.000Z</time>
</trkpt>
<trkpt lat="45.9781600" lon="10.1908600">
	<ele>1780.20</ele>
	<time>2025-08-16T07:51:48.000Z</time>
</trkpt>
<trkpt lat="45.9781560" lon="10.1908550">
	<ele>1780.40</ele>
	<time>2025-08-16T07:51:49.000Z</time>
</trkpt>
<trkpt lat="45.9781530" lon="10.1908500">
	<ele>1780.60</ele>
	<time>2025-08-16T07:51:50.000Z</time>
</trkpt>
<trkpt lat="45.9781490" lon="10.1908460">
	<ele>1781.00</ele>
	<time>2025-08-16T07:51:51.000Z</time>
</trkpt>
<trkpt lat="45.9781430" lon="10.1908440">
	<ele>1781.20</ele>
	<time>2025-08-16T07:51:52.000Z</time>
</trkpt>
<trkpt lat="45.9781370" lon="10.1908370">
	<ele>1781.40</ele>
	<time>2025-08-16T07:51:53.000Z</time>
</trkpt>
<trkpt lat="45.9781320" lon="10.1908300">
	<ele>1781.40</ele>
	<time>2025-08-16T07:51:54.000Z</time>
</trkpt>
<trkpt lat="45.9781280" lon="10.1908210">
	<ele>1781.60</ele>
	<time>2025-08-16T07:51:55.000Z</time>
</trkpt>
<trkpt lat="45.9781270" lon="10.1908080">
	<ele>1781.80</ele>
	<time>2025-08-16T07:51:56.000Z</time>
</trkpt>
<trkpt lat="45.9781240" lon="10.1907990">
	<ele>1782.00</ele>
	<time>2025-08-16T07:51:57.000Z</time>
</trkpt>
<trkpt lat="45.9781160" lon="10.1907890">
	<ele>1782.00</ele>
	<time>2025-08-16T07:51:58.000Z</time>
</trkpt>
<trkpt lat="45.9781100" lon="10.1907820">
	<ele>1782.20</ele>
	<time>2025-08-16T07:51:59.000Z</time>
</trkpt>
<trkpt lat="45.9781050" lon="10.1907740">
	<ele>1782.20</ele>
	<time>2025-08-16T07:52:00.000Z</time>
</trkpt>
<trkpt lat="45.9781020" lon="10.1907660">
	<ele>1782.40</ele>
	<time>2025-08-16T07:52:01.000Z</time>
</trkpt>
<trkpt lat="45.9781010" lon="10.1907600">
	<ele>1782.60</ele>
	<time>2025-08-16T07:52:02.000Z</time>
</trkpt>
<trkpt lat="45.9780980" lon="10.1907510">
	<ele>1782.80</ele>
	<time>2025-08-16T07:52:03.000Z</time>
</trkpt>
<trkpt lat="45.9780960" lon="10.1907460">
	<ele>1782.80</ele>
	<time>2025-08-16T07:52:04.000Z</time>
</trkpt>
<trkpt lat="45.9780940" lon="10.1907420">
	<ele>1783.20</ele>
	<time>2025-08-16T07:52:05.000Z</time>
</trkpt>
<trkpt lat="45.9780920" lon="10.1907340">
	<ele>1783.40</ele>
	<time>2025-08-16T07:52:06.000Z</time>
</trkpt>
<trkpt lat="45.9780920" lon="10.1907290">
	<ele>1783.60</ele>
	<time>2025-08-16T07:52:07.000Z</time>
</trkpt>
<trkpt lat="45.9780930" lon="10.1907190">
	<ele>1783.80</ele>
	<time>2025-08-16T07:52:08.000Z</time>
</trkpt>
<trkpt lat="45.9780940" lon="10.1907110">
	<ele>1784.00</ele>
	<time>2025-08-16T07:52:09.000Z</time>
</trkpt>
<trkpt lat="45.9780960" lon="10.1907020">
	<ele>1784.00</ele>
	<time>2025-08-16T07:52:10.000Z</time>
</trkpt>
<trkpt lat="45.9780920" lon="10.1906950">
	<ele>1784.20</ele>
	<time>2025-08-16T07:52:11.000Z</time>
</trkpt>
<trkpt lat="45.9780870" lon="10.1906870">
	<ele>1784.20</ele>
	<time>2025-08-16T07:52:12.000Z</time>
</trkpt>
<trkpt lat="45.9780820" lon="10.1906830">
	<ele>1784.60</ele>
	<time>2025-08-16T07:52:13.000Z</time>
</trkpt>
<trkpt lat="45.9780770" lon="10.1906820">
	<ele>1784.80</ele>
	<time>2025-08-16T07:52:14.000Z</time>
</trkpt>
<trkpt lat="45.9780710" lon="10.1906780">
	<ele>1785.00</ele>
	<time>2025-08-16T07:52:15.000Z</time>
</trkpt>
<trkpt lat="45.9780650" lon="10.1906740">
	<ele>1785.20</ele>
	<time>2025-08-16T07:52:16.000Z</time>
</trkpt>
<trkpt lat="45.9780580" lon="10.1906710">
	<ele>1785.20</ele>
	<time>2025-08-16T07:52:17.000Z</time>
</trkpt>
<trkpt lat="45.9780520" lon="10.1906650">
	<ele>1785.40</ele>
	<time>2025-08-16T07:52:18.000Z</time>
</trkpt>
<trkpt lat="45.9780470" lon="10.1906610">
	<ele>1785.40</ele>
	<time>2025-08-16T07:52:19.000Z</time>
</trkpt>
<trkpt lat="45.9780430" lon="10.1906560">
	<ele>1785.60</ele>
	<time>2025-08-16T07:52:20.000Z</time>
</trkpt>
<trkpt lat="45.9780390" lon="10.1906510">
	<ele>1785.60</ele>
	<time>2025-08-16T07:52:21.000Z</time>
</trkpt>
<trkpt lat="45.9780340" lon="10.1906400">
	<ele>1785.80</ele>
	<time>2025-08-16T07:52:22.000Z</time>
</trkpt>
<trkpt lat="45.9780290" lon="10.1906300">
	<ele>1786.00</ele>
	<time>2025-08-16T07:52:23.000Z</time>
</trkpt>
<trkpt lat="45.9780240" lon="10.1906210">
	<ele>1786.00</ele>
	<time>2025-08-16T07:52:24.000Z</time>
</trkpt>
<trkpt lat="45.9780170" lon="10.1906090">
	<ele>1786.20</ele>
	<time>2025-08-16T07:52:25.000Z</time>
</trkpt>
<trkpt lat="45.9780100" lon="10.1906020">
	<ele>1786.20</ele>
	<time>2025-08-16T07:52:26.000Z</time>
</trkpt>
<trkpt lat="45.9780070" lon="10.1905940">
	<ele>1786.60</ele>
	<time>2025-08-16T07:52:27.000Z</time>
</trkpt>
<trkpt lat="45.9780020" lon="10.1905890">
	<ele>1786.80</ele>
	<time>2025-08-16T07:52:28.000Z</time>
</trkpt>
<trkpt lat="45.9779990" lon="10.1905810">
	<ele>1787.00</ele>
	<time>2025-08-16T07:52:29.000Z</time>
</trkpt>
<trkpt lat="45.9779980" lon="10.1905740">
	<ele>1787.20</ele>
	<time>2025-08-16T07:52:30.000Z</time>
</trkpt>
<trkpt lat="45.9779940" lon="10.1905710">
	<ele>1787.60</ele>
	<time>2025-08-16T07:52:31.000Z</time>
</trkpt>
<trkpt lat="45.9779880" lon="10.1905650">
	<ele>1787.80</ele>
	<time>2025-08-16T07:52:32.000Z</time>
</trkpt>
<trkpt lat="45.9779830" lon="10.1905590">
	<ele>1788.00</ele>
	<time>2025-08-16T07:52:33.000Z</time>
</trkpt>
<trkpt lat="45.9779750" lon="10.1905560">
	<ele>1788.00</ele>
	<time>2025-08-16T07:52:34.000Z</time>
</trkpt>
<trkpt lat="45.9779670" lon="10.1905540">
	<ele>1788.20</ele>
	<time>2025-08-16T07:52:35.000Z</time>
</trkpt>
<trkpt lat="45.9779610" lon="10.1905520">
	<ele>1788.20</ele>
	<time>2025-08-16T07:52:36.000Z</time>
</trkpt>
<trkpt lat="45.9779560" lon="10.1905480">
	<ele>1788.40</ele>
	<time>2025-08-16T07:52:37.000Z</time>
</trkpt>
<trkpt lat="45.9779500" lon="10.1905440">
	<ele>1788.60</ele>
	<time>2025-08-16T07:52:38.000Z</time>
</trkpt>
<trkpt lat="45.9779450" lon="10.1905390">
	<ele>1788.80</ele>
	<time>2025-08-16T07:52:39.000Z</time>
</trkpt>
<trkpt lat="45.9779380" lon="10.1905340">
	<ele>1788.80</ele>
	<time>2025-08-16T07:52:40.000Z</time>
</trkpt>
<trkpt lat="45.9779340" lon="10.1905230">
	<ele>1789.00</ele>
	<time>2025-08-16T07:52:41.000Z</time>
</trkpt>
<trkpt lat="45.9779300" lon="10.1905160">
	<ele>1789.20</ele>
	<time>2025-08-16T07:52:42.000Z</time>
</trkpt>
<trkpt lat="45.9779270" lon="10.1905080">
	<ele>1789.40</ele>
	<time>2025-08-16T07:52:43.000Z</time>
</trkpt>
<trkpt lat="45.9779250" lon="10.1905000">
	<ele>1789.60</ele>
	<time>2025-08-16T07:52:44.000Z</time>
</trkpt>
<trkpt lat="45.9779210" lon="10.1904950">
	<ele>1789.80</ele>
	<time>2025-08-16T07:52:45.000Z</time>
</trkpt>
<trkpt lat="45.9779170" lon="10.1904890">
	<ele>1789.80</ele>
	<time>2025-08-16T07:52:46.000Z</time>
</trkpt>
<trkpt lat="45.9779120" lon="10.1904830">
	<ele>1790.00</ele>
	<time>2025-08-16T07:52:47.000Z</time>
</trkpt>
<trkpt lat="45.9779060" lon="10.1904770">
	<ele>1790.00</ele>
	<time>2025-08-16T07:52:48.000Z</time>
</trkpt>
<trkpt lat="45.9779020" lon="10.1904700">
	<ele>1790.20</ele>
	<time>2025-08-16T07:52:49.000Z</time>
</trkpt>
<trkpt lat="45.9778970" lon="10.1904610">
	<ele>1790.40</ele>
	<time>2025-08-16T07:52:50.000Z</time>
</trkpt>
<trkpt lat="45.9778930" lon="10.1904530">
	<ele>1790.60</ele>
	<time>2025-08-16T07:52:51.000Z</time>
</trkpt>
<trkpt lat="45.9778880" lon="10.1904440">
	<ele>1790.60</ele>
	<time>2025-08-16T07:52:52.000Z</time>
</trkpt>
<trkpt lat="45.9778860" lon="10.1904350">
	<ele>1790.80</ele>
	<time>2025-08-16T07:52:53.000Z</time>
</trkpt>
<trkpt lat="45.9778820" lon="10.1904260">
	<ele>1791.00</ele>
	<time>2025-08-16T07:52:54.000Z</time>
</trkpt>
<trkpt lat="45.9778770" lon="10.1904180">
	<ele>1791.00</ele>
	<time>2025-08-16T07:52:55.000Z</time>
</trkpt>
<trkpt lat="45.9778730" lon="10.1904100">
	<ele>1791.20</ele>
	<time>2025-08-16T07:52:56.000Z</time>
</trkpt>
<trkpt lat="45.9778700" lon="10.1904030">
	<ele>1791.60</ele>
	<time>2025-08-16T07:52:57.000Z</time>
</trkpt>
<trkpt lat="45.9778660" lon="10.1903940">
	<ele>1791.60</ele>
	<time>2025-08-16T07:52:58.000Z</time>
</trkpt>
<trkpt lat="45.9778590" lon="10.1903870">
	<ele>1791.80</ele>
	<time>2025-08-16T07:52:59.000Z</time>
</trkpt>
<trkpt lat="45.9778520" lon="10.1903810">
	<ele>1791.80</ele>
	<time>2025-08-16T07:53:00.000Z</time>
</trkpt>
<trkpt lat="45.9778460" lon="10.1903760">
	<ele>1791.80</ele>
	<time>2025-08-16T07:53:01.000Z</time>
</trkpt>
<trkpt lat="45.9778380" lon="10.1903720">
	<ele>1792.00</ele>
	<time>2025-08-16T07:53:02.000Z</time>
</trkpt>
<trkpt lat="45.9778320" lon="10.1903670">
	<ele>1792.20</ele>
	<time>2025-08-16T07:53:03.000Z</time>
</trkpt>
<trkpt lat="45.9778270" lon="10.1903620">
	<ele>1792.40</ele>
	<time>2025-08-16T07:53:04.000Z</time>
</trkpt>
<trkpt lat="45.9778210" lon="10.1903570">
	<ele>1792.60</ele>
	<time>2025-08-16T07:53:05.000Z</time>
</trkpt>
<trkpt lat="45.9778130" lon="10.1903530">
	<ele>1792.80</ele>
	<time>2025-08-16T07:53:06.000Z</time>
</trkpt>
<trkpt lat="45.9778070" lon="10.1903440">
	<ele>1793.00</ele>
	<time>2025-08-16T07:53:07.000Z</time>
</trkpt>
<trkpt lat="45.9778000" lon="10.1903360">
	<ele>1793.00</ele>
	<time>2025-08-16T07:53:08.000Z</time>
</trkpt>
<trkpt lat="45.9777940" lon="10.1903280">
	<ele>1793.20</ele>
	<time>2025-08-16T07:53:09.000Z</time>
</trkpt>
<trkpt lat="45.9777880" lon="10.1903190">
	<ele>1793.40</ele>
	<time>2025-08-16T07:53:10.000Z</time>
</trkpt>
<trkpt lat="45.9777820" lon="10.1903100">
	<ele>1793.60</ele>
	<time>2025-08-16T07:53:11.000Z</time>
</trkpt>
<trkpt lat="45.9777790" lon="10.1902990">
	<ele>1793.60</ele>
	<time>2025-08-16T07:53:12.000Z</time>
</trkpt>
<trkpt lat="45.9777750" lon="10.1902940">
	<ele>1793.80</ele>
	<time>2025-08-16T07:53:13.000Z</time>
</trkpt>
<trkpt lat="45.9777730" lon="10.1902850">
	<ele>1793.80</ele>
	<time>2025-08-16T07:53:14.000Z</time>
</trkpt>
<trkpt lat="45.9777670" lon="10.1902770">
	<ele>1794.00</ele>
	<time>2025-08-16T07:53:15.000Z</time>
</trkpt>
<trkpt lat="45.9777650" lon="10.1902650">
	<ele>1794.20</ele>
	<time>2025-08-16T07:53:16.000Z</time>
</trkpt>
<trkpt lat="45.9777600" lon="10.1902560">
	<ele>1794.40</ele>
	<time>2025-08-16T07:53:17.000Z</time>
</trkpt>
<trkpt lat="45.9777540" lon="10.1902530">
	<ele>1794.60</ele>
	<time>2025-08-16T07:53:18.000Z</time>
</trkpt>
<trkpt lat="45.9777450" lon="10.1902490">
	<ele>1794.80</ele>
	<time>2025-08-16T07:53:19.000Z</time>
</trkpt>
<trkpt lat="45.9777360" lon="10.1902420">
	<ele>1794.80</ele>
	<time>2025-08-16T07:53:20.000Z</time>
</trkpt>
<trkpt lat="45.9777310" lon="10.1902300">
	<ele>1795.00</ele>
	<time>2025-08-16T07:53:21.000Z</time>
</trkpt>
<trkpt lat="45.9777240" lon="10.1902180">
	<ele>1795.20</ele>
	<time>2025-08-16T07:53:22.000Z</time>
</trkpt>
<trkpt lat="45.9777200" lon="10.1902020">
	<ele>1795.20</ele>
	<time>2025-08-16T07:53:23.000Z</time>
</trkpt>
<trkpt lat="45.9777140" lon="10.1901900">
	<ele>1795.20</ele>
	<time>2025-08-16T07:53:24.000Z</time>
</trkpt>
<trkpt lat="45.9777090" lon="10.1901810">
	<ele>1795.40</ele>
	<time>2025-08-16T07:53:25.000Z</time>
</trkpt>
<trkpt lat="45.9777050" lon="10.1901760">
	<ele>1795.60</ele>
	<time>2025-08-16T07:53:26.000Z</time>
</trkpt>
<trkpt lat="45.9776920" lon="10.1901700">
	<ele>1795.60</ele>
	<time>2025-08-16T07:53:27.000Z</time>
</trkpt>
<trkpt lat="45.9776790" lon="10.1901730">
	<ele>1795.80</ele>
	<time>2025-08-16T07:53:28.000Z</time>
</trkpt>
<trkpt lat="45.9776730" lon="10.1901720">
	<ele>1796.00</ele>
	<time>2025-08-16T07:53:29.000Z</time>
</trkpt>
<trkpt lat="45.9776690" lon="10.1901730">
	<ele>1796.00</ele>
	<time>2025-08-16T07:53:30.000Z</time>
</trkpt>
<trkpt lat="45.9776680" lon="10.1901740">
	<ele>1796.20</ele>
	<time>2025-08-16T07:53:31.000Z</time>
</trkpt>
<trkpt lat="45.9776620" lon="10.1901740">
	<ele>1796.20</ele>
	<time>2025-08-16T07:53:32.000Z</time>
</trkpt>
<trkpt lat="45.9776580" lon="10.1901620">
	<ele>1796.20</ele>
	<time>2025-08-16T07:53:33.000Z</time>
</trkpt>
<trkpt lat="45.9776560" lon="10.1901590">
	<ele>1796.20</ele>
	<time>2025-08-16T07:53:34.000Z</time>
</trkpt>
<trkpt lat="45.9776550" lon="10.1901560">
	<ele>1796.20</ele>
	<time>2025-08-16T07:53:35.000Z</time>
</trkpt>
<trkpt lat="45.9776540" lon="10.1901550">
	<ele>1796.20</ele>
	<time>2025-08-16T07:53:36.000Z</time>
</trkpt>
<trkpt lat="45.9776530" lon="10.1901540">
	<ele>1796.20</ele>
	<time>2025-08-16T07:53:37.000Z</time>
</trkpt>
<trkpt lat="45.9776540" lon="10.1901540">
	<ele>1796.60</ele>
	<time>2025-08-16T07:53:38.000Z</time>
</trkpt>
<trkpt lat="45.9776550" lon="10.1901540">
	<ele>1797.00</ele>
	<time>2025-08-16T07:53:39.000Z</time>
</trkpt>
<trkpt lat="45.9776550" lon="10.1901550">
	<ele>1797.00</ele>
	<time>2025-08-16T07:53:40.000Z</time>
</trkpt>
<trkpt lat="45.9776520" lon="10.1901550">
	<ele>1797.20</ele>
	<time>2025-08-16T07:53:41.000Z</time>
</trkpt>
<trkpt lat="45.9776480" lon="10.1901540">
	<ele>1797.00</ele>
	<time>2025-08-16T07:53:42.000Z</time>
</trkpt>
<trkpt lat="45.9776420" lon="10.1901500">
	<ele>1797.00</ele>
	<time>2025-08-16T07:53:43.000Z</time>
</trkpt>
<trkpt lat="45.9776350" lon="10.1901410">
	<ele>1796.80</ele>
	<time>2025-08-16T07:53:44.000Z</time>
</trkpt>
<trkpt lat="45.9776300" lon="10.1901330">
	<ele>1796.80</ele>
	<time>2025-08-16T07:53:45.000Z</time>
</trkpt>
<trkpt lat="45.9776240" lon="10.1901260">
	<ele>1796.60</ele>
	<time>2025-08-16T07:53:46.000Z</time>
</trkpt>
<trkpt lat="45.9776180" lon="10.1901210">
	<ele>1796.60</ele>
	<time>2025-08-16T07:53:47.000Z</time>
</trkpt>
<trkpt lat="45.9776120" lon="10.1901140">
	<ele>1796.80</ele>
	<time>2025-08-16T07:53:48.000Z</time>
</trkpt>
<trkpt lat="45.9776050" lon="10.1901090">
	<ele>1797.00</ele>
	<time>2025-08-16T07:53:49.000Z</time>
</trkpt>
<trkpt lat="45.9775980" lon="10.1901030">
	<ele>1797.40</ele>
	<time>2025-08-16T07:53:50.000Z</time>
</trkpt>
<trkpt lat="45.9775930" lon="10.1900980">
	<ele>1797.40</ele>
	<time>2025-08-16T07:53:51.000Z</time>
</trkpt>
<trkpt lat="45.9775890" lon="10.1900890">
	<ele>1797.60</ele>
	<time>2025-08-16T07:53:52.000Z</time>
</trkpt>
<trkpt lat="45.9775880" lon="10.1900700">
	<ele>1797.60</ele>
	<time>2025-08-16T07:53:53.000Z</time>
</trkpt>
<trkpt lat="45.9775830" lon="10.1900570">
	<ele>1797.60</ele>
	<time>2025-08-16T07:53:54.000Z</time>
</trkpt>
<trkpt lat="45.9775770" lon="10.1900480">
	<ele>1797.60</ele>
	<time>2025-08-16T07:53:55.000Z</time>
</trkpt>
<trkpt lat="45.9775730" lon="10.1900370">
	<ele>1797.80</ele>
	<time>2025-08-16T07:53:56.000Z</time>
</trkpt>
<trkpt lat="45.9775670" lon="10.1900280">
	<ele>1798.00</ele>
	<time>2025-08-16T07:53:57.000Z</time>
</trkpt>
<trkpt lat="45.9775610" lon="10.1900120">
	<ele>1798.00</ele>
	<time>2025-08-16T07:53:58.000Z</time>
</trkpt>
<trkpt lat="45.9775600" lon="10.1899950">
	<ele>1798.20</ele>
	<time>2025-08-16T07:53:59.000Z</time>
</trkpt>
<trkpt lat="45.9775540" lon="10.1899800">
	<ele>1798.20</ele>
	<time>2025-08-16T07:54:00.000Z</time>
</trkpt>
<trkpt lat="45.9775440" lon="10.1899710">
	<ele>1798.40</ele>
	<time>2025-08-16T07:54:01.000Z</time>
</trkpt>
<trkpt lat="45.9775370" lon="10.1899600">
	<ele>1798.40</ele>
	<time>2025-08-16T07:54:02.000Z</time>
</trkpt>
<trkpt lat="45.9775290" lon="10.1899520">
	<ele>1798.60</ele>
	<time>2025-08-16T07:54:03.000Z</time>
</trkpt>
<trkpt lat="45.9775220" lon="10.1899430">
	<ele>1798.60</ele>
	<time>2025-08-16T07:54:04.000Z</time>
</trkpt>
<trkpt lat="45.9775130" lon="10.1899340">
	<ele>1798.80</ele>
	<time>2025-08-16T07:54:05.000Z</time>
</trkpt>
<trkpt lat="45.9775080" lon="10.1899290">
	<ele>1798.80</ele>
	<time>2025-08-16T07:54:06.000Z</time>
</trkpt>
<trkpt lat="45.9775000" lon="10.1899300">
	<ele>1799.00</ele>
	<time>2025-08-16T07:54:07.000Z</time>
</trkpt>
<trkpt lat="45.9774960" lon="10.1899270">
	<ele>1799.20</ele>
	<time>2025-08-16T07:54:08.000Z</time>
</trkpt>
<trkpt lat="45.9774920" lon="10.1899220">
	<ele>1799.40</ele>
	<time>2025-08-16T07:54:09.000Z</time>
</trkpt>
<trkpt lat="45.9774860" lon="10.1899160">
	<ele>1799.60</ele>
	<time>2025-08-16T07:54:10.000Z</time>
</trkpt>
<trkpt lat="45.9774830" lon="10.1899080">
	<ele>1799.80</ele>
	<time>2025-08-16T07:54:11.000Z</time>
</trkpt>
<trkpt lat="45.9774770" lon="10.1899020">
	<ele>1799.80</ele>
	<time>2025-08-16T07:54:12.000Z</time>
</trkpt>
<trkpt lat="45.9774690" lon="10.1898970">
	<ele>1799.80</ele>
	<time>2025-08-16T07:54:13.000Z</time>
</trkpt>
<trkpt lat="45.9774640" lon="10.1898950">
	<ele>1799.80</ele>
	<time>2025-08-16T07:54:14.000Z</time>
</trkpt>
<trkpt lat="45.9774560" lon="10.1898920">
	<ele>1800.00</ele>
	<time>2025-08-16T07:54:15.000Z</time>
</trkpt>
<trkpt lat="45.9774470" lon="10.1898890">
	<ele>1800.20</ele>
	<time>2025-08-16T07:54:16.000Z</time>
</trkpt>
<trkpt lat="45.9774380" lon="10.1898850">
	<ele>1800.40</ele>
	<time>2025-08-16T07:54:17.000Z</time>
</trkpt>
<trkpt lat="45.9774320" lon="10.1898830">
	<ele>1800.60</ele>
	<time>2025-08-16T07:54:18.000Z</time>
</trkpt>
<trkpt lat="45.9774280" lon="10.1898740">
	<ele>1800.60</ele>
	<time>2025-08-16T07:54:19.000Z</time>
</trkpt>
<trkpt lat="45.9774260" lon="10.1898660">
	<ele>1800.80</ele>
	<time>2025-08-16T07:54:20.000Z</time>
</trkpt>
<trkpt lat="45.9774220" lon="10.1898570">
	<ele>1801.00</ele>
	<time>2025-08-16T07:54:21.000Z</time>
</trkpt>
<trkpt lat="45.9774160" lon="10.1898500">
	<ele>1801.20</ele>
	<time>2025-08-16T07:54:22.000Z</time>
</trkpt>
<trkpt lat="45.9774110" lon="10.1898420">
	<ele>1801.40</ele>
	<time>2025-08-16T07:54:23.000Z</time>
</trkpt>
<trkpt lat="45.9774070" lon="10.1898340">
	<ele>1801.60</ele>
	<time>2025-08-16T07:54:24.000Z</time>
</trkpt>
<trkpt lat="45.9774010" lon="10.1898260">
	<ele>1801.60</ele>
	<time>2025-08-16T07:54:25.000Z</time>
</trkpt>
<trkpt lat="45.9773940" lon="10.1898180">
	<ele>1801.80</ele>
	<time>2025-08-16T07:54:26.000Z</time>
</trkpt>
<trkpt lat="45.9773900" lon="10.1898110">
	<ele>1802.00</ele>
	<time>2025-08-16T07:54:27.000Z</time>
</trkpt>
<trkpt lat="45.9773850" lon="10.1898060">
	<ele>1802.20</ele>
	<time>2025-08-16T07:54:28.000Z</time>
</trkpt>
<trkpt lat="45.9773830" lon="10.1897970">
	<ele>1802.20</ele>
	<time>2025-08-16T07:54:29.000Z</time>
</trkpt>
<trkpt lat="45.9773770" lon="10.1897890">
	<ele>1802.20</ele>
	<time>2025-08-16T07:54:30.000Z</time>
</trkpt>
<trkpt lat="45.9773650" lon="10.1897860">
	<ele>1802.40</ele>
	<time>2025-08-16T07:54:31.000Z</time>
</trkpt>
<trkpt lat="45.9773570" lon="10.1897820">
	<ele>1802.60</ele>
	<time>2025-08-16T07:54:32.000Z</time>
</trkpt>
<trkpt lat="45.9773490" lon="10.1897780">
	<ele>1802.60</ele>
	<time>2025-08-16T07:54:33.000Z</time>
</trkpt>
<trkpt lat="45.9773430" lon="10.1897760">
	<ele>1803.00</ele>
	<time>2025-08-16T07:54:34.000Z</time>
</trkpt>
<trkpt lat="45.9773390" lon="10.1897710">
	<ele>1803.20</ele>
	<time>2025-08-16T07:54:35.000Z</time>
</trkpt>
<trkpt lat="45.9773350" lon="10.1897650">
	<ele>1803.40</ele>
	<time>2025-08-16T07:54:36.000Z</time>
</trkpt>
<trkpt lat="45.9773300" lon="10.1897600">
	<ele>1803.60</ele>
	<time>2025-08-16T07:54:37.000Z</time>
</trkpt>
<trkpt lat="45.9773240" lon="10.1897570">
	<ele>1803.60</ele>
	<time>2025-08-16T07:54:38.000Z</time>
</trkpt>
<trkpt lat="45.9773190" lon="10.1897560">
	<ele>1803.80</ele>
	<time>2025-08-16T07:54:39.000Z</time>
</trkpt>
<trkpt lat="45.9773120" lon="10.1897560">
	<ele>1803.80</ele>
	<time>2025-08-16T07:54:40.000Z</time>
</trkpt>
<trkpt lat="45.9773080" lon="10.1897550">
	<ele>1804.20</ele>
	<time>2025-08-16T07:54:41.000Z</time>
</trkpt>
<trkpt lat="45.9773050" lon="10.1897540">
	<ele>1804.40</ele>
	<time>2025-08-16T07:54:42.000Z</time>
</trkpt>
<trkpt lat="45.9772990" lon="10.1897550">
	<ele>1804.40</ele>
	<time>2025-08-16T07:54:43.000Z</time>
</trkpt>
<trkpt lat="45.9772940" lon="10.1897570">
	<ele>1804.60</ele>
	<time>2025-08-16T07:54:44.000Z</time>
</trkpt>
<trkpt lat="45.9772910" lon="10.1897590">
	<ele>1804.80</ele>
	<time>2025-08-16T07:54:45.000Z</time>
</trkpt>
<trkpt lat="45.9772880" lon="10.1897560">
	<ele>1805.00</ele>
	<time>2025-08-16T07:54:46.000Z</time>
</trkpt>
<trkpt lat="45.9772800" lon="10.1897530">
	<ele>1805.00</ele>
	<time>2025-08-16T07:54:47.000Z</time>
</trkpt>
<trkpt lat="45.9772750" lon="10.1897550">
	<ele>1805.00</ele>
	<time>2025-08-16T07:54:48.000Z</time>
</trkpt>
<trkpt lat="45.9772700" lon="10.1897570">
	<ele>1805.40</ele>
	<time>2025-08-16T07:54:49.000Z</time>
</trkpt>
<trkpt lat="45.9772690" lon="10.1897590">
	<ele>1805.60</ele>
	<time>2025-08-16T07:54:50.000Z</time>
</trkpt>
<trkpt lat="45.9772650" lon="10.1897650">
	<ele>1806.00</ele>
	<time>2025-08-16T07:54:51.000Z</time>
</trkpt>
<trkpt lat="45.9772590" lon="10.1897710">
	<ele>1806.00</ele>
	<time>2025-08-16T07:54:52.000Z</time>
</trkpt>
<trkpt lat="45.9772550" lon="10.1897790">
	<ele>1806.20</ele>
	<time>2025-08-16T07:54:53.000Z</time>
</trkpt>
<trkpt lat="45.9772500" lon="10.1897890">
	<ele>1806.40</ele>
	<time>2025-08-16T07:54:54.000Z</time>
</trkpt>
<trkpt lat="45.9772450" lon="10.1897940">
	<ele>1806.60</ele>
	<time>2025-08-16T07:54:55.000Z</time>
</trkpt>
<trkpt lat="45.9772420" lon="10.1897950">
	<ele>1806.80</ele>
	<time>2025-08-16T07:54:56.000Z</time>
</trkpt>
<trkpt lat="45.9772410" lon="10.1898010">
	<ele>1807.00</ele>
	<time>2025-08-16T07:54:57.000Z</time>
</trkpt>
<trkpt lat="45.9772380" lon="10.1898080">
	<ele>1807.20</ele>
	<time>2025-08-16T07:54:58.000Z</time>
</trkpt>
<trkpt lat="45.9772330" lon="10.1898150">
	<ele>1807.20</ele>
	<time>2025-08-16T07:54:59.000Z</time>
</trkpt>
<trkpt lat="45.9772310" lon="10.1898210">
	<ele>1807.60</ele>
	<time>2025-08-16T07:55:00.000Z</time>
</trkpt>
<trkpt lat="45.9772270" lon="10.1898270">
	<ele>1807.80</ele>
	<time>2025-08-16T07:55:01.000Z</time>
</trkpt>
<trkpt lat="45.9772230" lon="10.1898340">
	<ele>1808.00</ele>
	<time>2025-08-16T07:55:02.000Z</time>
</trkpt>
<trkpt lat="45.9772190" lon="10.1898440">
	<ele>1808.00</ele>
	<time>2025-08-16T07:55:03.000Z</time>
</trkpt>
<trkpt lat="45.9772130" lon="10.1898540">
	<ele>1808.20</ele>
	<time>2025-08-16T07:55:04.000Z</time>
</trkpt>
<trkpt lat="45.9772100" lon="10.1898640">
	<ele>1808.20</ele>
	<time>2025-08-16T07:55:05.000Z</time>
</trkpt>
<trkpt lat="45.9772080" lon="10.1898740">
	<ele>1808.40</ele>
	<time>2025-08-16T07:55:06.000Z</time>
</trkpt>
<trkpt lat="45.9772050" lon="10.1898810">
	<ele>1808.40</ele>
	<time>2025-08-16T07:55:07.000Z</time>
</trkpt>
<trkpt lat="45.9772010" lon="10.1898880">
	<ele>1808.60</ele>
	<time>2025-08-16T07:55:08.000Z</time>
</trkpt>
<trkpt lat="45.9771970" lon="10.1898960">
	<ele>1808.80</ele>
	<time>2025-08-16T07:55:09.000Z</time>
</trkpt>
<trkpt lat="45.9771940" lon="10.1899040">
	<ele>1809.00</ele>
	<time>2025-08-16T07:55:10.000Z</time>
</trkpt>
<trkpt lat="45.9771890" lon="10.1899120">
	<ele>1809.00</ele>
	<time>2025-08-16T07:55:11.000Z</time>
</trkpt>
<trkpt lat="45.9771850" lon="10.1899180">
	<ele>1809.20</ele>
	<time>2025-08-16T07:55:12.000Z</time>
</trkpt>
<trkpt lat="45.9771830" lon="10.1899230">
	<ele>1809.40</ele>
	<time>2025-08-16T07:55:13.000Z</time>
</trkpt>
<trkpt lat="45.9771810" lon="10.1899280">
	<ele>1809.60</ele>
	<time>2025-08-16T07:55:14.000Z</time>
</trkpt>
<trkpt lat="45.9771770" lon="10.1899390">
	<ele>1809.80</ele>
	<time>2025-08-16T07:55:15.000Z</time>
</trkpt>
<trkpt lat="45.9771730" lon="10.1899500">
	<ele>1810.00</ele>
	<time>2025-08-16T07:55:16.000Z</time>
</trkpt>
<trkpt lat="45.9771710" lon="10.1899570">
	<ele>1810.00</ele>
	<time>2025-08-16T07:55:17.000Z</time>
</trkpt>
<trkpt lat="45.9771680" lon="10.1899620">
	<ele>1810.40</ele>
	<time>2025-08-16T07:55:18.000Z</time>
</trkpt>
<trkpt lat="45.9771630" lon="10.1899620">
	<ele>1810.60</ele>
	<time>2025-08-16T07:55:19.000Z</time>
</trkpt>
<trkpt lat="45.9771560" lon="10.1899640">
	<ele>1810.80</ele>
	<time>2025-08-16T07:55:20.000Z</time>
</trkpt>
<trkpt lat="45.9771550" lon="10.1899650">
	<ele>1811.00</ele>
	<time>2025-08-16T07:55:21.000Z</time>
</trkpt>
<trkpt lat="45.9771510" lon="10.1899660">
	<ele>1811.20</ele>
	<time>2025-08-16T07:55:22.000Z</time>
</trkpt>
<trkpt lat="45.9771450" lon="10.1899700">
	<ele>1811.20</ele>
	<time>2025-08-16T07:55:23.000Z</time>
</trkpt>
<trkpt lat="45.9771420" lon="10.1899740">
	<ele>1811.60</ele>
	<time>2025-08-16T07:55:24.000Z</time>
</trkpt>
<trkpt lat="45.9771370" lon="10.1899830">
	<ele>1811.60</ele>
	<time>2025-08-16T07:55:25.000Z</time>
</trkpt>
<trkpt lat="45.9771370" lon="10.1899870">
	<ele>1811.80</ele>
	<time>2025-08-16T07:55:26.000Z</time>
</trkpt>
<trkpt lat="45.9771370" lon="10.1899910">
	<ele>1812.00</ele>
	<time>2025-08-16T07:55:27.000Z</time>
</trkpt>
<trkpt lat="45.9771360" lon="10.1899950">
	<ele>1812.20</ele>
	<time>2025-08-16T07:55:28.000Z</time>
</trkpt>
<trkpt lat="45.9771340" lon="10.1899990">
	<ele>1812.20</ele>
	<time>2025-08-16T07:55:29.000Z</time>
</trkpt>
<trkpt lat="45.9771350" lon="10.1900040">
	<ele>1812.40</ele>
	<time>2025-08-16T07:55:30.000Z</time>
</trkpt>
<trkpt lat="45.9771350" lon="10.1900130">
	<ele>1812.60</ele>
	<time>2025-08-16T07:55:31.000Z</time>
</trkpt>
<trkpt lat="45.9771340" lon="10.1900190">
	<ele>1812.80</ele>
	<time>2025-08-16T07:55:32.000Z</time>
</trkpt>
<trkpt lat="45.9771320" lon="10.1900180">
	<ele>1813.00</ele>
	<time>2025-08-16T07:55:33.000Z</time>
</trkpt>
<trkpt lat="45.9771290" lon="10.1900200">
	<ele>1813.00</ele>
	<time>2025-08-16T07:55:34.000Z</time>
</trkpt>
<trkpt lat="45.9771270" lon="10.1900170">
	<ele>1813.20</ele>
	<time>2025-08-16T07:55:35.000Z</time>
</trkpt>
<trkpt lat="45.9771230" lon="10.1900190">
	<ele>1813.40</ele>
	<time>2025-08-16T07:55:36.000Z</time>
</trkpt>
<trkpt lat="45.9771210" lon="10.1900200">
	<ele>1813.60</ele>
	<time>2025-08-16T07:55:37.000Z</time>
</trkpt>
<trkpt lat="45.9771190" lon="10.1900280">
	<ele>1813.60</ele>
	<time>2025-08-16T07:55:38.000Z</time>
</trkpt>
<trkpt lat="45.9771140" lon="10.1900360">
	<ele>1813.80</ele>
	<time>2025-08-16T07:55:39.000Z</time>
</trkpt>
<trkpt lat="45.9771140" lon="10.1900470">
	<ele>1813.80</ele>
	<time>2025-08-16T07:55:40.000Z</time>
</trkpt>
<trkpt lat="45.9771130" lon="10.1900530">
	<ele>1814.00</ele>
	<time>2025-08-16T07:55:41.000Z</time>
</trkpt>
<trkpt lat="45.9771120" lon="10.1900580">
	<ele>1814.40</ele>
	<time>2025-08-16T07:55:42.000Z</time>
</trkpt>
<trkpt lat="45.9771110" lon="10.1900600">
	<ele>1814.60</ele>
	<time>2025-08-16T07:55:43.000Z</time>
</trkpt>
<trkpt lat="45.9771110" lon="10.1900660">
	<ele>1814.80</ele>
	<time>2025-08-16T07:55:44.000Z</time>
</trkpt>
<trkpt lat="45.9771140" lon="10.1900690">
	<ele>1814.80</ele>
	<time>2025-08-16T07:55:45.000Z</time>
</trkpt>
<trkpt lat="45.9771120" lon="10.1900750">
	<ele>1815.00</ele>
	<time>2025-08-16T07:55:46.000Z</time>
</trkpt>
<trkpt lat="45.9771090" lon="10.1900830">
	<ele>1815.00</ele>
	<time>2025-08-16T07:55:47.000Z</time>
</trkpt>
<trkpt lat="45.9771080" lon="10.1900950">
	<ele>1815.20</ele>
	<time>2025-08-16T07:55:48.000Z</time>
</trkpt>
<trkpt lat="45.9771080" lon="10.1901010">
	<ele>1815.40</ele>
	<time>2025-08-16T07:55:49.000Z</time>
</trkpt>
<trkpt lat="45.9771070" lon="10.1901110">
	<ele>1815.40</ele>
	<time>2025-08-16T07:55:50.000Z</time>
</trkpt>
<trkpt lat="45.9771060" lon="10.1901160">
	<ele>1815.60</ele>
	<time>2025-08-16T07:55:51.000Z</time>
</trkpt>
<trkpt lat="45.9771040" lon="10.1901230">
	<ele>1815.80</ele>
	<time>2025-08-16T07:55:52.000Z</time>
</trkpt>
<trkpt lat="45.9771020" lon="10.1901290">
	<ele>1816.00</ele>
	<time>2025-08-16T07:55:53.000Z</time>
</trkpt>
<trkpt lat="45.9770930" lon="10.1901410">
	<ele>1816.20</ele>
	<time>2025-08-16T07:55:54.000Z</time>
</trkpt>
<trkpt lat="45.9770860" lon="10.1901550">
	<ele>1816.40</ele>
	<time>2025-08-16T07:55:55.000Z</time>
</trkpt>
<trkpt lat="45.9770830" lon="10.1901610">
	<ele>1816.60</ele>
	<time>2025-08-16T07:55:56.000Z</time>
</trkpt>
<trkpt lat="45.9770800" lon="10.1901650">
	<ele>1816.80</ele>
	<time>2025-08-16T07:55:57.000Z</time>
</trkpt>
<trkpt lat="45.9770780" lon="10.1901750">
	<ele>1816.80</ele>
	<time>2025-08-16T07:55:58.000Z</time>
</trkpt>
<trkpt lat="45.9770780" lon="10.1901810">
	<ele>1817.00</ele>
	<time>2025-08-16T07:55:59.000Z</time>
</trkpt>
<trkpt lat="45.9770810" lon="10.1901860">
	<ele>1817.20</ele>
	<time>2025-08-16T07:56:00.000Z</time>
</trkpt>
<trkpt lat="45.9770790" lon="10.1901960">
	<ele>1817.40</ele>
	<time>2025-08-16T07:56:01.000Z</time>
</trkpt>
<trkpt lat="45.9770800" lon="10.1902050">
	<ele>1817.60</ele>
	<time>2025-08-16T07:56:02.000Z</time>
</trkpt>
<trkpt lat="45.9770810" lon="10.1902100">
	<ele>1817.60</ele>
	<time>2025-08-16T07:56:03.000Z</time>
</trkpt>
<trkpt lat="45.9770800" lon="10.1902130">
	<ele>1817.80</ele>
	<time>2025-08-16T07:56:04.000Z</time>
</trkpt>
<trkpt lat="45.9770790" lon="10.1902230">
	<ele>1818.00</ele>
	<time>2025-08-16T07:56:05.000Z</time>
</trkpt>
<trkpt lat="45.9770750" lon="10.1902310">
	<ele>1818.20</ele>
	<time>2025-08-16T07:56:06.000Z</time>
</trkpt>
<trkpt lat="45.9770710" lon="10.1902330">
	<ele>1818.40</ele>
	<time>2025-08-16T07:56:07.000Z</time>
</trkpt>
<trkpt lat="45.9770680" lon="10.1902320">
	<ele>1818.60</ele>
	<time>2025-08-16T07:56:08.000Z</time>
</trkpt>
<trkpt lat="45.9770640" lon="10.1902280">
	<ele>1818.60</ele>
	<time>2025-08-16T07:56:09.000Z</time>
</trkpt>
<trkpt lat="45.9770620" lon="10.1902270">
	<ele>1818.80</ele>
	<time>2025-08-16T07:56:10.000Z</time>
</trkpt>
<trkpt lat="45.9770650" lon="10.1902280">
	<ele>1819.00</ele>
	<time>2025-08-16T07:56:11.000Z</time>
</trkpt>
<trkpt lat="45.9770630" lon="10.1902340">
	<ele>1819.00</ele>
	<time>2025-08-16T07:56:12.000Z</time>
</trkpt>
<trkpt lat="45.9770640" lon="10.1902370">
	<ele>1819.20</ele>
	<time>2025-08-16T07:56:13.000Z</time>
</trkpt>
<trkpt lat="45.9770630" lon="10.1902380">
	<ele>1819.00</ele>
	<time>2025-08-16T07:56:14.000Z</time>
</trkpt>
<trkpt lat="45.9770630" lon="10.1902380">
	<ele>1819.00</ele>
	<time>2025-08-16T07:56:15.000Z</time>
</trkpt>
<trkpt lat="45.9770630" lon="10.1902380">
	<ele>1819.00</ele>
	<time>2025-08-16T07:56:16.000Z</time>
</trkpt>
<trkpt lat="45.9770630" lon="10.1902380">
	<ele>1819.00</ele>
	<time>2025-08-16T07:56:17.000Z</time>
</trkpt>
<trkpt lat="45.9770630" lon="10.1902380">
	<ele>1819.00</ele>
	<time>2025-08-16T07:56:18.000Z</time>
</trkpt>
<trkpt lat="45.9770630" lon="10.1902380">
	<ele>1819.00</ele>
	<time>2025-08-16T07:56:19.000Z</time>
</trkpt>
<trkpt lat="45.9770630" lon="10.1902380">
	<ele>1819.00</ele>
	<time>2025-08-16T07:56:20.000Z</time>
</trkpt>
<trkpt lat="45.9770630" lon="10.1902380">
	<ele>1819.00</ele>
	<time>2025-08-16T07:56:21.000Z</time>
</trkpt>
<trkpt lat="45.9770630" lon="10.1902370">
	<ele>1819.00</ele>
	<time>2025-08-16T07:56:22.000Z</time>
</trkpt>
<trkpt lat="45.9770630" lon="10.1902370">
	<ele>1819.00</ele>
	<time>2025-08-16T07:56:23.000Z</time>
</trkpt>
<trkpt lat="45.9770630" lon="10.1902360">
	<ele>1819.20</ele>
	<time>2025-08-16T07:56:24.000Z</time>
</trkpt>
<trkpt lat="45.9770630" lon="10.1902360">
	<ele>1819.20</ele>
	<time>2025-08-16T07:56:25.000Z</time>
</trkpt>
<trkpt lat="45.9770630" lon="10.1902350">
	<ele>1819.40</ele>
	<time>2025-08-16T07:56:26.000Z</time>
</trkpt>
<trkpt lat="45.9770630" lon="10.1902340">
	<ele>1819.40</ele>
	<time>2025-08-16T07:56:27.000Z</time>
</trkpt>
<trkpt lat="45.9770630" lon="10.1902340">
	<ele>1819.60</ele>
	<time>2025-08-16T07:56:28.000Z</time>
</trkpt>
<trkpt lat="45.9770620" lon="10.1902330">
	<ele>1819.60</ele>
	<time>2025-08-16T07:56:29.000Z</time>
</trkpt>
<trkpt lat="45.9770620" lon="10.1902330">
	<ele>1820.00</ele>
	<time>2025-08-16T07:56:30.000Z</time>
</trkpt>
<trkpt lat="45.9770620" lon="10.1902320">
	<ele>1820.20</ele>
	<time>2025-08-16T07:56:31.000Z</time>
</trkpt>
<trkpt lat="45.9770620" lon="10.1902320">
	<ele>1820.40</ele>
	<time>2025-08-16T07:56:32.000Z</time>
</trkpt>
<trkpt lat="45.9770570" lon="10.1902310">
	<ele>1820.60</ele>
	<time>2025-08-16T07:56:33.000Z</time>
</trkpt>
<trkpt lat="45.9770570" lon="10.1902300">
	<ele>1820.80</ele>
	<time>2025-08-16T07:56:34.000Z</time>
</trkpt>
<trkpt lat="45.9770570" lon="10.1902300">
	<ele>1820.80</ele>
	<time>2025-08-16T07:56:35.000Z</time>
</trkpt>
<trkpt lat="45.9770560" lon="10.1902300">
	<ele>1821.00</ele>
	<time>2025-08-16T07:56:36.000Z</time>
</trkpt>
<trkpt lat="45.9770560" lon="10.1902300">
	<ele>1821.20</ele>
	<time>2025-08-16T07:56:37.000Z</time>
</trkpt>
<trkpt lat="45.9770550" lon="10.1902300">
	<ele>1821.60</ele>
	<time>2025-08-16T07:56:38.000Z</time>
</trkpt>
<trkpt lat="45.9770540" lon="10.1902310">
	<ele>1821.80</ele>
	<time>2025-08-16T07:56:39.000Z</time>
</trkpt>
<trkpt lat="45.9770540" lon="10.1902330">
	<ele>1822.00</ele>
	<time>2025-08-16T07:56:40.000Z</time>
</trkpt>
<trkpt lat="45.9770480" lon="10.1902330">
	<ele>1822.20</ele>
	<time>2025-08-16T07:56:41.000Z</time>
</trkpt>
<trkpt lat="45.9770360" lon="10.1902340">
	<ele>1822.40</ele>
	<time>2025-08-16T07:56:42.000Z</time>
</trkpt>
<trkpt lat="45.9770340" lon="10.1902400">
	<ele>1822.40</ele>
	<time>2025-08-16T07:56:43.000Z</time>
</trkpt>
<trkpt lat="45.9770290" lon="10.1902530">
	<ele>1822.60</ele>
	<time>2025-08-16T07:56:44.000Z</time>
</trkpt>
<trkpt lat="45.9770260" lon="10.1902580">
	<ele>1822.60</ele>
	<time>2025-08-16T07:56:45.000Z</time>
</trkpt>
<trkpt lat="45.9770210" lon="10.1902620">
	<ele>1822.80</ele>
	<time>2025-08-16T07:56:46.000Z</time>
</trkpt>
<trkpt lat="45.9770170" lon="10.1902640">
	<ele>1823.00</ele>
	<time>2025-08-16T07:56:47.000Z</time>
</trkpt>
<trkpt lat="45.9770150" lon="10.1902650">
	<ele>1823.20</ele>
	<time>2025-08-16T07:56:48.000Z</time>
</trkpt>
<trkpt lat="45.9770160" lon="10.1902760">
	<ele>1823.40</ele>
	<time>2025-08-16T07:56:49.000Z</time>
</trkpt>
<trkpt lat="45.9770130" lon="10.1902660">
	<ele>1823.80</ele>
	<time>2025-08-16T07:56:50.000Z</time>
</trkpt>
<trkpt lat="45.9769990" lon="10.1902670">
	<ele>1824.00</ele>
	<time>2025-08-16T07:56:51.000Z</time>
</trkpt>
<trkpt lat="45.9769820" lon="10.1902760">
	<ele>1824.20</ele>
	<time>2025-08-16T07:56:52.000Z</time>
</trkpt>
<trkpt lat="45.9769770" lon="10.1902720">
	<ele>1824.40</ele>
	<time>2025-08-16T07:56:53.000Z</time>
</trkpt>
<trkpt lat="45.9769730" lon="10.1902660">
	<ele>1824.60</ele>
	<time>2025-08-16T07:56:54.000Z</time>
</trkpt>
<trkpt lat="45.9769670" lon="10.1902650">
	<ele>1824.80</ele>
	<time>2025-08-16T07:56:55.000Z</time>
</trkpt>
<trkpt lat="45.9769620" lon="10.1902660">
	<ele>1825.00</ele>
	<time>2025-08-16T07:56:56.000Z</time>
</trkpt>
<trkpt lat="45.9769580" lon="10.1902630">
	<ele>1825.20</ele>
	<time>2025-08-16T07:56:57.000Z</time>
</trkpt>
<trkpt lat="45.9769550" lon="10.1902560">
	<ele>1825.40</ele>
	<time>2025-08-16T07:56:58.000Z</time>
</trkpt>
<trkpt lat="45.9769530" lon="10.1902470">
	<ele>1825.60</ele>
	<time>2025-08-16T07:56:59.000Z</time>
</trkpt>
<trkpt lat="45.9769530" lon="10.1902400">
	<ele>1825.60</ele>
	<time>2025-08-16T07:57:00.000Z</time>
</trkpt>
<trkpt lat="45.9769510" lon="10.1902330">
	<ele>1825.80</ele>
	<time>2025-08-16T07:57:01.000Z</time>
</trkpt>
<trkpt lat="45.9769480" lon="10.1902290">
	<ele>1826.00</ele>
	<time>2025-08-16T07:57:02.000Z</time>
</trkpt>
<trkpt lat="45.9769450" lon="10.1902260">
	<ele>1826.20</ele>
	<time>2025-08-16T07:57:03.000Z</time>
</trkpt>
<trkpt lat="45.9769340" lon="10.1902260">
	<ele>1826.40</ele>
	<time>2025-08-16T07:57:04.000Z</time>
</trkpt>
<trkpt lat="45.9769280" lon="10.1902250">
	<ele>1826.60</ele>
	<time>2025-08-16T07:57:05.000Z</time>
</trkpt>
<trkpt lat="45.9769380" lon="10.1902130">
	<ele>1826.80</ele>
	<time>2025-08-16T07:57:06.000Z</time>
</trkpt>
<trkpt lat="45.9769420" lon="10.1902040">
	<ele>1827.00</ele>
	<time>2025-08-16T07:57:07.000Z</time>
</trkpt>
<trkpt lat="45.9769470" lon="10.1901950">
	<ele>1827.20</ele>
	<time>2025-08-16T07:57:08.000Z</time>
</trkpt>
<trkpt lat="45.9769500" lon="10.1901790">
	<ele>1827.40</ele>
	<time>2025-08-16T07:57:09.000Z</time>
</trkpt>
<trkpt lat="45.9769500" lon="10.1901700">
	<ele>1827.60</ele>
	<time>2025-08-16T07:57:10.000Z</time>
</trkpt>
<trkpt lat="45.9769450" lon="10.1901670">
	<ele>1827.60</ele>
	<time>2025-08-16T07:57:11.000Z</time>
</trkpt>
<trkpt lat="45.9769370" lon="10.1901680">
	<ele>1827.80</ele>
	<time>2025-08-16T07:57:12.000Z</time>
</trkpt>
<trkpt lat="45.9769310" lon="10.1901700">
	<ele>1828.00</ele>
	<time>2025-08-16T07:57:13.000Z</time>
</trkpt>
<trkpt lat="45.9769270" lon="10.1901660">
	<ele>1828.20</ele>
	<time>2025-08-16T07:57:14.000Z</time>
</trkpt>
<trkpt lat="45.9769290" lon="10.1901610">
	<ele>1828.40</ele>
	<time>2025-08-16T07:57:15.000Z</time>
</trkpt>
<trkpt lat="45.9769260" lon="10.1901570">
	<ele>1828.60</ele>
	<time>2025-08-16T07:57:16.000Z</time>
</trkpt>
<trkpt lat="45.9769280" lon="10.1901480">
	<ele>1828.80</ele>
	<time>2025-08-16T07:57:17.000Z</time>
</trkpt>
<trkpt lat="45.9769230" lon="10.1901410">
	<ele>1829.20</ele>
	<time>2025-08-16T07:57:18.000Z</time>
</trkpt>
<trkpt lat="45.9769220" lon="10.1901230">
	<ele>1829.20</ele>
	<time>2025-08-16T07:57:19.000Z</time>
</trkpt>
<trkpt lat="45.9769230" lon="10.1901080">
	<ele>1829.40</ele>
	<time>2025-08-16T07:57:20.000Z</time>
</trkpt>
<trkpt lat="45.9769240" lon="10.1900960">
	<ele>1829.60</ele>
	<time>2025-08-16T07:57:21.000Z</time>
</trkpt>
<trkpt lat="45.9769470" lon="10.1900770">
	<ele>1829.60</ele>
	<time>2025-08-16T07:57:22.000Z</time>
</trkpt>
<trkpt lat="45.9769480" lon="10.1900740">
	<ele>1830.00</ele>
	<time>2025-08-16T07:57:23.000Z</time>
</trkpt>
<trkpt lat="45.9769490" lon="10.1900700">
	<ele>1830.20</ele>
	<time>2025-08-16T07:57:24.000Z</time>
</trkpt>
<trkpt lat="45.9769470" lon="10.1900690">
	<ele>1830.40</ele>
	<time>2025-08-16T07:57:25.000Z</time>
</trkpt>
<trkpt lat="45.9769350" lon="10.1900640">
	<ele>1830.60</ele>
	<time>2025-08-16T07:57:26.000Z</time>
</trkpt>
<trkpt lat="45.9769300" lon="10.1900610">
	<ele>1830.60</ele>
	<time>2025-08-16T07:57:27.000Z</time>
</trkpt>
<trkpt lat="45.9769270" lon="10.1900540">
	<ele>1831.00</ele>
	<time>2025-08-16T07:57:28.000Z</time>
</trkpt>
<trkpt lat="45.9769250" lon="10.1900500">
	<ele>1831.20</ele>
	<time>2025-08-16T07:57:29.000Z</time>
</trkpt>
<trkpt lat="45.9769230" lon="10.1900540">
	<ele>1831.20</ele>
	<time>2025-08-16T07:57:30.000Z</time>
</trkpt>
<trkpt lat="45.9769260" lon="10.1900400">
	<ele>1831.40</ele>
	<time>2025-08-16T07:57:31.000Z</time>
</trkpt>
<trkpt lat="45.9769240" lon="10.1900260">
	<ele>1831.60</ele>
	<time>2025-08-16T07:57:32.000Z</time>
</trkpt>
<trkpt lat="45.9769120" lon="10.1900210">
	<ele>1831.80</ele>
	<time>2025-08-16T07:57:33.000Z</time>
</trkpt>
<trkpt lat="45.9769060" lon="10.1900140">
	<ele>1832.00</ele>
	<time>2025-08-16T07:57:34.000Z</time>
</trkpt>
<trkpt lat="45.9769030" lon="10.1900070">
	<ele>1832.20</ele>
	<time>2025-08-16T07:57:35.000Z</time>
</trkpt>
<trkpt lat="45.9768970" lon="10.1900030">
	<ele>1832.20</ele>
	<time>2025-08-16T07:57:36.000Z</time>
</trkpt>
<trkpt lat="45.9768910" lon="10.1900040">
	<ele>1832.40</ele>
	<time>2025-08-16T07:57:37.000Z</time>
</trkpt>
<trkpt lat="45.9768890" lon="10.1900020">
	<ele>1832.60</ele>
	<time>2025-08-16T07:57:38.000Z</time>
</trkpt>
<trkpt lat="45.9768840" lon="10.1900020">
	<ele>1832.60</ele>
	<time>2025-08-16T07:57:39.000Z</time>
</trkpt>
<trkpt lat="45.9768810" lon="10.1900040">
	<ele>1832.80</ele>
	<time>2025-08-16T07:57:40.000Z</time>
</trkpt>
<trkpt lat="45.9768790" lon="10.1900050">
	<ele>1832.80</ele>
	<time>2025-08-16T07:57:41.000Z</time>
</trkpt>
<trkpt lat="45.9768790" lon="10.1900040">
	<ele>1832.80</ele>
	<time>2025-08-16T07:57:42.000Z</time>
</trkpt>
<trkpt lat="45.9768800" lon="10.1900030">
	<ele>1833.00</ele>
	<time>2025-08-16T07:57:43.000Z</time>
</trkpt>
<trkpt lat="45.9768800" lon="10.1899980">
	<ele>1833.00</ele>
	<time>2025-08-16T07:57:44.000Z</time>
</trkpt>
<trkpt lat="45.9768810" lon="10.1899930">
	<ele>1833.20</ele>
	<time>2025-08-16T07:57:45.000Z</time>
</trkpt>
<trkpt lat="45.9768790" lon="10.1899880">
	<ele>1833.20</ele>
	<time>2025-08-16T07:57:46.000Z</time>
</trkpt>
<trkpt lat="45.9768750" lon="10.1899800">
	<ele>1833.20</ele>
	<time>2025-08-16T07:57:47.000Z</time>
</trkpt>
<trkpt lat="45.9768710" lon="10.1899720">
	<ele>1833.40</ele>
	<time>2025-08-16T07:57:48.000Z</time>
</trkpt>
<trkpt lat="45.9768630" lon="10.1899710">
	<ele>1833.40</ele>
	<time>2025-08-16T07:57:49.000Z</time>
</trkpt>
<trkpt lat="45.9768600" lon="10.1899680">
	<ele>1833.60</ele>
	<time>2025-08-16T07:57:50.000Z</time>
</trkpt>
<trkpt lat="45.9768590" lon="10.1899650">
	<ele>1833.80</ele>
	<time>2025-08-16T07:57:51.000Z</time>
</trkpt>
<trkpt lat="45.9768560" lon="10.1899630">
	<ele>1834.00</ele>
	<time>2025-08-16T07:57:52.000Z</time>
</trkpt>
<trkpt lat="45.9768550" lon="10.1899550">
	<ele>1834.20</ele>
	<time>2025-08-16T07:57:53.000Z</time>
</trkpt>
<trkpt lat="45.9768560" lon="10.1899420">
	<ele>1834.20</ele>
	<time>2025-08-16T07:57:54.000Z</time>
</trkpt>
<trkpt lat="45.9768480" lon="10.1899330">
	<ele>1834.40</ele>
	<time>2025-08-16T07:57:55.000Z</time>
</trkpt>
<trkpt lat="45.9768440" lon="10.1899310">
	<ele>1834.40</ele>
	<time>2025-08-16T07:57:56.000Z</time>
</trkpt>
<trkpt lat="45.9768390" lon="10.1899270">
	<ele>1834.60</ele>
	<time>2025-08-16T07:57:57.000Z</time>
</trkpt>
<trkpt lat="45.9768370" lon="10.1899210">
	<ele>1834.80</ele>
	<time>2025-08-16T07:57:58.000Z</time>
</trkpt>
<trkpt lat="45.9768350" lon="10.1899140">
	<ele>1835.00</ele>
	<time>2025-08-16T07:57:59.000Z</time>
</trkpt>
<trkpt lat="45.9768370" lon="10.1899060">
	<ele>1835.20</ele>
	<time>2025-08-16T07:58:00.000Z</time>
</trkpt>
<trkpt lat="45.9768450" lon="10.1898850">
	<ele>1835.40</ele>
	<time>2025-08-16T07:58:01.000Z</time>
</trkpt>
<trkpt lat="45.9768510" lon="10.1898740">
	<ele>1835.60</ele>
	<time>2025-08-16T07:58:02.000Z</time>
</trkpt>
<trkpt lat="45.9768500" lon="10.1898650">
	<ele>1836.00</ele>
	<time>2025-08-16T07:58:03.000Z</time>
</trkpt>
<trkpt lat="45.9768590" lon="10.1898420">
	<ele>1836.20</ele>
	<time>2025-08-16T07:58:04.000Z</time>
</trkpt>
<trkpt lat="45.9768590" lon="10.1898310">
	<ele>1836.40</ele>
	<time>2025-08-16T07:58:05.000Z</time>
</trkpt>
<trkpt lat="45.9768550" lon="10.1898260">
	<ele>1836.40</ele>
	<time>2025-08-16T07:58:06.000Z</time>
</trkpt>
<trkpt lat="45.9768550" lon="10.1898200">
	<ele>1836.60</ele>
	<time>2025-08-16T07:58:07.000Z</time>
</trkpt>
<trkpt lat="45.9768550" lon="10.1898090">
	<ele>1836.60</ele>
	<time>2025-08-16T07:58:08.000Z</time>
</trkpt>
<trkpt lat="45.9768560" lon="10.1897970">
	<ele>1836.80</ele>
	<time>2025-08-16T07:58:09.000Z</time>
</trkpt>
<trkpt lat="45.9768550" lon="10.1897860">
	<ele>1836.80</ele>
	<time>2025-08-16T07:58:10.000Z</time>
</trkpt>
<trkpt lat="45.9768530" lon="10.1897750">
	<ele>1837.00</ele>
	<time>2025-08-16T07:58:11.000Z</time>
</trkpt>
<trkpt lat="45.9768500" lon="10.1897700">
	<ele>1837.20</ele>
	<time>2025-08-16T07:58:12.000Z</time>
</trkpt>
<trkpt lat="45.9768480" lon="10.1897630">
	<ele>1837.40</ele>
	<time>2025-08-16T07:58:13.000Z</time>
</trkpt>
<trkpt lat="45.9768440" lon="10.1897590">
	<ele>1837.60</ele>
	<time>2025-08-16T07:58:14.000Z</time>
</trkpt>
<trkpt lat="45.9768390" lon="10.1897510">
	<ele>1837.60</ele>
	<time>2025-08-16T07:58:15.000Z</time>
</trkpt>
<trkpt lat="45.9768380" lon="10.1897470">
	<ele>1837.80</ele>
	<time>2025-08-16T07:58:16.000Z</time>
</trkpt>
<trkpt lat="45.9768430" lon="10.1897330">
	<ele>1838.00</ele>
	<time>2025-08-16T07:58:17.000Z</time>
</trkpt>
<trkpt lat="45.9768460" lon="10.1897170">
	<ele>1838.20</ele>
	<time>2025-08-16T07:58:18.000Z</time>
</trkpt>
<trkpt lat="45.9768450" lon="10.1897070">
	<ele>1838.40</ele>
	<time>2025-08-16T07:58:19.000Z</time>
</trkpt>
<trkpt lat="45.9768450" lon="10.1896960">
	<ele>1838.60</ele>
	<time>2025-08-16T07:58:20.000Z</time>
</trkpt>
<trkpt lat="45.9768460" lon="10.1896830">
	<ele>1838.80</ele>
	<time>2025-08-16T07:58:21.000Z</time>
</trkpt>
<trkpt lat="45.9768500" lon="10.1896720">
	<ele>1839.20</ele>
	<time>2025-08-16T07:58:22.000Z</time>
</trkpt>
<trkpt lat="45.9768470" lon="10.1896640">
	<ele>1839.20</ele>
	<time>2025-08-16T07:58:23.000Z</time>
</trkpt>
<trkpt lat="45.9768480" lon="10.1896530">
	<ele>1839.60</ele>
	<time>2025-08-16T07:58:24.000Z</time>
</trkpt>
<trkpt lat="45.9768440" lon="10.1896480">
	<ele>1839.80</ele>
	<time>2025-08-16T07:58:25.000Z</time>
</trkpt>
<trkpt lat="45.9768380" lon="10.1896420">
	<ele>1840.00</ele>
	<time>2025-08-16T07:58:26.000Z</time>
</trkpt>
<trkpt lat="45.9768350" lon="10.1896340">
	<ele>1840.00</ele>
	<time>2025-08-16T07:58:27.000Z</time>
</trkpt>
<trkpt lat="45.9768380" lon="10.1896190">
	<ele>1840.20</ele>
	<time>2025-08-16T07:58:28.000Z</time>
</trkpt>
<trkpt lat="45.9768380" lon="10.1896050">
	<ele>1840.40</ele>
	<time>2025-08-16T07:58:29.000Z</time>
</trkpt>
<trkpt lat="45.9768420" lon="10.1895900">
	<ele>1840.40</ele>
	<time>2025-08-16T07:58:30.000Z</time>
</trkpt>
<trkpt lat="45.9768410" lon="10.1895800">
	<ele>1840.60</ele>
	<time>2025-08-16T07:58:31.000Z</time>
</trkpt>
<trkpt lat="45.9768390" lon="10.1895700">
	<ele>1840.60</ele>
	<time>2025-08-16T07:58:32.000Z</time>
</trkpt>
<trkpt lat="45.9768340" lon="10.1895610">
	<ele>1840.80</ele>
	<time>2025-08-16T07:58:33.000Z</time>
</trkpt>
<trkpt lat="45.9768260" lon="10.1895540">
	<ele>1841.00</ele>
	<time>2025-08-16T07:58:34.000Z</time>
</trkpt>
<trkpt lat="45.9768200" lon="10.1895480">
	<ele>1841.00</ele>
	<time>2025-08-16T07:58:35.000Z</time>
</trkpt>
<trkpt lat="45.9768140" lon="10.1895410">
	<ele>1841.20</ele>
	<time>2025-08-16T07:58:36.000Z</time>
</trkpt>
<trkpt lat="45.9768010" lon="10.1895400">
	<ele>1841.40</ele>
	<time>2025-08-16T07:58:37.000Z</time>
</trkpt>
<trkpt lat="45.9767950" lon="10.1895350">
	<ele>1841.40</ele>
	<time>2025-08-16T07:58:38.000Z</time>
</trkpt>
<trkpt lat="45.9767980" lon="10.1895230">
	<ele>1841.60</ele>
	<time>2025-08-16T07:58:39.000Z</time>
</trkpt>
<trkpt lat="45.9767890" lon="10.1895220">
	<ele>1841.80</ele>
	<time>2025-08-16T07:58:40.000Z</time>
</trkpt>
<trkpt lat="45.9767870" lon="10.1895180">
	<ele>1842.00</ele>
	<time>2025-08-16T07:58:41.000Z</time>
</trkpt>
<trkpt lat="45.9767890" lon="10.1895080">
	<ele>1842.20</ele>
	<time>2025-08-16T07:58:42.000Z</time>
</trkpt>
<trkpt lat="45.9767910" lon="10.1895020">
	<ele>1842.60</ele>
	<time>2025-08-16T07:58:43.000Z</time>
</trkpt>
<trkpt lat="45.9767910" lon="10.1895000">
	<ele>1842.60</ele>
	<time>2025-08-16T07:58:44.000Z</time>
</trkpt>
<trkpt lat="45.9767840" lon="10.1895010">
	<ele>1842.80</ele>
	<time>2025-08-16T07:58:45.000Z</time>
</trkpt>
<trkpt lat="45.9767750" lon="10.1894990">
	<ele>1843.00</ele>
	<time>2025-08-16T07:58:46.000Z</time>
</trkpt>
<trkpt lat="45.9767680" lon="10.1894960">
	<ele>1843.00</ele>
	<time>2025-08-16T07:58:47.000Z</time>
</trkpt>
<trkpt lat="45.9767640" lon="10.1894920">
	<ele>1843.20</ele>
	<time>2025-08-16T07:58:48.000Z</time>
</trkpt>
<trkpt lat="45.9767500" lon="10.1894930">
	<ele>1843.20</ele>
	<time>2025-08-16T07:58:49.000Z</time>
</trkpt>
<trkpt lat="45.9767440" lon="10.1894900">
	<ele>1843.20</ele>
	<time>2025-08-16T07:58:50.000Z</time>
</trkpt>
<trkpt lat="45.9767340" lon="10.1894840">
	<ele>1843.40</ele>
	<time>2025-08-16T07:58:51.000Z</time>
</trkpt>
<trkpt lat="45.9767250" lon="10.1894790">
	<ele>1843.60</ele>
	<time>2025-08-16T07:58:52.000Z</time>
</trkpt>
<trkpt lat="45.9767120" lon="10.1894800">
	<ele>1843.60</ele>
	<time>2025-08-16T07:58:53.000Z</time>
</trkpt>
<trkpt lat="45.9767070" lon="10.1894720">
	<ele>1843.80</ele>
	<time>2025-08-16T07:58:54.000Z</time>
</trkpt>
<trkpt lat="45.9767120" lon="10.1894560">
	<ele>1844.00</ele>
	<time>2025-08-16T07:58:55.000Z</time>
</trkpt>
<trkpt lat="45.9767210" lon="10.1894350">
	<ele>1844.00</ele>
	<time>2025-08-16T07:58:56.000Z</time>
</trkpt>
<trkpt lat="45.9767240" lon="10.1894200">
	<ele>1844.20</ele>
	<time>2025-08-16T07:58:57.000Z</time>
</trkpt>
<trkpt lat="45.9767210" lon="10.1894090">
	<ele>1844.40</ele>
	<time>2025-08-16T07:58:58.000Z</time>
</trkpt>
<trkpt lat="45.9767160" lon="10.1894000">
	<ele>1844.40</ele>
	<time>2025-08-16T07:58:59.000Z</time>
</trkpt>
<trkpt lat="45.9767030" lon="10.1894020">
	<ele>1844.60</ele>
	<time>2025-08-16T07:59:00.000Z</time>
</trkpt>
<trkpt lat="45.9766930" lon="10.1894010">
	<ele>1844.80</ele>
	<time>2025-08-16T07:59:01.000Z</time>
</trkpt>
<trkpt lat="45.9766880" lon="10.1893970">
	<ele>1844.80</ele>
	<time>2025-08-16T07:59:02.000Z</time>
</trkpt>
<trkpt lat="45.9766830" lon="10.1893920">
	<ele>1845.00</ele>
	<time>2025-08-16T07:59:03.000Z</time>
</trkpt>
<trkpt lat="45.9766800" lon="10.1893850">
	<ele>1845.00</ele>
	<time>2025-08-16T07:59:04.000Z</time>
</trkpt>
<trkpt lat="45.9766780" lon="10.1893760">
	<ele>1845.20</ele>
	<time>2025-08-16T07:59:05.000Z</time>
</trkpt>
<trkpt lat="45.9766780" lon="10.1893650">
	<ele>1845.40</ele>
	<time>2025-08-16T07:59:06.000Z</time>
</trkpt>
<trkpt lat="45.9766770" lon="10.1893530">
	<ele>1845.40</ele>
	<time>2025-08-16T07:59:07.000Z</time>
</trkpt>
<trkpt lat="45.9766680" lon="10.1893500">
	<ele>1845.60</ele>
	<time>2025-08-16T07:59:08.000Z</time>
</trkpt>
<trkpt lat="45.9766600" lon="10.1893460">
	<ele>1845.80</ele>
	<time>2025-08-16T07:59:09.000Z</time>
</trkpt>
<trkpt lat="45.9766530" lon="10.1893420">
	<ele>1846.20</ele>
	<time>2025-08-16T07:59:10.000Z</time>
</trkpt>
<trkpt lat="45.9766500" lon="10.1893330">
	<ele>1846.40</ele>
	<time>2025-08-16T07:59:11.000Z</time>
</trkpt>
<trkpt lat="45.9766480" lon="10.1893170">
	<ele>1846.60</ele>
	<time>2025-08-16T07:59:12.000Z</time>
</trkpt>
<trkpt lat="45.9766510" lon="10.1893070">
	<ele>1846.80</ele>
	<time>2025-08-16T07:59:13.000Z</time>
</trkpt>
<trkpt lat="45.9766440" lon="10.1893070">
	<ele>1847.00</ele>
	<time>2025-08-16T07:59:14.000Z</time>
</trkpt>
<trkpt lat="45.9766400" lon="10.1893040">
	<ele>1847.20</ele>
	<time>2025-08-16T07:59:15.000Z</time>
</trkpt>
<trkpt lat="45.9766350" lon="10.1893000">
	<ele>1847.40</ele>
	<time>2025-08-16T07:59:16.000Z</time>
</trkpt>
<trkpt lat="45.9766290" lon="10.1892970">
	<ele>1847.80</ele>
	<time>2025-08-16T07:59:17.000Z</time>
</trkpt>
<trkpt lat="45.9766260" lon="10.1892950">
	<ele>1847.80</ele>
	<time>2025-08-16T07:59:18.000Z</time>
</trkpt>
<trkpt lat="45.9766250" lon="10.1892890">
	<ele>1848.00</ele>
	<time>2025-08-16T07:59:19.000Z</time>
</trkpt>
<trkpt lat="45.9766250" lon="10.1892800">
	<ele>1848.20</ele>
	<time>2025-08-16T07:59:20.000Z</time>
</trkpt>
<trkpt lat="45.9766240" lon="10.1892660">
	<ele>1848.40</ele>
	<time>2025-08-16T07:59:21.000Z</time>
</trkpt>
<trkpt lat="45.9766190" lon="10.1892580">
	<ele>1848.60</ele>
	<time>2025-08-16T07:59:22.000Z</time>
</trkpt>
<trkpt lat="45.9766110" lon="10.1892480">
	<ele>1848.80</ele>
	<time>2025-08-16T07:59:23.000Z</time>
</trkpt>
<trkpt lat="45.9766070" lon="10.1892380">
	<ele>1848.80</ele>
	<time>2025-08-16T07:59:24.000Z</time>
</trkpt>
<trkpt lat="45.9765950" lon="10.1892400">
	<ele>1849.20</ele>
	<time>2025-08-16T07:59:25.000Z</time>
</trkpt>
<trkpt lat="45.9765760" lon="10.1892540">
	<ele>1849.20</ele>
	<time>2025-08-16T07:59:26.000Z</time>
</trkpt>
<trkpt lat="45.9765800" lon="10.1892410">
	<ele>1849.40</ele>
	<time>2025-08-16T07:59:27.000Z</time>
</trkpt>
<trkpt lat="45.9765830" lon="10.1892240">
	<ele>1849.60</ele>
	<time>2025-08-16T07:59:28.000Z</time>
</trkpt>
<trkpt lat="45.9765860" lon="10.1892090">
	<ele>1849.80</ele>
	<time>2025-08-16T07:59:29.000Z</time>
</trkpt>
<trkpt lat="45.9765900" lon="10.1891940">
	<ele>1849.80</ele>
	<time>2025-08-16T07:59:30.000Z</time>
</trkpt>
<trkpt lat="45.9765870" lon="10.1891860">
	<ele>1850.00</ele>
	<time>2025-08-16T07:59:31.000Z</time>
</trkpt>
<trkpt lat="45.9765880" lon="10.1891780">
	<ele>1850.20</ele>
	<time>2025-08-16T07:59:32.000Z</time>
</trkpt>
<trkpt lat="45.9765940" lon="10.1891680">
	<ele>1850.40</ele>
	<time>2025-08-16T07:59:33.000Z</time>
</trkpt>
<trkpt lat="45.9765970" lon="10.1891650">
	<ele>1850.60</ele>
	<time>2025-08-16T07:59:34.000Z</time>
</trkpt>
<trkpt lat="45.9765960" lon="10.1891650">
	<ele>1850.60</ele>
	<time>2025-08-16T07:59:35.000Z</time>
</trkpt>
<trkpt lat="45.9765950" lon="10.1891670">
	<ele>1850.80</ele>
	<time>2025-08-16T07:59:36.000Z</time>
</trkpt>
<trkpt lat="45.9765950" lon="10.1891680">
	<ele>1851.00</ele>
	<time>2025-08-16T07:59:37.000Z</time>
</trkpt>
<trkpt lat="45.9765950" lon="10.1891690">
	<ele>1851.00</ele>
	<time>2025-08-16T07:59:38.000Z</time>
</trkpt>
<trkpt lat="45.9765950" lon="10.1891700">
	<ele>1851.00</ele>
	<time>2025-08-16T07:59:39.000Z</time>
</trkpt>
<trkpt lat="45.9765960" lon="10.1891630">
	<ele>1851.00</ele>
	<time>2025-08-16T07:59:40.000Z</time>
</trkpt>
<trkpt lat="45.9766070" lon="10.1891400">
	<ele>1851.00</ele>
	<time>2025-08-16T07:59:41.000Z</time>
</trkpt>
<trkpt lat="45.9766080" lon="10.1891230">
	<ele>1851.20</ele>
	<time>2025-08-16T07:59:42.000Z</time>
</trkpt>
<trkpt lat="45.9766060" lon="10.1891070">
	<ele>1851.20</ele>
	<time>2025-08-16T07:59:43.000Z</time>
</trkpt>
<trkpt lat="45.9766030" lon="10.1891010">
	<ele>1851.20</ele>
	<time>2025-08-16T07:59:44.000Z</time>
</trkpt>
<trkpt lat="45.9766010" lon="10.1890940">
	<ele>1851.20</ele>
	<time>2025-08-16T07:59:45.000Z</time>
</trkpt>
<trkpt lat="45.9765950" lon="10.1890920">
	<ele>1851.40</ele>
	<time>2025-08-16T07:59:46.000Z</time>
</trkpt>
<trkpt lat="45.9765880" lon="10.1890880">
	<ele>1851.60</ele>
	<time>2025-08-16T07:59:47.000Z</time>
</trkpt>
<trkpt lat="45.9765850" lon="10.1890820">
	<ele>1851.80</ele>
	<time>2025-08-16T07:59:48.000Z</time>
</trkpt>
<trkpt lat="45.9765820" lon="10.1890770">
	<ele>1851.80</ele>
	<time>2025-08-16T07:59:49.000Z</time>
</trkpt>
<trkpt lat="45.9765830" lon="10.1890640">
	<ele>1852.00</ele>
	<time>2025-08-16T07:59:50.000Z</time>
</trkpt>
<trkpt lat="45.9765780" lon="10.1890560">
	<ele>1852.20</ele>
	<time>2025-08-16T07:59:51.000Z</time>
</trkpt>
<trkpt lat="45.9765720" lon="10.1890470">
	<ele>1852.40</ele>
	<time>2025-08-16T07:59:52.000Z</time>
</trkpt>
<trkpt lat="45.9765630" lon="10.1890500">
	<ele>1852.80</ele>
	<time>2025-08-16T07:59:53.000Z</time>
</trkpt>
<trkpt lat="45.9765580" lon="10.1890590">
	<ele>1853.00</ele>
	<time>2025-08-16T07:59:54.000Z</time>
</trkpt>
<trkpt lat="45.9765510" lon="10.1890680">
	<ele>1853.20</ele>
	<time>2025-08-16T07:59:55.000Z</time>
</trkpt>
<trkpt lat="45.9765470" lon="10.1890660">
	<ele>1853.40</ele>
	<time>2025-08-16T07:59:56.000Z</time>
</trkpt>
<trkpt lat="45.9765410" lon="10.1890710">
	<ele>1853.60</ele>
	<time>2025-08-16T07:59:57.000Z</time>
</trkpt>
<trkpt lat="45.9765360" lon="10.1890800">
	<ele>1853.80</ele>
	<time>2025-08-16T07:59:58.000Z</time>
</trkpt>
<trkpt lat="45.9765290" lon="10.1890910">
	<ele>1854.00</ele>
	<time>2025-08-16T07:59:59.000Z</time>
</trkpt>
<trkpt lat="45.9765260" lon="10.1890980">
	<ele>1854.00</ele>
	<time>2025-08-16T08:00:00.000Z</time>
</trkpt>
<trkpt lat="45.9765230" lon="10.1891050">
	<ele>1854.20</ele>
	<time>2025-08-16T08:00:01.000Z</time>
</trkpt>
<trkpt lat="45.9765190" lon="10.1891090">
	<ele>1854.20</ele>
	<time>2025-08-16T08:00:02.000Z</time>
</trkpt>
<trkpt lat="45.9765180" lon="10.1891150">
	<ele>1854.40</ele>
	<time>2025-08-16T08:00:03.000Z</time>
</trkpt>
<trkpt lat="45.9765210" lon="10.1891190">
	<ele>1854.60</ele>
	<time>2025-08-16T08:00:04.000Z</time>
</trkpt>
<trkpt lat="45.9765200" lon="10.1891260">
	<ele>1854.80</ele>
	<time>2025-08-16T08:00:05.000Z</time>
</trkpt>
<trkpt lat="45.9765190" lon="10.1891280">
	<ele>1854.80</ele>
	<time>2025-08-16T08:00:06.000Z</time>
</trkpt>
<trkpt lat="45.9765160" lon="10.1891280">
	<ele>1854.80</ele>
	<time>2025-08-16T08:00:07.000Z</time>
</trkpt>
<trkpt lat="45.9765150" lon="10.1891280">
	<ele>1855.00</ele>
	<time>2025-08-16T08:00:08.000Z</time>
</trkpt>
<trkpt lat="45.9765130" lon="10.1891290">
	<ele>1855.40</ele>
	<time>2025-08-16T08:00:09.000Z</time>
</trkpt>
<trkpt lat="45.9765140" lon="10.1891300">
	<ele>1855.80</ele>
	<time>2025-08-16T08:00:10.000Z</time>
</trkpt>
<trkpt lat="45.9765160" lon="10.1891320">
	<ele>1856.00</ele>
	<time>2025-08-16T08:00:11.000Z</time>
</trkpt>
<trkpt lat="45.9765150" lon="10.1891320">
	<ele>1856.00</ele>
	<time>2025-08-16T08:00:12.000Z</time>
</trkpt>
<trkpt lat="45.9765150" lon="10.1891320">
	<ele>1856.20</ele>
	<time>2025-08-16T08:00:13.000Z</time>
</trkpt>
<trkpt lat="45.9765160" lon="10.1891320">
	<ele>1856.20</ele>
	<time>2025-08-16T08:00:14.000Z</time>
</trkpt>
<trkpt lat="45.9765160" lon="10.1891330">
	<ele>1856.20</ele>
	<time>2025-08-16T08:00:15.000Z</time>
</trkpt>
<trkpt lat="45.9765170" lon="10.1891330">
	<ele>1856.20</ele>
	<time>2025-08-16T08:00:16.000Z</time>
</trkpt>
<trkpt lat="45.9765180" lon="10.1891330">
	<ele>1856.40</ele>
	<time>2025-08-16T08:00:17.000Z</time>
</trkpt>
<trkpt lat="45.9765180" lon="10.1891320">
	<ele>1856.20</ele>
	<time>2025-08-16T08:00:18.000Z</time>
</trkpt>
<trkpt lat="45.9765180" lon="10.1891320">
	<ele>1856.40</ele>
	<time>2025-08-16T08:00:19.000Z</time>
</trkpt>
<trkpt lat="45.9765180" lon="10.1891320">
	<ele>1856.40</ele>
	<time>2025-08-16T08:00:20.000Z</time>
</trkpt>
<trkpt lat="45.9765180" lon="10.1891320">
	<ele>1856.40</ele>
	<time>2025-08-16T08:00:21.000Z</time>
</trkpt>
<trkpt lat="45.9765180" lon="10.1891320">
	<ele>1856.40</ele>
	<time>2025-08-16T08:00:22.000Z</time>
</trkpt>
<trkpt lat="45.9765150" lon="10.1891280">
	<ele>1856.40</ele>
	<time>2025-08-16T08:00:23.000Z</time>
</trkpt>
<trkpt lat="45.9765040" lon="10.1891110">
	<ele>1856.40</ele>
	<time>2025-08-16T08:00:24.000Z</time>
</trkpt>
<trkpt lat="45.9764920" lon="10.1890970">
	<ele>1856.40</ele>
	<time>2025-08-16T08:00:25.000Z</time>
</trkpt>
<trkpt lat="45.9764770" lon="10.1890840">
	<ele>1856.60</ele>
	<time>2025-08-16T08:00:26.000Z</time>
</trkpt>
<trkpt lat="45.9764610" lon="10.1890750">
	<ele>1856.60</ele>
	<time>2025-08-16T08:00:27.000Z</time>
</trkpt>
<trkpt lat="45.9764440" lon="10.1890650">
	<ele>1856.60</ele>
	<time>2025-08-16T08:00:28.000Z</time>
</trkpt>
<trkpt lat="45.9764290" lon="10.1890600">
	<ele>1856.60</ele>
	<time>2025-08-16T08:00:29.000Z</time>
</trkpt>
<trkpt lat="45.9764150" lon="10.1890550">
	<ele>1856.60</ele>
	<time>2025-08-16T08:00:30.000Z</time>
</trkpt>
<trkpt lat="45.9764000" lon="10.1890520">
	<ele>1856.60</ele>
	<time>2025-08-16T08:00:31.000Z</time>
</trkpt>
<trkpt lat="45.9763890" lon="10.1890480">
	<ele>1856.80</ele>
	<time>2025-08-16T08:00:32.000Z</time>
</trkpt>
<trkpt lat="45.9763790" lon="10.1890530">
	<ele>1856.80</ele>
	<time>2025-08-16T08:00:33.000Z</time>
</trkpt>
<trkpt lat="45.9763670" lon="10.1890590">
	<ele>1856.80</ele>
	<time>2025-08-16T08:00:34.000Z</time>
</trkpt>
<trkpt lat="45.9763610" lon="10.1890600">
	<ele>1856.80</ele>
	<time>2025-08-16T08:00:35.000Z</time>
</trkpt>
<trkpt lat="45.9763580" lon="10.1890610">
	<ele>1857.00</ele>
	<time>2025-08-16T08:00:36.000Z</time>
</trkpt>
<trkpt lat="45.9763560" lon="10.1890620">
	<ele>1857.00</ele>
	<time>2025-08-16T08:00:37.000Z</time>
</trkpt>
<trkpt lat="45.9763490" lon="10.1890600">
	<ele>1857.00</ele>
	<time>2025-08-16T08:00:38.000Z</time>
</trkpt>
<trkpt lat="45.9763380" lon="10.1890640">
	<ele>1857.20</ele>
	<time>2025-08-16T08:00:39.000Z</time>
</trkpt>
<trkpt lat="45.9763260" lon="10.1890680">
	<ele>1857.20</ele>
	<time>2025-08-16T08:00:40.000Z</time>
</trkpt>
<trkpt lat="45.9763130" lon="10.1890700">
	<ele>1857.20</ele>
	<time>2025-08-16T08:00:41.000Z</time>
</trkpt>
<trkpt lat="45.9763050" lon="10.1890700">
	<ele>1857.20</ele>
	<time>2025-08-16T08:00:42.000Z</time>
</trkpt>
<trkpt lat="45.9762960" lon="10.1890750">
	<ele>1857.20</ele>
	<time>2025-08-16T08:00:43.000Z</time>
</trkpt>
<trkpt lat="45.9762850" lon="10.1890770">
	<ele>1857.20</ele>
	<time>2025-08-16T08:00:44.000Z</time>
</trkpt>
<trkpt lat="45.9762740" lon="10.1890840">
	<ele>1857.00</ele>
	<time>2025-08-16T08:00:45.000Z</time>
</trkpt>
<trkpt lat="45.9762620" lon="10.1890890">
	<ele>1857.00</ele>
	<time>2025-08-16T08:00:46.000Z</time>
</trkpt>
<trkpt lat="45.9762540" lon="10.1890870">
	<ele>1857.00</ele>
	<time>2025-08-16T08:00:47.000Z</time>
</trkpt>
<trkpt lat="45.9762420" lon="10.1890910">
	<ele>1857.00</ele>
	<time>2025-08-16T08:00:48.000Z</time>
</trkpt>
<trkpt lat="45.9762310" lon="10.1891060">
	<ele>1857.00</ele>
	<time>2025-08-16T08:00:49.000Z</time>
</trkpt>
<trkpt lat="45.9762210" lon="10.1891230">
	<ele>1857.00</ele>
	<time>2025-08-16T08:00:50.000Z</time>
</trkpt>
<trkpt lat="45.9762110" lon="10.1891380">
	<ele>1857.00</ele>
	<time>2025-08-16T08:00:51.000Z</time>
</trkpt>
<trkpt lat="45.9762000" lon="10.1891430">
	<ele>1857.00</ele>
	<time>2025-08-16T08:00:52.000Z</time>
</trkpt>
<trkpt lat="45.9761920" lon="10.1891490">
	<ele>1857.20</ele>
	<time>2025-08-16T08:00:53.000Z</time>
</trkpt>
<trkpt lat="45.9761870" lon="10.1891570">
	<ele>1857.20</ele>
	<time>2025-08-16T08:00:54.000Z</time>
</trkpt>
<trkpt lat="45.9761800" lon="10.1891700">
	<ele>1857.20</ele>
	<time>2025-08-16T08:00:55.000Z</time>
</trkpt>
<trkpt lat="45.9761680" lon="10.1891810">
	<ele>1857.20</ele>
	<time>2025-08-16T08:00:56.000Z</time>
</trkpt>
<trkpt lat="45.9761580" lon="10.1891870">
	<ele>1857.40</ele>
	<time>2025-08-16T08:00:57.000Z</time>
</trkpt>
<trkpt lat="45.9761460" lon="10.1891910">
	<ele>1857.40</ele>
	<time>2025-08-16T08:00:58.000Z</time>
</trkpt>
<trkpt lat="45.9761330" lon="10.1891970">
	<ele>1857.40</ele>
	<time>2025-08-16T08:00:59.000Z</time>
</trkpt>
<trkpt lat="45.9761220" lon="10.1892080">
	<ele>1857.40</ele>
	<time>2025-08-16T08:01:00.000Z</time>
</trkpt>
<trkpt lat="45.9761100" lon="10.1892180">
	<ele>1857.40</ele>
	<time>2025-08-16T08:01:01.000Z</time>
</trkpt>
<trkpt lat="45.9761010" lon="10.1892270">
	<ele>1857.40</ele>
	<time>2025-08-16T08:01:02.000Z</time>
</trkpt>
<trkpt lat="45.9760920" lon="10.1892330">
	<ele>1857.40</ele>
	<time>2025-08-16T08:01:03.000Z</time>
</trkpt>
<trkpt lat="45.9760800" lon="10.1892440">
	<ele>1857.40</ele>
	<time>2025-08-16T08:01:04.000Z</time>
</trkpt>
<trkpt lat="45.9760680" lon="10.1892530">
	<ele>1857.60</ele>
	<time>2025-08-16T08:01:05.000Z</time>
</trkpt>
<trkpt lat="45.9760570" lon="10.1892540">
	<ele>1857.60</ele>
	<time>2025-08-16T08:01:06.000Z</time>
</trkpt>
<trkpt lat="45.9760480" lon="10.1892520">
	<ele>1857.60</ele>
	<time>2025-08-16T08:01:07.000Z</time>
</trkpt>
<trkpt lat="45.9760430" lon="10.1892500">
	<ele>1857.80</ele>
	<time>2025-08-16T08:01:08.000Z</time>
</trkpt>
<trkpt lat="45.9760400" lon="10.1892510">
	<ele>1857.80</ele>
	<time>2025-08-16T08:01:09.000Z</time>
</trkpt>
<trkpt lat="45.9760370" lon="10.1892570">
	<ele>1858.00</ele>
	<time>2025-08-16T08:01:10.000Z</time>
</trkpt>
<trkpt lat="45.9760290" lon="10.1892690">
	<ele>1858.20</ele>
	<time>2025-08-16T08:01:11.000Z</time>
</trkpt>
<trkpt lat="45.9760250" lon="10.1892810">
	<ele>1858.40</ele>
	<time>2025-08-16T08:01:12.000Z</time>
</trkpt>
<trkpt lat="45.9760200" lon="10.1892950">
	<ele>1858.60</ele>
	<time>2025-08-16T08:01:13.000Z</time>
</trkpt>
<trkpt lat="45.9760110" lon="10.1893090">
	<ele>1858.80</ele>
	<time>2025-08-16T08:01:14.000Z</time>
</trkpt>
<trkpt lat="45.9760030" lon="10.1893160">
	<ele>1859.00</ele>
	<time>2025-08-16T08:01:15.000Z</time>
</trkpt>
<trkpt lat="45.9759920" lon="10.1893240">
	<ele>1859.00</ele>
	<time>2025-08-16T08:01:16.000Z</time>
</trkpt>
<trkpt lat="45.9759860" lon="10.1893290">
	<ele>1859.20</ele>
	<time>2025-08-16T08:01:17.000Z</time>
</trkpt>
<trkpt lat="45.9759760" lon="10.1893370">
	<ele>1859.40</ele>
	<time>2025-08-16T08:01:18.000Z</time>
</trkpt>
<trkpt lat="45.9759670" lon="10.1893470">
	<ele>1859.40</ele>
	<time>2025-08-16T08:01:19.000Z</time>
</trkpt>
<trkpt lat="45.9759580" lon="10.1893570">
	<ele>1859.40</ele>
	<time>2025-08-16T08:01:20.000Z</time>
</trkpt>
<trkpt lat="45.9759460" lon="10.1893700">
	<ele>1859.40</ele>
	<time>2025-08-16T08:01:21.000Z</time>
</trkpt>
<trkpt lat="45.9759340" lon="10.1893810">
	<ele>1859.40</ele>
	<time>2025-08-16T08:01:22.000Z</time>
</trkpt>
<trkpt lat="45.9759250" lon="10.1893950">
	<ele>1859.20</ele>
	<time>2025-08-16T08:01:23.000Z</time>
</trkpt>
<trkpt lat="45.9759170" lon="10.1894070">
	<ele>1859.20</ele>
	<time>2025-08-16T08:01:24.000Z</time>
</trkpt>
<trkpt lat="45.9759100" lon="10.1894190">
	<ele>1859.20</ele>
	<time>2025-08-16T08:01:25.000Z</time>
</trkpt>
<trkpt lat="45.9759040" lon="10.1894230">
	<ele>1859.20</ele>
	<time>2025-08-16T08:01:26.000Z</time>
</trkpt>
<trkpt lat="45.9759000" lon="10.1894270">
	<ele>1859.40</ele>
	<time>2025-08-16T08:01:27.000Z</time>
</trkpt>
<trkpt lat="45.9758960" lon="10.1894310">
	<ele>1859.40</ele>
	<time>2025-08-16T08:01:28.000Z</time>
</trkpt>
<trkpt lat="45.9758910" lon="10.1894360">
	<ele>1859.60</ele>
	<time>2025-08-16T08:01:29.000Z</time>
</trkpt>
<trkpt lat="45.9758890" lon="10.1894400">
	<ele>1860.00</ele>
	<time>2025-08-16T08:01:30.000Z</time>
</trkpt>
<trkpt lat="45.9758880" lon="10.1894430">
	<ele>1860.20</ele>
	<time>2025-08-16T08:01:31.000Z</time>
</trkpt>
<trkpt lat="45.9758880" lon="10.1894440">
	<ele>1860.40</ele>
	<time>2025-08-16T08:01:32.000Z</time>
</trkpt>
<trkpt lat="45.9758880" lon="10.1894440">
	<ele>1860.60</ele>
	<time>2025-08-16T08:01:33.000Z</time>
</trkpt>
<trkpt lat="45.9758880" lon="10.1894500">
	<ele>1860.80</ele>
	<time>2025-08-16T08:01:34.000Z</time>
</trkpt>
<trkpt lat="45.9758870" lon="10.1894520">
	<ele>1860.80</ele>
	<time>2025-08-16T08:01:35.000Z</time>
</trkpt>
<trkpt lat="45.9758870" lon="10.1894550">
	<ele>1860.80</ele>
	<time>2025-08-16T08:01:36.000Z</time>
</trkpt>
<trkpt lat="45.9758810" lon="10.1894640">
	<ele>1861.00</ele>
	<time>2025-08-16T08:01:37.000Z</time>
</trkpt>
<trkpt lat="45.9758770" lon="10.1894650">
	<ele>1860.80</ele>
	<time>2025-08-16T08:01:38.000Z</time>
</trkpt>
<trkpt lat="45.9758690" lon="10.1894690">
	<ele>1861.00</ele>
	<time>2025-08-16T08:01:39.000Z</time>
</trkpt>
<trkpt lat="45.9758600" lon="10.1894770">
	<ele>1861.00</ele>
	<time>2025-08-16T08:01:40.000Z</time>
</trkpt>
<trkpt lat="45.9758500" lon="10.1894810">
	<ele>1861.00</ele>
	<time>2025-08-16T08:01:41.000Z</time>
</trkpt>
<trkpt lat="45.9758380" lon="10.1894880">
	<ele>1861.00</ele>
	<time>2025-08-16T08:01:42.000Z</time>
</trkpt>
<trkpt lat="45.9758290" lon="10.1894980">
	<ele>1861.00</ele>
	<time>2025-08-16T08:01:43.000Z</time>
</trkpt>
<trkpt lat="45.9758190" lon="10.1895080">
	<ele>1861.20</ele>
	<time>2025-08-16T08:01:44.000Z</time>
</trkpt>
<trkpt lat="45.9758110" lon="10.1895210">
	<ele>1861.20</ele>
	<time>2025-08-16T08:01:45.000Z</time>
</trkpt>
<trkpt lat="45.9758040" lon="10.1895380">
	<ele>1861.20</ele>
	<time>2025-08-16T08:01:46.000Z</time>
</trkpt>
<trkpt lat="45.9758010" lon="10.1895520">
	<ele>1861.00</ele>
	<time>2025-08-16T08:01:47.000Z</time>
</trkpt>
<trkpt lat="45.9757980" lon="10.1895690">
	<ele>1861.00</ele>
	<time>2025-08-16T08:01:48.000Z</time>
</trkpt>
<trkpt lat="45.9757930" lon="10.1895850">
	<ele>1860.80</ele>
	<time>2025-08-16T08:01:49.000Z</time>
</trkpt>
<trkpt lat="45.9757880" lon="10.1896000">
	<ele>1860.60</ele>
	<time>2025-08-16T08:01:50.000Z</time>
</trkpt>
<trkpt lat="45.9757830" lon="10.1896130">
	<ele>1860.40</ele>
	<time>2025-08-16T08:01:51.000Z</time>
</trkpt>
<trkpt lat="45.9757750" lon="10.1896170">
	<ele>1860.00</ele>
	<time>2025-08-16T08:01:52.000Z</time>
</trkpt>
<trkpt lat="45.9757660" lon="10.1896190">
	<ele>1859.80</ele>
	<time>2025-08-16T08:01:53.000Z</time>
</trkpt>
<trkpt lat="45.9757570" lon="10.1896140">
	<ele>1859.60</ele>
	<time>2025-08-16T08:01:54.000Z</time>
</trkpt>
<trkpt lat="45.9757490" lon="10.1896080">
	<ele>1859.20</ele>
	<time>2025-08-16T08:01:55.000Z</time>
</trkpt>
<trkpt lat="45.9757400" lon="10.1896040">
	<ele>1859.20</ele>
	<time>2025-08-16T08:01:56.000Z</time>
</trkpt>
<trkpt lat="45.9757280" lon="10.1896090">
	<ele>1859.00</ele>
	<time>2025-08-16T08:01:57.000Z</time>
</trkpt>
<trkpt lat="45.9757190" lon="10.1896150">
	<ele>1858.80</ele>
	<time>2025-08-16T08:01:58.000Z</time>
</trkpt>
<trkpt lat="45.9757140" lon="10.1896200">
	<ele>1858.80</ele>
	<time>2025-08-16T08:01:59.000Z</time>
</trkpt>
<trkpt lat="45.9757040" lon="10.1896320">
	<ele>1858.60</ele>
	<time>2025-08-16T08:02:00.000Z</time>
</trkpt>
<trkpt lat="45.9756910" lon="10.1896420">
	<ele>1858.60</ele>
	<time>2025-08-16T08:02:01.000Z</time>
</trkpt>
<trkpt lat="45.9756770" lon="10.1896450">
	<ele>1858.40</ele>
	<time>2025-08-16T08:02:02.000Z</time>
</trkpt>
<trkpt lat="45.9756640" lon="10.1896480">
	<ele>1858.20</ele>
	<time>2025-08-16T08:02:03.000Z</time>
</trkpt>
<trkpt lat="45.9756500" lon="10.1896560">
	<ele>1858.00</ele>
	<time>2025-08-16T08:02:04.000Z</time>
</trkpt>
<trkpt lat="45.9756420" lon="10.1896620">
	<ele>1858.00</ele>
	<time>2025-08-16T08:02:05.000Z</time>
</trkpt>
<trkpt lat="45.9756380" lon="10.1896730">
	<ele>1857.80</ele>
	<time>2025-08-16T08:02:06.000Z</time>
</trkpt>
<trkpt lat="45.9756320" lon="10.1896830">
	<ele>1857.60</ele>
	<time>2025-08-16T08:02:07.000Z</time>
</trkpt>
<trkpt lat="45.9756230" lon="10.1896950">
	<ele>1857.60</ele>
	<time>2025-08-16T08:02:08.000Z</time>
</trkpt>
<trkpt lat="45.9756150" lon="10.1897010">
	<ele>1857.60</ele>
	<time>2025-08-16T08:02:09.000Z</time>
</trkpt>
<trkpt lat="45.9756030" lon="10.1897130">
	<ele>1857.60</ele>
	<time>2025-08-16T08:02:10.000Z</time>
</trkpt>
<trkpt lat="45.9755920" lon="10.1897230">
	<ele>1857.40</ele>
	<time>2025-08-16T08:02:11.000Z</time>
</trkpt>
<trkpt lat="45.9755810" lon="10.1897320">
	<ele>1857.40</ele>
	<time>2025-08-16T08:02:12.000Z</time>
</trkpt>
<trkpt lat="45.9755720" lon="10.1897390">
	<ele>1857.40</ele>
	<time>2025-08-16T08:02:13.000Z</time>
</trkpt>
<trkpt lat="45.9755640" lon="10.1897500">
	<ele>1857.40</ele>
	<time>2025-08-16T08:02:14.000Z</time>
</trkpt>
<trkpt lat="45.9755510" lon="10.1897600">
	<ele>1857.40</ele>
	<time>2025-08-16T08:02:15.000Z</time>
</trkpt>
<trkpt lat="45.9755460" lon="10.1897640">
	<ele>1857.40</ele>
	<time>2025-08-16T08:02:16.000Z</time>
</trkpt>
<trkpt lat="45.9755380" lon="10.1897710">
	<ele>1857.40</ele>
	<time>2025-08-16T08:02:17.000Z</time>
</trkpt>
<trkpt lat="45.9755310" lon="10.1897780">
	<ele>1857.20</ele>
	<time>2025-08-16T08:02:18.000Z</time>
</trkpt>
<trkpt lat="45.9755200" lon="10.1897900">
	<ele>1857.20</ele>
	<time>2025-08-16T08:02:19.000Z</time>
</trkpt>
<trkpt lat="45.9755070" lon="10.1898010">
	<ele>1857.20</ele>
	<time>2025-08-16T08:02:20.000Z</time>
</trkpt>
<trkpt lat="45.9754990" lon="10.1898090">
	<ele>1857.20</ele>
	<time>2025-08-16T08:02:21.000Z</time>
</trkpt>
<trkpt lat="45.9754890" lon="10.1898130">
	<ele>1857.20</ele>
	<time>2025-08-16T08:02:22.000Z</time>
</trkpt>
<trkpt lat="45.9754800" lon="10.1898120">
	<ele>1857.20</ele>
	<time>2025-08-16T08:02:23.000Z</time>
</trkpt>
<trkpt lat="45.9754690" lon="10.1898180">
	<ele>1857.20</ele>
	<time>2025-08-16T08:02:24.000Z</time>
</trkpt>
<trkpt lat="45.9754600" lon="10.1898240">
	<ele>1857.40</ele>
	<time>2025-08-16T08:02:25.000Z</time>
</trkpt>
<trkpt lat="45.9754510" lon="10.1898310">
	<ele>1857.40</ele>
	<time>2025-08-16T08:02:26.000Z</time>
</trkpt>
<trkpt lat="45.9754410" lon="10.1898370">
	<ele>1857.40</ele>
	<time>2025-08-16T08:02:27.000Z</time>
</trkpt>
<trkpt lat="45.9754310" lon="10.1898400">
	<ele>1857.40</ele>
	<time>2025-08-16T08:02:28.000Z</time>
</trkpt>
<trkpt lat="45.9754160" lon="10.1898410">
	<ele>1857.20</ele>
	<time>2025-08-16T08:02:29.000Z</time>
</trkpt>
<trkpt lat="45.9754020" lon="10.1898390">
	<ele>1857.20</ele>
	<time>2025-08-16T08:02:30.000Z</time>
</trkpt>
<trkpt lat="45.9753920" lon="10.1898460">
	<ele>1857.20</ele>
	<time>2025-08-16T08:02:31.000Z</time>
</trkpt>
<trkpt lat="45.9753790" lon="10.1898600">
	<ele>1857.00</ele>
	<time>2025-08-16T08:02:32.000Z</time>
</trkpt>
<trkpt lat="45.9753690" lon="10.1898600">
	<ele>1857.00</ele>
	<time>2025-08-16T08:02:33.000Z</time>
</trkpt>
<trkpt lat="45.9753590" lon="10.1898600">
	<ele>1857.00</ele>
	<time>2025-08-16T08:02:34.000Z</time>
</trkpt>
<trkpt lat="45.9753480" lon="10.1898720">
	<ele>1857.00</ele>
	<time>2025-08-16T08:02:35.000Z</time>
</trkpt>
<trkpt lat="45.9753400" lon="10.1898810">
	<ele>1857.00</ele>
	<time>2025-08-16T08:02:36.000Z</time>
</trkpt>
<trkpt lat="45.9753330" lon="10.1898890">
	<ele>1857.00</ele>
	<time>2025-08-16T08:02:37.000Z</time>
</trkpt>
<trkpt lat="45.9753280" lon="10.1898880">
	<ele>1857.00</ele>
	<time>2025-08-16T08:02:38.000Z</time>
</trkpt>
<trkpt lat="45.9753190" lon="10.1898900">
	<ele>1857.00</ele>
	<time>2025-08-16T08:02:39.000Z</time>
</trkpt>
<trkpt lat="45.9753110" lon="10.1898870">
	<ele>1857.00</ele>
	<time>2025-08-16T08:02:40.000Z</time>
</trkpt>
<trkpt lat="45.9753000" lon="10.1898860">
	<ele>1857.20</ele>
	<time>2025-08-16T08:02:41.000Z</time>
</trkpt>
<trkpt lat="45.9752900" lon="10.1898950">
	<ele>1857.20</ele>
	<time>2025-08-16T08:02:42.000Z</time>
</trkpt>
<trkpt lat="45.9752850" lon="10.1899050">
	<ele>1857.40</ele>
	<time>2025-08-16T08:02:43.000Z</time>
</trkpt>
<trkpt lat="45.9752770" lon="10.1899180">
	<ele>1857.60</ele>
	<time>2025-08-16T08:02:44.000Z</time>
</trkpt>
<trkpt lat="45.9752660" lon="10.1899270">
	<ele>1857.60</ele>
	<time>2025-08-16T08:02:45.000Z</time>
</trkpt>
<trkpt lat="45.9752550" lon="10.1899340">
	<ele>1857.80</ele>
	<time>2025-08-16T08:02:46.000Z</time>
</trkpt>
<trkpt lat="45.9752450" lon="10.1899370">
	<ele>1857.80</ele>
	<time>2025-08-16T08:02:47.000Z</time>
</trkpt>
<trkpt lat="45.9752340" lon="10.1899390">
	<ele>1857.80</ele>
	<time>2025-08-16T08:02:48.000Z</time>
</trkpt>
<trkpt lat="45.9752250" lon="10.1899420">
	<ele>1857.80</ele>
	<time>2025-08-16T08:02:49.000Z</time>
</trkpt>
<trkpt lat="45.9752190" lon="10.1899440">
	<ele>1858.00</ele>
	<time>2025-08-16T08:02:50.000Z</time>
</trkpt>
<trkpt lat="45.9752080" lon="10.1899460">
	<ele>1857.80</ele>
	<time>2025-08-16T08:02:51.000Z</time>
</trkpt>
<trkpt lat="45.9751980" lon="10.1899510">
	<ele>1857.80</ele>
	<time>2025-08-16T08:02:52.000Z</time>
</trkpt>
<trkpt lat="45.9751940" lon="10.1899510">
	<ele>1857.80</ele>
	<time>2025-08-16T08:02:53.000Z</time>
</trkpt>
<trkpt lat="45.9751910" lon="10.1899510">
	<ele>1857.60</ele>
	<time>2025-08-16T08:02:54.000Z</time>
</trkpt>
<trkpt lat="45.9751900" lon="10.1899500">
	<ele>1857.40</ele>
	<time>2025-08-16T08:02:55.000Z</time>
</trkpt>
<trkpt lat="45.9751910" lon="10.1899500">
	<ele>1857.20</ele>
	<time>2025-08-16T08:02:56.000Z</time>
</trkpt>
<trkpt lat="45.9751930" lon="10.1899490">
	<ele>1857.20</ele>
	<time>2025-08-16T08:02:57.000Z</time>
</trkpt>
<trkpt lat="45.9751950" lon="10.1899460">
	<ele>1857.00</ele>
	<time>2025-08-16T08:02:58.000Z</time>
</trkpt>
<trkpt lat="45.9751950" lon="10.1899470">
	<ele>1857.20</ele>
	<time>2025-08-16T08:02:59.000Z</time>
</trkpt>
<trkpt lat="45.9751950" lon="10.1899480">
	<ele>1857.20</ele>
	<time>2025-08-16T08:03:00.000Z</time>
</trkpt>
<trkpt lat="45.9751960" lon="10.1899480">
	<ele>1857.20</ele>
	<time>2025-08-16T08:03:01.000Z</time>
</trkpt>
<trkpt lat="45.9751980" lon="10.1899490">
	<ele>1857.20</ele>
	<time>2025-08-16T08:03:02.000Z</time>
</trkpt>
<trkpt lat="45.9751980" lon="10.1899490">
	<ele>1857.20</ele>
	<time>2025-08-16T08:03:03.000Z</time>
</trkpt>
<trkpt lat="45.9751990" lon="10.1899480">
	<ele>1857.20</ele>
	<time>2025-08-16T08:03:04.000Z</time>
</trkpt>
<trkpt lat="45.9751990" lon="10.1899500">
	<ele>1857.20</ele>
	<time>2025-08-16T08:03:05.000Z</time>
</trkpt>
<trkpt lat="45.9751960" lon="10.1899530">
	<ele>1857.00</ele>
	<time>2025-08-16T08:03:06.000Z</time>
</trkpt>
<trkpt lat="45.9751960" lon="10.1899520">
	<ele>1857.00</ele>
	<time>2025-08-16T08:03:07.000Z</time>
</trkpt>
<trkpt lat="45.9751960" lon="10.1899490">
	<ele>1857.20</ele>
	<time>2025-08-16T08:03:08.000Z</time>
</trkpt>
<trkpt lat="45.9751970" lon="10.1899480">
	<ele>1857.20</ele>
	<time>2025-08-16T08:03:09.000Z</time>
</trkpt>
<trkpt lat="45.9751960" lon="10.1899520">
	<ele>1857.20</ele>
	<time>2025-08-16T08:03:10.000Z</time>
</trkpt>
<trkpt lat="45.9751950" lon="10.1899570">
	<ele>1857.20</ele>
	<time>2025-08-16T08:03:11.000Z</time>
</trkpt>
<trkpt lat="45.9751950" lon="10.1899590">
	<ele>1857.20</ele>
	<time>2025-08-16T08:03:12.000Z</time>
</trkpt>
<trkpt lat="45.9751940" lon="10.1899600">
	<ele>1857.20</ele>
	<time>2025-08-16T08:03:13.000Z</time>
</trkpt>
<trkpt lat="45.9751940" lon="10.1899600">
	<ele>1857.20</ele>
	<time>2025-08-16T08:03:14.000Z</time>
</trkpt>
<trkpt lat="45.9751940" lon="10.1899600">
	<ele>1857.20</ele>
	<time>2025-08-16T08:03:15.000Z</time>
</trkpt>
<trkpt lat="45.9751940" lon="10.1899600">
	<ele>1857.40</ele>
	<time>2025-08-16T08:03:16.000Z</time>
</trkpt>
<trkpt lat="45.9751940" lon="10.1899600">
	<ele>1857.20</ele>
	<time>2025-08-16T08:03:17.000Z</time>
</trkpt>
<trkpt lat="45.9751910" lon="10.1899600">
	<ele>1857.20</ele>
	<time>2025-08-16T08:03:18.000Z</time>
</trkpt>
<trkpt lat="45.9751720" lon="10.1899530">
	<ele>1857.00</ele>
	<time>2025-08-16T08:03:19.000Z</time>
</trkpt>
<trkpt lat="45.9751540" lon="10.1899480">
	<ele>1857.00</ele>
	<time>2025-08-16T08:03:20.000Z</time>
</trkpt>
<trkpt lat="45.9751370" lon="10.1899470">
	<ele>1857.00</ele>
	<time>2025-08-16T08:03:21.000Z</time>
</trkpt>
<trkpt lat="45.9751170" lon="10.1899490">
	<ele>1857.00</ele>
	<time>2025-08-16T08:03:22.000Z</time>
</trkpt>
<trkpt lat="45.9751010" lon="10.1899530">
	<ele>1857.00</ele>
	<time>2025-08-16T08:03:23.000Z</time>
</trkpt>
<trkpt lat="45.9750860" lon="10.1899560">
	<ele>1857.00</ele>
	<time>2025-08-16T08:03:24.000Z</time>
</trkpt>
<trkpt lat="45.9750780" lon="10.1899540">
	<ele>1857.00</ele>
	<time>2025-08-16T08:03:25.000Z</time>
</trkpt>
<trkpt lat="45.9750700" lon="10.1899510">
	<ele>1857.00</ele>
	<time>2025-08-16T08:03:26.000Z</time>
</trkpt>
<trkpt lat="45.9750540" lon="10.1899580">
	<ele>1857.00</ele>
	<time>2025-08-16T08:03:27.000Z</time>
</trkpt>
<trkpt lat="45.9750400" lon="10.1899590">
	<ele>1857.20</ele>
	<time>2025-08-16T08:03:28.000Z</time>
</trkpt>
<trkpt lat="45.9750260" lon="10.1899510">
	<ele>1857.20</ele>
	<time>2025-08-16T08:03:29.000Z</time>
</trkpt>
<trkpt lat="45.9750180" lon="10.1899490">
	<ele>1857.20</ele>
	<time>2025-08-16T08:03:30.000Z</time>
</trkpt>
<trkpt lat="45.9750060" lon="10.1899360">
	<ele>1857.20</ele>
	<time>2025-08-16T08:03:31.000Z</time>
</trkpt>
<trkpt lat="45.9749910" lon="10.1899270">
	<ele>1857.20</ele>
	<time>2025-08-16T08:03:32.000Z</time>
</trkpt>
<trkpt lat="45.9749810" lon="10.1899140">
	<ele>1857.20</ele>
	<time>2025-08-16T08:03:33.000Z</time>
</trkpt>
<trkpt lat="45.9749770" lon="10.1899040">
	<ele>1857.20</ele>
	<time>2025-08-16T08:03:34.000Z</time>
</trkpt>
<trkpt lat="45.9749680" lon="10.1898990">
	<ele>1857.00</ele>
	<time>2025-08-16T08:03:35.000Z</time>
</trkpt>
<trkpt lat="45.9749540" lon="10.1898960">
	<ele>1857.00</ele>
	<time>2025-08-16T08:03:36.000Z</time>
</trkpt>
<trkpt lat="45.9749430" lon="10.1898940">
	<ele>1857.00</ele>
	<time>2025-08-16T08:03:37.000Z</time>
</trkpt>
<trkpt lat="45.9749330" lon="10.1898940">
	<ele>1857.00</ele>
	<time>2025-08-16T08:03:38.000Z</time>
</trkpt>
<trkpt lat="45.9749250" lon="10.1898920">
	<ele>1856.80</ele>
	<time>2025-08-16T08:03:39.000Z</time>
</trkpt>
<trkpt lat="45.9749170" lon="10.1898900">
	<ele>1856.80</ele>
	<time>2025-08-16T08:03:40.000Z</time>
</trkpt>
<trkpt lat="45.9749080" lon="10.1898870">
	<ele>1857.00</ele>
	<time>2025-08-16T08:03:41.000Z</time>
</trkpt>
<trkpt lat="45.9748960" lon="10.1898780">
	<ele>1857.00</ele>
	<time>2025-08-16T08:03:42.000Z</time>
</trkpt>
<trkpt lat="45.9748920" lon="10.1898660">
	<ele>1857.00</ele>
	<time>2025-08-16T08:03:43.000Z</time>
</trkpt>
<trkpt lat="45.9748840" lon="10.1898520">
	<ele>1857.00</ele>
	<time>2025-08-16T08:03:44.000Z</time>
</trkpt>
<trkpt lat="45.9748770" lon="10.1898510">
	<ele>1857.00</ele>
	<time>2025-08-16T08:03:45.000Z</time>
</trkpt>
<trkpt lat="45.9748670" lon="10.1898510">
	<ele>1857.00</ele>
	<time>2025-08-16T08:03:46.000Z</time>
</trkpt>
<trkpt lat="45.9748520" lon="10.1898540">
	<ele>1857.00</ele>
	<time>2025-08-16T08:03:47.000Z</time>
</trkpt>
<trkpt lat="45.9748400" lon="10.1898470">
	<ele>1857.00</ele>
	<time>2025-08-16T08:03:48.000Z</time>
</trkpt>
<trkpt lat="45.9748310" lon="10.1898400">
	<ele>1857.00</ele>
	<time>2025-08-16T08:03:49.000Z</time>
</trkpt>
<trkpt lat="45.9748210" lon="10.1898360">
	<ele>1857.00</ele>
	<time>2025-08-16T08:03:50.000Z</time>
</trkpt>
<trkpt lat="45.9748110" lon="10.1898370">
	<ele>1857.00</ele>
	<time>2025-08-16T08:03:51.000Z</time>
</trkpt>
<trkpt lat="45.9748010" lon="10.1898360">
	<ele>1857.00</ele>
	<time>2025-08-16T08:03:52.000Z</time>
</trkpt>
<trkpt lat="45.9747880" lon="10.1898330">
	<ele>1856.80</ele>
	<time>2025-08-16T08:03:53.000Z</time>
</trkpt>
<trkpt lat="45.9747740" lon="10.1898280">
	<ele>1856.40</ele>
	<time>2025-08-16T08:03:54.000Z</time>
</trkpt>
<trkpt lat="45.9747650" lon="10.1898230">
	<ele>1856.20</ele>
	<time>2025-08-16T08:03:55.000Z</time>
</trkpt>
<trkpt lat="45.9747500" lon="10.1898180">
	<ele>1856.20</ele>
	<time>2025-08-16T08:03:56.000Z</time>
</trkpt>
<trkpt lat="45.9747410" lon="10.1898140">
	<ele>1856.00</ele>
	<time>2025-08-16T08:03:57.000Z</time>
</trkpt>
<trkpt lat="45.9747320" lon="10.1898110">
	<ele>1856.00</ele>
	<time>2025-08-16T08:03:58.000Z</time>
</trkpt>
<trkpt lat="45.9747200" lon="10.1898040">
	<ele>1856.00</ele>
	<time>2025-08-16T08:03:59.000Z</time>
</trkpt>
<trkpt lat="45.9747140" lon="10.1898000">
	<ele>1855.80</ele>
	<time>2025-08-16T08:04:00.000Z</time>
</trkpt>
<trkpt lat="45.9747020" lon="10.1897950">
	<ele>1855.80</ele>
	<time>2025-08-16T08:04:01.000Z</time>
</trkpt>
<trkpt lat="45.9746900" lon="10.1897890">
	<ele>1855.60</ele>
	<time>2025-08-16T08:04:02.000Z</time>
</trkpt>
<trkpt lat="45.9746780" lon="10.1897810">
	<ele>1855.60</ele>
	<time>2025-08-16T08:04:03.000Z</time>
</trkpt>
<trkpt lat="45.9746660" lon="10.1897750">
	<ele>1855.60</ele>
	<time>2025-08-16T08:04:04.000Z</time>
</trkpt>
<trkpt lat="45.9746540" lon="10.1897670">
	<ele>1855.40</ele>
	<time>2025-08-16T08:04:05.000Z</time>
</trkpt>
<trkpt lat="45.9746430" lon="10.1897600">
	<ele>1855.20</ele>
	<time>2025-08-16T08:04:06.000Z</time>
</trkpt>
<trkpt lat="45.9746330" lon="10.1897500">
	<ele>1855.00</ele>
	<time>2025-08-16T08:04:07.000Z</time>
</trkpt>
<trkpt lat="45.9746240" lon="10.1897410">
	<ele>1854.80</ele>
	<time>2025-08-16T08:04:08.000Z</time>
</trkpt>
<trkpt lat="45.9746130" lon="10.1897310">
	<ele>1854.60</ele>
	<time>2025-08-16T08:04:09.000Z</time>
</trkpt>
<trkpt lat="45.9746050" lon="10.1897210">
	<ele>1854.40</ele>
	<time>2025-08-16T08:04:10.000Z</time>
</trkpt>
<trkpt lat="45.9745930" lon="10.1897150">
	<ele>1854.20</ele>
	<time>2025-08-16T08:04:11.000Z</time>
</trkpt>
<trkpt lat="45.9745820" lon="10.1897060">
	<ele>1854.20</ele>
	<time>2025-08-16T08:04:12.000Z</time>
</trkpt>
<trkpt lat="45.9745680" lon="10.1896990">
	<ele>1854.00</ele>
	<time>2025-08-16T08:04:13.000Z</time>
</trkpt>
<trkpt lat="45.9745550" lon="10.1896950">
	<ele>1853.80</ele>
	<time>2025-08-16T08:04:14.000Z</time>
</trkpt>
<trkpt lat="45.9745420" lon="10.1896890">
	<ele>1853.80</ele>
	<time>2025-08-16T08:04:15.000Z</time>
</trkpt>
<trkpt lat="45.9745300" lon="10.1896830">
	<ele>1853.60</ele>
	<time>2025-08-16T08:04:16.000Z</time>
</trkpt>
<trkpt lat="45.9745190" lon="10.1896760">
	<ele>1853.40</ele>
	<time>2025-08-16T08:04:17.000Z</time>
</trkpt>
<trkpt lat="45.9745130" lon="10.1896760">
	<ele>1853.20</ele>
	<time>2025-08-16T08:04:18.000Z</time>
</trkpt>
<trkpt lat="45.9745080" lon="10.1896720">
	<ele>1853.20</ele>
	<time>2025-08-16T08:04:19.000Z</time>
</trkpt>
<trkpt lat="45.9745060" lon="10.1896730">
	<ele>1853.00</ele>
	<time>2025-08-16T08:04:20.000Z</time>
</trkpt>
<trkpt lat="45.9745040" lon="10.1896730">
	<ele>1852.80</ele>
	<time>2025-08-16T08:04:21.000Z</time>
</trkpt>
<trkpt lat="45.9745010" lon="10.1896720">
	<ele>1852.80</ele>
	<time>2025-08-16T08:04:22.000Z</time>
</trkpt>
<trkpt lat="45.9745000" lon="10.1896710">
	<ele>1852.80</ele>
	<time>2025-08-16T08:04:23.000Z</time>
</trkpt>
<trkpt lat="45.9744980" lon="10.1896720">
	<ele>1852.80</ele>
	<time>2025-08-16T08:04:24.000Z</time>
</trkpt>
<trkpt lat="45.9744960" lon="10.1896720">
	<ele>1852.80</ele>
	<time>2025-08-16T08:04:25.000Z</time>
</trkpt>
<trkpt lat="45.9744910" lon="10.1896670">
	<ele>1853.00</ele>
	<time>2025-08-16T08:04:26.000Z</time>
</trkpt>
<trkpt lat="45.9744810" lon="10.1896550">
	<ele>1853.00</ele>
	<time>2025-08-16T08:04:27.000Z</time>
</trkpt>
<trkpt lat="45.9744700" lon="10.1896430">
	<ele>1853.00</ele>
	<time>2025-08-16T08:04:28.000Z</time>
</trkpt>
<trkpt lat="45.9744620" lon="10.1896320">
	<ele>1852.80</ele>
	<time>2025-08-16T08:04:29.000Z</time>
</trkpt>
<trkpt lat="45.9744550" lon="10.1896250">
	<ele>1852.80</ele>
	<time>2025-08-16T08:04:30.000Z</time>
</trkpt>
<trkpt lat="45.9744470" lon="10.1896230">
	<ele>1852.60</ele>
	<time>2025-08-16T08:04:31.000Z</time>
</trkpt>
<trkpt lat="45.9744380" lon="10.1896210">
	<ele>1852.40</ele>
	<time>2025-08-16T08:04:32.000Z</time>
</trkpt>
<trkpt lat="45.9744310" lon="10.1896110">
	<ele>1852.40</ele>
	<time>2025-08-16T08:04:33.000Z</time>
</trkpt>
<trkpt lat="45.9744210" lon="10.1896030">
	<ele>1852.40</ele>
	<time>2025-08-16T08:04:34.000Z</time>
</trkpt>
<trkpt lat="45.9744110" lon="10.1895940">
	<ele>1852.20</ele>
	<time>2025-08-16T08:04:35.000Z</time>
</trkpt>
<trkpt lat="45.9744010" lon="10.1895850">
	<ele>1852.00</ele>
	<time>2025-08-16T08:04:36.000Z</time>
</trkpt>
<trkpt lat="45.9743940" lon="10.1895750">
	<ele>1852.00</ele>
	<time>2025-08-16T08:04:37.000Z</time>
</trkpt>
<trkpt lat="45.9743840" lon="10.1895570">
	<ele>1851.80</ele>
	<time>2025-08-16T08:04:38.000Z</time>
</trkpt>
<trkpt lat="45.9743760" lon="10.1895480">
	<ele>1851.80</ele>
	<time>2025-08-16T08:04:39.000Z</time>
</trkpt>
<trkpt lat="45.9743660" lon="10.1895360">
	<ele>1851.80</ele>
	<time>2025-08-16T08:04:40.000Z</time>
</trkpt>
<trkpt lat="45.9743550" lon="10.1895270">
	<ele>1851.80</ele>
	<time>2025-08-16T08:04:41.000Z</time>
</trkpt>
<trkpt lat="45.9743430" lon="10.1895150">
	<ele>1851.80</ele>
	<time>2025-08-16T08:04:42.000Z</time>
</trkpt>
<trkpt lat="45.9743320" lon="10.1895070">
	<ele>1851.80</ele>
	<time>2025-08-16T08:04:43.000Z</time>
</trkpt>
<trkpt lat="45.9743240" lon="10.1894950">
	<ele>1851.80</ele>
	<time>2025-08-16T08:04:44.000Z</time>
</trkpt>
<trkpt lat="45.9743160" lon="10.1894870">
	<ele>1851.80</ele>
	<time>2025-08-16T08:04:45.000Z</time>
</trkpt>
<trkpt lat="45.9743070" lon="10.1894780">
	<ele>1851.80</ele>
	<time>2025-08-16T08:04:46.000Z</time>
</trkpt>
<trkpt lat="45.9742990" lon="10.1894690">
	<ele>1851.80</ele>
	<time>2025-08-16T08:04:47.000Z</time>
</trkpt>
<trkpt lat="45.9742900" lon="10.1894580">
	<ele>1851.60</ele>
	<time>2025-08-16T08:04:48.000Z</time>
</trkpt>
<trkpt lat="45.9742820" lon="10.1894490">
	<ele>1851.60</ele>
	<time>2025-08-16T08:04:49.000Z</time>
</trkpt>
<trkpt lat="45.9742720" lon="10.1894290">
	<ele>1851.40</ele>
	<time>2025-08-16T08:04:50.000Z</time>
</trkpt>
<trkpt lat="45.9742640" lon="10.1894200">
	<ele>1851.40</ele>
	<time>2025-08-16T08:04:51.000Z</time>
</trkpt>
<trkpt lat="45.9742530" lon="10.1894150">
	<ele>1851.20</ele>
	<time>2025-08-16T08:04:52.000Z</time>
</trkpt>
<trkpt lat="45.9742420" lon="10.1894080">
	<ele>1851.20</ele>
	<time>2025-08-16T08:04:53.000Z</time>
</trkpt>
<trkpt lat="45.9742340" lon="10.1893950">
	<ele>1851.20</ele>
	<time>2025-08-16T08:04:54.000Z</time>
</trkpt>
<trkpt lat="45.9742250" lon="10.1893800">
	<ele>1851.20</ele>
	<time>2025-08-16T08:04:55.000Z</time>
</trkpt>
<trkpt lat="45.9742140" lon="10.1893680">
	<ele>1851.00</ele>
	<time>2025-08-16T08:04:56.000Z</time>
</trkpt>
<trkpt lat="45.9742060" lon="10.1893580">
	<ele>1850.80</ele>
	<time>2025-08-16T08:04:57.000Z</time>
</trkpt>
<trkpt lat="45.9741990" lon="10.1893410">
	<ele>1850.80</ele>
	<time>2025-08-16T08:04:58.000Z</time>
</trkpt>
<trkpt lat="45.9741910" lon="10.1893260">
	<ele>1850.80</ele>
	<time>2025-08-16T08:04:59.000Z</time>
</trkpt>
<trkpt lat="45.9741800" lon="10.1893150">
	<ele>1850.80</ele>
	<time>2025-08-16T08:05:00.000Z</time>
</trkpt>
<trkpt lat="45.9741710" lon="10.1893070">
	<ele>1850.80</ele>
	<time>2025-08-16T08:05:01.000Z</time>
</trkpt>
<trkpt lat="45.9741590" lon="10.1892960">
	<ele>1850.60</ele>
	<time>2025-08-16T08:05:02.000Z</time>
</trkpt>
<trkpt lat="45.9741500" lon="10.1892820">
	<ele>1850.60</ele>
	<time>2025-08-16T08:05:03.000Z</time>
</trkpt>
<trkpt lat="45.9741400" lon="10.1892600">
	<ele>1850.60</ele>
	<time>2025-08-16T08:05:04.000Z</time>
</trkpt>
<trkpt lat="45.9741350" lon="10.1892460">
	<ele>1850.80</ele>
	<time>2025-08-16T08:05:05.000Z</time>
</trkpt>
<trkpt lat="45.9741180" lon="10.1892370">
	<ele>1850.80</ele>
	<time>2025-08-16T08:05:06.000Z</time>
</trkpt>
<trkpt lat="45.9741060" lon="10.1892340">
	<ele>1850.80</ele>
	<time>2025-08-16T08:05:07.000Z</time>
</trkpt>
<trkpt lat="45.9740950" lon="10.1892240">
	<ele>1850.80</ele>
	<time>2025-08-16T08:05:08.000Z</time>
</trkpt>
<trkpt lat="45.9740870" lon="10.1892130">
	<ele>1850.80</ele>
	<time>2025-08-16T08:05:09.000Z</time>
</trkpt>
<trkpt lat="45.9740810" lon="10.1892020">
	<ele>1850.80</ele>
	<time>2025-08-16T08:05:10.000Z</time>
</trkpt>
<trkpt lat="45.9740700" lon="10.1891900">
	<ele>1850.80</ele>
	<time>2025-08-16T08:05:11.000Z</time>
</trkpt>
<trkpt lat="45.9740630" lon="10.1891840">
	<ele>1851.00</ele>
	<time>2025-08-16T08:05:12.000Z</time>
</trkpt>
<trkpt lat="45.9740540" lon="10.1891790">
	<ele>1851.00</ele>
	<time>2025-08-16T08:05:13.000Z</time>
</trkpt>
<trkpt lat="45.9740450" lon="10.1891700">
	<ele>1851.00</ele>
	<time>2025-08-16T08:05:14.000Z</time>
</trkpt>
<trkpt lat="45.9740360" lon="10.1891650">
	<ele>1851.00</ele>
	<time>2025-08-16T08:05:15.000Z</time>
</trkpt>
<trkpt lat="45.9740240" lon="10.1891570">
	<ele>1851.00</ele>
	<time>2025-08-16T08:05:16.000Z</time>
</trkpt>
<trkpt lat="45.9740110" lon="10.1891490">
	<ele>1851.20</ele>
	<time>2025-08-16T08:05:17.000Z</time>
</trkpt>
<trkpt lat="45.9739990" lon="10.1891390">
	<ele>1851.20</ele>
	<time>2025-08-16T08:05:18.000Z</time>
</trkpt>
<trkpt lat="45.9739850" lon="10.1891340">
	<ele>1851.20</ele>
	<time>2025-08-16T08:05:19.000Z</time>
</trkpt>
<trkpt lat="45.9739740" lon="10.1891260">
	<ele>1851.20</ele>
	<time>2025-08-16T08:05:20.000Z</time>
</trkpt>
<trkpt lat="45.9739650" lon="10.1891180">
	<ele>1851.20</ele>
	<time>2025-08-16T08:05:21.000Z</time>
</trkpt>
<trkpt lat="45.9739500" lon="10.1891110">
	<ele>1851.20</ele>
	<time>2025-08-16T08:05:22.000Z</time>
</trkpt>
<trkpt lat="45.9739410" lon="10.1891060">
	<ele>1851.00</ele>
	<time>2025-08-16T08:05:23.000Z</time>
</trkpt>
<trkpt lat="45.9739310" lon="10.1891000">
	<ele>1851.20</ele>
	<time>2025-08-16T08:05:24.000Z</time>
</trkpt>
<trkpt lat="45.9739160" lon="10.1890970">
	<ele>1851.20</ele>
	<time>2025-08-16T08:05:25.000Z</time>
</trkpt>
<trkpt lat="45.9739020" lon="10.1890940">
	<ele>1851.20</ele>
	<time>2025-08-16T08:05:26.000Z</time>
</trkpt>
<trkpt lat="45.9738920" lon="10.1890880">
	<ele>1851.20</ele>
	<time>2025-08-16T08:05:27.000Z</time>
</trkpt>
<trkpt lat="45.9738830" lon="10.1890830">
	<ele>1851.20</ele>
	<time>2025-08-16T08:05:28.000Z</time>
</trkpt>
<trkpt lat="45.9738750" lon="10.1890780">
	<ele>1851.40</ele>
	<time>2025-08-16T08:05:29.000Z</time>
</trkpt>
<trkpt lat="45.9738680" lon="10.1890740">
	<ele>1851.60</ele>
	<time>2025-08-16T08:05:30.000Z</time>
</trkpt>
<trkpt lat="45.9738620" lon="10.1890730">
	<ele>1851.60</ele>
	<time>2025-08-16T08:05:31.000Z</time>
</trkpt>
<trkpt lat="45.9738550" lon="10.1890710">
	<ele>1851.80</ele>
	<time>2025-08-16T08:05:32.000Z</time>
</trkpt>
<trkpt lat="45.9738470" lon="10.1890690">
	<ele>1851.80</ele>
	<time>2025-08-16T08:05:33.000Z</time>
</trkpt>
<trkpt lat="45.9738370" lon="10.1890710">
	<ele>1851.80</ele>
	<time>2025-08-16T08:05:34.000Z</time>
</trkpt>
<trkpt lat="45.9738270" lon="10.1890760">
	<ele>1851.80</ele>
	<time>2025-08-16T08:05:35.000Z</time>
</trkpt>
<trkpt lat="45.9738180" lon="10.1890800">
	<ele>1851.60</ele>
	<time>2025-08-16T08:05:36.000Z</time>
</trkpt>
<trkpt lat="45.9738080" lon="10.1890820">
	<ele>1851.60</ele>
	<time>2025-08-16T08:05:37.000Z</time>
</trkpt>
<trkpt lat="45.9737960" lon="10.1890810">
	<ele>1851.40</ele>
	<time>2025-08-16T08:05:38.000Z</time>
</trkpt>
<trkpt lat="45.9737840" lon="10.1890720">
	<ele>1851.20</ele>
	<time>2025-08-16T08:05:39.000Z</time>
</trkpt>
<trkpt lat="45.9737740" lon="10.1890650">
	<ele>1851.20</ele>
	<time>2025-08-16T08:05:40.000Z</time>
</trkpt>
<trkpt lat="45.9737700" lon="10.1890520">
	<ele>1851.00</ele>
	<time>2025-08-16T08:05:41.000Z</time>
</trkpt>
<trkpt lat="45.9737690" lon="10.1890440">
	<ele>1851.00</ele>
	<time>2025-08-16T08:05:42.000Z</time>
</trkpt>
<trkpt lat="45.9737610" lon="10.1890400">
	<ele>1851.00</ele>
	<time>2025-08-16T08:05:43.000Z</time>
</trkpt>
<trkpt lat="45.9737560" lon="10.1890320">
	<ele>1851.20</ele>
	<time>2025-08-16T08:05:44.000Z</time>
</trkpt>
<trkpt lat="45.9737470" lon="10.1890250">
	<ele>1851.40</ele>
	<time>2025-08-16T08:05:45.000Z</time>
</trkpt>
<trkpt lat="45.9737340" lon="10.1890190">
	<ele>1851.60</ele>
	<time>2025-08-16T08:05:46.000Z</time>
</trkpt>
<trkpt lat="45.9737280" lon="10.1890100">
	<ele>1851.80</ele>
	<time>2025-08-16T08:05:47.000Z</time>
</trkpt>
<trkpt lat="45.9737200" lon="10.1890050">
	<ele>1852.00</ele>
	<time>2025-08-16T08:05:48.000Z</time>
</trkpt>
<trkpt lat="45.9737150" lon="10.1889970">
	<ele>1852.00</ele>
	<time>2025-08-16T08:05:49.000Z</time>
</trkpt>
<trkpt lat="45.9737070" lon="10.1889880">
	<ele>1852.20</ele>
	<time>2025-08-16T08:05:50.000Z</time>
</trkpt>
<trkpt lat="45.9736970" lon="10.1889780">
	<ele>1852.20</ele>
	<time>2025-08-16T08:05:51.000Z</time>
</trkpt>
<trkpt lat="45.9736870" lon="10.1889770">
	<ele>1852.40</ele>
	<time>2025-08-16T08:05:52.000Z</time>
</trkpt>
<trkpt lat="45.9736770" lon="10.1889710">
	<ele>1852.40</ele>
	<time>2025-08-16T08:05:53.000Z</time>
</trkpt>
<trkpt lat="45.9736680" lon="10.1889630">
	<ele>1852.40</ele>
	<time>2025-08-16T08:05:54.000Z</time>
</trkpt>
<trkpt lat="45.9736550" lon="10.1889580">
	<ele>1852.40</ele>
	<time>2025-08-16T08:05:55.000Z</time>
</trkpt>
<trkpt lat="45.9736410" lon="10.1889520">
	<ele>1852.40</ele>
	<time>2025-08-16T08:05:56.000Z</time>
</trkpt>
<trkpt lat="45.9736270" lon="10.1889450">
	<ele>1852.40</ele>
	<time>2025-08-16T08:05:57.000Z</time>
</trkpt>
<trkpt lat="45.9736140" lon="10.1889350">
	<ele>1852.40</ele>
	<time>2025-08-16T08:05:58.000Z</time>
</trkpt>
<trkpt lat="45.9736040" lon="10.1889240">
	<ele>1852.40</ele>
	<time>2025-08-16T08:05:59.000Z</time>
</trkpt>
<trkpt lat="45.9735950" lon="10.1889120">
	<ele>1852.40</ele>
	<time>2025-08-16T08:06:00.000Z</time>
</trkpt>
<trkpt lat="45.9735870" lon="10.1889000">
	<ele>1852.60</ele>
	<time>2025-08-16T08:06:01.000Z</time>
</trkpt>
<trkpt lat="45.9735790" lon="10.1888870">
	<ele>1852.60</ele>
	<time>2025-08-16T08:06:02.000Z</time>
</trkpt>
<trkpt lat="45.9735680" lon="10.1888740">
	<ele>1852.60</ele>
	<time>2025-08-16T08:06:03.000Z</time>
</trkpt>
<trkpt lat="45.9735580" lon="10.1888600">
	<ele>1852.60</ele>
	<time>2025-08-16T08:06:04.000Z</time>
</trkpt>
<trkpt lat="45.9735470" lon="10.1888500">
	<ele>1852.60</ele>
	<time>2025-08-16T08:06:05.000Z</time>
</trkpt>
<trkpt lat="45.9735400" lon="10.1888390">
	<ele>1852.60</ele>
	<time>2025-08-16T08:06:06.000Z</time>
</trkpt>
<trkpt lat="45.9735350" lon="10.1888260">
	<ele>1852.60</ele>
	<time>2025-08-16T08:06:07.000Z</time>
</trkpt>
<trkpt lat="45.9735270" lon="10.1888200">
	<ele>1852.80</ele>
	<time>2025-08-16T08:06:08.000Z</time>
</trkpt>
<trkpt lat="45.9735210" lon="10.1888120">
	<ele>1852.80</ele>
	<time>2025-08-16T08:06:09.000Z</time>
</trkpt>
<trkpt lat="45.9735130" lon="10.1888070">
	<ele>1853.00</ele>
	<time>2025-08-16T08:06:10.000Z</time>
</trkpt>
<trkpt lat="45.9735040" lon="10.1888020">
	<ele>1853.20</ele>
	<time>2025-08-16T08:06:11.000Z</time>
</trkpt>
<trkpt lat="45.9734950" lon="10.1888000">
	<ele>1853.40</ele>
	<time>2025-08-16T08:06:12.000Z</time>
</trkpt>
<trkpt lat="45.9734850" lon="10.1887980">
	<ele>1853.60</ele>
	<time>2025-08-16T08:06:13.000Z</time>
</trkpt>
<trkpt lat="45.9734770" lon="10.1887970">
	<ele>1853.60</ele>
	<time>2025-08-16T08:06:14.000Z</time>
</trkpt>
<trkpt lat="45.9734690" lon="10.1887940">
	<ele>1853.60</ele>
	<time>2025-08-16T08:06:15.000Z</time>
</trkpt>
<trkpt lat="45.9734600" lon="10.1887920">
	<ele>1853.80</ele>
	<time>2025-08-16T08:06:16.000Z</time>
</trkpt>
<trkpt lat="45.9734510" lon="10.1887930">
	<ele>1854.00</ele>
	<time>2025-08-16T08:06:17.000Z</time>
</trkpt>
<trkpt lat="45.9734390" lon="10.1887920">
	<ele>1854.20</ele>
	<time>2025-08-16T08:06:18.000Z</time>
</trkpt>
<trkpt lat="45.9734260" lon="10.1887910">
	<ele>1854.20</ele>
	<time>2025-08-16T08:06:19.000Z</time>
</trkpt>
<trkpt lat="45.9734130" lon="10.1887900">
	<ele>1854.20</ele>
	<time>2025-08-16T08:06:20.000Z</time>
</trkpt>
<trkpt lat="45.9734000" lon="10.1887850">
	<ele>1854.40</ele>
	<time>2025-08-16T08:06:21.000Z</time>
</trkpt>
<trkpt lat="45.9733880" lon="10.1887790">
	<ele>1854.40</ele>
	<time>2025-08-16T08:06:22.000Z</time>
</trkpt>
<trkpt lat="45.9733770" lon="10.1887740">
	<ele>1854.20</ele>
	<time>2025-08-16T08:06:23.000Z</time>
</trkpt>
<trkpt lat="45.9733660" lon="10.1887670">
	<ele>1854.20</ele>
	<time>2025-08-16T08:06:24.000Z</time>
</trkpt>
<trkpt lat="45.9733560" lon="10.1887580">
	<ele>1854.20</ele>
	<time>2025-08-16T08:06:25.000Z</time>
</trkpt>
<trkpt lat="45.9733460" lon="10.1887490">
	<ele>1854.20</ele>
	<time>2025-08-16T08:06:26.000Z</time>
</trkpt>
<trkpt lat="45.9733360" lon="10.1887410">
	<ele>1854.20</ele>
	<time>2025-08-16T08:06:27.000Z</time>
</trkpt>
<trkpt lat="45.9733250" lon="10.1887310">
	<ele>1854.00</ele>
	<time>2025-08-16T08:06:28.000Z</time>
</trkpt>
<trkpt lat="45.9733130" lon="10.1887250">
	<ele>1854.00</ele>
	<time>2025-08-16T08:06:29.000Z</time>
</trkpt>
<trkpt lat="45.9732990" lon="10.1887180">
	<ele>1854.00</ele>
	<time>2025-08-16T08:06:30.000Z</time>
</trkpt>
<trkpt lat="45.9732870" lon="10.1887100">
	<ele>1854.00</ele>
	<time>2025-08-16T08:06:31.000Z</time>
</trkpt>
<trkpt lat="45.9732760" lon="10.1887010">
	<ele>1854.00</ele>
	<time>2025-08-16T08:06:32.000Z</time>
</trkpt>
<trkpt lat="45.9732650" lon="10.1886930">
	<ele>1854.00</ele>
	<time>2025-08-16T08:06:33.000Z</time>
</trkpt>
<trkpt lat="45.9732550" lon="10.1886850">
	<ele>1854.00</ele>
	<time>2025-08-16T08:06:34.000Z</time>
</trkpt>
<trkpt lat="45.9732460" lon="10.1886810">
	<ele>1854.00</ele>
	<time>2025-08-16T08:06:35.000Z</time>
</trkpt>
<trkpt lat="45.9732360" lon="10.1886750">
	<ele>1854.00</ele>
	<time>2025-08-16T08:06:36.000Z</time>
</trkpt>
<trkpt lat="45.9732250" lon="10.1886750">
	<ele>1854.00</ele>
	<time>2025-08-16T08:06:37.000Z</time>
</trkpt>
<trkpt lat="45.9732120" lon="10.1886760">
	<ele>1854.20</ele>
	<time>2025-08-16T08:06:38.000Z</time>
</trkpt>
<trkpt lat="45.9731990" lon="10.1886750">
	<ele>1854.20</ele>
	<time>2025-08-16T08:06:39.000Z</time>
</trkpt>
<trkpt lat="45.9731880" lon="10.1886740">
	<ele>1854.20</ele>
	<time>2025-08-16T08:06:40.000Z</time>
</trkpt>
<trkpt lat="45.9731820" lon="10.1886660">
	<ele>1854.20</ele>
	<time>2025-08-16T08:06:41.000Z</time>
</trkpt>
<trkpt lat="45.9731770" lon="10.1886590">
	<ele>1854.40</ele>
	<time>2025-08-16T08:06:42.000Z</time>
</trkpt>
<trkpt lat="45.9731680" lon="10.1886580">
	<ele>1854.40</ele>
	<time>2025-08-16T08:06:43.000Z</time>
</trkpt>
<trkpt lat="45.9731620" lon="10.1886480">
	<ele>1854.80</ele>
	<time>2025-08-16T08:06:44.000Z</time>
</trkpt>
<trkpt lat="45.9731530" lon="10.1886380">
	<ele>1855.00</ele>
	<time>2025-08-16T08:06:45.000Z</time>
</trkpt>
<trkpt lat="45.9731450" lon="10.1886290">
	<ele>1855.20</ele>
	<time>2025-08-16T08:06:46.000Z</time>
</trkpt>
<trkpt lat="45.9731350" lon="10.1886290">
	<ele>1855.20</ele>
	<time>2025-08-16T08:06:47.000Z</time>
</trkpt>
<trkpt lat="45.9731240" lon="10.1886320">
	<ele>1855.40</ele>
	<time>2025-08-16T08:06:48.000Z</time>
</trkpt>
<trkpt lat="45.9731160" lon="10.1886330">
	<ele>1855.60</ele>
	<time>2025-08-16T08:06:49.000Z</time>
</trkpt>
<trkpt lat="45.9731080" lon="10.1886390">
	<ele>1855.80</ele>
	<time>2025-08-16T08:06:50.000Z</time>
</trkpt>
<trkpt lat="45.9731010" lon="10.1886450">
	<ele>1856.00</ele>
	<time>2025-08-16T08:06:51.000Z</time>
</trkpt>
<trkpt lat="45.9730920" lon="10.1886520">
	<ele>1856.00</ele>
	<time>2025-08-16T08:06:52.000Z</time>
</trkpt>
<trkpt lat="45.9730840" lon="10.1886610">
	<ele>1856.00</ele>
	<time>2025-08-16T08:06:53.000Z</time>
</trkpt>
<trkpt lat="45.9730750" lon="10.1886610">
	<ele>1856.00</ele>
	<time>2025-08-16T08:06:54.000Z</time>
</trkpt>
<trkpt lat="45.9730660" lon="10.1886610">
	<ele>1856.00</ele>
	<time>2025-08-16T08:06:55.000Z</time>
</trkpt>
<trkpt lat="45.9730570" lon="10.1886620">
	<ele>1855.80</ele>
	<time>2025-08-16T08:06:56.000Z</time>
</trkpt>
<trkpt lat="45.9730510" lon="10.1886600">
	<ele>1855.80</ele>
	<time>2025-08-16T08:06:57.000Z</time>
</trkpt>
<trkpt lat="45.9730420" lon="10.1886570">
	<ele>1855.80</ele>
	<time>2025-08-16T08:06:58.000Z</time>
</trkpt>
<trkpt lat="45.9730340" lon="10.1886540">
	<ele>1855.80</ele>
	<time>2025-08-16T08:06:59.000Z</time>
</trkpt>
<trkpt lat="45.9730270" lon="10.1886510">
	<ele>1855.80</ele>
	<time>2025-08-16T08:07:00.000Z</time>
</trkpt>
<trkpt lat="45.9730210" lon="10.1886460">
	<ele>1855.80</ele>
	<time>2025-08-16T08:07:01.000Z</time>
</trkpt>
<trkpt lat="45.9730160" lon="10.1886490">
	<ele>1855.80</ele>
	<time>2025-08-16T08:07:02.000Z</time>
</trkpt>
<trkpt lat="45.9730130" lon="10.1886480">
	<ele>1856.00</ele>
	<time>2025-08-16T08:07:03.000Z</time>
</trkpt>
<trkpt lat="45.9730070" lon="10.1886480">
	<ele>1856.20</ele>
	<time>2025-08-16T08:07:04.000Z</time>
</trkpt>
<trkpt lat="45.9729980" lon="10.1886510">
	<ele>1856.20</ele>
	<time>2025-08-16T08:07:05.000Z</time>
</trkpt>
<trkpt lat="45.9729890" lon="10.1886530">
	<ele>1856.40</ele>
	<time>2025-08-16T08:07:06.000Z</time>
</trkpt>
<trkpt lat="45.9729820" lon="10.1886550">
	<ele>1856.60</ele>
	<time>2025-08-16T08:07:07.000Z</time>
</trkpt>
<trkpt lat="45.9729760" lon="10.1886620">
	<ele>1856.80</ele>
	<time>2025-08-16T08:07:08.000Z</time>
</trkpt>
<trkpt lat="45.9729660" lon="10.1886630">
	<ele>1856.80</ele>
	<time>2025-08-16T08:07:09.000Z</time>
</trkpt>
<trkpt lat="45.9729620" lon="10.1886630">
	<ele>1857.20</ele>
	<time>2025-08-16T08:07:10.000Z</time>
</trkpt>
<trkpt lat="45.9729550" lon="10.1886720">
	<ele>1857.20</ele>
	<time>2025-08-16T08:07:11.000Z</time>
</trkpt>
<trkpt lat="45.9729510" lon="10.1886740">
	<ele>1857.40</ele>
	<time>2025-08-16T08:07:12.000Z</time>
</trkpt>
<trkpt lat="45.9729420" lon="10.1886720">
	<ele>1857.80</ele>
	<time>2025-08-16T08:07:13.000Z</time>
</trkpt>
<trkpt lat="45.9729350" lon="10.1886650">
	<ele>1857.80</ele>
	<time>2025-08-16T08:07:14.000Z</time>
</trkpt>
<trkpt lat="45.9729280" lon="10.1886710">
	<ele>1858.00</ele>
	<time>2025-08-16T08:07:15.000Z</time>
</trkpt>
<trkpt lat="45.9729200" lon="10.1886780">
	<ele>1858.00</ele>
	<time>2025-08-16T08:07:16.000Z</time>
</trkpt>
<trkpt lat="45.9729130" lon="10.1886780">
	<ele>1858.20</ele>
	<time>2025-08-16T08:07:17.000Z</time>
</trkpt>
<trkpt lat="45.9729110" lon="10.1886710">
	<ele>1858.20</ele>
	<time>2025-08-16T08:07:18.000Z</time>
</trkpt>
<trkpt lat="45.9729080" lon="10.1886630">
	<ele>1858.40</ele>
	<time>2025-08-16T08:07:19.000Z</time>
</trkpt>
<trkpt lat="45.9729040" lon="10.1886550">
	<ele>1858.40</ele>
	<time>2025-08-16T08:07:20.000Z</time>
</trkpt>
<trkpt lat="45.9728990" lon="10.1886520">
	<ele>1858.60</ele>
	<time>2025-08-16T08:07:21.000Z</time>
</trkpt>
<trkpt lat="45.9728950" lon="10.1886470">
	<ele>1858.80</ele>
	<time>2025-08-16T08:07:22.000Z</time>
</trkpt>
<trkpt lat="45.9728930" lon="10.1886470">
	<ele>1859.00</ele>
	<time>2025-08-16T08:07:23.000Z</time>
</trkpt>
<trkpt lat="45.9728870" lon="10.1886450">
	<ele>1859.20</ele>
	<time>2025-08-16T08:07:24.000Z</time>
</trkpt>
<trkpt lat="45.9728820" lon="10.1886440">
	<ele>1859.40</ele>
	<time>2025-08-16T08:07:25.000Z</time>
</trkpt>
<trkpt lat="45.9728790" lon="10.1886450">
	<ele>1859.60</ele>
	<time>2025-08-16T08:07:26.000Z</time>
</trkpt>
<trkpt lat="45.9728750" lon="10.1886450">
	<ele>1859.60</ele>
	<time>2025-08-16T08:07:27.000Z</time>
</trkpt>
<trkpt lat="45.9728720" lon="10.1886450">
	<ele>1859.80</ele>
	<time>2025-08-16T08:07:28.000Z</time>
</trkpt>
<trkpt lat="45.9728650" lon="10.1886470">
	<ele>1860.00</ele>
	<time>2025-08-16T08:07:29.000Z</time>
</trkpt>
<trkpt lat="45.9728530" lon="10.1886540">
	<ele>1860.20</ele>
	<time>2025-08-16T08:07:30.000Z</time>
</trkpt>
<trkpt lat="45.9728440" lon="10.1886610">
	<ele>1860.40</ele>
	<time>2025-08-16T08:07:31.000Z</time>
</trkpt>
<trkpt lat="45.9728390" lon="10.1886650">
	<ele>1860.40</ele>
	<time>2025-08-16T08:07:32.000Z</time>
</trkpt>
<trkpt lat="45.9728380" lon="10.1886660">
	<ele>1860.40</ele>
	<time>2025-08-16T08:07:33.000Z</time>
</trkpt>
<trkpt lat="45.9728370" lon="10.1886660">
	<ele>1860.40</ele>
	<time>2025-08-16T08:07:34.000Z</time>
</trkpt>
<trkpt lat="45.9728350" lon="10.1886650">
	<ele>1860.40</ele>
	<time>2025-08-16T08:07:35.000Z</time>
</trkpt>
<trkpt lat="45.9728340" lon="10.1886640">
	<ele>1860.40</ele>
	<time>2025-08-16T08:07:36.000Z</time>
</trkpt>
<trkpt lat="45.9728330" lon="10.1886630">
	<ele>1860.40</ele>
	<time>2025-08-16T08:07:37.000Z</time>
</trkpt>
<trkpt lat="45.9728320" lon="10.1886630">
	<ele>1860.40</ele>
	<time>2025-08-16T08:07:38.000Z</time>
</trkpt>
<trkpt lat="45.9728310" lon="10.1886630">
	<ele>1860.40</ele>
	<time>2025-08-16T08:07:39.000Z</time>
</trkpt>
<trkpt lat="45.9728310" lon="10.1886630">
	<ele>1860.40</ele>
	<time>2025-08-16T08:07:40.000Z</time>
</trkpt>
<trkpt lat="45.9728310" lon="10.1886610">
	<ele>1860.40</ele>
	<time>2025-08-16T08:07:41.000Z</time>
</trkpt>
<trkpt lat="45.9728290" lon="10.1886630">
	<ele>1860.40</ele>
	<time>2025-08-16T08:07:42.000Z</time>
</trkpt>
<trkpt lat="45.9728290" lon="10.1886630">
	<ele>1860.40</ele>
	<time>2025-08-16T08:07:43.000Z</time>
</trkpt>
<trkpt lat="45.9728290" lon="10.1886640">
	<ele>1860.40</ele>
	<time>2025-08-16T08:07:44.000Z</time>
</trkpt>
<trkpt lat="45.9728290" lon="10.1886630">
	<ele>1860.40</ele>
	<time>2025-08-16T08:07:45.000Z</time>
</trkpt>
<trkpt lat="45.9728300" lon="10.1886620">
	<ele>1860.20</ele>
	<time>2025-08-16T08:07:46.000Z</time>
</trkpt>
<trkpt lat="45.9728310" lon="10.1886600">
	<ele>1860.20</ele>
	<time>2025-08-16T08:07:47.000Z</time>
</trkpt>
<trkpt lat="45.9728310" lon="10.1886580">
	<ele>1860.20</ele>
	<time>2025-08-16T08:07:48.000Z</time>
</trkpt>
<trkpt lat="45.9728300" lon="10.1886570">
	<ele>1860.20</ele>
	<time>2025-08-16T08:07:49.000Z</time>
</trkpt>
<trkpt lat="45.9728290" lon="10.1886580">
	<ele>1860.20</ele>
	<time>2025-08-16T08:07:50.000Z</time>
</trkpt>
<trkpt lat="45.9728280" lon="10.1886580">
	<ele>1860.20</ele>
	<time>2025-08-16T08:07:51.000Z</time>
</trkpt>
<trkpt lat="45.9728280" lon="10.1886580">
	<ele>1860.20</ele>
	<time>2025-08-16T08:07:52.000Z</time>
</trkpt>
<trkpt lat="45.9728280" lon="10.1886580">
	<ele>1860.20</ele>
	<time>2025-08-16T08:07:53.000Z</time>
</trkpt>
<trkpt lat="45.9728280" lon="10.1886580">
	<ele>1860.20</ele>
	<time>2025-08-16T08:07:54.000Z</time>
</trkpt>
<trkpt lat="45.9728280" lon="10.1886580">
	<ele>1860.20</ele>
	<time>2025-08-16T08:07:55.000Z</time>
</trkpt>
<trkpt lat="45.9728280" lon="10.1886580">
	<ele>1860.20</ele>
	<time>2025-08-16T08:07:56.000Z</time>
</trkpt>
<trkpt lat="45.9728280" lon="10.1886580">
	<ele>1860.20</ele>
	<time>2025-08-16T08:07:57.000Z</time>
</trkpt>
<trkpt lat="45.9728280" lon="10.1886580">
	<ele>1860.20</ele>
	<time>2025-08-16T08:07:58.000Z</time>
</trkpt>
<trkpt lat="45.9728280" lon="10.1886580">
	<ele>1860.20</ele>
	<time>2025-08-16T08:07:59.000Z</time>
</trkpt>
<trkpt lat="45.9728280" lon="10.1886580">
	<ele>1860.20</ele>
	<time>2025-08-16T08:08:00.000Z</time>
</trkpt>
<trkpt lat="45.9728290" lon="10.1886580">
	<ele>1860.20</ele>
	<time>2025-08-16T08:08:01.000Z</time>
</trkpt>
<trkpt lat="45.9728290" lon="10.1886580">
	<ele>1860.20</ele>
	<time>2025-08-16T08:08:02.000Z</time>
</trkpt>
<trkpt lat="45.9728290" lon="10.1886590">
	<ele>1860.20</ele>
	<time>2025-08-16T08:08:03.000Z</time>
</trkpt>
<trkpt lat="45.9728290" lon="10.1886600">
	<ele>1860.20</ele>
	<time>2025-08-16T08:08:04.000Z</time>
</trkpt>
<trkpt lat="45.9728290" lon="10.1886600">
	<ele>1860.00</ele>
	<time>2025-08-16T08:08:05.000Z</time>
</trkpt>
<trkpt lat="45.9728290" lon="10.1886610">
	<ele>1860.00</ele>
	<time>2025-08-16T08:08:06.000Z</time>
</trkpt>
<trkpt lat="45.9728290" lon="10.1886620">
	<ele>1859.80</ele>
	<time>2025-08-16T08:08:07.000Z</time>
</trkpt>
<trkpt lat="45.9728290" lon="10.1886630">
	<ele>1859.40</ele>
	<time>2025-08-16T08:08:08.000Z</time>
</trkpt>
<trkpt lat="45.9728240" lon="10.1886640">
	<ele>1859.20</ele>
	<time>2025-08-16T08:08:09.000Z</time>
</trkpt>
<trkpt lat="45.9728090" lon="10.1886720">
	<ele>1859.20</ele>
	<time>2025-08-16T08:08:10.000Z</time>
</trkpt>
<trkpt lat="45.9727930" lon="10.1886800">
	<ele>1859.00</ele>
	<time>2025-08-16T08:08:11.000Z</time>
</trkpt>
<trkpt lat="45.9727770" lon="10.1886870">
	<ele>1859.00</ele>
	<time>2025-08-16T08:08:12.000Z</time>
</trkpt>
<trkpt lat="45.9727600" lon="10.1886920">
	<ele>1858.80</ele>
	<time>2025-08-16T08:08:13.000Z</time>
</trkpt>
<trkpt lat="45.9727410" lon="10.1886890">
	<ele>1858.80</ele>
	<time>2025-08-16T08:08:14.000Z</time>
</trkpt>
<trkpt lat="45.9727240" lon="10.1886890">
	<ele>1858.60</ele>
	<time>2025-08-16T08:08:15.000Z</time>
</trkpt>
<trkpt lat="45.9727110" lon="10.1886930">
	<ele>1858.60</ele>
	<time>2025-08-16T08:08:16.000Z</time>
</trkpt>
<trkpt lat="45.9726980" lon="10.1886990">
	<ele>1858.60</ele>
	<time>2025-08-16T08:08:17.000Z</time>
</trkpt>
<trkpt lat="45.9726810" lon="10.1887030">
	<ele>1858.60</ele>
	<time>2025-08-16T08:08:18.000Z</time>
</trkpt>
<trkpt lat="45.9726730" lon="10.1887000">
	<ele>1858.80</ele>
	<time>2025-08-16T08:08:19.000Z</time>
</trkpt>
<trkpt lat="45.9726680" lon="10.1887000">
	<ele>1858.80</ele>
	<time>2025-08-16T08:08:20.000Z</time>
</trkpt>
<trkpt lat="45.9726630" lon="10.1887040">
	<ele>1859.00</ele>
	<time>2025-08-16T08:08:21.000Z</time>
</trkpt>
<trkpt lat="45.9726570" lon="10.1887010">
	<ele>1859.20</ele>
	<time>2025-08-16T08:08:22.000Z</time>
</trkpt>
<trkpt lat="45.9726500" lon="10.1886990">
	<ele>1859.40</ele>
	<time>2025-08-16T08:08:23.000Z</time>
</trkpt>
<trkpt lat="45.9726480" lon="10.1886950">
	<ele>1859.60</ele>
	<time>2025-08-16T08:08:24.000Z</time>
</trkpt>
<trkpt lat="45.9726450" lon="10.1886940">
	<ele>1860.00</ele>
	<time>2025-08-16T08:08:25.000Z</time>
</trkpt>
<trkpt lat="45.9726420" lon="10.1886910">
	<ele>1860.20</ele>
	<time>2025-08-16T08:08:26.000Z</time>
</trkpt>
<trkpt lat="45.9726360" lon="10.1886890">
	<ele>1860.40</ele>
	<time>2025-08-16T08:08:27.000Z</time>
</trkpt>
<trkpt lat="45.9726300" lon="10.1886900">
	<ele>1860.60</ele>
	<time>2025-08-16T08:08:28.000Z</time>
</trkpt>
<trkpt lat="45.9726240" lon="10.1886920">
	<ele>1860.60</ele>
	<time>2025-08-16T08:08:29.000Z</time>
</trkpt>
<trkpt lat="45.9726180" lon="10.1886950">
	<ele>1860.80</ele>
	<time>2025-08-16T08:08:30.000Z</time>
</trkpt>
<trkpt lat="45.9726120" lon="10.1886960">
	<ele>1861.00</ele>
	<time>2025-08-16T08:08:31.000Z</time>
</trkpt>
<trkpt lat="45.9726030" lon="10.1886990">
	<ele>1861.00</ele>
	<time>2025-08-16T08:08:32.000Z</time>
</trkpt>
<trkpt lat="45.9725960" lon="10.1887040">
	<ele>1861.20</ele>
	<time>2025-08-16T08:08:33.000Z</time>
</trkpt>
<trkpt lat="45.9725860" lon="10.1887050">
	<ele>1861.20</ele>
	<time>2025-08-16T08:08:34.000Z</time>
</trkpt>
<trkpt lat="45.9725770" lon="10.1887120">
	<ele>1861.40</ele>
	<time>2025-08-16T08:08:35.000Z</time>
</trkpt>
<trkpt lat="45.9725680" lon="10.1887200">
	<ele>1861.40</ele>
	<time>2025-08-16T08:08:36.000Z</time>
</trkpt>
<trkpt lat="45.9725600" lon="10.1887260">
	<ele>1861.40</ele>
	<time>2025-08-16T08:08:37.000Z</time>
</trkpt>
<trkpt lat="45.9725530" lon="10.1887280">
	<ele>1861.40</ele>
	<time>2025-08-16T08:08:38.000Z</time>
</trkpt>
<trkpt lat="45.9725460" lon="10.1887300">
	<ele>1861.40</ele>
	<time>2025-08-16T08:08:39.000Z</time>
</trkpt>
<trkpt lat="45.9725400" lon="10.1887350">
	<ele>1861.40</ele>
	<time>2025-08-16T08:08:40.000Z</time>
</trkpt>
<trkpt lat="45.9725350" lon="10.1887420">
	<ele>1861.40</ele>
	<time>2025-08-16T08:08:41.000Z</time>
</trkpt>
<trkpt lat="45.9725320" lon="10.1887450">
	<ele>1861.20</ele>
	<time>2025-08-16T08:08:42.000Z</time>
</trkpt>
<trkpt lat="45.9725250" lon="10.1887470">
	<ele>1861.20</ele>
	<time>2025-08-16T08:08:43.000Z</time>
</trkpt>
<trkpt lat="45.9725160" lon="10.1887510">
	<ele>1861.20</ele>
	<time>2025-08-16T08:08:44.000Z</time>
</trkpt>
<trkpt lat="45.9725100" lon="10.1887510">
	<ele>1861.40</ele>
	<time>2025-08-16T08:08:45.000Z</time>
</trkpt>
<trkpt lat="45.9724990" lon="10.1887570">
	<ele>1861.60</ele>
	<time>2025-08-16T08:08:46.000Z</time>
</trkpt>
<trkpt lat="45.9724950" lon="10.1887590">
	<ele>1861.60</ele>
	<time>2025-08-16T08:08:47.000Z</time>
</trkpt>
<trkpt lat="45.9724910" lon="10.1887590">
	<ele>1861.80</ele>
	<time>2025-08-16T08:08:48.000Z</time>
</trkpt>
<trkpt lat="45.9724860" lon="10.1887600">
	<ele>1861.80</ele>
	<time>2025-08-16T08:08:49.000Z</time>
</trkpt>
<trkpt lat="45.9724820" lon="10.1887600">
	<ele>1861.80</ele>
	<time>2025-08-16T08:08:50.000Z</time>
</trkpt>
<trkpt lat="45.9724730" lon="10.1887640">
	<ele>1861.80</ele>
	<time>2025-08-16T08:08:51.000Z</time>
</trkpt>
<trkpt lat="45.9724670" lon="10.1887650">
	<ele>1861.80</ele>
	<time>2025-08-16T08:08:52.000Z</time>
</trkpt>
<trkpt lat="45.9724610" lon="10.1887610">
	<ele>1861.80</ele>
	<time>2025-08-16T08:08:53.000Z</time>
</trkpt>
<trkpt lat="45.9724570" lon="10.1887580">
	<ele>1862.00</ele>
	<time>2025-08-16T08:08:54.000Z</time>
</trkpt>
<trkpt lat="45.9724500" lon="10.1887620">
	<ele>1862.00</ele>
	<time>2025-08-16T08:08:55.000Z</time>
</trkpt>
<trkpt lat="45.9724430" lon="10.1887670">
	<ele>1862.00</ele>
	<time>2025-08-16T08:08:56.000Z</time>
</trkpt>
<trkpt lat="45.9724340" lon="10.1887720">
	<ele>1862.20</ele>
	<time>2025-08-16T08:08:57.000Z</time>
</trkpt>
<trkpt lat="45.9724240" lon="10.1887750">
	<ele>1862.40</ele>
	<time>2025-08-16T08:08:58.000Z</time>
</trkpt>
<trkpt lat="45.9724150" lon="10.1887760">
	<ele>1862.60</ele>
	<time>2025-08-16T08:08:59.000Z</time>
</trkpt>
<trkpt lat="45.9724070" lon="10.1887730">
	<ele>1862.60</ele>
	<time>2025-08-16T08:09:00.000Z</time>
</trkpt>
<trkpt lat="45.9723990" lon="10.1887730">
	<ele>1862.80</ele>
	<time>2025-08-16T08:09:01.000Z</time>
</trkpt>
<trkpt lat="45.9723960" lon="10.1887730">
	<ele>1863.00</ele>
	<time>2025-08-16T08:09:02.000Z</time>
</trkpt>
<trkpt lat="45.9723940" lon="10.1887640">
	<ele>1863.20</ele>
	<time>2025-08-16T08:09:03.000Z</time>
</trkpt>
<trkpt lat="45.9723900" lon="10.1887570">
	<ele>1863.40</ele>
	<time>2025-08-16T08:09:04.000Z</time>
</trkpt>
<trkpt lat="45.9723840" lon="10.1887560">
	<ele>1863.60</ele>
	<time>2025-08-16T08:09:05.000Z</time>
</trkpt>
<trkpt lat="45.9723710" lon="10.1887530">
	<ele>1864.00</ele>
	<time>2025-08-16T08:09:06.000Z</time>
</trkpt>
<trkpt lat="45.9723630" lon="10.1887530">
	<ele>1864.20</ele>
	<time>2025-08-16T08:09:07.000Z</time>
</trkpt>
<trkpt lat="45.9723560" lon="10.1887500">
	<ele>1864.20</ele>
	<time>2025-08-16T08:09:08.000Z</time>
</trkpt>
<trkpt lat="45.9723520" lon="10.1887490">
	<ele>1864.40</ele>
	<time>2025-08-16T08:09:09.000Z</time>
</trkpt>
<trkpt lat="45.9723510" lon="10.1887430">
	<ele>1864.40</ele>
	<time>2025-08-16T08:09:10.000Z</time>
</trkpt>
<trkpt lat="45.9723490" lon="10.1887420">
	<ele>1864.40</ele>
	<time>2025-08-16T08:09:11.000Z</time>
</trkpt>
<trkpt lat="45.9723490" lon="10.1887410">
	<ele>1864.40</ele>
	<time>2025-08-16T08:09:12.000Z</time>
</trkpt>
<trkpt lat="45.9723490" lon="10.1887390">
	<ele>1864.40</ele>
	<time>2025-08-16T08:09:13.000Z</time>
</trkpt>
<trkpt lat="45.9723490" lon="10.1887370">
	<ele>1864.40</ele>
	<time>2025-08-16T08:09:14.000Z</time>
</trkpt>
<trkpt lat="45.9723500" lon="10.1887350">
	<ele>1864.60</ele>
	<time>2025-08-16T08:09:15.000Z</time>
</trkpt>
<trkpt lat="45.9723510" lon="10.1887340">
	<ele>1864.60</ele>
	<time>2025-08-16T08:09:16.000Z</time>
</trkpt>
<trkpt lat="45.9723510" lon="10.1887320">
	<ele>1864.60</ele>
	<time>2025-08-16T08:09:17.000Z</time>
</trkpt>
<trkpt lat="45.9723490" lon="10.1887310">
	<ele>1864.80</ele>
	<time>2025-08-16T08:09:18.000Z</time>
</trkpt>
<trkpt lat="45.9723490" lon="10.1887350">
	<ele>1864.80</ele>
	<time>2025-08-16T08:09:19.000Z</time>
</trkpt>
<trkpt lat="45.9723470" lon="10.1887360">
	<ele>1865.00</ele>
	<time>2025-08-16T08:09:20.000Z</time>
</trkpt>
<trkpt lat="45.9723470" lon="10.1887360">
	<ele>1865.00</ele>
	<time>2025-08-16T08:09:21.000Z</time>
</trkpt>
<trkpt lat="45.9723480" lon="10.1887340">
	<ele>1865.00</ele>
	<time>2025-08-16T08:09:22.000Z</time>
</trkpt>
<trkpt lat="45.9723480" lon="10.1887340">
	<ele>1865.00</ele>
	<time>2025-08-16T08:09:23.000Z</time>
</trkpt>
<trkpt lat="45.9723480" lon="10.1887340">
	<ele>1865.00</ele>
	<time>2025-08-16T08:09:24.000Z</time>
</trkpt>
<trkpt lat="45.9723480" lon="10.1887340">
	<ele>1865.00</ele>
	<time>2025-08-16T08:09:25.000Z</time>
</trkpt>
<trkpt lat="45.9723480" lon="10.1887340">
	<ele>1864.80</ele>
	<time>2025-08-16T08:09:26.000Z</time>
</trkpt>
<trkpt lat="45.9723480" lon="10.1887340">
	<ele>1864.80</ele>
	<time>2025-08-16T08:09:27.000Z</time>
</trkpt>
<trkpt lat="45.9723480" lon="10.1887340">
	<ele>1864.80</ele>
	<time>2025-08-16T08:09:28.000Z</time>
</trkpt>
<trkpt lat="45.9723480" lon="10.1887340">
	<ele>1864.60</ele>
	<time>2025-08-16T08:09:29.000Z</time>
</trkpt>
<trkpt lat="45.9723480" lon="10.1887340">
	<ele>1864.60</ele>
	<time>2025-08-16T08:09:30.000Z</time>
</trkpt>
<trkpt lat="45.9723480" lon="10.1887340">
	<ele>1864.60</ele>
	<time>2025-08-16T08:09:31.000Z</time>
</trkpt>
<trkpt lat="45.9723480" lon="10.1887340">
	<ele>1864.60</ele>
	<time>2025-08-16T08:09:32.000Z</time>
</trkpt>
<trkpt lat="45.9723480" lon="10.1887340">
	<ele>1864.60</ele>
	<time>2025-08-16T08:09:33.000Z</time>
</trkpt>
<trkpt lat="45.9723480" lon="10.1887340">
	<ele>1864.60</ele>
	<time>2025-08-16T08:09:34.000Z</time>
</trkpt>
<trkpt lat="45.9723480" lon="10.1887340">
	<ele>1864.60</ele>
	<time>2025-08-16T08:09:35.000Z</time>
</trkpt>
<trkpt lat="45.9723480" lon="10.1887340">
	<ele>1864.60</ele>
	<time>2025-08-16T08:09:36.000Z</time>
</trkpt>
<trkpt lat="45.9723470" lon="10.1887320">
	<ele>1864.60</ele>
	<time>2025-08-16T08:09:37.000Z</time>
</trkpt>
<trkpt lat="45.9723460" lon="10.1887290">
	<ele>1864.60</ele>
	<time>2025-08-16T08:09:38.000Z</time>
</trkpt>
<trkpt lat="45.9723400" lon="10.1887190">
	<ele>1864.60</ele>
	<time>2025-08-16T08:09:39.000Z</time>
</trkpt>
<trkpt lat="45.9723350" lon="10.1887080">
	<ele>1864.80</ele>
	<time>2025-08-16T08:09:40.000Z</time>
</trkpt>
<trkpt lat="45.9723280" lon="10.1886950">
	<ele>1864.80</ele>
	<time>2025-08-16T08:09:41.000Z</time>
</trkpt>
<trkpt lat="45.9723190" lon="10.1886850">
	<ele>1864.80</ele>
	<time>2025-08-16T08:09:42.000Z</time>
</trkpt>
<trkpt lat="45.9723100" lon="10.1886770">
	<ele>1864.80</ele>
	<time>2025-08-16T08:09:43.000Z</time>
</trkpt>
<trkpt lat="45.9723030" lon="10.1886670">
	<ele>1865.00</ele>
	<time>2025-08-16T08:09:44.000Z</time>
</trkpt>
<trkpt lat="45.9722970" lon="10.1886560">
	<ele>1865.20</ele>
	<time>2025-08-16T08:09:45.000Z</time>
</trkpt>
<trkpt lat="45.9722920" lon="10.1886480">
	<ele>1865.40</ele>
	<time>2025-08-16T08:09:46.000Z</time>
</trkpt>
<trkpt lat="45.9722870" lon="10.1886410">
	<ele>1865.40</ele>
	<time>2025-08-16T08:09:47.000Z</time>
</trkpt>
<trkpt lat="45.9722840" lon="10.1886350">
	<ele>1865.40</ele>
	<time>2025-08-16T08:09:48.000Z</time>
</trkpt>
<trkpt lat="45.9722810" lon="10.1886300">
	<ele>1865.60</ele>
	<time>2025-08-16T08:09:49.000Z</time>
</trkpt>
<trkpt lat="45.9722760" lon="10.1886270">
	<ele>1865.80</ele>
	<time>2025-08-16T08:09:50.000Z</time>
</trkpt>
<trkpt lat="45.9722710" lon="10.1886190">
	<ele>1866.20</ele>
	<time>2025-08-16T08:09:51.000Z</time>
</trkpt>
<trkpt lat="45.9722620" lon="10.1886110">
	<ele>1866.40</ele>
	<time>2025-08-16T08:09:52.000Z</time>
</trkpt>
<trkpt lat="45.9722530" lon="10.1886030">
	<ele>1866.40</ele>
	<time>2025-08-16T08:09:53.000Z</time>
</trkpt>
<trkpt lat="45.9722450" lon="10.1885950">
	<ele>1866.60</ele>
	<time>2025-08-16T08:09:54.000Z</time>
</trkpt>
<trkpt lat="45.9722400" lon="10.1885870">
	<ele>1866.60</ele>
	<time>2025-08-16T08:09:55.000Z</time>
</trkpt>
<trkpt lat="45.9722320" lon="10.1885800">
	<ele>1866.80</ele>
	<time>2025-08-16T08:09:56.000Z</time>
</trkpt>
<trkpt lat="45.9722260" lon="10.1885730">
	<ele>1866.80</ele>
	<time>2025-08-16T08:09:57.000Z</time>
</trkpt>
<trkpt lat="45.9722230" lon="10.1885740">
	<ele>1866.80</ele>
	<time>2025-08-16T08:09:58.000Z</time>
</trkpt>
<trkpt lat="45.9722210" lon="10.1885740">
	<ele>1866.80</ele>
	<time>2025-08-16T08:09:59.000Z</time>
</trkpt>
<trkpt lat="45.9722200" lon="10.1885740">
	<ele>1866.80</ele>
	<time>2025-08-16T08:10:00.000Z</time>
</trkpt>
<trkpt lat="45.9722260" lon="10.1885710">
	<ele>1866.80</ele>
	<time>2025-08-16T08:10:01.000Z</time>
</trkpt>
<trkpt lat="45.9722290" lon="10.1885680">
	<ele>1867.00</ele>
	<time>2025-08-16T08:10:02.000Z</time>
</trkpt>
<trkpt lat="45.9722290" lon="10.1885670">
	<ele>1867.20</ele>
	<time>2025-08-16T08:10:03.000Z</time>
</trkpt>
<trkpt lat="45.9722300" lon="10.1885690">
	<ele>1867.20</ele>
	<time>2025-08-16T08:10:04.000Z</time>
</trkpt>
<trkpt lat="45.9722300" lon="10.1885680">
	<ele>1867.40</ele>
	<time>2025-08-16T08:10:05.000Z</time>
</trkpt>
<trkpt lat="45.9722280" lon="10.1885710">
	<ele>1867.40</ele>
	<time>2025-08-16T08:10:06.000Z</time>
</trkpt>
<trkpt lat="45.9722260" lon="10.1885710">
	<ele>1867.40</ele>
	<time>2025-08-16T08:10:07.000Z</time>
</trkpt>
<trkpt lat="45.9722230" lon="10.1885710">
	<ele>1867.40</ele>
	<time>2025-08-16T08:10:08.000Z</time>
</trkpt>
<trkpt lat="45.9722160" lon="10.1885710">
	<ele>1867.40</ele>
	<time>2025-08-16T08:10:09.000Z</time>
</trkpt>
<trkpt lat="45.9722090" lon="10.1885680">
	<ele>1867.40</ele>
	<time>2025-08-16T08:10:10.000Z</time>
</trkpt>
<trkpt lat="45.9722010" lon="10.1885640">
	<ele>1867.40</ele>
	<time>2025-08-16T08:10:11.000Z</time>
</trkpt>
<trkpt lat="45.9721950" lon="10.1885570">
	<ele>1867.40</ele>
	<time>2025-08-16T08:10:12.000Z</time>
</trkpt>
<trkpt lat="45.9721920" lon="10.1885490">
	<ele>1867.40</ele>
	<time>2025-08-16T08:10:13.000Z</time>
</trkpt>
<trkpt lat="45.9721870" lon="10.1885420">
	<ele>1867.40</ele>
	<time>2025-08-16T08:10:14.000Z</time>
</trkpt>
<trkpt lat="45.9721810" lon="10.1885370">
	<ele>1867.40</ele>
	<time>2025-08-16T08:10:15.000Z</time>
</trkpt>
<trkpt lat="45.9721740" lon="10.1885330">
	<ele>1867.20</ele>
	<time>2025-08-16T08:10:16.000Z</time>
</trkpt>
<trkpt lat="45.9721660" lon="10.1885310">
	<ele>1867.00</ele>
	<time>2025-08-16T08:10:17.000Z</time>
</trkpt>
<trkpt lat="45.9721570" lon="10.1885300">
	<ele>1866.80</ele>
	<time>2025-08-16T08:10:18.000Z</time>
</trkpt>
<trkpt lat="45.9721520" lon="10.1885210">
	<ele>1866.60</ele>
	<time>2025-08-16T08:10:19.000Z</time>
</trkpt>
<trkpt lat="45.9721470" lon="10.1885110">
	<ele>1866.40</ele>
	<time>2025-08-16T08:10:20.000Z</time>
</trkpt>
<trkpt lat="45.9721430" lon="10.1885020">
	<ele>1866.40</ele>
	<time>2025-08-16T08:10:21.000Z</time>
</trkpt>
<trkpt lat="45.9721400" lon="10.1884980">
	<ele>1866.40</ele>
	<time>2025-08-16T08:10:22.000Z</time>
</trkpt>
<trkpt lat="45.9721380" lon="10.1884940">
	<ele>1866.40</ele>
	<time>2025-08-16T08:10:23.000Z</time>
</trkpt>
<trkpt lat="45.9721370" lon="10.1884890">
	<ele>1866.40</ele>
	<time>2025-08-16T08:10:24.000Z</time>
</trkpt>
<trkpt lat="45.9721340" lon="10.1884850">
	<ele>1866.60</ele>
	<time>2025-08-16T08:10:25.000Z</time>
</trkpt>
<trkpt lat="45.9721290" lon="10.1884890">
	<ele>1866.60</ele>
	<time>2025-08-16T08:10:26.000Z</time>
</trkpt>
<trkpt lat="45.9721240" lon="10.1884880">
	<ele>1866.60</ele>
	<time>2025-08-16T08:10:27.000Z</time>
</trkpt>
<trkpt lat="45.9721220" lon="10.1884860">
	<ele>1866.60</ele>
	<time>2025-08-16T08:10:28.000Z</time>
</trkpt>
<trkpt lat="45.9721190" lon="10.1884820">
	<ele>1866.20</ele>
	<time>2025-08-16T08:10:29.000Z</time>
</trkpt>
<trkpt lat="45.9721170" lon="10.1884810">
	<ele>1866.00</ele>
	<time>2025-08-16T08:10:30.000Z</time>
</trkpt>
<trkpt lat="45.9721180" lon="10.1884800">
	<ele>1865.80</ele>
	<time>2025-08-16T08:10:31.000Z</time>
</trkpt>
<trkpt lat="45.9721160" lon="10.1884810">
	<ele>1865.60</ele>
	<time>2025-08-16T08:10:32.000Z</time>
</trkpt>
<trkpt lat="45.9721140" lon="10.1884810">
	<ele>1865.40</ele>
	<time>2025-08-16T08:10:33.000Z</time>
</trkpt>
<trkpt lat="45.9721110" lon="10.1884840">
	<ele>1865.00</ele>
	<time>2025-08-16T08:10:34.000Z</time>
</trkpt>
<trkpt lat="45.9721100" lon="10.1884850">
	<ele>1864.60</ele>
	<time>2025-08-16T08:10:35.000Z</time>
</trkpt>
<trkpt lat="45.9721090" lon="10.1884910">
	<ele>1864.40</ele>
	<time>2025-08-16T08:10:36.000Z</time>
</trkpt>
<trkpt lat="45.9721070" lon="10.1884910">
	<ele>1864.20</ele>
	<time>2025-08-16T08:10:37.000Z</time>
</trkpt>
<trkpt lat="45.9721050" lon="10.1884890">
	<ele>1864.00</ele>
	<time>2025-08-16T08:10:38.000Z</time>
</trkpt>
<trkpt lat="45.9721050" lon="10.1884820">
	<ele>1864.00</ele>
	<time>2025-08-16T08:10:39.000Z</time>
</trkpt>
<trkpt lat="45.9720970" lon="10.1884800">
	<ele>1863.80</ele>
	<time>2025-08-16T08:10:40.000Z</time>
</trkpt>
<trkpt lat="45.9720890" lon="10.1884810">
	<ele>1863.60</ele>
	<time>2025-08-16T08:10:41.000Z</time>
</trkpt>
<trkpt lat="45.9720840" lon="10.1884800">
	<ele>1863.40</ele>
	<time>2025-08-16T08:10:42.000Z</time>
</trkpt>
<trkpt lat="45.9720770" lon="10.1884760">
	<ele>1863.20</ele>
	<time>2025-08-16T08:10:43.000Z</time>
</trkpt>
<trkpt lat="45.9720710" lon="10.1884710">
	<ele>1863.00</ele>
	<time>2025-08-16T08:10:44.000Z</time>
</trkpt>
<trkpt lat="45.9720650" lon="10.1884580">
	<ele>1862.80</ele>
	<time>2025-08-16T08:10:45.000Z</time>
</trkpt>
<trkpt lat="45.9720590" lon="10.1884540">
	<ele>1862.40</ele>
	<time>2025-08-16T08:10:46.000Z</time>
</trkpt>
<trkpt lat="45.9720520" lon="10.1884500">
	<ele>1862.20</ele>
	<time>2025-08-16T08:10:47.000Z</time>
</trkpt>
<trkpt lat="45.9720470" lon="10.1884470">
	<ele>1862.00</ele>
	<time>2025-08-16T08:10:48.000Z</time>
</trkpt>
<trkpt lat="45.9720420" lon="10.1884410">
	<ele>1861.60</ele>
	<time>2025-08-16T08:10:49.000Z</time>
</trkpt>
<trkpt lat="45.9720370" lon="10.1884380">
	<ele>1861.60</ele>
	<time>2025-08-16T08:10:50.000Z</time>
</trkpt>
<trkpt lat="45.9720330" lon="10.1884350">
	<ele>1861.40</ele>
	<time>2025-08-16T08:10:51.000Z</time>
</trkpt>
<trkpt lat="45.9720270" lon="10.1884310">
	<ele>1861.40</ele>
	<time>2025-08-16T08:10:52.000Z</time>
</trkpt>
<trkpt lat="45.9720200" lon="10.1884260">
	<ele>1861.00</ele>
	<time>2025-08-16T08:10:53.000Z</time>
</trkpt>
<trkpt lat="45.9720120" lon="10.1884200">
	<ele>1860.60</ele>
	<time>2025-08-16T08:10:54.000Z</time>
</trkpt>
<trkpt lat="45.9720050" lon="10.1884160">
	<ele>1860.60</ele>
	<time>2025-08-16T08:10:55.000Z</time>
</trkpt>
<trkpt lat="45.9720010" lon="10.1884120">
	<ele>1860.40</ele>
	<time>2025-08-16T08:10:56.000Z</time>
</trkpt>
<trkpt lat="45.9719970" lon="10.1884100">
	<ele>1860.00</ele>
	<time>2025-08-16T08:10:57.000Z</time>
</trkpt>
<trkpt lat="45.9719930" lon="10.1884110">
	<ele>1860.00</ele>
	<time>2025-08-16T08:10:58.000Z</time>
</trkpt>
<trkpt lat="45.9719880" lon="10.1884140">
	<ele>1859.80</ele>
	<time>2025-08-16T08:10:59.000Z</time>
</trkpt>
<trkpt lat="45.9719830" lon="10.1884170">
	<ele>1859.60</ele>
	<time>2025-08-16T08:11:00.000Z</time>
</trkpt>
<trkpt lat="45.9719790" lon="10.1884160">
	<ele>1859.60</ele>
	<time>2025-08-16T08:11:01.000Z</time>
</trkpt>
<trkpt lat="45.9719740" lon="10.1884100">
	<ele>1859.40</ele>
	<time>2025-08-16T08:11:02.000Z</time>
</trkpt>
<trkpt lat="45.9719650" lon="10.1884090">
	<ele>1859.00</ele>
	<time>2025-08-16T08:11:03.000Z</time>
</trkpt>
<trkpt lat="45.9719580" lon="10.1884040">
	<ele>1858.60</ele>
	<time>2025-08-16T08:11:04.000Z</time>
</trkpt>
<trkpt lat="45.9719500" lon="10.1884010">
	<ele>1858.40</ele>
	<time>2025-08-16T08:11:05.000Z</time>
</trkpt>
<trkpt lat="45.9719390" lon="10.1883940">
	<ele>1858.00</ele>
	<time>2025-08-16T08:11:06.000Z</time>
</trkpt>
<trkpt lat="45.9719280" lon="10.1883840">
	<ele>1857.80</ele>
	<time>2025-08-16T08:11:07.000Z</time>
</trkpt>
<trkpt lat="45.9719170" lon="10.1883760">
	<ele>1857.60</ele>
	<time>2025-08-16T08:11:08.000Z</time>
</trkpt>
<trkpt lat="45.9719100" lon="10.1883680">
	<ele>1857.60</ele>
	<time>2025-08-16T08:11:09.000Z</time>
</trkpt>
<trkpt lat="45.9719040" lon="10.1883620">
	<ele>1857.40</ele>
	<time>2025-08-16T08:11:10.000Z</time>
</trkpt>
<trkpt lat="45.9718990" lon="10.1883570">
	<ele>1857.20</ele>
	<time>2025-08-16T08:11:11.000Z</time>
</trkpt>
<trkpt lat="45.9718910" lon="10.1883550">
	<ele>1857.20</ele>
	<time>2025-08-16T08:11:12.000Z</time>
</trkpt>
<trkpt lat="45.9718840" lon="10.1883530">
	<ele>1857.20</ele>
	<time>2025-08-16T08:11:13.000Z</time>
</trkpt>
<trkpt lat="45.9718780" lon="10.1883510">
	<ele>1857.00</ele>
	<time>2025-08-16T08:11:14.000Z</time>
</trkpt>
<trkpt lat="45.9718700" lon="10.1883520">
	<ele>1857.00</ele>
	<time>2025-08-16T08:11:15.000Z</time>
</trkpt>
<trkpt lat="45.9718630" lon="10.1883510">
	<ele>1857.00</ele>
	<time>2025-08-16T08:11:16.000Z</time>
</trkpt>
<trkpt lat="45.9718560" lon="10.1883480">
	<ele>1856.80</ele>
	<time>2025-08-16T08:11:17.000Z</time>
</trkpt>
<trkpt lat="45.9718530" lon="10.1883400">
	<ele>1856.60</ele>
	<time>2025-08-16T08:11:18.000Z</time>
</trkpt>
<trkpt lat="45.9718450" lon="10.1883370">
	<ele>1856.40</ele>
	<time>2025-08-16T08:11:19.000Z</time>
</trkpt>
<trkpt lat="45.9718370" lon="10.1883230">
	<ele>1856.00</ele>
	<time>2025-08-16T08:11:20.000Z</time>
</trkpt>
<trkpt lat="45.9718330" lon="10.1883130">
	<ele>1855.80</ele>
	<time>2025-08-16T08:11:21.000Z</time>
</trkpt>
<trkpt lat="45.9718330" lon="10.1882920">
	<ele>1855.60</ele>
	<time>2025-08-16T08:11:22.000Z</time>
</trkpt>
<trkpt lat="45.9718280" lon="10.1882780">
	<ele>1855.40</ele>
	<time>2025-08-16T08:11:23.000Z</time>
</trkpt>
<trkpt lat="45.9718280" lon="10.1882620">
	<ele>1855.40</ele>
	<time>2025-08-16T08:11:24.000Z</time>
</trkpt>
<trkpt lat="45.9718240" lon="10.1882570">
	<ele>1855.20</ele>
	<time>2025-08-16T08:11:25.000Z</time>
</trkpt>
<trkpt lat="45.9718230" lon="10.1882460">
	<ele>1855.20</ele>
	<time>2025-08-16T08:11:26.000Z</time>
</trkpt>
<trkpt lat="45.9718230" lon="10.1882420">
	<ele>1855.20</ele>
	<time>2025-08-16T08:11:27.000Z</time>
</trkpt>
<trkpt lat="45.9718230" lon="10.1882390">
	<ele>1855.20</ele>
	<time>2025-08-16T08:11:28.000Z</time>
</trkpt>
<trkpt lat="45.9718200" lon="10.1882400">
	<ele>1855.00</ele>
	<time>2025-08-16T08:11:29.000Z</time>
</trkpt>
<trkpt lat="45.9718230" lon="10.1882430">
	<ele>1855.00</ele>
	<time>2025-08-16T08:11:30.000Z</time>
</trkpt>
<trkpt lat="45.9718240" lon="10.1882450">
	<ele>1855.00</ele>
	<time>2025-08-16T08:11:31.000Z</time>
</trkpt>
<trkpt lat="45.9718260" lon="10.1882470">
	<ele>1855.00</ele>
	<time>2025-08-16T08:11:32.000Z</time>
</trkpt>
<trkpt lat="45.9718280" lon="10.1882510">
	<ele>1854.80</ele>
	<time>2025-08-16T08:11:33.000Z</time>
</trkpt>
<trkpt lat="45.9718310" lon="10.1882530">
	<ele>1854.80</ele>
	<time>2025-08-16T08:11:34.000Z</time>
</trkpt>
<trkpt lat="45.9718320" lon="10.1882510">
	<ele>1854.80</ele>
	<time>2025-08-16T08:11:35.000Z</time>
</trkpt>
<trkpt lat="45.9718370" lon="10.1882490">
	<ele>1854.80</ele>
	<time>2025-08-16T08:11:36.000Z</time>
</trkpt>
<trkpt lat="45.9718410" lon="10.1882490">
	<ele>1854.80</ele>
	<time>2025-08-16T08:11:37.000Z</time>
</trkpt>
<trkpt lat="45.9718430" lon="10.1882510">
	<ele>1854.80</ele>
	<time>2025-08-16T08:11:38.000Z</time>
</trkpt>
<trkpt lat="45.9718440" lon="10.1882530">
	<ele>1854.80</ele>
	<time>2025-08-16T08:11:39.000Z</time>
</trkpt>
<trkpt lat="45.9718440" lon="10.1882490">
	<ele>1854.80</ele>
	<time>2025-08-16T08:11:40.000Z</time>
</trkpt>
<trkpt lat="45.9718440" lon="10.1882490">
	<ele>1855.00</ele>
	<time>2025-08-16T08:11:41.000Z</time>
</trkpt>
<trkpt lat="45.9718440" lon="10.1882490">
	<ele>1855.00</ele>
	<time>2025-08-16T08:11:42.000Z</time>
</trkpt>
<trkpt lat="45.9718440" lon="10.1882490">
	<ele>1855.00</ele>
	<time>2025-08-16T08:11:43.000Z</time>
</trkpt>
<trkpt lat="45.9718440" lon="10.1882490">
	<ele>1855.20</ele>
	<time>2025-08-16T08:11:44.000Z</time>
</trkpt>
<trkpt lat="45.9718440" lon="10.1882490">
	<ele>1855.20</ele>
	<time>2025-08-16T08:11:45.000Z</time>
</trkpt>
<trkpt lat="45.9718440" lon="10.1882490">
	<ele>1855.20</ele>
	<time>2025-08-16T08:11:46.000Z</time>
</trkpt>
<trkpt lat="45.9718440" lon="10.1882490">
	<ele>1855.20</ele>
	<time>2025-08-16T08:11:47.000Z</time>
</trkpt>
<trkpt lat="45.9718440" lon="10.1882490">
	<ele>1855.20</ele>
	<time>2025-08-16T08:11:48.000Z</time>
</trkpt>
<trkpt lat="45.9718440" lon="10.1882490">
	<ele>1855.20</ele>
	<time>2025-08-16T08:11:49.000Z</time>
</trkpt>
<trkpt lat="45.9718440" lon="10.1882490">
	<ele>1855.00</ele>
	<time>2025-08-16T08:11:50.000Z</time>
</trkpt>
<trkpt lat="45.9718430" lon="10.1882490">
	<ele>1855.00</ele>
	<time>2025-08-16T08:11:51.000Z</time>
</trkpt>
<trkpt lat="45.9718430" lon="10.1882490">
	<ele>1855.00</ele>
	<time>2025-08-16T08:11:52.000Z</time>
</trkpt>
<trkpt lat="45.9718410" lon="10.1882490">
	<ele>1854.80</ele>
	<time>2025-08-16T08:11:53.000Z</time>
</trkpt>
<trkpt lat="45.9718410" lon="10.1882490">
	<ele>1854.80</ele>
	<time>2025-08-16T08:11:54.000Z</time>
</trkpt>
<trkpt lat="45.9718410" lon="10.1882490">
	<ele>1855.00</ele>
	<time>2025-08-16T08:11:55.000Z</time>
</trkpt>
<trkpt lat="45.9718400" lon="10.1882490">
	<ele>1855.20</ele>
	<time>2025-08-16T08:11:56.000Z</time>
</trkpt>
<trkpt lat="45.9718400" lon="10.1882490">
	<ele>1855.60</ele>
	<time>2025-08-16T08:11:57.000Z</time>
</trkpt>
<trkpt lat="45.9718390" lon="10.1882490">
	<ele>1855.80</ele>
	<time>2025-08-16T08:11:58.000Z</time>
</trkpt>
<trkpt lat="45.9718390" lon="10.1882450">
	<ele>1856.00</ele>
	<time>2025-08-16T08:11:59.000Z</time>
</trkpt>
<trkpt lat="45.9718350" lon="10.1882380">
	<ele>1856.00</ele>
	<time>2025-08-16T08:12:00.000Z</time>
</trkpt>
<trkpt lat="45.9718330" lon="10.1882310">
	<ele>1856.20</ele>
	<time>2025-08-16T08:12:01.000Z</time>
</trkpt>
<trkpt lat="45.9718280" lon="10.1882220">
	<ele>1856.20</ele>
	<time>2025-08-16T08:12:02.000Z</time>
</trkpt>
<trkpt lat="45.9718240" lon="10.1882130">
	<ele>1856.20</ele>
	<time>2025-08-16T08:12:03.000Z</time>
</trkpt>
<trkpt lat="45.9718200" lon="10.1882020">
	<ele>1856.20</ele>
	<time>2025-08-16T08:12:04.000Z</time>
</trkpt>
<trkpt lat="45.9718130" lon="10.1881900">
	<ele>1856.40</ele>
	<time>2025-08-16T08:12:05.000Z</time>
</trkpt>
<trkpt lat="45.9718080" lon="10.1881810">
	<ele>1856.60</ele>
	<time>2025-08-16T08:12:06.000Z</time>
</trkpt>
<trkpt lat="45.9718050" lon="10.1881680">
	<ele>1856.60</ele>
	<time>2025-08-16T08:12:07.000Z</time>
</trkpt>
<trkpt lat="45.9718020" lon="10.1881520">
	<ele>1856.80</ele>
	<time>2025-08-16T08:12:08.000Z</time>
</trkpt>
<trkpt lat="45.9717950" lon="10.1881450">
	<ele>1857.00</ele>
	<time>2025-08-16T08:12:09.000Z</time>
</trkpt>
<trkpt lat="45.9717890" lon="10.1881390">
	<ele>1857.00</ele>
	<time>2025-08-16T08:12:10.000Z</time>
</trkpt>
<trkpt lat="45.9717850" lon="10.1881300">
	<ele>1857.00</ele>
	<time>2025-08-16T08:12:11.000Z</time>
</trkpt>
<trkpt lat="45.9717820" lon="10.1881170">
	<ele>1857.00</ele>
	<time>2025-08-16T08:12:12.000Z</time>
</trkpt>
<trkpt lat="45.9717760" lon="10.1881080">
	<ele>1857.00</ele>
	<time>2025-08-16T08:12:13.000Z</time>
</trkpt>
<trkpt lat="45.9717720" lon="10.1880980">
	<ele>1857.00</ele>
	<time>2025-08-16T08:12:14.000Z</time>
</trkpt>
<trkpt lat="45.9717680" lon="10.1880890">
	<ele>1857.00</ele>
	<time>2025-08-16T08:12:15.000Z</time>
</trkpt>
<trkpt lat="45.9717630" lon="10.1880830">
	<ele>1857.00</ele>
	<time>2025-08-16T08:12:16.000Z</time>
</trkpt>
<trkpt lat="45.9717570" lon="10.1880730">
	<ele>1857.20</ele>
	<time>2025-08-16T08:12:17.000Z</time>
</trkpt>
<trkpt lat="45.9717510" lon="10.1880670">
	<ele>1857.20</ele>
	<time>2025-08-16T08:12:18.000Z</time>
</trkpt>
<trkpt lat="45.9717450" lon="10.1880600">
	<ele>1857.40</ele>
	<time>2025-08-16T08:12:19.000Z</time>
</trkpt>
<trkpt lat="45.9717360" lon="10.1880560">
	<ele>1857.40</ele>
	<time>2025-08-16T08:12:20.000Z</time>
</trkpt>
<trkpt lat="45.9717270" lon="10.1880550">
	<ele>1857.60</ele>
	<time>2025-08-16T08:12:21.000Z</time>
</trkpt>
<trkpt lat="45.9717190" lon="10.1880500">
	<ele>1857.60</ele>
	<time>2025-08-16T08:12:22.000Z</time>
</trkpt>
<trkpt lat="45.9717130" lon="10.1880410">
	<ele>1857.60</ele>
	<time>2025-08-16T08:12:23.000Z</time>
</trkpt>
<trkpt lat="45.9717050" lon="10.1880290">
	<ele>1857.60</ele>
	<time>2025-08-16T08:12:24.000Z</time>
</trkpt>
<trkpt lat="45.9716970" lon="10.1880250">
	<ele>1857.60</ele>
	<time>2025-08-16T08:12:25.000Z</time>
</trkpt>
<trkpt lat="45.9716900" lon="10.1880180">
	<ele>1857.60</ele>
	<time>2025-08-16T08:12:26.000Z</time>
</trkpt>
<trkpt lat="45.9716800" lon="10.1880100">
	<ele>1857.60</ele>
	<time>2025-08-16T08:12:27.000Z</time>
</trkpt>
<trkpt lat="45.9716700" lon="10.1880020">
	<ele>1857.40</ele>
	<time>2025-08-16T08:12:28.000Z</time>
</trkpt>
<trkpt lat="45.9716640" lon="10.1879930">
	<ele>1857.60</ele>
	<time>2025-08-16T08:12:29.000Z</time>
</trkpt>
<trkpt lat="45.9716560" lon="10.1879850">
	<ele>1857.60</ele>
	<time>2025-08-16T08:12:30.000Z</time>
</trkpt>
<trkpt lat="45.9716510" lon="10.1879770">
	<ele>1857.60</ele>
	<time>2025-08-16T08:12:31.000Z</time>
</trkpt>
<trkpt lat="45.9716460" lon="10.1879750">
	<ele>1857.60</ele>
	<time>2025-08-16T08:12:32.000Z</time>
</trkpt>
<trkpt lat="45.9716420" lon="10.1879670">
	<ele>1857.60</ele>
	<time>2025-08-16T08:12:33.000Z</time>
</trkpt>
<trkpt lat="45.9716400" lon="10.1879540">
	<ele>1857.60</ele>
	<time>2025-08-16T08:12:34.000Z</time>
</trkpt>
<trkpt lat="45.9716330" lon="10.1879440">
	<ele>1857.40</ele>
	<time>2025-08-16T08:12:35.000Z</time>
</trkpt>
<trkpt lat="45.9716250" lon="10.1879350">
	<ele>1857.20</ele>
	<time>2025-08-16T08:12:36.000Z</time>
</trkpt>
<trkpt lat="45.9716160" lon="10.1879260">
	<ele>1857.20</ele>
	<time>2025-08-16T08:12:37.000Z</time>
</trkpt>
<trkpt lat="45.9716090" lon="10.1879170">
	<ele>1857.20</ele>
	<time>2025-08-16T08:12:38.000Z</time>
</trkpt>
<trkpt lat="45.9716040" lon="10.1879070">
	<ele>1857.20</ele>
	<time>2025-08-16T08:12:39.000Z</time>
</trkpt>
<trkpt lat="45.9715980" lon="10.1878970">
	<ele>1857.20</ele>
	<time>2025-08-16T08:12:40.000Z</time>
</trkpt>
<trkpt lat="45.9715890" lon="10.1878930">
	<ele>1857.20</ele>
	<time>2025-08-16T08:12:41.000Z</time>
</trkpt>
<trkpt lat="45.9715820" lon="10.1878860">
	<ele>1857.20</ele>
	<time>2025-08-16T08:12:42.000Z</time>
</trkpt>
<trkpt lat="45.9715760" lon="10.1878760">
	<ele>1857.20</ele>
	<time>2025-08-16T08:12:43.000Z</time>
</trkpt>
<trkpt lat="45.9715740" lon="10.1878770">
	<ele>1857.20</ele>
	<time>2025-08-16T08:12:44.000Z</time>
</trkpt>
<trkpt lat="45.9715730" lon="10.1878760">
	<ele>1857.20</ele>
	<time>2025-08-16T08:12:45.000Z</time>
</trkpt>
<trkpt lat="45.9715740" lon="10.1878740">
	<ele>1857.20</ele>
	<time>2025-08-16T08:12:46.000Z</time>
</trkpt>
<trkpt lat="45.9715760" lon="10.1878760">
	<ele>1857.20</ele>
	<time>2025-08-16T08:12:47.000Z</time>
</trkpt>
<trkpt lat="45.9715750" lon="10.1878760">
	<ele>1857.40</ele>
	<time>2025-08-16T08:12:48.000Z</time>
</trkpt>
<trkpt lat="45.9715740" lon="10.1878750">
	<ele>1857.60</ele>
	<time>2025-08-16T08:12:49.000Z</time>
</trkpt>
<trkpt lat="45.9715700" lon="10.1878590">
	<ele>1857.80</ele>
	<time>2025-08-16T08:12:50.000Z</time>
</trkpt>
<trkpt lat="45.9715650" lon="10.1878520">
	<ele>1857.80</ele>
	<time>2025-08-16T08:12:51.000Z</time>
</trkpt>
<trkpt lat="45.9715630" lon="10.1878490">
	<ele>1857.80</ele>
	<time>2025-08-16T08:12:52.000Z</time>
</trkpt>
<trkpt lat="45.9715630" lon="10.1878470">
	<ele>1857.80</ele>
	<time>2025-08-16T08:12:53.000Z</time>
</trkpt>
<trkpt lat="45.9715630" lon="10.1878470">
	<ele>1857.80</ele>
	<time>2025-08-16T08:12:54.000Z</time>
</trkpt>
<trkpt lat="45.9715630" lon="10.1878450">
	<ele>1857.80</ele>
	<time>2025-08-16T08:12:55.000Z</time>
</trkpt>
<trkpt lat="45.9715610" lon="10.1878430">
	<ele>1858.00</ele>
	<time>2025-08-16T08:12:56.000Z</time>
</trkpt>
<trkpt lat="45.9715590" lon="10.1878400">
	<ele>1858.00</ele>
	<time>2025-08-16T08:12:57.000Z</time>
</trkpt>
<trkpt lat="45.9715580" lon="10.1878330">
	<ele>1858.00</ele>
	<time>2025-08-16T08:12:58.000Z</time>
</trkpt>
<trkpt lat="45.9715530" lon="10.1878250">
	<ele>1857.80</ele>
	<time>2025-08-16T08:12:59.000Z</time>
</trkpt>
<trkpt lat="45.9715520" lon="10.1878130">
	<ele>1857.80</ele>
	<time>2025-08-16T08:13:00.000Z</time>
</trkpt>
<trkpt lat="45.9715510" lon="10.1878020">
	<ele>1857.80</ele>
	<time>2025-08-16T08:13:01.000Z</time>
</trkpt>
<trkpt lat="45.9715480" lon="10.1877970">
	<ele>1857.80</ele>
	<time>2025-08-16T08:13:02.000Z</time>
</trkpt>
<trkpt lat="45.9715480" lon="10.1877880">
	<ele>1857.80</ele>
	<time>2025-08-16T08:13:03.000Z</time>
</trkpt>
<trkpt lat="45.9715450" lon="10.1877790">
	<ele>1857.60</ele>
	<time>2025-08-16T08:13:04.000Z</time>
</trkpt>
<trkpt lat="45.9715400" lon="10.1877790">
	<ele>1857.40</ele>
	<time>2025-08-16T08:13:05.000Z</time>
</trkpt>
<trkpt lat="45.9715310" lon="10.1877830">
	<ele>1857.20</ele>
	<time>2025-08-16T08:13:06.000Z</time>
</trkpt>
<trkpt lat="45.9715250" lon="10.1877790">
	<ele>1857.00</ele>
	<time>2025-08-16T08:13:07.000Z</time>
</trkpt>
<trkpt lat="45.9715180" lon="10.1877730">
	<ele>1856.80</ele>
	<time>2025-08-16T08:13:08.000Z</time>
</trkpt>
<trkpt lat="45.9715130" lon="10.1877640">
	<ele>1856.60</ele>
	<time>2025-08-16T08:13:09.000Z</time>
</trkpt>
<trkpt lat="45.9715050" lon="10.1877600">
	<ele>1856.20</ele>
	<time>2025-08-16T08:13:10.000Z</time>
</trkpt>
<trkpt lat="45.9714980" lon="10.1877580">
	<ele>1856.00</ele>
	<time>2025-08-16T08:13:11.000Z</time>
</trkpt>
<trkpt lat="45.9714890" lon="10.1877550">
	<ele>1855.80</ele>
	<time>2025-08-16T08:13:12.000Z</time>
</trkpt>
<trkpt lat="45.9714800" lon="10.1877540">
	<ele>1855.60</ele>
	<time>2025-08-16T08:13:13.000Z</time>
</trkpt>
<trkpt lat="45.9714690" lon="10.1877510">
	<ele>1855.20</ele>
	<time>2025-08-16T08:13:14.000Z</time>
</trkpt>
<trkpt lat="45.9714650" lon="10.1877450">
	<ele>1855.00</ele>
	<time>2025-08-16T08:13:15.000Z</time>
</trkpt>
<trkpt lat="45.9714640" lon="10.1877410">
	<ele>1854.80</ele>
	<time>2025-08-16T08:13:16.000Z</time>
</trkpt>
<trkpt lat="45.9714670" lon="10.1877340">
	<ele>1854.60</ele>
	<time>2025-08-16T08:13:17.000Z</time>
</trkpt>
<trkpt lat="45.9714660" lon="10.1877290">
	<ele>1854.40</ele>
	<time>2025-08-16T08:13:18.000Z</time>
</trkpt>
<trkpt lat="45.9714660" lon="10.1877170">
	<ele>1854.40</ele>
	<time>2025-08-16T08:13:19.000Z</time>
</trkpt>
<trkpt lat="45.9714620" lon="10.1877080">
	<ele>1854.20</ele>
	<time>2025-08-16T08:13:20.000Z</time>
</trkpt>
<trkpt lat="45.9714590" lon="10.1876960">
	<ele>1854.00</ele>
	<time>2025-08-16T08:13:21.000Z</time>
</trkpt>
<trkpt lat="45.9714580" lon="10.1876800">
	<ele>1853.60</ele>
	<time>2025-08-16T08:13:22.000Z</time>
</trkpt>
<trkpt lat="45.9714520" lon="10.1876670">
	<ele>1853.20</ele>
	<time>2025-08-16T08:13:23.000Z</time>
</trkpt>
<trkpt lat="45.9714430" lon="10.1876580">
	<ele>1853.00</ele>
	<time>2025-08-16T08:13:24.000Z</time>
</trkpt>
<trkpt lat="45.9714340" lon="10.1876480">
	<ele>1852.60</ele>
	<time>2025-08-16T08:13:25.000Z</time>
</trkpt>
<trkpt lat="45.9714220" lon="10.1876350">
	<ele>1852.40</ele>
	<time>2025-08-16T08:13:26.000Z</time>
</trkpt>
<trkpt lat="45.9714130" lon="10.1876230">
	<ele>1852.20</ele>
	<time>2025-08-16T08:13:27.000Z</time>
</trkpt>
<trkpt lat="45.9714000" lon="10.1876150">
	<ele>1852.00</ele>
	<time>2025-08-16T08:13:28.000Z</time>
</trkpt>
<trkpt lat="45.9713930" lon="10.1876130">
	<ele>1851.80</ele>
	<time>2025-08-16T08:13:29.000Z</time>
</trkpt>
<trkpt lat="45.9713890" lon="10.1876090">
	<ele>1851.80</ele>
	<time>2025-08-16T08:13:30.000Z</time>
</trkpt>
<trkpt lat="45.9713840" lon="10.1876130">
	<ele>1851.80</ele>
	<time>2025-08-16T08:13:31.000Z</time>
</trkpt>
<trkpt lat="45.9713810" lon="10.1876150">
	<ele>1851.80</ele>
	<time>2025-08-16T08:13:32.000Z</time>
</trkpt>
<trkpt lat="45.9713750" lon="10.1876200">
	<ele>1851.80</ele>
	<time>2025-08-16T08:13:33.000Z</time>
</trkpt>
<trkpt lat="45.9713680" lon="10.1876210">
	<ele>1851.60</ele>
	<time>2025-08-16T08:13:34.000Z</time>
</trkpt>
<trkpt lat="45.9713610" lon="10.1876120">
	<ele>1851.20</ele>
	<time>2025-08-16T08:13:35.000Z</time>
</trkpt>
<trkpt lat="45.9713510" lon="10.1876000">
	<ele>1851.00</ele>
	<time>2025-08-16T08:13:36.000Z</time>
</trkpt>
<trkpt lat="45.9713420" lon="10.1875940">
	<ele>1850.60</ele>
	<time>2025-08-16T08:13:37.000Z</time>
</trkpt>
<trkpt lat="45.9713340" lon="10.1875920">
	<ele>1850.60</ele>
	<time>2025-08-16T08:13:38.000Z</time>
</trkpt>
<trkpt lat="45.9713250" lon="10.1876000">
	<ele>1850.20</ele>
	<time>2025-08-16T08:13:39.000Z</time>
</trkpt>
<trkpt lat="45.9713160" lon="10.1876090">
	<ele>1850.20</ele>
	<time>2025-08-16T08:13:40.000Z</time>
</trkpt>
<trkpt lat="45.9713070" lon="10.1876170">
	<ele>1850.00</ele>
	<time>2025-08-16T08:13:41.000Z</time>
</trkpt>
<trkpt lat="45.9712980" lon="10.1876200">
	<ele>1849.60</ele>
	<time>2025-08-16T08:13:42.000Z</time>
</trkpt>
<trkpt lat="45.9712900" lon="10.1876200">
	<ele>1849.20</ele>
	<time>2025-08-16T08:13:43.000Z</time>
</trkpt>
<trkpt lat="45.9712840" lon="10.1876250">
	<ele>1849.00</ele>
	<time>2025-08-16T08:13:44.000Z</time>
</trkpt>
<trkpt lat="45.9712810" lon="10.1876290">
	<ele>1848.80</ele>
	<time>2025-08-16T08:13:45.000Z</time>
</trkpt>
<trkpt lat="45.9712780" lon="10.1876330">
	<ele>1848.40</ele>
	<time>2025-08-16T08:13:46.000Z</time>
</trkpt>
<trkpt lat="45.9712730" lon="10.1876370">
	<ele>1848.40</ele>
	<time>2025-08-16T08:13:47.000Z</time>
</trkpt>
<trkpt lat="45.9712670" lon="10.1876400">
	<ele>1848.20</ele>
	<time>2025-08-16T08:13:48.000Z</time>
</trkpt>
<trkpt lat="45.9712600" lon="10.1876430">
	<ele>1848.20</ele>
	<time>2025-08-16T08:13:49.000Z</time>
</trkpt>
<trkpt lat="45.9712550" lon="10.1876410">
	<ele>1848.00</ele>
	<time>2025-08-16T08:13:50.000Z</time>
</trkpt>
<trkpt lat="45.9712470" lon="10.1876430">
	<ele>1847.80</ele>
	<time>2025-08-16T08:13:51.000Z</time>
</trkpt>
<trkpt lat="45.9712420" lon="10.1876460">
	<ele>1847.60</ele>
	<time>2025-08-16T08:13:52.000Z</time>
</trkpt>
<trkpt lat="45.9712330" lon="10.1876460">
	<ele>1847.40</ele>
	<time>2025-08-16T08:13:53.000Z</time>
</trkpt>
<trkpt lat="45.9712230" lon="10.1876510">
	<ele>1847.20</ele>
	<time>2025-08-16T08:13:54.000Z</time>
</trkpt>
<trkpt lat="45.9712150" lon="10.1876490">
	<ele>1847.00</ele>
	<time>2025-08-16T08:13:55.000Z</time>
</trkpt>
<trkpt lat="45.9712060" lon="10.1876420">
	<ele>1846.60</ele>
	<time>2025-08-16T08:13:56.000Z</time>
</trkpt>
<trkpt lat="45.9711990" lon="10.1876330">
	<ele>1846.40</ele>
	<time>2025-08-16T08:13:57.000Z</time>
</trkpt>
<trkpt lat="45.9711930" lon="10.1876260">
	<ele>1846.00</ele>
	<time>2025-08-16T08:13:58.000Z</time>
</trkpt>
<trkpt lat="45.9711890" lon="10.1876260">
	<ele>1845.80</ele>
	<time>2025-08-16T08:13:59.000Z</time>
</trkpt>
<trkpt lat="45.9711870" lon="10.1876300">
	<ele>1845.60</ele>
	<time>2025-08-16T08:14:00.000Z</time>
</trkpt>
<trkpt lat="45.9711810" lon="10.1876340">
	<ele>1845.40</ele>
	<time>2025-08-16T08:14:01.000Z</time>
</trkpt>
<trkpt lat="45.9711720" lon="10.1876360">
	<ele>1845.00</ele>
	<time>2025-08-16T08:14:02.000Z</time>
</trkpt>
<trkpt lat="45.9711650" lon="10.1876340">
	<ele>1844.80</ele>
	<time>2025-08-16T08:14:03.000Z</time>
</trkpt>
<trkpt lat="45.9711530" lon="10.1876360">
	<ele>1844.40</ele>
	<time>2025-08-16T08:14:04.000Z</time>
</trkpt>
<trkpt lat="45.9711470" lon="10.1876350">
	<ele>1844.20</ele>
	<time>2025-08-16T08:14:05.000Z</time>
</trkpt>
<trkpt lat="45.9711350" lon="10.1876410">
	<ele>1844.20</ele>
	<time>2025-08-16T08:14:06.000Z</time>
</trkpt>
<trkpt lat="45.9711200" lon="10.1876400">
	<ele>1844.00</ele>
	<time>2025-08-16T08:14:07.000Z</time>
</trkpt>
<trkpt lat="45.9711050" lon="10.1876300">
	<ele>1843.80</ele>
	<time>2025-08-16T08:14:08.000Z</time>
</trkpt>
<trkpt lat="45.9710960" lon="10.1876260">
	<ele>1843.40</ele>
	<time>2025-08-16T08:14:09.000Z</time>
</trkpt>
<trkpt lat="45.9710850" lon="10.1876280">
	<ele>1843.40</ele>
	<time>2025-08-16T08:14:10.000Z</time>
</trkpt>
<trkpt lat="45.9710760" lon="10.1876310">
	<ele>1843.20</ele>
	<time>2025-08-16T08:14:11.000Z</time>
</trkpt>
<trkpt lat="45.9710700" lon="10.1876270">
	<ele>1843.20</ele>
	<time>2025-08-16T08:14:12.000Z</time>
</trkpt>
<trkpt lat="45.9710630" lon="10.1876230">
	<ele>1843.00</ele>
	<time>2025-08-16T08:14:13.000Z</time>
</trkpt>
<trkpt lat="45.9710520" lon="10.1876270">
	<ele>1842.80</ele>
	<time>2025-08-16T08:14:14.000Z</time>
</trkpt>
<trkpt lat="45.9710440" lon="10.1876260">
	<ele>1842.80</ele>
	<time>2025-08-16T08:14:15.000Z</time>
</trkpt>
<trkpt lat="45.9710360" lon="10.1876240">
	<ele>1842.60</ele>
	<time>2025-08-16T08:14:16.000Z</time>
</trkpt>
<trkpt lat="45.9710310" lon="10.1876190">
	<ele>1842.20</ele>
	<time>2025-08-16T08:14:17.000Z</time>
</trkpt>
<trkpt lat="45.9710320" lon="10.1876110">
	<ele>1842.00</ele>
	<time>2025-08-16T08:14:18.000Z</time>
</trkpt>
<trkpt lat="45.9710240" lon="10.1876130">
	<ele>1842.00</ele>
	<time>2025-08-16T08:14:19.000Z</time>
</trkpt>
<trkpt lat="45.9710130" lon="10.1876020">
	<ele>1841.60</ele>
	<time>2025-08-16T08:14:20.000Z</time>
</trkpt>
<trkpt lat="45.9710040" lon="10.1875980">
	<ele>1841.20</ele>
	<time>2025-08-16T08:14:21.000Z</time>
</trkpt>
<trkpt lat="45.9709950" lon="10.1875960">
	<ele>1841.00</ele>
	<time>2025-08-16T08:14:22.000Z</time>
</trkpt>
<trkpt lat="45.9709820" lon="10.1876000">
	<ele>1840.80</ele>
	<time>2025-08-16T08:14:23.000Z</time>
</trkpt>
<trkpt lat="45.9709770" lon="10.1875920">
	<ele>1840.60</ele>
	<time>2025-08-16T08:14:24.000Z</time>
</trkpt>
<trkpt lat="45.9709700" lon="10.1875880">
	<ele>1840.60</ele>
	<time>2025-08-16T08:14:25.000Z</time>
</trkpt>
<trkpt lat="45.9709600" lon="10.1875890">
	<ele>1840.40</ele>
	<time>2025-08-16T08:14:26.000Z</time>
</trkpt>
<trkpt lat="45.9709460" lon="10.1875860">
	<ele>1840.40</ele>
	<time>2025-08-16T08:14:27.000Z</time>
</trkpt>
<trkpt lat="45.9709350" lon="10.1875810">
	<ele>1840.20</ele>
	<time>2025-08-16T08:14:28.000Z</time>
</trkpt>
<trkpt lat="45.9709250" lon="10.1875830">
	<ele>1840.20</ele>
	<time>2025-08-16T08:14:29.000Z</time>
</trkpt>
<trkpt lat="45.9709240" lon="10.1875720">
	<ele>1840.20</ele>
	<time>2025-08-16T08:14:30.000Z</time>
</trkpt>
<trkpt lat="45.9709160" lon="10.1875670">
	<ele>1840.00</ele>
	<time>2025-08-16T08:14:31.000Z</time>
</trkpt>
<trkpt lat="45.9709160" lon="10.1875560">
	<ele>1840.00</ele>
	<time>2025-08-16T08:14:32.000Z</time>
</trkpt>
<trkpt lat="45.9709100" lon="10.1875500">
	<ele>1840.20</ele>
	<time>2025-08-16T08:14:33.000Z</time>
</trkpt>
<trkpt lat="45.9709030" lon="10.1875420">
	<ele>1840.40</ele>
	<time>2025-08-16T08:14:34.000Z</time>
</trkpt>
<trkpt lat="45.9708960" lon="10.1875350">
	<ele>1840.40</ele>
	<time>2025-08-16T08:14:35.000Z</time>
</trkpt>
<trkpt lat="45.9708890" lon="10.1875280">
	<ele>1840.40</ele>
	<time>2025-08-16T08:14:36.000Z</time>
</trkpt>
<trkpt lat="45.9708830" lon="10.1875230">
	<ele>1840.60</ele>
	<time>2025-08-16T08:14:37.000Z</time>
</trkpt>
<trkpt lat="45.9708760" lon="10.1875120">
	<ele>1840.60</ele>
	<time>2025-08-16T08:14:38.000Z</time>
</trkpt>
<trkpt lat="45.9708670" lon="10.1875070">
	<ele>1840.80</ele>
	<time>2025-08-16T08:14:39.000Z</time>
</trkpt>
<trkpt lat="45.9708580" lon="10.1875060">
	<ele>1841.00</ele>
	<time>2025-08-16T08:14:40.000Z</time>
</trkpt>
<trkpt lat="45.9708490" lon="10.1875070">
	<ele>1841.20</ele>
	<time>2025-08-16T08:14:41.000Z</time>
</trkpt>
<trkpt lat="45.9708370" lon="10.1875050">
	<ele>1841.20</ele>
	<time>2025-08-16T08:14:42.000Z</time>
</trkpt>
<trkpt lat="45.9708290" lon="10.1874960">
	<ele>1841.40</ele>
	<time>2025-08-16T08:14:43.000Z</time>
</trkpt>
<trkpt lat="45.9708190" lon="10.1874890">
	<ele>1841.40</ele>
	<time>2025-08-16T08:14:44.000Z</time>
</trkpt>
<trkpt lat="45.9708090" lon="10.1874830">
	<ele>1841.40</ele>
	<time>2025-08-16T08:14:45.000Z</time>
</trkpt>
<trkpt lat="45.9708030" lon="10.1874720">
	<ele>1841.60</ele>
	<time>2025-08-16T08:14:46.000Z</time>
</trkpt>
<trkpt lat="45.9707950" lon="10.1874610">
	<ele>1841.60</ele>
	<time>2025-08-16T08:14:47.000Z</time>
</trkpt>
<trkpt lat="45.9707850" lon="10.1874600">
	<ele>1841.60</ele>
	<time>2025-08-16T08:14:48.000Z</time>
</trkpt>
<trkpt lat="45.9707760" lon="10.1874600">
	<ele>1841.60</ele>
	<time>2025-08-16T08:14:49.000Z</time>
</trkpt>
<trkpt lat="45.9707670" lon="10.1874620">
	<ele>1841.60</ele>
	<time>2025-08-16T08:14:50.000Z</time>
</trkpt>
<trkpt lat="45.9707530" lon="10.1874590">
	<ele>1841.60</ele>
	<time>2025-08-16T08:14:51.000Z</time>
</trkpt>
<trkpt lat="45.9707400" lon="10.1874530">
	<ele>1841.60</ele>
	<time>2025-08-16T08:14:52.000Z</time>
</trkpt>
<trkpt lat="45.9707270" lon="10.1874500">
	<ele>1841.60</ele>
	<time>2025-08-16T08:14:53.000Z</time>
</trkpt>
<trkpt lat="45.9707190" lon="10.1874420">
	<ele>1841.80</ele>
	<time>2025-08-16T08:14:54.000Z</time>
</trkpt>
<trkpt lat="45.9707080" lon="10.1874420">
	<ele>1841.80</ele>
	<time>2025-08-16T08:14:55.000Z</time>
</trkpt>
<trkpt lat="45.9706990" lon="10.1874380">
	<ele>1842.00</ele>
	<time>2025-08-16T08:14:56.000Z</time>
</trkpt>
<trkpt lat="45.9706880" lon="10.1874380">
	<ele>1842.00</ele>
	<time>2025-08-16T08:14:57.000Z</time>
</trkpt>
<trkpt lat="45.9706770" lon="10.1874370">
	<ele>1842.20</ele>
	<time>2025-08-16T08:14:58.000Z</time>
</trkpt>
<trkpt lat="45.9706690" lon="10.1874320">
	<ele>1842.20</ele>
	<time>2025-08-16T08:14:59.000Z</time>
</trkpt>
<trkpt lat="45.9706680" lon="10.1874190">
	<ele>1842.40</ele>
	<time>2025-08-16T08:15:00.000Z</time>
</trkpt>
<trkpt lat="45.9706640" lon="10.1874070">
	<ele>1842.60</ele>
	<time>2025-08-16T08:15:01.000Z</time>
</trkpt>
<trkpt lat="45.9706590" lon="10.1873970">
	<ele>1842.60</ele>
	<time>2025-08-16T08:15:02.000Z</time>
</trkpt>
<trkpt lat="45.9706540" lon="10.1873890">
	<ele>1842.80</ele>
	<time>2025-08-16T08:15:03.000Z</time>
</trkpt>
<trkpt lat="45.9706480" lon="10.1873820">
	<ele>1843.00</ele>
	<time>2025-08-16T08:15:04.000Z</time>
</trkpt>
<trkpt lat="45.9706400" lon="10.1873730">
	<ele>1843.20</ele>
	<time>2025-08-16T08:15:05.000Z</time>
</trkpt>
<trkpt lat="45.9706320" lon="10.1873660">
	<ele>1843.40</ele>
	<time>2025-08-16T08:15:06.000Z</time>
</trkpt>
<trkpt lat="45.9706230" lon="10.1873610">
	<ele>1843.60</ele>
	<time>2025-08-16T08:15:07.000Z</time>
</trkpt>
<trkpt lat="45.9706140" lon="10.1873560">
	<ele>1843.60</ele>
	<time>2025-08-16T08:15:08.000Z</time>
</trkpt>
<trkpt lat="45.9706040" lon="10.1873520">
	<ele>1843.80</ele>
	<time>2025-08-16T08:15:09.000Z</time>
</trkpt>
<trkpt lat="45.9705930" lon="10.1873460">
	<ele>1844.00</ele>
	<time>2025-08-16T08:15:10.000Z</time>
</trkpt>
<trkpt lat="45.9705850" lon="10.1873380">
	<ele>1844.00</ele>
	<time>2025-08-16T08:15:11.000Z</time>
</trkpt>
<trkpt lat="45.9705760" lon="10.1873280">
	<ele>1844.20</ele>
	<time>2025-08-16T08:15:12.000Z</time>
</trkpt>
<trkpt lat="45.9705670" lon="10.1873200">
	<ele>1844.20</ele>
	<time>2025-08-16T08:15:13.000Z</time>
</trkpt>
<trkpt lat="45.9705560" lon="10.1873150">
	<ele>1844.20</ele>
	<time>2025-08-16T08:15:14.000Z</time>
</trkpt>
<trkpt lat="45.9705450" lon="10.1873100">
	<ele>1844.40</ele>
	<time>2025-08-16T08:15:15.000Z</time>
</trkpt>
<trkpt lat="45.9705330" lon="10.1873060">
	<ele>1844.40</ele>
	<time>2025-08-16T08:15:16.000Z</time>
</trkpt>
<trkpt lat="45.9705250" lon="10.1873000">
	<ele>1844.40</ele>
	<time>2025-08-16T08:15:17.000Z</time>
</trkpt>
<trkpt lat="45.9705170" lon="10.1872940">
	<ele>1844.60</ele>
	<time>2025-08-16T08:15:18.000Z</time>
</trkpt>
<trkpt lat="45.9705060" lon="10.1872890">
	<ele>1844.60</ele>
	<time>2025-08-16T08:15:19.000Z</time>
</trkpt>
<trkpt lat="45.9704940" lon="10.1872800">
	<ele>1844.60</ele>
	<time>2025-08-16T08:15:20.000Z</time>
</trkpt>
<trkpt lat="45.9704850" lon="10.1872710">
	<ele>1844.60</ele>
	<time>2025-08-16T08:15:21.000Z</time>
</trkpt>
<trkpt lat="45.9704780" lon="10.1872640">
	<ele>1844.80</ele>
	<time>2025-08-16T08:15:22.000Z</time>
</trkpt>
<trkpt lat="45.9704710" lon="10.1872550">
	<ele>1845.00</ele>
	<time>2025-08-16T08:15:23.000Z</time>
</trkpt>
<trkpt lat="45.9704630" lon="10.1872460">
	<ele>1845.20</ele>
	<time>2025-08-16T08:15:24.000Z</time>
</trkpt>
<trkpt lat="45.9704540" lon="10.1872380">
	<ele>1845.40</ele>
	<time>2025-08-16T08:15:25.000Z</time>
</trkpt>
<trkpt lat="45.9704450" lon="10.1872340">
	<ele>1845.60</ele>
	<time>2025-08-16T08:15:26.000Z</time>
</trkpt>
<trkpt lat="45.9704330" lon="10.1872310">
	<ele>1845.60</ele>
	<time>2025-08-16T08:15:27.000Z</time>
</trkpt>
<trkpt lat="45.9704210" lon="10.1872240">
	<ele>1845.80</ele>
	<time>2025-08-16T08:15:28.000Z</time>
</trkpt>
<trkpt lat="45.9704080" lon="10.1872210">
	<ele>1845.80</ele>
	<time>2025-08-16T08:15:29.000Z</time>
</trkpt>
<trkpt lat="45.9703980" lon="10.1872130">
	<ele>1845.80</ele>
	<time>2025-08-16T08:15:30.000Z</time>
</trkpt>
<trkpt lat="45.9703890" lon="10.1872080">
	<ele>1845.80</ele>
	<time>2025-08-16T08:15:31.000Z</time>
</trkpt>
<trkpt lat="45.9703780" lon="10.1872020">
	<ele>1845.80</ele>
	<time>2025-08-16T08:15:32.000Z</time>
</trkpt>
<trkpt lat="45.9703680" lon="10.1871890">
	<ele>1845.80</ele>
	<time>2025-08-16T08:15:33.000Z</time>
</trkpt>
<trkpt lat="45.9703590" lon="10.1871780">
	<ele>1845.80</ele>
	<time>2025-08-16T08:15:34.000Z</time>
</trkpt>
<trkpt lat="45.9703500" lon="10.1871700">
	<ele>1845.80</ele>
	<time>2025-08-16T08:15:35.000Z</time>
</trkpt>
<trkpt lat="45.9703390" lon="10.1871650">
	<ele>1845.80</ele>
	<time>2025-08-16T08:15:36.000Z</time>
</trkpt>
<trkpt lat="45.9703300" lon="10.1871570">
	<ele>1845.80</ele>
	<time>2025-08-16T08:15:37.000Z</time>
</trkpt>
<trkpt lat="45.9703220" lon="10.1871420">
	<ele>1846.00</ele>
	<time>2025-08-16T08:15:38.000Z</time>
</trkpt>
<trkpt lat="45.9703130" lon="10.1871330">
	<ele>1846.00</ele>
	<time>2025-08-16T08:15:39.000Z</time>
</trkpt>
<trkpt lat="45.9703060" lon="10.1871320">
	<ele>1846.20</ele>
	<time>2025-08-16T08:15:40.000Z</time>
</trkpt>
<trkpt lat="45.9703030" lon="10.1871320">
	<ele>1846.20</ele>
	<time>2025-08-16T08:15:41.000Z</time>
</trkpt>
<trkpt lat="45.9703030" lon="10.1871340">
	<ele>1846.20</ele>
	<time>2025-08-16T08:15:42.000Z</time>
</trkpt>
<trkpt lat="45.9703050" lon="10.1871360">
	<ele>1846.20</ele>
	<time>2025-08-16T08:15:43.000Z</time>
</trkpt>
<trkpt lat="45.9703070" lon="10.1871360">
	<ele>1846.00</ele>
	<time>2025-08-16T08:15:44.000Z</time>
</trkpt>
<trkpt lat="45.9703060" lon="10.1871370">
	<ele>1845.80</ele>
	<time>2025-08-16T08:15:45.000Z</time>
</trkpt>
<trkpt lat="45.9703040" lon="10.1871380">
	<ele>1845.80</ele>
	<time>2025-08-16T08:15:46.000Z</time>
</trkpt>
<trkpt lat="45.9703040" lon="10.1871390">
	<ele>1845.80</ele>
	<time>2025-08-16T08:15:47.000Z</time>
</trkpt>
<trkpt lat="45.9703030" lon="10.1871390">
	<ele>1845.60</ele>
	<time>2025-08-16T08:15:48.000Z</time>
</trkpt>
<trkpt lat="45.9703010" lon="10.1871400">
	<ele>1845.60</ele>
	<time>2025-08-16T08:15:49.000Z</time>
</trkpt>
<trkpt lat="45.9702990" lon="10.1871430">
	<ele>1845.80</ele>
	<time>2025-08-16T08:15:50.000Z</time>
</trkpt>
<trkpt lat="45.9702980" lon="10.1871440">
	<ele>1845.80</ele>
	<time>2025-08-16T08:15:51.000Z</time>
</trkpt>
<trkpt lat="45.9703000" lon="10.1871420">
	<ele>1845.80</ele>
	<time>2025-08-16T08:15:52.000Z</time>
</trkpt>
<trkpt lat="45.9703000" lon="10.1871410">
	<ele>1846.00</ele>
	<time>2025-08-16T08:15:53.000Z</time>
</trkpt>
<trkpt lat="45.9702980" lon="10.1871410">
	<ele>1846.00</ele>
	<time>2025-08-16T08:15:54.000Z</time>
</trkpt>
<trkpt lat="45.9702980" lon="10.1871420">
	<ele>1846.00</ele>
	<time>2025-08-16T08:15:55.000Z</time>
</trkpt>
<trkpt lat="45.9702980" lon="10.1871420">
	<ele>1846.20</ele>
	<time>2025-08-16T08:15:56.000Z</time>
</trkpt>
<trkpt lat="45.9702980" lon="10.1871420">
	<ele>1846.20</ele>
	<time>2025-08-16T08:15:57.000Z</time>
</trkpt>
<trkpt lat="45.9702980" lon="10.1871420">
	<ele>1846.40</ele>
	<time>2025-08-16T08:15:58.000Z</time>
</trkpt>
<trkpt lat="45.9702980" lon="10.1871420">
	<ele>1846.40</ele>
	<time>2025-08-16T08:15:59.000Z</time>
</trkpt>
<trkpt lat="45.9702980" lon="10.1871420">
	<ele>1846.40</ele>
	<time>2025-08-16T08:16:00.000Z</time>
</trkpt>
<trkpt lat="45.9702980" lon="10.1871420">
	<ele>1846.40</ele>
	<time>2025-08-16T08:16:01.000Z</time>
</trkpt>
<trkpt lat="45.9702950" lon="10.1871410">
	<ele>1846.40</ele>
	<time>2025-08-16T08:16:02.000Z</time>
</trkpt>
<trkpt lat="45.9702780" lon="10.1871380">
	<ele>1846.40</ele>
	<time>2025-08-16T08:16:03.000Z</time>
</trkpt>
<trkpt lat="45.9702630" lon="10.1871320">
	<ele>1846.40</ele>
	<time>2025-08-16T08:16:04.000Z</time>
</trkpt>
<trkpt lat="45.9702480" lon="10.1871280">
	<ele>1846.40</ele>
	<time>2025-08-16T08:16:05.000Z</time>
</trkpt>
<trkpt lat="45.9702330" lon="10.1871230">
	<ele>1846.20</ele>
	<time>2025-08-16T08:16:06.000Z</time>
</trkpt>
<trkpt lat="45.9702160" lon="10.1871180">
	<ele>1846.00</ele>
	<time>2025-08-16T08:16:07.000Z</time>
</trkpt>
<trkpt lat="45.9702010" lon="10.1871110">
	<ele>1845.80</ele>
	<time>2025-08-16T08:16:08.000Z</time>
</trkpt>
<trkpt lat="45.9701850" lon="10.1871080">
	<ele>1845.80</ele>
	<time>2025-08-16T08:16:09.000Z</time>
</trkpt>
<trkpt lat="45.9701700" lon="10.1871050">
	<ele>1845.80</ele>
	<time>2025-08-16T08:16:10.000Z</time>
</trkpt>
<trkpt lat="45.9701550" lon="10.1870970">
	<ele>1845.60</ele>
	<time>2025-08-16T08:16:11.000Z</time>
</trkpt>
<trkpt lat="45.9701440" lon="10.1870900">
	<ele>1845.60</ele>
	<time>2025-08-16T08:16:12.000Z</time>
</trkpt>
<trkpt lat="45.9701340" lon="10.1870820">
	<ele>1845.60</ele>
	<time>2025-08-16T08:16:13.000Z</time>
</trkpt>
<trkpt lat="45.9701240" lon="10.1870750">
	<ele>1845.60</ele>
	<time>2025-08-16T08:16:14.000Z</time>
</trkpt>
<trkpt lat="45.9701140" lon="10.1870730">
	<ele>1845.60</ele>
	<time>2025-08-16T08:16:15.000Z</time>
</trkpt>
<trkpt lat="45.9701010" lon="10.1870700">
	<ele>1845.60</ele>
	<time>2025-08-16T08:16:16.000Z</time>
</trkpt>
<trkpt lat="45.9700860" lon="10.1870670">
	<ele>1845.60</ele>
	<time>2025-08-16T08:16:17.000Z</time>
</trkpt>
<trkpt lat="45.9700730" lon="10.1870620">
	<ele>1845.60</ele>
	<time>2025-08-16T08:16:18.000Z</time>
</trkpt>
<trkpt lat="45.9700570" lon="10.1870630">
	<ele>1845.60</ele>
	<time>2025-08-16T08:16:19.000Z</time>
</trkpt>
<trkpt lat="45.9700440" lon="10.1870600">
	<ele>1845.60</ele>
	<time>2025-08-16T08:16:20.000Z</time>
</trkpt>
<trkpt lat="45.9700300" lon="10.1870550">
	<ele>1845.60</ele>
	<time>2025-08-16T08:16:21.000Z</time>
</trkpt>
<trkpt lat="45.9700160" lon="10.1870460">
	<ele>1845.60</ele>
	<time>2025-08-16T08:16:22.000Z</time>
</trkpt>
<trkpt lat="45.9700070" lon="10.1870380">
	<ele>1845.60</ele>
	<time>2025-08-16T08:16:23.000Z</time>
</trkpt>
<trkpt lat="45.9699940" lon="10.1870360">
	<ele>1845.40</ele>
	<time>2025-08-16T08:16:24.000Z</time>
</trkpt>
<trkpt lat="45.9699820" lon="10.1870380">
	<ele>1845.40</ele>
	<time>2025-08-16T08:16:25.000Z</time>
</trkpt>
<trkpt lat="45.9699690" lon="10.1870390">
	<ele>1845.40</ele>
	<time>2025-08-16T08:16:26.000Z</time>
</trkpt>
<trkpt lat="45.9699590" lon="10.1870370">
	<ele>1845.40</ele>
	<time>2025-08-16T08:16:27.000Z</time>
</trkpt>
<trkpt lat="45.9699480" lon="10.1870330">
	<ele>1845.60</ele>
	<time>2025-08-16T08:16:28.000Z</time>
</trkpt>
<trkpt lat="45.9699360" lon="10.1870310">
	<ele>1845.60</ele>
	<time>2025-08-16T08:16:29.000Z</time>
</trkpt>
<trkpt lat="45.9699250" lon="10.1870260">
	<ele>1845.60</ele>
	<time>2025-08-16T08:16:30.000Z</time>
</trkpt>
<trkpt lat="45.9699130" lon="10.1870260">
	<ele>1845.60</ele>
	<time>2025-08-16T08:16:31.000Z</time>
</trkpt>
<trkpt lat="45.9699010" lon="10.1870280">
	<ele>1845.60</ele>
	<time>2025-08-16T08:16:32.000Z</time>
</trkpt>
<trkpt lat="45.9698910" lon="10.1870250">
	<ele>1845.80</ele>
	<time>2025-08-16T08:16:33.000Z</time>
</trkpt>
<trkpt lat="45.9698840" lon="10.1870250">
	<ele>1845.80</ele>
	<time>2025-08-16T08:16:34.000Z</time>
</trkpt>
<trkpt lat="45.9698800" lon="10.1870260">
	<ele>1845.80</ele>
	<time>2025-08-16T08:16:35.000Z</time>
</trkpt>
<trkpt lat="45.9698770" lon="10.1870250">
	<ele>1845.80</ele>
	<time>2025-08-16T08:16:36.000Z</time>
</trkpt>
<trkpt lat="45.9698710" lon="10.1870200">
	<ele>1845.80</ele>
	<time>2025-08-16T08:16:37.000Z</time>
</trkpt>
<trkpt lat="45.9698600" lon="10.1870180">
	<ele>1845.80</ele>
	<time>2025-08-16T08:16:38.000Z</time>
</trkpt>
<trkpt lat="45.9698500" lon="10.1870160">
	<ele>1845.80</ele>
	<time>2025-08-16T08:16:39.000Z</time>
</trkpt>
<trkpt lat="45.9698410" lon="10.1870090">
	<ele>1845.80</ele>
	<time>2025-08-16T08:16:40.000Z</time>
</trkpt>
<trkpt lat="45.9698330" lon="10.1869980">
	<ele>1845.80</ele>
	<time>2025-08-16T08:16:41.000Z</time>
</trkpt>
<trkpt lat="45.9698210" lon="10.1869940">
	<ele>1845.80</ele>
	<time>2025-08-16T08:16:42.000Z</time>
</trkpt>
<trkpt lat="45.9698140" lon="10.1869870">
	<ele>1845.80</ele>
	<time>2025-08-16T08:16:43.000Z</time>
</trkpt>
<trkpt lat="45.9698050" lon="10.1869790">
	<ele>1845.60</ele>
	<time>2025-08-16T08:16:44.000Z</time>
</trkpt>
<trkpt lat="45.9697940" lon="10.1869740">
	<ele>1845.60</ele>
	<time>2025-08-16T08:16:45.000Z</time>
</trkpt>
<trkpt lat="45.9697860" lon="10.1869630">
	<ele>1845.60</ele>
	<time>2025-08-16T08:16:46.000Z</time>
</trkpt>
<trkpt lat="45.9697740" lon="10.1869520">
	<ele>1845.40</ele>
	<time>2025-08-16T08:16:47.000Z</time>
</trkpt>
<trkpt lat="45.9697640" lon="10.1869390">
	<ele>1845.40</ele>
	<time>2025-08-16T08:16:48.000Z</time>
</trkpt>
<trkpt lat="45.9697530" lon="10.1869330">
	<ele>1845.40</ele>
	<time>2025-08-16T08:16:49.000Z</time>
</trkpt>
<trkpt lat="45.9697450" lon="10.1869280">
	<ele>1845.40</ele>
	<time>2025-08-16T08:16:50.000Z</time>
</trkpt>
<trkpt lat="45.9697360" lon="10.1869200">
	<ele>1845.40</ele>
	<time>2025-08-16T08:16:51.000Z</time>
</trkpt>
<trkpt lat="45.9697250" lon="10.1869160">
	<ele>1845.40</ele>
	<time>2025-08-16T08:16:52.000Z</time>
</trkpt>
<trkpt lat="45.9697170" lon="10.1869050">
	<ele>1845.40</ele>
	<time>2025-08-16T08:16:53.000Z</time>
</trkpt>
<trkpt lat="45.9697090" lon="10.1868920">
	<ele>1845.20</ele>
	<time>2025-08-16T08:16:54.000Z</time>
</trkpt>
<trkpt lat="45.9697020" lon="10.1868810">
	<ele>1845.20</ele>
	<time>2025-08-16T08:16:55.000Z</time>
</trkpt>
<trkpt lat="45.9696960" lon="10.1868760">
	<ele>1845.20</ele>
	<time>2025-08-16T08:16:56.000Z</time>
</trkpt>
<trkpt lat="45.9696880" lon="10.1868750">
	<ele>1845.00</ele>
	<time>2025-08-16T08:16:57.000Z</time>
</trkpt>
<trkpt lat="45.9696800" lon="10.1868710">
	<ele>1845.00</ele>
	<time>2025-08-16T08:16:58.000Z</time>
</trkpt>
<trkpt lat="45.9696680" lon="10.1868610">
	<ele>1844.80</ele>
	<time>2025-08-16T08:16:59.000Z</time>
</trkpt>
<trkpt lat="45.9696600" lon="10.1868540">
	<ele>1844.60</ele>
	<time>2025-08-16T08:17:00.000Z</time>
</trkpt>
<trkpt lat="45.9696500" lon="10.1868490">
	<ele>1844.40</ele>
	<time>2025-08-16T08:17:01.000Z</time>
</trkpt>
<trkpt lat="45.9696460" lon="10.1868460">
	<ele>1844.20</ele>
	<time>2025-08-16T08:17:02.000Z</time>
</trkpt>
<trkpt lat="45.9696420" lon="10.1868440">
	<ele>1844.00</ele>
	<time>2025-08-16T08:17:03.000Z</time>
</trkpt>
<trkpt lat="45.9696390" lon="10.1868430">
	<ele>1843.80</ele>
	<time>2025-08-16T08:17:04.000Z</time>
</trkpt>
<trkpt lat="45.9696380" lon="10.1868440">
	<ele>1843.60</ele>
	<time>2025-08-16T08:17:05.000Z</time>
</trkpt>
<trkpt lat="45.9696370" lon="10.1868450">
	<ele>1843.60</ele>
	<time>2025-08-16T08:17:06.000Z</time>
</trkpt>
<trkpt lat="45.9696360" lon="10.1868480">
	<ele>1843.60</ele>
	<time>2025-08-16T08:17:07.000Z</time>
</trkpt>
<trkpt lat="45.9696370" lon="10.1868450">
	<ele>1843.60</ele>
	<time>2025-08-16T08:17:08.000Z</time>
</trkpt>
<trkpt lat="45.9696370" lon="10.1868430">
	<ele>1843.60</ele>
	<time>2025-08-16T08:17:09.000Z</time>
</trkpt>
<trkpt lat="45.9696370" lon="10.1868440">
	<ele>1843.60</ele>
	<time>2025-08-16T08:17:10.000Z</time>
</trkpt>
<trkpt lat="45.9696360" lon="10.1868480">
	<ele>1843.80</ele>
	<time>2025-08-16T08:17:11.000Z</time>
</trkpt>
<trkpt lat="45.9696360" lon="10.1868490">
	<ele>1843.80</ele>
	<time>2025-08-16T08:17:12.000Z</time>
</trkpt>
<trkpt lat="45.9696360" lon="10.1868510">
	<ele>1843.80</ele>
	<time>2025-08-16T08:17:13.000Z</time>
</trkpt>
<trkpt lat="45.9696350" lon="10.1868540">
	<ele>1843.80</ele>
	<time>2025-08-16T08:17:14.000Z</time>
</trkpt>
<trkpt lat="45.9696350" lon="10.1868560">
	<ele>1843.80</ele>
	<time>2025-08-16T08:17:15.000Z</time>
</trkpt>
<trkpt lat="45.9696360" lon="10.1868580">
	<ele>1843.80</ele>
	<time>2025-08-16T08:17:16.000Z</time>
</trkpt>
<trkpt lat="45.9696370" lon="10.1868600">
	<ele>1843.80</ele>
	<time>2025-08-16T08:17:17.000Z</time>
</trkpt>
<trkpt lat="45.9696380" lon="10.1868600">
	<ele>1843.80</ele>
	<time>2025-08-16T08:17:18.000Z</time>
</trkpt>
<trkpt lat="45.9696380" lon="10.1868600">
	<ele>1843.80</ele>
	<time>2025-08-16T08:17:19.000Z</time>
</trkpt>
<trkpt lat="45.9696380" lon="10.1868600">
	<ele>1843.80</ele>
	<time>2025-08-16T08:17:20.000Z</time>
</trkpt>
<trkpt lat="45.9696380" lon="10.1868600">
	<ele>1843.80</ele>
	<time>2025-08-16T08:17:21.000Z</time>
</trkpt>
<trkpt lat="45.9696380" lon="10.1868600">
	<ele>1843.80</ele>
	<time>2025-08-16T08:17:22.000Z</time>
</trkpt>
<trkpt lat="45.9696380" lon="10.1868600">
	<ele>1843.80</ele>
	<time>2025-08-16T08:17:23.000Z</time>
</trkpt>
<trkpt lat="45.9696380" lon="10.1868600">
	<ele>1843.80</ele>
	<time>2025-08-16T08:17:24.000Z</time>
</trkpt>
<trkpt lat="45.9696380" lon="10.1868600">
	<ele>1843.80</ele>
	<time>2025-08-16T08:17:25.000Z</time>
</trkpt>
<trkpt lat="45.9696380" lon="10.1868600">
	<ele>1843.80</ele>
	<time>2025-08-16T08:17:26.000Z</time>
</trkpt>
<trkpt lat="45.9696380" lon="10.1868590">
	<ele>1843.60</ele>
	<time>2025-08-16T08:17:27.000Z</time>
</trkpt>
<trkpt lat="45.9696380" lon="10.1868580">
	<ele>1843.60</ele>
	<time>2025-08-16T08:17:28.000Z</time>
</trkpt>
<trkpt lat="45.9696380" lon="10.1868570">
	<ele>1843.60</ele>
	<time>2025-08-16T08:17:29.000Z</time>
</trkpt>
<trkpt lat="45.9696380" lon="10.1868560">
	<ele>1843.60</ele>
	<time>2025-08-16T08:17:30.000Z</time>
</trkpt>
<trkpt lat="45.9696380" lon="10.1868560">
	<ele>1843.60</ele>
	<time>2025-08-16T08:17:31.000Z</time>
</trkpt>
<trkpt lat="45.9696370" lon="10.1868530">
	<ele>1843.60</ele>
	<time>2025-08-16T08:17:32.000Z</time>
</trkpt>
<trkpt lat="45.9696320" lon="10.1868430">
	<ele>1843.60</ele>
	<time>2025-08-16T08:17:33.000Z</time>
</trkpt>
<trkpt lat="45.9696240" lon="10.1868370">
	<ele>1843.60</ele>
	<time>2025-08-16T08:17:34.000Z</time>
</trkpt>
<trkpt lat="45.9696190" lon="10.1868320">
	<ele>1843.60</ele>
	<time>2025-08-16T08:17:35.000Z</time>
</trkpt>
<trkpt lat="45.9696150" lon="10.1868260">
	<ele>1843.60</ele>
	<time>2025-08-16T08:17:36.000Z</time>
</trkpt>
<trkpt lat="45.9696110" lon="10.1868230">
	<ele>1843.60</ele>
	<time>2025-08-16T08:17:37.000Z</time>
</trkpt>
<trkpt lat="45.9696090" lon="10.1868200">
	<ele>1843.60</ele>
	<time>2025-08-16T08:17:38.000Z</time>
</trkpt>
<trkpt lat="45.9696080" lon="10.1868170">
	<ele>1843.80</ele>
	<time>2025-08-16T08:17:39.000Z</time>
</trkpt>
<trkpt lat="45.9696080" lon="10.1868110">
	<ele>1843.80</ele>
	<time>2025-08-16T08:17:40.000Z</time>
</trkpt>
<trkpt lat="45.9696060" lon="10.1868060">
	<ele>1843.80</ele>
	<time>2025-08-16T08:17:41.000Z</time>
</trkpt>
<trkpt lat="45.9696050" lon="10.1868070">
	<ele>1843.80</ele>
	<time>2025-08-16T08:17:42.000Z</time>
</trkpt>
<trkpt lat="45.9696020" lon="10.1868080">
	<ele>1843.80</ele>
	<time>2025-08-16T08:17:43.000Z</time>
</trkpt>
<trkpt lat="45.9695980" lon="10.1868160">
	<ele>1844.00</ele>
	<time>2025-08-16T08:17:44.000Z</time>
</trkpt>
<trkpt lat="45.9695950" lon="10.1868170">
	<ele>1843.80</ele>
	<time>2025-08-16T08:17:45.000Z</time>
</trkpt>
<trkpt lat="45.9695930" lon="10.1868170">
	<ele>1843.80</ele>
	<time>2025-08-16T08:17:46.000Z</time>
</trkpt>
<trkpt lat="45.9695930" lon="10.1868180">
	<ele>1843.80</ele>
	<time>2025-08-16T08:17:47.000Z</time>
</trkpt>
<trkpt lat="45.9695930" lon="10.1868180">
	<ele>1843.60</ele>
	<time>2025-08-16T08:17:48.000Z</time>
</trkpt>
<trkpt lat="45.9695930" lon="10.1868180">
	<ele>1843.60</ele>
	<time>2025-08-16T08:17:49.000Z</time>
</trkpt>
<trkpt lat="45.9695930" lon="10.1868180">
	<ele>1843.60</ele>
	<time>2025-08-16T08:17:50.000Z</time>
</trkpt>
<trkpt lat="45.9695930" lon="10.1868180">
	<ele>1843.60</ele>
	<time>2025-08-16T08:17:51.000Z</time>
</trkpt>
<trkpt lat="45.9695930" lon="10.1868180">
	<ele>1843.60</ele>
	<time>2025-08-16T08:17:52.000Z</time>
</trkpt>
<trkpt lat="45.9695930" lon="10.1868180">
	<ele>1843.60</ele>
	<time>2025-08-16T08:17:53.000Z</time>
</trkpt>
<trkpt lat="45.9695930" lon="10.1868180">
	<ele>1843.80</ele>
	<time>2025-08-16T08:17:54.000Z</time>
</trkpt>
<trkpt lat="45.9695930" lon="10.1868180">
	<ele>1843.80</ele>
	<time>2025-08-16T08:17:55.000Z</time>
</trkpt>
<trkpt lat="45.9695930" lon="10.1868180">
	<ele>1843.80</ele>
	<time>2025-08-16T08:17:56.000Z</time>
</trkpt>
<trkpt lat="45.9695930" lon="10.1868180">
	<ele>1843.80</ele>
	<time>2025-08-16T08:17:57.000Z</time>
</trkpt>
<trkpt lat="45.9695930" lon="10.1868180">
	<ele>1843.80</ele>
	<time>2025-08-16T08:17:58.000Z</time>
</trkpt>
<trkpt lat="45.9695930" lon="10.1868180">
	<ele>1843.80</ele>
	<time>2025-08-16T08:17:59.000Z</time>
</trkpt>
<trkpt lat="45.9695930" lon="10.1868180">
	<ele>1843.60</ele>
	<time>2025-08-16T08:18:00.000Z</time>
</trkpt>
<trkpt lat="45.9695930" lon="10.1868170">
	<ele>1843.60</ele>
	<time>2025-08-16T08:18:01.000Z</time>
</trkpt>
<trkpt lat="45.9695930" lon="10.1868170">
	<ele>1843.60</ele>
	<time>2025-08-16T08:18:02.000Z</time>
</trkpt>
<trkpt lat="45.9695930" lon="10.1868160">
	<ele>1843.60</ele>
	<time>2025-08-16T08:18:03.000Z</time>
</trkpt>
<trkpt lat="45.9695930" lon="10.1868160">
	<ele>1843.60</ele>
	<time>2025-08-16T08:18:04.000Z</time>
</trkpt>
<trkpt lat="45.9695920" lon="10.1868140">
	<ele>1843.40</ele>
	<time>2025-08-16T08:18:05.000Z</time>
</trkpt>
<trkpt lat="45.9695920" lon="10.1868140">
	<ele>1843.40</ele>
	<time>2025-08-16T08:18:06.000Z</time>
</trkpt>
<trkpt lat="45.9695920" lon="10.1868140">
	<ele>1843.40</ele>
	<time>2025-08-16T08:18:07.000Z</time>
</trkpt>
<trkpt lat="45.9695910" lon="10.1868050">
	<ele>1843.20</ele>
	<time>2025-08-16T08:18:08.000Z</time>
</trkpt>
<trkpt lat="45.9695940" lon="10.1867850">
	<ele>1843.00</ele>
	<time>2025-08-16T08:18:09.000Z</time>
</trkpt>
<trkpt lat="45.9695990" lon="10.1867600">
	<ele>1842.80</ele>
	<time>2025-08-16T08:18:10.000Z</time>
</trkpt>
<trkpt lat="45.9696030" lon="10.1867360">
	<ele>1842.60</ele>
	<time>2025-08-16T08:18:11.000Z</time>
</trkpt>
<trkpt lat="45.9696050" lon="10.1867160">
	<ele>1842.40</ele>
	<time>2025-08-16T08:18:12.000Z</time>
</trkpt>
<trkpt lat="45.9696080" lon="10.1866950">
	<ele>1842.40</ele>
	<time>2025-08-16T08:18:13.000Z</time>
</trkpt>
<trkpt lat="45.9696090" lon="10.1866730">
	<ele>1842.20</ele>
	<time>2025-08-16T08:18:14.000Z</time>
</trkpt>
<trkpt lat="45.9696080" lon="10.1866540">
	<ele>1842.20</ele>
	<time>2025-08-16T08:18:15.000Z</time>
</trkpt>
<trkpt lat="45.9696080" lon="10.1866340">
	<ele>1842.20</ele>
	<time>2025-08-16T08:18:16.000Z</time>
</trkpt>
<trkpt lat="45.9696100" lon="10.1866100">
	<ele>1842.20</ele>
	<time>2025-08-16T08:18:17.000Z</time>
</trkpt>
<trkpt lat="45.9696130" lon="10.1865940">
	<ele>1842.20</ele>
	<time>2025-08-16T08:18:18.000Z</time>
</trkpt>
<trkpt lat="45.9696120" lon="10.1865800">
	<ele>1842.00</ele>
	<time>2025-08-16T08:18:19.000Z</time>
</trkpt>
<trkpt lat="45.9696070" lon="10.1865650">
	<ele>1842.00</ele>
	<time>2025-08-16T08:18:20.000Z</time>
</trkpt>
<trkpt lat="45.9696080" lon="10.1865490">
	<ele>1842.00</ele>
	<time>2025-08-16T08:18:21.000Z</time>
</trkpt>
<trkpt lat="45.9696110" lon="10.1865350">
	<ele>1841.80</ele>
	<time>2025-08-16T08:18:22.000Z</time>
</trkpt>
<trkpt lat="45.9696100" lon="10.1865290">
	<ele>1841.80</ele>
	<time>2025-08-16T08:18:23.000Z</time>
</trkpt>
<trkpt lat="45.9696060" lon="10.1865260">
	<ele>1841.80</ele>
	<time>2025-08-16T08:18:24.000Z</time>
</trkpt>
<trkpt lat="45.9696020" lon="10.1865230">
	<ele>1841.80</ele>
	<time>2025-08-16T08:18:25.000Z</time>
</trkpt>
<trkpt lat="45.9695990" lon="10.1865150">
	<ele>1841.80</ele>
	<time>2025-08-16T08:18:26.000Z</time>
</trkpt>
<trkpt lat="45.9696010" lon="10.1865010">
	<ele>1841.80</ele>
	<time>2025-08-16T08:18:27.000Z</time>
</trkpt>
<trkpt lat="45.9696030" lon="10.1864860">
	<ele>1841.60</ele>
	<time>2025-08-16T08:18:28.000Z</time>
</trkpt>
<trkpt lat="45.9696010" lon="10.1864730">
	<ele>1841.20</ele>
	<time>2025-08-16T08:18:29.000Z</time>
</trkpt>
<trkpt lat="45.9695970" lon="10.1864640">
	<ele>1841.00</ele>
	<time>2025-08-16T08:18:30.000Z</time>
</trkpt>
<trkpt lat="45.9695960" lon="10.1864530">
	<ele>1841.00</ele>
	<time>2025-08-16T08:18:31.000Z</time>
</trkpt>
<trkpt lat="45.9695960" lon="10.1864420">
	<ele>1840.80</ele>
	<time>2025-08-16T08:18:32.000Z</time>
</trkpt>
<trkpt lat="45.9696000" lon="10.1864260">
	<ele>1840.60</ele>
	<time>2025-08-16T08:18:33.000Z</time>
</trkpt>
<trkpt lat="45.9696020" lon="10.1864100">
	<ele>1840.40</ele>
	<time>2025-08-16T08:18:34.000Z</time>
</trkpt>
<trkpt lat="45.9696030" lon="10.1863960">
	<ele>1840.20</ele>
	<time>2025-08-16T08:18:35.000Z</time>
</trkpt>
<trkpt lat="45.9696040" lon="10.1863820">
	<ele>1840.00</ele>
	<time>2025-08-16T08:18:36.000Z</time>
</trkpt>
<trkpt lat="45.9696030" lon="10.1863710">
	<ele>1840.00</ele>
	<time>2025-08-16T08:18:37.000Z</time>
</trkpt>
<trkpt lat="45.9696020" lon="10.1863630">
	<ele>1839.80</ele>
	<time>2025-08-16T08:18:38.000Z</time>
</trkpt>
<trkpt lat="45.9696030" lon="10.1863540">
	<ele>1839.60</ele>
	<time>2025-08-16T08:18:39.000Z</time>
</trkpt>
<trkpt lat="45.9696030" lon="10.1863440">
	<ele>1839.40</ele>
	<time>2025-08-16T08:18:40.000Z</time>
</trkpt>
<trkpt lat="45.9696010" lon="10.1863340">
	<ele>1839.20</ele>
	<time>2025-08-16T08:18:41.000Z</time>
</trkpt>
<trkpt lat="45.9696010" lon="10.1863230">
	<ele>1839.00</ele>
	<time>2025-08-16T08:18:42.000Z</time>
</trkpt>
<trkpt lat="45.9696010" lon="10.1863110">
	<ele>1838.80</ele>
	<time>2025-08-16T08:18:43.000Z</time>
</trkpt>
<trkpt lat="45.9696010" lon="10.1862970">
	<ele>1838.60</ele>
	<time>2025-08-16T08:18:44.000Z</time>
</trkpt>
<trkpt lat="45.9696000" lon="10.1862820">
	<ele>1838.40</ele>
	<time>2025-08-16T08:18:45.000Z</time>
</trkpt>
<trkpt lat="45.9696030" lon="10.1862640">
	<ele>1838.20</ele>
	<time>2025-08-16T08:18:46.000Z</time>
</trkpt>
<trkpt lat="45.9696060" lon="10.1862490">
	<ele>1838.00</ele>
	<time>2025-08-16T08:18:47.000Z</time>
</trkpt>
<trkpt lat="45.9696050" lon="10.1862330">
	<ele>1838.00</ele>
	<time>2025-08-16T08:18:48.000Z</time>
</trkpt>
<trkpt lat="45.9696030" lon="10.1862210">
	<ele>1837.80</ele>
	<time>2025-08-16T08:18:49.000Z</time>
</trkpt>
<trkpt lat="45.9696040" lon="10.1862030">
	<ele>1837.40</ele>
	<time>2025-08-16T08:18:50.000Z</time>
</trkpt>
<trkpt lat="45.9696040" lon="10.1861870">
	<ele>1837.20</ele>
	<time>2025-08-16T08:18:51.000Z</time>
</trkpt>
<trkpt lat="45.9696030" lon="10.1861740">
	<ele>1837.00</ele>
	<time>2025-08-16T08:18:52.000Z</time>
</trkpt>
<trkpt lat="45.9696010" lon="10.1861680">
	<ele>1837.00</ele>
	<time>2025-08-16T08:18:53.000Z</time>
</trkpt>
<trkpt lat="45.9696020" lon="10.1861550">
	<ele>1836.80</ele>
	<time>2025-08-16T08:18:54.000Z</time>
</trkpt>
<trkpt lat="45.9696030" lon="10.1861380">
	<ele>1836.80</ele>
	<time>2025-08-16T08:18:55.000Z</time>
</trkpt>
<trkpt lat="45.9696030" lon="10.1861210">
	<ele>1836.60</ele>
	<time>2025-08-16T08:18:56.000Z</time>
</trkpt>
<trkpt lat="45.9696040" lon="10.1861020">
	<ele>1836.40</ele>
	<time>2025-08-16T08:18:57.000Z</time>
</trkpt>
<trkpt lat="45.9696070" lon="10.1860820">
	<ele>1836.40</ele>
	<time>2025-08-16T08:18:58.000Z</time>
</trkpt>
<trkpt lat="45.9696120" lon="10.1860640">
	<ele>1836.20</ele>
	<time>2025-08-16T08:18:59.000Z</time>
</trkpt>
<trkpt lat="45.9696150" lon="10.1860460">
	<ele>1836.00</ele>
	<time>2025-08-16T08:19:00.000Z</time>
</trkpt>
<trkpt lat="45.9696160" lon="10.1860320">
	<ele>1835.80</ele>
	<time>2025-08-16T08:19:01.000Z</time>
</trkpt>
<trkpt lat="45.9696220" lon="10.1860150">
	<ele>1835.80</ele>
	<time>2025-08-16T08:19:02.000Z</time>
</trkpt>
<trkpt lat="45.9696230" lon="10.1859990">
	<ele>1835.60</ele>
	<time>2025-08-16T08:19:03.000Z</time>
</trkpt>
<trkpt lat="45.9696210" lon="10.1859850">
	<ele>1835.60</ele>
	<time>2025-08-16T08:19:04.000Z</time>
</trkpt>
<trkpt lat="45.9696200" lon="10.1859690">
	<ele>1835.60</ele>
	<time>2025-08-16T08:19:05.000Z</time>
</trkpt>
<trkpt lat="45.9696190" lon="10.1859510">
	<ele>1835.60</ele>
	<time>2025-08-16T08:19:06.000Z</time>
</trkpt>
<trkpt lat="45.9696180" lon="10.1859350">
	<ele>1835.60</ele>
	<time>2025-08-16T08:19:07.000Z</time>
</trkpt>
<trkpt lat="45.9696180" lon="10.1859220">
	<ele>1835.60</ele>
	<time>2025-08-16T08:19:08.000Z</time>
</trkpt>
<trkpt lat="45.9696150" lon="10.1859120">
	<ele>1835.60</ele>
	<time>2025-08-16T08:19:09.000Z</time>
</trkpt>
<trkpt lat="45.9696110" lon="10.1859010">
	<ele>1835.40</ele>
	<time>2025-08-16T08:19:10.000Z</time>
</trkpt>
<trkpt lat="45.9696120" lon="10.1858870">
	<ele>1835.40</ele>
	<time>2025-08-16T08:19:11.000Z</time>
</trkpt>
<trkpt lat="45.9696150" lon="10.1858730">
	<ele>1835.40</ele>
	<time>2025-08-16T08:19:12.000Z</time>
</trkpt>
<trkpt lat="45.9696170" lon="10.1858580">
	<ele>1835.00</ele>
	<time>2025-08-16T08:19:13.000Z</time>
</trkpt>
<trkpt lat="45.9696150" lon="10.1858460">
	<ele>1835.00</ele>
	<time>2025-08-16T08:19:14.000Z</time>
</trkpt>
<trkpt lat="45.9696130" lon="10.1858330">
	<ele>1834.80</ele>
	<time>2025-08-16T08:19:15.000Z</time>
</trkpt>
<trkpt lat="45.9696120" lon="10.1858250">
	<ele>1834.60</ele>
	<time>2025-08-16T08:19:16.000Z</time>
</trkpt>
<trkpt lat="45.9696120" lon="10.1858140">
	<ele>1834.40</ele>
	<time>2025-08-16T08:19:17.000Z</time>
</trkpt>
<trkpt lat="45.9696110" lon="10.1858020">
	<ele>1834.20</ele>
	<time>2025-08-16T08:19:18.000Z</time>
</trkpt>
<trkpt lat="45.9696120" lon="10.1857890">
	<ele>1834.20</ele>
	<time>2025-08-16T08:19:19.000Z</time>
</trkpt>
<trkpt lat="45.9696180" lon="10.1857760">
	<ele>1834.00</ele>
	<time>2025-08-16T08:19:20.000Z</time>
</trkpt>
<trkpt lat="45.9696220" lon="10.1857630">
	<ele>1833.80</ele>
	<time>2025-08-16T08:19:21.000Z</time>
</trkpt>
<trkpt lat="45.9696240" lon="10.1857590">
	<ele>1833.80</ele>
	<time>2025-08-16T08:19:22.000Z</time>
</trkpt>
<trkpt lat="45.9696240" lon="10.1857550">
	<ele>1833.60</ele>
	<time>2025-08-16T08:19:23.000Z</time>
</trkpt>
<trkpt lat="45.9696270" lon="10.1857470">
	<ele>1833.60</ele>
	<time>2025-08-16T08:19:24.000Z</time>
</trkpt>
<trkpt lat="45.9696290" lon="10.1857420">
	<ele>1833.60</ele>
	<time>2025-08-16T08:19:25.000Z</time>
</trkpt>
<trkpt lat="45.9696290" lon="10.1857370">
	<ele>1833.60</ele>
	<time>2025-08-16T08:19:26.000Z</time>
</trkpt>
<trkpt lat="45.9696300" lon="10.1857290">
	<ele>1833.40</ele>
	<time>2025-08-16T08:19:27.000Z</time>
</trkpt>
<trkpt lat="45.9696310" lon="10.1857210">
	<ele>1833.40</ele>
	<time>2025-08-16T08:19:28.000Z</time>
</trkpt>
<trkpt lat="45.9696360" lon="10.1857060">
	<ele>1833.20</ele>
	<time>2025-08-16T08:19:29.000Z</time>
</trkpt>
<trkpt lat="45.9696410" lon="10.1856880">
	<ele>1833.00</ele>
	<time>2025-08-16T08:19:30.000Z</time>
</trkpt>
<trkpt lat="45.9696450" lon="10.1856710">
	<ele>1832.80</ele>
	<time>2025-08-16T08:19:31.000Z</time>
</trkpt>
<trkpt lat="45.9696470" lon="10.1856540">
	<ele>1832.60</ele>
	<time>2025-08-16T08:19:32.000Z</time>
</trkpt>
<trkpt lat="45.9696460" lon="10.1856410">
	<ele>1832.60</ele>
	<time>2025-08-16T08:19:33.000Z</time>
</trkpt>
<trkpt lat="45.9696460" lon="10.1856230">
	<ele>1832.40</ele>
	<time>2025-08-16T08:19:34.000Z</time>
</trkpt>
<trkpt lat="45.9696440" lon="10.1856070">
	<ele>1832.40</ele>
	<time>2025-08-16T08:19:35.000Z</time>
</trkpt>
<trkpt lat="45.9696450" lon="10.1855970">
	<ele>1832.40</ele>
	<time>2025-08-16T08:19:36.000Z</time>
</trkpt>
<trkpt lat="45.9696490" lon="10.1855830">
	<ele>1832.40</ele>
	<time>2025-08-16T08:19:37.000Z</time>
</trkpt>
<trkpt lat="45.9696530" lon="10.1855680">
	<ele>1832.60</ele>
	<time>2025-08-16T08:19:38.000Z</time>
</trkpt>
<trkpt lat="45.9696570" lon="10.1855540">
	<ele>1832.60</ele>
	<time>2025-08-16T08:19:39.000Z</time>
</trkpt>
<trkpt lat="45.9696600" lon="10.1855400">
	<ele>1832.60</ele>
	<time>2025-08-16T08:19:40.000Z</time>
</trkpt>
<trkpt lat="45.9696630" lon="10.1855260">
	<ele>1832.60</ele>
	<time>2025-08-16T08:19:41.000Z</time>
</trkpt>
<trkpt lat="45.9696650" lon="10.1855130">
	<ele>1832.40</ele>
	<time>2025-08-16T08:19:42.000Z</time>
</trkpt>
<trkpt lat="45.9696680" lon="10.1854980">
	<ele>1832.40</ele>
	<time>2025-08-16T08:19:43.000Z</time>
</trkpt>
<trkpt lat="45.9696710" lon="10.1854810">
	<ele>1832.20</ele>
	<time>2025-08-16T08:19:44.000Z</time>
</trkpt>
<trkpt lat="45.9696730" lon="10.1854640">
	<ele>1832.20</ele>
	<time>2025-08-16T08:19:45.000Z</time>
</trkpt>
<trkpt lat="45.9696750" lon="10.1854500">
	<ele>1832.00</ele>
	<time>2025-08-16T08:19:46.000Z</time>
</trkpt>
<trkpt lat="45.9696770" lon="10.1854410">
	<ele>1831.80</ele>
	<time>2025-08-16T08:19:47.000Z</time>
</trkpt>
<trkpt lat="45.9696730" lon="10.1854330">
	<ele>1831.60</ele>
	<time>2025-08-16T08:19:48.000Z</time>
</trkpt>
<trkpt lat="45.9696750" lon="10.1854160">
	<ele>1831.60</ele>
	<time>2025-08-16T08:19:49.000Z</time>
</trkpt>
<trkpt lat="45.9696830" lon="10.1854010">
	<ele>1831.40</ele>
	<time>2025-08-16T08:19:50.000Z</time>
</trkpt>
<trkpt lat="45.9696860" lon="10.1853950">
	<ele>1831.40</ele>
	<time>2025-08-16T08:19:51.000Z</time>
</trkpt>
<trkpt lat="45.9696840" lon="10.1853870">
	<ele>1831.40</ele>
	<time>2025-08-16T08:19:52.000Z</time>
</trkpt>
<trkpt lat="45.9696810" lon="10.1853790">
	<ele>1831.40</ele>
	<time>2025-08-16T08:19:53.000Z</time>
</trkpt>
<trkpt lat="45.9696800" lon="10.1853690">
	<ele>1831.20</ele>
	<time>2025-08-16T08:19:54.000Z</time>
</trkpt>
<trkpt lat="45.9696820" lon="10.1853530">
	<ele>1831.20</ele>
	<time>2025-08-16T08:19:55.000Z</time>
</trkpt>
<trkpt lat="45.9696870" lon="10.1853350">
	<ele>1831.00</ele>
	<time>2025-08-16T08:19:56.000Z</time>
</trkpt>
<trkpt lat="45.9696820" lon="10.1853340">
	<ele>1830.80</ele>
	<time>2025-08-16T08:19:57.000Z</time>
</trkpt>
<trkpt lat="45.9696810" lon="10.1853410">
	<ele>1830.60</ele>
	<time>2025-08-16T08:19:58.000Z</time>
</trkpt>
<trkpt lat="45.9696840" lon="10.1853410">
	<ele>1830.60</ele>
	<time>2025-08-16T08:19:59.000Z</time>
</trkpt>
<trkpt lat="45.9696860" lon="10.1853350">
	<ele>1830.20</ele>
	<time>2025-08-16T08:20:00.000Z</time>
</trkpt>
<trkpt lat="45.9696820" lon="10.1853290">
	<ele>1830.20</ele>
	<time>2025-08-16T08:20:01.000Z</time>
</trkpt>
<trkpt lat="45.9696840" lon="10.1853270">
	<ele>1830.00</ele>
	<time>2025-08-16T08:20:02.000Z</time>
</trkpt>
<trkpt lat="45.9696830" lon="10.1853130">
	<ele>1829.80</ele>
	<time>2025-08-16T08:20:03.000Z</time>
</trkpt>
<trkpt lat="45.9696790" lon="10.1852990">
	<ele>1829.60</ele>
	<time>2025-08-16T08:20:04.000Z</time>
</trkpt>
<trkpt lat="45.9696760" lon="10.1852930">
	<ele>1829.20</ele>
	<time>2025-08-16T08:20:05.000Z</time>
</trkpt>
<trkpt lat="45.9696740" lon="10.1852900">
	<ele>1829.20</ele>
	<time>2025-08-16T08:20:06.000Z</time>
</trkpt>
<trkpt lat="45.9696720" lon="10.1852800">
	<ele>1829.00</ele>
	<time>2025-08-16T08:20:07.000Z</time>
</trkpt>
<trkpt lat="45.9696710" lon="10.1852680">
	<ele>1828.80</ele>
	<time>2025-08-16T08:20:08.000Z</time>
</trkpt>
<trkpt lat="45.9696710" lon="10.1852570">
	<ele>1828.60</ele>
	<time>2025-08-16T08:20:09.000Z</time>
</trkpt>
<trkpt lat="45.9696710" lon="10.1852470">
	<ele>1828.40</ele>
	<time>2025-08-16T08:20:10.000Z</time>
</trkpt>
<trkpt lat="45.9696700" lon="10.1852400">
	<ele>1828.20</ele>
	<time>2025-08-16T08:20:11.000Z</time>
</trkpt>
<trkpt lat="45.9696650" lon="10.1852360">
	<ele>1828.00</ele>
	<time>2025-08-16T08:20:12.000Z</time>
</trkpt>
<trkpt lat="45.9696590" lon="10.1852290">
	<ele>1827.80</ele>
	<time>2025-08-16T08:20:13.000Z</time>
</trkpt>
<trkpt lat="45.9696570" lon="10.1852120">
	<ele>1827.40</ele>
	<time>2025-08-16T08:20:14.000Z</time>
</trkpt>
<trkpt lat="45.9696570" lon="10.1851910">
	<ele>1827.20</ele>
	<time>2025-08-16T08:20:15.000Z</time>
</trkpt>
<trkpt lat="45.9696560" lon="10.1851790">
	<ele>1827.00</ele>
	<time>2025-08-16T08:20:16.000Z</time>
</trkpt>
<trkpt lat="45.9696520" lon="10.1851650">
	<ele>1826.80</ele>
	<time>2025-08-16T08:20:17.000Z</time>
</trkpt>
<trkpt lat="45.9696450" lon="10.1851570">
	<ele>1826.60</ele>
	<time>2025-08-16T08:20:18.000Z</time>
</trkpt>
<trkpt lat="45.9696390" lon="10.1851490">
	<ele>1826.40</ele>
	<time>2025-08-16T08:20:19.000Z</time>
</trkpt>
<trkpt lat="45.9696370" lon="10.1851350">
	<ele>1826.40</ele>
	<time>2025-08-16T08:20:20.000Z</time>
</trkpt>
<trkpt lat="45.9696330" lon="10.1851180">
	<ele>1826.20</ele>
	<time>2025-08-16T08:20:21.000Z</time>
</trkpt>
<trkpt lat="45.9696290" lon="10.1851010">
	<ele>1826.00</ele>
	<time>2025-08-16T08:20:22.000Z</time>
</trkpt>
<trkpt lat="45.9696270" lon="10.1850870">
	<ele>1825.80</ele>
	<time>2025-08-16T08:20:23.000Z</time>
</trkpt>
<trkpt lat="45.9696260" lon="10.1850710">
	<ele>1825.60</ele>
	<time>2025-08-16T08:20:24.000Z</time>
</trkpt>
<trkpt lat="45.9696260" lon="10.1850530">
	<ele>1825.60</ele>
	<time>2025-08-16T08:20:25.000Z</time>
</trkpt>
<trkpt lat="45.9696240" lon="10.1850370">
	<ele>1825.60</ele>
	<time>2025-08-16T08:20:26.000Z</time>
</trkpt>
<trkpt lat="45.9696200" lon="10.1850130">
	<ele>1825.60</ele>
	<time>2025-08-16T08:20:27.000Z</time>
</trkpt>
<trkpt lat="45.9696150" lon="10.1850000">
	<ele>1825.40</ele>
	<time>2025-08-16T08:20:28.000Z</time>
</trkpt>
<trkpt lat="45.9696110" lon="10.1849880">
	<ele>1825.40</ele>
	<time>2025-08-16T08:20:29.000Z</time>
</trkpt>
<trkpt lat="45.9696100" lon="10.1849740">
	<ele>1825.40</ele>
	<time>2025-08-16T08:20:30.000Z</time>
</trkpt>
<trkpt lat="45.9696090" lon="10.1849600">
	<ele>1825.40</ele>
	<time>2025-08-16T08:20:31.000Z</time>
</trkpt>
<trkpt lat="45.9696060" lon="10.1849490">
	<ele>1825.20</ele>
	<time>2025-08-16T08:20:32.000Z</time>
</trkpt>
<trkpt lat="45.9696060" lon="10.1849280">
	<ele>1825.20</ele>
	<time>2025-08-16T08:20:33.000Z</time>
</trkpt>
<trkpt lat="45.9696060" lon="10.1849080">
	<ele>1825.20</ele>
	<time>2025-08-16T08:20:34.000Z</time>
</trkpt>
<trkpt lat="45.9696110" lon="10.1848900">
	<ele>1825.20</ele>
	<time>2025-08-16T08:20:35.000Z</time>
</trkpt>
<trkpt lat="45.9696080" lon="10.1848760">
	<ele>1825.20</ele>
	<time>2025-08-16T08:20:36.000Z</time>
</trkpt>
<trkpt lat="45.9696050" lon="10.1848620">
	<ele>1825.20</ele>
	<time>2025-08-16T08:20:37.000Z</time>
</trkpt>
<trkpt lat="45.9696050" lon="10.1848420">
	<ele>1825.00</ele>
	<time>2025-08-16T08:20:38.000Z</time>
</trkpt>
<trkpt lat="45.9696000" lon="10.1848210">
	<ele>1825.00</ele>
	<time>2025-08-16T08:20:39.000Z</time>
</trkpt>
<trkpt lat="45.9695930" lon="10.1848090">
	<ele>1825.00</ele>
	<time>2025-08-16T08:20:40.000Z</time>
</trkpt>
<trkpt lat="45.9695920" lon="10.1848010">
	<ele>1825.00</ele>
	<time>2025-08-16T08:20:41.000Z</time>
</trkpt>
<trkpt lat="45.9695890" lon="10.1847930">
	<ele>1825.00</ele>
	<time>2025-08-16T08:20:42.000Z</time>
</trkpt>
<trkpt lat="45.9695870" lon="10.1847860">
	<ele>1825.20</ele>
	<time>2025-08-16T08:20:43.000Z</time>
</trkpt>
<trkpt lat="45.9695880" lon="10.1847750">
	<ele>1825.40</ele>
	<time>2025-08-16T08:20:44.000Z</time>
</trkpt>
<trkpt lat="45.9695860" lon="10.1847630">
	<ele>1825.40</ele>
	<time>2025-08-16T08:20:45.000Z</time>
</trkpt>
<trkpt lat="45.9695830" lon="10.1847540">
	<ele>1825.60</ele>
	<time>2025-08-16T08:20:46.000Z</time>
</trkpt>
<trkpt lat="45.9695820" lon="10.1847450">
	<ele>1825.60</ele>
	<time>2025-08-16T08:20:47.000Z</time>
</trkpt>
<trkpt lat="45.9695820" lon="10.1847310">
	<ele>1825.80</ele>
	<time>2025-08-16T08:20:48.000Z</time>
</trkpt>
<trkpt lat="45.9695810" lon="10.1847200">
	<ele>1825.80</ele>
	<time>2025-08-16T08:20:49.000Z</time>
</trkpt>
<trkpt lat="45.9695790" lon="10.1847090">
	<ele>1826.00</ele>
	<time>2025-08-16T08:20:50.000Z</time>
</trkpt>
<trkpt lat="45.9695780" lon="10.1846950">
	<ele>1825.80</ele>
	<time>2025-08-16T08:20:51.000Z</time>
</trkpt>
<trkpt lat="45.9695810" lon="10.1846760">
	<ele>1825.80</ele>
	<time>2025-08-16T08:20:52.000Z</time>
</trkpt>
<trkpt lat="45.9695820" lon="10.1846630">
	<ele>1825.40</ele>
	<time>2025-08-16T08:20:53.000Z</time>
</trkpt>
<trkpt lat="45.9695840" lon="10.1846540">
	<ele>1825.40</ele>
	<time>2025-08-16T08:20:54.000Z</time>
</trkpt>
<trkpt lat="45.9695820" lon="10.1846450">
	<ele>1825.20</ele>
	<time>2025-08-16T08:20:55.000Z</time>
</trkpt>
<trkpt lat="45.9695790" lon="10.1846350">
	<ele>1825.20</ele>
	<time>2025-08-16T08:20:56.000Z</time>
</trkpt>
<trkpt lat="45.9695760" lon="10.1846240">
	<ele>1825.20</ele>
	<time>2025-08-16T08:20:57.000Z</time>
</trkpt>
<trkpt lat="45.9695730" lon="10.1846160">
	<ele>1825.40</ele>
	<time>2025-08-16T08:20:58.000Z</time>
</trkpt>
<trkpt lat="45.9695700" lon="10.1846060">
	<ele>1825.60</ele>
	<time>2025-08-16T08:20:59.000Z</time>
</trkpt>
<trkpt lat="45.9695720" lon="10.1845930">
	<ele>1825.80</ele>
	<time>2025-08-16T08:21:00.000Z</time>
</trkpt>
<trkpt lat="45.9695770" lon="10.1845800">
	<ele>1826.00</ele>
	<time>2025-08-16T08:21:01.000Z</time>
</trkpt>
<trkpt lat="45.9695800" lon="10.1845700">
	<ele>1826.20</ele>
	<time>2025-08-16T08:21:02.000Z</time>
</trkpt>
<trkpt lat="45.9695780" lon="10.1845640">
	<ele>1826.40</ele>
	<time>2025-08-16T08:21:03.000Z</time>
</trkpt>
<trkpt lat="45.9695760" lon="10.1845620">
	<ele>1826.40</ele>
	<time>2025-08-16T08:21:04.000Z</time>
</trkpt>
<trkpt lat="45.9695760" lon="10.1845650">
	<ele>1826.40</ele>
	<time>2025-08-16T08:21:05.000Z</time>
</trkpt>
<trkpt lat="45.9695740" lon="10.1845670">
	<ele>1826.40</ele>
	<time>2025-08-16T08:21:06.000Z</time>
</trkpt>
<trkpt lat="45.9695750" lon="10.1845690">
	<ele>1826.40</ele>
	<time>2025-08-16T08:21:07.000Z</time>
</trkpt>
<trkpt lat="45.9695760" lon="10.1845720">
	<ele>1826.40</ele>
	<time>2025-08-16T08:21:08.000Z</time>
</trkpt>
<trkpt lat="45.9695780" lon="10.1845670">
	<ele>1826.40</ele>
	<time>2025-08-16T08:21:09.000Z</time>
</trkpt>
<trkpt lat="45.9695800" lon="10.1845660">
	<ele>1826.40</ele>
	<time>2025-08-16T08:21:10.000Z</time>
</trkpt>
<trkpt lat="45.9695820" lon="10.1845620">
	<ele>1826.40</ele>
	<time>2025-08-16T08:21:11.000Z</time>
</trkpt>
<trkpt lat="45.9695840" lon="10.1845610">
	<ele>1826.60</ele>
	<time>2025-08-16T08:21:12.000Z</time>
</trkpt>
<trkpt lat="45.9695930" lon="10.1845550">
	<ele>1826.60</ele>
	<time>2025-08-16T08:21:13.000Z</time>
</trkpt>
<trkpt lat="45.9695960" lon="10.1845460">
	<ele>1826.60</ele>
	<time>2025-08-16T08:21:14.000Z</time>
</trkpt>
<trkpt lat="45.9695950" lon="10.1845370">
	<ele>1826.60</ele>
	<time>2025-08-16T08:21:15.000Z</time>
</trkpt>
<trkpt lat="45.9695920" lon="10.1845300">
	<ele>1826.60</ele>
	<time>2025-08-16T08:21:16.000Z</time>
</trkpt>
<trkpt lat="45.9695910" lon="10.1845250">
	<ele>1826.60</ele>
	<time>2025-08-16T08:21:17.000Z</time>
</trkpt>
<trkpt lat="45.9695910" lon="10.1845190">
	<ele>1826.60</ele>
	<time>2025-08-16T08:21:18.000Z</time>
</trkpt>
<trkpt lat="45.9695890" lon="10.1845140">
	<ele>1826.60</ele>
	<time>2025-08-16T08:21:19.000Z</time>
</trkpt>
<trkpt lat="45.9695880" lon="10.1845120">
	<ele>1826.60</ele>
	<time>2025-08-16T08:21:20.000Z</time>
</trkpt>
<trkpt lat="45.9695880" lon="10.1845130">
	<ele>1826.80</ele>
	<time>2025-08-16T08:21:21.000Z</time>
</trkpt>
<trkpt lat="45.9695870" lon="10.1845130">
	<ele>1826.80</ele>
	<time>2025-08-16T08:21:22.000Z</time>
</trkpt>
<trkpt lat="45.9695860" lon="10.1845110">
	<ele>1826.80</ele>
	<time>2025-08-16T08:21:23.000Z</time>
</trkpt>
<trkpt lat="45.9695850" lon="10.1845080">
	<ele>1826.80</ele>
	<time>2025-08-16T08:21:24.000Z</time>
</trkpt>
<trkpt lat="45.9695810" lon="10.1845030">
	<ele>1826.80</ele>
	<time>2025-08-16T08:21:25.000Z</time>
</trkpt>
<trkpt lat="45.9695810" lon="10.1844920">
	<ele>1826.80</ele>
	<time>2025-08-16T08:21:26.000Z</time>
</trkpt>
<trkpt lat="45.9695800" lon="10.1844830">
	<ele>1826.80</ele>
	<time>2025-08-16T08:21:27.000Z</time>
</trkpt>
<trkpt lat="45.9695790" lon="10.1844730">
	<ele>1826.80</ele>
	<time>2025-08-16T08:21:28.000Z</time>
</trkpt>
<trkpt lat="45.9695760" lon="10.1844600">
	<ele>1827.00</ele>
	<time>2025-08-16T08:21:29.000Z</time>
</trkpt>
<trkpt lat="45.9695750" lon="10.1844480">
	<ele>1827.00</ele>
	<time>2025-08-16T08:21:30.000Z</time>
</trkpt>
<trkpt lat="45.9695750" lon="10.1844360">
	<ele>1827.00</ele>
	<time>2025-08-16T08:21:31.000Z</time>
</trkpt>
<trkpt lat="45.9695750" lon="10.1844300">
	<ele>1827.00</ele>
	<time>2025-08-16T08:21:32.000Z</time>
</trkpt>
<trkpt lat="45.9695740" lon="10.1844220">
	<ele>1827.20</ele>
	<time>2025-08-16T08:21:33.000Z</time>
</trkpt>
<trkpt lat="45.9695730" lon="10.1844160">
	<ele>1827.20</ele>
	<time>2025-08-16T08:21:34.000Z</time>
</trkpt>
<trkpt lat="45.9695730" lon="10.1844100">
	<ele>1827.00</ele>
	<time>2025-08-16T08:21:35.000Z</time>
</trkpt>
<trkpt lat="45.9695700" lon="10.1844050">
	<ele>1826.80</ele>
	<time>2025-08-16T08:21:36.000Z</time>
</trkpt>
<trkpt lat="45.9695650" lon="10.1843960">
	<ele>1826.60</ele>
	<time>2025-08-16T08:21:37.000Z</time>
</trkpt>
<trkpt lat="45.9695640" lon="10.1843780">
	<ele>1826.40</ele>
	<time>2025-08-16T08:21:38.000Z</time>
</trkpt>
<trkpt lat="45.9695630" lon="10.1843630">
	<ele>1826.20</ele>
	<time>2025-08-16T08:21:39.000Z</time>
</trkpt>
<trkpt lat="45.9695640" lon="10.1843490">
	<ele>1826.00</ele>
	<time>2025-08-16T08:21:40.000Z</time>
</trkpt>
<trkpt lat="45.9695670" lon="10.1843360">
	<ele>1825.80</ele>
	<time>2025-08-16T08:21:41.000Z</time>
</trkpt>
<trkpt lat="45.9695700" lon="10.1843280">
	<ele>1825.60</ele>
	<time>2025-08-16T08:21:42.000Z</time>
</trkpt>
<trkpt lat="45.9695750" lon="10.1843170">
	<ele>1825.40</ele>
	<time>2025-08-16T08:21:43.000Z</time>
</trkpt>
<trkpt lat="45.9695810" lon="10.1843060">
	<ele>1825.20</ele>
	<time>2025-08-16T08:21:44.000Z</time>
</trkpt>
<trkpt lat="45.9695890" lon="10.1842930">
	<ele>1825.00</ele>
	<time>2025-08-16T08:21:45.000Z</time>
</trkpt>
<trkpt lat="45.9695920" lon="10.1842770">
	<ele>1824.80</ele>
	<time>2025-08-16T08:21:46.000Z</time>
</trkpt>
<trkpt lat="45.9695990" lon="10.1842620">
	<ele>1824.60</ele>
	<time>2025-08-16T08:21:47.000Z</time>
</trkpt>
<trkpt lat="45.9695990" lon="10.1842430">
	<ele>1824.60</ele>
	<time>2025-08-16T08:21:48.000Z</time>
</trkpt>
<trkpt lat="45.9695970" lon="10.1842270">
	<ele>1824.40</ele>
	<time>2025-08-16T08:21:49.000Z</time>
</trkpt>
<trkpt lat="45.9695930" lon="10.1842130">
	<ele>1824.40</ele>
	<time>2025-08-16T08:21:50.000Z</time>
</trkpt>
<trkpt lat="45.9695870" lon="10.1842040">
	<ele>1824.20</ele>
	<time>2025-08-16T08:21:51.000Z</time>
</trkpt>
<trkpt lat="45.9695840" lon="10.1841980">
	<ele>1824.00</ele>
	<time>2025-08-16T08:21:52.000Z</time>
</trkpt>
<trkpt lat="45.9695800" lon="10.1841890">
	<ele>1823.80</ele>
	<time>2025-08-16T08:21:53.000Z</time>
</trkpt>
<trkpt lat="45.9695740" lon="10.1841820">
	<ele>1823.80</ele>
	<time>2025-08-16T08:21:54.000Z</time>
</trkpt>
<trkpt lat="45.9695720" lon="10.1841750">
	<ele>1823.60</ele>
	<time>2025-08-16T08:21:55.000Z</time>
</trkpt>
<trkpt lat="45.9695670" lon="10.1841650">
	<ele>1823.40</ele>
	<time>2025-08-16T08:21:56.000Z</time>
</trkpt>
<trkpt lat="45.9695690" lon="10.1841550">
	<ele>1823.20</ele>
	<time>2025-08-16T08:21:57.000Z</time>
</trkpt>
<trkpt lat="45.9695710" lon="10.1841420">
	<ele>1822.60</ele>
	<time>2025-08-16T08:21:58.000Z</time>
</trkpt>
<trkpt lat="45.9695730" lon="10.1841300">
	<ele>1822.20</ele>
	<time>2025-08-16T08:21:59.000Z</time>
</trkpt>
<trkpt lat="45.9695680" lon="10.1841140">
	<ele>1822.00</ele>
	<time>2025-08-16T08:22:00.000Z</time>
</trkpt>
<trkpt lat="45.9695660" lon="10.1840930">
	<ele>1821.80</ele>
	<time>2025-08-16T08:22:01.000Z</time>
</trkpt>
<trkpt lat="45.9695600" lon="10.1840730">
	<ele>1821.60</ele>
	<time>2025-08-16T08:22:02.000Z</time>
</trkpt>
<trkpt lat="45.9695620" lon="10.1840650">
	<ele>1821.20</ele>
	<time>2025-08-16T08:22:03.000Z</time>
</trkpt>
<trkpt lat="45.9695640" lon="10.1840500">
	<ele>1821.00</ele>
	<time>2025-08-16T08:22:04.000Z</time>
</trkpt>
<trkpt lat="45.9695660" lon="10.1840400">
	<ele>1820.80</ele>
	<time>2025-08-16T08:22:05.000Z</time>
</trkpt>
<trkpt lat="45.9695580" lon="10.1840330">
	<ele>1820.40</ele>
	<time>2025-08-16T08:22:06.000Z</time>
</trkpt>
<trkpt lat="45.9695500" lon="10.1840300">
	<ele>1820.00</ele>
	<time>2025-08-16T08:22:07.000Z</time>
</trkpt>
<trkpt lat="45.9695540" lon="10.1840200">
	<ele>1820.00</ele>
	<time>2025-08-16T08:22:08.000Z</time>
</trkpt>
<trkpt lat="45.9695660" lon="10.1840030">
	<ele>1819.80</ele>
	<time>2025-08-16T08:22:09.000Z</time>
</trkpt>
<trkpt lat="45.9695630" lon="10.1839800">
	<ele>1819.60</ele>
	<time>2025-08-16T08:22:10.000Z</time>
</trkpt>
<trkpt lat="45.9695650" lon="10.1839730">
	<ele>1819.40</ele>
	<time>2025-08-16T08:22:11.000Z</time>
</trkpt>
<trkpt lat="45.9695660" lon="10.1839610">
	<ele>1819.00</ele>
	<time>2025-08-16T08:22:12.000Z</time>
</trkpt>
<trkpt lat="45.9695660" lon="10.1839490">
	<ele>1818.80</ele>
	<time>2025-08-16T08:22:13.000Z</time>
</trkpt>
<trkpt lat="45.9695620" lon="10.1839380">
	<ele>1818.60</ele>
	<time>2025-08-16T08:22:14.000Z</time>
</trkpt>
<trkpt lat="45.9695550" lon="10.1839380">
	<ele>1818.40</ele>
	<time>2025-08-16T08:22:15.000Z</time>
</trkpt>
<trkpt lat="45.9695550" lon="10.1839310">
	<ele>1818.20</ele>
	<time>2025-08-16T08:22:16.000Z</time>
</trkpt>
<trkpt lat="45.9695590" lon="10.1839280">
	<ele>1818.00</ele>
	<time>2025-08-16T08:22:17.000Z</time>
</trkpt>
<trkpt lat="45.9695540" lon="10.1839220">
	<ele>1817.80</ele>
	<time>2025-08-16T08:22:18.000Z</time>
</trkpt>
<trkpt lat="45.9695420" lon="10.1839170">
	<ele>1817.60</ele>
	<time>2025-08-16T08:22:19.000Z</time>
</trkpt>
<trkpt lat="45.9695340" lon="10.1839030">
	<ele>1817.40</ele>
	<time>2025-08-16T08:22:20.000Z</time>
</trkpt>
<trkpt lat="45.9695230" lon="10.1838820">
	<ele>1817.00</ele>
	<time>2025-08-16T08:22:21.000Z</time>
</trkpt>
<trkpt lat="45.9695280" lon="10.1838760">
	<ele>1816.80</ele>
	<time>2025-08-16T08:22:22.000Z</time>
</trkpt>
<trkpt lat="45.9695480" lon="10.1838620">
	<ele>1816.60</ele>
	<time>2025-08-16T08:22:23.000Z</time>
</trkpt>
<trkpt lat="45.9695590" lon="10.1838590">
	<ele>1816.40</ele>
	<time>2025-08-16T08:22:24.000Z</time>
</trkpt>
<trkpt lat="45.9695620" lon="10.1838390">
	<ele>1816.20</ele>
	<time>2025-08-16T08:22:25.000Z</time>
</trkpt>
<trkpt lat="45.9695510" lon="10.1838390">
	<ele>1816.20</ele>
	<time>2025-08-16T08:22:26.000Z</time>
</trkpt>
<trkpt lat="45.9695460" lon="10.1838290">
	<ele>1815.80</ele>
	<time>2025-08-16T08:22:27.000Z</time>
</trkpt>
<trkpt lat="45.9695430" lon="10.1838180">
	<ele>1815.40</ele>
	<time>2025-08-16T08:22:28.000Z</time>
</trkpt>
<trkpt lat="45.9695450" lon="10.1838050">
	<ele>1815.20</ele>
	<time>2025-08-16T08:22:29.000Z</time>
</trkpt>
<trkpt lat="45.9695470" lon="10.1837920">
	<ele>1815.00</ele>
	<time>2025-08-16T08:22:30.000Z</time>
</trkpt>
<trkpt lat="45.9695410" lon="10.1837770">
	<ele>1814.80</ele>
	<time>2025-08-16T08:22:31.000Z</time>
</trkpt>
<trkpt lat="45.9695410" lon="10.1837580">
	<ele>1814.60</ele>
	<time>2025-08-16T08:22:32.000Z</time>
</trkpt>
<trkpt lat="45.9695440" lon="10.1837410">
	<ele>1814.40</ele>
	<time>2025-08-16T08:22:33.000Z</time>
</trkpt>
<trkpt lat="45.9695430" lon="10.1837290">
	<ele>1814.20</ele>
	<time>2025-08-16T08:22:34.000Z</time>
</trkpt>
<trkpt lat="45.9695430" lon="10.1837210">
	<ele>1814.00</ele>
	<time>2025-08-16T08:22:35.000Z</time>
</trkpt>
<trkpt lat="45.9695440" lon="10.1837160">
	<ele>1813.60</ele>
	<time>2025-08-16T08:22:36.000Z</time>
</trkpt>
<trkpt lat="45.9695410" lon="10.1837030">
	<ele>1813.60</ele>
	<time>2025-08-16T08:22:37.000Z</time>
</trkpt>
<trkpt lat="45.9695330" lon="10.1836980">
	<ele>1813.60</ele>
	<time>2025-08-16T08:22:38.000Z</time>
</trkpt>
<trkpt lat="45.9695320" lon="10.1836980">
	<ele>1813.40</ele>
	<time>2025-08-16T08:22:39.000Z</time>
</trkpt>
<trkpt lat="45.9695310" lon="10.1836980">
	<ele>1813.60</ele>
	<time>2025-08-16T08:22:40.000Z</time>
</trkpt>
<trkpt lat="45.9695300" lon="10.1836960">
	<ele>1813.60</ele>
	<time>2025-08-16T08:22:41.000Z</time>
</trkpt>
<trkpt lat="45.9695290" lon="10.1836960">
	<ele>1813.60</ele>
	<time>2025-08-16T08:22:42.000Z</time>
</trkpt>
<trkpt lat="45.9695350" lon="10.1836970">
	<ele>1813.60</ele>
	<time>2025-08-16T08:22:43.000Z</time>
</trkpt>
<trkpt lat="45.9695350" lon="10.1836920">
	<ele>1813.60</ele>
	<time>2025-08-16T08:22:44.000Z</time>
</trkpt>
<trkpt lat="45.9695310" lon="10.1836790">
	<ele>1813.60</ele>
	<time>2025-08-16T08:22:45.000Z</time>
</trkpt>
<trkpt lat="45.9695290" lon="10.1836640">
	<ele>1813.60</ele>
	<time>2025-08-16T08:22:46.000Z</time>
</trkpt>
<trkpt lat="45.9695270" lon="10.1836410">
	<ele>1813.40</ele>
	<time>2025-08-16T08:22:47.000Z</time>
</trkpt>
<trkpt lat="45.9695260" lon="10.1836220">
	<ele>1813.40</ele>
	<time>2025-08-16T08:22:48.000Z</time>
</trkpt>
<trkpt lat="45.9695240" lon="10.1836060">
	<ele>1813.40</ele>
	<time>2025-08-16T08:22:49.000Z</time>
</trkpt>
<trkpt lat="45.9695150" lon="10.1835980">
	<ele>1813.20</ele>
	<time>2025-08-16T08:22:50.000Z</time>
</trkpt>
<trkpt lat="45.9695070" lon="10.1835900">
	<ele>1813.20</ele>
	<time>2025-08-16T08:22:51.000Z</time>
</trkpt>
<trkpt lat="45.9695030" lon="10.1835790">
	<ele>1813.20</ele>
	<time>2025-08-16T08:22:52.000Z</time>
</trkpt>
<trkpt lat="45.9695020" lon="10.1835660">
	<ele>1813.00</ele>
	<time>2025-08-16T08:22:53.000Z</time>
</trkpt>
<trkpt lat="45.9695060" lon="10.1835500">
	<ele>1813.00</ele>
	<time>2025-08-16T08:22:54.000Z</time>
</trkpt>
<trkpt lat="45.9695020" lon="10.1835450">
	<ele>1813.00</ele>
	<time>2025-08-16T08:22:55.000Z</time>
</trkpt>
<trkpt lat="45.9694900" lon="10.1835410">
	<ele>1812.80</ele>
	<time>2025-08-16T08:22:56.000Z</time>
</trkpt>
<trkpt lat="45.9694890" lon="10.1835250">
	<ele>1812.80</ele>
	<time>2025-08-16T08:22:57.000Z</time>
</trkpt>
<trkpt lat="45.9694890" lon="10.1835170">
	<ele>1812.80</ele>
	<time>2025-08-16T08:22:58.000Z</time>
</trkpt>
<trkpt lat="45.9694830" lon="10.1835150">
	<ele>1812.80</ele>
	<time>2025-08-16T08:22:59.000Z</time>
</trkpt>
<trkpt lat="45.9694730" lon="10.1835150">
	<ele>1812.80</ele>
	<time>2025-08-16T08:23:00.000Z</time>
</trkpt>
<trkpt lat="45.9694620" lon="10.1835310">
	<ele>1812.80</ele>
	<time>2025-08-16T08:23:01.000Z</time>
</trkpt>
<trkpt lat="45.9694480" lon="10.1835150">
	<ele>1812.80</ele>
	<time>2025-08-16T08:23:02.000Z</time>
</trkpt>
<trkpt lat="45.9694340" lon="10.1835180">
	<ele>1812.80</ele>
	<time>2025-08-16T08:23:03.000Z</time>
</trkpt>
<trkpt lat="45.9694280" lon="10.1835100">
	<ele>1812.80</ele>
	<time>2025-08-16T08:23:04.000Z</time>
</trkpt>
<trkpt lat="45.9694250" lon="10.1835080">
	<ele>1812.80</ele>
	<time>2025-08-16T08:23:05.000Z</time>
</trkpt>
<trkpt lat="45.9694210" lon="10.1835050">
	<ele>1812.60</ele>
	<time>2025-08-16T08:23:06.000Z</time>
</trkpt>
<trkpt lat="45.9694140" lon="10.1835110">
	<ele>1812.60</ele>
	<time>2025-08-16T08:23:07.000Z</time>
</trkpt>
<trkpt lat="45.9694110" lon="10.1835070">
	<ele>1812.40</ele>
	<time>2025-08-16T08:23:08.000Z</time>
</trkpt>
<trkpt lat="45.9694070" lon="10.1835050">
	<ele>1812.20</ele>
	<time>2025-08-16T08:23:09.000Z</time>
</trkpt>
<trkpt lat="45.9694030" lon="10.1835070">
	<ele>1812.00</ele>
	<time>2025-08-16T08:23:10.000Z</time>
</trkpt>
<trkpt lat="45.9693960" lon="10.1835090">
	<ele>1811.80</ele>
	<time>2025-08-16T08:23:11.000Z</time>
</trkpt>
<trkpt lat="45.9693930" lon="10.1835080">
	<ele>1811.80</ele>
	<time>2025-08-16T08:23:12.000Z</time>
</trkpt>
<trkpt lat="45.9693890" lon="10.1835070">
	<ele>1811.60</ele>
	<time>2025-08-16T08:23:13.000Z</time>
</trkpt>
<trkpt lat="45.9693870" lon="10.1835030">
	<ele>1811.40</ele>
	<time>2025-08-16T08:23:14.000Z</time>
</trkpt>
<trkpt lat="45.9693860" lon="10.1835050">
	<ele>1811.40</ele>
	<time>2025-08-16T08:23:15.000Z</time>
</trkpt>
<trkpt lat="45.9693880" lon="10.1835110">
	<ele>1811.20</ele>
	<time>2025-08-16T08:23:16.000Z</time>
</trkpt>
<trkpt lat="45.9693820" lon="10.1835020">
	<ele>1811.00</ele>
	<time>2025-08-16T08:23:17.000Z</time>
</trkpt>
<trkpt lat="45.9693770" lon="10.1834940">
	<ele>1810.80</ele>
	<time>2025-08-16T08:23:18.000Z</time>
</trkpt>
<trkpt lat="45.9693720" lon="10.1834870">
	<ele>1810.60</ele>
	<time>2025-08-16T08:23:19.000Z</time>
</trkpt>
<trkpt lat="45.9693690" lon="10.1834810">
	<ele>1810.40</ele>
	<time>2025-08-16T08:23:20.000Z</time>
</trkpt>
<trkpt lat="45.9693630" lon="10.1834640">
	<ele>1810.20</ele>
	<time>2025-08-16T08:23:21.000Z</time>
</trkpt>
<trkpt lat="45.9693600" lon="10.1834570">
	<ele>1810.20</ele>
	<time>2025-08-16T08:23:22.000Z</time>
</trkpt>
<trkpt lat="45.9693630" lon="10.1834640">
	<ele>1810.00</ele>
	<time>2025-08-16T08:23:23.000Z</time>
</trkpt>
<trkpt lat="45.9693680" lon="10.1834830">
	<ele>1810.00</ele>
	<time>2025-08-16T08:23:24.000Z</time>
</trkpt>
<trkpt lat="45.9693690" lon="10.1834850">
	<ele>1810.00</ele>
	<time>2025-08-16T08:23:25.000Z</time>
</trkpt>
<trkpt lat="45.9693820" lon="10.1834760">
	<ele>1810.00</ele>
	<time>2025-08-16T08:23:26.000Z</time>
</trkpt>
<trkpt lat="45.9693800" lon="10.1834790">
	<ele>1810.20</ele>
	<time>2025-08-16T08:23:27.000Z</time>
</trkpt>
<trkpt lat="45.9693800" lon="10.1834740">
	<ele>1810.40</ele>
	<time>2025-08-16T08:23:28.000Z</time>
</trkpt>
<trkpt lat="45.9693750" lon="10.1834900">
	<ele>1810.60</ele>
	<time>2025-08-16T08:23:29.000Z</time>
</trkpt>
<trkpt lat="45.9693700" lon="10.1835020">
	<ele>1810.80</ele>
	<time>2025-08-16T08:23:30.000Z</time>
</trkpt>
<trkpt lat="45.9693600" lon="10.1835050">
	<ele>1811.00</ele>
	<time>2025-08-16T08:23:31.000Z</time>
</trkpt>
<trkpt lat="45.9693510" lon="10.1835050">
	<ele>1811.00</ele>
	<time>2025-08-16T08:23:32.000Z</time>
</trkpt>
<trkpt lat="45.9693520" lon="10.1835100">
	<ele>1810.80</ele>
	<time>2025-08-16T08:23:33.000Z</time>
</trkpt>
<trkpt lat="45.9693470" lon="10.1835070">
	<ele>1810.60</ele>
	<time>2025-08-16T08:23:34.000Z</time>
</trkpt>
<trkpt lat="45.9693440" lon="10.1835050">
	<ele>1810.40</ele>
	<time>2025-08-16T08:23:35.000Z</time>
</trkpt>
<trkpt lat="45.9693430" lon="10.1834930">
	<ele>1810.40</ele>
	<time>2025-08-16T08:23:36.000Z</time>
</trkpt>
<trkpt lat="45.9693420" lon="10.1834890">
	<ele>1810.40</ele>
	<time>2025-08-16T08:23:37.000Z</time>
</trkpt>
<trkpt lat="45.9693410" lon="10.1834890">
	<ele>1810.60</ele>
	<time>2025-08-16T08:23:38.000Z</time>
</trkpt>
<trkpt lat="45.9693420" lon="10.1834890">
	<ele>1810.60</ele>
	<time>2025-08-16T08:23:39.000Z</time>
</trkpt>
<trkpt lat="45.9693450" lon="10.1834920">
	<ele>1810.80</ele>
	<time>2025-08-16T08:23:40.000Z</time>
</trkpt>
<trkpt lat="45.9693480" lon="10.1834850">
	<ele>1810.80</ele>
	<time>2025-08-16T08:23:41.000Z</time>
</trkpt>
<trkpt lat="45.9693480" lon="10.1834870">
	<ele>1810.80</ele>
	<time>2025-08-16T08:23:42.000Z</time>
</trkpt>
<trkpt lat="45.9693480" lon="10.1834870">
	<ele>1810.80</ele>
	<time>2025-08-16T08:23:43.000Z</time>
</trkpt>
<trkpt lat="45.9693480" lon="10.1834870">
	<ele>1810.60</ele>
	<time>2025-08-16T08:23:44.000Z</time>
</trkpt>
<trkpt lat="45.9693480" lon="10.1834870">
	<ele>1810.60</ele>
	<time>2025-08-16T08:23:45.000Z</time>
</trkpt>
<trkpt lat="45.9693480" lon="10.1834870">
	<ele>1810.60</ele>
	<time>2025-08-16T08:23:46.000Z</time>
</trkpt>
<trkpt lat="45.9693480" lon="10.1834870">
	<ele>1810.20</ele>
	<time>2025-08-16T08:23:47.000Z</time>
</trkpt>
<trkpt lat="45.9693480" lon="10.1834870">
	<ele>1810.20</ele>
	<time>2025-08-16T08:23:48.000Z</time>
</trkpt>
<trkpt lat="45.9693480" lon="10.1834870">
	<ele>1810.00</ele>
	<time>2025-08-16T08:23:49.000Z</time>
</trkpt>
<trkpt lat="45.9693480" lon="10.1834870">
	<ele>1810.00</ele>
	<time>2025-08-16T08:23:50.000Z</time>
</trkpt>
<trkpt lat="45.9693480" lon="10.1834890">
	<ele>1810.00</ele>
	<time>2025-08-16T08:23:51.000Z</time>
</trkpt>
<trkpt lat="45.9693470" lon="10.1834890">
	<ele>1810.00</ele>
	<time>2025-08-16T08:23:52.000Z</time>
</trkpt>
<trkpt lat="45.9693460" lon="10.1834890">
	<ele>1810.00</ele>
	<time>2025-08-16T08:23:53.000Z</time>
</trkpt>
<trkpt lat="45.9693450" lon="10.1834890">
	<ele>1810.20</ele>
	<time>2025-08-16T08:23:54.000Z</time>
</trkpt>
<trkpt lat="45.9693450" lon="10.1834920">
	<ele>1810.20</ele>
	<time>2025-08-16T08:23:55.000Z</time>
</trkpt>
<trkpt lat="45.9693440" lon="10.1834930">
	<ele>1810.20</ele>
	<time>2025-08-16T08:23:56.000Z</time>
</trkpt>
<trkpt lat="45.9693430" lon="10.1834970">
	<ele>1810.40</ele>
	<time>2025-08-16T08:23:57.000Z</time>
</trkpt>
<trkpt lat="45.9693430" lon="10.1835040">
	<ele>1810.40</ele>
	<time>2025-08-16T08:23:58.000Z</time>
</trkpt>
<trkpt lat="45.9693430" lon="10.1835070">
	<ele>1810.40</ele>
	<time>2025-08-16T08:23:59.000Z</time>
</trkpt>
<trkpt lat="45.9693420" lon="10.1835090">
	<ele>1810.40</ele>
	<time>2025-08-16T08:24:00.000Z</time>
</trkpt>
<trkpt lat="45.9693410" lon="10.1835210">
	<ele>1810.40</ele>
	<time>2025-08-16T08:24:01.000Z</time>
</trkpt>
<trkpt lat="45.9693410" lon="10.1835220">
	<ele>1810.40</ele>
	<time>2025-08-16T08:24:02.000Z</time>
</trkpt>
<trkpt lat="45.9693410" lon="10.1835230">
	<ele>1810.40</ele>
	<time>2025-08-16T08:24:03.000Z</time>
</trkpt>
<trkpt lat="45.9693400" lon="10.1835230">
	<ele>1810.40</ele>
	<time>2025-08-16T08:24:04.000Z</time>
</trkpt>
<trkpt lat="45.9693400" lon="10.1835230">
	<ele>1810.60</ele>
	<time>2025-08-16T08:24:05.000Z</time>
</trkpt>
<trkpt lat="45.9693400" lon="10.1835230">
	<ele>1810.60</ele>
	<time>2025-08-16T08:24:06.000Z</time>
</trkpt>
<trkpt lat="45.9693390" lon="10.1835230">
	<ele>1810.60</ele>
	<time>2025-08-16T08:24:07.000Z</time>
</trkpt>
<trkpt lat="45.9693390" lon="10.1835230">
	<ele>1810.60</ele>
	<time>2025-08-16T08:24:08.000Z</time>
</trkpt>
<trkpt lat="45.9693380" lon="10.1835230">
	<ele>1810.60</ele>
	<time>2025-08-16T08:24:09.000Z</time>
</trkpt>
<trkpt lat="45.9693380" lon="10.1835230">
	<ele>1810.80</ele>
	<time>2025-08-16T08:24:10.000Z</time>
</trkpt>
<trkpt lat="45.9693370" lon="10.1835230">
	<ele>1810.80</ele>
	<time>2025-08-16T08:24:11.000Z</time>
</trkpt>
<trkpt lat="45.9693370" lon="10.1835230">
	<ele>1810.80</ele>
	<time>2025-08-16T08:24:12.000Z</time>
</trkpt>
<trkpt lat="45.9693370" lon="10.1835240">
	<ele>1810.80</ele>
	<time>2025-08-16T08:24:13.000Z</time>
</trkpt>
<trkpt lat="45.9693360" lon="10.1835240">
	<ele>1810.80</ele>
	<time>2025-08-16T08:24:14.000Z</time>
</trkpt>
<trkpt lat="45.9693360" lon="10.1835240">
	<ele>1810.80</ele>
	<time>2025-08-16T08:24:15.000Z</time>
</trkpt>
<trkpt lat="45.9693360" lon="10.1835240">
	<ele>1810.80</ele>
	<time>2025-08-16T08:24:16.000Z</time>
</trkpt>
<trkpt lat="45.9693360" lon="10.1835240">
	<ele>1810.80</ele>
	<time>2025-08-16T08:24:17.000Z</time>
</trkpt>
<trkpt lat="45.9693360" lon="10.1835230">
	<ele>1810.80</ele>
	<time>2025-08-16T08:24:18.000Z</time>
</trkpt>
<trkpt lat="45.9693360" lon="10.1835230">
	<ele>1810.80</ele>
	<time>2025-08-16T08:24:19.000Z</time>
</trkpt>
<trkpt lat="45.9693360" lon="10.1835230">
	<ele>1811.00</ele>
	<time>2025-08-16T08:24:20.000Z</time>
</trkpt>
<trkpt lat="45.9693360" lon="10.1835230">
	<ele>1811.00</ele>
	<time>2025-08-16T08:24:21.000Z</time>
</trkpt>
<trkpt lat="45.9693360" lon="10.1835230">
	<ele>1810.80</ele>
	<time>2025-08-16T08:24:22.000Z</time>
</trkpt>
<trkpt lat="45.9693360" lon="10.1835230">
	<ele>1810.80</ele>
	<time>2025-08-16T08:24:23.000Z</time>
</trkpt>
<trkpt lat="45.9693350" lon="10.1835220">
	<ele>1810.80</ele>
	<time>2025-08-16T08:24:24.000Z</time>
</trkpt>
<trkpt lat="45.9693350" lon="10.1835220">
	<ele>1810.60</ele>
	<time>2025-08-16T08:24:25.000Z</time>
</trkpt>
<trkpt lat="45.9693350" lon="10.1835220">
	<ele>1810.40</ele>
	<time>2025-08-16T08:24:26.000Z</time>
</trkpt>
<trkpt lat="45.9693330" lon="10.1835170">
	<ele>1810.20</ele>
	<time>2025-08-16T08:24:27.000Z</time>
</trkpt>
<trkpt lat="45.9693250" lon="10.1835040">
	<ele>1810.00</ele>
	<time>2025-08-16T08:24:28.000Z</time>
</trkpt>
<trkpt lat="45.9693180" lon="10.1834890">
	<ele>1809.60</ele>
	<time>2025-08-16T08:24:29.000Z</time>
</trkpt>
<trkpt lat="45.9693090" lon="10.1834750">
	<ele>1809.40</ele>
	<time>2025-08-16T08:24:30.000Z</time>
</trkpt>
<trkpt lat="45.9693050" lon="10.1834560">
	<ele>1809.20</ele>
	<time>2025-08-16T08:24:31.000Z</time>
</trkpt>
<trkpt lat="45.9693020" lon="10.1834350">
	<ele>1809.00</ele>
	<time>2025-08-16T08:24:32.000Z</time>
</trkpt>
<trkpt lat="45.9692950" lon="10.1834170">
	<ele>1808.80</ele>
	<time>2025-08-16T08:24:33.000Z</time>
</trkpt>
<trkpt lat="45.9692890" lon="10.1834020">
	<ele>1808.60</ele>
	<time>2025-08-16T08:24:34.000Z</time>
</trkpt>
<trkpt lat="45.9692860" lon="10.1833880">
	<ele>1808.60</ele>
	<time>2025-08-16T08:24:35.000Z</time>
</trkpt>
<trkpt lat="45.9692850" lon="10.1833710">
	<ele>1808.40</ele>
	<time>2025-08-16T08:24:36.000Z</time>
</trkpt>
<trkpt lat="45.9692840" lon="10.1833570">
	<ele>1808.20</ele>
	<time>2025-08-16T08:24:37.000Z</time>
</trkpt>
<trkpt lat="45.9692820" lon="10.1833440">
	<ele>1808.00</ele>
	<time>2025-08-16T08:24:38.000Z</time>
</trkpt>
<trkpt lat="45.9692770" lon="10.1833210">
	<ele>1807.80</ele>
	<time>2025-08-16T08:24:39.000Z</time>
</trkpt>
<trkpt lat="45.9692810" lon="10.1832980">
	<ele>1807.60</ele>
	<time>2025-08-16T08:24:40.000Z</time>
</trkpt>
<trkpt lat="45.9692790" lon="10.1832760">
	<ele>1807.40</ele>
	<time>2025-08-16T08:24:41.000Z</time>
</trkpt>
<trkpt lat="45.9692790" lon="10.1832560">
	<ele>1807.20</ele>
	<time>2025-08-16T08:24:42.000Z</time>
</trkpt>
<trkpt lat="45.9692740" lon="10.1832410">
	<ele>1807.20</ele>
	<time>2025-08-16T08:24:43.000Z</time>
</trkpt>
<trkpt lat="45.9692720" lon="10.1832290">
	<ele>1807.00</ele>
	<time>2025-08-16T08:24:44.000Z</time>
</trkpt>
<trkpt lat="45.9692650" lon="10.1832160">
	<ele>1806.80</ele>
	<time>2025-08-16T08:24:45.000Z</time>
</trkpt>
<trkpt lat="45.9692510" lon="10.1832030">
	<ele>1806.60</ele>
	<time>2025-08-16T08:24:46.000Z</time>
</trkpt>
<trkpt lat="45.9692440" lon="10.1831970">
	<ele>1806.40</ele>
	<time>2025-08-16T08:24:47.000Z</time>
</trkpt>
<trkpt lat="45.9692400" lon="10.1831930">
	<ele>1806.20</ele>
	<time>2025-08-16T08:24:48.000Z</time>
</trkpt>
<trkpt lat="45.9692360" lon="10.1831850">
	<ele>1806.00</ele>
	<time>2025-08-16T08:24:49.000Z</time>
</trkpt>
<trkpt lat="45.9692300" lon="10.1831800">
	<ele>1805.60</ele>
	<time>2025-08-16T08:24:50.000Z</time>
</trkpt>
<trkpt lat="45.9692230" lon="10.1831770">
	<ele>1805.40</ele>
	<time>2025-08-16T08:24:51.000Z</time>
</trkpt>
<trkpt lat="45.9692170" lon="10.1831730">
	<ele>1805.00</ele>
	<time>2025-08-16T08:24:52.000Z</time>
</trkpt>
<trkpt lat="45.9692070" lon="10.1831700">
	<ele>1804.60</ele>
	<time>2025-08-16T08:24:53.000Z</time>
</trkpt>
<trkpt lat="45.9692000" lon="10.1831640">
	<ele>1804.40</ele>
	<time>2025-08-16T08:24:54.000Z</time>
</trkpt>
<trkpt lat="45.9691940" lon="10.1831570">
	<ele>1804.20</ele>
	<time>2025-08-16T08:24:55.000Z</time>
</trkpt>
<trkpt lat="45.9691920" lon="10.1831410">
	<ele>1804.00</ele>
	<time>2025-08-16T08:24:56.000Z</time>
</trkpt>
<trkpt lat="45.9691940" lon="10.1831260">
	<ele>1803.80</ele>
	<time>2025-08-16T08:24:57.000Z</time>
</trkpt>
<trkpt lat="45.9691900" lon="10.1831190">
	<ele>1803.40</ele>
	<time>2025-08-16T08:24:58.000Z</time>
</trkpt>
<trkpt lat="45.9691880" lon="10.1831120">
	<ele>1803.00</ele>
	<time>2025-08-16T08:24:59.000Z</time>
</trkpt>
<trkpt lat="45.9691810" lon="10.1831060">
	<ele>1802.80</ele>
	<time>2025-08-16T08:25:00.000Z</time>
</trkpt>
<trkpt lat="45.9691730" lon="10.1831030">
	<ele>1802.60</ele>
	<time>2025-08-16T08:25:01.000Z</time>
</trkpt>
<trkpt lat="45.9691680" lon="10.1831000">
	<ele>1802.40</ele>
	<time>2025-08-16T08:25:02.000Z</time>
</trkpt>
<trkpt lat="45.9691610" lon="10.1830930">
	<ele>1802.20</ele>
	<time>2025-08-16T08:25:03.000Z</time>
</trkpt>
<trkpt lat="45.9691540" lon="10.1830840">
	<ele>1802.00</ele>
	<time>2025-08-16T08:25:04.000Z</time>
</trkpt>
<trkpt lat="45.9691460" lon="10.1830750">
	<ele>1801.80</ele>
	<time>2025-08-16T08:25:05.000Z</time>
</trkpt>
<trkpt lat="45.9691320" lon="10.1830760">
	<ele>1801.40</ele>
	<time>2025-08-16T08:25:06.000Z</time>
</trkpt>
<trkpt lat="45.9691200" lon="10.1830710">
	<ele>1801.00</ele>
	<time>2025-08-16T08:25:07.000Z</time>
</trkpt>
<trkpt lat="45.9691140" lon="10.1830600">
	<ele>1800.60</ele>
	<time>2025-08-16T08:25:08.000Z</time>
</trkpt>
<trkpt lat="45.9691120" lon="10.1830540">
	<ele>1800.20</ele>
	<time>2025-08-16T08:25:09.000Z</time>
</trkpt>
<trkpt lat="45.9691050" lon="10.1830590">
	<ele>1799.80</ele>
	<time>2025-08-16T08:25:10.000Z</time>
</trkpt>
<trkpt lat="45.9690940" lon="10.1830590">
	<ele>1799.40</ele>
	<time>2025-08-16T08:25:11.000Z</time>
</trkpt>
<trkpt lat="45.9690830" lon="10.1830550">
	<ele>1799.20</ele>
	<time>2025-08-16T08:25:12.000Z</time>
</trkpt>
<trkpt lat="45.9690790" lon="10.1830520">
	<ele>1799.00</ele>
	<time>2025-08-16T08:25:13.000Z</time>
</trkpt>
<trkpt lat="45.9690700" lon="10.1830430">
	<ele>1798.80</ele>
	<time>2025-08-16T08:25:14.000Z</time>
</trkpt>
<trkpt lat="45.9690620" lon="10.1830400">
	<ele>1798.60</ele>
	<time>2025-08-16T08:25:15.000Z</time>
</trkpt>
<trkpt lat="45.9690550" lon="10.1830340">
	<ele>1798.40</ele>
	<time>2025-08-16T08:25:16.000Z</time>
</trkpt>
<trkpt lat="45.9690500" lon="10.1830260">
	<ele>1798.00</ele>
	<time>2025-08-16T08:25:17.000Z</time>
</trkpt>
<trkpt lat="45.9690450" lon="10.1830130">
	<ele>1797.60</ele>
	<time>2025-08-16T08:25:18.000Z</time>
</trkpt>
<trkpt lat="45.9690430" lon="10.1829980">
	<ele>1797.00</ele>
	<time>2025-08-16T08:25:19.000Z</time>
</trkpt>
<trkpt lat="45.9690410" lon="10.1829830">
	<ele>1796.60</ele>
	<time>2025-08-16T08:25:20.000Z</time>
</trkpt>
<trkpt lat="45.9690390" lon="10.1829710">
	<ele>1796.20</ele>
	<time>2025-08-16T08:25:21.000Z</time>
</trkpt>
<trkpt lat="45.9690350" lon="10.1829560">
	<ele>1796.00</ele>
	<time>2025-08-16T08:25:22.000Z</time>
</trkpt>
<trkpt lat="45.9690350" lon="10.1829370">
	<ele>1795.80</ele>
	<time>2025-08-16T08:25:23.000Z</time>
</trkpt>
<trkpt lat="45.9690340" lon="10.1829210">
	<ele>1795.60</ele>
	<time>2025-08-16T08:25:24.000Z</time>
</trkpt>
<trkpt lat="45.9690320" lon="10.1829070">
	<ele>1795.60</ele>
	<time>2025-08-16T08:25:25.000Z</time>
</trkpt>
<trkpt lat="45.9690300" lon="10.1828970">
	<ele>1795.40</ele>
	<time>2025-08-16T08:25:26.000Z</time>
</trkpt>
<trkpt lat="45.9690300" lon="10.1828900">
	<ele>1795.40</ele>
	<time>2025-08-16T08:25:27.000Z</time>
</trkpt>
<trkpt lat="45.9690300" lon="10.1828900">
	<ele>1795.40</ele>
	<time>2025-08-16T08:25:28.000Z</time>
</trkpt>
<trkpt lat="45.9690310" lon="10.1828910">
	<ele>1795.40</ele>
	<time>2025-08-16T08:25:29.000Z</time>
</trkpt>
<trkpt lat="45.9690360" lon="10.1828920">
	<ele>1795.60</ele>
	<time>2025-08-16T08:25:30.000Z</time>
</trkpt>
<trkpt lat="45.9690390" lon="10.1828890">
	<ele>1795.60</ele>
	<time>2025-08-16T08:25:31.000Z</time>
</trkpt>
<trkpt lat="45.9690380" lon="10.1828940">
	<ele>1795.60</ele>
	<time>2025-08-16T08:25:32.000Z</time>
</trkpt>
<trkpt lat="45.9690330" lon="10.1828890">
	<ele>1795.60</ele>
	<time>2025-08-16T08:25:33.000Z</time>
</trkpt>
<trkpt lat="45.9690280" lon="10.1828770">
	<ele>1795.40</ele>
	<time>2025-08-16T08:25:34.000Z</time>
</trkpt>
<trkpt lat="45.9690270" lon="10.1828600">
	<ele>1795.40</ele>
	<time>2025-08-16T08:25:35.000Z</time>
</trkpt>
<trkpt lat="45.9690200" lon="10.1828440">
	<ele>1795.40</ele>
	<time>2025-08-16T08:25:36.000Z</time>
</trkpt>
<trkpt lat="45.9690170" lon="10.1828280">
	<ele>1795.20</ele>
	<time>2025-08-16T08:25:37.000Z</time>
</trkpt>
<trkpt lat="45.9690130" lon="10.1828150">
	<ele>1795.20</ele>
	<time>2025-08-16T08:25:38.000Z</time>
</trkpt>
<trkpt lat="45.9690090" lon="10.1827940">
	<ele>1795.20</ele>
	<time>2025-08-16T08:25:39.000Z</time>
</trkpt>
<trkpt lat="45.9690090" lon="10.1827750">
	<ele>1795.40</ele>
	<time>2025-08-16T08:25:40.000Z</time>
</trkpt>
<trkpt lat="45.9690150" lon="10.1827550">
	<ele>1795.40</ele>
	<time>2025-08-16T08:25:41.000Z</time>
</trkpt>
<trkpt lat="45.9690160" lon="10.1827390">
	<ele>1795.40</ele>
	<time>2025-08-16T08:25:42.000Z</time>
</trkpt>
<trkpt lat="45.9690190" lon="10.1827190">
	<ele>1795.60</ele>
	<time>2025-08-16T08:25:43.000Z</time>
</trkpt>
<trkpt lat="45.9690220" lon="10.1827050">
	<ele>1795.80</ele>
	<time>2025-08-16T08:25:44.000Z</time>
</trkpt>
<trkpt lat="45.9690290" lon="10.1826930">
	<ele>1796.00</ele>
	<time>2025-08-16T08:25:45.000Z</time>
</trkpt>
<trkpt lat="45.9690210" lon="10.1826760">
	<ele>1796.00</ele>
	<time>2025-08-16T08:25:46.000Z</time>
</trkpt>
<trkpt lat="45.9690200" lon="10.1826580">
	<ele>1796.20</ele>
	<time>2025-08-16T08:25:47.000Z</time>
</trkpt>
<trkpt lat="45.9690160" lon="10.1826430">
	<ele>1796.40</ele>
	<time>2025-08-16T08:25:48.000Z</time>
</trkpt>
<trkpt lat="45.9690120" lon="10.1826260">
	<ele>1796.40</ele>
	<time>2025-08-16T08:25:49.000Z</time>
</trkpt>
<trkpt lat="45.9690060" lon="10.1826080">
	<ele>1796.40</ele>
	<time>2025-08-16T08:25:50.000Z</time>
</trkpt>
<trkpt lat="45.9690020" lon="10.1825970">
	<ele>1796.60</ele>
	<time>2025-08-16T08:25:51.000Z</time>
</trkpt>
<trkpt lat="45.9689960" lon="10.1825820">
	<ele>1796.60</ele>
	<time>2025-08-16T08:25:52.000Z</time>
</trkpt>
<trkpt lat="45.9689910" lon="10.1825680">
	<ele>1796.60</ele>
	<time>2025-08-16T08:25:53.000Z</time>
</trkpt>
<trkpt lat="45.9689870" lon="10.1825540">
	<ele>1796.80</ele>
	<time>2025-08-16T08:25:54.000Z</time>
</trkpt>
<trkpt lat="45.9689800" lon="10.1825440">
	<ele>1796.80</ele>
	<time>2025-08-16T08:25:55.000Z</time>
</trkpt>
<trkpt lat="45.9689700" lon="10.1825370">
	<ele>1796.80</ele>
	<time>2025-08-16T08:25:56.000Z</time>
</trkpt>
<trkpt lat="45.9689620" lon="10.1825250">
	<ele>1796.80</ele>
	<time>2025-08-16T08:25:57.000Z</time>
</trkpt>
<trkpt lat="45.9689500" lon="10.1825130">
	<ele>1796.80</ele>
	<time>2025-08-16T08:25:58.000Z</time>
</trkpt>
<trkpt lat="45.9689450" lon="10.1824930">
	<ele>1796.80</ele>
	<time>2025-08-16T08:25:59.000Z</time>
</trkpt>
<trkpt lat="45.9689410" lon="10.1824740">
	<ele>1796.80</ele>
	<time>2025-08-16T08:26:00.000Z</time>
</trkpt>
<trkpt lat="45.9689360" lon="10.1824540">
	<ele>1796.80</ele>
	<time>2025-08-16T08:26:01.000Z</time>
</trkpt>
<trkpt lat="45.9689320" lon="10.1824380">
	<ele>1796.80</ele>
	<time>2025-08-16T08:26:02.000Z</time>
</trkpt>
<trkpt lat="45.9689280" lon="10.1824210">
	<ele>1796.80</ele>
	<time>2025-08-16T08:26:03.000Z</time>
</trkpt>
<trkpt lat="45.9689220" lon="10.1824070">
	<ele>1796.80</ele>
	<time>2025-08-16T08:26:04.000Z</time>
</trkpt>
<trkpt lat="45.9689180" lon="10.1823940">
	<ele>1796.80</ele>
	<time>2025-08-16T08:26:05.000Z</time>
</trkpt>
<trkpt lat="45.9689140" lon="10.1823780">
	<ele>1796.80</ele>
	<time>2025-08-16T08:26:06.000Z</time>
</trkpt>
<trkpt lat="45.9689120" lon="10.1823630">
	<ele>1796.60</ele>
	<time>2025-08-16T08:26:07.000Z</time>
</trkpt>
<trkpt lat="45.9689100" lon="10.1823480">
	<ele>1796.80</ele>
	<time>2025-08-16T08:26:08.000Z</time>
</trkpt>
<trkpt lat="45.9689070" lon="10.1823350">
	<ele>1796.80</ele>
	<time>2025-08-16T08:26:09.000Z</time>
</trkpt>
<trkpt lat="45.9689040" lon="10.1823210">
	<ele>1796.80</ele>
	<time>2025-08-16T08:26:10.000Z</time>
</trkpt>
<trkpt lat="45.9689010" lon="10.1823070">
	<ele>1796.80</ele>
	<time>2025-08-16T08:26:11.000Z</time>
</trkpt>
<trkpt lat="45.9688960" lon="10.1822880">
	<ele>1796.80</ele>
	<time>2025-08-16T08:26:12.000Z</time>
</trkpt>
<trkpt lat="45.9688890" lon="10.1822720">
	<ele>1797.00</ele>
	<time>2025-08-16T08:26:13.000Z</time>
</trkpt>
<trkpt lat="45.9688820" lon="10.1822560">
	<ele>1797.00</ele>
	<time>2025-08-16T08:26:14.000Z</time>
</trkpt>
<trkpt lat="45.9688700" lon="10.1822380">
	<ele>1797.20</ele>
	<time>2025-08-16T08:26:15.000Z</time>
</trkpt>
<trkpt lat="45.9688610" lon="10.1822260">
	<ele>1797.20</ele>
	<time>2025-08-16T08:26:16.000Z</time>
</trkpt>
<trkpt lat="45.9688540" lon="10.1822170">
	<ele>1797.40</ele>
	<time>2025-08-16T08:26:17.000Z</time>
</trkpt>
<trkpt lat="45.9688450" lon="10.1822100">
	<ele>1797.40</ele>
	<time>2025-08-16T08:26:18.000Z</time>
</trkpt>
<trkpt lat="45.9688380" lon="10.1821950">
	<ele>1797.40</ele>
	<time>2025-08-16T08:26:19.000Z</time>
</trkpt>
<trkpt lat="45.9688310" lon="10.1821770">
	<ele>1797.40</ele>
	<time>2025-08-16T08:26:20.000Z</time>
</trkpt>
<trkpt lat="45.9688220" lon="10.1821580">
	<ele>1797.40</ele>
	<time>2025-08-16T08:26:21.000Z</time>
</trkpt>
<trkpt lat="45.9688110" lon="10.1821410">
	<ele>1797.20</ele>
	<time>2025-08-16T08:26:22.000Z</time>
</trkpt>
<trkpt lat="45.9688000" lon="10.1821270">
	<ele>1797.20</ele>
	<time>2025-08-16T08:26:23.000Z</time>
</trkpt>
<trkpt lat="45.9687890" lon="10.1821150">
	<ele>1797.00</ele>
	<time>2025-08-16T08:26:24.000Z</time>
</trkpt>
<trkpt lat="45.9687760" lon="10.1821080">
	<ele>1797.00</ele>
	<time>2025-08-16T08:26:25.000Z</time>
</trkpt>
<trkpt lat="45.9687680" lon="10.1820950">
	<ele>1797.00</ele>
	<time>2025-08-16T08:26:26.000Z</time>
</trkpt>
<trkpt lat="45.9687580" lon="10.1820860">
	<ele>1797.00</ele>
	<time>2025-08-16T08:26:27.000Z</time>
</trkpt>
<trkpt lat="45.9687490" lon="10.1820760">
	<ele>1796.80</ele>
	<time>2025-08-16T08:26:28.000Z</time>
</trkpt>
<trkpt lat="45.9687430" lon="10.1820580">
	<ele>1796.80</ele>
	<time>2025-08-16T08:26:29.000Z</time>
</trkpt>
<trkpt lat="45.9687360" lon="10.1820430">
	<ele>1796.80</ele>
	<time>2025-08-16T08:26:30.000Z</time>
</trkpt>
<trkpt lat="45.9687260" lon="10.1820320">
	<ele>1796.80</ele>
	<time>2025-08-16T08:26:31.000Z</time>
</trkpt>
<trkpt lat="45.9687170" lon="10.1820200">
	<ele>1796.80</ele>
	<time>2025-08-16T08:26:32.000Z</time>
</trkpt>
<trkpt lat="45.9687060" lon="10.1820110">
	<ele>1796.80</ele>
	<time>2025-08-16T08:26:33.000Z</time>
</trkpt>
<trkpt lat="45.9686950" lon="10.1819980">
	<ele>1796.80</ele>
	<time>2025-08-16T08:26:34.000Z</time>
</trkpt>
<trkpt lat="45.9686860" lon="10.1819880">
	<ele>1796.80</ele>
	<time>2025-08-16T08:26:35.000Z</time>
</trkpt>
<trkpt lat="45.9686790" lon="10.1819760">
	<ele>1796.80</ele>
	<time>2025-08-16T08:26:36.000Z</time>
</trkpt>
<trkpt lat="45.9686730" lon="10.1819600">
	<ele>1797.00</ele>
	<time>2025-08-16T08:26:37.000Z</time>
</trkpt>
<trkpt lat="45.9686680" lon="10.1819440">
	<ele>1797.20</ele>
	<time>2025-08-16T08:26:38.000Z</time>
</trkpt>
<trkpt lat="45.9686650" lon="10.1819320">
	<ele>1797.20</ele>
	<time>2025-08-16T08:26:39.000Z</time>
</trkpt>
<trkpt lat="45.9686580" lon="10.1819190">
	<ele>1797.40</ele>
	<time>2025-08-16T08:26:40.000Z</time>
</trkpt>
<trkpt lat="45.9686480" lon="10.1819140">
	<ele>1797.40</ele>
	<time>2025-08-16T08:26:41.000Z</time>
</trkpt>
<trkpt lat="45.9686420" lon="10.1819020">
	<ele>1797.60</ele>
	<time>2025-08-16T08:26:42.000Z</time>
</trkpt>
<trkpt lat="45.9686340" lon="10.1818910">
	<ele>1797.80</ele>
	<time>2025-08-16T08:26:43.000Z</time>
</trkpt>
<trkpt lat="45.9686260" lon="10.1818850">
	<ele>1797.80</ele>
	<time>2025-08-16T08:26:44.000Z</time>
</trkpt>
<trkpt lat="45.9686210" lon="10.1818690">
	<ele>1798.00</ele>
	<time>2025-08-16T08:26:45.000Z</time>
</trkpt>
<trkpt lat="45.9686150" lon="10.1818570">
	<ele>1798.00</ele>
	<time>2025-08-16T08:26:46.000Z</time>
</trkpt>
<trkpt lat="45.9686100" lon="10.1818460">
	<ele>1798.00</ele>
	<time>2025-08-16T08:26:47.000Z</time>
</trkpt>
<trkpt lat="45.9686080" lon="10.1818310">
	<ele>1798.00</ele>
	<time>2025-08-16T08:26:48.000Z</time>
</trkpt>
<trkpt lat="45.9686070" lon="10.1818120">
	<ele>1797.80</ele>
	<time>2025-08-16T08:26:49.000Z</time>
</trkpt>
<trkpt lat="45.9686010" lon="10.1818000">
	<ele>1797.60</ele>
	<time>2025-08-16T08:26:50.000Z</time>
</trkpt>
<trkpt lat="45.9685950" lon="10.1817860">
	<ele>1797.60</ele>
	<time>2025-08-16T08:26:51.000Z</time>
</trkpt>
<trkpt lat="45.9685920" lon="10.1817700">
	<ele>1797.60</ele>
	<time>2025-08-16T08:26:52.000Z</time>
</trkpt>
<trkpt lat="45.9685890" lon="10.1817520">
	<ele>1797.40</ele>
	<time>2025-08-16T08:26:53.000Z</time>
</trkpt>
<trkpt lat="45.9685880" lon="10.1817360">
	<ele>1797.40</ele>
	<time>2025-08-16T08:26:54.000Z</time>
</trkpt>
<trkpt lat="45.9685860" lon="10.1817260">
	<ele>1797.20</ele>
	<time>2025-08-16T08:26:55.000Z</time>
</trkpt>
<trkpt lat="45.9685810" lon="10.1817060">
	<ele>1797.20</ele>
	<time>2025-08-16T08:26:56.000Z</time>
</trkpt>
<trkpt lat="45.9685760" lon="10.1816920">
	<ele>1797.20</ele>
	<time>2025-08-16T08:26:57.000Z</time>
</trkpt>
<trkpt lat="45.9685690" lon="10.1816780">
	<ele>1797.60</ele>
	<time>2025-08-16T08:26:58.000Z</time>
</trkpt>
<trkpt lat="45.9685630" lon="10.1816640">
	<ele>1797.60</ele>
	<time>2025-08-16T08:26:59.000Z</time>
</trkpt>
<trkpt lat="45.9685550" lon="10.1816510">
	<ele>1797.60</ele>
	<time>2025-08-16T08:27:00.000Z</time>
</trkpt>
<trkpt lat="45.9685490" lon="10.1816440">
	<ele>1797.60</ele>
	<time>2025-08-16T08:27:01.000Z</time>
</trkpt>
<trkpt lat="45.9685430" lon="10.1816390">
	<ele>1797.80</ele>
	<time>2025-08-16T08:27:02.000Z</time>
</trkpt>
<trkpt lat="45.9685370" lon="10.1816300">
	<ele>1797.60</ele>
	<time>2025-08-16T08:27:03.000Z</time>
</trkpt>
<trkpt lat="45.9685320" lon="10.1816180">
	<ele>1797.60</ele>
	<time>2025-08-16T08:27:04.000Z</time>
</trkpt>
<trkpt lat="45.9685230" lon="10.1816090">
	<ele>1797.40</ele>
	<time>2025-08-16T08:27:05.000Z</time>
</trkpt>
<trkpt lat="45.9685140" lon="10.1815970">
	<ele>1797.40</ele>
	<time>2025-08-16T08:27:06.000Z</time>
</trkpt>
<trkpt lat="45.9685050" lon="10.1815830">
	<ele>1797.20</ele>
	<time>2025-08-16T08:27:07.000Z</time>
</trkpt>
<trkpt lat="45.9684940" lon="10.1815800">
	<ele>1797.20</ele>
	<time>2025-08-16T08:27:08.000Z</time>
</trkpt>
<trkpt lat="45.9684840" lon="10.1815760">
	<ele>1797.00</ele>
	<time>2025-08-16T08:27:09.000Z</time>
</trkpt>
<trkpt lat="45.9684760" lon="10.1815710">
	<ele>1796.80</ele>
	<time>2025-08-16T08:27:10.000Z</time>
</trkpt>
<trkpt lat="45.9684660" lon="10.1815640">
	<ele>1796.60</ele>
	<time>2025-08-16T08:27:11.000Z</time>
</trkpt>
<trkpt lat="45.9684520" lon="10.1815600">
	<ele>1796.40</ele>
	<time>2025-08-16T08:27:12.000Z</time>
</trkpt>
<trkpt lat="45.9684410" lon="10.1815520">
	<ele>1796.20</ele>
	<time>2025-08-16T08:27:13.000Z</time>
</trkpt>
<trkpt lat="45.9684320" lon="10.1815440">
	<ele>1796.00</ele>
	<time>2025-08-16T08:27:14.000Z</time>
</trkpt>
<trkpt lat="45.9684230" lon="10.1815360">
	<ele>1795.60</ele>
	<time>2025-08-16T08:27:15.000Z</time>
</trkpt>
<trkpt lat="45.9684150" lon="10.1815230">
	<ele>1795.60</ele>
	<time>2025-08-16T08:27:16.000Z</time>
</trkpt>
<trkpt lat="45.9684030" lon="10.1815110">
	<ele>1795.40</ele>
	<time>2025-08-16T08:27:17.000Z</time>
</trkpt>
<trkpt lat="45.9683900" lon="10.1815010">
	<ele>1795.40</ele>
	<time>2025-08-16T08:27:18.000Z</time>
</trkpt>
<trkpt lat="45.9683790" lon="10.1814940">
	<ele>1795.20</ele>
	<time>2025-08-16T08:27:19.000Z</time>
</trkpt>
<trkpt lat="45.9683710" lon="10.1814880">
	<ele>1795.20</ele>
	<time>2025-08-16T08:27:20.000Z</time>
</trkpt>
<trkpt lat="45.9683690" lon="10.1814830">
	<ele>1795.20</ele>
	<time>2025-08-16T08:27:21.000Z</time>
</trkpt>
<trkpt lat="45.9683650" lon="10.1814790">
	<ele>1795.20</ele>
	<time>2025-08-16T08:27:22.000Z</time>
</trkpt>
<trkpt lat="45.9683640" lon="10.1814750">
	<ele>1795.20</ele>
	<time>2025-08-16T08:27:23.000Z</time>
</trkpt>
<trkpt lat="45.9683630" lon="10.1814750">
	<ele>1795.20</ele>
	<time>2025-08-16T08:27:24.000Z</time>
</trkpt>
<trkpt lat="45.9683620" lon="10.1814740">
	<ele>1795.20</ele>
	<time>2025-08-16T08:27:25.000Z</time>
</trkpt>
<trkpt lat="45.9683600" lon="10.1814730">
	<ele>1795.20</ele>
	<time>2025-08-16T08:27:26.000Z</time>
</trkpt>
<trkpt lat="45.9683610" lon="10.1814740">
	<ele>1795.20</ele>
	<time>2025-08-16T08:27:27.000Z</time>
</trkpt>
<trkpt lat="45.9683610" lon="10.1814750">
	<ele>1795.20</ele>
	<time>2025-08-16T08:27:28.000Z</time>
</trkpt>
<trkpt lat="45.9683610" lon="10.1814760">
	<ele>1795.40</ele>
	<time>2025-08-16T08:27:29.000Z</time>
</trkpt>
<trkpt lat="45.9683610" lon="10.1814720">
	<ele>1795.40</ele>
	<time>2025-08-16T08:27:30.000Z</time>
</trkpt>
<trkpt lat="45.9683620" lon="10.1814710">
	<ele>1795.40</ele>
	<time>2025-08-16T08:27:31.000Z</time>
</trkpt>
<trkpt lat="45.9683640" lon="10.1814680">
	<ele>1795.40</ele>
	<time>2025-08-16T08:27:32.000Z</time>
</trkpt>
<trkpt lat="45.9683670" lon="10.1814620">
	<ele>1795.60</ele>
	<time>2025-08-16T08:27:33.000Z</time>
</trkpt>
<trkpt lat="45.9683680" lon="10.1814610">
	<ele>1795.60</ele>
	<time>2025-08-16T08:27:34.000Z</time>
</trkpt>
<trkpt lat="45.9683680" lon="10.1814610">
	<ele>1795.60</ele>
	<time>2025-08-16T08:27:35.000Z</time>
</trkpt>
<trkpt lat="45.9683690" lon="10.1814610">
	<ele>1795.60</ele>
	<time>2025-08-16T08:27:36.000Z</time>
</trkpt>
<trkpt lat="45.9683710" lon="10.1814630">
	<ele>1795.60</ele>
	<time>2025-08-16T08:27:37.000Z</time>
</trkpt>
<trkpt lat="45.9683720" lon="10.1814660">
	<ele>1795.40</ele>
	<time>2025-08-16T08:27:38.000Z</time>
</trkpt>
<trkpt lat="45.9683710" lon="10.1814690">
	<ele>1795.40</ele>
	<time>2025-08-16T08:27:39.000Z</time>
</trkpt>
<trkpt lat="45.9683720" lon="10.1814690">
	<ele>1795.20</ele>
	<time>2025-08-16T08:27:40.000Z</time>
</trkpt>
<trkpt lat="45.9683740" lon="10.1814700">
	<ele>1795.20</ele>
	<time>2025-08-16T08:27:41.000Z</time>
</trkpt>
<trkpt lat="45.9683730" lon="10.1814710">
	<ele>1795.20</ele>
	<time>2025-08-16T08:27:42.000Z</time>
</trkpt>
<trkpt lat="45.9683710" lon="10.1814700">
	<ele>1795.20</ele>
	<time>2025-08-16T08:27:43.000Z</time>
</trkpt>
<trkpt lat="45.9683740" lon="10.1814720">
	<ele>1795.20</ele>
	<time>2025-08-16T08:27:44.000Z</time>
</trkpt>
<trkpt lat="45.9683760" lon="10.1814730">
	<ele>1795.20</ele>
	<time>2025-08-16T08:27:45.000Z</time>
</trkpt>
<trkpt lat="45.9683780" lon="10.1814740">
	<ele>1795.20</ele>
	<time>2025-08-16T08:27:46.000Z</time>
</trkpt>
<trkpt lat="45.9683770" lon="10.1814770">
	<ele>1795.20</ele>
	<time>2025-08-16T08:27:47.000Z</time>
</trkpt>
<trkpt lat="45.9683770" lon="10.1814770">
	<ele>1795.20</ele>
	<time>2025-08-16T08:27:48.000Z</time>
</trkpt>
<trkpt lat="45.9683770" lon="10.1814770">
	<ele>1795.20</ele>
	<time>2025-08-16T08:27:49.000Z</time>
</trkpt>
<trkpt lat="45.9683770" lon="10.1814770">
	<ele>1795.20</ele>
	<time>2025-08-16T08:27:50.000Z</time>
</trkpt>
<trkpt lat="45.9683770" lon="10.1814770">
	<ele>1795.20</ele>
	<time>2025-08-16T08:27:51.000Z</time>
</trkpt>
<trkpt lat="45.9683770" lon="10.1814770">
	<ele>1795.20</ele>
	<time>2025-08-16T08:27:52.000Z</time>
</trkpt>
<trkpt lat="45.9683770" lon="10.1814770">
	<ele>1795.20</ele>
	<time>2025-08-16T08:27:53.000Z</time>
</trkpt>
<trkpt lat="45.9683770" lon="10.1814770">
	<ele>1795.20</ele>
	<time>2025-08-16T08:27:54.000Z</time>
</trkpt>
<trkpt lat="45.9683770" lon="10.1814770">
	<ele>1795.20</ele>
	<time>2025-08-16T08:27:55.000Z</time>
</trkpt>
<trkpt lat="45.9683770" lon="10.1814770">
	<ele>1795.20</ele>
	<time>2025-08-16T08:27:56.000Z</time>
</trkpt>
<trkpt lat="45.9683770" lon="10.1814770">
	<ele>1795.20</ele>
	<time>2025-08-16T08:27:57.000Z</time>
</trkpt>
<trkpt lat="45.9683770" lon="10.1814770">
	<ele>1795.20</ele>
	<time>2025-08-16T08:27:58.000Z</time>
</trkpt>
<trkpt lat="45.9683740" lon="10.1814740">
	<ele>1795.20</ele>
	<time>2025-08-16T08:27:59.000Z</time>
</trkpt>
<trkpt lat="45.9683620" lon="10.1814640">
	<ele>1795.20</ele>
	<time>2025-08-16T08:28:00.000Z</time>
</trkpt>
<trkpt lat="45.9683470" lon="10.1814550">
	<ele>1795.20</ele>
	<time>2025-08-16T08:28:01.000Z</time>
</trkpt>
<trkpt lat="45.9683320" lon="10.1814400">
	<ele>1795.20</ele>
	<time>2025-08-16T08:28:02.000Z</time>
</trkpt>
<trkpt lat="45.9683210" lon="10.1814250">
	<ele>1795.20</ele>
	<time>2025-08-16T08:28:03.000Z</time>
</trkpt>
<trkpt lat="45.9683140" lon="10.1814080">
	<ele>1795.20</ele>
	<time>2025-08-16T08:28:04.000Z</time>
</trkpt>
<trkpt lat="45.9683030" lon="10.1813970">
	<ele>1795.20</ele>
	<time>2025-08-16T08:28:05.000Z</time>
</trkpt>
<trkpt lat="45.9682950" lon="10.1813790">
	<ele>1795.20</ele>
	<time>2025-08-16T08:28:06.000Z</time>
</trkpt>
<trkpt lat="45.9682820" lon="10.1813610">
	<ele>1795.20</ele>
	<time>2025-08-16T08:28:07.000Z</time>
</trkpt>
<trkpt lat="45.9682670" lon="10.1813470">
	<ele>1795.20</ele>
	<time>2025-08-16T08:28:08.000Z</time>
</trkpt>
<trkpt lat="45.9682570" lon="10.1813370">
	<ele>1795.20</ele>
	<time>2025-08-16T08:28:09.000Z</time>
</trkpt>
<trkpt lat="45.9682460" lon="10.1813340">
	<ele>1795.20</ele>
	<time>2025-08-16T08:28:10.000Z</time>
</trkpt>
<trkpt lat="45.9682310" lon="10.1813280">
	<ele>1794.80</ele>
	<time>2025-08-16T08:28:11.000Z</time>
</trkpt>
<trkpt lat="45.9682150" lon="10.1813250">
	<ele>1794.60</ele>
	<time>2025-08-16T08:28:12.000Z</time>
</trkpt>
<trkpt lat="45.9681980" lon="10.1813260">
	<ele>1794.60</ele>
	<time>2025-08-16T08:28:13.000Z</time>
</trkpt>
<trkpt lat="45.9681850" lon="10.1813250">
	<ele>1794.20</ele>
	<time>2025-08-16T08:28:14.000Z</time>
</trkpt>
<trkpt lat="45.9681690" lon="10.1813190">
	<ele>1794.00</ele>
	<time>2025-08-16T08:28:15.000Z</time>
</trkpt>
<trkpt lat="45.9681560" lon="10.1813170">
	<ele>1793.80</ele>
	<time>2025-08-16T08:28:16.000Z</time>
</trkpt>
<trkpt lat="45.9681420" lon="10.1813170">
	<ele>1793.80</ele>
	<time>2025-08-16T08:28:17.000Z</time>
</trkpt>
<trkpt lat="45.9681310" lon="10.1813120">
	<ele>1793.60</ele>
	<time>2025-08-16T08:28:18.000Z</time>
</trkpt>
<trkpt lat="45.9681180" lon="10.1813090">
	<ele>1793.40</ele>
	<time>2025-08-16T08:28:19.000Z</time>
</trkpt>
<trkpt lat="45.9681040" lon="10.1813090">
	<ele>1793.40</ele>
	<time>2025-08-16T08:28:20.000Z</time>
</trkpt>
<trkpt lat="45.9680940" lon="10.1813070">
	<ele>1793.20</ele>
	<time>2025-08-16T08:28:21.000Z</time>
</trkpt>
<trkpt lat="45.9680810" lon="10.1813080">
	<ele>1793.00</ele>
	<time>2025-08-16T08:28:22.000Z</time>
</trkpt>
<trkpt lat="45.9680670" lon="10.1813070">
	<ele>1792.80</ele>
	<time>2025-08-16T08:28:23.000Z</time>
</trkpt>
<trkpt lat="45.9680510" lon="10.1813090">
	<ele>1792.60</ele>
	<time>2025-08-16T08:28:24.000Z</time>
</trkpt>
<trkpt lat="45.9680380" lon="10.1813110">
	<ele>1792.60</ele>
	<time>2025-08-16T08:28:25.000Z</time>
</trkpt>
<trkpt lat="45.9680260" lon="10.1813120">
	<ele>1792.40</ele>
	<time>2025-08-16T08:28:26.000Z</time>
</trkpt>
<trkpt lat="45.9680160" lon="10.1813110">
	<ele>1792.40</ele>
	<time>2025-08-16T08:28:27.000Z</time>
</trkpt>
<trkpt lat="45.9680100" lon="10.1813120">
	<ele>1792.40</ele>
	<time>2025-08-16T08:28:28.000Z</time>
</trkpt>
<trkpt lat="45.9679980" lon="10.1813150">
	<ele>1792.40</ele>
	<time>2025-08-16T08:28:29.000Z</time>
</trkpt>
<trkpt lat="45.9679840" lon="10.1813220">
	<ele>1792.20</ele>
	<time>2025-08-16T08:28:30.000Z</time>
</trkpt>
<trkpt lat="45.9679700" lon="10.1813290">
	<ele>1792.20</ele>
	<time>2025-08-16T08:28:31.000Z</time>
</trkpt>
<trkpt lat="45.9679590" lon="10.1813270">
	<ele>1792.00</ele>
	<time>2025-08-16T08:28:32.000Z</time>
</trkpt>
<trkpt lat="45.9679480" lon="10.1813250">
	<ele>1792.00</ele>
	<time>2025-08-16T08:28:33.000Z</time>
</trkpt>
<trkpt lat="45.9679390" lon="10.1813240">
	<ele>1792.00</ele>
	<time>2025-08-16T08:28:34.000Z</time>
</trkpt>
<trkpt lat="45.9679250" lon="10.1813250">
	<ele>1791.80</ele>
	<time>2025-08-16T08:28:35.000Z</time>
</trkpt>
<trkpt lat="45.9679120" lon="10.1813250">
	<ele>1791.80</ele>
	<time>2025-08-16T08:28:36.000Z</time>
</trkpt>
<trkpt lat="45.9678990" lon="10.1813220">
	<ele>1791.60</ele>
	<time>2025-08-16T08:28:37.000Z</time>
</trkpt>
<trkpt lat="45.9678870" lon="10.1813230">
	<ele>1791.60</ele>
	<time>2025-08-16T08:28:38.000Z</time>
</trkpt>
<trkpt lat="45.9678750" lon="10.1813240">
	<ele>1791.60</ele>
	<time>2025-08-16T08:28:39.000Z</time>
</trkpt>
<trkpt lat="45.9678570" lon="10.1813210">
	<ele>1791.40</ele>
	<time>2025-08-16T08:28:40.000Z</time>
</trkpt>
<trkpt lat="45.9678550" lon="10.1813130">
	<ele>1791.40</ele>
	<time>2025-08-16T08:28:41.000Z</time>
</trkpt>
<trkpt lat="45.9678410" lon="10.1813000">
	<ele>1791.20</ele>
	<time>2025-08-16T08:28:42.000Z</time>
</trkpt>
<trkpt lat="45.9678290" lon="10.1812980">
	<ele>1791.00</ele>
	<time>2025-08-16T08:28:43.000Z</time>
</trkpt>
<trkpt lat="45.9678140" lon="10.1813040">
	<ele>1790.80</ele>
	<time>2025-08-16T08:28:44.000Z</time>
</trkpt>
<trkpt lat="45.9677940" lon="10.1813190">
	<ele>1790.60</ele>
	<time>2025-08-16T08:28:45.000Z</time>
</trkpt>
<trkpt lat="45.9677750" lon="10.1813320">
	<ele>1790.60</ele>
	<time>2025-08-16T08:28:46.000Z</time>
</trkpt>
<trkpt lat="45.9677570" lon="10.1813420">
	<ele>1790.20</ele>
	<time>2025-08-16T08:28:47.000Z</time>
</trkpt>
<trkpt lat="45.9677490" lon="10.1813510">
	<ele>1790.00</ele>
	<time>2025-08-16T08:28:48.000Z</time>
</trkpt>
<trkpt lat="45.9677300" lon="10.1813580">
	<ele>1789.80</ele>
	<time>2025-08-16T08:28:49.000Z</time>
</trkpt>
<trkpt lat="45.9677140" lon="10.1813650">
	<ele>1789.60</ele>
	<time>2025-08-16T08:28:50.000Z</time>
</trkpt>
<trkpt lat="45.9676990" lon="10.1813700">
	<ele>1789.60</ele>
	<time>2025-08-16T08:28:51.000Z</time>
</trkpt>
<trkpt lat="45.9676850" lon="10.1813730">
	<ele>1789.40</ele>
	<time>2025-08-16T08:28:52.000Z</time>
</trkpt>
<trkpt lat="45.9676740" lon="10.1813780">
	<ele>1789.40</ele>
	<time>2025-08-16T08:28:53.000Z</time>
</trkpt>
<trkpt lat="45.9676650" lon="10.1813820">
	<ele>1789.40</ele>
	<time>2025-08-16T08:28:54.000Z</time>
</trkpt>
<trkpt lat="45.9676530" lon="10.1813870">
	<ele>1789.20</ele>
	<time>2025-08-16T08:28:55.000Z</time>
</trkpt>
<trkpt lat="45.9676410" lon="10.1813940">
	<ele>1789.20</ele>
	<time>2025-08-16T08:28:56.000Z</time>
</trkpt>
<trkpt lat="45.9676270" lon="10.1813950">
	<ele>1789.00</ele>
	<time>2025-08-16T08:28:57.000Z</time>
</trkpt>
<trkpt lat="45.9676100" lon="10.1814050">
	<ele>1788.80</ele>
	<time>2025-08-16T08:28:58.000Z</time>
</trkpt>
<trkpt lat="45.9675970" lon="10.1814070">
	<ele>1788.60</ele>
	<time>2025-08-16T08:28:59.000Z</time>
</trkpt>
<trkpt lat="45.9675860" lon="10.1814070">
	<ele>1788.60</ele>
	<time>2025-08-16T08:29:00.000Z</time>
</trkpt>
<trkpt lat="45.9675790" lon="10.1814130">
	<ele>1788.40</ele>
	<time>2025-08-16T08:29:01.000Z</time>
</trkpt>
<trkpt lat="45.9675720" lon="10.1814180">
	<ele>1788.40</ele>
	<time>2025-08-16T08:29:02.000Z</time>
</trkpt>
<trkpt lat="45.9675590" lon="10.1814230">
	<ele>1788.40</ele>
	<time>2025-08-16T08:29:03.000Z</time>
</trkpt>
<trkpt lat="45.9675510" lon="10.1814260">
	<ele>1788.20</ele>
	<time>2025-08-16T08:29:04.000Z</time>
</trkpt>
<trkpt lat="45.9675400" lon="10.1814380">
	<ele>1788.20</ele>
	<time>2025-08-16T08:29:05.000Z</time>
</trkpt>
<trkpt lat="45.9675340" lon="10.1814460">
	<ele>1788.00</ele>
	<time>2025-08-16T08:29:06.000Z</time>
</trkpt>
<trkpt lat="45.9675270" lon="10.1814460">
	<ele>1787.80</ele>
	<time>2025-08-16T08:29:07.000Z</time>
</trkpt>
<trkpt lat="45.9675170" lon="10.1814530">
	<ele>1787.80</ele>
	<time>2025-08-16T08:29:08.000Z</time>
</trkpt>
<trkpt lat="45.9675080" lon="10.1814530">
	<ele>1787.60</ele>
	<time>2025-08-16T08:29:09.000Z</time>
</trkpt>
<trkpt lat="45.9674980" lon="10.1814540">
	<ele>1787.40</ele>
	<time>2025-08-16T08:29:10.000Z</time>
</trkpt>
<trkpt lat="45.9674910" lon="10.1814480">
	<ele>1787.00</ele>
	<time>2025-08-16T08:29:11.000Z</time>
</trkpt>
<trkpt lat="45.9674830" lon="10.1814460">
	<ele>1786.80</ele>
	<time>2025-08-16T08:29:12.000Z</time>
</trkpt>
<trkpt lat="45.9674750" lon="10.1814460">
	<ele>1786.80</ele>
	<time>2025-08-16T08:29:13.000Z</time>
</trkpt>
<trkpt lat="45.9674660" lon="10.1814480">
	<ele>1786.80</ele>
	<time>2025-08-16T08:29:14.000Z</time>
</trkpt>
<trkpt lat="45.9674600" lon="10.1814440">
	<ele>1787.00</ele>
	<time>2025-08-16T08:29:15.000Z</time>
</trkpt>
<trkpt lat="45.9674560" lon="10.1814300">
	<ele>1787.20</ele>
	<time>2025-08-16T08:29:16.000Z</time>
</trkpt>
<trkpt lat="45.9674420" lon="10.1814360">
	<ele>1787.40</ele>
	<time>2025-08-16T08:29:17.000Z</time>
</trkpt>
<trkpt lat="45.9674260" lon="10.1814460">
	<ele>1787.60</ele>
	<time>2025-08-16T08:29:18.000Z</time>
</trkpt>
<trkpt lat="45.9674100" lon="10.1814570">
	<ele>1787.80</ele>
	<time>2025-08-16T08:29:19.000Z</time>
</trkpt>
<trkpt lat="45.9674000" lon="10.1814520">
	<ele>1787.80</ele>
	<time>2025-08-16T08:29:20.000Z</time>
</trkpt>
<trkpt lat="45.9673920" lon="10.1814460">
	<ele>1787.80</ele>
	<time>2025-08-16T08:29:21.000Z</time>
</trkpt>
<trkpt lat="45.9673820" lon="10.1814490">
	<ele>1787.80</ele>
	<time>2025-08-16T08:29:22.000Z</time>
</trkpt>
<trkpt lat="45.9673720" lon="10.1814570">
	<ele>1787.60</ele>
	<time>2025-08-16T08:29:23.000Z</time>
</trkpt>
<trkpt lat="45.9673590" lon="10.1814670">
	<ele>1787.40</ele>
	<time>2025-08-16T08:29:24.000Z</time>
</trkpt>
<trkpt lat="45.9673510" lon="10.1814830">
	<ele>1787.40</ele>
	<time>2025-08-16T08:29:25.000Z</time>
</trkpt>
<trkpt lat="45.9673390" lon="10.1815010">
	<ele>1787.20</ele>
	<time>2025-08-16T08:29:26.000Z</time>
</trkpt>
<trkpt lat="45.9673320" lon="10.1815050">
	<ele>1787.00</ele>
	<time>2025-08-16T08:29:27.000Z</time>
</trkpt>
<trkpt lat="45.9673210" lon="10.1815090">
	<ele>1786.80</ele>
	<time>2025-08-16T08:29:28.000Z</time>
</trkpt>
<trkpt lat="45.9673090" lon="10.1815130">
	<ele>1786.60</ele>
	<time>2025-08-16T08:29:29.000Z</time>
</trkpt>
<trkpt lat="45.9672970" lon="10.1815230">
	<ele>1786.20</ele>
	<time>2025-08-16T08:29:30.000Z</time>
</trkpt>
<trkpt lat="45.9672860" lon="10.1815270">
	<ele>1785.80</ele>
	<time>2025-08-16T08:29:31.000Z</time>
</trkpt>
<trkpt lat="45.9672750" lon="10.1815310">
	<ele>1785.40</ele>
	<time>2025-08-16T08:29:32.000Z</time>
</trkpt>
<trkpt lat="45.9672640" lon="10.1815370">
	<ele>1785.20</ele>
	<time>2025-08-16T08:29:33.000Z</time>
</trkpt>
<trkpt lat="45.9672550" lon="10.1815400">
	<ele>1785.00</ele>
	<time>2025-08-16T08:29:34.000Z</time>
</trkpt>
<trkpt lat="45.9672400" lon="10.1815460">
	<ele>1785.00</ele>
	<time>2025-08-16T08:29:35.000Z</time>
</trkpt>
<trkpt lat="45.9672320" lon="10.1815450">
	<ele>1784.80</ele>
	<time>2025-08-16T08:29:36.000Z</time>
</trkpt>
<trkpt lat="45.9672270" lon="10.1815450">
	<ele>1784.80</ele>
	<time>2025-08-16T08:29:37.000Z</time>
</trkpt>
<trkpt lat="45.9672230" lon="10.1815450">
	<ele>1784.60</ele>
	<time>2025-08-16T08:29:38.000Z</time>
</trkpt>
<trkpt lat="45.9672170" lon="10.1815470">
	<ele>1784.60</ele>
	<time>2025-08-16T08:29:39.000Z</time>
</trkpt>
<trkpt lat="45.9672090" lon="10.1815500">
	<ele>1784.40</ele>
	<time>2025-08-16T08:29:40.000Z</time>
</trkpt>
<trkpt lat="45.9671980" lon="10.1815540">
	<ele>1784.40</ele>
	<time>2025-08-16T08:29:41.000Z</time>
</trkpt>
<trkpt lat="45.9671870" lon="10.1815620">
	<ele>1784.20</ele>
	<time>2025-08-16T08:29:42.000Z</time>
</trkpt>
<trkpt lat="45.9671790" lon="10.1815610">
	<ele>1784.00</ele>
	<time>2025-08-16T08:29:43.000Z</time>
</trkpt>
<trkpt lat="45.9671690" lon="10.1815630">
	<ele>1783.80</ele>
	<time>2025-08-16T08:29:44.000Z</time>
</trkpt>
<trkpt lat="45.9671570" lon="10.1815720">
	<ele>1783.80</ele>
	<time>2025-08-16T08:29:45.000Z</time>
</trkpt>
<trkpt lat="45.9671470" lon="10.1815770">
	<ele>1783.60</ele>
	<time>2025-08-16T08:29:46.000Z</time>
</trkpt>
<trkpt lat="45.9671390" lon="10.1815760">
	<ele>1783.40</ele>
	<time>2025-08-16T08:29:47.000Z</time>
</trkpt>
<trkpt lat="45.9671250" lon="10.1815760">
	<ele>1783.20</ele>
	<time>2025-08-16T08:29:48.000Z</time>
</trkpt>
<trkpt lat="45.9671140" lon="10.1815750">
	<ele>1782.80</ele>
	<time>2025-08-16T08:29:49.000Z</time>
</trkpt>
<trkpt lat="45.9671030" lon="10.1815770">
	<ele>1782.60</ele>
	<time>2025-08-16T08:29:50.000Z</time>
</trkpt>
<trkpt lat="45.9670920" lon="10.1815800">
	<ele>1782.20</ele>
	<time>2025-08-16T08:29:51.000Z</time>
</trkpt>
<trkpt lat="45.9670820" lon="10.1815840">
	<ele>1781.80</ele>
	<time>2025-08-16T08:29:52.000Z</time>
</trkpt>
<trkpt lat="45.9670720" lon="10.1815900">
	<ele>1781.60</ele>
	<time>2025-08-16T08:29:53.000Z</time>
</trkpt>
<trkpt lat="45.9670610" lon="10.1815960">
	<ele>1781.40</ele>
	<time>2025-08-16T08:29:54.000Z</time>
</trkpt>
<trkpt lat="45.9670550" lon="10.1815980">
	<ele>1781.40</ele>
	<time>2025-08-16T08:29:55.000Z</time>
</trkpt>
<trkpt lat="45.9670520" lon="10.1815990">
	<ele>1781.20</ele>
	<time>2025-08-16T08:29:56.000Z</time>
</trkpt>
<trkpt lat="45.9670430" lon="10.1816030">
	<ele>1780.80</ele>
	<time>2025-08-16T08:29:57.000Z</time>
</trkpt>
<trkpt lat="45.9670310" lon="10.1816040">
	<ele>1780.60</ele>
	<time>2025-08-16T08:29:58.000Z</time>
</trkpt>
<trkpt lat="45.9670130" lon="10.1816020">
	<ele>1780.40</ele>
	<time>2025-08-16T08:29:59.000Z</time>
</trkpt>
<trkpt lat="45.9670050" lon="10.1815890">
	<ele>1780.00</ele>
	<time>2025-08-16T08:30:00.000Z</time>
</trkpt>
<trkpt lat="45.9669970" lon="10.1815800">
	<ele>1780.00</ele>
	<time>2025-08-16T08:30:01.000Z</time>
</trkpt>
<trkpt lat="45.9669890" lon="10.1815790">
	<ele>1779.80</ele>
	<time>2025-08-16T08:30:02.000Z</time>
</trkpt>
<trkpt lat="45.9669830" lon="10.1815760">
	<ele>1779.80</ele>
	<time>2025-08-16T08:30:03.000Z</time>
</trkpt>
<trkpt lat="45.9669740" lon="10.1815760">
	<ele>1780.00</ele>
	<time>2025-08-16T08:30:04.000Z</time>
</trkpt>
<trkpt lat="45.9669690" lon="10.1815760">
	<ele>1780.00</ele>
	<time>2025-08-16T08:30:05.000Z</time>
</trkpt>
<trkpt lat="45.9669600" lon="10.1815840">
	<ele>1780.20</ele>
	<time>2025-08-16T08:30:06.000Z</time>
</trkpt>
<trkpt lat="45.9669500" lon="10.1815830">
	<ele>1780.20</ele>
	<time>2025-08-16T08:30:07.000Z</time>
</trkpt>
<trkpt lat="45.9669370" lon="10.1815830">
	<ele>1780.20</ele>
	<time>2025-08-16T08:30:08.000Z</time>
</trkpt>
<trkpt lat="45.9669220" lon="10.1815830">
	<ele>1780.40</ele>
	<time>2025-08-16T08:30:09.000Z</time>
</trkpt>
<trkpt lat="45.9669080" lon="10.1815820">
	<ele>1780.40</ele>
	<time>2025-08-16T08:30:10.000Z</time>
</trkpt>
<trkpt lat="45.9668990" lon="10.1815800">
	<ele>1780.20</ele>
	<time>2025-08-16T08:30:11.000Z</time>
</trkpt>
<trkpt lat="45.9668890" lon="10.1815730">
	<ele>1780.20</ele>
	<time>2025-08-16T08:30:12.000Z</time>
</trkpt>
<trkpt lat="45.9668820" lon="10.1815710">
	<ele>1780.20</ele>
	<time>2025-08-16T08:30:13.000Z</time>
</trkpt>
<trkpt lat="45.9668770" lon="10.1815710">
	<ele>1780.20</ele>
	<time>2025-08-16T08:30:14.000Z</time>
</trkpt>
<trkpt lat="45.9668760" lon="10.1815720">
	<ele>1780.00</ele>
	<time>2025-08-16T08:30:15.000Z</time>
</trkpt>
<trkpt lat="45.9668750" lon="10.1815690">
	<ele>1779.80</ele>
	<time>2025-08-16T08:30:16.000Z</time>
</trkpt>
<trkpt lat="45.9668760" lon="10.1815670">
	<ele>1779.60</ele>
	<time>2025-08-16T08:30:17.000Z</time>
</trkpt>
<trkpt lat="45.9668770" lon="10.1815640">
	<ele>1779.60</ele>
	<time>2025-08-16T08:30:18.000Z</time>
</trkpt>
<trkpt lat="45.9668810" lon="10.1815670">
	<ele>1779.60</ele>
	<time>2025-08-16T08:30:19.000Z</time>
</trkpt>
<trkpt lat="45.9668820" lon="10.1815680">
	<ele>1779.60</ele>
	<time>2025-08-16T08:30:20.000Z</time>
</trkpt>
<trkpt lat="45.9668810" lon="10.1815690">
	<ele>1779.60</ele>
	<time>2025-08-16T08:30:21.000Z</time>
</trkpt>
<trkpt lat="45.9668800" lon="10.1815680">
	<ele>1779.60</ele>
	<time>2025-08-16T08:30:22.000Z</time>
</trkpt>
<trkpt lat="45.9668780" lon="10.1815680">
	<ele>1779.60</ele>
	<time>2025-08-16T08:30:23.000Z</time>
</trkpt>
<trkpt lat="45.9668750" lon="10.1815690">
	<ele>1779.80</ele>
	<time>2025-08-16T08:30:24.000Z</time>
</trkpt>
<trkpt lat="45.9668710" lon="10.1815690">
	<ele>1779.80</ele>
	<time>2025-08-16T08:30:25.000Z</time>
</trkpt>
<trkpt lat="45.9668690" lon="10.1815690">
	<ele>1780.00</ele>
	<time>2025-08-16T08:30:26.000Z</time>
</trkpt>
<trkpt lat="45.9668680" lon="10.1815680">
	<ele>1779.80</ele>
	<time>2025-08-16T08:30:27.000Z</time>
</trkpt>
<trkpt lat="45.9668670" lon="10.1815680">
	<ele>1779.80</ele>
	<time>2025-08-16T08:30:28.000Z</time>
</trkpt>
<trkpt lat="45.9668650" lon="10.1815690">
	<ele>1779.80</ele>
	<time>2025-08-16T08:30:29.000Z</time>
</trkpt>
<trkpt lat="45.9668620" lon="10.1815700">
	<ele>1779.80</ele>
	<time>2025-08-16T08:30:30.000Z</time>
</trkpt>
<trkpt lat="45.9668550" lon="10.1815710">
	<ele>1779.80</ele>
	<time>2025-08-16T08:30:31.000Z</time>
</trkpt>
<trkpt lat="45.9668490" lon="10.1815710">
	<ele>1779.80</ele>
	<time>2025-08-16T08:30:32.000Z</time>
</trkpt>
<trkpt lat="45.9668440" lon="10.1815700">
	<ele>1779.80</ele>
	<time>2025-08-16T08:30:33.000Z</time>
</trkpt>
<trkpt lat="45.9668360" lon="10.1815760">
	<ele>1779.80</ele>
	<time>2025-08-16T08:30:34.000Z</time>
</trkpt>
<trkpt lat="45.9668270" lon="10.1815780">
	<ele>1779.80</ele>
	<time>2025-08-16T08:30:35.000Z</time>
</trkpt>
<trkpt lat="45.9668160" lon="10.1815810">
	<ele>1779.80</ele>
	<time>2025-08-16T08:30:36.000Z</time>
</trkpt>
<trkpt lat="45.9668030" lon="10.1815870">
	<ele>1779.80</ele>
	<time>2025-08-16T08:30:37.000Z</time>
</trkpt>
<trkpt lat="45.9667820" lon="10.1815930">
	<ele>1779.80</ele>
	<time>2025-08-16T08:30:38.000Z</time>
</trkpt>
<trkpt lat="45.9667600" lon="10.1815930">
	<ele>1779.60</ele>
	<time>2025-08-16T08:30:39.000Z</time>
</trkpt>
<trkpt lat="45.9667410" lon="10.1815990">
	<ele>1779.40</ele>
	<time>2025-08-16T08:30:40.000Z</time>
</trkpt>
<trkpt lat="45.9667260" lon="10.1816060">
	<ele>1779.40</ele>
	<time>2025-08-16T08:30:41.000Z</time>
</trkpt>
<trkpt lat="45.9667110" lon="10.1816130">
	<ele>1779.40</ele>
	<time>2025-08-16T08:30:42.000Z</time>
</trkpt>
<trkpt lat="45.9667010" lon="10.1816230">
	<ele>1779.40</ele>
	<time>2025-08-16T08:30:43.000Z</time>
</trkpt>
<trkpt lat="45.9666910" lon="10.1816250">
	<ele>1779.40</ele>
	<time>2025-08-16T08:30:44.000Z</time>
</trkpt>
<trkpt lat="45.9666780" lon="10.1816200">
	<ele>1779.40</ele>
	<time>2025-08-16T08:30:45.000Z</time>
</trkpt>
<trkpt lat="45.9666650" lon="10.1816190">
	<ele>1779.60</ele>
	<time>2025-08-16T08:30:46.000Z</time>
</trkpt>
<trkpt lat="45.9666520" lon="10.1816210">
	<ele>1779.60</ele>
	<time>2025-08-16T08:30:47.000Z</time>
</trkpt>
<trkpt lat="45.9666390" lon="10.1816230">
	<ele>1779.80</ele>
	<time>2025-08-16T08:30:48.000Z</time>
</trkpt>
<trkpt lat="45.9666300" lon="10.1816260">
	<ele>1780.00</ele>
	<time>2025-08-16T08:30:49.000Z</time>
</trkpt>
<trkpt lat="45.9666210" lon="10.1816330">
	<ele>1780.00</ele>
	<time>2025-08-16T08:30:50.000Z</time>
</trkpt>
<trkpt lat="45.9666090" lon="10.1816370">
	<ele>1780.00</ele>
	<time>2025-08-16T08:30:51.000Z</time>
</trkpt>
<trkpt lat="45.9666040" lon="10.1816380">
	<ele>1780.00</ele>
	<time>2025-08-16T08:30:52.000Z</time>
</trkpt>
<trkpt lat="45.9665990" lon="10.1816360">
	<ele>1780.00</ele>
	<time>2025-08-16T08:30:53.000Z</time>
</trkpt>
<trkpt lat="45.9665940" lon="10.1816380">
	<ele>1780.00</ele>
	<time>2025-08-16T08:30:54.000Z</time>
</trkpt>
<trkpt lat="45.9665840" lon="10.1816390">
	<ele>1780.00</ele>
	<time>2025-08-16T08:30:55.000Z</time>
</trkpt>
<trkpt lat="45.9665760" lon="10.1816510">
	<ele>1780.00</ele>
	<time>2025-08-16T08:30:56.000Z</time>
</trkpt>
<trkpt lat="45.9665710" lon="10.1816550">
	<ele>1779.80</ele>
	<time>2025-08-16T08:30:57.000Z</time>
</trkpt>
<trkpt lat="45.9665620" lon="10.1816580">
	<ele>1779.80</ele>
	<time>2025-08-16T08:30:58.000Z</time>
</trkpt>
<trkpt lat="45.9665550" lon="10.1816630">
	<ele>1779.80</ele>
	<time>2025-08-16T08:30:59.000Z</time>
</trkpt>
<trkpt lat="45.9665490" lon="10.1816630">
	<ele>1779.40</ele>
	<time>2025-08-16T08:31:00.000Z</time>
</trkpt>
<trkpt lat="45.9665410" lon="10.1816700">
	<ele>1779.00</ele>
	<time>2025-08-16T08:31:01.000Z</time>
</trkpt>
<trkpt lat="45.9665330" lon="10.1816760">
	<ele>1778.80</ele>
	<time>2025-08-16T08:31:02.000Z</time>
</trkpt>
<trkpt lat="45.9665230" lon="10.1816800">
	<ele>1778.40</ele>
	<time>2025-08-16T08:31:03.000Z</time>
</trkpt>
<trkpt lat="45.9665080" lon="10.1816820">
	<ele>1778.20</ele>
	<time>2025-08-16T08:31:04.000Z</time>
</trkpt>
<trkpt lat="45.9664930" lon="10.1816830">
	<ele>1778.20</ele>
	<time>2025-08-16T08:31:05.000Z</time>
</trkpt>
<trkpt lat="45.9664800" lon="10.1816830">
	<ele>1778.00</ele>
	<time>2025-08-16T08:31:06.000Z</time>
</trkpt>
<trkpt lat="45.9664670" lon="10.1816820">
	<ele>1778.00</ele>
	<time>2025-08-16T08:31:07.000Z</time>
</trkpt>
<trkpt lat="45.9664550" lon="10.1816820">
	<ele>1778.00</ele>
	<time>2025-08-16T08:31:08.000Z</time>
</trkpt>
<trkpt lat="45.9664450" lon="10.1816830">
	<ele>1778.00</ele>
	<time>2025-08-16T08:31:09.000Z</time>
</trkpt>
<trkpt lat="45.9664340" lon="10.1816860">
	<ele>1778.00</ele>
	<time>2025-08-16T08:31:10.000Z</time>
</trkpt>
<trkpt lat="45.9664200" lon="10.1816930">
	<ele>1778.00</ele>
	<time>2025-08-16T08:31:11.000Z</time>
</trkpt>
<trkpt lat="45.9664070" lon="10.1816990">
	<ele>1778.00</ele>
	<time>2025-08-16T08:31:12.000Z</time>
</trkpt>
<trkpt lat="45.9663960" lon="10.1817040">
	<ele>1778.20</ele>
	<time>2025-08-16T08:31:13.000Z</time>
</trkpt>
<trkpt lat="45.9663880" lon="10.1817030">
	<ele>1778.20</ele>
	<time>2025-08-16T08:31:14.000Z</time>
</trkpt>
<trkpt lat="45.9663760" lon="10.1817060">
	<ele>1778.00</ele>
	<time>2025-08-16T08:31:15.000Z</time>
</trkpt>
<trkpt lat="45.9663610" lon="10.1817080">
	<ele>1778.00</ele>
	<time>2025-08-16T08:31:16.000Z</time>
</trkpt>
<trkpt lat="45.9663500" lon="10.1817130">
	<ele>1778.00</ele>
	<time>2025-08-16T08:31:17.000Z</time>
</trkpt>
<trkpt lat="45.9663380" lon="10.1817200">
	<ele>1778.00</ele>
	<time>2025-08-16T08:31:18.000Z</time>
</trkpt>
<trkpt lat="45.9663280" lon="10.1817250">
	<ele>1778.00</ele>
	<time>2025-08-16T08:31:19.000Z</time>
</trkpt>
<trkpt lat="45.9663160" lon="10.1817290">
	<ele>1778.00</ele>
	<time>2025-08-16T08:31:20.000Z</time>
</trkpt>
<trkpt lat="45.9663030" lon="10.1817330">
	<ele>1777.80</ele>
	<time>2025-08-16T08:31:21.000Z</time>
</trkpt>
<trkpt lat="45.9662900" lon="10.1817380">
	<ele>1777.60</ele>
	<time>2025-08-16T08:31:22.000Z</time>
</trkpt>
<trkpt lat="45.9662810" lon="10.1817400">
	<ele>1777.60</ele>
	<time>2025-08-16T08:31:23.000Z</time>
</trkpt>
<trkpt lat="45.9662680" lon="10.1817440">
	<ele>1777.40</ele>
	<time>2025-08-16T08:31:24.000Z</time>
</trkpt>
<trkpt lat="45.9662600" lon="10.1817550">
	<ele>1777.40</ele>
	<time>2025-08-16T08:31:25.000Z</time>
</trkpt>
<trkpt lat="45.9662530" lon="10.1817640">
	<ele>1777.40</ele>
	<time>2025-08-16T08:31:26.000Z</time>
</trkpt>
<trkpt lat="45.9662430" lon="10.1817730">
	<ele>1777.20</ele>
	<time>2025-08-16T08:31:27.000Z</time>
</trkpt>
<trkpt lat="45.9662320" lon="10.1817770">
	<ele>1777.00</ele>
	<time>2025-08-16T08:31:28.000Z</time>
</trkpt>
<trkpt lat="45.9662270" lon="10.1817770">
	<ele>1777.00</ele>
	<time>2025-08-16T08:31:29.000Z</time>
</trkpt>
<trkpt lat="45.9662170" lon="10.1817830">
	<ele>1777.00</ele>
	<time>2025-08-16T08:31:30.000Z</time>
</trkpt>
<trkpt lat="45.9662070" lon="10.1818040">
	<ele>1777.00</ele>
	<time>2025-08-16T08:31:31.000Z</time>
</trkpt>
<trkpt lat="45.9662000" lon="10.1818160">
	<ele>1776.80</ele>
	<time>2025-08-16T08:31:32.000Z</time>
</trkpt>
<trkpt lat="45.9661980" lon="10.1818220">
	<ele>1776.80</ele>
	<time>2025-08-16T08:31:33.000Z</time>
</trkpt>
<trkpt lat="45.9661950" lon="10.1818270">
	<ele>1777.00</ele>
	<time>2025-08-16T08:31:34.000Z</time>
</trkpt>
<trkpt lat="45.9661870" lon="10.1818350">
	<ele>1777.00</ele>
	<time>2025-08-16T08:31:35.000Z</time>
</trkpt>
<trkpt lat="45.9661720" lon="10.1818410">
	<ele>1777.00</ele>
	<time>2025-08-16T08:31:36.000Z</time>
</trkpt>
<trkpt lat="45.9661630" lon="10.1818480">
	<ele>1777.00</ele>
	<time>2025-08-16T08:31:37.000Z</time>
</trkpt>
<trkpt lat="45.9661540" lon="10.1818550">
	<ele>1777.00</ele>
	<time>2025-08-16T08:31:38.000Z</time>
</trkpt>
<trkpt lat="45.9661490" lon="10.1818600">
	<ele>1777.00</ele>
	<time>2025-08-16T08:31:39.000Z</time>
</trkpt>
<trkpt lat="45.9661370" lon="10.1818630">
	<ele>1777.00</ele>
	<time>2025-08-16T08:31:40.000Z</time>
</trkpt>
<trkpt lat="45.9661220" lon="10.1818710">
	<ele>1777.00</ele>
	<time>2025-08-16T08:31:41.000Z</time>
</trkpt>
<trkpt lat="45.9661110" lon="10.1818790">
	<ele>1777.00</ele>
	<time>2025-08-16T08:31:42.000Z</time>
</trkpt>
<trkpt lat="45.9660960" lon="10.1818900">
	<ele>1777.00</ele>
	<time>2025-08-16T08:31:43.000Z</time>
</trkpt>
<trkpt lat="45.9660870" lon="10.1818960">
	<ele>1777.00</ele>
	<time>2025-08-16T08:31:44.000Z</time>
</trkpt>
<trkpt lat="45.9660760" lon="10.1818980">
	<ele>1777.00</ele>
	<time>2025-08-16T08:31:45.000Z</time>
</trkpt>
<trkpt lat="45.9660720" lon="10.1819050">
	<ele>1777.20</ele>
	<time>2025-08-16T08:31:46.000Z</time>
</trkpt>
<trkpt lat="45.9660650" lon="10.1819190">
	<ele>1777.20</ele>
	<time>2025-08-16T08:31:47.000Z</time>
</trkpt>
<trkpt lat="45.9660580" lon="10.1819290">
	<ele>1777.20</ele>
	<time>2025-08-16T08:31:48.000Z</time>
</trkpt>
<trkpt lat="45.9660500" lon="10.1819380">
	<ele>1777.40</ele>
	<time>2025-08-16T08:31:49.000Z</time>
</trkpt>
<trkpt lat="45.9660370" lon="10.1819450">
	<ele>1777.40</ele>
	<time>2025-08-16T08:31:50.000Z</time>
</trkpt>
<trkpt lat="45.9660300" lon="10.1819510">
	<ele>1777.60</ele>
	<time>2025-08-16T08:31:51.000Z</time>
</trkpt>
<trkpt lat="45.9660210" lon="10.1819600">
	<ele>1777.80</ele>
	<time>2025-08-16T08:31:52.000Z</time>
</trkpt>
<trkpt lat="45.9660150" lon="10.1819700">
	<ele>1778.00</ele>
	<time>2025-08-16T08:31:53.000Z</time>
</trkpt>
<trkpt lat="45.9660100" lon="10.1819740">
	<ele>1778.00</ele>
	<time>2025-08-16T08:31:54.000Z</time>
</trkpt>
<trkpt lat="45.9660000" lon="10.1819820">
	<ele>1778.40</ele>
	<time>2025-08-16T08:31:55.000Z</time>
</trkpt>
<trkpt lat="45.9659870" lon="10.1819890">
	<ele>1778.60</ele>
	<time>2025-08-16T08:31:56.000Z</time>
</trkpt>
<trkpt lat="45.9659780" lon="10.1819980">
	<ele>1778.80</ele>
	<time>2025-08-16T08:31:57.000Z</time>
</trkpt>
<trkpt lat="45.9659650" lon="10.1820040">
	<ele>1778.80</ele>
	<time>2025-08-16T08:31:58.000Z</time>
</trkpt>
<trkpt lat="45.9659500" lon="10.1820070">
	<ele>1779.00</ele>
	<time>2025-08-16T08:31:59.000Z</time>
</trkpt>
<trkpt lat="45.9659370" lon="10.1820100">
	<ele>1779.20</ele>
	<time>2025-08-16T08:32:00.000Z</time>
</trkpt>
<trkpt lat="45.9659280" lon="10.1820130">
	<ele>1779.20</ele>
	<time>2025-08-16T08:32:01.000Z</time>
</trkpt>
<trkpt lat="45.9659220" lon="10.1820180">
	<ele>1779.20</ele>
	<time>2025-08-16T08:32:02.000Z</time>
</trkpt>
<trkpt lat="45.9659140" lon="10.1820260">
	<ele>1779.40</ele>
	<time>2025-08-16T08:32:03.000Z</time>
</trkpt>
<trkpt lat="45.9659020" lon="10.1820360">
	<ele>1779.40</ele>
	<time>2025-08-16T08:32:04.000Z</time>
</trkpt>
<trkpt lat="45.9658900" lon="10.1820520">
	<ele>1779.60</ele>
	<time>2025-08-16T08:32:05.000Z</time>
</trkpt>
<trkpt lat="45.9658800" lon="10.1820700">
	<ele>1779.60</ele>
	<time>2025-08-16T08:32:06.000Z</time>
</trkpt>
<trkpt lat="45.9658750" lon="10.1820850">
	<ele>1779.80</ele>
	<time>2025-08-16T08:32:07.000Z</time>
</trkpt>
<trkpt lat="45.9658630" lon="10.1820920">
	<ele>1780.00</ele>
	<time>2025-08-16T08:32:08.000Z</time>
</trkpt>
<trkpt lat="45.9658560" lon="10.1821010">
	<ele>1780.00</ele>
	<time>2025-08-16T08:32:09.000Z</time>
</trkpt>
<trkpt lat="45.9658470" lon="10.1821130">
	<ele>1780.20</ele>
	<time>2025-08-16T08:32:10.000Z</time>
</trkpt>
<trkpt lat="45.9658370" lon="10.1821170">
	<ele>1780.40</ele>
	<time>2025-08-16T08:32:11.000Z</time>
</trkpt>
<trkpt lat="45.9658240" lon="10.1821180">
	<ele>1780.40</ele>
	<time>2025-08-16T08:32:12.000Z</time>
</trkpt>
<trkpt lat="45.9658100" lon="10.1821190">
	<ele>1780.60</ele>
	<time>2025-08-16T08:32:13.000Z</time>
</trkpt>
<trkpt lat="45.9657970" lon="10.1821190">
	<ele>1780.60</ele>
	<time>2025-08-16T08:32:14.000Z</time>
</trkpt>
<trkpt lat="45.9657860" lon="10.1821230">
	<ele>1780.80</ele>
	<time>2025-08-16T08:32:15.000Z</time>
</trkpt>
<trkpt lat="45.9657780" lon="10.1821230">
	<ele>1780.80</ele>
	<time>2025-08-16T08:32:16.000Z</time>
</trkpt>
<trkpt lat="45.9657720" lon="10.1821240">
	<ele>1780.80</ele>
	<time>2025-08-16T08:32:17.000Z</time>
</trkpt>
<trkpt lat="45.9657620" lon="10.1821250">
	<ele>1781.00</ele>
	<time>2025-08-16T08:32:18.000Z</time>
</trkpt>
<trkpt lat="45.9657510" lon="10.1821340">
	<ele>1781.00</ele>
	<time>2025-08-16T08:32:19.000Z</time>
</trkpt>
<trkpt lat="45.9657390" lon="10.1821430">
	<ele>1781.00</ele>
	<time>2025-08-16T08:32:20.000Z</time>
</trkpt>
<trkpt lat="45.9657300" lon="10.1821470">
	<ele>1781.20</ele>
	<time>2025-08-16T08:32:21.000Z</time>
</trkpt>
<trkpt lat="45.9657210" lon="10.1821520">
	<ele>1781.40</ele>
	<time>2025-08-16T08:32:22.000Z</time>
</trkpt>
<trkpt lat="45.9657070" lon="10.1821600">
	<ele>1781.40</ele>
	<time>2025-08-16T08:32:23.000Z</time>
</trkpt>
<trkpt lat="45.9656980" lon="10.1821670">
	<ele>1781.40</ele>
	<time>2025-08-16T08:32:24.000Z</time>
</trkpt>
<trkpt lat="45.9656880" lon="10.1821730">
	<ele>1781.60</ele>
	<time>2025-08-16T08:32:25.000Z</time>
</trkpt>
<trkpt lat="45.9656770" lon="10.1821750">
	<ele>1781.60</ele>
	<time>2025-08-16T08:32:26.000Z</time>
</trkpt>
<trkpt lat="45.9656660" lon="10.1821750">
	<ele>1781.80</ele>
	<time>2025-08-16T08:32:27.000Z</time>
</trkpt>
<trkpt lat="45.9656550" lon="10.1821820">
	<ele>1781.80</ele>
	<time>2025-08-16T08:32:28.000Z</time>
</trkpt>
<trkpt lat="45.9656490" lon="10.1821830">
	<ele>1782.00</ele>
	<time>2025-08-16T08:32:29.000Z</time>
</trkpt>
<trkpt lat="45.9656440" lon="10.1821750">
	<ele>1782.20</ele>
	<time>2025-08-16T08:32:30.000Z</time>
</trkpt>
<trkpt lat="45.9656420" lon="10.1821720">
	<ele>1782.40</ele>
	<time>2025-08-16T08:32:31.000Z</time>
</trkpt>
<trkpt lat="45.9656360" lon="10.1821690">
	<ele>1782.60</ele>
	<time>2025-08-16T08:32:32.000Z</time>
</trkpt>
<trkpt lat="45.9656290" lon="10.1821700">
	<ele>1782.80</ele>
	<time>2025-08-16T08:32:33.000Z</time>
</trkpt>
<trkpt lat="45.9656260" lon="10.1821680">
	<ele>1783.00</ele>
	<time>2025-08-16T08:32:34.000Z</time>
</trkpt>
<trkpt lat="45.9656160" lon="10.1821660">
	<ele>1783.20</ele>
	<time>2025-08-16T08:32:35.000Z</time>
</trkpt>
<trkpt lat="45.9656090" lon="10.1821650">
	<ele>1783.60</ele>
	<time>2025-08-16T08:32:36.000Z</time>
</trkpt>
<trkpt lat="45.9656020" lon="10.1821620">
	<ele>1783.80</ele>
	<time>2025-08-16T08:32:37.000Z</time>
</trkpt>
<trkpt lat="45.9655950" lon="10.1821600">
	<ele>1784.20</ele>
	<time>2025-08-16T08:32:38.000Z</time>
</trkpt>
<trkpt lat="45.9655900" lon="10.1821570">
	<ele>1784.40</ele>
	<time>2025-08-16T08:32:39.000Z</time>
</trkpt>
<trkpt lat="45.9655830" lon="10.1821560">
	<ele>1784.40</ele>
	<time>2025-08-16T08:32:40.000Z</time>
</trkpt>
<trkpt lat="45.9655770" lon="10.1821570">
	<ele>1784.60</ele>
	<time>2025-08-16T08:32:41.000Z</time>
</trkpt>
<trkpt lat="45.9655730" lon="10.1821560">
	<ele>1784.80</ele>
	<time>2025-08-16T08:32:42.000Z</time>
</trkpt>
<trkpt lat="45.9655700" lon="10.1821550">
	<ele>1785.00</ele>
	<time>2025-08-16T08:32:43.000Z</time>
</trkpt>
<trkpt lat="45.9655740" lon="10.1821630">
	<ele>1785.20</ele>
	<time>2025-08-16T08:32:44.000Z</time>
</trkpt>
<trkpt lat="45.9655750" lon="10.1821660">
	<ele>1785.40</ele>
	<time>2025-08-16T08:32:45.000Z</time>
</trkpt>
<trkpt lat="45.9655730" lon="10.1821670">
	<ele>1785.40</ele>
	<time>2025-08-16T08:32:46.000Z</time>
</trkpt>
<trkpt lat="45.9655690" lon="10.1821690">
	<ele>1785.60</ele>
	<time>2025-08-16T08:32:47.000Z</time>
</trkpt>
<trkpt lat="45.9655670" lon="10.1821700">
	<ele>1785.80</ele>
	<time>2025-08-16T08:32:48.000Z</time>
</trkpt>
<trkpt lat="45.9655640" lon="10.1821650">
	<ele>1786.00</ele>
	<time>2025-08-16T08:32:49.000Z</time>
</trkpt>
<trkpt lat="45.9655590" lon="10.1821630">
	<ele>1786.00</ele>
	<time>2025-08-16T08:32:50.000Z</time>
</trkpt>
<trkpt lat="45.9655550" lon="10.1821630">
	<ele>1786.20</ele>
	<time>2025-08-16T08:32:51.000Z</time>
</trkpt>
<trkpt lat="45.9655530" lon="10.1821620">
	<ele>1786.40</ele>
	<time>2025-08-16T08:32:52.000Z</time>
</trkpt>
<trkpt lat="45.9655530" lon="10.1821620">
	<ele>1786.40</ele>
	<time>2025-08-16T08:32:53.000Z</time>
</trkpt>
<trkpt lat="45.9655530" lon="10.1821660">
	<ele>1786.40</ele>
	<time>2025-08-16T08:32:54.000Z</time>
</trkpt>
<trkpt lat="45.9655520" lon="10.1821650">
	<ele>1786.40</ele>
	<time>2025-08-16T08:32:55.000Z</time>
</trkpt>
<trkpt lat="45.9655510" lon="10.1821640">
	<ele>1786.40</ele>
	<time>2025-08-16T08:32:56.000Z</time>
</trkpt>
<trkpt lat="45.9655520" lon="10.1821660">
	<ele>1786.40</ele>
	<time>2025-08-16T08:32:57.000Z</time>
</trkpt>
<trkpt lat="45.9655520" lon="10.1821660">
	<ele>1786.40</ele>
	<time>2025-08-16T08:32:58.000Z</time>
</trkpt>
<trkpt lat="45.9655520" lon="10.1821660">
	<ele>1786.40</ele>
	<time>2025-08-16T08:32:59.000Z</time>
</trkpt>
<trkpt lat="45.9655520" lon="10.1821660">
	<ele>1786.40</ele>
	<time>2025-08-16T08:33:00.000Z</time>
</trkpt>
<trkpt lat="45.9655520" lon="10.1821660">
	<ele>1786.60</ele>
	<time>2025-08-16T08:33:01.000Z</time>
</trkpt>
<trkpt lat="45.9655520" lon="10.1821660">
	<ele>1786.60</ele>
	<time>2025-08-16T08:33:02.000Z</time>
</trkpt>
<trkpt lat="45.9655520" lon="10.1821660">
	<ele>1786.60</ele>
	<time>2025-08-16T08:33:03.000Z</time>
</trkpt>
<trkpt lat="45.9655520" lon="10.1821660">
	<ele>1786.80</ele>
	<time>2025-08-16T08:33:04.000Z</time>
</trkpt>
<trkpt lat="45.9655520" lon="10.1821660">
	<ele>1787.00</ele>
	<time>2025-08-16T08:33:05.000Z</time>
</trkpt>
<trkpt lat="45.9655520" lon="10.1821660">
	<ele>1787.20</ele>
	<time>2025-08-16T08:33:06.000Z</time>
</trkpt>
<trkpt lat="45.9655530" lon="10.1821660">
	<ele>1787.20</ele>
	<time>2025-08-16T08:33:07.000Z</time>
</trkpt>
<trkpt lat="45.9655530" lon="10.1821660">
	<ele>1787.40</ele>
	<time>2025-08-16T08:33:08.000Z</time>
</trkpt>
<trkpt lat="45.9655530" lon="10.1821660">
	<ele>1787.40</ele>
	<time>2025-08-16T08:33:09.000Z</time>
</trkpt>
<trkpt lat="45.9655530" lon="10.1821660">
	<ele>1787.40</ele>
	<time>2025-08-16T08:33:10.000Z</time>
</trkpt>
<trkpt lat="45.9655530" lon="10.1821660">
	<ele>1787.40</ele>
	<time>2025-08-16T08:33:11.000Z</time>
</trkpt>
<trkpt lat="45.9655540" lon="10.1821660">
	<ele>1787.40</ele>
	<time>2025-08-16T08:33:12.000Z</time>
</trkpt>
<trkpt lat="45.9655550" lon="10.1821660">
	<ele>1787.60</ele>
	<time>2025-08-16T08:33:13.000Z</time>
</trkpt>
<trkpt lat="45.9655550" lon="10.1821660">
	<ele>1787.60</ele>
	<time>2025-08-16T08:33:14.000Z</time>
</trkpt>
<trkpt lat="45.9655550" lon="10.1821660">
	<ele>1787.60</ele>
	<time>2025-08-16T08:33:15.000Z</time>
</trkpt>
<trkpt lat="45.9655550" lon="10.1821660">
	<ele>1787.60</ele>
	<time>2025-08-16T08:33:16.000Z</time>
</trkpt>
<trkpt lat="45.9655560" lon="10.1821660">
	<ele>1787.60</ele>
	<time>2025-08-16T08:33:17.000Z</time>
</trkpt>
<trkpt lat="45.9655570" lon="10.1821660">
	<ele>1787.60</ele>
	<time>2025-08-16T08:33:18.000Z</time>
</trkpt>
<trkpt lat="45.9655570" lon="10.1821660">
	<ele>1787.60</ele>
	<time>2025-08-16T08:33:19.000Z</time>
</trkpt>
<trkpt lat="45.9655570" lon="10.1821660">
	<ele>1787.60</ele>
	<time>2025-08-16T08:33:20.000Z</time>
</trkpt>
<trkpt lat="45.9655570" lon="10.1821660">
	<ele>1787.60</ele>
	<time>2025-08-16T08:33:21.000Z</time>
</trkpt>
<trkpt lat="45.9655570" lon="10.1821660">
	<ele>1787.40</ele>
	<time>2025-08-16T08:33:22.000Z</time>
</trkpt>
<trkpt lat="45.9655570" lon="10.1821660">
	<ele>1787.40</ele>
	<time>2025-08-16T08:33:23.000Z</time>
</trkpt>
<trkpt lat="45.9655580" lon="10.1821660">
	<ele>1787.20</ele>
	<time>2025-08-16T08:33:24.000Z</time>
</trkpt>
<trkpt lat="45.9655580" lon="10.1821660">
	<ele>1787.20</ele>
	<time>2025-08-16T08:33:25.000Z</time>
</trkpt>
<trkpt lat="45.9655580" lon="10.1821660">
	<ele>1787.00</ele>
	<time>2025-08-16T08:33:26.000Z</time>
</trkpt>
<trkpt lat="45.9655580" lon="10.1821670">
	<ele>1787.00</ele>
	<time>2025-08-16T08:33:27.000Z</time>
</trkpt>
<trkpt lat="45.9655590" lon="10.1821670">
	<ele>1787.00</ele>
	<time>2025-08-16T08:33:28.000Z</time>
</trkpt>
<trkpt lat="45.9655590" lon="10.1821680">
	<ele>1787.00</ele>
	<time>2025-08-16T08:33:29.000Z</time>
</trkpt>
<trkpt lat="45.9655610" lon="10.1821680">
	<ele>1787.00</ele>
	<time>2025-08-16T08:33:30.000Z</time>
</trkpt>
<trkpt lat="45.9655620" lon="10.1821680">
	<ele>1787.20</ele>
	<time>2025-08-16T08:33:31.000Z</time>
</trkpt>
<trkpt lat="45.9655630" lon="10.1821680">
	<ele>1787.20</ele>
	<time>2025-08-16T08:33:32.000Z</time>
</trkpt>
<trkpt lat="45.9655640" lon="10.1821690">
	<ele>1787.20</ele>
	<time>2025-08-16T08:33:33.000Z</time>
</trkpt>
<trkpt lat="45.9655640" lon="10.1821690">
	<ele>1787.40</ele>
	<time>2025-08-16T08:33:34.000Z</time>
</trkpt>
<trkpt lat="45.9655640" lon="10.1821690">
	<ele>1787.40</ele>
	<time>2025-08-16T08:33:35.000Z</time>
</trkpt>
<trkpt lat="45.9655640" lon="10.1821690">
	<ele>1787.60</ele>
	<time>2025-08-16T08:33:36.000Z</time>
</trkpt>
<trkpt lat="45.9655650" lon="10.1821690">
	<ele>1787.80</ele>
	<time>2025-08-16T08:33:37.000Z</time>
</trkpt>
<trkpt lat="45.9655650" lon="10.1821700">
	<ele>1787.80</ele>
	<time>2025-08-16T08:33:38.000Z</time>
</trkpt>
<trkpt lat="45.9655650" lon="10.1821700">
	<ele>1788.00</ele>
	<time>2025-08-16T08:33:39.000Z</time>
</trkpt>
<trkpt lat="45.9655650" lon="10.1821700">
	<ele>1788.00</ele>
	<time>2025-08-16T08:33:40.000Z</time>
</trkpt>
<trkpt lat="45.9655650" lon="10.1821700">
	<ele>1788.00</ele>
	<time>2025-08-16T08:33:41.000Z</time>
</trkpt>
<trkpt lat="45.9655660" lon="10.1821700">
	<ele>1788.20</ele>
	<time>2025-08-16T08:33:42.000Z</time>
</trkpt>
<trkpt lat="45.9655670" lon="10.1821700">
	<ele>1788.40</ele>
	<time>2025-08-16T08:33:43.000Z</time>
</trkpt>
<trkpt lat="45.9655680" lon="10.1821720">
	<ele>1788.40</ele>
	<time>2025-08-16T08:33:44.000Z</time>
</trkpt>
<trkpt lat="45.9655690" lon="10.1821720">
	<ele>1788.40</ele>
	<time>2025-08-16T08:33:45.000Z</time>
</trkpt>
<trkpt lat="45.9655700" lon="10.1821720">
	<ele>1788.60</ele>
	<time>2025-08-16T08:33:46.000Z</time>
</trkpt>
<trkpt lat="45.9655700" lon="10.1821720">
	<ele>1788.80</ele>
	<time>2025-08-16T08:33:47.000Z</time>
</trkpt>
<trkpt lat="45.9655710" lon="10.1821720">
	<ele>1788.80</ele>
	<time>2025-08-16T08:33:48.000Z</time>
</trkpt>
<trkpt lat="45.9655710" lon="10.1821720">
	<ele>1789.00</ele>
	<time>2025-08-16T08:33:49.000Z</time>
</trkpt>
<trkpt lat="45.9655680" lon="10.1821690">
	<ele>1788.80</ele>
	<time>2025-08-16T08:33:50.000Z</time>
</trkpt>
<trkpt lat="45.9655610" lon="10.1821530">
	<ele>1788.80</ele>
	<time>2025-08-16T08:33:51.000Z</time>
</trkpt>
<trkpt lat="45.9655540" lon="10.1821360">
	<ele>1788.60</ele>
	<time>2025-08-16T08:33:52.000Z</time>
</trkpt>
<trkpt lat="45.9655470" lon="10.1821170">
	<ele>1788.60</ele>
	<time>2025-08-16T08:33:53.000Z</time>
</trkpt>
<trkpt lat="45.9655400" lon="10.1821010">
	<ele>1788.40</ele>
	<time>2025-08-16T08:33:54.000Z</time>
</trkpt>
<trkpt lat="45.9655340" lon="10.1820810">
	<ele>1788.20</ele>
	<time>2025-08-16T08:33:55.000Z</time>
</trkpt>
<trkpt lat="45.9655260" lon="10.1820620">
	<ele>1788.00</ele>
	<time>2025-08-16T08:33:56.000Z</time>
</trkpt>
<trkpt lat="45.9655180" lon="10.1820450">
	<ele>1788.00</ele>
	<time>2025-08-16T08:33:57.000Z</time>
</trkpt>
<trkpt lat="45.9655100" lon="10.1820280">
	<ele>1787.80</ele>
	<time>2025-08-16T08:33:58.000Z</time>
</trkpt>
<trkpt lat="45.9655000" lon="10.1820150">
	<ele>1787.60</ele>
	<time>2025-08-16T08:33:59.000Z</time>
</trkpt>
<trkpt lat="45.9654930" lon="10.1820060">
	<ele>1787.40</ele>
	<time>2025-08-16T08:34:00.000Z</time>
</trkpt>
<trkpt lat="45.9654890" lon="10.1819930">
	<ele>1787.40</ele>
	<time>2025-08-16T08:34:01.000Z</time>
</trkpt>
<trkpt lat="45.9654860" lon="10.1819690">
	<ele>1787.40</ele>
	<time>2025-08-16T08:34:02.000Z</time>
</trkpt>
<trkpt lat="45.9654790" lon="10.1819570">
	<ele>1787.20</ele>
	<time>2025-08-16T08:34:03.000Z</time>
</trkpt>
<trkpt lat="45.9654780" lon="10.1819400">
	<ele>1787.20</ele>
	<time>2025-08-16T08:34:04.000Z</time>
</trkpt>
<trkpt lat="45.9654770" lon="10.1819230">
	<ele>1787.20</ele>
	<time>2025-08-16T08:34:05.000Z</time>
</trkpt>
<trkpt lat="45.9654750" lon="10.1819040">
	<ele>1787.20</ele>
	<time>2025-08-16T08:34:06.000Z</time>
</trkpt>
<trkpt lat="45.9654730" lon="10.1818870">
	<ele>1787.20</ele>
	<time>2025-08-16T08:34:07.000Z</time>
</trkpt>
<trkpt lat="45.9654710" lon="10.1818690">
	<ele>1787.20</ele>
	<time>2025-08-16T08:34:08.000Z</time>
</trkpt>
<trkpt lat="45.9654710" lon="10.1818500">
	<ele>1787.20</ele>
	<time>2025-08-16T08:34:09.000Z</time>
</trkpt>
<trkpt lat="45.9654740" lon="10.1818340">
	<ele>1787.20</ele>
	<time>2025-08-16T08:34:10.000Z</time>
</trkpt>
<trkpt lat="45.9654730" lon="10.1818220">
	<ele>1787.20</ele>
	<time>2025-08-16T08:34:11.000Z</time>
</trkpt>
<trkpt lat="45.9654720" lon="10.1818090">
	<ele>1787.20</ele>
	<time>2025-08-16T08:34:12.000Z</time>
</trkpt>
<trkpt lat="45.9654720" lon="10.1817890">
	<ele>1787.20</ele>
	<time>2025-08-16T08:34:13.000Z</time>
</trkpt>
<trkpt lat="45.9654740" lon="10.1817670">
	<ele>1787.20</ele>
	<time>2025-08-16T08:34:14.000Z</time>
</trkpt>
<trkpt lat="45.9654740" lon="10.1817460">
	<ele>1787.20</ele>
	<time>2025-08-16T08:34:15.000Z</time>
</trkpt>
<trkpt lat="45.9654740" lon="10.1817260">
	<ele>1787.20</ele>
	<time>2025-08-16T08:34:16.000Z</time>
</trkpt>
<trkpt lat="45.9654730" lon="10.1817120">
	<ele>1787.20</ele>
	<time>2025-08-16T08:34:17.000Z</time>
</trkpt>
<trkpt lat="45.9654710" lon="10.1816960">
	<ele>1787.20</ele>
	<time>2025-08-16T08:34:18.000Z</time>
</trkpt>
<trkpt lat="45.9654700" lon="10.1816810">
	<ele>1787.20</ele>
	<time>2025-08-16T08:34:19.000Z</time>
</trkpt>
<trkpt lat="45.9654690" lon="10.1816620">
	<ele>1787.20</ele>
	<time>2025-08-16T08:34:20.000Z</time>
</trkpt>
<trkpt lat="45.9654670" lon="10.1816450">
	<ele>1787.40</ele>
	<time>2025-08-16T08:34:21.000Z</time>
</trkpt>
<trkpt lat="45.9654630" lon="10.1816290">
	<ele>1787.40</ele>
	<time>2025-08-16T08:34:22.000Z</time>
</trkpt>
<trkpt lat="45.9654590" lon="10.1816160">
	<ele>1787.40</ele>
	<time>2025-08-16T08:34:23.000Z</time>
</trkpt>
<trkpt lat="45.9654550" lon="10.1816030">
	<ele>1787.40</ele>
	<time>2025-08-16T08:34:24.000Z</time>
</trkpt>
<trkpt lat="45.9654530" lon="10.1815850">
	<ele>1787.40</ele>
	<time>2025-08-16T08:34:25.000Z</time>
</trkpt>
<trkpt lat="45.9654500" lon="10.1815700">
	<ele>1787.40</ele>
	<time>2025-08-16T08:34:26.000Z</time>
</trkpt>
<trkpt lat="45.9654500" lon="10.1815550">
	<ele>1787.40</ele>
	<time>2025-08-16T08:34:27.000Z</time>
</trkpt>
<trkpt lat="45.9654480" lon="10.1815420">
	<ele>1787.40</ele>
	<time>2025-08-16T08:34:28.000Z</time>
</trkpt>
<trkpt lat="45.9654470" lon="10.1815330">
	<ele>1787.40</ele>
	<time>2025-08-16T08:34:29.000Z</time>
</trkpt>
<trkpt lat="45.9654440" lon="10.1815240">
	<ele>1787.40</ele>
	<time>2025-08-16T08:34:30.000Z</time>
</trkpt>
<trkpt lat="45.9654390" lon="10.1815120">
	<ele>1787.40</ele>
	<time>2025-08-16T08:34:31.000Z</time>
</trkpt>
<trkpt lat="45.9654330" lon="10.1814970">
	<ele>1787.40</ele>
	<time>2025-08-16T08:34:32.000Z</time>
</trkpt>
<trkpt lat="45.9654300" lon="10.1814820">
	<ele>1787.60</ele>
	<time>2025-08-16T08:34:33.000Z</time>
</trkpt>
<trkpt lat="45.9654260" lon="10.1814680">
	<ele>1787.60</ele>
	<time>2025-08-16T08:34:34.000Z</time>
</trkpt>
<trkpt lat="45.9654210" lon="10.1814560">
	<ele>1787.80</ele>
	<time>2025-08-16T08:34:35.000Z</time>
</trkpt>
<trkpt lat="45.9654170" lon="10.1814460">
	<ele>1788.00</ele>
	<time>2025-08-16T08:34:36.000Z</time>
</trkpt>
<trkpt lat="45.9654160" lon="10.1814330">
	<ele>1788.00</ele>
	<time>2025-08-16T08:34:37.000Z</time>
</trkpt>
<trkpt lat="45.9654140" lon="10.1814130">
	<ele>1788.20</ele>
	<time>2025-08-16T08:34:38.000Z</time>
</trkpt>
<trkpt lat="45.9654070" lon="10.1814000">
	<ele>1788.20</ele>
	<time>2025-08-16T08:34:39.000Z</time>
</trkpt>
<trkpt lat="45.9654000" lon="10.1813920">
	<ele>1788.20</ele>
	<time>2025-08-16T08:34:40.000Z</time>
</trkpt>
<trkpt lat="45.9653940" lon="10.1813850">
	<ele>1788.20</ele>
	<time>2025-08-16T08:34:41.000Z</time>
</trkpt>
<trkpt lat="45.9653880" lon="10.1813700">
	<ele>1788.20</ele>
	<time>2025-08-16T08:34:42.000Z</time>
</trkpt>
<trkpt lat="45.9653860" lon="10.1813540">
	<ele>1788.20</ele>
	<time>2025-08-16T08:34:43.000Z</time>
</trkpt>
<trkpt lat="45.9653860" lon="10.1813340">
	<ele>1788.00</ele>
	<time>2025-08-16T08:34:44.000Z</time>
</trkpt>
<trkpt lat="45.9653850" lon="10.1813150">
	<ele>1787.80</ele>
	<time>2025-08-16T08:34:45.000Z</time>
</trkpt>
<trkpt lat="45.9653860" lon="10.1812930">
	<ele>1787.80</ele>
	<time>2025-08-16T08:34:46.000Z</time>
</trkpt>
<trkpt lat="45.9653870" lon="10.1812730">
	<ele>1787.80</ele>
	<time>2025-08-16T08:34:47.000Z</time>
</trkpt>
<trkpt lat="45.9653840" lon="10.1812510">
	<ele>1787.60</ele>
	<time>2025-08-16T08:34:48.000Z</time>
</trkpt>
<trkpt lat="45.9653840" lon="10.1812300">
	<ele>1787.60</ele>
	<time>2025-08-16T08:34:49.000Z</time>
</trkpt>
<trkpt lat="45.9653880" lon="10.1812090">
	<ele>1787.60</ele>
	<time>2025-08-16T08:34:50.000Z</time>
</trkpt>
<trkpt lat="45.9653910" lon="10.1811930">
	<ele>1787.60</ele>
	<time>2025-08-16T08:34:51.000Z</time>
</trkpt>
<trkpt lat="45.9653940" lon="10.1811760">
	<ele>1787.80</ele>
	<time>2025-08-16T08:34:52.000Z</time>
</trkpt>
<trkpt lat="45.9653950" lon="10.1811630">
	<ele>1787.80</ele>
	<time>2025-08-16T08:34:53.000Z</time>
</trkpt>
<trkpt lat="45.9653950" lon="10.1811530">
	<ele>1788.00</ele>
	<time>2025-08-16T08:34:54.000Z</time>
</trkpt>
<trkpt lat="45.9653960" lon="10.1811380">
	<ele>1788.20</ele>
	<time>2025-08-16T08:34:55.000Z</time>
</trkpt>
<trkpt lat="45.9654010" lon="10.1811250">
	<ele>1788.20</ele>
	<time>2025-08-16T08:34:56.000Z</time>
</trkpt>
<trkpt lat="45.9654020" lon="10.1811070">
	<ele>1788.20</ele>
	<time>2025-08-16T08:34:57.000Z</time>
</trkpt>
<trkpt lat="45.9654040" lon="10.1810920">
	<ele>1788.20</ele>
	<time>2025-08-16T08:34:58.000Z</time>
</trkpt>
<trkpt lat="45.9654070" lon="10.1810780">
	<ele>1788.20</ele>
	<time>2025-08-16T08:34:59.000Z</time>
</trkpt>
<trkpt lat="45.9654110" lon="10.1810650">
	<ele>1788.20</ele>
	<time>2025-08-16T08:35:00.000Z</time>
</trkpt>
<trkpt lat="45.9654190" lon="10.1810510">
	<ele>1788.20</ele>
	<time>2025-08-16T08:35:01.000Z</time>
</trkpt>
<trkpt lat="45.9654240" lon="10.1810360">
	<ele>1788.20</ele>
	<time>2025-08-16T08:35:02.000Z</time>
</trkpt>
<trkpt lat="45.9654330" lon="10.1810190">
	<ele>1788.20</ele>
	<time>2025-08-16T08:35:03.000Z</time>
</trkpt>
<trkpt lat="45.9654410" lon="10.1809950">
	<ele>1788.20</ele>
	<time>2025-08-16T08:35:04.000Z</time>
</trkpt>
<trkpt lat="45.9654390" lon="10.1809750">
	<ele>1788.20</ele>
	<time>2025-08-16T08:35:05.000Z</time>
</trkpt>
<trkpt lat="45.9654380" lon="10.1809580">
	<ele>1788.20</ele>
	<time>2025-08-16T08:35:06.000Z</time>
</trkpt>
<trkpt lat="45.9654400" lon="10.1809390">
	<ele>1788.20</ele>
	<time>2025-08-16T08:35:07.000Z</time>
</trkpt>
<trkpt lat="45.9654380" lon="10.1809170">
	<ele>1788.20</ele>
	<time>2025-08-16T08:35:08.000Z</time>
</trkpt>
<trkpt lat="45.9654290" lon="10.1808980">
	<ele>1788.20</ele>
	<time>2025-08-16T08:35:09.000Z</time>
</trkpt>
<trkpt lat="45.9654210" lon="10.1808830">
	<ele>1788.20</ele>
	<time>2025-08-16T08:35:10.000Z</time>
</trkpt>
<trkpt lat="45.9654160" lon="10.1808680">
	<ele>1788.00</ele>
	<time>2025-08-16T08:35:11.000Z</time>
</trkpt>
<trkpt lat="45.9654150" lon="10.1808520">
	<ele>1788.00</ele>
	<time>2025-08-16T08:35:12.000Z</time>
</trkpt>
<trkpt lat="45.9654190" lon="10.1808380">
	<ele>1788.00</ele>
	<time>2025-08-16T08:35:13.000Z</time>
</trkpt>
<trkpt lat="45.9654260" lon="10.1808190">
	<ele>1788.00</ele>
	<time>2025-08-16T08:35:14.000Z</time>
</trkpt>
<trkpt lat="45.9654250" lon="10.1807990">
	<ele>1788.00</ele>
	<time>2025-08-16T08:35:15.000Z</time>
</trkpt>
<trkpt lat="45.9654250" lon="10.1807850">
	<ele>1788.00</ele>
	<time>2025-08-16T08:35:16.000Z</time>
</trkpt>
<trkpt lat="45.9654250" lon="10.1807710">
	<ele>1788.00</ele>
	<time>2025-08-16T08:35:17.000Z</time>
</trkpt>
<trkpt lat="45.9654190" lon="10.1807590">
	<ele>1788.00</ele>
	<time>2025-08-16T08:35:18.000Z</time>
</trkpt>
<trkpt lat="45.9654120" lon="10.1807470">
	<ele>1787.80</ele>
	<time>2025-08-16T08:35:19.000Z</time>
</trkpt>
<trkpt lat="45.9654070" lon="10.1807360">
	<ele>1787.80</ele>
	<time>2025-08-16T08:35:20.000Z</time>
</trkpt>
<trkpt lat="45.9654080" lon="10.1807160">
	<ele>1787.80</ele>
	<time>2025-08-16T08:35:21.000Z</time>
</trkpt>
<trkpt lat="45.9654080" lon="10.1807010">
	<ele>1787.60</ele>
	<time>2025-08-16T08:35:22.000Z</time>
</trkpt>
<trkpt lat="45.9654060" lon="10.1806830">
	<ele>1787.60</ele>
	<time>2025-08-16T08:35:23.000Z</time>
</trkpt>
<trkpt lat="45.9654050" lon="10.1806710">
	<ele>1787.60</ele>
	<time>2025-08-16T08:35:24.000Z</time>
</trkpt>
<trkpt lat="45.9654070" lon="10.1806540">
	<ele>1787.60</ele>
	<time>2025-08-16T08:35:25.000Z</time>
</trkpt>
<trkpt lat="45.9654100" lon="10.1806310">
	<ele>1787.40</ele>
	<time>2025-08-16T08:35:26.000Z</time>
</trkpt>
<trkpt lat="45.9654080" lon="10.1806130">
	<ele>1787.40</ele>
	<time>2025-08-16T08:35:27.000Z</time>
</trkpt>
<trkpt lat="45.9654080" lon="10.1805990">
	<ele>1787.40</ele>
	<time>2025-08-16T08:35:28.000Z</time>
</trkpt>
<trkpt lat="45.9654090" lon="10.1805860">
	<ele>1787.40</ele>
	<time>2025-08-16T08:35:29.000Z</time>
</trkpt>
<trkpt lat="45.9654110" lon="10.1805690">
	<ele>1787.40</ele>
	<time>2025-08-16T08:35:30.000Z</time>
</trkpt>
<trkpt lat="45.9654130" lon="10.1805490">
	<ele>1787.40</ele>
	<time>2025-08-16T08:35:31.000Z</time>
</trkpt>
<trkpt lat="45.9654130" lon="10.1805310">
	<ele>1787.20</ele>
	<time>2025-08-16T08:35:32.000Z</time>
</trkpt>
<trkpt lat="45.9654110" lon="10.1805180">
	<ele>1787.00</ele>
	<time>2025-08-16T08:35:33.000Z</time>
</trkpt>
<trkpt lat="45.9654140" lon="10.1804980">
	<ele>1787.00</ele>
	<time>2025-08-16T08:35:34.000Z</time>
</trkpt>
<trkpt lat="45.9654140" lon="10.1804800">
	<ele>1786.80</ele>
	<time>2025-08-16T08:35:35.000Z</time>
</trkpt>
<trkpt lat="45.9654150" lon="10.1804680">
	<ele>1786.60</ele>
	<time>2025-08-16T08:35:36.000Z</time>
</trkpt>
<trkpt lat="45.9654110" lon="10.1804550">
	<ele>1786.60</ele>
	<time>2025-08-16T08:35:37.000Z</time>
</trkpt>
<trkpt lat="45.9654100" lon="10.1804420">
	<ele>1786.40</ele>
	<time>2025-08-16T08:35:38.000Z</time>
</trkpt>
<trkpt lat="45.9654080" lon="10.1804290">
	<ele>1786.20</ele>
	<time>2025-08-16T08:35:39.000Z</time>
</trkpt>
<trkpt lat="45.9654090" lon="10.1804100">
	<ele>1786.00</ele>
	<time>2025-08-16T08:35:40.000Z</time>
</trkpt>
<trkpt lat="45.9654080" lon="10.1803900">
	<ele>1785.80</ele>
	<time>2025-08-16T08:35:41.000Z</time>
</trkpt>
<trkpt lat="45.9654060" lon="10.1803680">
	<ele>1785.60</ele>
	<time>2025-08-16T08:35:42.000Z</time>
</trkpt>
<trkpt lat="45.9654020" lon="10.1803530">
	<ele>1785.40</ele>
	<time>2025-08-16T08:35:43.000Z</time>
</trkpt>
<trkpt lat="45.9654010" lon="10.1803360">
	<ele>1785.40</ele>
	<time>2025-08-16T08:35:44.000Z</time>
</trkpt>
<trkpt lat="45.9654010" lon="10.1803210">
	<ele>1785.20</ele>
	<time>2025-08-16T08:35:45.000Z</time>
</trkpt>
<trkpt lat="45.9654010" lon="10.1803050">
	<ele>1785.20</ele>
	<time>2025-08-16T08:35:46.000Z</time>
</trkpt>
<trkpt lat="45.9653970" lon="10.1802960">
	<ele>1785.20</ele>
	<time>2025-08-16T08:35:47.000Z</time>
</trkpt>
<trkpt lat="45.9653920" lon="10.1802840">
	<ele>1785.00</ele>
	<time>2025-08-16T08:35:48.000Z</time>
</trkpt>
<trkpt lat="45.9653860" lon="10.1802700">
	<ele>1785.00</ele>
	<time>2025-08-16T08:35:49.000Z</time>
</trkpt>
<trkpt lat="45.9653810" lon="10.1802610">
	<ele>1785.00</ele>
	<time>2025-08-16T08:35:50.000Z</time>
</trkpt>
<trkpt lat="45.9653780" lon="10.1802520">
	<ele>1785.20</ele>
	<time>2025-08-16T08:35:51.000Z</time>
</trkpt>
<trkpt lat="45.9653780" lon="10.1802440">
	<ele>1785.00</ele>
	<time>2025-08-16T08:35:52.000Z</time>
</trkpt>
<trkpt lat="45.9653810" lon="10.1802330">
	<ele>1785.00</ele>
	<time>2025-08-16T08:35:53.000Z</time>
</trkpt>
<trkpt lat="45.9653790" lon="10.1802180">
	<ele>1784.80</ele>
	<time>2025-08-16T08:35:54.000Z</time>
</trkpt>
<trkpt lat="45.9653730" lon="10.1802010">
	<ele>1784.80</ele>
	<time>2025-08-16T08:35:55.000Z</time>
</trkpt>
<trkpt lat="45.9653620" lon="10.1801840">
	<ele>1784.80</ele>
	<time>2025-08-16T08:35:56.000Z</time>
</trkpt>
<trkpt lat="45.9653500" lon="10.1801680">
	<ele>1784.80</ele>
	<time>2025-08-16T08:35:57.000Z</time>
</trkpt>
<trkpt lat="45.9653440" lon="10.1801540">
	<ele>1784.60</ele>
	<time>2025-08-16T08:35:58.000Z</time>
</trkpt>
<trkpt lat="45.9653360" lon="10.1801420">
	<ele>1784.60</ele>
	<time>2025-08-16T08:35:59.000Z</time>
</trkpt>
<trkpt lat="45.9653300" lon="10.1801320">
	<ele>1784.60</ele>
	<time>2025-08-16T08:36:00.000Z</time>
</trkpt>
<trkpt lat="45.9653260" lon="10.1801200">
	<ele>1784.60</ele>
	<time>2025-08-16T08:36:01.000Z</time>
</trkpt>
<trkpt lat="45.9653190" lon="10.1800960">
	<ele>1784.60</ele>
	<time>2025-08-16T08:36:02.000Z</time>
</trkpt>
<trkpt lat="45.9653150" lon="10.1800690">
	<ele>1784.60</ele>
	<time>2025-08-16T08:36:03.000Z</time>
</trkpt>
<trkpt lat="45.9653140" lon="10.1800560">
	<ele>1784.60</ele>
	<time>2025-08-16T08:36:04.000Z</time>
</trkpt>
<trkpt lat="45.9653100" lon="10.1800400">
	<ele>1784.40</ele>
	<time>2025-08-16T08:36:05.000Z</time>
</trkpt>
<trkpt lat="45.9653100" lon="10.1800140">
	<ele>1784.40</ele>
	<time>2025-08-16T08:36:06.000Z</time>
</trkpt>
<trkpt lat="45.9653070" lon="10.1799900">
	<ele>1784.40</ele>
	<time>2025-08-16T08:36:07.000Z</time>
</trkpt>
<trkpt lat="45.9653150" lon="10.1799670">
	<ele>1784.40</ele>
	<time>2025-08-16T08:36:08.000Z</time>
</trkpt>
<trkpt lat="45.9653090" lon="10.1799560">
	<ele>1784.20</ele>
	<time>2025-08-16T08:36:09.000Z</time>
</trkpt>
<trkpt lat="45.9653000" lon="10.1799490">
	<ele>1784.20</ele>
	<time>2025-08-16T08:36:10.000Z</time>
</trkpt>
<trkpt lat="45.9652850" lon="10.1799400">
	<ele>1784.20</ele>
	<time>2025-08-16T08:36:11.000Z</time>
</trkpt>
<trkpt lat="45.9652800" lon="10.1799250">
	<ele>1784.20</ele>
	<time>2025-08-16T08:36:12.000Z</time>
</trkpt>
<trkpt lat="45.9652750" lon="10.1799100">
	<ele>1784.20</ele>
	<time>2025-08-16T08:36:13.000Z</time>
</trkpt>
<trkpt lat="45.9652710" lon="10.1798980">
	<ele>1784.20</ele>
	<time>2025-08-16T08:36:14.000Z</time>
</trkpt>
<trkpt lat="45.9652690" lon="10.1798740">
	<ele>1784.20</ele>
	<time>2025-08-16T08:36:15.000Z</time>
</trkpt>
<trkpt lat="45.9652670" lon="10.1798540">
	<ele>1784.20</ele>
	<time>2025-08-16T08:36:16.000Z</time>
</trkpt>
<trkpt lat="45.9652650" lon="10.1798310">
	<ele>1784.20</ele>
	<time>2025-08-16T08:36:17.000Z</time>
</trkpt>
<trkpt lat="45.9652600" lon="10.1798090">
	<ele>1784.40</ele>
	<time>2025-08-16T08:36:18.000Z</time>
</trkpt>
<trkpt lat="45.9652570" lon="10.1798000">
	<ele>1784.40</ele>
	<time>2025-08-16T08:36:19.000Z</time>
</trkpt>
<trkpt lat="45.9652540" lon="10.1797800">
	<ele>1784.60</ele>
	<time>2025-08-16T08:36:20.000Z</time>
</trkpt>
<trkpt lat="45.9652510" lon="10.1797610">
	<ele>1784.60</ele>
	<time>2025-08-16T08:36:21.000Z</time>
</trkpt>
<trkpt lat="45.9652530" lon="10.1797500">
	<ele>1784.60</ele>
	<time>2025-08-16T08:36:22.000Z</time>
</trkpt>
<trkpt lat="45.9652470" lon="10.1797340">
	<ele>1784.60</ele>
	<time>2025-08-16T08:36:23.000Z</time>
</trkpt>
<trkpt lat="45.9652390" lon="10.1797230">
	<ele>1784.60</ele>
	<time>2025-08-16T08:36:24.000Z</time>
</trkpt>
<trkpt lat="45.9652350" lon="10.1797120">
	<ele>1784.80</ele>
	<time>2025-08-16T08:36:25.000Z</time>
</trkpt>
<trkpt lat="45.9652340" lon="10.1797020">
	<ele>1784.80</ele>
	<time>2025-08-16T08:36:26.000Z</time>
</trkpt>
<trkpt lat="45.9652300" lon="10.1796920">
	<ele>1785.00</ele>
	<time>2025-08-16T08:36:27.000Z</time>
</trkpt>
<trkpt lat="45.9652270" lon="10.1796860">
	<ele>1785.00</ele>
	<time>2025-08-16T08:36:28.000Z</time>
</trkpt>
<trkpt lat="45.9652250" lon="10.1796810">
	<ele>1785.00</ele>
	<time>2025-08-16T08:36:29.000Z</time>
</trkpt>
<trkpt lat="45.9652230" lon="10.1796830">
	<ele>1785.00</ele>
	<time>2025-08-16T08:36:30.000Z</time>
</trkpt>
<trkpt lat="45.9652210" lon="10.1796830">
	<ele>1785.00</ele>
	<time>2025-08-16T08:36:31.000Z</time>
</trkpt>
<trkpt lat="45.9652210" lon="10.1796830">
	<ele>1785.00</ele>
	<time>2025-08-16T08:36:32.000Z</time>
</trkpt>
<trkpt lat="45.9652210" lon="10.1796820">
	<ele>1785.00</ele>
	<time>2025-08-16T08:36:33.000Z</time>
</trkpt>
<trkpt lat="45.9652230" lon="10.1796810">
	<ele>1784.80</ele>
	<time>2025-08-16T08:36:34.000Z</time>
</trkpt>
<trkpt lat="45.9652240" lon="10.1796790">
	<ele>1785.00</ele>
	<time>2025-08-16T08:36:35.000Z</time>
</trkpt>
<trkpt lat="45.9652240" lon="10.1796770">
	<ele>1785.00</ele>
	<time>2025-08-16T08:36:36.000Z</time>
</trkpt>
<trkpt lat="45.9652260" lon="10.1796760">
	<ele>1785.00</ele>
	<time>2025-08-16T08:36:37.000Z</time>
</trkpt>
<trkpt lat="45.9652250" lon="10.1796740">
	<ele>1785.20</ele>
	<time>2025-08-16T08:36:38.000Z</time>
</trkpt>
<trkpt lat="45.9652240" lon="10.1796700">
	<ele>1785.20</ele>
	<time>2025-08-16T08:36:39.000Z</time>
</trkpt>
<trkpt lat="45.9652230" lon="10.1796680">
	<ele>1785.20</ele>
	<time>2025-08-16T08:36:40.000Z</time>
</trkpt>
<trkpt lat="45.9652230" lon="10.1796660">
	<ele>1785.40</ele>
	<time>2025-08-16T08:36:41.000Z</time>
</trkpt>
<trkpt lat="45.9652210" lon="10.1796660">
	<ele>1785.40</ele>
	<time>2025-08-16T08:36:42.000Z</time>
</trkpt>
<trkpt lat="45.9652200" lon="10.1796700">
	<ele>1785.40</ele>
	<time>2025-08-16T08:36:43.000Z</time>
</trkpt>
<trkpt lat="45.9652190" lon="10.1796710">
	<ele>1785.40</ele>
	<time>2025-08-16T08:36:44.000Z</time>
</trkpt>
<trkpt lat="45.9652190" lon="10.1796660">
	<ele>1785.20</ele>
	<time>2025-08-16T08:36:45.000Z</time>
</trkpt>
<trkpt lat="45.9652170" lon="10.1796680">
	<ele>1785.20</ele>
	<time>2025-08-16T08:36:46.000Z</time>
</trkpt>
<trkpt lat="45.9652110" lon="10.1796600">
	<ele>1785.20</ele>
	<time>2025-08-16T08:36:47.000Z</time>
</trkpt>
<trkpt lat="45.9652080" lon="10.1796540">
	<ele>1785.20</ele>
	<time>2025-08-16T08:36:48.000Z</time>
</trkpt>
<trkpt lat="45.9651990" lon="10.1796520">
	<ele>1785.20</ele>
	<time>2025-08-16T08:36:49.000Z</time>
</trkpt>
<trkpt lat="45.9651900" lon="10.1796470">
	<ele>1785.20</ele>
	<time>2025-08-16T08:36:50.000Z</time>
</trkpt>
<trkpt lat="45.9651840" lon="10.1796470">
	<ele>1785.20</ele>
	<time>2025-08-16T08:36:51.000Z</time>
</trkpt>
<trkpt lat="45.9651800" lon="10.1796400">
	<ele>1785.20</ele>
	<time>2025-08-16T08:36:52.000Z</time>
</trkpt>
<trkpt lat="45.9651780" lon="10.1796340">
	<ele>1785.00</ele>
	<time>2025-08-16T08:36:53.000Z</time>
</trkpt>
<trkpt lat="45.9651780" lon="10.1796250">
	<ele>1785.00</ele>
	<time>2025-08-16T08:36:54.000Z</time>
</trkpt>
<trkpt lat="45.9651800" lon="10.1796210">
	<ele>1784.80</ele>
	<time>2025-08-16T08:36:55.000Z</time>
</trkpt>
<trkpt lat="45.9651810" lon="10.1796180">
	<ele>1784.80</ele>
	<time>2025-08-16T08:36:56.000Z</time>
</trkpt>
<trkpt lat="45.9651800" lon="10.1796200">
	<ele>1784.80</ele>
	<time>2025-08-16T08:36:57.000Z</time>
</trkpt>
<trkpt lat="45.9651790" lon="10.1796200">
	<ele>1784.80</ele>
	<time>2025-08-16T08:36:58.000Z</time>
</trkpt>
<trkpt lat="45.9651820" lon="10.1796110">
	<ele>1784.80</ele>
	<time>2025-08-16T08:36:59.000Z</time>
</trkpt>
<trkpt lat="45.9651850" lon="10.1795980">
	<ele>1784.80</ele>
	<time>2025-08-16T08:37:00.000Z</time>
</trkpt>
<trkpt lat="45.9651870" lon="10.1795810">
	<ele>1785.00</ele>
	<time>2025-08-16T08:37:01.000Z</time>
</trkpt>
<trkpt lat="45.9651820" lon="10.1795690">
	<ele>1785.20</ele>
	<time>2025-08-16T08:37:02.000Z</time>
</trkpt>
<trkpt lat="45.9651750" lon="10.1795520">
	<ele>1785.20</ele>
	<time>2025-08-16T08:37:03.000Z</time>
</trkpt>
<trkpt lat="45.9651730" lon="10.1795340">
	<ele>1785.20</ele>
	<time>2025-08-16T08:37:04.000Z</time>
</trkpt>
<trkpt lat="45.9651690" lon="10.1795180">
	<ele>1785.40</ele>
	<time>2025-08-16T08:37:05.000Z</time>
</trkpt>
<trkpt lat="45.9651650" lon="10.1795060">
	<ele>1785.40</ele>
	<time>2025-08-16T08:37:06.000Z</time>
</trkpt>
<trkpt lat="45.9651600" lon="10.1794930">
	<ele>1785.40</ele>
	<time>2025-08-16T08:37:07.000Z</time>
</trkpt>
<trkpt lat="45.9651560" lon="10.1794810">
	<ele>1785.40</ele>
	<time>2025-08-16T08:37:08.000Z</time>
</trkpt>
<trkpt lat="45.9651510" lon="10.1794690">
	<ele>1785.40</ele>
	<time>2025-08-16T08:37:09.000Z</time>
</trkpt>
<trkpt lat="45.9651450" lon="10.1794580">
	<ele>1785.60</ele>
	<time>2025-08-16T08:37:10.000Z</time>
</trkpt>
<trkpt lat="45.9651340" lon="10.1794530">
	<ele>1785.60</ele>
	<time>2025-08-16T08:37:11.000Z</time>
</trkpt>
<trkpt lat="45.9651250" lon="10.1794520">
	<ele>1785.80</ele>
	<time>2025-08-16T08:37:12.000Z</time>
</trkpt>
<trkpt lat="45.9651200" lon="10.1794470">
	<ele>1786.00</ele>
	<time>2025-08-16T08:37:13.000Z</time>
</trkpt>
<trkpt lat="45.9651170" lon="10.1794330">
	<ele>1786.20</ele>
	<time>2025-08-16T08:37:14.000Z</time>
</trkpt>
<trkpt lat="45.9651160" lon="10.1794190">
	<ele>1786.20</ele>
	<time>2025-08-16T08:37:15.000Z</time>
</trkpt>
<trkpt lat="45.9651200" lon="10.1794150">
	<ele>1786.40</ele>
	<time>2025-08-16T08:37:16.000Z</time>
</trkpt>
<trkpt lat="45.9651110" lon="10.1794100">
	<ele>1786.60</ele>
	<time>2025-08-16T08:37:17.000Z</time>
</trkpt>
<trkpt lat="45.9651060" lon="10.1793970">
	<ele>1786.80</ele>
	<time>2025-08-16T08:37:18.000Z</time>
</trkpt>
<trkpt lat="45.9651030" lon="10.1793940">
	<ele>1787.00</ele>
	<time>2025-08-16T08:37:19.000Z</time>
</trkpt>
<trkpt lat="45.9651000" lon="10.1793910">
	<ele>1787.20</ele>
	<time>2025-08-16T08:37:20.000Z</time>
</trkpt>
<trkpt lat="45.9650930" lon="10.1793910">
	<ele>1787.40</ele>
	<time>2025-08-16T08:37:21.000Z</time>
</trkpt>
<trkpt lat="45.9650890" lon="10.1793880">
	<ele>1787.60</ele>
	<time>2025-08-16T08:37:22.000Z</time>
</trkpt>
<trkpt lat="45.9650830" lon="10.1793810">
	<ele>1787.80</ele>
	<time>2025-08-16T08:37:23.000Z</time>
</trkpt>
<trkpt lat="45.9650780" lon="10.1793720">
	<ele>1787.80</ele>
	<time>2025-08-16T08:37:24.000Z</time>
</trkpt>
<trkpt lat="45.9650720" lon="10.1793620">
	<ele>1788.00</ele>
	<time>2025-08-16T08:37:25.000Z</time>
</trkpt>
<trkpt lat="45.9650640" lon="10.1793550">
	<ele>1788.00</ele>
	<time>2025-08-16T08:37:26.000Z</time>
</trkpt>
<trkpt lat="45.9650610" lon="10.1793430">
	<ele>1788.20</ele>
	<time>2025-08-16T08:37:27.000Z</time>
</trkpt>
<trkpt lat="45.9650620" lon="10.1793320">
	<ele>1788.40</ele>
	<time>2025-08-16T08:37:28.000Z</time>
</trkpt>
<trkpt lat="45.9650580" lon="10.1793220">
	<ele>1788.60</ele>
	<time>2025-08-16T08:37:29.000Z</time>
</trkpt>
<trkpt lat="45.9650540" lon="10.1793110">
	<ele>1788.60</ele>
	<time>2025-08-16T08:37:30.000Z</time>
</trkpt>
<trkpt lat="45.9650460" lon="10.1792960">
	<ele>1788.60</ele>
	<time>2025-08-16T08:37:31.000Z</time>
</trkpt>
<trkpt lat="45.9650420" lon="10.1792810">
	<ele>1788.60</ele>
	<time>2025-08-16T08:37:32.000Z</time>
</trkpt>
<trkpt lat="45.9650400" lon="10.1792650">
	<ele>1788.80</ele>
	<time>2025-08-16T08:37:33.000Z</time>
</trkpt>
<trkpt lat="45.9650370" lon="10.1792480">
	<ele>1788.80</ele>
	<time>2025-08-16T08:37:34.000Z</time>
</trkpt>
<trkpt lat="45.9650320" lon="10.1792360">
	<ele>1788.80</ele>
	<time>2025-08-16T08:37:35.000Z</time>
</trkpt>
<trkpt lat="45.9650290" lon="10.1792210">
	<ele>1788.80</ele>
	<time>2025-08-16T08:37:36.000Z</time>
</trkpt>
<trkpt lat="45.9650250" lon="10.1792070">
	<ele>1788.80</ele>
	<time>2025-08-16T08:37:37.000Z</time>
</trkpt>
<trkpt lat="45.9650210" lon="10.1791910">
	<ele>1789.00</ele>
	<time>2025-08-16T08:37:38.000Z</time>
</trkpt>
<trkpt lat="45.9650190" lon="10.1791800">
	<ele>1789.20</ele>
	<time>2025-08-16T08:37:39.000Z</time>
</trkpt>
<trkpt lat="45.9650180" lon="10.1791670">
	<ele>1789.20</ele>
	<time>2025-08-16T08:37:40.000Z</time>
</trkpt>
<trkpt lat="45.9650200" lon="10.1791510">
	<ele>1789.40</ele>
	<time>2025-08-16T08:37:41.000Z</time>
</trkpt>
<trkpt lat="45.9650220" lon="10.1791350">
	<ele>1789.60</ele>
	<time>2025-08-16T08:37:42.000Z</time>
</trkpt>
<trkpt lat="45.9650240" lon="10.1791220">
	<ele>1789.80</ele>
	<time>2025-08-16T08:37:43.000Z</time>
</trkpt>
<trkpt lat="45.9650270" lon="10.1791110">
	<ele>1789.80</ele>
	<time>2025-08-16T08:37:44.000Z</time>
</trkpt>
<trkpt lat="45.9650280" lon="10.1791000">
	<ele>1790.00</ele>
	<time>2025-08-16T08:37:45.000Z</time>
</trkpt>
<trkpt lat="45.9650310" lon="10.1790830">
	<ele>1790.00</ele>
	<time>2025-08-16T08:37:46.000Z</time>
</trkpt>
<trkpt lat="45.9650330" lon="10.1790680">
	<ele>1790.20</ele>
	<time>2025-08-16T08:37:47.000Z</time>
</trkpt>
<trkpt lat="45.9650340" lon="10.1790550">
	<ele>1790.20</ele>
	<time>2025-08-16T08:37:48.000Z</time>
</trkpt>
<trkpt lat="45.9650370" lon="10.1790390">
	<ele>1790.40</ele>
	<time>2025-08-16T08:37:49.000Z</time>
</trkpt>
<trkpt lat="45.9650420" lon="10.1790280">
	<ele>1790.40</ele>
	<time>2025-08-16T08:37:50.000Z</time>
</trkpt>
<trkpt lat="45.9650440" lon="10.1790180">
	<ele>1790.40</ele>
	<time>2025-08-16T08:37:51.000Z</time>
</trkpt>
<trkpt lat="45.9650460" lon="10.1790140">
	<ele>1790.60</ele>
	<time>2025-08-16T08:37:52.000Z</time>
</trkpt>
<trkpt lat="45.9650480" lon="10.1790100">
	<ele>1790.60</ele>
	<time>2025-08-16T08:37:53.000Z</time>
</trkpt>
<trkpt lat="45.9650470" lon="10.1790030">
	<ele>1790.60</ele>
	<time>2025-08-16T08:37:54.000Z</time>
</trkpt>
<trkpt lat="45.9650450" lon="10.1789880">
	<ele>1790.60</ele>
	<time>2025-08-16T08:37:55.000Z</time>
</trkpt>
<trkpt lat="45.9650470" lon="10.1789740">
	<ele>1790.60</ele>
	<time>2025-08-16T08:37:56.000Z</time>
</trkpt>
<trkpt lat="45.9650530" lon="10.1789630">
	<ele>1790.60</ele>
	<time>2025-08-16T08:37:57.000Z</time>
</trkpt>
<trkpt lat="45.9650600" lon="10.1789470">
	<ele>1790.20</ele>
	<time>2025-08-16T08:37:58.000Z</time>
</trkpt>
<trkpt lat="45.9650640" lon="10.1789360">
	<ele>1790.00</ele>
	<time>2025-08-16T08:37:59.000Z</time>
</trkpt>
<trkpt lat="45.9650590" lon="10.1789170">
	<ele>1789.80</ele>
	<time>2025-08-16T08:38:00.000Z</time>
</trkpt>
<trkpt lat="45.9650480" lon="10.1789050">
	<ele>1789.40</ele>
	<time>2025-08-16T08:38:01.000Z</time>
</trkpt>
<trkpt lat="45.9650380" lon="10.1788910">
	<ele>1789.20</ele>
	<time>2025-08-16T08:38:02.000Z</time>
</trkpt>
<trkpt lat="45.9650340" lon="10.1788820">
	<ele>1789.00</ele>
	<time>2025-08-16T08:38:03.000Z</time>
</trkpt>
<trkpt lat="45.9650300" lon="10.1788830">
	<ele>1788.80</ele>
	<time>2025-08-16T08:38:04.000Z</time>
</trkpt>
<trkpt lat="45.9650370" lon="10.1788770">
	<ele>1788.60</ele>
	<time>2025-08-16T08:38:05.000Z</time>
</trkpt>
<trkpt lat="45.9650420" lon="10.1788700">
	<ele>1788.60</ele>
	<time>2025-08-16T08:38:06.000Z</time>
</trkpt>
<trkpt lat="45.9650400" lon="10.1788630">
	<ele>1788.60</ele>
	<time>2025-08-16T08:38:07.000Z</time>
</trkpt>
<trkpt lat="45.9650370" lon="10.1788520">
	<ele>1788.60</ele>
	<time>2025-08-16T08:38:08.000Z</time>
</trkpt>
<trkpt lat="45.9650380" lon="10.1788390">
	<ele>1788.80</ele>
	<time>2025-08-16T08:38:09.000Z</time>
</trkpt>
<trkpt lat="45.9650390" lon="10.1788230">
	<ele>1788.80</ele>
	<time>2025-08-16T08:38:10.000Z</time>
</trkpt>
<trkpt lat="45.9650400" lon="10.1788100">
	<ele>1789.00</ele>
	<time>2025-08-16T08:38:11.000Z</time>
</trkpt>
<trkpt lat="45.9650390" lon="10.1787910">
	<ele>1789.00</ele>
	<time>2025-08-16T08:38:12.000Z</time>
</trkpt>
<trkpt lat="45.9650370" lon="10.1787750">
	<ele>1789.00</ele>
	<time>2025-08-16T08:38:13.000Z</time>
</trkpt>
<trkpt lat="45.9650380" lon="10.1787580">
	<ele>1789.20</ele>
	<time>2025-08-16T08:38:14.000Z</time>
</trkpt>
<trkpt lat="45.9650350" lon="10.1787420">
	<ele>1789.20</ele>
	<time>2025-08-16T08:38:15.000Z</time>
</trkpt>
<trkpt lat="45.9650320" lon="10.1787280">
	<ele>1789.20</ele>
	<time>2025-08-16T08:38:16.000Z</time>
</trkpt>
<trkpt lat="45.9650300" lon="10.1787090">
	<ele>1789.20</ele>
	<time>2025-08-16T08:38:17.000Z</time>
</trkpt>
<trkpt lat="45.9650270" lon="10.1786910">
	<ele>1789.20</ele>
	<time>2025-08-16T08:38:18.000Z</time>
</trkpt>
<trkpt lat="45.9650220" lon="10.1786760">
	<ele>1789.20</ele>
	<time>2025-08-16T08:38:19.000Z</time>
</trkpt>
<trkpt lat="45.9650180" lon="10.1786640">
	<ele>1789.20</ele>
	<time>2025-08-16T08:38:20.000Z</time>
</trkpt>
<trkpt lat="45.9650140" lon="10.1786480">
	<ele>1789.20</ele>
	<time>2025-08-16T08:38:21.000Z</time>
</trkpt>
<trkpt lat="45.9650130" lon="10.1786340">
	<ele>1789.20</ele>
	<time>2025-08-16T08:38:22.000Z</time>
</trkpt>
<trkpt lat="45.9650180" lon="10.1786190">
	<ele>1789.20</ele>
	<time>2025-08-16T08:38:23.000Z</time>
</trkpt>
<trkpt lat="45.9650240" lon="10.1786050">
	<ele>1789.20</ele>
	<time>2025-08-16T08:38:24.000Z</time>
</trkpt>
<trkpt lat="45.9650290" lon="10.1785870">
	<ele>1789.20</ele>
	<time>2025-08-16T08:38:25.000Z</time>
</trkpt>
<trkpt lat="45.9650360" lon="10.1785680">
	<ele>1789.20</ele>
	<time>2025-08-16T08:38:26.000Z</time>
</trkpt>
<trkpt lat="45.9650440" lon="10.1785650">
	<ele>1789.20</ele>
	<time>2025-08-16T08:38:27.000Z</time>
</trkpt>
<trkpt lat="45.9650580" lon="10.1785570">
	<ele>1789.20</ele>
	<time>2025-08-16T08:38:28.000Z</time>
</trkpt>
<trkpt lat="45.9650660" lon="10.1785430">
	<ele>1789.40</ele>
	<time>2025-08-16T08:38:29.000Z</time>
</trkpt>
<trkpt lat="45.9650690" lon="10.1785320">
	<ele>1789.60</ele>
	<time>2025-08-16T08:38:30.000Z</time>
</trkpt>
<trkpt lat="45.9650630" lon="10.1785180">
	<ele>1789.80</ele>
	<time>2025-08-16T08:38:31.000Z</time>
</trkpt>
<trkpt lat="45.9650660" lon="10.1785110">
	<ele>1790.00</ele>
	<time>2025-08-16T08:38:32.000Z</time>
</trkpt>
<trkpt lat="45.9650720" lon="10.1785100">
	<ele>1790.00</ele>
	<time>2025-08-16T08:38:33.000Z</time>
</trkpt>
<trkpt lat="45.9650740" lon="10.1785010">
	<ele>1790.40</ele>
	<time>2025-08-16T08:38:34.000Z</time>
</trkpt>
<trkpt lat="45.9650790" lon="10.1784910">
	<ele>1790.40</ele>
	<time>2025-08-16T08:38:35.000Z</time>
</trkpt>
<trkpt lat="45.9650800" lon="10.1784730">
	<ele>1790.60</ele>
	<time>2025-08-16T08:38:36.000Z</time>
</trkpt>
<trkpt lat="45.9650790" lon="10.1784580">
	<ele>1790.60</ele>
	<time>2025-08-16T08:38:37.000Z</time>
</trkpt>
<trkpt lat="45.9650740" lon="10.1784470">
	<ele>1790.80</ele>
	<time>2025-08-16T08:38:38.000Z</time>
</trkpt>
<trkpt lat="45.9650690" lon="10.1784370">
	<ele>1790.80</ele>
	<time>2025-08-16T08:38:39.000Z</time>
</trkpt>
<trkpt lat="45.9650670" lon="10.1784300">
	<ele>1791.00</ele>
	<time>2025-08-16T08:38:40.000Z</time>
</trkpt>
<trkpt lat="45.9650590" lon="10.1784250">
	<ele>1791.00</ele>
	<time>2025-08-16T08:38:41.000Z</time>
</trkpt>
<trkpt lat="45.9650560" lon="10.1784210">
	<ele>1791.20</ele>
	<time>2025-08-16T08:38:42.000Z</time>
</trkpt>
<trkpt lat="45.9650510" lon="10.1784130">
	<ele>1791.20</ele>
	<time>2025-08-16T08:38:43.000Z</time>
</trkpt>
<trkpt lat="45.9650520" lon="10.1784010">
	<ele>1791.40</ele>
	<time>2025-08-16T08:38:44.000Z</time>
</trkpt>
<trkpt lat="45.9650530" lon="10.1783940">
	<ele>1791.40</ele>
	<time>2025-08-16T08:38:45.000Z</time>
</trkpt>
<trkpt lat="45.9650520" lon="10.1783860">
	<ele>1791.60</ele>
	<time>2025-08-16T08:38:46.000Z</time>
</trkpt>
<trkpt lat="45.9650530" lon="10.1783730">
	<ele>1791.60</ele>
	<time>2025-08-16T08:38:47.000Z</time>
</trkpt>
<trkpt lat="45.9650530" lon="10.1783610">
	<ele>1791.80</ele>
	<time>2025-08-16T08:38:48.000Z</time>
</trkpt>
<trkpt lat="45.9650540" lon="10.1783500">
	<ele>1791.80</ele>
	<time>2025-08-16T08:38:49.000Z</time>
</trkpt>
<trkpt lat="45.9650600" lon="10.1783320">
	<ele>1792.20</ele>
	<time>2025-08-16T08:38:50.000Z</time>
</trkpt>
<trkpt lat="45.9650650" lon="10.1783240">
	<ele>1792.40</ele>
	<time>2025-08-16T08:38:51.000Z</time>
</trkpt>
<trkpt lat="45.9650730" lon="10.1783120">
	<ele>1792.40</ele>
	<time>2025-08-16T08:38:52.000Z</time>
</trkpt>
<trkpt lat="45.9650720" lon="10.1783030">
	<ele>1792.60</ele>
	<time>2025-08-16T08:38:53.000Z</time>
</trkpt>
<trkpt lat="45.9650690" lon="10.1782840">
	<ele>1792.60</ele>
	<time>2025-08-16T08:38:54.000Z</time>
</trkpt>
<trkpt lat="45.9650610" lon="10.1782710">
	<ele>1792.60</ele>
	<time>2025-08-16T08:38:55.000Z</time>
</trkpt>
<trkpt lat="45.9650580" lon="10.1782660">
	<ele>1792.80</ele>
	<time>2025-08-16T08:38:56.000Z</time>
</trkpt>
<trkpt lat="45.9650650" lon="10.1782580">
	<ele>1792.80</ele>
	<time>2025-08-16T08:38:57.000Z</time>
</trkpt>
<trkpt lat="45.9650670" lon="10.1782570">
	<ele>1792.80</ele>
	<time>2025-08-16T08:38:58.000Z</time>
</trkpt>
<trkpt lat="45.9650670" lon="10.1782570">
	<ele>1792.80</ele>
	<time>2025-08-16T08:38:59.000Z</time>
</trkpt>
<trkpt lat="45.9650680" lon="10.1782480">
	<ele>1792.80</ele>
	<time>2025-08-16T08:39:00.000Z</time>
</trkpt>
<trkpt lat="45.9650690" lon="10.1782520">
	<ele>1792.60</ele>
	<time>2025-08-16T08:39:01.000Z</time>
</trkpt>
<trkpt lat="45.9650670" lon="10.1782510">
	<ele>1792.60</ele>
	<time>2025-08-16T08:39:02.000Z</time>
</trkpt>
<trkpt lat="45.9650630" lon="10.1782510">
	<ele>1792.60</ele>
	<time>2025-08-16T08:39:03.000Z</time>
</trkpt>
<trkpt lat="45.9650620" lon="10.1782490">
	<ele>1792.80</ele>
	<time>2025-08-16T08:39:04.000Z</time>
</trkpt>
<trkpt lat="45.9650620" lon="10.1782480">
	<ele>1792.80</ele>
	<time>2025-08-16T08:39:05.000Z</time>
</trkpt>
<trkpt lat="45.9650620" lon="10.1782470">
	<ele>1793.00</ele>
	<time>2025-08-16T08:39:06.000Z</time>
</trkpt>
<trkpt lat="45.9650620" lon="10.1782450">
	<ele>1793.20</ele>
	<time>2025-08-16T08:39:07.000Z</time>
</trkpt>
<trkpt lat="45.9650610" lon="10.1782440">
	<ele>1793.40</ele>
	<time>2025-08-16T08:39:08.000Z</time>
</trkpt>
<trkpt lat="45.9650610" lon="10.1782440">
	<ele>1793.40</ele>
	<time>2025-08-16T08:39:09.000Z</time>
</trkpt>
<trkpt lat="45.9650610" lon="10.1782440">
	<ele>1793.60</ele>
	<time>2025-08-16T08:39:10.000Z</time>
</trkpt>
<trkpt lat="45.9650610" lon="10.1782440">
	<ele>1793.60</ele>
	<time>2025-08-16T08:39:11.000Z</time>
</trkpt>
<trkpt lat="45.9650610" lon="10.1782440">
	<ele>1793.60</ele>
	<time>2025-08-16T08:39:12.000Z</time>
</trkpt>
<trkpt lat="45.9650610" lon="10.1782440">
	<ele>1793.40</ele>
	<time>2025-08-16T08:39:13.000Z</time>
</trkpt>
<trkpt lat="45.9650610" lon="10.1782440">
	<ele>1793.40</ele>
	<time>2025-08-16T08:39:14.000Z</time>
</trkpt>
<trkpt lat="45.9650610" lon="10.1782440">
	<ele>1793.40</ele>
	<time>2025-08-16T08:39:15.000Z</time>
</trkpt>
<trkpt lat="45.9650610" lon="10.1782440">
	<ele>1793.20</ele>
	<time>2025-08-16T08:39:16.000Z</time>
</trkpt>
<trkpt lat="45.9650610" lon="10.1782440">
	<ele>1793.20</ele>
	<time>2025-08-16T08:39:17.000Z</time>
</trkpt>
<trkpt lat="45.9650610" lon="10.1782440">
	<ele>1793.00</ele>
	<time>2025-08-16T08:39:18.000Z</time>
</trkpt>
<trkpt lat="45.9650610" lon="10.1782440">
	<ele>1793.00</ele>
	<time>2025-08-16T08:39:19.000Z</time>
</trkpt>
<trkpt lat="45.9650610" lon="10.1782440">
	<ele>1793.00</ele>
	<time>2025-08-16T08:39:20.000Z</time>
</trkpt>
<trkpt lat="45.9650570" lon="10.1782410">
	<ele>1793.00</ele>
	<time>2025-08-16T08:39:21.000Z</time>
</trkpt>
<trkpt lat="45.9650460" lon="10.1782250">
	<ele>1793.00</ele>
	<time>2025-08-16T08:39:22.000Z</time>
</trkpt>
<trkpt lat="45.9650390" lon="10.1782070">
	<ele>1793.00</ele>
	<time>2025-08-16T08:39:23.000Z</time>
</trkpt>
<trkpt lat="45.9650320" lon="10.1781860">
	<ele>1793.00</ele>
	<time>2025-08-16T08:39:24.000Z</time>
</trkpt>
<trkpt lat="45.9650260" lon="10.1781610">
	<ele>1793.00</ele>
	<time>2025-08-16T08:39:25.000Z</time>
</trkpt>
<trkpt lat="45.9650150" lon="10.1781430">
	<ele>1793.00</ele>
	<time>2025-08-16T08:39:26.000Z</time>
</trkpt>
<trkpt lat="45.9650030" lon="10.1781270">
	<ele>1793.00</ele>
	<time>2025-08-16T08:39:27.000Z</time>
</trkpt>
<trkpt lat="45.9649890" lon="10.1781100">
	<ele>1793.00</ele>
	<time>2025-08-16T08:39:28.000Z</time>
</trkpt>
<trkpt lat="45.9649800" lon="10.1780920">
	<ele>1793.00</ele>
	<time>2025-08-16T08:39:29.000Z</time>
</trkpt>
<trkpt lat="45.9649740" lon="10.1780660">
	<ele>1793.00</ele>
	<time>2025-08-16T08:39:30.000Z</time>
</trkpt>
<trkpt lat="45.9649730" lon="10.1780450">
	<ele>1793.00</ele>
	<time>2025-08-16T08:39:31.000Z</time>
</trkpt>
<trkpt lat="45.9649700" lon="10.1780260">
	<ele>1793.00</ele>
	<time>2025-08-16T08:39:32.000Z</time>
</trkpt>
<trkpt lat="45.9649700" lon="10.1780090">
	<ele>1793.00</ele>
	<time>2025-08-16T08:39:33.000Z</time>
</trkpt>
<trkpt lat="45.9649710" lon="10.1779900">
	<ele>1793.00</ele>
	<time>2025-08-16T08:39:34.000Z</time>
</trkpt>
<trkpt lat="45.9649680" lon="10.1779710">
	<ele>1793.00</ele>
	<time>2025-08-16T08:39:35.000Z</time>
</trkpt>
<trkpt lat="45.9649630" lon="10.1779600">
	<ele>1793.00</ele>
	<time>2025-08-16T08:39:36.000Z</time>
</trkpt>
<trkpt lat="45.9649570" lon="10.1779450">
	<ele>1793.20</ele>
	<time>2025-08-16T08:39:37.000Z</time>
</trkpt>
<trkpt lat="45.9649540" lon="10.1779330">
	<ele>1793.20</ele>
	<time>2025-08-16T08:39:38.000Z</time>
</trkpt>
<trkpt lat="45.9649550" lon="10.1779200">
	<ele>1793.20</ele>
	<time>2025-08-16T08:39:39.000Z</time>
</trkpt>
<trkpt lat="45.9649560" lon="10.1779140">
	<ele>1793.20</ele>
	<time>2025-08-16T08:39:40.000Z</time>
</trkpt>
<trkpt lat="45.9649670" lon="10.1779020">
	<ele>1793.40</ele>
	<time>2025-08-16T08:39:41.000Z</time>
</trkpt>
<trkpt lat="45.9649760" lon="10.1778920">
	<ele>1793.40</ele>
	<time>2025-08-16T08:39:42.000Z</time>
</trkpt>
<trkpt lat="45.9649820" lon="10.1778870">
	<ele>1793.40</ele>
	<time>2025-08-16T08:39:43.000Z</time>
</trkpt>
<trkpt lat="45.9649850" lon="10.1778770">
	<ele>1793.60</ele>
	<time>2025-08-16T08:39:44.000Z</time>
</trkpt>
<trkpt lat="45.9649910" lon="10.1778690">
	<ele>1793.60</ele>
	<time>2025-08-16T08:39:45.000Z</time>
</trkpt>
<trkpt lat="45.9649950" lon="10.1778600">
	<ele>1793.60</ele>
	<time>2025-08-16T08:39:46.000Z</time>
</trkpt>
<trkpt lat="45.9649960" lon="10.1778540">
	<ele>1793.60</ele>
	<time>2025-08-16T08:39:47.000Z</time>
</trkpt>
<trkpt lat="45.9649980" lon="10.1778480">
	<ele>1793.60</ele>
	<time>2025-08-16T08:39:48.000Z</time>
</trkpt>
<trkpt lat="45.9650040" lon="10.1778410">
	<ele>1793.60</ele>
	<time>2025-08-16T08:39:49.000Z</time>
</trkpt>
<trkpt lat="45.9650100" lon="10.1778340">
	<ele>1793.60</ele>
	<time>2025-08-16T08:39:50.000Z</time>
</trkpt>
<trkpt lat="45.9650170" lon="10.1778290">
	<ele>1793.60</ele>
	<time>2025-08-16T08:39:51.000Z</time>
</trkpt>
<trkpt lat="45.9650220" lon="10.1778220">
	<ele>1793.60</ele>
	<time>2025-08-16T08:39:52.000Z</time>
</trkpt>
<trkpt lat="45.9650310" lon="10.1778150">
	<ele>1793.80</ele>
	<time>2025-08-16T08:39:53.000Z</time>
</trkpt>
<trkpt lat="45.9650340" lon="10.1778030">
	<ele>1794.00</ele>
	<time>2025-08-16T08:39:54.000Z</time>
</trkpt>
<trkpt lat="45.9650310" lon="10.1777910">
	<ele>1794.20</ele>
	<time>2025-08-16T08:39:55.000Z</time>
</trkpt>
<trkpt lat="45.9650330" lon="10.1777760">
	<ele>1794.40</ele>
	<time>2025-08-16T08:39:56.000Z</time>
</trkpt>
<trkpt lat="45.9650310" lon="10.1777640">
	<ele>1794.60</ele>
	<time>2025-08-16T08:39:57.000Z</time>
</trkpt>
<trkpt lat="45.9650280" lon="10.1777510">
	<ele>1794.80</ele>
	<time>2025-08-16T08:39:58.000Z</time>
</trkpt>
<trkpt lat="45.9650220" lon="10.1777350">
	<ele>1795.00</ele>
	<time>2025-08-16T08:39:59.000Z</time>
</trkpt>
<trkpt lat="45.9650140" lon="10.1777280">
	<ele>1795.00</ele>
	<time>2025-08-16T08:40:00.000Z</time>
</trkpt>
<trkpt lat="45.9650040" lon="10.1777210">
	<ele>1795.00</ele>
	<time>2025-08-16T08:40:01.000Z</time>
</trkpt>
<trkpt lat="45.9649970" lon="10.1777110">
	<ele>1795.00</ele>
	<time>2025-08-16T08:40:02.000Z</time>
</trkpt>
<trkpt lat="45.9649890" lon="10.1777100">
	<ele>1795.00</ele>
	<time>2025-08-16T08:40:03.000Z</time>
</trkpt>
<trkpt lat="45.9649760" lon="10.1777080">
	<ele>1795.20</ele>
	<time>2025-08-16T08:40:04.000Z</time>
</trkpt>
<trkpt lat="45.9649620" lon="10.1777050">
	<ele>1795.20</ele>
	<time>2025-08-16T08:40:05.000Z</time>
</trkpt>
<trkpt lat="45.9649490" lon="10.1777070">
	<ele>1795.20</ele>
	<time>2025-08-16T08:40:06.000Z</time>
</trkpt>
<trkpt lat="45.9649380" lon="10.1777120">
	<ele>1795.20</ele>
	<time>2025-08-16T08:40:07.000Z</time>
</trkpt>
<trkpt lat="45.9649310" lon="10.1777200">
	<ele>1795.20</ele>
	<time>2025-08-16T08:40:08.000Z</time>
</trkpt>
<trkpt lat="45.9649210" lon="10.1777270">
	<ele>1795.20</ele>
	<time>2025-08-16T08:40:09.000Z</time>
</trkpt>
<trkpt lat="45.9649150" lon="10.1777310">
	<ele>1795.20</ele>
	<time>2025-08-16T08:40:10.000Z</time>
</trkpt>
<trkpt lat="45.9649060" lon="10.1777280">
	<ele>1795.20</ele>
	<time>2025-08-16T08:40:11.000Z</time>
</trkpt>
<trkpt lat="45.9649010" lon="10.1777330">
	<ele>1795.20</ele>
	<time>2025-08-16T08:40:12.000Z</time>
</trkpt>
<trkpt lat="45.9648910" lon="10.1777330">
	<ele>1795.20</ele>
	<time>2025-08-16T08:40:13.000Z</time>
</trkpt>
<trkpt lat="45.9648800" lon="10.1777210">
	<ele>1795.20</ele>
	<time>2025-08-16T08:40:14.000Z</time>
</trkpt>
<trkpt lat="45.9648690" lon="10.1777070">
	<ele>1795.20</ele>
	<time>2025-08-16T08:40:15.000Z</time>
</trkpt>
<trkpt lat="45.9648560" lon="10.1776960">
	<ele>1795.00</ele>
	<time>2025-08-16T08:40:16.000Z</time>
</trkpt>
<trkpt lat="45.9648470" lon="10.1776830">
	<ele>1794.60</ele>
	<time>2025-08-16T08:40:17.000Z</time>
</trkpt>
<trkpt lat="45.9648410" lon="10.1776690">
	<ele>1794.60</ele>
	<time>2025-08-16T08:40:18.000Z</time>
</trkpt>
<trkpt lat="45.9648310" lon="10.1776590">
	<ele>1794.40</ele>
	<time>2025-08-16T08:40:19.000Z</time>
</trkpt>
<trkpt lat="45.9648210" lon="10.1776540">
	<ele>1794.40</ele>
	<time>2025-08-16T08:40:20.000Z</time>
</trkpt>
<trkpt lat="45.9648160" lon="10.1776400">
	<ele>1794.40</ele>
	<time>2025-08-16T08:40:21.000Z</time>
</trkpt>
<trkpt lat="45.9648090" lon="10.1776260">
	<ele>1794.40</ele>
	<time>2025-08-16T08:40:22.000Z</time>
</trkpt>
<trkpt lat="45.9648010" lon="10.1776130">
	<ele>1794.40</ele>
	<time>2025-08-16T08:40:23.000Z</time>
</trkpt>
<trkpt lat="45.9647940" lon="10.1776000">
	<ele>1794.60</ele>
	<time>2025-08-16T08:40:24.000Z</time>
</trkpt>
<trkpt lat="45.9647850" lon="10.1775860">
	<ele>1794.60</ele>
	<time>2025-08-16T08:40:25.000Z</time>
</trkpt>
<trkpt lat="45.9647750" lon="10.1775750">
	<ele>1794.80</ele>
	<time>2025-08-16T08:40:26.000Z</time>
</trkpt>
<trkpt lat="45.9647670" lon="10.1775650">
	<ele>1794.80</ele>
	<time>2025-08-16T08:40:27.000Z</time>
</trkpt>
<trkpt lat="45.9647620" lon="10.1775470">
	<ele>1794.80</ele>
	<time>2025-08-16T08:40:28.000Z</time>
</trkpt>
<trkpt lat="45.9647510" lon="10.1775450">
	<ele>1794.80</ele>
	<time>2025-08-16T08:40:29.000Z</time>
</trkpt>
<trkpt lat="45.9647440" lon="10.1775320">
	<ele>1795.00</ele>
	<time>2025-08-16T08:40:30.000Z</time>
</trkpt>
<trkpt lat="45.9647330" lon="10.1775270">
	<ele>1795.00</ele>
	<time>2025-08-16T08:40:31.000Z</time>
</trkpt>
<trkpt lat="45.9647250" lon="10.1775160">
	<ele>1795.00</ele>
	<time>2025-08-16T08:40:32.000Z</time>
</trkpt>
<trkpt lat="45.9647170" lon="10.1775050">
	<ele>1795.20</ele>
	<time>2025-08-16T08:40:33.000Z</time>
</trkpt>
<trkpt lat="45.9647120" lon="10.1774920">
	<ele>1795.20</ele>
	<time>2025-08-16T08:40:34.000Z</time>
</trkpt>
<trkpt lat="45.9647030" lon="10.1774830">
	<ele>1795.20</ele>
	<time>2025-08-16T08:40:35.000Z</time>
</trkpt>
<trkpt lat="45.9646950" lon="10.1774750">
	<ele>1795.20</ele>
	<time>2025-08-16T08:40:36.000Z</time>
</trkpt>
<trkpt lat="45.9646870" lon="10.1774650">
	<ele>1795.40</ele>
	<time>2025-08-16T08:40:37.000Z</time>
</trkpt>
<trkpt lat="45.9646800" lon="10.1774520">
	<ele>1795.40</ele>
	<time>2025-08-16T08:40:38.000Z</time>
</trkpt>
<trkpt lat="45.9646740" lon="10.1774380">
	<ele>1795.40</ele>
	<time>2025-08-16T08:40:39.000Z</time>
</trkpt>
<trkpt lat="45.9646700" lon="10.1774180">
	<ele>1795.60</ele>
	<time>2025-08-16T08:40:40.000Z</time>
</trkpt>
<trkpt lat="45.9646660" lon="10.1774060">
	<ele>1795.60</ele>
	<time>2025-08-16T08:40:41.000Z</time>
</trkpt>
<trkpt lat="45.9646630" lon="10.1773920">
	<ele>1795.80</ele>
	<time>2025-08-16T08:40:42.000Z</time>
</trkpt>
<trkpt lat="45.9646590" lon="10.1773790">
	<ele>1796.20</ele>
	<time>2025-08-16T08:40:43.000Z</time>
</trkpt>
<trkpt lat="45.9646530" lon="10.1773660">
	<ele>1796.20</ele>
	<time>2025-08-16T08:40:44.000Z</time>
</trkpt>
<trkpt lat="45.9646460" lon="10.1773520">
	<ele>1796.40</ele>
	<time>2025-08-16T08:40:45.000Z</time>
</trkpt>
<trkpt lat="45.9646420" lon="10.1773370">
	<ele>1796.60</ele>
	<time>2025-08-16T08:40:46.000Z</time>
</trkpt>
<trkpt lat="45.9646390" lon="10.1773200">
	<ele>1796.60</ele>
	<time>2025-08-16T08:40:47.000Z</time>
</trkpt>
<trkpt lat="45.9646310" lon="10.1773040">
	<ele>1796.60</ele>
	<time>2025-08-16T08:40:48.000Z</time>
</trkpt>
<trkpt lat="45.9646230" lon="10.1772890">
	<ele>1796.60</ele>
	<time>2025-08-16T08:40:49.000Z</time>
</trkpt>
<trkpt lat="45.9646160" lon="10.1772770">
	<ele>1796.60</ele>
	<time>2025-08-16T08:40:50.000Z</time>
</trkpt>
<trkpt lat="45.9646130" lon="10.1772650">
	<ele>1796.60</ele>
	<time>2025-08-16T08:40:51.000Z</time>
</trkpt>
<trkpt lat="45.9646100" lon="10.1772510">
	<ele>1796.60</ele>
	<time>2025-08-16T08:40:52.000Z</time>
</trkpt>
<trkpt lat="45.9646110" lon="10.1772290">
	<ele>1796.60</ele>
	<time>2025-08-16T08:40:53.000Z</time>
</trkpt>
<trkpt lat="45.9646070" lon="10.1772100">
	<ele>1796.80</ele>
	<time>2025-08-16T08:40:54.000Z</time>
</trkpt>
<trkpt lat="45.9646050" lon="10.1772020">
	<ele>1796.80</ele>
	<time>2025-08-16T08:40:55.000Z</time>
</trkpt>
<trkpt lat="45.9646020" lon="10.1771920">
	<ele>1797.00</ele>
	<time>2025-08-16T08:40:56.000Z</time>
</trkpt>
<trkpt lat="45.9646010" lon="10.1771760">
	<ele>1797.00</ele>
	<time>2025-08-16T08:40:57.000Z</time>
</trkpt>
<trkpt lat="45.9646000" lon="10.1771560">
	<ele>1797.20</ele>
	<time>2025-08-16T08:40:58.000Z</time>
</trkpt>
<trkpt lat="45.9645990" lon="10.1771430">
	<ele>1797.40</ele>
	<time>2025-08-16T08:40:59.000Z</time>
</trkpt>
<trkpt lat="45.9645920" lon="10.1771280">
	<ele>1797.60</ele>
	<time>2025-08-16T08:41:00.000Z</time>
</trkpt>
<trkpt lat="45.9645770" lon="10.1771230">
	<ele>1797.80</ele>
	<time>2025-08-16T08:41:01.000Z</time>
</trkpt>
<trkpt lat="45.9645720" lon="10.1771150">
	<ele>1797.80</ele>
	<time>2025-08-16T08:41:02.000Z</time>
</trkpt>
<trkpt lat="45.9645700" lon="10.1771010">
	<ele>1798.00</ele>
	<time>2025-08-16T08:41:03.000Z</time>
</trkpt>
<trkpt lat="45.9645620" lon="10.1770960">
	<ele>1798.00</ele>
	<time>2025-08-16T08:41:04.000Z</time>
</trkpt>
<trkpt lat="45.9645590" lon="10.1770890">
	<ele>1798.00</ele>
	<time>2025-08-16T08:41:05.000Z</time>
</trkpt>
<trkpt lat="45.9645560" lon="10.1770770">
	<ele>1798.00</ele>
	<time>2025-08-16T08:41:06.000Z</time>
</trkpt>
<trkpt lat="45.9645580" lon="10.1770560">
	<ele>1797.80</ele>
	<time>2025-08-16T08:41:07.000Z</time>
</trkpt>
<trkpt lat="45.9645580" lon="10.1770410">
	<ele>1797.80</ele>
	<time>2025-08-16T08:41:08.000Z</time>
</trkpt>
<trkpt lat="45.9645580" lon="10.1770250">
	<ele>1797.60</ele>
	<time>2025-08-16T08:41:09.000Z</time>
</trkpt>
<trkpt lat="45.9645540" lon="10.1770040">
	<ele>1797.60</ele>
	<time>2025-08-16T08:41:10.000Z</time>
</trkpt>
<trkpt lat="45.9645550" lon="10.1769800">
	<ele>1797.60</ele>
	<time>2025-08-16T08:41:11.000Z</time>
</trkpt>
<trkpt lat="45.9645580" lon="10.1769550">
	<ele>1797.40</ele>
	<time>2025-08-16T08:41:12.000Z</time>
</trkpt>
<trkpt lat="45.9645560" lon="10.1769440">
	<ele>1797.40</ele>
	<time>2025-08-16T08:41:13.000Z</time>
</trkpt>
<trkpt lat="45.9645550" lon="10.1769290">
	<ele>1797.40</ele>
	<time>2025-08-16T08:41:14.000Z</time>
</trkpt>
<trkpt lat="45.9645530" lon="10.1769140">
	<ele>1797.20</ele>
	<time>2025-08-16T08:41:15.000Z</time>
</trkpt>
<trkpt lat="45.9645520" lon="10.1768990">
	<ele>1797.20</ele>
	<time>2025-08-16T08:41:16.000Z</time>
</trkpt>
<trkpt lat="45.9645510" lon="10.1768830">
	<ele>1797.00</ele>
	<time>2025-08-16T08:41:17.000Z</time>
</trkpt>
<trkpt lat="45.9645470" lon="10.1768690">
	<ele>1796.80</ele>
	<time>2025-08-16T08:41:18.000Z</time>
</trkpt>
<trkpt lat="45.9645440" lon="10.1768580">
	<ele>1796.80</ele>
	<time>2025-08-16T08:41:19.000Z</time>
</trkpt>
<trkpt lat="45.9645420" lon="10.1768470">
	<ele>1796.80</ele>
	<time>2025-08-16T08:41:20.000Z</time>
</trkpt>
<trkpt lat="45.9645400" lon="10.1768360">
	<ele>1796.60</ele>
	<time>2025-08-16T08:41:21.000Z</time>
</trkpt>
<trkpt lat="45.9645390" lon="10.1768270">
	<ele>1796.40</ele>
	<time>2025-08-16T08:41:22.000Z</time>
</trkpt>
<trkpt lat="45.9645350" lon="10.1768080">
	<ele>1796.00</ele>
	<time>2025-08-16T08:41:23.000Z</time>
</trkpt>
<trkpt lat="45.9645280" lon="10.1767880">
	<ele>1795.80</ele>
	<time>2025-08-16T08:41:24.000Z</time>
</trkpt>
<trkpt lat="45.9645210" lon="10.1767690">
	<ele>1795.40</ele>
	<time>2025-08-16T08:41:25.000Z</time>
</trkpt>
<trkpt lat="45.9645160" lon="10.1767540">
	<ele>1795.00</ele>
	<time>2025-08-16T08:41:26.000Z</time>
</trkpt>
<trkpt lat="45.9645140" lon="10.1767370">
	<ele>1794.80</ele>
	<time>2025-08-16T08:41:27.000Z</time>
</trkpt>
<trkpt lat="45.9645160" lon="10.1767180">
	<ele>1794.80</ele>
	<time>2025-08-16T08:41:28.000Z</time>
</trkpt>
<trkpt lat="45.9645140" lon="10.1767020">
	<ele>1794.80</ele>
	<time>2025-08-16T08:41:29.000Z</time>
</trkpt>
<trkpt lat="45.9645070" lon="10.1766870">
	<ele>1794.60</ele>
	<time>2025-08-16T08:41:30.000Z</time>
</trkpt>
<trkpt lat="45.9645010" lon="10.1766730">
	<ele>1794.60</ele>
	<time>2025-08-16T08:41:31.000Z</time>
</trkpt>
<trkpt lat="45.9645010" lon="10.1766630">
	<ele>1794.60</ele>
	<time>2025-08-16T08:41:32.000Z</time>
</trkpt>
<trkpt lat="45.9645050" lon="10.1766500">
	<ele>1794.60</ele>
	<time>2025-08-16T08:41:33.000Z</time>
</trkpt>
<trkpt lat="45.9645160" lon="10.1766300">
	<ele>1794.80</ele>
	<time>2025-08-16T08:41:34.000Z</time>
</trkpt>
<trkpt lat="45.9645220" lon="10.1766100">
	<ele>1794.80</ele>
	<time>2025-08-16T08:41:35.000Z</time>
</trkpt>
<trkpt lat="45.9645180" lon="10.1766040">
	<ele>1794.80</ele>
	<time>2025-08-16T08:41:36.000Z</time>
</trkpt>
<trkpt lat="45.9645180" lon="10.1766010">
	<ele>1794.80</ele>
	<time>2025-08-16T08:41:37.000Z</time>
</trkpt>
<trkpt lat="45.9645160" lon="10.1765990">
	<ele>1794.80</ele>
	<time>2025-08-16T08:41:38.000Z</time>
</trkpt>
<trkpt lat="45.9645150" lon="10.1765990">
	<ele>1795.00</ele>
	<time>2025-08-16T08:41:39.000Z</time>
</trkpt>
<trkpt lat="45.9645110" lon="10.1766000">
	<ele>1795.00</ele>
	<time>2025-08-16T08:41:40.000Z</time>
</trkpt>
<trkpt lat="45.9645090" lon="10.1765930">
	<ele>1795.00</ele>
	<time>2025-08-16T08:41:41.000Z</time>
</trkpt>
<trkpt lat="45.9645050" lon="10.1765900">
	<ele>1795.00</ele>
	<time>2025-08-16T08:41:42.000Z</time>
</trkpt>
<trkpt lat="45.9645040" lon="10.1765820">
	<ele>1795.00</ele>
	<time>2025-08-16T08:41:43.000Z</time>
</trkpt>
<trkpt lat="45.9644990" lon="10.1765740">
	<ele>1793.80</ele>
	<time>2025-08-16T08:41:44.000Z</time>
</trkpt>
<trkpt lat="45.9644990" lon="10.1765650">
	<ele>1793.80</ele>
	<time>2025-08-16T08:41:45.000Z</time>
</trkpt>
<trkpt lat="45.9645020" lon="10.1765560">
	<ele>1793.80</ele>
	<time>2025-08-16T08:41:46.000Z</time>
</trkpt>
<trkpt lat="45.9645000" lon="10.1765480">
	<ele>1793.80</ele>
	<time>2025-08-16T08:41:47.000Z</time>
</trkpt>
<trkpt lat="45.9644970" lon="10.1765320">
	<ele>1793.80</ele>
	<time>2025-08-16T08:41:48.000Z</time>
</trkpt>
<trkpt lat="45.9644950" lon="10.1765180">
	<ele>1793.80</ele>
	<time>2025-08-16T08:41:49.000Z</time>
</trkpt>
<trkpt lat="45.9644870" lon="10.1764990">
	<ele>1793.80</ele>
	<time>2025-08-16T08:41:50.000Z</time>
</trkpt>
<trkpt lat="45.9644790" lon="10.1764760">
	<ele>1793.80</ele>
	<time>2025-08-16T08:41:51.000Z</time>
</trkpt>
<trkpt lat="45.9644750" lon="10.1764620">
	<ele>1793.80</ele>
	<time>2025-08-16T08:41:52.000Z</time>
</trkpt>
<trkpt lat="45.9644680" lon="10.1764500">
	<ele>1793.80</ele>
	<time>2025-08-16T08:41:53.000Z</time>
</trkpt>
<trkpt lat="45.9644610" lon="10.1764390">
	<ele>1793.80</ele>
	<time>2025-08-16T08:41:54.000Z</time>
</trkpt>
<trkpt lat="45.9644550" lon="10.1764240">
	<ele>1793.80</ele>
	<time>2025-08-16T08:41:55.000Z</time>
</trkpt>
<trkpt lat="45.9644580" lon="10.1764090">
	<ele>1793.80</ele>
	<time>2025-08-16T08:41:56.000Z</time>
</trkpt>
<trkpt lat="45.9644530" lon="10.1763890">
	<ele>1793.80</ele>
	<time>2025-08-16T08:41:57.000Z</time>
</trkpt>
<trkpt lat="45.9644500" lon="10.1763710">
	<ele>1793.80</ele>
	<time>2025-08-16T08:41:58.000Z</time>
</trkpt>
<trkpt lat="45.9644410" lon="10.1763580">
	<ele>1793.80</ele>
	<time>2025-08-16T08:41:59.000Z</time>
</trkpt>
<trkpt lat="45.9644350" lon="10.1763410">
	<ele>1793.80</ele>
	<time>2025-08-16T08:42:00.000Z</time>
</trkpt>
<trkpt lat="45.9644340" lon="10.1763140">
	<ele>1793.80</ele>
	<time>2025-08-16T08:42:01.000Z</time>
</trkpt>
<trkpt lat="45.9644240" lon="10.1763010">
	<ele>1793.80</ele>
	<time>2025-08-16T08:42:02.000Z</time>
</trkpt>
<trkpt lat="45.9644180" lon="10.1762860">
	<ele>1793.80</ele>
	<time>2025-08-16T08:42:03.000Z</time>
</trkpt>
<trkpt lat="45.9644180" lon="10.1762700">
	<ele>1793.80</ele>
	<time>2025-08-16T08:42:04.000Z</time>
</trkpt>
<trkpt lat="45.9644230" lon="10.1762610">
	<ele>1793.80</ele>
	<time>2025-08-16T08:42:05.000Z</time>
</trkpt>
<trkpt lat="45.9644270" lon="10.1762500">
	<ele>1793.80</ele>
	<time>2025-08-16T08:42:06.000Z</time>
</trkpt>
<trkpt lat="45.9644270" lon="10.1762340">
	<ele>1793.80</ele>
	<time>2025-08-16T08:42:07.000Z</time>
</trkpt>
<trkpt lat="45.9644290" lon="10.1762160">
	<ele>1793.80</ele>
	<time>2025-08-16T08:42:08.000Z</time>
</trkpt>
<trkpt lat="45.9644270" lon="10.1762060">
	<ele>1795.20</ele>
	<time>2025-08-16T08:42:09.000Z</time>
</trkpt>
<trkpt lat="45.9644250" lon="10.1761890">
	<ele>1796.00</ele>
	<time>2025-08-16T08:42:10.000Z</time>
</trkpt>
<trkpt lat="45.9644190" lon="10.1761760">
	<ele>1796.40</ele>
	<time>2025-08-16T08:42:11.000Z</time>
</trkpt>
<trkpt lat="45.9644180" lon="10.1761620">
	<ele>1796.80</ele>
	<time>2025-08-16T08:42:12.000Z</time>
</trkpt>
<trkpt lat="45.9644180" lon="10.1761440">
	<ele>1797.00</ele>
	<time>2025-08-16T08:42:13.000Z</time>
</trkpt>
<trkpt lat="45.9644180" lon="10.1761340">
	<ele>1797.00</ele>
	<time>2025-08-16T08:42:14.000Z</time>
</trkpt>
<trkpt lat="45.9644180" lon="10.1761270">
	<ele>1797.20</ele>
	<time>2025-08-16T08:42:15.000Z</time>
</trkpt>
<trkpt lat="45.9644120" lon="10.1761240">
	<ele>1797.40</ele>
	<time>2025-08-16T08:42:16.000Z</time>
</trkpt>
<trkpt lat="45.9644060" lon="10.1761200">
	<ele>1797.40</ele>
	<time>2025-08-16T08:42:17.000Z</time>
</trkpt>
<trkpt lat="45.9644060" lon="10.1761150">
	<ele>1797.40</ele>
	<time>2025-08-16T08:42:18.000Z</time>
</trkpt>
<trkpt lat="45.9644060" lon="10.1761110">
	<ele>1797.40</ele>
	<time>2025-08-16T08:42:19.000Z</time>
</trkpt>
<trkpt lat="45.9644000" lon="10.1761040">
	<ele>1797.60</ele>
	<time>2025-08-16T08:42:20.000Z</time>
</trkpt>
<trkpt lat="45.9643960" lon="10.1761000">
	<ele>1797.60</ele>
	<time>2025-08-16T08:42:21.000Z</time>
</trkpt>
<trkpt lat="45.9643960" lon="10.1760920">
	<ele>1797.40</ele>
	<time>2025-08-16T08:42:22.000Z</time>
</trkpt>
<trkpt lat="45.9643950" lon="10.1760800">
	<ele>1797.40</ele>
	<time>2025-08-16T08:42:23.000Z</time>
</trkpt>
<trkpt lat="45.9643920" lon="10.1760710">
	<ele>1797.40</ele>
	<time>2025-08-16T08:42:24.000Z</time>
</trkpt>
<trkpt lat="45.9643920" lon="10.1760550">
	<ele>1797.40</ele>
	<time>2025-08-16T08:42:25.000Z</time>
</trkpt>
<trkpt lat="45.9643920" lon="10.1760400">
	<ele>1797.40</ele>
	<time>2025-08-16T08:42:26.000Z</time>
</trkpt>
<trkpt lat="45.9643910" lon="10.1760240">
	<ele>1797.60</ele>
	<time>2025-08-16T08:42:27.000Z</time>
</trkpt>
<trkpt lat="45.9643900" lon="10.1760110">
	<ele>1797.60</ele>
	<time>2025-08-16T08:42:28.000Z</time>
</trkpt>
<trkpt lat="45.9643880" lon="10.1759960">
	<ele>1797.60</ele>
	<time>2025-08-16T08:42:29.000Z</time>
</trkpt>
<trkpt lat="45.9643830" lon="10.1759850">
	<ele>1797.80</ele>
	<time>2025-08-16T08:42:30.000Z</time>
</trkpt>
<trkpt lat="45.9643820" lon="10.1759710">
	<ele>1798.00</ele>
	<time>2025-08-16T08:42:31.000Z</time>
</trkpt>
<trkpt lat="45.9643760" lon="10.1759550">
	<ele>1798.00</ele>
	<time>2025-08-16T08:42:32.000Z</time>
</trkpt>
<trkpt lat="45.9643730" lon="10.1759440">
	<ele>1798.00</ele>
	<time>2025-08-16T08:42:33.000Z</time>
</trkpt>
<trkpt lat="45.9643680" lon="10.1759300">
	<ele>1798.20</ele>
	<time>2025-08-16T08:42:34.000Z</time>
</trkpt>
<trkpt lat="45.9643630" lon="10.1759180">
	<ele>1798.20</ele>
	<time>2025-08-16T08:42:35.000Z</time>
</trkpt>
<trkpt lat="45.9643570" lon="10.1759080">
	<ele>1798.20</ele>
	<time>2025-08-16T08:42:36.000Z</time>
</trkpt>
<trkpt lat="45.9643580" lon="10.1758910">
	<ele>1798.40</ele>
	<time>2025-08-16T08:42:37.000Z</time>
</trkpt>
<trkpt lat="45.9643520" lon="10.1758730">
	<ele>1798.80</ele>
	<time>2025-08-16T08:42:38.000Z</time>
</trkpt>
<trkpt lat="45.9643470" lon="10.1758570">
	<ele>1799.00</ele>
	<time>2025-08-16T08:42:39.000Z</time>
</trkpt>
<trkpt lat="45.9643460" lon="10.1758390">
	<ele>1799.40</ele>
	<time>2025-08-16T08:42:40.000Z</time>
</trkpt>
<trkpt lat="45.9643420" lon="10.1758310">
	<ele>1799.80</ele>
	<time>2025-08-16T08:42:41.000Z</time>
</trkpt>
<trkpt lat="45.9643400" lon="10.1758110">
	<ele>1800.00</ele>
	<time>2025-08-16T08:42:42.000Z</time>
</trkpt>
<trkpt lat="45.9643370" lon="10.1758030">
	<ele>1800.20</ele>
	<time>2025-08-16T08:42:43.000Z</time>
</trkpt>
<trkpt lat="45.9643380" lon="10.1757920">
	<ele>1800.20</ele>
	<time>2025-08-16T08:42:44.000Z</time>
</trkpt>
<trkpt lat="45.9643380" lon="10.1757900">
	<ele>1800.40</ele>
	<time>2025-08-16T08:42:45.000Z</time>
</trkpt>
<trkpt lat="45.9643410" lon="10.1757880">
	<ele>1800.60</ele>
	<time>2025-08-16T08:42:46.000Z</time>
</trkpt>
<trkpt lat="45.9643430" lon="10.1757900">
	<ele>1800.80</ele>
	<time>2025-08-16T08:42:47.000Z</time>
</trkpt>
<trkpt lat="45.9643440" lon="10.1757890">
	<ele>1800.80</ele>
	<time>2025-08-16T08:42:48.000Z</time>
</trkpt>
<trkpt lat="45.9643430" lon="10.1757890">
	<ele>1801.00</ele>
	<time>2025-08-16T08:42:49.000Z</time>
</trkpt>
<trkpt lat="45.9643410" lon="10.1757900">
	<ele>1801.00</ele>
	<time>2025-08-16T08:42:50.000Z</time>
</trkpt>
<trkpt lat="45.9643410" lon="10.1757870">
	<ele>1801.20</ele>
	<time>2025-08-16T08:42:51.000Z</time>
</trkpt>
<trkpt lat="45.9643420" lon="10.1757840">
	<ele>1801.40</ele>
	<time>2025-08-16T08:42:52.000Z</time>
</trkpt>
<trkpt lat="45.9643330" lon="10.1757880">
	<ele>1801.40</ele>
	<time>2025-08-16T08:42:53.000Z</time>
</trkpt>
<trkpt lat="45.9643340" lon="10.1757870">
	<ele>1801.60</ele>
	<time>2025-08-16T08:42:54.000Z</time>
</trkpt>
<trkpt lat="45.9643310" lon="10.1757870">
	<ele>1801.60</ele>
	<time>2025-08-16T08:42:55.000Z</time>
</trkpt>
<trkpt lat="45.9643280" lon="10.1757800">
	<ele>1801.40</ele>
	<time>2025-08-16T08:42:56.000Z</time>
</trkpt>
<trkpt lat="45.9643200" lon="10.1757690">
	<ele>1801.40</ele>
	<time>2025-08-16T08:42:57.000Z</time>
</trkpt>
<trkpt lat="45.9643190" lon="10.1757570">
	<ele>1801.40</ele>
	<time>2025-08-16T08:42:58.000Z</time>
</trkpt>
<trkpt lat="45.9643160" lon="10.1757540">
	<ele>1801.40</ele>
	<time>2025-08-16T08:42:59.000Z</time>
</trkpt>
<trkpt lat="45.9643170" lon="10.1757430">
	<ele>1801.40</ele>
	<time>2025-08-16T08:43:00.000Z</time>
</trkpt>
<trkpt lat="45.9643150" lon="10.1757370">
	<ele>1801.40</ele>
	<time>2025-08-16T08:43:01.000Z</time>
</trkpt>
<trkpt lat="45.9643140" lon="10.1757310">
	<ele>1801.40</ele>
	<time>2025-08-16T08:43:02.000Z</time>
</trkpt>
<trkpt lat="45.9643080" lon="10.1757210">
	<ele>1801.40</ele>
	<time>2025-08-16T08:43:03.000Z</time>
</trkpt>
<trkpt lat="45.9643030" lon="10.1757100">
	<ele>1801.40</ele>
	<time>2025-08-16T08:43:04.000Z</time>
</trkpt>
<trkpt lat="45.9642940" lon="10.1757030">
	<ele>1801.40</ele>
	<time>2025-08-16T08:43:05.000Z</time>
</trkpt>
<trkpt lat="45.9642820" lon="10.1757040">
	<ele>1801.40</ele>
	<time>2025-08-16T08:43:06.000Z</time>
</trkpt>
<trkpt lat="45.9642720" lon="10.1756850">
	<ele>1801.20</ele>
	<time>2025-08-16T08:43:07.000Z</time>
</trkpt>
<trkpt lat="45.9642640" lon="10.1756710">
	<ele>1801.20</ele>
	<time>2025-08-16T08:43:08.000Z</time>
</trkpt>
<trkpt lat="45.9642590" lon="10.1756590">
	<ele>1801.20</ele>
	<time>2025-08-16T08:43:09.000Z</time>
</trkpt>
<trkpt lat="45.9642570" lon="10.1756490">
	<ele>1801.20</ele>
	<time>2025-08-16T08:43:10.000Z</time>
</trkpt>
<trkpt lat="45.9642520" lon="10.1756380">
	<ele>1801.20</ele>
	<time>2025-08-16T08:43:11.000Z</time>
</trkpt>
<trkpt lat="45.9642500" lon="10.1756200">
	<ele>1801.20</ele>
	<time>2025-08-16T08:43:12.000Z</time>
</trkpt>
<trkpt lat="45.9642500" lon="10.1756070">
	<ele>1801.20</ele>
	<time>2025-08-16T08:43:13.000Z</time>
</trkpt>
<trkpt lat="45.9642490" lon="10.1755900">
	<ele>1801.20</ele>
	<time>2025-08-16T08:43:14.000Z</time>
</trkpt>
<trkpt lat="45.9642540" lon="10.1755750">
	<ele>1801.20</ele>
	<time>2025-08-16T08:43:15.000Z</time>
</trkpt>
<trkpt lat="45.9642560" lon="10.1755560">
	<ele>1801.20</ele>
	<time>2025-08-16T08:43:16.000Z</time>
</trkpt>
<trkpt lat="45.9642590" lon="10.1755400">
	<ele>1801.20</ele>
	<time>2025-08-16T08:43:17.000Z</time>
</trkpt>
<trkpt lat="45.9642590" lon="10.1755240">
	<ele>1801.60</ele>
	<time>2025-08-16T08:43:18.000Z</time>
</trkpt>
<trkpt lat="45.9642600" lon="10.1755090">
	<ele>1801.80</ele>
	<time>2025-08-16T08:43:19.000Z</time>
</trkpt>
<trkpt lat="45.9642570" lon="10.1755040">
	<ele>1802.00</ele>
	<time>2025-08-16T08:43:20.000Z</time>
</trkpt>
<trkpt lat="45.9642480" lon="10.1754860">
	<ele>1802.20</ele>
	<time>2025-08-16T08:43:21.000Z</time>
</trkpt>
<trkpt lat="45.9642410" lon="10.1754640">
	<ele>1802.20</ele>
	<time>2025-08-16T08:43:22.000Z</time>
</trkpt>
<trkpt lat="45.9642380" lon="10.1754560">
	<ele>1802.40</ele>
	<time>2025-08-16T08:43:23.000Z</time>
</trkpt>
<trkpt lat="45.9642320" lon="10.1754450">
	<ele>1802.40</ele>
	<time>2025-08-16T08:43:24.000Z</time>
</trkpt>
<trkpt lat="45.9642290" lon="10.1754340">
	<ele>1802.40</ele>
	<time>2025-08-16T08:43:25.000Z</time>
</trkpt>
<trkpt lat="45.9642280" lon="10.1754260">
	<ele>1802.60</ele>
	<time>2025-08-16T08:43:26.000Z</time>
</trkpt>
<trkpt lat="45.9642280" lon="10.1754140">
	<ele>1802.80</ele>
	<time>2025-08-16T08:43:27.000Z</time>
</trkpt>
<trkpt lat="45.9642290" lon="10.1754020">
	<ele>1802.80</ele>
	<time>2025-08-16T08:43:28.000Z</time>
</trkpt>
<trkpt lat="45.9642330" lon="10.1753930">
	<ele>1803.20</ele>
	<time>2025-08-16T08:43:29.000Z</time>
</trkpt>
<trkpt lat="45.9642320" lon="10.1753820">
	<ele>1803.40</ele>
	<time>2025-08-16T08:43:30.000Z</time>
</trkpt>
<trkpt lat="45.9642290" lon="10.1753730">
	<ele>1803.60</ele>
	<time>2025-08-16T08:43:31.000Z</time>
</trkpt>
<trkpt lat="45.9642270" lon="10.1753670">
	<ele>1803.60</ele>
	<time>2025-08-16T08:43:32.000Z</time>
</trkpt>
<trkpt lat="45.9642250" lon="10.1753640">
	<ele>1803.60</ele>
	<time>2025-08-16T08:43:33.000Z</time>
</trkpt>
<trkpt lat="45.9642190" lon="10.1753630">
	<ele>1803.60</ele>
	<time>2025-08-16T08:43:34.000Z</time>
</trkpt>
<trkpt lat="45.9642120" lon="10.1753630">
	<ele>1803.60</ele>
	<time>2025-08-16T08:43:35.000Z</time>
</trkpt>
<trkpt lat="45.9642070" lon="10.1753540">
	<ele>1803.40</ele>
	<time>2025-08-16T08:43:36.000Z</time>
</trkpt>
<trkpt lat="45.9641990" lon="10.1753340">
	<ele>1803.20</ele>
	<time>2025-08-16T08:43:37.000Z</time>
</trkpt>
<trkpt lat="45.9641920" lon="10.1753110">
	<ele>1803.00</ele>
	<time>2025-08-16T08:43:38.000Z</time>
</trkpt>
<trkpt lat="45.9641850" lon="10.1752930">
	<ele>1802.80</ele>
	<time>2025-08-16T08:43:39.000Z</time>
</trkpt>
<trkpt lat="45.9641790" lon="10.1752730">
	<ele>1802.80</ele>
	<time>2025-08-16T08:43:40.000Z</time>
</trkpt>
<trkpt lat="45.9641740" lon="10.1752560">
	<ele>1802.60</ele>
	<time>2025-08-16T08:43:41.000Z</time>
</trkpt>
<trkpt lat="45.9641740" lon="10.1752380">
	<ele>1802.60</ele>
	<time>2025-08-16T08:43:42.000Z</time>
</trkpt>
<trkpt lat="45.9641770" lon="10.1752240">
	<ele>1802.60</ele>
	<time>2025-08-16T08:43:43.000Z</time>
</trkpt>
<trkpt lat="45.9641830" lon="10.1752060">
	<ele>1802.60</ele>
	<time>2025-08-16T08:43:44.000Z</time>
</trkpt>
<trkpt lat="45.9641880" lon="10.1751900">
	<ele>1802.60</ele>
	<time>2025-08-16T08:43:45.000Z</time>
</trkpt>
<trkpt lat="45.9641920" lon="10.1751750">
	<ele>1802.60</ele>
	<time>2025-08-16T08:43:46.000Z</time>
</trkpt>
<trkpt lat="45.9642010" lon="10.1751540">
	<ele>1802.60</ele>
	<time>2025-08-16T08:43:47.000Z</time>
</trkpt>
<trkpt lat="45.9642070" lon="10.1751370">
	<ele>1802.80</ele>
	<time>2025-08-16T08:43:48.000Z</time>
</trkpt>
<trkpt lat="45.9642110" lon="10.1751240">
	<ele>1802.60</ele>
	<time>2025-08-16T08:43:49.000Z</time>
</trkpt>
<trkpt lat="45.9642080" lon="10.1751070">
	<ele>1802.60</ele>
	<time>2025-08-16T08:43:50.000Z</time>
</trkpt>
<trkpt lat="45.9642060" lon="10.1750880">
	<ele>1802.60</ele>
	<time>2025-08-16T08:43:51.000Z</time>
</trkpt>
<trkpt lat="45.9642060" lon="10.1750740">
	<ele>1802.60</ele>
	<time>2025-08-16T08:43:52.000Z</time>
</trkpt>
<trkpt lat="45.9641930" lon="10.1750700">
	<ele>1802.60</ele>
	<time>2025-08-16T08:43:53.000Z</time>
</trkpt>
<trkpt lat="45.9641770" lon="10.1750540">
	<ele>1802.40</ele>
	<time>2025-08-16T08:43:54.000Z</time>
</trkpt>
<trkpt lat="45.9641720" lon="10.1750250">
	<ele>1802.40</ele>
	<time>2025-08-16T08:43:55.000Z</time>
</trkpt>
<trkpt lat="45.9641630" lon="10.1750150">
	<ele>1802.20</ele>
	<time>2025-08-16T08:43:56.000Z</time>
</trkpt>
<trkpt lat="45.9641550" lon="10.1750090">
	<ele>1802.20</ele>
	<time>2025-08-16T08:43:57.000Z</time>
</trkpt>
<trkpt lat="45.9641490" lon="10.1750110">
	<ele>1802.20</ele>
	<time>2025-08-16T08:43:58.000Z</time>
</trkpt>
<trkpt lat="45.9641460" lon="10.1750110">
	<ele>1802.20</ele>
	<time>2025-08-16T08:43:59.000Z</time>
</trkpt>
<trkpt lat="45.9641470" lon="10.1749980">
	<ele>1802.20</ele>
	<time>2025-08-16T08:44:00.000Z</time>
</trkpt>
<trkpt lat="45.9641440" lon="10.1749830">
	<ele>1802.20</ele>
	<time>2025-08-16T08:44:01.000Z</time>
</trkpt>
<trkpt lat="45.9641410" lon="10.1749660">
	<ele>1802.40</ele>
	<time>2025-08-16T08:44:02.000Z</time>
</trkpt>
<trkpt lat="45.9641340" lon="10.1749540">
	<ele>1802.40</ele>
	<time>2025-08-16T08:44:03.000Z</time>
</trkpt>
<trkpt lat="45.9641270" lon="10.1749460">
	<ele>1802.60</ele>
	<time>2025-08-16T08:44:04.000Z</time>
</trkpt>
<trkpt lat="45.9641200" lon="10.1749320">
	<ele>1802.60</ele>
	<time>2025-08-16T08:44:05.000Z</time>
</trkpt>
<trkpt lat="45.9641130" lon="10.1749140">
	<ele>1802.60</ele>
	<time>2025-08-16T08:44:06.000Z</time>
</trkpt>
<trkpt lat="45.9641070" lon="10.1748900">
	<ele>1802.60</ele>
	<time>2025-08-16T08:44:07.000Z</time>
</trkpt>
<trkpt lat="45.9641020" lon="10.1748720">
	<ele>1802.60</ele>
	<time>2025-08-16T08:44:08.000Z</time>
</trkpt>
<trkpt lat="45.9640940" lon="10.1748590">
	<ele>1802.60</ele>
	<time>2025-08-16T08:44:09.000Z</time>
</trkpt>
<trkpt lat="45.9640860" lon="10.1748500">
	<ele>1802.60</ele>
	<time>2025-08-16T08:44:10.000Z</time>
</trkpt>
<trkpt lat="45.9640800" lon="10.1748380">
	<ele>1802.60</ele>
	<time>2025-08-16T08:44:11.000Z</time>
</trkpt>
<trkpt lat="45.9640730" lon="10.1748240">
	<ele>1802.40</ele>
	<time>2025-08-16T08:44:12.000Z</time>
</trkpt>
<trkpt lat="45.9640680" lon="10.1748100">
	<ele>1802.40</ele>
	<time>2025-08-16T08:44:13.000Z</time>
</trkpt>
<trkpt lat="45.9640610" lon="10.1747960">
	<ele>1802.40</ele>
	<time>2025-08-16T08:44:14.000Z</time>
</trkpt>
<trkpt lat="45.9640550" lon="10.1747820">
	<ele>1802.40</ele>
	<time>2025-08-16T08:44:15.000Z</time>
</trkpt>
<trkpt lat="45.9640520" lon="10.1747690">
	<ele>1802.40</ele>
	<time>2025-08-16T08:44:16.000Z</time>
</trkpt>
<trkpt lat="45.9640470" lon="10.1747570">
	<ele>1802.60</ele>
	<time>2025-08-16T08:44:17.000Z</time>
</trkpt>
<trkpt lat="45.9640420" lon="10.1747430">
	<ele>1802.60</ele>
	<time>2025-08-16T08:44:18.000Z</time>
</trkpt>
<trkpt lat="45.9640430" lon="10.1747260">
	<ele>1802.60</ele>
	<time>2025-08-16T08:44:19.000Z</time>
</trkpt>
<trkpt lat="45.9640460" lon="10.1747110">
	<ele>1802.60</ele>
	<time>2025-08-16T08:44:20.000Z</time>
</trkpt>
<trkpt lat="45.9640470" lon="10.1746960">
	<ele>1802.60</ele>
	<time>2025-08-16T08:44:21.000Z</time>
</trkpt>
<trkpt lat="45.9640450" lon="10.1746810">
	<ele>1802.80</ele>
	<time>2025-08-16T08:44:22.000Z</time>
</trkpt>
<trkpt lat="45.9640420" lon="10.1746660">
	<ele>1802.80</ele>
	<time>2025-08-16T08:44:23.000Z</time>
</trkpt>
<trkpt lat="45.9640400" lon="10.1746570">
	<ele>1803.00</ele>
	<time>2025-08-16T08:44:24.000Z</time>
</trkpt>
<trkpt lat="45.9640350" lon="10.1746400">
	<ele>1803.00</ele>
	<time>2025-08-16T08:44:25.000Z</time>
</trkpt>
<trkpt lat="45.9640360" lon="10.1746320">
	<ele>1803.20</ele>
	<time>2025-08-16T08:44:26.000Z</time>
</trkpt>
<trkpt lat="45.9640320" lon="10.1746230">
	<ele>1803.20</ele>
	<time>2025-08-16T08:44:27.000Z</time>
</trkpt>
<trkpt lat="45.9640310" lon="10.1746100">
	<ele>1803.20</ele>
	<time>2025-08-16T08:44:28.000Z</time>
</trkpt>
<trkpt lat="45.9640170" lon="10.1746040">
	<ele>1803.20</ele>
	<time>2025-08-16T08:44:29.000Z</time>
</trkpt>
<trkpt lat="45.9639980" lon="10.1745960">
	<ele>1803.20</ele>
	<time>2025-08-16T08:44:30.000Z</time>
</trkpt>
<trkpt lat="45.9639840" lon="10.1745830">
	<ele>1803.20</ele>
	<time>2025-08-16T08:44:31.000Z</time>
</trkpt>
<trkpt lat="45.9639770" lon="10.1745680">
	<ele>1803.20</ele>
	<time>2025-08-16T08:44:32.000Z</time>
</trkpt>
<trkpt lat="45.9639720" lon="10.1745570">
	<ele>1803.00</ele>
	<time>2025-08-16T08:44:33.000Z</time>
</trkpt>
<trkpt lat="45.9639720" lon="10.1745440">
	<ele>1803.00</ele>
	<time>2025-08-16T08:44:34.000Z</time>
</trkpt>
<trkpt lat="45.9639760" lon="10.1745320">
	<ele>1803.00</ele>
	<time>2025-08-16T08:44:35.000Z</time>
</trkpt>
<trkpt lat="45.9639830" lon="10.1745170">
	<ele>1803.00</ele>
	<time>2025-08-16T08:44:36.000Z</time>
</trkpt>
<trkpt lat="45.9639900" lon="10.1745040">
	<ele>1803.20</ele>
	<time>2025-08-16T08:44:37.000Z</time>
</trkpt>
<trkpt lat="45.9639930" lon="10.1744860">
	<ele>1803.20</ele>
	<time>2025-08-16T08:44:38.000Z</time>
</trkpt>
<trkpt lat="45.9639930" lon="10.1744810">
	<ele>1803.20</ele>
	<time>2025-08-16T08:44:39.000Z</time>
</trkpt>
<trkpt lat="45.9639890" lon="10.1744730">
	<ele>1803.40</ele>
	<time>2025-08-16T08:44:40.000Z</time>
</trkpt>
<trkpt lat="45.9639900" lon="10.1744590">
	<ele>1803.40</ele>
	<time>2025-08-16T08:44:41.000Z</time>
</trkpt>
<trkpt lat="45.9639920" lon="10.1744430">
	<ele>1803.60</ele>
	<time>2025-08-16T08:44:42.000Z</time>
</trkpt>
<trkpt lat="45.9639940" lon="10.1744260">
	<ele>1803.80</ele>
	<time>2025-08-16T08:44:43.000Z</time>
</trkpt>
<trkpt lat="45.9639960" lon="10.1744100">
	<ele>1804.00</ele>
	<time>2025-08-16T08:44:44.000Z</time>
</trkpt>
<trkpt lat="45.9639880" lon="10.1743950">
	<ele>1804.20</ele>
	<time>2025-08-16T08:44:45.000Z</time>
</trkpt>
<trkpt lat="45.9639780" lon="10.1743730">
	<ele>1804.40</ele>
	<time>2025-08-16T08:44:46.000Z</time>
</trkpt>
<trkpt lat="45.9639720" lon="10.1743530">
	<ele>1804.40</ele>
	<time>2025-08-16T08:44:47.000Z</time>
</trkpt>
<trkpt lat="45.9639650" lon="10.1743430">
	<ele>1804.40</ele>
	<time>2025-08-16T08:44:48.000Z</time>
</trkpt>
<trkpt lat="45.9639660" lon="10.1743260">
	<ele>1804.60</ele>
	<time>2025-08-16T08:44:49.000Z</time>
</trkpt>
<trkpt lat="45.9639720" lon="10.1743080">
	<ele>1804.80</ele>
	<time>2025-08-16T08:44:50.000Z</time>
</trkpt>
<trkpt lat="45.9639690" lon="10.1743010">
	<ele>1805.00</ele>
	<time>2025-08-16T08:44:51.000Z</time>
</trkpt>
<trkpt lat="45.9639610" lon="10.1742840">
	<ele>1805.00</ele>
	<time>2025-08-16T08:44:52.000Z</time>
</trkpt>
<trkpt lat="45.9639590" lon="10.1742600">
	<ele>1805.20</ele>
	<time>2025-08-16T08:44:53.000Z</time>
</trkpt>
<trkpt lat="45.9639560" lon="10.1742370">
	<ele>1805.20</ele>
	<time>2025-08-16T08:44:54.000Z</time>
</trkpt>
<trkpt lat="45.9639550" lon="10.1742160">
	<ele>1805.20</ele>
	<time>2025-08-16T08:44:55.000Z</time>
</trkpt>
<trkpt lat="45.9639570" lon="10.1741910">
	<ele>1805.20</ele>
	<time>2025-08-16T08:44:56.000Z</time>
</trkpt>
<trkpt lat="45.9639520" lon="10.1741770">
	<ele>1805.00</ele>
	<time>2025-08-16T08:44:57.000Z</time>
</trkpt>
<trkpt lat="45.9639530" lon="10.1741590">
	<ele>1805.00</ele>
	<time>2025-08-16T08:44:58.000Z</time>
</trkpt>
<trkpt lat="45.9639520" lon="10.1741450">
	<ele>1805.00</ele>
	<time>2025-08-16T08:44:59.000Z</time>
</trkpt>
<trkpt lat="45.9639460" lon="10.1741370">
	<ele>1805.00</ele>
	<time>2025-08-16T08:45:00.000Z</time>
</trkpt>
<trkpt lat="45.9639400" lon="10.1741290">
	<ele>1805.00</ele>
	<time>2025-08-16T08:45:01.000Z</time>
</trkpt>
<trkpt lat="45.9639320" lon="10.1741200">
	<ele>1805.00</ele>
	<time>2025-08-16T08:45:02.000Z</time>
</trkpt>
<trkpt lat="45.9639240" lon="10.1741110">
	<ele>1805.20</ele>
	<time>2025-08-16T08:45:03.000Z</time>
</trkpt>
<trkpt lat="45.9639200" lon="10.1740980">
	<ele>1805.20</ele>
	<time>2025-08-16T08:45:04.000Z</time>
</trkpt>
<trkpt lat="45.9639140" lon="10.1740850">
	<ele>1805.40</ele>
	<time>2025-08-16T08:45:05.000Z</time>
</trkpt>
<trkpt lat="45.9639090" lon="10.1740710">
	<ele>1805.40</ele>
	<time>2025-08-16T08:45:06.000Z</time>
</trkpt>
<trkpt lat="45.9639030" lon="10.1740500">
	<ele>1805.40</ele>
	<time>2025-08-16T08:45:07.000Z</time>
</trkpt>
<trkpt lat="45.9638950" lon="10.1740360">
	<ele>1805.60</ele>
	<time>2025-08-16T08:45:08.000Z</time>
</trkpt>
<trkpt lat="45.9638860" lon="10.1740300">
	<ele>1805.60</ele>
	<time>2025-08-16T08:45:09.000Z</time>
</trkpt>
<trkpt lat="45.9638760" lon="10.1740270">
	<ele>1805.80</ele>
	<time>2025-08-16T08:45:10.000Z</time>
</trkpt>
<trkpt lat="45.9638730" lon="10.1740250">
	<ele>1805.80</ele>
	<time>2025-08-16T08:45:11.000Z</time>
</trkpt>
<trkpt lat="45.9638700" lon="10.1740210">
	<ele>1805.80</ele>
	<time>2025-08-16T08:45:12.000Z</time>
</trkpt>
<trkpt lat="45.9638640" lon="10.1740210">
	<ele>1806.00</ele>
	<time>2025-08-16T08:45:13.000Z</time>
</trkpt>
<trkpt lat="45.9638630" lon="10.1740180">
	<ele>1806.00</ele>
	<time>2025-08-16T08:45:14.000Z</time>
</trkpt>
<trkpt lat="45.9638650" lon="10.1740170">
	<ele>1806.00</ele>
	<time>2025-08-16T08:45:15.000Z</time>
</trkpt>
<trkpt lat="45.9638630" lon="10.1740190">
	<ele>1806.00</ele>
	<time>2025-08-16T08:45:16.000Z</time>
</trkpt>
<trkpt lat="45.9638670" lon="10.1740230">
	<ele>1806.20</ele>
	<time>2025-08-16T08:45:17.000Z</time>
</trkpt>
<trkpt lat="45.9638650" lon="10.1740270">
	<ele>1806.20</ele>
	<time>2025-08-16T08:45:18.000Z</time>
</trkpt>
<trkpt lat="45.9638630" lon="10.1740250">
	<ele>1806.40</ele>
	<time>2025-08-16T08:45:19.000Z</time>
</trkpt>
<trkpt lat="45.9638610" lon="10.1740220">
	<ele>1806.40</ele>
	<time>2025-08-16T08:45:20.000Z</time>
</trkpt>
<trkpt lat="45.9638510" lon="10.1740210">
	<ele>1806.40</ele>
	<time>2025-08-16T08:45:21.000Z</time>
</trkpt>
<trkpt lat="45.9638470" lon="10.1740090">
	<ele>1806.40</ele>
	<time>2025-08-16T08:45:22.000Z</time>
</trkpt>
<trkpt lat="45.9638470" lon="10.1739940">
	<ele>1806.40</ele>
	<time>2025-08-16T08:45:23.000Z</time>
</trkpt>
<trkpt lat="45.9638380" lon="10.1739720">
	<ele>1806.40</ele>
	<time>2025-08-16T08:45:24.000Z</time>
</trkpt>
<trkpt lat="45.9638290" lon="10.1739540">
	<ele>1806.20</ele>
	<time>2025-08-16T08:45:25.000Z</time>
</trkpt>
<trkpt lat="45.9638200" lon="10.1739360">
	<ele>1806.20</ele>
	<time>2025-08-16T08:45:26.000Z</time>
</trkpt>
<trkpt lat="45.9638160" lon="10.1739190">
	<ele>1806.00</ele>
	<time>2025-08-16T08:45:27.000Z</time>
</trkpt>
<trkpt lat="45.9638130" lon="10.1738990">
	<ele>1806.00</ele>
	<time>2025-08-16T08:45:28.000Z</time>
</trkpt>
<trkpt lat="45.9638110" lon="10.1738790">
	<ele>1806.00</ele>
	<time>2025-08-16T08:45:29.000Z</time>
</trkpt>
<trkpt lat="45.9638080" lon="10.1738580">
	<ele>1806.00</ele>
	<time>2025-08-16T08:45:30.000Z</time>
</trkpt>
<trkpt lat="45.9638020" lon="10.1738370">
	<ele>1806.00</ele>
	<time>2025-08-16T08:45:31.000Z</time>
</trkpt>
<trkpt lat="45.9637950" lon="10.1738250">
	<ele>1806.00</ele>
	<time>2025-08-16T08:45:32.000Z</time>
</trkpt>
<trkpt lat="45.9637870" lon="10.1738150">
	<ele>1806.00</ele>
	<time>2025-08-16T08:45:33.000Z</time>
</trkpt>
<trkpt lat="45.9637810" lon="10.1738020">
	<ele>1806.00</ele>
	<time>2025-08-16T08:45:34.000Z</time>
</trkpt>
<trkpt lat="45.9637760" lon="10.1737870">
	<ele>1806.20</ele>
	<time>2025-08-16T08:45:35.000Z</time>
</trkpt>
<trkpt lat="45.9637720" lon="10.1737730">
	<ele>1806.20</ele>
	<time>2025-08-16T08:45:36.000Z</time>
</trkpt>
<trkpt lat="45.9637660" lon="10.1737560">
	<ele>1806.20</ele>
	<time>2025-08-16T08:45:37.000Z</time>
</trkpt>
<trkpt lat="45.9637610" lon="10.1737380">
	<ele>1806.40</ele>
	<time>2025-08-16T08:45:38.000Z</time>
</trkpt>
<trkpt lat="45.9637560" lon="10.1737230">
	<ele>1806.40</ele>
	<time>2025-08-16T08:45:39.000Z</time>
</trkpt>
<trkpt lat="45.9637500" lon="10.1737090">
	<ele>1806.60</ele>
	<time>2025-08-16T08:45:40.000Z</time>
</trkpt>
<trkpt lat="45.9637410" lon="10.1736980">
	<ele>1806.60</ele>
	<time>2025-08-16T08:45:41.000Z</time>
</trkpt>
<trkpt lat="45.9637310" lon="10.1736870">
	<ele>1806.60</ele>
	<time>2025-08-16T08:45:42.000Z</time>
</trkpt>
<trkpt lat="45.9637260" lon="10.1736760">
	<ele>1806.60</ele>
	<time>2025-08-16T08:45:43.000Z</time>
</trkpt>
<trkpt lat="45.9637160" lon="10.1736640">
	<ele>1806.60</ele>
	<time>2025-08-16T08:45:44.000Z</time>
</trkpt>
<trkpt lat="45.9637100" lon="10.1736500">
	<ele>1806.60</ele>
	<time>2025-08-16T08:45:45.000Z</time>
</trkpt>
<trkpt lat="45.9637090" lon="10.1736350">
	<ele>1806.80</ele>
	<time>2025-08-16T08:45:46.000Z</time>
</trkpt>
<trkpt lat="45.9637100" lon="10.1736190">
	<ele>1807.00</ele>
	<time>2025-08-16T08:45:47.000Z</time>
</trkpt>
<trkpt lat="45.9637060" lon="10.1736080">
	<ele>1807.20</ele>
	<time>2025-08-16T08:45:48.000Z</time>
</trkpt>
<trkpt lat="45.9636980" lon="10.1735920">
	<ele>1807.20</ele>
	<time>2025-08-16T08:45:49.000Z</time>
</trkpt>
<trkpt lat="45.9636890" lon="10.1735800">
	<ele>1807.20</ele>
	<time>2025-08-16T08:45:50.000Z</time>
</trkpt>
<trkpt lat="45.9636800" lon="10.1735730">
	<ele>1807.40</ele>
	<time>2025-08-16T08:45:51.000Z</time>
</trkpt>
<trkpt lat="45.9636690" lon="10.1735620">
	<ele>1807.40</ele>
	<time>2025-08-16T08:45:52.000Z</time>
</trkpt>
<trkpt lat="45.9636610" lon="10.1735510">
	<ele>1807.40</ele>
	<time>2025-08-16T08:45:53.000Z</time>
</trkpt>
<trkpt lat="45.9636450" lon="10.1735510">
	<ele>1807.40</ele>
	<time>2025-08-16T08:45:54.000Z</time>
</trkpt>
<trkpt lat="45.9636280" lon="10.1735400">
	<ele>1807.40</ele>
	<time>2025-08-16T08:45:55.000Z</time>
</trkpt>
<trkpt lat="45.9636130" lon="10.1735280">
	<ele>1807.40</ele>
	<time>2025-08-16T08:45:56.000Z</time>
</trkpt>
<trkpt lat="45.9636010" lon="10.1735170">
	<ele>1807.40</ele>
	<time>2025-08-16T08:45:57.000Z</time>
</trkpt>
<trkpt lat="45.9635940" lon="10.1735070">
	<ele>1807.40</ele>
	<time>2025-08-16T08:45:58.000Z</time>
</trkpt>
<trkpt lat="45.9635880" lon="10.1734970">
	<ele>1807.40</ele>
	<time>2025-08-16T08:45:59.000Z</time>
</trkpt>
<trkpt lat="45.9635820" lon="10.1734870">
	<ele>1807.40</ele>
	<time>2025-08-16T08:46:00.000Z</time>
</trkpt>
<trkpt lat="45.9635760" lon="10.1734750">
	<ele>1807.40</ele>
	<time>2025-08-16T08:46:01.000Z</time>
</trkpt>
<trkpt lat="45.9635710" lon="10.1734630">
	<ele>1807.60</ele>
	<time>2025-08-16T08:46:02.000Z</time>
</trkpt>
<trkpt lat="45.9635640" lon="10.1734570">
	<ele>1807.80</ele>
	<time>2025-08-16T08:46:03.000Z</time>
</trkpt>
<trkpt lat="45.9635580" lon="10.1734430">
	<ele>1808.20</ele>
	<time>2025-08-16T08:46:04.000Z</time>
</trkpt>
<trkpt lat="45.9635500" lon="10.1734330">
	<ele>1808.60</ele>
	<time>2025-08-16T08:46:05.000Z</time>
</trkpt>
<trkpt lat="45.9635410" lon="10.1734240">
	<ele>1808.60</ele>
	<time>2025-08-16T08:46:06.000Z</time>
</trkpt>
<trkpt lat="45.9635320" lon="10.1734160">
	<ele>1808.80</ele>
	<time>2025-08-16T08:46:07.000Z</time>
</trkpt>
<trkpt lat="45.9635230" lon="10.1734060">
	<ele>1809.00</ele>
	<time>2025-08-16T08:46:08.000Z</time>
</trkpt>
<trkpt lat="45.9635200" lon="10.1733980">
	<ele>1809.00</ele>
	<time>2025-08-16T08:46:09.000Z</time>
</trkpt>
<trkpt lat="45.9635180" lon="10.1733860">
	<ele>1809.20</ele>
	<time>2025-08-16T08:46:10.000Z</time>
</trkpt>
<trkpt lat="45.9635170" lon="10.1733750">
	<ele>1809.20</ele>
	<time>2025-08-16T08:46:11.000Z</time>
</trkpt>
<trkpt lat="45.9635110" lon="10.1733650">
	<ele>1809.60</ele>
	<time>2025-08-16T08:46:12.000Z</time>
</trkpt>
<trkpt lat="45.9635050" lon="10.1733570">
	<ele>1809.80</ele>
	<time>2025-08-16T08:46:13.000Z</time>
</trkpt>
<trkpt lat="45.9634980" lon="10.1733500">
	<ele>1810.20</ele>
	<time>2025-08-16T08:46:14.000Z</time>
</trkpt>
<trkpt lat="45.9634850" lon="10.1733320">
	<ele>1810.20</ele>
	<time>2025-08-16T08:46:15.000Z</time>
</trkpt>
<trkpt lat="45.9634780" lon="10.1733200">
	<ele>1810.40</ele>
	<time>2025-08-16T08:46:16.000Z</time>
</trkpt>
<trkpt lat="45.9634700" lon="10.1733090">
	<ele>1810.40</ele>
	<time>2025-08-16T08:46:17.000Z</time>
</trkpt>
<trkpt lat="45.9634630" lon="10.1732960">
	<ele>1810.40</ele>
	<time>2025-08-16T08:46:18.000Z</time>
</trkpt>
<trkpt lat="45.9634590" lon="10.1732790">
	<ele>1810.60</ele>
	<time>2025-08-16T08:46:19.000Z</time>
</trkpt>
<trkpt lat="45.9634530" lon="10.1732650">
	<ele>1810.40</ele>
	<time>2025-08-16T08:46:20.000Z</time>
</trkpt>
<trkpt lat="45.9634470" lon="10.1732520">
	<ele>1810.60</ele>
	<time>2025-08-16T08:46:21.000Z</time>
</trkpt>
<trkpt lat="45.9634380" lon="10.1732390">
	<ele>1810.60</ele>
	<time>2025-08-16T08:46:22.000Z</time>
</trkpt>
<trkpt lat="45.9634310" lon="10.1732300">
	<ele>1810.60</ele>
	<time>2025-08-16T08:46:23.000Z</time>
</trkpt>
<trkpt lat="45.9634240" lon="10.1732200">
	<ele>1810.80</ele>
	<time>2025-08-16T08:46:24.000Z</time>
</trkpt>
<trkpt lat="45.9634190" lon="10.1732000">
	<ele>1810.80</ele>
	<time>2025-08-16T08:46:25.000Z</time>
</trkpt>
<trkpt lat="45.9634090" lon="10.1731880">
	<ele>1811.00</ele>
	<time>2025-08-16T08:46:26.000Z</time>
</trkpt>
<trkpt lat="45.9633990" lon="10.1731740">
	<ele>1811.20</ele>
	<time>2025-08-16T08:46:27.000Z</time>
</trkpt>
<trkpt lat="45.9633900" lon="10.1731640">
	<ele>1811.20</ele>
	<time>2025-08-16T08:46:28.000Z</time>
</trkpt>
<trkpt lat="45.9633820" lon="10.1731540">
	<ele>1811.40</ele>
	<time>2025-08-16T08:46:29.000Z</time>
</trkpt>
<trkpt lat="45.9633750" lon="10.1731420">
	<ele>1811.60</ele>
	<time>2025-08-16T08:46:30.000Z</time>
</trkpt>
<trkpt lat="45.9633670" lon="10.1731370">
	<ele>1811.80</ele>
	<time>2025-08-16T08:46:31.000Z</time>
</trkpt>
<trkpt lat="45.9633610" lon="10.1731280">
	<ele>1811.80</ele>
	<time>2025-08-16T08:46:32.000Z</time>
</trkpt>
<trkpt lat="45.9633550" lon="10.1731190">
	<ele>1811.80</ele>
	<time>2025-08-16T08:46:33.000Z</time>
</trkpt>
<trkpt lat="45.9633500" lon="10.1731100">
	<ele>1812.00</ele>
	<time>2025-08-16T08:46:34.000Z</time>
</trkpt>
<trkpt lat="45.9633440" lon="10.1731040">
	<ele>1812.20</ele>
	<time>2025-08-16T08:46:35.000Z</time>
</trkpt>
<trkpt lat="45.9633390" lon="10.1730960">
	<ele>1812.20</ele>
	<time>2025-08-16T08:46:36.000Z</time>
</trkpt>
<trkpt lat="45.9633370" lon="10.1730870">
	<ele>1812.60</ele>
	<time>2025-08-16T08:46:37.000Z</time>
</trkpt>
<trkpt lat="45.9633350" lon="10.1730830">
	<ele>1812.80</ele>
	<time>2025-08-16T08:46:38.000Z</time>
</trkpt>
<trkpt lat="45.9633290" lon="10.1730790">
	<ele>1812.80</ele>
	<time>2025-08-16T08:46:39.000Z</time>
</trkpt>
<trkpt lat="45.9633240" lon="10.1730660">
	<ele>1813.00</ele>
	<time>2025-08-16T08:46:40.000Z</time>
</trkpt>
<trkpt lat="45.9633150" lon="10.1730440">
	<ele>1813.20</ele>
	<time>2025-08-16T08:46:41.000Z</time>
</trkpt>
<trkpt lat="45.9633110" lon="10.1730240">
	<ele>1813.20</ele>
	<time>2025-08-16T08:46:42.000Z</time>
</trkpt>
<trkpt lat="45.9633000" lon="10.1730080">
	<ele>1813.40</ele>
	<time>2025-08-16T08:46:43.000Z</time>
</trkpt>
<trkpt lat="45.9632920" lon="10.1729950">
	<ele>1813.40</ele>
	<time>2025-08-16T08:46:44.000Z</time>
</trkpt>
<trkpt lat="45.9632880" lon="10.1729850">
	<ele>1813.60</ele>
	<time>2025-08-16T08:46:45.000Z</time>
</trkpt>
<trkpt lat="45.9632870" lon="10.1729790">
	<ele>1813.60</ele>
	<time>2025-08-16T08:46:46.000Z</time>
</trkpt>
<trkpt lat="45.9632870" lon="10.1729720">
	<ele>1813.60</ele>
	<time>2025-08-16T08:46:47.000Z</time>
</trkpt>
<trkpt lat="45.9632830" lon="10.1729630">
	<ele>1813.80</ele>
	<time>2025-08-16T08:46:48.000Z</time>
</trkpt>
<trkpt lat="45.9632740" lon="10.1729550">
	<ele>1814.00</ele>
	<time>2025-08-16T08:46:49.000Z</time>
</trkpt>
<trkpt lat="45.9632620" lon="10.1729480">
	<ele>1814.20</ele>
	<time>2025-08-16T08:46:50.000Z</time>
</trkpt>
<trkpt lat="45.9632540" lon="10.1729440">
	<ele>1814.40</ele>
	<time>2025-08-16T08:46:51.000Z</time>
</trkpt>
<trkpt lat="45.9632460" lon="10.1729360">
	<ele>1814.40</ele>
	<time>2025-08-16T08:46:52.000Z</time>
</trkpt>
<trkpt lat="45.9632320" lon="10.1729380">
	<ele>1814.40</ele>
	<time>2025-08-16T08:46:53.000Z</time>
</trkpt>
<trkpt lat="45.9632260" lon="10.1729320">
	<ele>1814.40</ele>
	<time>2025-08-16T08:46:54.000Z</time>
</trkpt>
<trkpt lat="45.9632200" lon="10.1729140">
	<ele>1814.40</ele>
	<time>2025-08-16T08:46:55.000Z</time>
</trkpt>
<trkpt lat="45.9632040" lon="10.1728900">
	<ele>1814.60</ele>
	<time>2025-08-16T08:46:56.000Z</time>
</trkpt>
<trkpt lat="45.9631970" lon="10.1728620">
	<ele>1814.60</ele>
	<time>2025-08-16T08:46:57.000Z</time>
</trkpt>
<trkpt lat="45.9631940" lon="10.1728380">
	<ele>1814.60</ele>
	<time>2025-08-16T08:46:58.000Z</time>
</trkpt>
<trkpt lat="45.9631910" lon="10.1728030">
	<ele>1814.80</ele>
	<time>2025-08-16T08:46:59.000Z</time>
</trkpt>
<trkpt lat="45.9631880" lon="10.1727950">
	<ele>1814.80</ele>
	<time>2025-08-16T08:47:00.000Z</time>
</trkpt>
<trkpt lat="45.9631800" lon="10.1727810">
	<ele>1815.00</ele>
	<time>2025-08-16T08:47:01.000Z</time>
</trkpt>
<trkpt lat="45.9631730" lon="10.1727710">
	<ele>1815.00</ele>
	<time>2025-08-16T08:47:02.000Z</time>
</trkpt>
<trkpt lat="45.9631650" lon="10.1727610">
	<ele>1815.00</ele>
	<time>2025-08-16T08:47:03.000Z</time>
</trkpt>
<trkpt lat="45.9631600" lon="10.1727480">
	<ele>1815.00</ele>
	<time>2025-08-16T08:47:04.000Z</time>
</trkpt>
<trkpt lat="45.9631550" lon="10.1727300">
	<ele>1815.00</ele>
	<time>2025-08-16T08:47:05.000Z</time>
</trkpt>
<trkpt lat="45.9631510" lon="10.1727120">
	<ele>1815.20</ele>
	<time>2025-08-16T08:47:06.000Z</time>
</trkpt>
<trkpt lat="45.9631440" lon="10.1726960">
	<ele>1815.20</ele>
	<time>2025-08-16T08:47:07.000Z</time>
</trkpt>
<trkpt lat="45.9631350" lon="10.1726830">
	<ele>1815.20</ele>
	<time>2025-08-16T08:47:08.000Z</time>
</trkpt>
<trkpt lat="45.9631300" lon="10.1726650">
	<ele>1815.20</ele>
	<time>2025-08-16T08:47:09.000Z</time>
</trkpt>
<trkpt lat="45.9631230" lon="10.1726510">
	<ele>1815.20</ele>
	<time>2025-08-16T08:47:10.000Z</time>
</trkpt>
<trkpt lat="45.9631150" lon="10.1726390">
	<ele>1815.00</ele>
	<time>2025-08-16T08:47:11.000Z</time>
</trkpt>
<trkpt lat="45.9631100" lon="10.1726250">
	<ele>1815.00</ele>
	<time>2025-08-16T08:47:12.000Z</time>
</trkpt>
<trkpt lat="45.9631050" lon="10.1726090">
	<ele>1815.00</ele>
	<time>2025-08-16T08:47:13.000Z</time>
</trkpt>
<trkpt lat="45.9630960" lon="10.1725920">
	<ele>1815.00</ele>
	<time>2025-08-16T08:47:14.000Z</time>
</trkpt>
<trkpt lat="45.9630900" lon="10.1725770">
	<ele>1815.00</ele>
	<time>2025-08-16T08:47:15.000Z</time>
</trkpt>
<trkpt lat="45.9630870" lon="10.1725640">
	<ele>1815.00</ele>
	<time>2025-08-16T08:47:16.000Z</time>
</trkpt>
<trkpt lat="45.9630840" lon="10.1725430">
	<ele>1815.00</ele>
	<time>2025-08-16T08:47:17.000Z</time>
</trkpt>
<trkpt lat="45.9630830" lon="10.1725280">
	<ele>1815.20</ele>
	<time>2025-08-16T08:47:18.000Z</time>
</trkpt>
<trkpt lat="45.9630830" lon="10.1725100">
	<ele>1815.40</ele>
	<time>2025-08-16T08:47:19.000Z</time>
</trkpt>
<trkpt lat="45.9630840" lon="10.1724920">
	<ele>1815.40</ele>
	<time>2025-08-16T08:47:20.000Z</time>
</trkpt>
<trkpt lat="45.9630890" lon="10.1724720">
	<ele>1815.40</ele>
	<time>2025-08-16T08:47:21.000Z</time>
</trkpt>
<trkpt lat="45.9630900" lon="10.1724570">
	<ele>1815.40</ele>
	<time>2025-08-16T08:47:22.000Z</time>
</trkpt>
<trkpt lat="45.9630900" lon="10.1724410">
	<ele>1815.60</ele>
	<time>2025-08-16T08:47:23.000Z</time>
</trkpt>
<trkpt lat="45.9630920" lon="10.1724160">
	<ele>1815.60</ele>
	<time>2025-08-16T08:47:24.000Z</time>
</trkpt>
<trkpt lat="45.9630960" lon="10.1723950">
	<ele>1815.80</ele>
	<time>2025-08-16T08:47:25.000Z</time>
</trkpt>
<trkpt lat="45.9630940" lon="10.1723810">
	<ele>1815.80</ele>
	<time>2025-08-16T08:47:26.000Z</time>
</trkpt>
<trkpt lat="45.9630890" lon="10.1723710">
	<ele>1816.00</ele>
	<time>2025-08-16T08:47:27.000Z</time>
</trkpt>
<trkpt lat="45.9630790" lon="10.1723640">
	<ele>1816.00</ele>
	<time>2025-08-16T08:47:28.000Z</time>
</trkpt>
<trkpt lat="45.9630680" lon="10.1723570">
	<ele>1816.00</ele>
	<time>2025-08-16T08:47:29.000Z</time>
</trkpt>
<trkpt lat="45.9630580" lon="10.1723450">
	<ele>1816.00</ele>
	<time>2025-08-16T08:47:30.000Z</time>
</trkpt>
<trkpt lat="45.9630490" lon="10.1723320">
	<ele>1815.60</ele>
	<time>2025-08-16T08:47:31.000Z</time>
</trkpt>
<trkpt lat="45.9630410" lon="10.1723140">
	<ele>1815.60</ele>
	<time>2025-08-16T08:47:32.000Z</time>
</trkpt>
<trkpt lat="45.9630370" lon="10.1722860">
	<ele>1815.40</ele>
	<time>2025-08-16T08:47:33.000Z</time>
</trkpt>
<trkpt lat="45.9630300" lon="10.1722750">
	<ele>1815.40</ele>
	<time>2025-08-16T08:47:34.000Z</time>
</trkpt>
<trkpt lat="45.9630190" lon="10.1722690">
	<ele>1815.20</ele>
	<time>2025-08-16T08:47:35.000Z</time>
</trkpt>
<trkpt lat="45.9630080" lon="10.1722580">
	<ele>1815.20</ele>
	<time>2025-08-16T08:47:36.000Z</time>
</trkpt>
<trkpt lat="45.9629960" lon="10.1722430">
	<ele>1815.00</ele>
	<time>2025-08-16T08:47:37.000Z</time>
</trkpt>
<trkpt lat="45.9629840" lon="10.1722300">
	<ele>1815.00</ele>
	<time>2025-08-16T08:47:38.000Z</time>
</trkpt>
<trkpt lat="45.9629800" lon="10.1722170">
	<ele>1814.60</ele>
	<time>2025-08-16T08:47:39.000Z</time>
</trkpt>
<trkpt lat="45.9629740" lon="10.1722040">
	<ele>1814.60</ele>
	<time>2025-08-16T08:47:40.000Z</time>
</trkpt>
<trkpt lat="45.9629650" lon="10.1721850">
	<ele>1814.40</ele>
	<time>2025-08-16T08:47:41.000Z</time>
</trkpt>
<trkpt lat="45.9629560" lon="10.1721700">
	<ele>1814.40</ele>
	<time>2025-08-16T08:47:42.000Z</time>
</trkpt>
<trkpt lat="45.9629500" lon="10.1721570">
	<ele>1814.20</ele>
	<time>2025-08-16T08:47:43.000Z</time>
</trkpt>
<trkpt lat="45.9629430" lon="10.1721400">
	<ele>1814.20</ele>
	<time>2025-08-16T08:47:44.000Z</time>
</trkpt>
<trkpt lat="45.9629340" lon="10.1721250">
	<ele>1814.20</ele>
	<time>2025-08-16T08:47:45.000Z</time>
</trkpt>
<trkpt lat="45.9629190" lon="10.1721140">
	<ele>1814.00</ele>
	<time>2025-08-16T08:47:46.000Z</time>
</trkpt>
<trkpt lat="45.9629100" lon="10.1720920">
	<ele>1814.00</ele>
	<time>2025-08-16T08:47:47.000Z</time>
</trkpt>
<trkpt lat="45.9629020" lon="10.1720720">
	<ele>1814.00</ele>
	<time>2025-08-16T08:47:48.000Z</time>
</trkpt>
<trkpt lat="45.9628930" lon="10.1720570">
	<ele>1813.80</ele>
	<time>2025-08-16T08:47:49.000Z</time>
</trkpt>
<trkpt lat="45.9628850" lon="10.1720400">
	<ele>1813.80</ele>
	<time>2025-08-16T08:47:50.000Z</time>
</trkpt>
<trkpt lat="45.9628780" lon="10.1720260">
	<ele>1813.80</ele>
	<time>2025-08-16T08:47:51.000Z</time>
</trkpt>
<trkpt lat="45.9628730" lon="10.1720130">
	<ele>1813.80</ele>
	<time>2025-08-16T08:47:52.000Z</time>
</trkpt>
<trkpt lat="45.9628700" lon="10.1719970">
	<ele>1813.80</ele>
	<time>2025-08-16T08:47:53.000Z</time>
</trkpt>
<trkpt lat="45.9628700" lon="10.1719800">
	<ele>1814.00</ele>
	<time>2025-08-16T08:47:54.000Z</time>
</trkpt>
<trkpt lat="45.9628680" lon="10.1719620">
	<ele>1813.80</ele>
	<time>2025-08-16T08:47:55.000Z</time>
</trkpt>
<trkpt lat="45.9628660" lon="10.1719450">
	<ele>1813.80</ele>
	<time>2025-08-16T08:47:56.000Z</time>
</trkpt>
<trkpt lat="45.9628670" lon="10.1719310">
	<ele>1813.80</ele>
	<time>2025-08-16T08:47:57.000Z</time>
</trkpt>
<trkpt lat="45.9628660" lon="10.1719190">
	<ele>1813.80</ele>
	<time>2025-08-16T08:47:58.000Z</time>
</trkpt>
<trkpt lat="45.9628610" lon="10.1719030">
	<ele>1813.80</ele>
	<time>2025-08-16T08:47:59.000Z</time>
</trkpt>
<trkpt lat="45.9628560" lon="10.1718880">
	<ele>1813.80</ele>
	<time>2025-08-16T08:48:00.000Z</time>
</trkpt>
<trkpt lat="45.9628490" lon="10.1718730">
	<ele>1813.80</ele>
	<time>2025-08-16T08:48:01.000Z</time>
</trkpt>
<trkpt lat="45.9628380" lon="10.1718670">
	<ele>1813.40</ele>
	<time>2025-08-16T08:48:02.000Z</time>
</trkpt>
<trkpt lat="45.9628330" lon="10.1718570">
	<ele>1813.40</ele>
	<time>2025-08-16T08:48:03.000Z</time>
</trkpt>
<trkpt lat="45.9628350" lon="10.1718390">
	<ele>1813.00</ele>
	<time>2025-08-16T08:48:04.000Z</time>
</trkpt>
<trkpt lat="45.9628310" lon="10.1718250">
	<ele>1813.00</ele>
	<time>2025-08-16T08:48:05.000Z</time>
</trkpt>
<trkpt lat="45.9628290" lon="10.1718060">
	<ele>1812.80</ele>
	<time>2025-08-16T08:48:06.000Z</time>
</trkpt>
<trkpt lat="45.9628270" lon="10.1717880">
	<ele>1812.60</ele>
	<time>2025-08-16T08:48:07.000Z</time>
</trkpt>
<trkpt lat="45.9628230" lon="10.1717730">
	<ele>1812.60</ele>
	<time>2025-08-16T08:48:08.000Z</time>
</trkpt>
<trkpt lat="45.9628150" lon="10.1717590">
	<ele>1812.40</ele>
	<time>2025-08-16T08:48:09.000Z</time>
</trkpt>
<trkpt lat="45.9628090" lon="10.1717460">
	<ele>1812.20</ele>
	<time>2025-08-16T08:48:10.000Z</time>
</trkpt>
<trkpt lat="45.9628050" lon="10.1717370">
	<ele>1812.00</ele>
	<time>2025-08-16T08:48:11.000Z</time>
</trkpt>
<trkpt lat="45.9627940" lon="10.1717230">
	<ele>1812.00</ele>
	<time>2025-08-16T08:48:12.000Z</time>
</trkpt>
<trkpt lat="45.9627850" lon="10.1717160">
	<ele>1812.00</ele>
	<time>2025-08-16T08:48:13.000Z</time>
</trkpt>
<trkpt lat="45.9627750" lon="10.1717050">
	<ele>1811.80</ele>
	<time>2025-08-16T08:48:14.000Z</time>
</trkpt>
<trkpt lat="45.9627670" lon="10.1716910">
	<ele>1811.80</ele>
	<time>2025-08-16T08:48:15.000Z</time>
</trkpt>
<trkpt lat="45.9627570" lon="10.1716830">
	<ele>1811.80</ele>
	<time>2025-08-16T08:48:16.000Z</time>
</trkpt>
<trkpt lat="45.9627440" lon="10.1716800">
	<ele>1811.80</ele>
	<time>2025-08-16T08:48:17.000Z</time>
</trkpt>
<trkpt lat="45.9627340" lon="10.1716780">
	<ele>1811.60</ele>
	<time>2025-08-16T08:48:18.000Z</time>
</trkpt>
<trkpt lat="45.9627250" lon="10.1716630">
	<ele>1811.60</ele>
	<time>2025-08-16T08:48:19.000Z</time>
</trkpt>
<trkpt lat="45.9627260" lon="10.1716430">
	<ele>1811.40</ele>
	<time>2025-08-16T08:48:20.000Z</time>
</trkpt>
<trkpt lat="45.9627260" lon="10.1716250">
	<ele>1811.20</ele>
	<time>2025-08-16T08:48:21.000Z</time>
</trkpt>
<trkpt lat="45.9627270" lon="10.1716160">
	<ele>1811.00</ele>
	<time>2025-08-16T08:48:22.000Z</time>
</trkpt>
<trkpt lat="45.9627230" lon="10.1716110">
	<ele>1811.00</ele>
	<time>2025-08-16T08:48:23.000Z</time>
</trkpt>
<trkpt lat="45.9627140" lon="10.1716060">
	<ele>1811.00</ele>
	<time>2025-08-16T08:48:24.000Z</time>
</trkpt>
<trkpt lat="45.9627090" lon="10.1716050">
	<ele>1811.20</ele>
	<time>2025-08-16T08:48:25.000Z</time>
</trkpt>
<trkpt lat="45.9627040" lon="10.1716030">
	<ele>1811.40</ele>
	<time>2025-08-16T08:48:26.000Z</time>
</trkpt>
<trkpt lat="45.9626950" lon="10.1715940">
	<ele>1811.40</ele>
	<time>2025-08-16T08:48:27.000Z</time>
</trkpt>
<trkpt lat="45.9626890" lon="10.1715890">
	<ele>1811.60</ele>
	<time>2025-08-16T08:48:28.000Z</time>
</trkpt>
<trkpt lat="45.9626790" lon="10.1715890">
	<ele>1811.60</ele>
	<time>2025-08-16T08:48:29.000Z</time>
</trkpt>
<trkpt lat="45.9626680" lon="10.1715860">
	<ele>1811.40</ele>
	<time>2025-08-16T08:48:30.000Z</time>
</trkpt>
<trkpt lat="45.9626560" lon="10.1715860">
	<ele>1811.20</ele>
	<time>2025-08-16T08:48:31.000Z</time>
</trkpt>
<trkpt lat="45.9626430" lon="10.1715750">
	<ele>1811.00</ele>
	<time>2025-08-16T08:48:32.000Z</time>
</trkpt>
<trkpt lat="45.9626310" lon="10.1715650">
	<ele>1810.80</ele>
	<time>2025-08-16T08:48:33.000Z</time>
</trkpt>
<trkpt lat="45.9626210" lon="10.1715520">
	<ele>1810.40</ele>
	<time>2025-08-16T08:48:34.000Z</time>
</trkpt>
<trkpt lat="45.9626150" lon="10.1715360">
	<ele>1810.20</ele>
	<time>2025-08-16T08:48:35.000Z</time>
</trkpt>
<trkpt lat="45.9626060" lon="10.1715260">
	<ele>1810.00</ele>
	<time>2025-08-16T08:48:36.000Z</time>
</trkpt>
<trkpt lat="45.9625950" lon="10.1715190">
	<ele>1810.00</ele>
	<time>2025-08-16T08:48:37.000Z</time>
</trkpt>
<trkpt lat="45.9625830" lon="10.1715100">
	<ele>1809.80</ele>
	<time>2025-08-16T08:48:38.000Z</time>
</trkpt>
<trkpt lat="45.9625680" lon="10.1714770">
	<ele>1809.80</ele>
	<time>2025-08-16T08:48:39.000Z</time>
</trkpt>
<trkpt lat="45.9625560" lon="10.1714550">
	<ele>1809.80</ele>
	<time>2025-08-16T08:48:40.000Z</time>
</trkpt>
<trkpt lat="45.9625460" lon="10.1714430">
	<ele>1809.60</ele>
	<time>2025-08-16T08:48:41.000Z</time>
</trkpt>
<trkpt lat="45.9625380" lon="10.1714310">
	<ele>1809.60</ele>
	<time>2025-08-16T08:48:42.000Z</time>
</trkpt>
<trkpt lat="45.9625250" lon="10.1714160">
	<ele>1809.40</ele>
	<time>2025-08-16T08:48:43.000Z</time>
</trkpt>
<trkpt lat="45.9625140" lon="10.1714010">
	<ele>1809.40</ele>
	<time>2025-08-16T08:48:44.000Z</time>
</trkpt>
<trkpt lat="45.9625030" lon="10.1713790">
	<ele>1809.60</ele>
	<time>2025-08-16T08:48:45.000Z</time>
</trkpt>
<trkpt lat="45.9624950" lon="10.1713590">
	<ele>1809.60</ele>
	<time>2025-08-16T08:48:46.000Z</time>
</trkpt>
<trkpt lat="45.9624850" lon="10.1713550">
	<ele>1809.60</ele>
	<time>2025-08-16T08:48:47.000Z</time>
</trkpt>
<trkpt lat="45.9624750" lon="10.1713500">
	<ele>1809.60</ele>
	<time>2025-08-16T08:48:48.000Z</time>
</trkpt>
<trkpt lat="45.9624660" lon="10.1713410">
	<ele>1809.60</ele>
	<time>2025-08-16T08:48:49.000Z</time>
</trkpt>
<trkpt lat="45.9624580" lon="10.1713320">
	<ele>1809.60</ele>
	<time>2025-08-16T08:48:50.000Z</time>
</trkpt>
<trkpt lat="45.9624510" lon="10.1713190">
	<ele>1809.60</ele>
	<time>2025-08-16T08:48:51.000Z</time>
</trkpt>
<trkpt lat="45.9624430" lon="10.1713040">
	<ele>1809.60</ele>
	<time>2025-08-16T08:48:52.000Z</time>
</trkpt>
<trkpt lat="45.9624350" lon="10.1712900">
	<ele>1809.60</ele>
	<time>2025-08-16T08:48:53.000Z</time>
</trkpt>
<trkpt lat="45.9624240" lon="10.1712790">
	<ele>1809.60</ele>
	<time>2025-08-16T08:48:54.000Z</time>
</trkpt>
<trkpt lat="45.9624150" lon="10.1712660">
	<ele>1809.60</ele>
	<time>2025-08-16T08:48:55.000Z</time>
</trkpt>
<trkpt lat="45.9624060" lon="10.1712570">
	<ele>1809.60</ele>
	<time>2025-08-16T08:48:56.000Z</time>
</trkpt>
<trkpt lat="45.9624020" lon="10.1712410">
	<ele>1809.60</ele>
	<time>2025-08-16T08:48:57.000Z</time>
</trkpt>
<trkpt lat="45.9623890" lon="10.1712210">
	<ele>1809.60</ele>
	<time>2025-08-16T08:48:58.000Z</time>
</trkpt>
<trkpt lat="45.9623760" lon="10.1712110">
	<ele>1809.60</ele>
	<time>2025-08-16T08:48:59.000Z</time>
</trkpt>
<trkpt lat="45.9623670" lon="10.1711930">
	<ele>1809.60</ele>
	<time>2025-08-16T08:49:00.000Z</time>
</trkpt>
<trkpt lat="45.9623560" lon="10.1711790">
	<ele>1809.60</ele>
	<time>2025-08-16T08:49:01.000Z</time>
</trkpt>
<trkpt lat="45.9623480" lon="10.1711620">
	<ele>1809.60</ele>
	<time>2025-08-16T08:49:02.000Z</time>
</trkpt>
<trkpt lat="45.9623390" lon="10.1711530">
	<ele>1809.80</ele>
	<time>2025-08-16T08:49:03.000Z</time>
</trkpt>
<trkpt lat="45.9623310" lon="10.1711490">
	<ele>1809.80</ele>
	<time>2025-08-16T08:49:04.000Z</time>
</trkpt>
<trkpt lat="45.9623230" lon="10.1711420">
	<ele>1809.80</ele>
	<time>2025-08-16T08:49:05.000Z</time>
</trkpt>
<trkpt lat="45.9623160" lon="10.1711310">
	<ele>1810.00</ele>
	<time>2025-08-16T08:49:06.000Z</time>
</trkpt>
<trkpt lat="45.9623150" lon="10.1711230">
	<ele>1810.20</ele>
	<time>2025-08-16T08:49:07.000Z</time>
</trkpt>
<trkpt lat="45.9623140" lon="10.1711160">
	<ele>1810.20</ele>
	<time>2025-08-16T08:49:08.000Z</time>
</trkpt>
<trkpt lat="45.9623080" lon="10.1711080">
	<ele>1810.40</ele>
	<time>2025-08-16T08:49:09.000Z</time>
</trkpt>
<trkpt lat="45.9622990" lon="10.1710950">
	<ele>1810.60</ele>
	<time>2025-08-16T08:49:10.000Z</time>
</trkpt>
<trkpt lat="45.9622910" lon="10.1710810">
	<ele>1810.80</ele>
	<time>2025-08-16T08:49:11.000Z</time>
</trkpt>
<trkpt lat="45.9622830" lon="10.1710690">
	<ele>1810.80</ele>
	<time>2025-08-16T08:49:12.000Z</time>
</trkpt>
<trkpt lat="45.9622790" lon="10.1710490">
	<ele>1811.00</ele>
	<time>2025-08-16T08:49:13.000Z</time>
</trkpt>
<trkpt lat="45.9622730" lon="10.1710290">
	<ele>1811.00</ele>
	<time>2025-08-16T08:49:14.000Z</time>
</trkpt>
<trkpt lat="45.9622620" lon="10.1710310">
	<ele>1811.20</ele>
	<time>2025-08-16T08:49:15.000Z</time>
</trkpt>
<trkpt lat="45.9622500" lon="10.1710190">
	<ele>1811.20</ele>
	<time>2025-08-16T08:49:16.000Z</time>
</trkpt>
<trkpt lat="45.9622390" lon="10.1710100">
	<ele>1811.40</ele>
	<time>2025-08-16T08:49:17.000Z</time>
</trkpt>
<trkpt lat="45.9622280" lon="10.1709960">
	<ele>1811.40</ele>
	<time>2025-08-16T08:49:18.000Z</time>
</trkpt>
<trkpt lat="45.9622200" lon="10.1709790">
	<ele>1811.40</ele>
	<time>2025-08-16T08:49:19.000Z</time>
</trkpt>
<trkpt lat="45.9622160" lon="10.1709640">
	<ele>1811.40</ele>
	<time>2025-08-16T08:49:20.000Z</time>
</trkpt>
<trkpt lat="45.9622080" lon="10.1709530">
	<ele>1811.40</ele>
	<time>2025-08-16T08:49:21.000Z</time>
</trkpt>
<trkpt lat="45.9621980" lon="10.1709360">
	<ele>1811.40</ele>
	<time>2025-08-16T08:49:22.000Z</time>
</trkpt>
<trkpt lat="45.9621890" lon="10.1709210">
	<ele>1811.60</ele>
	<time>2025-08-16T08:49:23.000Z</time>
</trkpt>
<trkpt lat="45.9621730" lon="10.1709200">
	<ele>1811.80</ele>
	<time>2025-08-16T08:49:24.000Z</time>
</trkpt>
<trkpt lat="45.9621590" lon="10.1709130">
	<ele>1811.80</ele>
	<time>2025-08-16T08:49:25.000Z</time>
</trkpt>
<trkpt lat="45.9621500" lon="10.1709030">
	<ele>1812.00</ele>
	<time>2025-08-16T08:49:26.000Z</time>
</trkpt>
<trkpt lat="45.9621400" lon="10.1708970">
	<ele>1812.20</ele>
	<time>2025-08-16T08:49:27.000Z</time>
</trkpt>
<trkpt lat="45.9621290" lon="10.1708930">
	<ele>1812.20</ele>
	<time>2025-08-16T08:49:28.000Z</time>
</trkpt>
<trkpt lat="45.9621170" lon="10.1708890">
	<ele>1812.20</ele>
	<time>2025-08-16T08:49:29.000Z</time>
</trkpt>
<trkpt lat="45.9621030" lon="10.1708830">
	<ele>1812.20</ele>
	<time>2025-08-16T08:49:30.000Z</time>
</trkpt>
<trkpt lat="45.9620930" lon="10.1708720">
	<ele>1812.20</ele>
	<time>2025-08-16T08:49:31.000Z</time>
</trkpt>
<trkpt lat="45.9620850" lon="10.1708590">
	<ele>1812.20</ele>
	<time>2025-08-16T08:49:32.000Z</time>
</trkpt>
<trkpt lat="45.9620800" lon="10.1708450">
	<ele>1812.20</ele>
	<time>2025-08-16T08:49:33.000Z</time>
</trkpt>
<trkpt lat="45.9620750" lon="10.1708330">
	<ele>1812.20</ele>
	<time>2025-08-16T08:49:34.000Z</time>
</trkpt>
<trkpt lat="45.9620730" lon="10.1708300">
	<ele>1812.20</ele>
	<time>2025-08-16T08:49:35.000Z</time>
</trkpt>
<trkpt lat="45.9620730" lon="10.1708280">
	<ele>1812.20</ele>
	<time>2025-08-16T08:49:36.000Z</time>
</trkpt>
<trkpt lat="45.9620730" lon="10.1708260">
	<ele>1812.20</ele>
	<time>2025-08-16T08:49:37.000Z</time>
</trkpt>
<trkpt lat="45.9620640" lon="10.1708240">
	<ele>1812.20</ele>
	<time>2025-08-16T08:49:38.000Z</time>
</trkpt>
<trkpt lat="45.9620530" lon="10.1708200">
	<ele>1812.20</ele>
	<time>2025-08-16T08:49:39.000Z</time>
</trkpt>
<trkpt lat="45.9620530" lon="10.1708110">
	<ele>1812.20</ele>
	<time>2025-08-16T08:49:40.000Z</time>
</trkpt>
<trkpt lat="45.9620480" lon="10.1707960">
	<ele>1812.20</ele>
	<time>2025-08-16T08:49:41.000Z</time>
</trkpt>
<trkpt lat="45.9620450" lon="10.1707780">
	<ele>1812.20</ele>
	<time>2025-08-16T08:49:42.000Z</time>
</trkpt>
<trkpt lat="45.9620400" lon="10.1707600">
	<ele>1812.20</ele>
	<time>2025-08-16T08:49:43.000Z</time>
</trkpt>
<trkpt lat="45.9620330" lon="10.1707430">
	<ele>1812.00</ele>
	<time>2025-08-16T08:49:44.000Z</time>
</trkpt>
<trkpt lat="45.9620270" lon="10.1707350">
	<ele>1812.00</ele>
	<time>2025-08-16T08:49:45.000Z</time>
</trkpt>
<trkpt lat="45.9620220" lon="10.1707310">
	<ele>1812.00</ele>
	<time>2025-08-16T08:49:46.000Z</time>
</trkpt>
<trkpt lat="45.9620110" lon="10.1707200">
	<ele>1812.00</ele>
	<time>2025-08-16T08:49:47.000Z</time>
</trkpt>
<trkpt lat="45.9620030" lon="10.1707140">
	<ele>1812.00</ele>
	<time>2025-08-16T08:49:48.000Z</time>
</trkpt>
<trkpt lat="45.9620000" lon="10.1707100">
	<ele>1812.00</ele>
	<time>2025-08-16T08:49:49.000Z</time>
</trkpt>
<trkpt lat="45.9619980" lon="10.1707100">
	<ele>1812.00</ele>
	<time>2025-08-16T08:49:50.000Z</time>
</trkpt>
<trkpt lat="45.9619960" lon="10.1707080">
	<ele>1812.00</ele>
	<time>2025-08-16T08:49:51.000Z</time>
</trkpt>
<trkpt lat="45.9619950" lon="10.1707070">
	<ele>1812.00</ele>
	<time>2025-08-16T08:49:52.000Z</time>
</trkpt>
<trkpt lat="45.9619940" lon="10.1707090">
	<ele>1812.00</ele>
	<time>2025-08-16T08:49:53.000Z</time>
</trkpt>
<trkpt lat="45.9619930" lon="10.1707110">
	<ele>1812.00</ele>
	<time>2025-08-16T08:49:54.000Z</time>
</trkpt>
<trkpt lat="45.9619930" lon="10.1707120">
	<ele>1812.00</ele>
	<time>2025-08-16T08:49:55.000Z</time>
</trkpt>
<trkpt lat="45.9619930" lon="10.1707130">
	<ele>1812.00</ele>
	<time>2025-08-16T08:49:56.000Z</time>
</trkpt>
<trkpt lat="45.9619930" lon="10.1707150">
	<ele>1812.00</ele>
	<time>2025-08-16T08:49:57.000Z</time>
</trkpt>
<trkpt lat="45.9619930" lon="10.1707150">
	<ele>1812.00</ele>
	<time>2025-08-16T08:49:58.000Z</time>
</trkpt>
<trkpt lat="45.9619920" lon="10.1707130">
	<ele>1812.00</ele>
	<time>2025-08-16T08:49:59.000Z</time>
</trkpt>
<trkpt lat="45.9619880" lon="10.1707060">
	<ele>1811.80</ele>
	<time>2025-08-16T08:50:00.000Z</time>
</trkpt>
<trkpt lat="45.9619840" lon="10.1706990">
	<ele>1811.80</ele>
	<time>2025-08-16T08:50:01.000Z</time>
</trkpt>
<trkpt lat="45.9619760" lon="10.1706890">
	<ele>1811.80</ele>
	<time>2025-08-16T08:50:02.000Z</time>
</trkpt>
<trkpt lat="45.9619670" lon="10.1706780">
	<ele>1811.60</ele>
	<time>2025-08-16T08:50:03.000Z</time>
</trkpt>
<trkpt lat="45.9619590" lon="10.1706690">
	<ele>1811.60</ele>
	<time>2025-08-16T08:50:04.000Z</time>
</trkpt>
<trkpt lat="45.9619520" lon="10.1706640">
	<ele>1811.40</ele>
	<time>2025-08-16T08:50:05.000Z</time>
</trkpt>
<trkpt lat="45.9619470" lon="10.1706620">
	<ele>1811.40</ele>
	<time>2025-08-16T08:50:06.000Z</time>
</trkpt>
<trkpt lat="45.9619440" lon="10.1706570">
	<ele>1811.40</ele>
	<time>2025-08-16T08:50:07.000Z</time>
</trkpt>
<trkpt lat="45.9619380" lon="10.1706540">
	<ele>1811.40</ele>
	<time>2025-08-16T08:50:08.000Z</time>
</trkpt>
<trkpt lat="45.9619310" lon="10.1706500">
	<ele>1811.20</ele>
	<time>2025-08-16T08:50:09.000Z</time>
</trkpt>
<trkpt lat="45.9619250" lon="10.1706470">
	<ele>1811.20</ele>
	<time>2025-08-16T08:50:10.000Z</time>
</trkpt>
<trkpt lat="45.9619190" lon="10.1706390">
	<ele>1811.20</ele>
	<time>2025-08-16T08:50:11.000Z</time>
</trkpt>
<trkpt lat="45.9619100" lon="10.1706220">
	<ele>1811.00</ele>
	<time>2025-08-16T08:50:12.000Z</time>
</trkpt>
<trkpt lat="45.9619030" lon="10.1706100">
	<ele>1811.00</ele>
	<time>2025-08-16T08:50:13.000Z</time>
</trkpt>
<trkpt lat="45.9618960" lon="10.1705980">
	<ele>1811.00</ele>
	<time>2025-08-16T08:50:14.000Z</time>
</trkpt>
<trkpt lat="45.9618850" lon="10.1705800">
	<ele>1810.80</ele>
	<time>2025-08-16T08:50:15.000Z</time>
</trkpt>
<trkpt lat="45.9618720" lon="10.1705670">
	<ele>1810.60</ele>
	<time>2025-08-16T08:50:16.000Z</time>
</trkpt>
<trkpt lat="45.9618640" lon="10.1705560">
	<ele>1810.60</ele>
	<time>2025-08-16T08:50:17.000Z</time>
</trkpt>
<trkpt lat="45.9618560" lon="10.1705430">
	<ele>1810.60</ele>
	<time>2025-08-16T08:50:18.000Z</time>
</trkpt>
<trkpt lat="45.9618450" lon="10.1705300">
	<ele>1810.40</ele>
	<time>2025-08-16T08:50:19.000Z</time>
</trkpt>
<trkpt lat="45.9618390" lon="10.1705180">
	<ele>1810.40</ele>
	<time>2025-08-16T08:50:20.000Z</time>
</trkpt>
<trkpt lat="45.9618350" lon="10.1705110">
	<ele>1810.40</ele>
	<time>2025-08-16T08:50:21.000Z</time>
</trkpt>
<trkpt lat="45.9618300" lon="10.1704980">
	<ele>1810.20</ele>
	<time>2025-08-16T08:50:22.000Z</time>
</trkpt>
<trkpt lat="45.9618250" lon="10.1704810">
	<ele>1810.00</ele>
	<time>2025-08-16T08:50:23.000Z</time>
</trkpt>
<trkpt lat="45.9618220" lon="10.1704670">
	<ele>1809.80</ele>
	<time>2025-08-16T08:50:24.000Z</time>
</trkpt>
<trkpt lat="45.9618210" lon="10.1704610">
	<ele>1809.60</ele>
	<time>2025-08-16T08:50:25.000Z</time>
</trkpt>
<trkpt lat="45.9618190" lon="10.1704590">
	<ele>1809.60</ele>
	<time>2025-08-16T08:50:26.000Z</time>
</trkpt>
<trkpt lat="45.9618180" lon="10.1704590">
	<ele>1809.60</ele>
	<time>2025-08-16T08:50:27.000Z</time>
</trkpt>
<trkpt lat="45.9618180" lon="10.1704590">
	<ele>1809.60</ele>
	<time>2025-08-16T08:50:28.000Z</time>
</trkpt>
<trkpt lat="45.9618180" lon="10.1704590">
	<ele>1809.60</ele>
	<time>2025-08-16T08:50:29.000Z</time>
</trkpt>
<trkpt lat="45.9618150" lon="10.1704530">
	<ele>1809.80</ele>
	<time>2025-08-16T08:50:30.000Z</time>
</trkpt>
<trkpt lat="45.9618120" lon="10.1704450">
	<ele>1809.80</ele>
	<time>2025-08-16T08:50:31.000Z</time>
</trkpt>
<trkpt lat="45.9618050" lon="10.1704360">
	<ele>1809.60</ele>
	<time>2025-08-16T08:50:32.000Z</time>
</trkpt>
<trkpt lat="45.9617960" lon="10.1704240">
	<ele>1809.40</ele>
	<time>2025-08-16T08:50:33.000Z</time>
</trkpt>
<trkpt lat="45.9617880" lon="10.1704070">
	<ele>1809.40</ele>
	<time>2025-08-16T08:50:34.000Z</time>
</trkpt>
<trkpt lat="45.9617830" lon="10.1703930">
	<ele>1809.20</ele>
	<time>2025-08-16T08:50:35.000Z</time>
</trkpt>
<trkpt lat="45.9617770" lon="10.1703810">
	<ele>1809.00</ele>
	<time>2025-08-16T08:50:36.000Z</time>
</trkpt>
<trkpt lat="45.9617640" lon="10.1703650">
	<ele>1809.00</ele>
	<time>2025-08-16T08:50:37.000Z</time>
</trkpt>
<trkpt lat="45.9617560" lon="10.1703550">
	<ele>1809.00</ele>
	<time>2025-08-16T08:50:38.000Z</time>
</trkpt>
<trkpt lat="45.9617470" lon="10.1703420">
	<ele>1808.80</ele>
	<time>2025-08-16T08:50:39.000Z</time>
</trkpt>
<trkpt lat="45.9617390" lon="10.1703270">
	<ele>1808.80</ele>
	<time>2025-08-16T08:50:40.000Z</time>
</trkpt>
<trkpt lat="45.9617290" lon="10.1703150">
	<ele>1808.80</ele>
	<time>2025-08-16T08:50:41.000Z</time>
</trkpt>
<trkpt lat="45.9617180" lon="10.1703000">
	<ele>1808.60</ele>
	<time>2025-08-16T08:50:42.000Z</time>
</trkpt>
<trkpt lat="45.9617080" lon="10.1702850">
	<ele>1808.40</ele>
	<time>2025-08-16T08:50:43.000Z</time>
</trkpt>
<trkpt lat="45.9616980" lon="10.1702730">
	<ele>1808.20</ele>
	<time>2025-08-16T08:50:44.000Z</time>
</trkpt>
<trkpt lat="45.9616920" lon="10.1702620">
	<ele>1808.20</ele>
	<time>2025-08-16T08:50:45.000Z</time>
</trkpt>
<trkpt lat="45.9616860" lon="10.1702500">
	<ele>1808.20</ele>
	<time>2025-08-16T08:50:46.000Z</time>
</trkpt>
<trkpt lat="45.9616810" lon="10.1702350">
	<ele>1808.00</ele>
	<time>2025-08-16T08:50:47.000Z</time>
</trkpt>
<trkpt lat="45.9616750" lon="10.1702180">
	<ele>1807.80</ele>
	<time>2025-08-16T08:50:48.000Z</time>
</trkpt>
<trkpt lat="45.9616650" lon="10.1702030">
	<ele>1807.80</ele>
	<time>2025-08-16T08:50:49.000Z</time>
</trkpt>
<trkpt lat="45.9616540" lon="10.1701860">
	<ele>1807.60</ele>
	<time>2025-08-16T08:50:50.000Z</time>
</trkpt>
<trkpt lat="45.9616430" lon="10.1701750">
	<ele>1807.40</ele>
	<time>2025-08-16T08:50:51.000Z</time>
</trkpt>
<trkpt lat="45.9616310" lon="10.1701630">
	<ele>1807.40</ele>
	<time>2025-08-16T08:50:52.000Z</time>
</trkpt>
<trkpt lat="45.9616220" lon="10.1701490">
	<ele>1807.20</ele>
	<time>2025-08-16T08:50:53.000Z</time>
</trkpt>
<trkpt lat="45.9616130" lon="10.1701310">
	<ele>1807.00</ele>
	<time>2025-08-16T08:50:54.000Z</time>
</trkpt>
<trkpt lat="45.9616030" lon="10.1701140">
	<ele>1806.80</ele>
	<time>2025-08-16T08:50:55.000Z</time>
</trkpt>
<trkpt lat="45.9615940" lon="10.1700950">
	<ele>1806.60</ele>
	<time>2025-08-16T08:50:56.000Z</time>
</trkpt>
<trkpt lat="45.9615870" lon="10.1700770">
	<ele>1806.20</ele>
	<time>2025-08-16T08:50:57.000Z</time>
</trkpt>
<trkpt lat="45.9615800" lon="10.1700580">
	<ele>1806.00</ele>
	<time>2025-08-16T08:50:58.000Z</time>
</trkpt>
<trkpt lat="45.9615710" lon="10.1700390">
	<ele>1805.80</ele>
	<time>2025-08-16T08:50:59.000Z</time>
</trkpt>
<trkpt lat="45.9615620" lon="10.1700180">
	<ele>1805.80</ele>
	<time>2025-08-16T08:51:00.000Z</time>
</trkpt>
<trkpt lat="45.9615510" lon="10.1699980">
	<ele>1805.80</ele>
	<time>2025-08-16T08:51:01.000Z</time>
</trkpt>
<trkpt lat="45.9615400" lon="10.1699840">
	<ele>1805.60</ele>
	<time>2025-08-16T08:51:02.000Z</time>
</trkpt>
<trkpt lat="45.9615290" lon="10.1699710">
	<ele>1805.60</ele>
	<time>2025-08-16T08:51:03.000Z</time>
</trkpt>
<trkpt lat="45.9615180" lon="10.1699610">
	<ele>1805.40</ele>
	<time>2025-08-16T08:51:04.000Z</time>
</trkpt>
<trkpt lat="45.9615070" lon="10.1699490">
	<ele>1805.20</ele>
	<time>2025-08-16T08:51:05.000Z</time>
</trkpt>
<trkpt lat="45.9614940" lon="10.1699360">
	<ele>1805.00</ele>
	<time>2025-08-16T08:51:06.000Z</time>
</trkpt>
<trkpt lat="45.9614830" lon="10.1699210">
	<ele>1804.80</ele>
	<time>2025-08-16T08:51:07.000Z</time>
</trkpt>
<trkpt lat="45.9614670" lon="10.1699120">
	<ele>1804.60</ele>
	<time>2025-08-16T08:51:08.000Z</time>
</trkpt>
<trkpt lat="45.9614560" lon="10.1699050">
	<ele>1804.40</ele>
	<time>2025-08-16T08:51:09.000Z</time>
</trkpt>
<trkpt lat="45.9614440" lon="10.1698920">
	<ele>1804.40</ele>
	<time>2025-08-16T08:51:10.000Z</time>
</trkpt>
<trkpt lat="45.9614320" lon="10.1698800">
	<ele>1804.20</ele>
	<time>2025-08-16T08:51:11.000Z</time>
</trkpt>
<trkpt lat="45.9614210" lon="10.1698660">
	<ele>1804.20</ele>
	<time>2025-08-16T08:51:12.000Z</time>
</trkpt>
<trkpt lat="45.9614110" lon="10.1698520">
	<ele>1804.00</ele>
	<time>2025-08-16T08:51:13.000Z</time>
</trkpt>
<trkpt lat="45.9613980" lon="10.1698410">
	<ele>1804.00</ele>
	<time>2025-08-16T08:51:14.000Z</time>
</trkpt>
<trkpt lat="45.9613860" lon="10.1698260">
	<ele>1803.80</ele>
	<time>2025-08-16T08:51:15.000Z</time>
</trkpt>
<trkpt lat="45.9613750" lon="10.1698150">
	<ele>1803.80</ele>
	<time>2025-08-16T08:51:16.000Z</time>
</trkpt>
<trkpt lat="45.9613620" lon="10.1698010">
	<ele>1803.80</ele>
	<time>2025-08-16T08:51:17.000Z</time>
</trkpt>
<trkpt lat="45.9613510" lon="10.1697870">
	<ele>1803.80</ele>
	<time>2025-08-16T08:51:18.000Z</time>
</trkpt>
<trkpt lat="45.9613410" lon="10.1697710">
	<ele>1803.80</ele>
	<time>2025-08-16T08:51:19.000Z</time>
</trkpt>
<trkpt lat="45.9613310" lon="10.1697550">
	<ele>1803.60</ele>
	<time>2025-08-16T08:51:20.000Z</time>
</trkpt>
<trkpt lat="45.9613210" lon="10.1697380">
	<ele>1803.40</ele>
	<time>2025-08-16T08:51:21.000Z</time>
</trkpt>
<trkpt lat="45.9613120" lon="10.1697250">
	<ele>1803.40</ele>
	<time>2025-08-16T08:51:22.000Z</time>
</trkpt>
<trkpt lat="45.9613030" lon="10.1697130">
	<ele>1803.20</ele>
	<time>2025-08-16T08:51:23.000Z</time>
</trkpt>
<trkpt lat="45.9612940" lon="10.1697020">
	<ele>1803.20</ele>
	<time>2025-08-16T08:51:24.000Z</time>
</trkpt>
<trkpt lat="45.9612820" lon="10.1696940">
	<ele>1803.20</ele>
	<time>2025-08-16T08:51:25.000Z</time>
</trkpt>
<trkpt lat="45.9612690" lon="10.1696860">
	<ele>1803.00</ele>
	<time>2025-08-16T08:51:26.000Z</time>
</trkpt>
<trkpt lat="45.9612570" lon="10.1696760">
	<ele>1803.00</ele>
	<time>2025-08-16T08:51:27.000Z</time>
</trkpt>
<trkpt lat="45.9612440" lon="10.1696630">
	<ele>1803.00</ele>
	<time>2025-08-16T08:51:28.000Z</time>
</trkpt>
<trkpt lat="45.9612310" lon="10.1696520">
	<ele>1803.00</ele>
	<time>2025-08-16T08:51:29.000Z</time>
</trkpt>
<trkpt lat="45.9612180" lon="10.1696460">
	<ele>1803.00</ele>
	<time>2025-08-16T08:51:30.000Z</time>
</trkpt>
<trkpt lat="45.9612020" lon="10.1696400">
	<ele>1803.00</ele>
	<time>2025-08-16T08:51:31.000Z</time>
</trkpt>
<trkpt lat="45.9611870" lon="10.1696360">
	<ele>1802.80</ele>
	<time>2025-08-16T08:51:32.000Z</time>
</trkpt>
<trkpt lat="45.9611720" lon="10.1696270">
	<ele>1802.80</ele>
	<time>2025-08-16T08:51:33.000Z</time>
</trkpt>
<trkpt lat="45.9611600" lon="10.1696230">
	<ele>1802.60</ele>
	<time>2025-08-16T08:51:34.000Z</time>
</trkpt>
<trkpt lat="45.9611420" lon="10.1696160">
	<ele>1802.60</ele>
	<time>2025-08-16T08:51:35.000Z</time>
</trkpt>
<trkpt lat="45.9611290" lon="10.1696090">
	<ele>1802.60</ele>
	<time>2025-08-16T08:51:36.000Z</time>
</trkpt>
<trkpt lat="45.9611200" lon="10.1696060">
	<ele>1802.40</ele>
	<time>2025-08-16T08:51:37.000Z</time>
</trkpt>
<trkpt lat="45.9611070" lon="10.1696000">
	<ele>1802.40</ele>
	<time>2025-08-16T08:51:38.000Z</time>
</trkpt>
<trkpt lat="45.9610950" lon="10.1695970">
	<ele>1802.20</ele>
	<time>2025-08-16T08:51:39.000Z</time>
</trkpt>
<trkpt lat="45.9610850" lon="10.1695970">
	<ele>1802.20</ele>
	<time>2025-08-16T08:51:40.000Z</time>
</trkpt>
<trkpt lat="45.9610760" lon="10.1696000">
	<ele>1802.20</ele>
	<time>2025-08-16T08:51:41.000Z</time>
</trkpt>
<trkpt lat="45.9610640" lon="10.1696040">
	<ele>1802.20</ele>
	<time>2025-08-16T08:51:42.000Z</time>
</trkpt>
<trkpt lat="45.9610550" lon="10.1696070">
	<ele>1802.20</ele>
	<time>2025-08-16T08:51:43.000Z</time>
</trkpt>
<trkpt lat="45.9610420" lon="10.1696150">
	<ele>1802.20</ele>
	<time>2025-08-16T08:51:44.000Z</time>
</trkpt>
<trkpt lat="45.9610310" lon="10.1696210">
	<ele>1802.20</ele>
	<time>2025-08-16T08:51:45.000Z</time>
</trkpt>
<trkpt lat="45.9610230" lon="10.1696250">
	<ele>1802.20</ele>
	<time>2025-08-16T08:51:46.000Z</time>
</trkpt>
<trkpt lat="45.9610190" lon="10.1696260">
	<ele>1802.20</ele>
	<time>2025-08-16T08:51:47.000Z</time>
</trkpt>
<trkpt lat="45.9610180" lon="10.1696260">
	<ele>1802.20</ele>
	<time>2025-08-16T08:51:48.000Z</time>
</trkpt>
<trkpt lat="45.9610190" lon="10.1696260">
	<ele>1802.20</ele>
	<time>2025-08-16T08:51:49.000Z</time>
</trkpt>
<trkpt lat="45.9610190" lon="10.1696260">
	<ele>1802.20</ele>
	<time>2025-08-16T08:51:50.000Z</time>
</trkpt>
<trkpt lat="45.9610190" lon="10.1696260">
	<ele>1802.20</ele>
	<time>2025-08-16T08:51:51.000Z</time>
</trkpt>
<trkpt lat="45.9610190" lon="10.1696260">
	<ele>1802.20</ele>
	<time>2025-08-16T08:51:52.000Z</time>
</trkpt>
<trkpt lat="45.9610190" lon="10.1696260">
	<ele>1802.20</ele>
	<time>2025-08-16T08:51:53.000Z</time>
</trkpt>
<trkpt lat="45.9610190" lon="10.1696260">
	<ele>1802.20</ele>
	<time>2025-08-16T08:51:54.000Z</time>
</trkpt>
<trkpt lat="45.9610190" lon="10.1696250">
	<ele>1802.20</ele>
	<time>2025-08-16T08:51:55.000Z</time>
</trkpt>
<trkpt lat="45.9610190" lon="10.1696220">
	<ele>1802.20</ele>
	<time>2025-08-16T08:51:56.000Z</time>
</trkpt>
<trkpt lat="45.9610190" lon="10.1696200">
	<ele>1802.20</ele>
	<time>2025-08-16T08:51:57.000Z</time>
</trkpt>
<trkpt lat="45.9610190" lon="10.1696180">
	<ele>1802.20</ele>
	<time>2025-08-16T08:51:58.000Z</time>
</trkpt>
<trkpt lat="45.9610190" lon="10.1696170">
	<ele>1802.20</ele>
	<time>2025-08-16T08:51:59.000Z</time>
</trkpt>
<trkpt lat="45.9610190" lon="10.1696170">
	<ele>1802.20</ele>
	<time>2025-08-16T08:52:00.000Z</time>
</trkpt>
<trkpt lat="45.9610190" lon="10.1696170">
	<ele>1802.20</ele>
	<time>2025-08-16T08:52:01.000Z</time>
</trkpt>
<trkpt lat="45.9610190" lon="10.1696170">
	<ele>1802.20</ele>
	<time>2025-08-16T08:52:02.000Z</time>
</trkpt>
<trkpt lat="45.9610190" lon="10.1696170">
	<ele>1802.20</ele>
	<time>2025-08-16T08:52:03.000Z</time>
</trkpt>
<trkpt lat="45.9610190" lon="10.1696170">
	<ele>1802.20</ele>
	<time>2025-08-16T08:52:04.000Z</time>
</trkpt>
<trkpt lat="45.9610190" lon="10.1696170">
	<ele>1802.20</ele>
	<time>2025-08-16T08:52:05.000Z</time>
</trkpt>
<trkpt lat="45.9610190" lon="10.1696170">
	<ele>1802.20</ele>
	<time>2025-08-16T08:52:06.000Z</time>
</trkpt>
<trkpt lat="45.9610190" lon="10.1696170">
	<ele>1802.20</ele>
	<time>2025-08-16T08:52:07.000Z</time>
</trkpt>
<trkpt lat="45.9610190" lon="10.1696180">
	<ele>1802.20</ele>
	<time>2025-08-16T08:52:08.000Z</time>
</trkpt>
<trkpt lat="45.9610190" lon="10.1696180">
	<ele>1802.20</ele>
	<time>2025-08-16T08:52:09.000Z</time>
</trkpt>
<trkpt lat="45.9610190" lon="10.1696190">
	<ele>1802.20</ele>
	<time>2025-08-16T08:52:10.000Z</time>
</trkpt>
<trkpt lat="45.9610190" lon="10.1696200">
	<ele>1802.00</ele>
	<time>2025-08-16T08:52:11.000Z</time>
</trkpt>
<trkpt lat="45.9610150" lon="10.1696210">
	<ele>1802.00</ele>
	<time>2025-08-16T08:52:12.000Z</time>
</trkpt>
<trkpt lat="45.9609990" lon="10.1696210">
	<ele>1802.00</ele>
	<time>2025-08-16T08:52:13.000Z</time>
</trkpt>
<trkpt lat="45.9609820" lon="10.1696210">
	<ele>1802.00</ele>
	<time>2025-08-16T08:52:14.000Z</time>
</trkpt>
<trkpt lat="45.9609650" lon="10.1696180">
	<ele>1802.00</ele>
	<time>2025-08-16T08:52:15.000Z</time>
</trkpt>
<trkpt lat="45.9609460" lon="10.1696120">
	<ele>1802.00</ele>
	<time>2025-08-16T08:52:16.000Z</time>
</trkpt>
<trkpt lat="45.9609270" lon="10.1696070">
	<ele>1802.00</ele>
	<time>2025-08-16T08:52:17.000Z</time>
</trkpt>
<trkpt lat="45.9609080" lon="10.1696010">
	<ele>1801.80</ele>
	<time>2025-08-16T08:52:18.000Z</time>
</trkpt>
<trkpt lat="45.9608930" lon="10.1695970">
	<ele>1801.80</ele>
	<time>2025-08-16T08:52:19.000Z</time>
</trkpt>
<trkpt lat="45.9608730" lon="10.1695890">
	<ele>1801.20</ele>
	<time>2025-08-16T08:52:20.000Z</time>
</trkpt>
<trkpt lat="45.9608560" lon="10.1695860">
	<ele>1801.00</ele>
	<time>2025-08-16T08:52:21.000Z</time>
</trkpt>
<trkpt lat="45.9608460" lon="10.1695850">
	<ele>1800.80</ele>
	<time>2025-08-16T08:52:22.000Z</time>
</trkpt>
<trkpt lat="45.9608260" lon="10.1695830">
	<ele>1800.80</ele>
	<time>2025-08-16T08:52:23.000Z</time>
</trkpt>
<trkpt lat="45.9608120" lon="10.1695850">
	<ele>1800.80</ele>
	<time>2025-08-16T08:52:24.000Z</time>
</trkpt>
<trkpt lat="45.9607920" lon="10.1695870">
	<ele>1800.80</ele>
	<time>2025-08-16T08:52:25.000Z</time>
</trkpt>
<trkpt lat="45.9607770" lon="10.1695900">
	<ele>1800.60</ele>
	<time>2025-08-16T08:52:26.000Z</time>
</trkpt>
<trkpt lat="45.9607610" lon="10.1695940">
	<ele>1800.60</ele>
	<time>2025-08-16T08:52:27.000Z</time>
</trkpt>
<trkpt lat="45.9607470" lon="10.1695980">
	<ele>1800.60</ele>
	<time>2025-08-16T08:52:28.000Z</time>
</trkpt>
<trkpt lat="45.9607330" lon="10.1695970">
	<ele>1800.60</ele>
	<time>2025-08-16T08:52:29.000Z</time>
</trkpt>
<trkpt lat="45.9607220" lon="10.1695950">
	<ele>1800.60</ele>
	<time>2025-08-16T08:52:30.000Z</time>
</trkpt>
<trkpt lat="45.9607030" lon="10.1695950">
	<ele>1800.60</ele>
	<time>2025-08-16T08:52:31.000Z</time>
</trkpt>
<trkpt lat="45.9606880" lon="10.1695960">
	<ele>1800.60</ele>
	<time>2025-08-16T08:52:32.000Z</time>
</trkpt>
<trkpt lat="45.9606720" lon="10.1695980">
	<ele>1800.80</ele>
	<time>2025-08-16T08:52:33.000Z</time>
</trkpt>
<trkpt lat="45.9606570" lon="10.1696010">
	<ele>1800.80</ele>
	<time>2025-08-16T08:52:34.000Z</time>
</trkpt>
<trkpt lat="45.9606440" lon="10.1696020">
	<ele>1800.80</ele>
	<time>2025-08-16T08:52:35.000Z</time>
</trkpt>
<trkpt lat="45.9606330" lon="10.1696010">
	<ele>1800.80</ele>
	<time>2025-08-16T08:52:36.000Z</time>
</trkpt>
<trkpt lat="45.9606190" lon="10.1696030">
	<ele>1800.80</ele>
	<time>2025-08-16T08:52:37.000Z</time>
</trkpt>
<trkpt lat="45.9606080" lon="10.1696080">
	<ele>1801.00</ele>
	<time>2025-08-16T08:52:38.000Z</time>
</trkpt>
<trkpt lat="45.9605980" lon="10.1696120">
	<ele>1801.00</ele>
	<time>2025-08-16T08:52:39.000Z</time>
</trkpt>
<trkpt lat="45.9605820" lon="10.1696210">
	<ele>1801.00</ele>
	<time>2025-08-16T08:52:40.000Z</time>
</trkpt>
<trkpt lat="45.9605670" lon="10.1696270">
	<ele>1801.00</ele>
	<time>2025-08-16T08:52:41.000Z</time>
</trkpt>
<trkpt lat="45.9605550" lon="10.1696290">
	<ele>1801.00</ele>
	<time>2025-08-16T08:52:42.000Z</time>
</trkpt>
<trkpt lat="45.9605380" lon="10.1696330">
	<ele>1801.20</ele>
	<time>2025-08-16T08:52:43.000Z</time>
</trkpt>
<trkpt lat="45.9605270" lon="10.1696370">
	<ele>1801.20</ele>
	<time>2025-08-16T08:52:44.000Z</time>
</trkpt>
<trkpt lat="45.9605120" lon="10.1696420">
	<ele>1801.20</ele>
	<time>2025-08-16T08:52:45.000Z</time>
</trkpt>
<trkpt lat="45.9604990" lon="10.1696440">
	<ele>1801.20</ele>
	<time>2025-08-16T08:52:46.000Z</time>
</trkpt>
<trkpt lat="45.9604870" lon="10.1696450">
	<ele>1801.40</ele>
	<time>2025-08-16T08:52:47.000Z</time>
</trkpt>
<trkpt lat="45.9604740" lon="10.1696460">
	<ele>1801.40</ele>
	<time>2025-08-16T08:52:48.000Z</time>
</trkpt>
<trkpt lat="45.9604650" lon="10.1696480">
	<ele>1801.40</ele>
	<time>2025-08-16T08:52:49.000Z</time>
</trkpt>
<trkpt lat="45.9604530" lon="10.1696470">
	<ele>1801.40</ele>
	<time>2025-08-16T08:52:50.000Z</time>
</trkpt>
<trkpt lat="45.9604410" lon="10.1696470">
	<ele>1801.60</ele>
	<time>2025-08-16T08:52:51.000Z</time>
</trkpt>
<trkpt lat="45.9604240" lon="10.1696440">
	<ele>1801.60</ele>
	<time>2025-08-16T08:52:52.000Z</time>
</trkpt>
<trkpt lat="45.9604090" lon="10.1696430">
	<ele>1801.60</ele>
	<time>2025-08-16T08:52:53.000Z</time>
</trkpt>
<trkpt lat="45.9603940" lon="10.1696420">
	<ele>1801.60</ele>
	<time>2025-08-16T08:52:54.000Z</time>
</trkpt>
<trkpt lat="45.9603810" lon="10.1696410">
	<ele>1801.60</ele>
	<time>2025-08-16T08:52:55.000Z</time>
</trkpt>
<trkpt lat="45.9603690" lon="10.1696390">
	<ele>1801.80</ele>
	<time>2025-08-16T08:52:56.000Z</time>
</trkpt>
<trkpt lat="45.9603570" lon="10.1696380">
	<ele>1801.80</ele>
	<time>2025-08-16T08:52:57.000Z</time>
</trkpt>
<trkpt lat="45.9603430" lon="10.1696330">
	<ele>1801.80</ele>
	<time>2025-08-16T08:52:58.000Z</time>
</trkpt>
<trkpt lat="45.9603310" lon="10.1696300">
	<ele>1801.80</ele>
	<time>2025-08-16T08:52:59.000Z</time>
</trkpt>
<trkpt lat="45.9603200" lon="10.1696290">
	<ele>1802.00</ele>
	<time>2025-08-16T08:53:00.000Z</time>
</trkpt>
<trkpt lat="45.9603080" lon="10.1696260">
	<ele>1802.20</ele>
	<time>2025-08-16T08:53:01.000Z</time>
</trkpt>
<trkpt lat="45.9602960" lon="10.1696250">
	<ele>1802.40</ele>
	<time>2025-08-16T08:53:02.000Z</time>
</trkpt>
<trkpt lat="45.9602820" lon="10.1696250">
	<ele>1802.40</ele>
	<time>2025-08-16T08:53:03.000Z</time>
</trkpt>
<trkpt lat="45.9602670" lon="10.1696240">
	<ele>1802.60</ele>
	<time>2025-08-16T08:53:04.000Z</time>
</trkpt>
<trkpt lat="45.9602530" lon="10.1696210">
	<ele>1802.80</ele>
	<time>2025-08-16T08:53:05.000Z</time>
</trkpt>
<trkpt lat="45.9602400" lon="10.1696170">
	<ele>1802.80</ele>
	<time>2025-08-16T08:53:06.000Z</time>
</trkpt>
<trkpt lat="45.9602290" lon="10.1696150">
	<ele>1803.00</ele>
	<time>2025-08-16T08:53:07.000Z</time>
</trkpt>
<trkpt lat="45.9602190" lon="10.1696130">
	<ele>1803.00</ele>
	<time>2025-08-16T08:53:08.000Z</time>
</trkpt>
<trkpt lat="45.9602070" lon="10.1696100">
	<ele>1803.00</ele>
	<time>2025-08-16T08:53:09.000Z</time>
</trkpt>
<trkpt lat="45.9601950" lon="10.1696080">
	<ele>1803.20</ele>
	<time>2025-08-16T08:53:10.000Z</time>
</trkpt>
<trkpt lat="45.9601790" lon="10.1696060">
	<ele>1803.20</ele>
	<time>2025-08-16T08:53:11.000Z</time>
</trkpt>
<trkpt lat="45.9601680" lon="10.1696020">
	<ele>1803.40</ele>
	<time>2025-08-16T08:53:12.000Z</time>
</trkpt>
<trkpt lat="45.9601560" lon="10.1696040">
	<ele>1803.40</ele>
	<time>2025-08-16T08:53:13.000Z</time>
</trkpt>
<trkpt lat="45.9601430" lon="10.1696050">
	<ele>1803.60</ele>
	<time>2025-08-16T08:53:14.000Z</time>
</trkpt>
<trkpt lat="45.9601330" lon="10.1696050">
	<ele>1803.80</ele>
	<time>2025-08-16T08:53:15.000Z</time>
</trkpt>
<trkpt lat="45.9601180" lon="10.1696020">
	<ele>1803.80</ele>
	<time>2025-08-16T08:53:16.000Z</time>
</trkpt>
<trkpt lat="45.9601090" lon="10.1695980">
	<ele>1803.80</ele>
	<time>2025-08-16T08:53:17.000Z</time>
</trkpt>
<trkpt lat="45.9600950" lon="10.1695940">
	<ele>1803.80</ele>
	<time>2025-08-16T08:53:18.000Z</time>
</trkpt>
<trkpt lat="45.9600850" lon="10.1695930">
	<ele>1804.00</ele>
	<time>2025-08-16T08:53:19.000Z</time>
</trkpt>
<trkpt lat="45.9600730" lon="10.1695910">
	<ele>1804.00</ele>
	<time>2025-08-16T08:53:20.000Z</time>
</trkpt>
<trkpt lat="45.9600620" lon="10.1695910">
	<ele>1804.20</ele>
	<time>2025-08-16T08:53:21.000Z</time>
</trkpt>
<trkpt lat="45.9600490" lon="10.1695890">
	<ele>1804.20</ele>
	<time>2025-08-16T08:53:22.000Z</time>
</trkpt>
<trkpt lat="45.9600330" lon="10.1695860">
	<ele>1804.20</ele>
	<time>2025-08-16T08:53:23.000Z</time>
</trkpt>
<trkpt lat="45.9600170" lon="10.1695840">
	<ele>1804.00</ele>
	<time>2025-08-16T08:53:24.000Z</time>
</trkpt>
<trkpt lat="45.9600000" lon="10.1695830">
	<ele>1804.00</ele>
	<time>2025-08-16T08:53:25.000Z</time>
</trkpt>
<trkpt lat="45.9599850" lon="10.1695850">
	<ele>1803.80</ele>
	<time>2025-08-16T08:53:26.000Z</time>
</trkpt>
<trkpt lat="45.9599740" lon="10.1695850">
	<ele>1803.60</ele>
	<time>2025-08-16T08:53:27.000Z</time>
</trkpt>
<trkpt lat="45.9599600" lon="10.1695850">
	<ele>1803.60</ele>
	<time>2025-08-16T08:53:28.000Z</time>
</trkpt>
<trkpt lat="45.9599490" lon="10.1695840">
	<ele>1803.40</ele>
	<time>2025-08-16T08:53:29.000Z</time>
</trkpt>
<trkpt lat="45.9599360" lon="10.1695800">
	<ele>1803.40</ele>
	<time>2025-08-16T08:53:30.000Z</time>
</trkpt>
<trkpt lat="45.9599290" lon="10.1695740">
	<ele>1803.40</ele>
	<time>2025-08-16T08:53:31.000Z</time>
</trkpt>
<trkpt lat="45.9599250" lon="10.1695710">
	<ele>1803.40</ele>
	<time>2025-08-16T08:53:32.000Z</time>
</trkpt>
<trkpt lat="45.9599230" lon="10.1695680">
	<ele>1803.40</ele>
	<time>2025-08-16T08:53:33.000Z</time>
</trkpt>
<trkpt lat="45.9599230" lon="10.1695670">
	<ele>1803.60</ele>
	<time>2025-08-16T08:53:34.000Z</time>
</trkpt>
<trkpt lat="45.9599220" lon="10.1695670">
	<ele>1803.60</ele>
	<time>2025-08-16T08:53:35.000Z</time>
</trkpt>
<trkpt lat="45.9599210" lon="10.1695670">
	<ele>1803.60</ele>
	<time>2025-08-16T08:53:36.000Z</time>
</trkpt>
<trkpt lat="45.9599170" lon="10.1695720">
	<ele>1803.60</ele>
	<time>2025-08-16T08:53:37.000Z</time>
</trkpt>
<trkpt lat="45.9599120" lon="10.1695780">
	<ele>1803.60</ele>
	<time>2025-08-16T08:53:38.000Z</time>
</trkpt>
<trkpt lat="45.9599040" lon="10.1695790">
	<ele>1803.60</ele>
	<time>2025-08-16T08:53:39.000Z</time>
</trkpt>
<trkpt lat="45.9598960" lon="10.1695830">
	<ele>1803.60</ele>
	<time>2025-08-16T08:53:40.000Z</time>
</trkpt>
<trkpt lat="45.9598820" lon="10.1695870">
	<ele>1803.60</ele>
	<time>2025-08-16T08:53:41.000Z</time>
</trkpt>
<trkpt lat="45.9598760" lon="10.1695920">
	<ele>1803.60</ele>
	<time>2025-08-16T08:53:42.000Z</time>
</trkpt>
<trkpt lat="45.9598640" lon="10.1695950">
	<ele>1803.60</ele>
	<time>2025-08-16T08:53:43.000Z</time>
</trkpt>
<trkpt lat="45.9598550" lon="10.1695980">
	<ele>1803.60</ele>
	<time>2025-08-16T08:53:44.000Z</time>
</trkpt>
<trkpt lat="45.9598480" lon="10.1695990">
	<ele>1803.60</ele>
	<time>2025-08-16T08:53:45.000Z</time>
</trkpt>
<trkpt lat="45.9598370" lon="10.1696030">
	<ele>1803.80</ele>
	<time>2025-08-16T08:53:46.000Z</time>
</trkpt>
<trkpt lat="45.9598290" lon="10.1696020">
	<ele>1803.80</ele>
	<time>2025-08-16T08:53:47.000Z</time>
</trkpt>
<trkpt lat="45.9598170" lon="10.1696060">
	<ele>1804.00</ele>
	<time>2025-08-16T08:53:48.000Z</time>
</trkpt>
<trkpt lat="45.9598060" lon="10.1696040">
	<ele>1804.00</ele>
	<time>2025-08-16T08:53:49.000Z</time>
</trkpt>
<trkpt lat="45.9597960" lon="10.1696020">
	<ele>1804.00</ele>
	<time>2025-08-16T08:53:50.000Z</time>
</trkpt>
<trkpt lat="45.9597860" lon="10.1696000">
	<ele>1804.20</ele>
	<time>2025-08-16T08:53:51.000Z</time>
</trkpt>
<trkpt lat="45.9597770" lon="10.1696020">
	<ele>1804.40</ele>
	<time>2025-08-16T08:53:52.000Z</time>
</trkpt>
<trkpt lat="45.9597680" lon="10.1696030">
	<ele>1804.40</ele>
	<time>2025-08-16T08:53:53.000Z</time>
</trkpt>
<trkpt lat="45.9597590" lon="10.1696050">
	<ele>1804.40</ele>
	<time>2025-08-16T08:53:54.000Z</time>
</trkpt>
<trkpt lat="45.9597510" lon="10.1696060">
	<ele>1804.60</ele>
	<time>2025-08-16T08:53:55.000Z</time>
</trkpt>
<trkpt lat="45.9597440" lon="10.1696060">
	<ele>1804.60</ele>
	<time>2025-08-16T08:53:56.000Z</time>
</trkpt>
<trkpt lat="45.9597370" lon="10.1696080">
	<ele>1804.60</ele>
	<time>2025-08-16T08:53:57.000Z</time>
</trkpt>
<trkpt lat="45.9597270" lon="10.1696070">
	<ele>1804.80</ele>
	<time>2025-08-16T08:53:58.000Z</time>
</trkpt>
<trkpt lat="45.9597180" lon="10.1696080">
	<ele>1805.00</ele>
	<time>2025-08-16T08:53:59.000Z</time>
</trkpt>
<trkpt lat="45.9597090" lon="10.1696090">
	<ele>1805.20</ele>
	<time>2025-08-16T08:54:00.000Z</time>
</trkpt>
<trkpt lat="45.9597010" lon="10.1696100">
	<ele>1805.40</ele>
	<time>2025-08-16T08:54:01.000Z</time>
</trkpt>
<trkpt lat="45.9596970" lon="10.1696110">
	<ele>1805.60</ele>
	<time>2025-08-16T08:54:02.000Z</time>
</trkpt>
<trkpt lat="45.9596970" lon="10.1696120">
	<ele>1805.80</ele>
	<time>2025-08-16T08:54:03.000Z</time>
</trkpt>
<trkpt lat="45.9596960" lon="10.1696120">
	<ele>1805.80</ele>
	<time>2025-08-16T08:54:04.000Z</time>
</trkpt>
<trkpt lat="45.9596960" lon="10.1696120">
	<ele>1805.80</ele>
	<time>2025-08-16T08:54:05.000Z</time>
</trkpt>
<trkpt lat="45.9596960" lon="10.1696120">
	<ele>1805.80</ele>
	<time>2025-08-16T08:54:06.000Z</time>
</trkpt>
<trkpt lat="45.9596950" lon="10.1696120">
	<ele>1805.80</ele>
	<time>2025-08-16T08:54:07.000Z</time>
</trkpt>
<trkpt lat="45.9596940" lon="10.1696120">
	<ele>1806.00</ele>
	<time>2025-08-16T08:54:08.000Z</time>
</trkpt>
<trkpt lat="45.9596920" lon="10.1696130">
	<ele>1806.00</ele>
	<time>2025-08-16T08:54:09.000Z</time>
</trkpt>
<trkpt lat="45.9596870" lon="10.1696130">
	<ele>1806.00</ele>
	<time>2025-08-16T08:54:10.000Z</time>
</trkpt>
<trkpt lat="45.9596830" lon="10.1696140">
	<ele>1806.00</ele>
	<time>2025-08-16T08:54:11.000Z</time>
</trkpt>
<trkpt lat="45.9596760" lon="10.1696160">
	<ele>1806.00</ele>
	<time>2025-08-16T08:54:12.000Z</time>
</trkpt>
<trkpt lat="45.9596690" lon="10.1696160">
	<ele>1806.00</ele>
	<time>2025-08-16T08:54:13.000Z</time>
</trkpt>
<trkpt lat="45.9596620" lon="10.1696210">
	<ele>1806.00</ele>
	<time>2025-08-16T08:54:14.000Z</time>
</trkpt>
<trkpt lat="45.9596550" lon="10.1696280">
	<ele>1806.00</ele>
	<time>2025-08-16T08:54:15.000Z</time>
</trkpt>
<trkpt lat="45.9596510" lon="10.1696340">
	<ele>1806.00</ele>
	<time>2025-08-16T08:54:16.000Z</time>
</trkpt>
<trkpt lat="45.9596430" lon="10.1696420">
	<ele>1806.20</ele>
	<time>2025-08-16T08:54:17.000Z</time>
</trkpt>
<trkpt lat="45.9596360" lon="10.1696500">
	<ele>1806.20</ele>
	<time>2025-08-16T08:54:18.000Z</time>
</trkpt>
<trkpt lat="45.9596250" lon="10.1696590">
	<ele>1806.20</ele>
	<time>2025-08-16T08:54:19.000Z</time>
</trkpt>
<trkpt lat="45.9596130" lon="10.1696670">
	<ele>1806.20</ele>
	<time>2025-08-16T08:54:20.000Z</time>
</trkpt>
<trkpt lat="45.9596010" lon="10.1696750">
	<ele>1806.40</ele>
	<time>2025-08-16T08:54:21.000Z</time>
</trkpt>
<trkpt lat="45.9595890" lon="10.1696800">
	<ele>1806.40</ele>
	<time>2025-08-16T08:54:22.000Z</time>
</trkpt>
<trkpt lat="45.9595770" lon="10.1696880">
	<ele>1806.40</ele>
	<time>2025-08-16T08:54:23.000Z</time>
</trkpt>
<trkpt lat="45.9595690" lon="10.1696930">
	<ele>1806.40</ele>
	<time>2025-08-16T08:54:24.000Z</time>
</trkpt>
<trkpt lat="45.9595560" lon="10.1697020">
	<ele>1806.40</ele>
	<time>2025-08-16T08:54:25.000Z</time>
</trkpt>
<trkpt lat="45.9595450" lon="10.1697070">
	<ele>1806.40</ele>
	<time>2025-08-16T08:54:26.000Z</time>
</trkpt>
<trkpt lat="45.9595330" lon="10.1697110">
	<ele>1806.40</ele>
	<time>2025-08-16T08:54:27.000Z</time>
</trkpt>
<trkpt lat="45.9595200" lon="10.1697150">
	<ele>1806.40</ele>
	<time>2025-08-16T08:54:28.000Z</time>
</trkpt>
<trkpt lat="45.9595070" lon="10.1697240">
	<ele>1806.40</ele>
	<time>2025-08-16T08:54:29.000Z</time>
</trkpt>
<trkpt lat="45.9594960" lon="10.1697300">
	<ele>1806.40</ele>
	<time>2025-08-16T08:54:30.000Z</time>
</trkpt>
<trkpt lat="45.9594850" lon="10.1697330">
	<ele>1806.20</ele>
	<time>2025-08-16T08:54:31.000Z</time>
</trkpt>
<trkpt lat="45.9594740" lon="10.1697370">
	<ele>1806.20</ele>
	<time>2025-08-16T08:54:32.000Z</time>
</trkpt>
<trkpt lat="45.9594620" lon="10.1697400">
	<ele>1806.20</ele>
	<time>2025-08-16T08:54:33.000Z</time>
</trkpt>
<trkpt lat="45.9594500" lon="10.1697440">
	<ele>1806.20</ele>
	<time>2025-08-16T08:54:34.000Z</time>
</trkpt>
<trkpt lat="45.9594380" lon="10.1697460">
	<ele>1806.20</ele>
	<time>2025-08-16T08:54:35.000Z</time>
</trkpt>
<trkpt lat="45.9594280" lon="10.1697460">
	<ele>1806.20</ele>
	<time>2025-08-16T08:54:36.000Z</time>
</trkpt>
<trkpt lat="45.9594120" lon="10.1697510">
	<ele>1806.20</ele>
	<time>2025-08-16T08:54:37.000Z</time>
</trkpt>
<trkpt lat="45.9594010" lon="10.1697510">
	<ele>1806.20</ele>
	<time>2025-08-16T08:54:38.000Z</time>
</trkpt>
<trkpt lat="45.9593900" lon="10.1697550">
	<ele>1806.20</ele>
	<time>2025-08-16T08:54:39.000Z</time>
</trkpt>
<trkpt lat="45.9593810" lon="10.1697590">
	<ele>1806.40</ele>
	<time>2025-08-16T08:54:40.000Z</time>
</trkpt>
<trkpt lat="45.9593690" lon="10.1697620">
	<ele>1806.40</ele>
	<time>2025-08-16T08:54:41.000Z</time>
</trkpt>
<trkpt lat="45.9593570" lon="10.1697680">
	<ele>1806.40</ele>
	<time>2025-08-16T08:54:42.000Z</time>
</trkpt>
<trkpt lat="45.9593460" lon="10.1697760">
	<ele>1806.20</ele>
	<time>2025-08-16T08:54:43.000Z</time>
</trkpt>
<trkpt lat="45.9593390" lon="10.1697800">
	<ele>1806.20</ele>
	<time>2025-08-16T08:54:44.000Z</time>
</trkpt>
<trkpt lat="45.9593290" lon="10.1697890">
	<ele>1806.20</ele>
	<time>2025-08-16T08:54:45.000Z</time>
</trkpt>
<trkpt lat="45.9593180" lon="10.1697980">
	<ele>1806.00</ele>
	<time>2025-08-16T08:54:46.000Z</time>
</trkpt>
<trkpt lat="45.9593110" lon="10.1698050">
	<ele>1806.00</ele>
	<time>2025-08-16T08:54:47.000Z</time>
</trkpt>
<trkpt lat="45.9593010" lon="10.1698130">
	<ele>1805.80</ele>
	<time>2025-08-16T08:54:48.000Z</time>
</trkpt>
<trkpt lat="45.9592910" lon="10.1698220">
	<ele>1805.60</ele>
	<time>2025-08-16T08:54:49.000Z</time>
</trkpt>
<trkpt lat="45.9592810" lon="10.1698340">
	<ele>1805.60</ele>
	<time>2025-08-16T08:54:50.000Z</time>
</trkpt>
<trkpt lat="45.9592700" lon="10.1698440">
	<ele>1805.40</ele>
	<time>2025-08-16T08:54:51.000Z</time>
</trkpt>
<trkpt lat="45.9592600" lon="10.1698510">
	<ele>1805.40</ele>
	<time>2025-08-16T08:54:52.000Z</time>
</trkpt>
<trkpt lat="45.9592510" lon="10.1698590">
	<ele>1805.40</ele>
	<time>2025-08-16T08:54:53.000Z</time>
</trkpt>
<trkpt lat="45.9592400" lon="10.1698660">
	<ele>1805.20</ele>
	<time>2025-08-16T08:54:54.000Z</time>
</trkpt>
<trkpt lat="45.9592310" lon="10.1698740">
	<ele>1805.20</ele>
	<time>2025-08-16T08:54:55.000Z</time>
</trkpt>
<trkpt lat="45.9592230" lon="10.1698840">
	<ele>1805.20</ele>
	<time>2025-08-16T08:54:56.000Z</time>
</trkpt>
<trkpt lat="45.9592130" lon="10.1698900">
	<ele>1805.20</ele>
	<time>2025-08-16T08:54:57.000Z</time>
</trkpt>
<trkpt lat="45.9592070" lon="10.1698920">
	<ele>1805.00</ele>
	<time>2025-08-16T08:54:58.000Z</time>
</trkpt>
<trkpt lat="45.9592000" lon="10.1698930">
	<ele>1805.00</ele>
	<time>2025-08-16T08:54:59.000Z</time>
</trkpt>
<trkpt lat="45.9591980" lon="10.1698920">
	<ele>1805.00</ele>
	<time>2025-08-16T08:55:00.000Z</time>
</trkpt>
<trkpt lat="45.9591950" lon="10.1698900">
	<ele>1804.80</ele>
	<time>2025-08-16T08:55:01.000Z</time>
</trkpt>
<trkpt lat="45.9591970" lon="10.1698860">
	<ele>1804.80</ele>
	<time>2025-08-16T08:55:02.000Z</time>
</trkpt>
<trkpt lat="45.9591970" lon="10.1698840">
	<ele>1804.80</ele>
	<time>2025-08-16T08:55:03.000Z</time>
</trkpt>
<trkpt lat="45.9591940" lon="10.1698820">
	<ele>1804.60</ele>
	<time>2025-08-16T08:55:04.000Z</time>
</trkpt>
<trkpt lat="45.9591930" lon="10.1698820">
	<ele>1804.60</ele>
	<time>2025-08-16T08:55:05.000Z</time>
</trkpt>
<trkpt lat="45.9591930" lon="10.1698810">
	<ele>1804.60</ele>
	<time>2025-08-16T08:55:06.000Z</time>
</trkpt>
<trkpt lat="45.9591920" lon="10.1698790">
	<ele>1804.80</ele>
	<time>2025-08-16T08:55:07.000Z</time>
</trkpt>
<trkpt lat="45.9591910" lon="10.1698780">
	<ele>1804.80</ele>
	<time>2025-08-16T08:55:08.000Z</time>
</trkpt>
<trkpt lat="45.9591890" lon="10.1698770">
	<ele>1804.80</ele>
	<time>2025-08-16T08:55:09.000Z</time>
</trkpt>
<trkpt lat="45.9591890" lon="10.1698770">
	<ele>1805.00</ele>
	<time>2025-08-16T08:55:10.000Z</time>
</trkpt>
<trkpt lat="45.9591890" lon="10.1698770">
	<ele>1805.00</ele>
	<time>2025-08-16T08:55:11.000Z</time>
</trkpt>
<trkpt lat="45.9591890" lon="10.1698770">
	<ele>1805.00</ele>
	<time>2025-08-16T08:55:12.000Z</time>
</trkpt>
<trkpt lat="45.9591890" lon="10.1698770">
	<ele>1805.00</ele>
	<time>2025-08-16T08:55:13.000Z</time>
</trkpt>
<trkpt lat="45.9591890" lon="10.1698770">
	<ele>1805.00</ele>
	<time>2025-08-16T08:55:14.000Z</time>
</trkpt>
<trkpt lat="45.9591890" lon="10.1698770">
	<ele>1805.20</ele>
	<time>2025-08-16T08:55:15.000Z</time>
</trkpt>
<trkpt lat="45.9591890" lon="10.1698770">
	<ele>1805.20</ele>
	<time>2025-08-16T08:55:16.000Z</time>
</trkpt>
<trkpt lat="45.9591890" lon="10.1698770">
	<ele>1805.20</ele>
	<time>2025-08-16T08:55:17.000Z</time>
</trkpt>
<trkpt lat="45.9591890" lon="10.1698770">
	<ele>1805.20</ele>
	<time>2025-08-16T08:55:18.000Z</time>
</trkpt>
<trkpt lat="45.9591890" lon="10.1698770">
	<ele>1805.20</ele>
	<time>2025-08-16T08:55:19.000Z</time>
</trkpt>
<trkpt lat="45.9591900" lon="10.1698770">
	<ele>1805.20</ele>
	<time>2025-08-16T08:55:20.000Z</time>
</trkpt>
<trkpt lat="45.9591900" lon="10.1698770">
	<ele>1805.40</ele>
	<time>2025-08-16T08:55:21.000Z</time>
</trkpt>
<trkpt lat="45.9591910" lon="10.1698770">
	<ele>1805.40</ele>
	<time>2025-08-16T08:55:22.000Z</time>
</trkpt>
<trkpt lat="45.9591910" lon="10.1698770">
	<ele>1805.40</ele>
	<time>2025-08-16T08:55:23.000Z</time>
</trkpt>
<trkpt lat="45.9591920" lon="10.1698770">
	<ele>1805.40</ele>
	<time>2025-08-16T08:55:24.000Z</time>
</trkpt>
<trkpt lat="45.9591930" lon="10.1698770">
	<ele>1805.40</ele>
	<time>2025-08-16T08:55:25.000Z</time>
</trkpt>
<trkpt lat="45.9591930" lon="10.1698770">
	<ele>1805.20</ele>
	<time>2025-08-16T08:55:26.000Z</time>
</trkpt>
<trkpt lat="45.9591930" lon="10.1698770">
	<ele>1805.20</ele>
	<time>2025-08-16T08:55:27.000Z</time>
</trkpt>
<trkpt lat="45.9591940" lon="10.1698770">
	<ele>1805.20</ele>
	<time>2025-08-16T08:55:28.000Z</time>
</trkpt>
<trkpt lat="45.9591940" lon="10.1698770">
	<ele>1805.00</ele>
	<time>2025-08-16T08:55:29.000Z</time>
</trkpt>
<trkpt lat="45.9591940" lon="10.1698780">
	<ele>1805.00</ele>
	<time>2025-08-16T08:55:30.000Z</time>
</trkpt>
<trkpt lat="45.9591950" lon="10.1698780">
	<ele>1805.00</ele>
	<time>2025-08-16T08:55:31.000Z</time>
</trkpt>
<trkpt lat="45.9591950" lon="10.1698780">
	<ele>1805.20</ele>
	<time>2025-08-16T08:55:32.000Z</time>
</trkpt>
<trkpt lat="45.9591950" lon="10.1698780">
	<ele>1805.20</ele>
	<time>2025-08-16T08:55:33.000Z</time>
</trkpt>
<trkpt lat="45.9591950" lon="10.1698780">
	<ele>1805.20</ele>
	<time>2025-08-16T08:55:34.000Z</time>
</trkpt>
<trkpt lat="45.9591960" lon="10.1698780">
	<ele>1805.20</ele>
	<time>2025-08-16T08:55:35.000Z</time>
</trkpt>
<trkpt lat="45.9591970" lon="10.1698780">
	<ele>1805.20</ele>
	<time>2025-08-16T08:55:36.000Z</time>
</trkpt>
<trkpt lat="45.9591990" lon="10.1698780">
	<ele>1805.20</ele>
	<time>2025-08-16T08:55:37.000Z</time>
</trkpt>
<trkpt lat="45.9591990" lon="10.1698780">
	<ele>1805.20</ele>
	<time>2025-08-16T08:55:38.000Z</time>
</trkpt>
<trkpt lat="45.9591990" lon="10.1698780">
	<ele>1805.20</ele>
	<time>2025-08-16T08:55:39.000Z</time>
</trkpt>
<trkpt lat="45.9592000" lon="10.1698780">
	<ele>1805.20</ele>
	<time>2025-08-16T08:55:40.000Z</time>
</trkpt>
<trkpt lat="45.9592000" lon="10.1698790">
	<ele>1805.20</ele>
	<time>2025-08-16T08:55:41.000Z</time>
</trkpt>
<trkpt lat="45.9592010" lon="10.1698790">
	<ele>1805.00</ele>
	<time>2025-08-16T08:55:42.000Z</time>
</trkpt>
<trkpt lat="45.9592010" lon="10.1698800">
	<ele>1805.00</ele>
	<time>2025-08-16T08:55:43.000Z</time>
</trkpt>
<trkpt lat="45.9592020" lon="10.1698800">
	<ele>1805.00</ele>
	<time>2025-08-16T08:55:44.000Z</time>
</trkpt>
<trkpt lat="45.9592030" lon="10.1698810">
	<ele>1805.20</ele>
	<time>2025-08-16T08:55:45.000Z</time>
</trkpt>
<trkpt lat="45.9592030" lon="10.1698810">
	<ele>1805.20</ele>
	<time>2025-08-16T08:55:46.000Z</time>
</trkpt>
<trkpt lat="45.9592060" lon="10.1698830">
	<ele>1805.00</ele>
	<time>2025-08-16T08:55:47.000Z</time>
</trkpt>
<trkpt lat="45.9592070" lon="10.1698840">
	<ele>1805.00</ele>
	<time>2025-08-16T08:55:48.000Z</time>
</trkpt>
<trkpt lat="45.9592080" lon="10.1698850">
	<ele>1805.00</ele>
	<time>2025-08-16T08:55:49.000Z</time>
</trkpt>
<trkpt lat="45.9592090" lon="10.1698860">
	<ele>1805.00</ele>
	<time>2025-08-16T08:55:50.000Z</time>
</trkpt>
<trkpt lat="45.9592100" lon="10.1698860">
	<ele>1805.00</ele>
	<time>2025-08-16T08:55:51.000Z</time>
</trkpt>
<trkpt lat="45.9592110" lon="10.1698870">
	<ele>1805.00</ele>
	<time>2025-08-16T08:55:52.000Z</time>
</trkpt>
<trkpt lat="45.9592120" lon="10.1698870">
	<ele>1805.00</ele>
	<time>2025-08-16T08:55:53.000Z</time>
</trkpt>
<trkpt lat="45.9592130" lon="10.1698870">
	<ele>1804.80</ele>
	<time>2025-08-16T08:55:54.000Z</time>
</trkpt>
<trkpt lat="45.9592130" lon="10.1698870">
	<ele>1804.80</ele>
	<time>2025-08-16T08:55:55.000Z</time>
</trkpt>
<trkpt lat="45.9592140" lon="10.1698880">
	<ele>1804.80</ele>
	<time>2025-08-16T08:55:56.000Z</time>
</trkpt>
<trkpt lat="45.9592140" lon="10.1698880">
	<ele>1804.80</ele>
	<time>2025-08-16T08:55:57.000Z</time>
</trkpt>
<trkpt lat="45.9592150" lon="10.1698880">
	<ele>1804.80</ele>
	<time>2025-08-16T08:55:58.000Z</time>
</trkpt>
<trkpt lat="45.9592150" lon="10.1698880">
	<ele>1804.80</ele>
	<time>2025-08-16T08:55:59.000Z</time>
</trkpt>
<trkpt lat="45.9592150" lon="10.1698890">
	<ele>1804.80</ele>
	<time>2025-08-16T08:56:00.000Z</time>
</trkpt>
<trkpt lat="45.9592150" lon="10.1698890">
	<ele>1804.80</ele>
	<time>2025-08-16T08:56:01.000Z</time>
</trkpt>
<trkpt lat="45.9592150" lon="10.1698890">
	<ele>1804.80</ele>
	<time>2025-08-16T08:56:02.000Z</time>
</trkpt>
<trkpt lat="45.9592160" lon="10.1698930">
	<ele>1804.80</ele>
	<time>2025-08-16T08:56:03.000Z</time>
</trkpt>
<trkpt lat="45.9592160" lon="10.1698970">
	<ele>1804.80</ele>
	<time>2025-08-16T08:56:04.000Z</time>
</trkpt>
<trkpt lat="45.9592160" lon="10.1698980">
	<ele>1804.80</ele>
	<time>2025-08-16T08:56:05.000Z</time>
</trkpt>
<trkpt lat="45.9592160" lon="10.1698980">
	<ele>1804.80</ele>
	<time>2025-08-16T08:56:06.000Z</time>
</trkpt>
<trkpt lat="45.9592160" lon="10.1698980">
	<ele>1804.80</ele>
	<time>2025-08-16T08:56:07.000Z</time>
</trkpt>
<trkpt lat="45.9592160" lon="10.1698980">
	<ele>1804.80</ele>
	<time>2025-08-16T08:56:08.000Z</time>
</trkpt>
<trkpt lat="45.9592160" lon="10.1698980">
	<ele>1804.80</ele>
	<time>2025-08-16T08:56:09.000Z</time>
</trkpt>
<trkpt lat="45.9592170" lon="10.1698980">
	<ele>1804.80</ele>
	<time>2025-08-16T08:56:10.000Z</time>
</trkpt>
<trkpt lat="45.9592170" lon="10.1698980">
	<ele>1804.80</ele>
	<time>2025-08-16T08:56:11.000Z</time>
</trkpt>
<trkpt lat="45.9592170" lon="10.1698990">
	<ele>1804.80</ele>
	<time>2025-08-16T08:56:12.000Z</time>
</trkpt>
<trkpt lat="45.9592170" lon="10.1698990">
	<ele>1805.00</ele>
	<time>2025-08-16T08:56:13.000Z</time>
</trkpt>
<trkpt lat="45.9592170" lon="10.1698990">
	<ele>1805.00</ele>
	<time>2025-08-16T08:56:14.000Z</time>
</trkpt>
<trkpt lat="45.9592170" lon="10.1699000">
	<ele>1805.00</ele>
	<time>2025-08-16T08:56:15.000Z</time>
</trkpt>
<trkpt lat="45.9592170" lon="10.1699000">
	<ele>1805.00</ele>
	<time>2025-08-16T08:56:16.000Z</time>
</trkpt>
<trkpt lat="45.9592180" lon="10.1699000">
	<ele>1805.00</ele>
	<time>2025-08-16T08:56:17.000Z</time>
</trkpt>
<trkpt lat="45.9592180" lon="10.1699000">
	<ele>1805.00</ele>
	<time>2025-08-16T08:56:18.000Z</time>
</trkpt>
<trkpt lat="45.9592180" lon="10.1699000">
	<ele>1805.00</ele>
	<time>2025-08-16T08:56:19.000Z</time>
</trkpt>
<trkpt lat="45.9592190" lon="10.1698990">
	<ele>1805.00</ele>
	<time>2025-08-16T08:56:20.000Z</time>
</trkpt>
<trkpt lat="45.9592200" lon="10.1698990">
	<ele>1805.00</ele>
	<time>2025-08-16T08:56:21.000Z</time>
</trkpt>
<trkpt lat="45.9592200" lon="10.1698990">
	<ele>1805.00</ele>
	<time>2025-08-16T08:56:22.000Z</time>
</trkpt>
<trkpt lat="45.9592200" lon="10.1698990">
	<ele>1805.00</ele>
	<time>2025-08-16T08:56:23.000Z</time>
</trkpt>
<trkpt lat="45.9592200" lon="10.1698990">
	<ele>1805.00</ele>
	<time>2025-08-16T08:56:24.000Z</time>
</trkpt>
<trkpt lat="45.9592200" lon="10.1698980">
	<ele>1805.00</ele>
	<time>2025-08-16T08:56:25.000Z</time>
</trkpt>
<trkpt lat="45.9592200" lon="10.1698980">
	<ele>1805.00</ele>
	<time>2025-08-16T08:56:26.000Z</time>
</trkpt>
<trkpt lat="45.9592210" lon="10.1698980">
	<ele>1805.00</ele>
	<time>2025-08-16T08:56:27.000Z</time>
</trkpt>
<trkpt lat="45.9592210" lon="10.1698980">
	<ele>1805.00</ele>
	<time>2025-08-16T08:56:28.000Z</time>
</trkpt>
<trkpt lat="45.9592210" lon="10.1698980">
	<ele>1805.00</ele>
	<time>2025-08-16T08:56:29.000Z</time>
</trkpt>
<trkpt lat="45.9592210" lon="10.1698980">
	<ele>1805.00</ele>
	<time>2025-08-16T08:56:30.000Z</time>
</trkpt>
<trkpt lat="45.9592210" lon="10.1698970">
	<ele>1805.00</ele>
	<time>2025-08-16T08:56:31.000Z</time>
</trkpt>
<trkpt lat="45.9592210" lon="10.1698970">
	<ele>1805.00</ele>
	<time>2025-08-16T08:56:32.000Z</time>
</trkpt>
<trkpt lat="45.9592210" lon="10.1698970">
	<ele>1805.00</ele>
	<time>2025-08-16T08:56:33.000Z</time>
</trkpt>
<trkpt lat="45.9592210" lon="10.1698970">
	<ele>1805.00</ele>
	<time>2025-08-16T08:56:34.000Z</time>
</trkpt>
<trkpt lat="45.9592210" lon="10.1698970">
	<ele>1805.00</ele>
	<time>2025-08-16T08:56:35.000Z</time>
</trkpt>
<trkpt lat="45.9592210" lon="10.1698970">
	<ele>1805.00</ele>
	<time>2025-08-16T08:56:36.000Z</time>
</trkpt>
<trkpt lat="45.9592210" lon="10.1698980">
	<ele>1805.00</ele>
	<time>2025-08-16T08:56:37.000Z</time>
</trkpt>
<trkpt lat="45.9592210" lon="10.1698980">
	<ele>1805.00</ele>
	<time>2025-08-16T08:56:38.000Z</time>
</trkpt>
<trkpt lat="45.9592210" lon="10.1698980">
	<ele>1805.00</ele>
	<time>2025-08-16T08:56:39.000Z</time>
</trkpt>
<trkpt lat="45.9592210" lon="10.1698980">
	<ele>1805.00</ele>
	<time>2025-08-16T08:56:40.000Z</time>
</trkpt>
<trkpt lat="45.9592210" lon="10.1698980">
	<ele>1805.00</ele>
	<time>2025-08-16T08:56:41.000Z</time>
</trkpt>
<trkpt lat="45.9592210" lon="10.1698980">
	<ele>1805.00</ele>
	<time>2025-08-16T08:56:42.000Z</time>
</trkpt>
<trkpt lat="45.9592210" lon="10.1698980">
	<ele>1805.00</ele>
	<time>2025-08-16T08:56:43.000Z</time>
</trkpt>
<trkpt lat="45.9592210" lon="10.1698980">
	<ele>1805.00</ele>
	<time>2025-08-16T08:56:44.000Z</time>
</trkpt>
<trkpt lat="45.9592210" lon="10.1698980">
	<ele>1805.00</ele>
	<time>2025-08-16T08:56:45.000Z</time>
</trkpt>
<trkpt lat="45.9592210" lon="10.1698980">
	<ele>1805.00</ele>
	<time>2025-08-16T08:56:46.000Z</time>
</trkpt>
<trkpt lat="45.9592200" lon="10.1698980">
	<ele>1805.00</ele>
	<time>2025-08-16T08:56:47.000Z</time>
</trkpt>
<trkpt lat="45.9592200" lon="10.1698990">
	<ele>1805.00</ele>
	<time>2025-08-16T08:56:48.000Z</time>
</trkpt>
<trkpt lat="45.9592200" lon="10.1699000">
	<ele>1805.00</ele>
	<time>2025-08-16T08:56:49.000Z</time>
</trkpt>
<trkpt lat="45.9592200" lon="10.1699020">
	<ele>1805.00</ele>
	<time>2025-08-16T08:56:50.000Z</time>
</trkpt>
<trkpt lat="45.9592200" lon="10.1699060">
	<ele>1805.00</ele>
	<time>2025-08-16T08:56:51.000Z</time>
</trkpt>
<trkpt lat="45.9592190" lon="10.1699090">
	<ele>1805.00</ele>
	<time>2025-08-16T08:56:52.000Z</time>
</trkpt>
<trkpt lat="45.9592190" lon="10.1699100">
	<ele>1805.00</ele>
	<time>2025-08-16T08:56:53.000Z</time>
</trkpt>
<trkpt lat="45.9592180" lon="10.1699110">
	<ele>1805.00</ele>
	<time>2025-08-16T08:56:54.000Z</time>
</trkpt>
<trkpt lat="45.9592180" lon="10.1699110">
	<ele>1805.00</ele>
	<time>2025-08-16T08:56:55.000Z</time>
</trkpt>
<trkpt lat="45.9592180" lon="10.1699110">
	<ele>1805.00</ele>
	<time>2025-08-16T08:56:56.000Z</time>
</trkpt>
<trkpt lat="45.9592180" lon="10.1699120">
	<ele>1805.00</ele>
	<time>2025-08-16T08:56:57.000Z</time>
</trkpt>
<trkpt lat="45.9592180" lon="10.1699130">
	<ele>1805.00</ele>
	<time>2025-08-16T08:56:58.000Z</time>
</trkpt>
<trkpt lat="45.9592180" lon="10.1699130">
	<ele>1805.00</ele>
	<time>2025-08-16T08:56:59.000Z</time>
</trkpt>
<trkpt lat="45.9592180" lon="10.1699140">
	<ele>1805.00</ele>
	<time>2025-08-16T08:57:00.000Z</time>
</trkpt>
<trkpt lat="45.9592180" lon="10.1699150">
	<ele>1805.00</ele>
	<time>2025-08-16T08:57:01.000Z</time>
</trkpt>
<trkpt lat="45.9592180" lon="10.1699160">
	<ele>1805.00</ele>
	<time>2025-08-16T08:57:02.000Z</time>
</trkpt>
<trkpt lat="45.9592180" lon="10.1699160">
	<ele>1805.00</ele>
	<time>2025-08-16T08:57:03.000Z</time>
</trkpt>
<trkpt lat="45.9592180" lon="10.1699160">
	<ele>1805.00</ele>
	<time>2025-08-16T08:57:04.000Z</time>
</trkpt>
<trkpt lat="45.9592170" lon="10.1699160">
	<ele>1805.00</ele>
	<time>2025-08-16T08:57:05.000Z</time>
</trkpt>
<trkpt lat="45.9592170" lon="10.1699170">
	<ele>1805.00</ele>
	<time>2025-08-16T08:57:06.000Z</time>
</trkpt>
<trkpt lat="45.9592170" lon="10.1699170">
	<ele>1805.00</ele>
	<time>2025-08-16T08:57:07.000Z</time>
</trkpt>
<trkpt lat="45.9592170" lon="10.1699170">
	<ele>1805.00</ele>
	<time>2025-08-16T08:57:08.000Z</time>
</trkpt>
<trkpt lat="45.9592170" lon="10.1699170">
	<ele>1805.00</ele>
	<time>2025-08-16T08:57:09.000Z</time>
</trkpt>
<trkpt lat="45.9592170" lon="10.1699170">
	<ele>1805.00</ele>
	<time>2025-08-16T08:57:10.000Z</time>
</trkpt>
<trkpt lat="45.9592170" lon="10.1699170">
	<ele>1805.00</ele>
	<time>2025-08-16T08:57:11.000Z</time>
</trkpt>
<trkpt lat="45.9592170" lon="10.1699180">
	<ele>1805.00</ele>
	<time>2025-08-16T08:57:12.000Z</time>
</trkpt>
<trkpt lat="45.9592170" lon="10.1699180">
	<ele>1805.00</ele>
	<time>2025-08-16T08:57:13.000Z</time>
</trkpt>
<trkpt lat="45.9592170" lon="10.1699180">
	<ele>1805.00</ele>
	<time>2025-08-16T08:57:14.000Z</time>
</trkpt>
<trkpt lat="45.9592170" lon="10.1699180">
	<ele>1805.00</ele>
	<time>2025-08-16T08:57:15.000Z</time>
</trkpt>
<trkpt lat="45.9592170" lon="10.1699190">
	<ele>1805.00</ele>
	<time>2025-08-16T08:57:16.000Z</time>
</trkpt>
<trkpt lat="45.9592170" lon="10.1699190">
	<ele>1805.00</ele>
	<time>2025-08-16T08:57:17.000Z</time>
</trkpt>
<trkpt lat="45.9592180" lon="10.1699190">
	<ele>1805.00</ele>
	<time>2025-08-16T08:57:18.000Z</time>
</trkpt>
<trkpt lat="45.9592180" lon="10.1699200">
	<ele>1805.00</ele>
	<time>2025-08-16T08:57:19.000Z</time>
</trkpt>
<trkpt lat="45.9592180" lon="10.1699200">
	<ele>1805.00</ele>
	<time>2025-08-16T08:57:20.000Z</time>
</trkpt>
<trkpt lat="45.9592180" lon="10.1699200">
	<ele>1805.00</ele>
	<time>2025-08-16T08:57:21.000Z</time>
</trkpt>
<trkpt lat="45.9592180" lon="10.1699200">
	<ele>1805.00</ele>
	<time>2025-08-16T08:57:22.000Z</time>
</trkpt>
<trkpt lat="45.9592180" lon="10.1699210">
	<ele>1805.00</ele>
	<time>2025-08-16T08:57:23.000Z</time>
</trkpt>
<trkpt lat="45.9592180" lon="10.1699210">
	<ele>1805.00</ele>
	<time>2025-08-16T08:57:24.000Z</time>
</trkpt>
<trkpt lat="45.9592180" lon="10.1699220">
	<ele>1805.00</ele>
	<time>2025-08-16T08:57:25.000Z</time>
</trkpt>
<trkpt lat="45.9592180" lon="10.1699220">
	<ele>1805.00</ele>
	<time>2025-08-16T08:57:26.000Z</time>
</trkpt>
<trkpt lat="45.9592190" lon="10.1699220">
	<ele>1805.00</ele>
	<time>2025-08-16T08:57:27.000Z</time>
</trkpt>
<trkpt lat="45.9592190" lon="10.1699230">
	<ele>1805.00</ele>
	<time>2025-08-16T08:57:28.000Z</time>
</trkpt>
<trkpt lat="45.9592190" lon="10.1699230">
	<ele>1805.00</ele>
	<time>2025-08-16T08:57:29.000Z</time>
</trkpt>
<trkpt lat="45.9592200" lon="10.1699240">
	<ele>1805.00</ele>
	<time>2025-08-16T08:57:30.000Z</time>
</trkpt>
<trkpt lat="45.9592200" lon="10.1699240">
	<ele>1805.00</ele>
	<time>2025-08-16T08:57:31.000Z</time>
</trkpt>
<trkpt lat="45.9592210" lon="10.1699240">
	<ele>1805.00</ele>
	<time>2025-08-16T08:57:32.000Z</time>
</trkpt>
<trkpt lat="45.9592210" lon="10.1699250">
	<ele>1805.00</ele>
	<time>2025-08-16T08:57:33.000Z</time>
</trkpt>
<trkpt lat="45.9592210" lon="10.1699250">
	<ele>1805.00</ele>
	<time>2025-08-16T08:57:34.000Z</time>
</trkpt>
<trkpt lat="45.9592210" lon="10.1699260">
	<ele>1805.00</ele>
	<time>2025-08-16T08:57:35.000Z</time>
</trkpt>
<trkpt lat="45.9592220" lon="10.1699260">
	<ele>1805.00</ele>
	<time>2025-08-16T08:57:36.000Z</time>
</trkpt>
<trkpt lat="45.9592220" lon="10.1699270">
	<ele>1805.00</ele>
	<time>2025-08-16T08:57:37.000Z</time>
</trkpt>
<trkpt lat="45.9592220" lon="10.1699270">
	<ele>1805.00</ele>
	<time>2025-08-16T08:57:38.000Z</time>
</trkpt>
<trkpt lat="45.9592220" lon="10.1699270">
	<ele>1805.00</ele>
	<time>2025-08-16T08:57:39.000Z</time>
</trkpt>
<trkpt lat="45.9592220" lon="10.1699270">
	<ele>1805.00</ele>
	<time>2025-08-16T08:57:40.000Z</time>
</trkpt>
<trkpt lat="45.9592220" lon="10.1699270">
	<ele>1805.00</ele>
	<time>2025-08-16T08:57:41.000Z</time>
</trkpt>
<trkpt lat="45.9592220" lon="10.1699270">
	<ele>1805.00</ele>
	<time>2025-08-16T08:57:42.000Z</time>
</trkpt>
<trkpt lat="45.9592220" lon="10.1699270">
	<ele>1805.00</ele>
	<time>2025-08-16T08:57:43.000Z</time>
</trkpt>
<trkpt lat="45.9592220" lon="10.1699270">
	<ele>1805.00</ele>
	<time>2025-08-16T08:57:44.000Z</time>
</trkpt>
<trkpt lat="45.9592220" lon="10.1699280">
	<ele>1805.00</ele>
	<time>2025-08-16T08:57:45.000Z</time>
</trkpt>
<trkpt lat="45.9592220" lon="10.1699280">
	<ele>1805.00</ele>
	<time>2025-08-16T08:57:46.000Z</time>
</trkpt>
<trkpt lat="45.9592220" lon="10.1699280">
	<ele>1805.00</ele>
	<time>2025-08-16T08:57:47.000Z</time>
</trkpt>
<trkpt lat="45.9592220" lon="10.1699280">
	<ele>1805.00</ele>
	<time>2025-08-16T08:57:48.000Z</time>
</trkpt>
<trkpt lat="45.9592220" lon="10.1699280">
	<ele>1805.00</ele>
	<time>2025-08-16T08:57:49.000Z</time>
</trkpt>
<trkpt lat="45.9592220" lon="10.1699280">
	<ele>1805.00</ele>
	<time>2025-08-16T08:57:50.000Z</time>
</trkpt>
<trkpt lat="45.9592220" lon="10.1699280">
	<ele>1805.00</ele>
	<time>2025-08-16T08:57:51.000Z</time>
</trkpt>
<trkpt lat="45.9592220" lon="10.1699280">
	<ele>1805.00</ele>
	<time>2025-08-16T08:57:52.000Z</time>
</trkpt>
<trkpt lat="45.9592220" lon="10.1699280">
	<ele>1805.00</ele>
	<time>2025-08-16T08:57:53.000Z</time>
</trkpt>
<trkpt lat="45.9592220" lon="10.1699280">
	<ele>1805.00</ele>
	<time>2025-08-16T08:57:54.000Z</time>
</trkpt>
<trkpt lat="45.9592210" lon="10.1699280">
	<ele>1805.00</ele>
	<time>2025-08-16T08:57:55.000Z</time>
</trkpt>
<trkpt lat="45.9592210" lon="10.1699280">
	<ele>1805.00</ele>
	<time>2025-08-16T08:57:56.000Z</time>
</trkpt>
<trkpt lat="45.9592210" lon="10.1699290">
	<ele>1805.00</ele>
	<time>2025-08-16T08:57:57.000Z</time>
</trkpt>
<trkpt lat="45.9592210" lon="10.1699290">
	<ele>1805.00</ele>
	<time>2025-08-16T08:57:58.000Z</time>
</trkpt>
<trkpt lat="45.9592210" lon="10.1699290">
	<ele>1805.00</ele>
	<time>2025-08-16T08:57:59.000Z</time>
</trkpt>
<trkpt lat="45.9592210" lon="10.1699290">
	<ele>1805.00</ele>
	<time>2025-08-16T08:58:00.000Z</time>
</trkpt>
<trkpt lat="45.9592210" lon="10.1699300">
	<ele>1805.00</ele>
	<time>2025-08-16T08:58:01.000Z</time>
</trkpt>
<trkpt lat="45.9592210" lon="10.1699300">
	<ele>1805.00</ele>
	<time>2025-08-16T08:58:02.000Z</time>
</trkpt>
<trkpt lat="45.9592210" lon="10.1699310">
	<ele>1805.00</ele>
	<time>2025-08-16T08:58:03.000Z</time>
</trkpt>
<trkpt lat="45.9592200" lon="10.1699310">
	<ele>1805.00</ele>
	<time>2025-08-16T08:58:04.000Z</time>
</trkpt>
<trkpt lat="45.9592200" lon="10.1699320">
	<ele>1805.00</ele>
	<time>2025-08-16T08:58:05.000Z</time>
</trkpt>
<trkpt lat="45.9592200" lon="10.1699330">
	<ele>1805.00</ele>
	<time>2025-08-16T08:58:06.000Z</time>
</trkpt>
<trkpt lat="45.9592200" lon="10.1699340">
	<ele>1805.00</ele>
	<time>2025-08-16T08:58:07.000Z</time>
</trkpt>
<trkpt lat="45.9592200" lon="10.1699340">
	<ele>1805.00</ele>
	<time>2025-08-16T08:58:08.000Z</time>
</trkpt>
<trkpt lat="45.9592200" lon="10.1699350">
	<ele>1805.00</ele>
	<time>2025-08-16T08:58:09.000Z</time>
</trkpt>
<trkpt lat="45.9592200" lon="10.1699360">
	<ele>1805.00</ele>
	<time>2025-08-16T08:58:10.000Z</time>
</trkpt>
<trkpt lat="45.9592200" lon="10.1699370">
	<ele>1805.00</ele>
	<time>2025-08-16T08:58:11.000Z</time>
</trkpt>
<trkpt lat="45.9592200" lon="10.1699370">
	<ele>1805.00</ele>
	<time>2025-08-16T08:58:12.000Z</time>
</trkpt>
<trkpt lat="45.9592200" lon="10.1699380">
	<ele>1805.00</ele>
	<time>2025-08-16T08:58:13.000Z</time>
</trkpt>
<trkpt lat="45.9592200" lon="10.1699380">
	<ele>1805.00</ele>
	<time>2025-08-16T08:58:14.000Z</time>
</trkpt>
<trkpt lat="45.9592200" lon="10.1699380">
	<ele>1805.00</ele>
	<time>2025-08-16T08:58:15.000Z</time>
</trkpt>
<trkpt lat="45.9592200" lon="10.1699390">
	<ele>1805.00</ele>
	<time>2025-08-16T08:58:16.000Z</time>
</trkpt>
<trkpt lat="45.9592200" lon="10.1699390">
	<ele>1805.00</ele>
	<time>2025-08-16T08:58:17.000Z</time>
</trkpt>
<trkpt lat="45.9592200" lon="10.1699390">
	<ele>1805.00</ele>
	<time>2025-08-16T08:58:18.000Z</time>
</trkpt>
<trkpt lat="45.9592200" lon="10.1699390">
	<ele>1805.00</ele>
	<time>2025-08-16T08:58:19.000Z</time>
</trkpt>
<trkpt lat="45.9592200" lon="10.1699390">
	<ele>1805.00</ele>
	<time>2025-08-16T08:58:20.000Z</time>
</trkpt>
<trkpt lat="45.9592200" lon="10.1699400">
	<ele>1805.00</ele>
	<time>2025-08-16T08:58:21.000Z</time>
</trkpt>
<trkpt lat="45.9592200" lon="10.1699400">
	<ele>1805.00</ele>
	<time>2025-08-16T08:58:22.000Z</time>
</trkpt>
<trkpt lat="45.9592200" lon="10.1699400">
	<ele>1805.00</ele>
	<time>2025-08-16T08:58:23.000Z</time>
</trkpt>
<trkpt lat="45.9592200" lon="10.1699400">
	<ele>1805.00</ele>
	<time>2025-08-16T08:58:24.000Z</time>
</trkpt>
<trkpt lat="45.9592200" lon="10.1699400">
	<ele>1805.00</ele>
	<time>2025-08-16T08:58:25.000Z</time>
</trkpt>
<trkpt lat="45.9592200" lon="10.1699400">
	<ele>1805.00</ele>
	<time>2025-08-16T08:58:26.000Z</time>
</trkpt>
<trkpt lat="45.9592210" lon="10.1699400">
	<ele>1805.00</ele>
	<time>2025-08-16T08:58:27.000Z</time>
</trkpt>
<trkpt lat="45.9592210" lon="10.1699400">
	<ele>1805.00</ele>
	<time>2025-08-16T08:58:28.000Z</time>
</trkpt>
<trkpt lat="45.9592210" lon="10.1699400">
	<ele>1805.00</ele>
	<time>2025-08-16T08:58:29.000Z</time>
</trkpt>
<trkpt lat="45.9592210" lon="10.1699400">
	<ele>1805.00</ele>
	<time>2025-08-16T08:58:30.000Z</time>
</trkpt>
<trkpt lat="45.9592210" lon="10.1699400">
	<ele>1805.00</ele>
	<time>2025-08-16T08:58:31.000Z</time>
</trkpt>
<trkpt lat="45.9592210" lon="10.1699400">
	<ele>1805.00</ele>
	<time>2025-08-16T08:58:32.000Z</time>
</trkpt>
<trkpt lat="45.9592210" lon="10.1699400">
	<ele>1805.00</ele>
	<time>2025-08-16T08:58:33.000Z</time>
</trkpt>
<trkpt lat="45.9592200" lon="10.1699400">
	<ele>1805.00</ele>
	<time>2025-08-16T08:58:34.000Z</time>
</trkpt>
<trkpt lat="45.9592200" lon="10.1699400">
	<ele>1805.00</ele>
	<time>2025-08-16T08:58:35.000Z</time>
</trkpt>
<trkpt lat="45.9592210" lon="10.1699390">
	<ele>1805.00</ele>
	<time>2025-08-16T08:58:36.000Z</time>
</trkpt>
<trkpt lat="45.9592200" lon="10.1699390">
	<ele>1805.00</ele>
	<time>2025-08-16T08:58:37.000Z</time>
</trkpt>
<trkpt lat="45.9592200" lon="10.1699390">
	<ele>1805.00</ele>
	<time>2025-08-16T08:58:38.000Z</time>
</trkpt>
<trkpt lat="45.9592200" lon="10.1699390">
	<ele>1805.00</ele>
	<time>2025-08-16T08:58:39.000Z</time>
</trkpt>
<trkpt lat="45.9592200" lon="10.1699390">
	<ele>1805.00</ele>
	<time>2025-08-16T08:58:40.000Z</time>
</trkpt>
<trkpt lat="45.9592200" lon="10.1699400">
	<ele>1805.00</ele>
	<time>2025-08-16T08:58:41.000Z</time>
</trkpt>
<trkpt lat="45.9592200" lon="10.1699400">
	<ele>1805.00</ele>
	<time>2025-08-16T08:58:42.000Z</time>
</trkpt>
<trkpt lat="45.9592200" lon="10.1699400">
	<ele>1805.00</ele>
	<time>2025-08-16T08:58:43.000Z</time>
</trkpt>
<trkpt lat="45.9592200" lon="10.1699400">
	<ele>1805.00</ele>
	<time>2025-08-16T08:58:44.000Z</time>
</trkpt>
<trkpt lat="45.9592200" lon="10.1699400">
	<ele>1805.00</ele>
	<time>2025-08-16T08:58:45.000Z</time>
</trkpt>
<trkpt lat="45.9592200" lon="10.1699400">
	<ele>1805.00</ele>
	<time>2025-08-16T08:58:46.000Z</time>
</trkpt>
<trkpt lat="45.9592200" lon="10.1699400">
	<ele>1805.00</ele>
	<time>2025-08-16T08:58:47.000Z</time>
</trkpt>
<trkpt lat="45.9592200" lon="10.1699400">
	<ele>1805.00</ele>
	<time>2025-08-16T08:58:48.000Z</time>
</trkpt>
<trkpt lat="45.9592200" lon="10.1699400">
	<ele>1805.00</ele>
	<time>2025-08-16T08:58:49.000Z</time>
</trkpt>
<trkpt lat="45.9592200" lon="10.1699390">
	<ele>1805.00</ele>
	<time>2025-08-16T08:58:50.000Z</time>
</trkpt>
<trkpt lat="45.9592200" lon="10.1699400">
	<ele>1805.00</ele>
	<time>2025-08-16T08:58:51.000Z</time>
</trkpt>
<trkpt lat="45.9592200" lon="10.1699400">
	<ele>1805.00</ele>
	<time>2025-08-16T08:58:52.000Z</time>
</trkpt>
<trkpt lat="45.9592200" lon="10.1699400">
	<ele>1805.00</ele>
	<time>2025-08-16T08:58:53.000Z</time>
</trkpt>
<trkpt lat="45.9592200" lon="10.1699400">
	<ele>1805.00</ele>
	<time>2025-08-16T08:58:54.000Z</time>
</trkpt>
<trkpt lat="45.9592200" lon="10.1699400">
	<ele>1805.00</ele>
	<time>2025-08-16T08:58:55.000Z</time>
</trkpt>
<trkpt lat="45.9592200" lon="10.1699400">
	<ele>1805.00</ele>
	<time>2025-08-16T08:58:56.000Z</time>
</trkpt>
<trkpt lat="45.9592200" lon="10.1699400">
	<ele>1805.00</ele>
	<time>2025-08-16T08:58:57.000Z</time>
</trkpt>
<trkpt lat="45.9592200" lon="10.1699390">
	<ele>1805.00</ele>
	<time>2025-08-16T08:58:58.000Z</time>
</trkpt>
<trkpt lat="45.9592200" lon="10.1699390">
	<ele>1805.00</ele>
	<time>2025-08-16T08:58:59.000Z</time>
</trkpt>
<trkpt lat="45.9592200" lon="10.1699390">
	<ele>1805.00</ele>
	<time>2025-08-16T08:59:00.000Z</time>
</trkpt>
<trkpt lat="45.9592200" lon="10.1699390">
	<ele>1805.00</ele>
	<time>2025-08-16T08:59:01.000Z</time>
</trkpt>
<trkpt lat="45.9592200" lon="10.1699390">
	<ele>1805.00</ele>
	<time>2025-08-16T08:59:02.000Z</time>
</trkpt>
<trkpt lat="45.9592200" lon="10.1699390">
	<ele>1805.00</ele>
	<time>2025-08-16T08:59:03.000Z</time>
</trkpt>
<trkpt lat="45.9592200" lon="10.1699390">
	<ele>1805.00</ele>
	<time>2025-08-16T08:59:04.000Z</time>
</trkpt>
<trkpt lat="45.9592200" lon="10.1699390">
	<ele>1805.00</ele>
	<time>2025-08-16T08:59:05.000Z</time>
</trkpt>
<trkpt lat="45.9592200" lon="10.1699390">
	<ele>1805.00</ele>
	<time>2025-08-16T08:59:06.000Z</time>
</trkpt>
<trkpt lat="45.9592200" lon="10.1699390">
	<ele>1805.00</ele>
	<time>2025-08-16T08:59:07.000Z</time>
</trkpt>
<trkpt lat="45.9592200" lon="10.1699390">
	<ele>1805.00</ele>
	<time>2025-08-16T08:59:08.000Z</time>
</trkpt>
<trkpt lat="45.9592200" lon="10.1699390">
	<ele>1805.00</ele>
	<time>2025-08-16T08:59:09.000Z</time>
</trkpt>
<trkpt lat="45.9592200" lon="10.1699390">
	<ele>1805.00</ele>
	<time>2025-08-16T08:59:10.000Z</time>
</trkpt>
<trkpt lat="45.9592200" lon="10.1699390">
	<ele>1805.00</ele>
	<time>2025-08-16T08:59:11.000Z</time>
</trkpt>
<trkpt lat="45.9592200" lon="10.1699390">
	<ele>1805.00</ele>
	<time>2025-08-16T08:59:12.000Z</time>
</trkpt>
<trkpt lat="45.9592200" lon="10.1699390">
	<ele>1805.00</ele>
	<time>2025-08-16T08:59:13.000Z</time>
</trkpt>
<trkpt lat="45.9592200" lon="10.1699390">
	<ele>1805.00</ele>
	<time>2025-08-16T08:59:14.000Z</time>
</trkpt>
<trkpt lat="45.9592200" lon="10.1699390">
	<ele>1805.00</ele>
	<time>2025-08-16T08:59:15.000Z</time>
</trkpt>
<trkpt lat="45.9592200" lon="10.1699390">
	<ele>1805.00</ele>
	<time>2025-08-16T08:59:16.000Z</time>
</trkpt>
<trkpt lat="45.9592200" lon="10.1699390">
	<ele>1805.00</ele>
	<time>2025-08-16T08:59:17.000Z</time>
</trkpt>
<trkpt lat="45.9592200" lon="10.1699380">
	<ele>1805.00</ele>
	<time>2025-08-16T08:59:18.000Z</time>
</trkpt>
<trkpt lat="45.9592200" lon="10.1699380">
	<ele>1805.00</ele>
	<time>2025-08-16T08:59:19.000Z</time>
</trkpt>
<trkpt lat="45.9592200" lon="10.1699380">
	<ele>1805.00</ele>
	<time>2025-08-16T08:59:20.000Z</time>
</trkpt>
<trkpt lat="45.9592200" lon="10.1699380">
	<ele>1805.00</ele>
	<time>2025-08-16T08:59:21.000Z</time>
</trkpt>
<trkpt lat="45.9592200" lon="10.1699380">
	<ele>1805.00</ele>
	<time>2025-08-16T08:59:22.000Z</time>
</trkpt>
<trkpt lat="45.9592200" lon="10.1699380">
	<ele>1805.00</ele>
	<time>2025-08-16T08:59:23.000Z</time>
</trkpt>
<trkpt lat="45.9592200" lon="10.1699380">
	<ele>1805.00</ele>
	<time>2025-08-16T08:59:24.000Z</time>
</trkpt>
<trkpt lat="45.9592200" lon="10.1699380">
	<ele>1805.00</ele>
	<time>2025-08-16T08:59:25.000Z</time>
</trkpt>
<trkpt lat="45.9592200" lon="10.1699380">
	<ele>1805.00</ele>
	<time>2025-08-16T08:59:26.000Z</time>
</trkpt>
<trkpt lat="45.9592200" lon="10.1699380">
	<ele>1805.00</ele>
	<time>2025-08-16T08:59:27.000Z</time>
</trkpt>
<trkpt lat="45.9592200" lon="10.1699380">
	<ele>1805.00</ele>
	<time>2025-08-16T08:59:28.000Z</time>
</trkpt>
<trkpt lat="45.9592200" lon="10.1699380">
	<ele>1805.00</ele>
	<time>2025-08-16T08:59:29.000Z</time>
</trkpt>
<trkpt lat="45.9592200" lon="10.1699380">
	<ele>1805.00</ele>
	<time>2025-08-16T08:59:30.000Z</time>
</trkpt>
<trkpt lat="45.9592200" lon="10.1699380">
	<ele>1805.00</ele>
	<time>2025-08-16T08:59:31.000Z</time>
</trkpt>
<trkpt lat="45.9592200" lon="10.1699380">
	<ele>1805.00</ele>
	<time>2025-08-16T08:59:32.000Z</time>
</trkpt>
<trkpt lat="45.9592200" lon="10.1699380">
	<ele>1805.00</ele>
	<time>2025-08-16T08:59:33.000Z</time>
</trkpt>
<trkpt lat="45.9592200" lon="10.1699380">
	<ele>1805.00</ele>
	<time>2025-08-16T08:59:34.000Z</time>
</trkpt>
<trkpt lat="45.9592200" lon="10.1699380">
	<ele>1805.00</ele>
	<time>2025-08-16T08:59:35.000Z</time>
</trkpt>
<trkpt lat="45.9592200" lon="10.1699380">
	<ele>1805.00</ele>
	<time>2025-08-16T08:59:36.000Z</time>
</trkpt>
<trkpt lat="45.9592200" lon="10.1699380">
	<ele>1805.00</ele>
	<time>2025-08-16T08:59:37.000Z</time>
</trkpt>
<trkpt lat="45.9592200" lon="10.1699380">
	<ele>1805.00</ele>
	<time>2025-08-16T08:59:38.000Z</time>
</trkpt>
<trkpt lat="45.9592200" lon="10.1699380">
	<ele>1805.00</ele>
	<time>2025-08-16T08:59:39.000Z</time>
</trkpt>
<trkpt lat="45.9592200" lon="10.1699380">
	<ele>1805.00</ele>
	<time>2025-08-16T08:59:40.000Z</time>
</trkpt>
<trkpt lat="45.9592200" lon="10.1699380">
	<ele>1805.00</ele>
	<time>2025-08-16T08:59:41.000Z</time>
</trkpt>
<trkpt lat="45.9592200" lon="10.1699380">
	<ele>1805.00</ele>
	<time>2025-08-16T08:59:42.000Z</time>
</trkpt>
<trkpt lat="45.9592200" lon="10.1699380">
	<ele>1805.00</ele>
	<time>2025-08-16T08:59:43.000Z</time>
</trkpt>
<trkpt lat="45.9592200" lon="10.1699380">
	<ele>1805.00</ele>
	<time>2025-08-16T08:59:44.000Z</time>
</trkpt>
<trkpt lat="45.9592200" lon="10.1699380">
	<ele>1805.00</ele>
	<time>2025-08-16T08:59:45.000Z</time>
</trkpt>
<trkpt lat="45.9592200" lon="10.1699380">
	<ele>1805.00</ele>
	<time>2025-08-16T08:59:46.000Z</time>
</trkpt>
<trkpt lat="45.9592200" lon="10.1699380">
	<ele>1805.00</ele>
	<time>2025-08-16T08:59:47.000Z</time>
</trkpt>
<trkpt lat="45.9592200" lon="10.1699380">
	<ele>1805.00</ele>
	<time>2025-08-16T08:59:48.000Z</time>
</trkpt>
<trkpt lat="45.9592200" lon="10.1699380">
	<ele>1805.00</ele>
	<time>2025-08-16T08:59:49.000Z</time>
</trkpt>
<trkpt lat="45.9592200" lon="10.1699380">
	<ele>1805.00</ele>
	<time>2025-08-16T08:59:50.000Z</time>
</trkpt>
<trkpt lat="45.9592200" lon="10.1699380">
	<ele>1805.00</ele>
	<time>2025-08-16T08:59:51.000Z</time>
</trkpt>
<trkpt lat="45.9592200" lon="10.1699380">
	<ele>1805.00</ele>
	<time>2025-08-16T08:59:52.000Z</time>
</trkpt>
<trkpt lat="45.9592200" lon="10.1699380">
	<ele>1805.00</ele>
	<time>2025-08-16T08:59:53.000Z</time>
</trkpt>
<trkpt lat="45.9592200" lon="10.1699380">
	<ele>1805.00</ele>
	<time>2025-08-16T08:59:54.000Z</time>
</trkpt>
<trkpt lat="45.9592200" lon="10.1699380">
	<ele>1805.00</ele>
	<time>2025-08-16T08:59:55.000Z</time>
</trkpt>
<trkpt lat="45.9592200" lon="10.1699380">
	<ele>1805.00</ele>
	<time>2025-08-16T08:59:56.000Z</time>
</trkpt>
<trkpt lat="45.9592200" lon="10.1699380">
	<ele>1805.00</ele>
	<time>2025-08-16T08:59:57.000Z</time>
</trkpt>
<trkpt lat="45.9592200" lon="10.1699380">
	<ele>1805.00</ele>
	<time>2025-08-16T08:59:58.000Z</time>
</trkpt>
<trkpt lat="45.9592200" lon="10.1699380">
	<ele>1805.00</ele>
	<time>2025-08-16T08:59:59.000Z</time>
</trkpt>
<trkpt lat="45.9592200" lon="10.1699380">
	<ele>1805.00</ele>
	<time>2025-08-16T09:00:00.000Z</time>
</trkpt>
<trkpt lat="45.9592200" lon="10.1699380">
	<ele>1805.00</ele>
	<time>2025-08-16T09:00:01.000Z</time>
</trkpt>
<trkpt lat="45.9592200" lon="10.1699380">
	<ele>1805.00</ele>
	<time>2025-08-16T09:00:02.000Z</time>
</trkpt>
<trkpt lat="45.9592200" lon="10.1699380">
	<ele>1805.00</ele>
	<time>2025-08-16T09:00:03.000Z</time>
</trkpt>
<trkpt lat="45.9592200" lon="10.1699380">
	<ele>1805.00</ele>
	<time>2025-08-16T09:00:04.000Z</time>
</trkpt>
<trkpt lat="45.9592200" lon="10.1699380">
	<ele>1805.00</ele>
	<time>2025-08-16T09:00:05.000Z</time>
</trkpt>
<trkpt lat="45.9592200" lon="10.1699380">
	<ele>1805.00</ele>
	<time>2025-08-16T09:00:06.000Z</time>
</trkpt>
<trkpt lat="45.9592200" lon="10.1699380">
	<ele>1805.00</ele>
	<time>2025-08-16T09:00:07.000Z</time>
</trkpt>
<trkpt lat="45.9592200" lon="10.1699380">
	<ele>1805.00</ele>
	<time>2025-08-16T09:00:08.000Z</time>
</trkpt>
<trkpt lat="45.9592200" lon="10.1699380">
	<ele>1805.00</ele>
	<time>2025-08-16T09:00:09.000Z</time>
</trkpt>
<trkpt lat="45.9592200" lon="10.1699380">
	<ele>1805.00</ele>
	<time>2025-08-16T09:00:10.000Z</time>
</trkpt>
<trkpt lat="45.9592200" lon="10.1699380">
	<ele>1805.00</ele>
	<time>2025-08-16T09:00:11.000Z</time>
</trkpt>
<trkpt lat="45.9592200" lon="10.1699380">
	<ele>1805.00</ele>
	<time>2025-08-16T09:00:12.000Z</time>
</trkpt>
<trkpt lat="45.9592200" lon="10.1699370">
	<ele>1805.00</ele>
	<time>2025-08-16T09:00:13.000Z</time>
</trkpt>
<trkpt lat="45.9592260" lon="10.1699310">
	<ele>1805.00</ele>
	<time>2025-08-16T09:00:14.000Z</time>
</trkpt>
<trkpt lat="45.9592350" lon="10.1699100">
	<ele>1805.00</ele>
	<time>2025-08-16T09:00:15.000Z</time>
</trkpt>
<trkpt lat="45.9592460" lon="10.1698880">
	<ele>1805.00</ele>
	<time>2025-08-16T09:00:16.000Z</time>
</trkpt>
<trkpt lat="45.9592600" lon="10.1698650">
	<ele>1805.00</ele>
	<time>2025-08-16T09:00:17.000Z</time>
</trkpt>
<trkpt lat="45.9592750" lon="10.1698490">
	<ele>1805.00</ele>
	<time>2025-08-16T09:00:18.000Z</time>
</trkpt>
<trkpt lat="45.9592970" lon="10.1698290">
	<ele>1805.00</ele>
	<time>2025-08-16T09:00:19.000Z</time>
</trkpt>
<trkpt lat="45.9593120" lon="10.1698160">
	<ele>1805.00</ele>
	<time>2025-08-16T09:00:20.000Z</time>
</trkpt>
<trkpt lat="45.9593320" lon="10.1697980">
	<ele>1805.00</ele>
	<time>2025-08-16T09:00:21.000Z</time>
</trkpt>
<trkpt lat="45.9593460" lon="10.1697820">
	<ele>1805.00</ele>
	<time>2025-08-16T09:00:22.000Z</time>
</trkpt>
<trkpt lat="45.9593600" lon="10.1697670">
	<ele>1805.00</ele>
	<time>2025-08-16T09:00:23.000Z</time>
</trkpt>
<trkpt lat="45.9593660" lon="10.1697610">
	<ele>1805.00</ele>
	<time>2025-08-16T09:00:24.000Z</time>
</trkpt>
<trkpt lat="45.9593770" lon="10.1697520">
	<ele>1805.00</ele>
	<time>2025-08-16T09:00:25.000Z</time>
</trkpt>
<trkpt lat="45.9593900" lon="10.1697430">
	<ele>1805.00</ele>
	<time>2025-08-16T09:00:26.000Z</time>
</trkpt>
<trkpt lat="45.9594020" lon="10.1697300">
	<ele>1805.00</ele>
	<time>2025-08-16T09:00:27.000Z</time>
</trkpt>
<trkpt lat="45.9594100" lon="10.1697150">
	<ele>1805.60</ele>
	<time>2025-08-16T09:00:28.000Z</time>
</trkpt>
<trkpt lat="45.9594140" lon="10.1697000">
	<ele>1806.20</ele>
	<time>2025-08-16T09:00:29.000Z</time>
</trkpt>
<trkpt lat="45.9594180" lon="10.1696870">
	<ele>1806.40</ele>
	<time>2025-08-16T09:00:30.000Z</time>
</trkpt>
<trkpt lat="45.9594220" lon="10.1696710">
	<ele>1806.60</ele>
	<time>2025-08-16T09:00:31.000Z</time>
</trkpt>
<trkpt lat="45.9594250" lon="10.1696540">
	<ele>1806.80</ele>
	<time>2025-08-16T09:00:32.000Z</time>
</trkpt>
<trkpt lat="45.9594280" lon="10.1696360">
	<ele>1806.80</ele>
	<time>2025-08-16T09:00:33.000Z</time>
</trkpt>
<trkpt lat="45.9594310" lon="10.1696190">
	<ele>1806.80</ele>
	<time>2025-08-16T09:00:34.000Z</time>
</trkpt>
<trkpt lat="45.9594330" lon="10.1696020">
	<ele>1807.00</ele>
	<time>2025-08-16T09:00:35.000Z</time>
</trkpt>
<trkpt lat="45.9594320" lon="10.1695900">
	<ele>1807.00</ele>
	<time>2025-08-16T09:00:36.000Z</time>
</trkpt>
<trkpt lat="45.9594340" lon="10.1695770">
	<ele>1807.20</ele>
	<time>2025-08-16T09:00:37.000Z</time>
</trkpt>
<trkpt lat="45.9594360" lon="10.1695630">
	<ele>1807.20</ele>
	<time>2025-08-16T09:00:38.000Z</time>
</trkpt>
<trkpt lat="45.9594330" lon="10.1695460">
	<ele>1807.20</ele>
	<time>2025-08-16T09:00:39.000Z</time>
</trkpt>
<trkpt lat="45.9594280" lon="10.1695350">
	<ele>1807.20</ele>
	<time>2025-08-16T09:00:40.000Z</time>
</trkpt>
<trkpt lat="45.9594250" lon="10.1695340">
	<ele>1807.20</ele>
	<time>2025-08-16T09:00:41.000Z</time>
</trkpt>
<trkpt lat="45.9594180" lon="10.1695350">
	<ele>1807.00</ele>
	<time>2025-08-16T09:00:42.000Z</time>
</trkpt>
<trkpt lat="45.9594090" lon="10.1695370">
	<ele>1807.00</ele>
	<time>2025-08-16T09:00:43.000Z</time>
</trkpt>
<trkpt lat="45.9593940" lon="10.1695330">
	<ele>1807.00</ele>
	<time>2025-08-16T09:00:44.000Z</time>
</trkpt>
<trkpt lat="45.9593850" lon="10.1695310">
	<ele>1807.00</ele>
	<time>2025-08-16T09:00:45.000Z</time>
</trkpt>
<trkpt lat="45.9593740" lon="10.1695250">
	<ele>1807.00</ele>
	<time>2025-08-16T09:00:46.000Z</time>
</trkpt>
<trkpt lat="45.9593610" lon="10.1695180">
	<ele>1806.80</ele>
	<time>2025-08-16T09:00:47.000Z</time>
</trkpt>
<trkpt lat="45.9593490" lon="10.1695140">
	<ele>1806.80</ele>
	<time>2025-08-16T09:00:48.000Z</time>
</trkpt>
<trkpt lat="45.9593390" lon="10.1695070">
	<ele>1806.80</ele>
	<time>2025-08-16T09:00:49.000Z</time>
</trkpt>
<trkpt lat="45.9593270" lon="10.1695030">
	<ele>1806.80</ele>
	<time>2025-08-16T09:00:50.000Z</time>
</trkpt>
<trkpt lat="45.9593160" lon="10.1694980">
	<ele>1806.80</ele>
	<time>2025-08-16T09:00:51.000Z</time>
</trkpt>
<trkpt lat="45.9594760" lon="10.1697130">
	<ele>1806.80</ele>
	<time>2025-08-16T09:04:56.000Z</time>
</trkpt>
<trkpt lat="45.9594560" lon="10.1697600">
	<ele>1807.00</ele>
	<time>2025-08-16T09:22:03.000Z</time>
</trkpt>
<trkpt lat="45.9594680" lon="10.1697610">
	<ele>1807.00</ele>
	<time>2025-08-16T09:22:04.000Z</time>
</trkpt>
<trkpt lat="45.9594790" lon="10.1697600">
	<ele>1807.00</ele>
	<time>2025-08-16T09:22:05.000Z</time>
</trkpt>
<trkpt lat="45.9594880" lon="10.1697620">
	<ele>1806.80</ele>
	<time>2025-08-16T09:22:06.000Z</time>
</trkpt>
<trkpt lat="45.9594940" lon="10.1697670">
	<ele>1806.80</ele>
	<time>2025-08-16T09:22:07.000Z</time>
</trkpt>
<trkpt lat="45.9594980" lon="10.1697780">
	<ele>1806.60</ele>
	<time>2025-08-16T09:22:08.000Z</time>
</trkpt>
<trkpt lat="45.9595010" lon="10.1697900">
	<ele>1806.60</ele>
	<time>2025-08-16T09:22:09.000Z</time>
</trkpt>
<trkpt lat="45.9595050" lon="10.1698040">
	<ele>1806.60</ele>
	<time>2025-08-16T09:22:10.000Z</time>
</trkpt>
<trkpt lat="45.9595090" lon="10.1698180">
	<ele>1806.20</ele>
	<time>2025-08-16T09:22:11.000Z</time>
</trkpt>
<trkpt lat="45.9595130" lon="10.1698300">
	<ele>1806.00</ele>
	<time>2025-08-16T09:22:12.000Z</time>
</trkpt>
<trkpt lat="45.9595130" lon="10.1698410">
	<ele>1805.80</ele>
	<time>2025-08-16T09:22:13.000Z</time>
</trkpt>
<trkpt lat="45.9595110" lon="10.1698580">
	<ele>1805.80</ele>
	<time>2025-08-16T09:22:14.000Z</time>
</trkpt>
<trkpt lat="45.9595080" lon="10.1698690">
	<ele>1805.80</ele>
	<time>2025-08-16T09:22:15.000Z</time>
</trkpt>
<trkpt lat="45.9595030" lon="10.1698830">
	<ele>1805.60</ele>
	<time>2025-08-16T09:22:16.000Z</time>
</trkpt>
<trkpt lat="45.9594990" lon="10.1698990">
	<ele>1805.40</ele>
	<time>2025-08-16T09:22:17.000Z</time>
</trkpt>
<trkpt lat="45.9594940" lon="10.1699130">
	<ele>1805.20</ele>
	<time>2025-08-16T09:22:18.000Z</time>
</trkpt>
<trkpt lat="45.9594890" lon="10.1699210">
	<ele>1805.00</ele>
	<time>2025-08-16T09:22:19.000Z</time>
</trkpt>
<trkpt lat="45.9594850" lon="10.1699330">
	<ele>1805.00</ele>
	<time>2025-08-16T09:22:20.000Z</time>
</trkpt>
<trkpt lat="45.9594810" lon="10.1699370">
	<ele>1804.80</ele>
	<time>2025-08-16T09:22:21.000Z</time>
</trkpt>
<trkpt lat="45.9594830" lon="10.1699400">
	<ele>1804.40</ele>
	<time>2025-08-16T09:22:22.000Z</time>
</trkpt>
<trkpt lat="45.9594820" lon="10.1699440">
	<ele>1804.20</ele>
	<time>2025-08-16T09:22:23.000Z</time>
</trkpt>
<trkpt lat="45.9594820" lon="10.1699450">
	<ele>1804.00</ele>
	<time>2025-08-16T09:22:24.000Z</time>
</trkpt>
<trkpt lat="45.9594820" lon="10.1699460">
	<ele>1804.00</ele>
	<time>2025-08-16T09:22:25.000Z</time>
</trkpt>
<trkpt lat="45.9594810" lon="10.1699460">
	<ele>1803.80</ele>
	<time>2025-08-16T09:22:26.000Z</time>
</trkpt>
<trkpt lat="45.9594800" lon="10.1699480">
	<ele>1803.80</ele>
	<time>2025-08-16T09:22:27.000Z</time>
</trkpt>
<trkpt lat="45.9594790" lon="10.1699480">
	<ele>1803.80</ele>
	<time>2025-08-16T09:22:28.000Z</time>
</trkpt>
<trkpt lat="45.9594770" lon="10.1699490">
	<ele>1803.60</ele>
	<time>2025-08-16T09:22:29.000Z</time>
</trkpt>
<trkpt lat="45.9594800" lon="10.1699470">
	<ele>1803.60</ele>
	<time>2025-08-16T09:22:30.000Z</time>
</trkpt>
<trkpt lat="45.9594780" lon="10.1699480">
	<ele>1803.80</ele>
	<time>2025-08-16T09:22:31.000Z</time>
</trkpt>
<trkpt lat="45.9594730" lon="10.1699490">
	<ele>1803.80</ele>
	<time>2025-08-16T09:22:32.000Z</time>
</trkpt>
<trkpt lat="45.9594660" lon="10.1699560">
	<ele>1803.60</ele>
	<time>2025-08-16T09:22:33.000Z</time>
</trkpt>
<trkpt lat="45.9594580" lon="10.1699640">
	<ele>1803.60</ele>
	<time>2025-08-16T09:22:34.000Z</time>
</trkpt>
<trkpt lat="45.9594500" lon="10.1699740">
	<ele>1803.60</ele>
	<time>2025-08-16T09:22:35.000Z</time>
</trkpt>
<trkpt lat="45.9594400" lon="10.1699830">
	<ele>1803.60</ele>
	<time>2025-08-16T09:22:36.000Z</time>
</trkpt>
<trkpt lat="45.9594280" lon="10.1699910">
	<ele>1803.60</ele>
	<time>2025-08-16T09:22:37.000Z</time>
</trkpt>
<trkpt lat="45.9594170" lon="10.1700010">
	<ele>1803.40</ele>
	<time>2025-08-16T09:22:38.000Z</time>
</trkpt>
<trkpt lat="45.9594040" lon="10.1700110">
	<ele>1803.20</ele>
	<time>2025-08-16T09:22:39.000Z</time>
</trkpt>
<trkpt lat="45.9593920" lon="10.1700200">
	<ele>1803.00</ele>
	<time>2025-08-16T09:22:40.000Z</time>
</trkpt>
<trkpt lat="45.9593800" lon="10.1700290">
	<ele>1803.00</ele>
	<time>2025-08-16T09:22:41.000Z</time>
</trkpt>
<trkpt lat="45.9593690" lon="10.1700390">
	<ele>1802.80</ele>
	<time>2025-08-16T09:22:42.000Z</time>
</trkpt>
<trkpt lat="45.9593570" lon="10.1700490">
	<ele>1802.60</ele>
	<time>2025-08-16T09:22:43.000Z</time>
</trkpt>
<trkpt lat="45.9593460" lon="10.1700600">
	<ele>1802.60</ele>
	<time>2025-08-16T09:22:44.000Z</time>
</trkpt>
<trkpt lat="45.9593360" lon="10.1700710">
	<ele>1802.60</ele>
	<time>2025-08-16T09:22:45.000Z</time>
</trkpt>
<trkpt lat="45.9593280" lon="10.1700830">
	<ele>1802.40</ele>
	<time>2025-08-16T09:22:46.000Z</time>
</trkpt>
<trkpt lat="45.9593180" lon="10.1700940">
	<ele>1802.40</ele>
	<time>2025-08-16T09:22:47.000Z</time>
</trkpt>
<trkpt lat="45.9593060" lon="10.1701060">
	<ele>1802.40</ele>
	<time>2025-08-16T09:22:48.000Z</time>
</trkpt>
<trkpt lat="45.9592910" lon="10.1701130">
	<ele>1802.20</ele>
	<time>2025-08-16T09:22:49.000Z</time>
</trkpt>
<trkpt lat="45.9592760" lon="10.1701220">
	<ele>1801.80</ele>
	<time>2025-08-16T09:22:50.000Z</time>
</trkpt>
<trkpt lat="45.9592630" lon="10.1701290">
	<ele>1801.60</ele>
	<time>2025-08-16T09:22:51.000Z</time>
</trkpt>
<trkpt lat="45.9592530" lon="10.1701390">
	<ele>1801.40</ele>
	<time>2025-08-16T09:22:52.000Z</time>
</trkpt>
<trkpt lat="45.9592400" lon="10.1701500">
	<ele>1801.20</ele>
	<time>2025-08-16T09:22:53.000Z</time>
</trkpt>
<trkpt lat="45.9592250" lon="10.1701590">
	<ele>1801.00</ele>
	<time>2025-08-16T09:22:54.000Z</time>
</trkpt>
<trkpt lat="45.9592120" lon="10.1701700">
	<ele>1801.00</ele>
	<time>2025-08-16T09:22:55.000Z</time>
</trkpt>
<trkpt lat="45.9592010" lon="10.1701830">
	<ele>1801.00</ele>
	<time>2025-08-16T09:22:56.000Z</time>
</trkpt>
<trkpt lat="45.9591900" lon="10.1701930">
	<ele>1800.80</ele>
	<time>2025-08-16T09:22:57.000Z</time>
</trkpt>
<trkpt lat="45.9591780" lon="10.1702020">
	<ele>1800.80</ele>
	<time>2025-08-16T09:22:58.000Z</time>
</trkpt>
<trkpt lat="45.9591650" lon="10.1702100">
	<ele>1800.60</ele>
	<time>2025-08-16T09:22:59.000Z</time>
</trkpt>
<trkpt lat="45.9591530" lon="10.1702170">
	<ele>1800.40</ele>
	<time>2025-08-16T09:23:00.000Z</time>
</trkpt>
<trkpt lat="45.9591400" lon="10.1702240">
	<ele>1800.20</ele>
	<time>2025-08-16T09:23:01.000Z</time>
</trkpt>
<trkpt lat="45.9591270" lon="10.1702300">
	<ele>1800.00</ele>
	<time>2025-08-16T09:23:02.000Z</time>
</trkpt>
<trkpt lat="45.9591140" lon="10.1702380">
	<ele>1799.80</ele>
	<time>2025-08-16T09:23:03.000Z</time>
</trkpt>
<trkpt lat="45.9591000" lon="10.1702450">
	<ele>1799.80</ele>
	<time>2025-08-16T09:23:04.000Z</time>
</trkpt>
<trkpt lat="45.9590840" lon="10.1702490">
	<ele>1799.60</ele>
	<time>2025-08-16T09:23:05.000Z</time>
</trkpt>
<trkpt lat="45.9590710" lon="10.1702540">
	<ele>1799.40</ele>
	<time>2025-08-16T09:23:06.000Z</time>
</trkpt>
<trkpt lat="45.9590560" lon="10.1702570">
	<ele>1799.00</ele>
	<time>2025-08-16T09:23:07.000Z</time>
</trkpt>
<trkpt lat="45.9590400" lon="10.1702600">
	<ele>1798.80</ele>
	<time>2025-08-16T09:23:08.000Z</time>
</trkpt>
<trkpt lat="45.9590260" lon="10.1702650">
	<ele>1798.60</ele>
	<time>2025-08-16T09:23:09.000Z</time>
</trkpt>
<trkpt lat="45.9590140" lon="10.1702710">
	<ele>1798.60</ele>
	<time>2025-08-16T09:23:10.000Z</time>
</trkpt>
<trkpt lat="45.9590020" lon="10.1702790">
	<ele>1798.40</ele>
	<time>2025-08-16T09:23:11.000Z</time>
</trkpt>
<trkpt lat="45.9589900" lon="10.1702840">
	<ele>1798.40</ele>
	<time>2025-08-16T09:23:12.000Z</time>
</trkpt>
<trkpt lat="45.9589800" lon="10.1702900">
	<ele>1798.20</ele>
	<time>2025-08-16T09:23:13.000Z</time>
</trkpt>
<trkpt lat="45.9589690" lon="10.1702990">
	<ele>1798.20</ele>
	<time>2025-08-16T09:23:14.000Z</time>
</trkpt>
<trkpt lat="45.9589590" lon="10.1703050">
	<ele>1798.00</ele>
	<time>2025-08-16T09:23:15.000Z</time>
</trkpt>
<trkpt lat="45.9589470" lon="10.1703090">
	<ele>1797.80</ele>
	<time>2025-08-16T09:23:16.000Z</time>
</trkpt>
<trkpt lat="45.9589350" lon="10.1703120">
	<ele>1797.60</ele>
	<time>2025-08-16T09:23:17.000Z</time>
</trkpt>
<trkpt lat="45.9589240" lon="10.1703150">
	<ele>1797.40</ele>
	<time>2025-08-16T09:23:18.000Z</time>
</trkpt>
<trkpt lat="45.9589140" lon="10.1703200">
	<ele>1797.40</ele>
	<time>2025-08-16T09:23:19.000Z</time>
</trkpt>
<trkpt lat="45.9589050" lon="10.1703250">
	<ele>1797.20</ele>
	<time>2025-08-16T09:23:20.000Z</time>
</trkpt>
<trkpt lat="45.9588940" lon="10.1703260">
	<ele>1797.20</ele>
	<time>2025-08-16T09:23:21.000Z</time>
</trkpt>
<trkpt lat="45.9588840" lon="10.1703250">
	<ele>1797.00</ele>
	<time>2025-08-16T09:23:22.000Z</time>
</trkpt>
<trkpt lat="45.9588720" lon="10.1703250">
	<ele>1796.80</ele>
	<time>2025-08-16T09:23:23.000Z</time>
</trkpt>
<trkpt lat="45.9588610" lon="10.1703270">
	<ele>1796.60</ele>
	<time>2025-08-16T09:23:24.000Z</time>
</trkpt>
<trkpt lat="45.9588480" lon="10.1703260">
	<ele>1796.40</ele>
	<time>2025-08-16T09:23:25.000Z</time>
</trkpt>
<trkpt lat="45.9588340" lon="10.1703260">
	<ele>1796.20</ele>
	<time>2025-08-16T09:23:26.000Z</time>
</trkpt>
<trkpt lat="45.9588200" lon="10.1703300">
	<ele>1796.00</ele>
	<time>2025-08-16T09:23:27.000Z</time>
</trkpt>
<trkpt lat="45.9588090" lon="10.1703390">
	<ele>1795.80</ele>
	<time>2025-08-16T09:23:28.000Z</time>
</trkpt>
<trkpt lat="45.9587980" lon="10.1703470">
	<ele>1795.60</ele>
	<time>2025-08-16T09:23:29.000Z</time>
</trkpt>
<trkpt lat="45.9587870" lon="10.1703550">
	<ele>1795.40</ele>
	<time>2025-08-16T09:23:30.000Z</time>
</trkpt>
<trkpt lat="45.9587760" lon="10.1703600">
	<ele>1795.20</ele>
	<time>2025-08-16T09:23:31.000Z</time>
</trkpt>
<trkpt lat="45.9587640" lon="10.1703640">
	<ele>1795.00</ele>
	<time>2025-08-16T09:23:32.000Z</time>
</trkpt>
<trkpt lat="45.9587520" lon="10.1703670">
	<ele>1795.00</ele>
	<time>2025-08-16T09:23:33.000Z</time>
</trkpt>
<trkpt lat="45.9587420" lon="10.1703720">
	<ele>1794.80</ele>
	<time>2025-08-16T09:23:34.000Z</time>
</trkpt>
<trkpt lat="45.9587300" lon="10.1703790">
	<ele>1794.60</ele>
	<time>2025-08-16T09:23:35.000Z</time>
</trkpt>
<trkpt lat="45.9587210" lon="10.1703820">
	<ele>1794.40</ele>
	<time>2025-08-16T09:23:36.000Z</time>
</trkpt>
<trkpt lat="45.9587070" lon="10.1703810">
	<ele>1794.40</ele>
	<time>2025-08-16T09:23:37.000Z</time>
</trkpt>
<trkpt lat="45.9586970" lon="10.1703740">
	<ele>1794.20</ele>
	<time>2025-08-16T09:23:38.000Z</time>
</trkpt>
<trkpt lat="45.9586860" lon="10.1703660">
	<ele>1794.20</ele>
	<time>2025-08-16T09:23:39.000Z</time>
</trkpt>
<trkpt lat="45.9586730" lon="10.1703570">
	<ele>1793.80</ele>
	<time>2025-08-16T09:23:40.000Z</time>
</trkpt>
<trkpt lat="45.9586600" lon="10.1703500">
	<ele>1793.80</ele>
	<time>2025-08-16T09:23:41.000Z</time>
</trkpt>
<trkpt lat="45.9586460" lon="10.1703470">
	<ele>1793.60</ele>
	<time>2025-08-16T09:23:42.000Z</time>
</trkpt>
<trkpt lat="45.9586380" lon="10.1703480">
	<ele>1793.40</ele>
	<time>2025-08-16T09:23:43.000Z</time>
</trkpt>
<trkpt lat="45.9586280" lon="10.1703480">
	<ele>1793.40</ele>
	<time>2025-08-16T09:23:44.000Z</time>
</trkpt>
<trkpt lat="45.9586190" lon="10.1703470">
	<ele>1793.20</ele>
	<time>2025-08-16T09:23:45.000Z</time>
</trkpt>
<trkpt lat="45.9586080" lon="10.1703430">
	<ele>1793.00</ele>
	<time>2025-08-16T09:23:46.000Z</time>
</trkpt>
<trkpt lat="45.9586030" lon="10.1703440">
	<ele>1792.80</ele>
	<time>2025-08-16T09:23:47.000Z</time>
</trkpt>
<trkpt lat="45.9586030" lon="10.1703450">
	<ele>1792.60</ele>
	<time>2025-08-16T09:23:48.000Z</time>
</trkpt>
<trkpt lat="45.9586020" lon="10.1703460">
	<ele>1792.20</ele>
	<time>2025-08-16T09:23:49.000Z</time>
</trkpt>
<trkpt lat="45.9586010" lon="10.1703460">
	<ele>1792.00</ele>
	<time>2025-08-16T09:23:50.000Z</time>
</trkpt>
<trkpt lat="45.9586010" lon="10.1703460">
	<ele>1792.00</ele>
	<time>2025-08-16T09:23:51.000Z</time>
</trkpt>
<trkpt lat="45.9586010" lon="10.1703460">
	<ele>1792.00</ele>
	<time>2025-08-16T09:23:52.000Z</time>
</trkpt>
<trkpt lat="45.9586000" lon="10.1703460">
	<ele>1792.00</ele>
	<time>2025-08-16T09:23:53.000Z</time>
</trkpt>
<trkpt lat="45.9585990" lon="10.1703470">
	<ele>1792.20</ele>
	<time>2025-08-16T09:23:54.000Z</time>
</trkpt>
<trkpt lat="45.9585980" lon="10.1703490">
	<ele>1792.20</ele>
	<time>2025-08-16T09:23:55.000Z</time>
</trkpt>
<trkpt lat="45.9585970" lon="10.1703510">
	<ele>1792.20</ele>
	<time>2025-08-16T09:23:56.000Z</time>
</trkpt>
<trkpt lat="45.9585950" lon="10.1703540">
	<ele>1792.20</ele>
	<time>2025-08-16T09:23:57.000Z</time>
</trkpt>
<trkpt lat="45.9585950" lon="10.1703550">
	<ele>1792.20</ele>
	<time>2025-08-16T09:23:58.000Z</time>
</trkpt>
<trkpt lat="45.9585940" lon="10.1703570">
	<ele>1792.40</ele>
	<time>2025-08-16T09:23:59.000Z</time>
</trkpt>
<trkpt lat="45.9585940" lon="10.1703570">
	<ele>1792.40</ele>
	<time>2025-08-16T09:24:00.000Z</time>
</trkpt>
<trkpt lat="45.9585940" lon="10.1703570">
	<ele>1792.20</ele>
	<time>2025-08-16T09:24:01.000Z</time>
</trkpt>
<trkpt lat="45.9585940" lon="10.1703570">
	<ele>1792.20</ele>
	<time>2025-08-16T09:24:02.000Z</time>
</trkpt>
<trkpt lat="45.9585940" lon="10.1703570">
	<ele>1792.00</ele>
	<time>2025-08-16T09:24:03.000Z</time>
</trkpt>
<trkpt lat="45.9585940" lon="10.1703570">
	<ele>1791.80</ele>
	<time>2025-08-16T09:24:04.000Z</time>
</trkpt>
<trkpt lat="45.9585940" lon="10.1703570">
	<ele>1791.80</ele>
	<time>2025-08-16T09:24:05.000Z</time>
</trkpt>
<trkpt lat="45.9585940" lon="10.1703570">
	<ele>1791.80</ele>
	<time>2025-08-16T09:24:06.000Z</time>
</trkpt>
<trkpt lat="45.9585940" lon="10.1703570">
	<ele>1791.60</ele>
	<time>2025-08-16T09:24:07.000Z</time>
</trkpt>
<trkpt lat="45.9585940" lon="10.1703570">
	<ele>1791.60</ele>
	<time>2025-08-16T09:24:08.000Z</time>
</trkpt>
<trkpt lat="45.9585940" lon="10.1703570">
	<ele>1791.60</ele>
	<time>2025-08-16T09:24:09.000Z</time>
</trkpt>
<trkpt lat="45.9585940" lon="10.1703570">
	<ele>1791.40</ele>
	<time>2025-08-16T09:24:10.000Z</time>
</trkpt>
<trkpt lat="45.9585940" lon="10.1703570">
	<ele>1791.40</ele>
	<time>2025-08-16T09:24:11.000Z</time>
</trkpt>
<trkpt lat="45.9585940" lon="10.1703570">
	<ele>1791.20</ele>
	<time>2025-08-16T09:24:12.000Z</time>
</trkpt>
<trkpt lat="45.9585910" lon="10.1703540">
	<ele>1791.20</ele>
	<time>2025-08-16T09:24:13.000Z</time>
</trkpt>
<trkpt lat="45.9585800" lon="10.1703470">
	<ele>1791.00</ele>
	<time>2025-08-16T09:24:14.000Z</time>
</trkpt>
<trkpt lat="45.9585670" lon="10.1703360">
	<ele>1791.00</ele>
	<time>2025-08-16T09:24:15.000Z</time>
</trkpt>
<trkpt lat="45.9585560" lon="10.1703260">
	<ele>1791.00</ele>
	<time>2025-08-16T09:24:16.000Z</time>
</trkpt>
<trkpt lat="45.9585440" lon="10.1703160">
	<ele>1790.80</ele>
	<time>2025-08-16T09:24:17.000Z</time>
</trkpt>
<trkpt lat="45.9585350" lon="10.1703090">
	<ele>1790.80</ele>
	<time>2025-08-16T09:24:18.000Z</time>
</trkpt>
<trkpt lat="45.9585270" lon="10.1703040">
	<ele>1790.60</ele>
	<time>2025-08-16T09:24:19.000Z</time>
</trkpt>
<trkpt lat="45.9585190" lon="10.1702980">
	<ele>1790.60</ele>
	<time>2025-08-16T09:24:20.000Z</time>
</trkpt>
<trkpt lat="45.9585100" lon="10.1702910">
	<ele>1790.60</ele>
	<time>2025-08-16T09:24:21.000Z</time>
</trkpt>
<trkpt lat="45.9584990" lon="10.1702810">
	<ele>1790.60</ele>
	<time>2025-08-16T09:24:22.000Z</time>
</trkpt>
<trkpt lat="45.9584910" lon="10.1702720">
	<ele>1790.60</ele>
	<time>2025-08-16T09:24:23.000Z</time>
</trkpt>
<trkpt lat="45.9584850" lon="10.1702620">
	<ele>1790.40</ele>
	<time>2025-08-16T09:24:24.000Z</time>
</trkpt>
<trkpt lat="45.9584780" lon="10.1702480">
	<ele>1790.40</ele>
	<time>2025-08-16T09:24:25.000Z</time>
</trkpt>
<trkpt lat="45.9584730" lon="10.1702360">
	<ele>1790.40</ele>
	<time>2025-08-16T09:24:26.000Z</time>
</trkpt>
<trkpt lat="45.9584680" lon="10.1702220">
	<ele>1790.40</ele>
	<time>2025-08-16T09:24:27.000Z</time>
</trkpt>
<trkpt lat="45.9584620" lon="10.1702090">
	<ele>1790.20</ele>
	<time>2025-08-16T09:24:28.000Z</time>
</trkpt>
<trkpt lat="45.9584540" lon="10.1701960">
	<ele>1790.00</ele>
	<time>2025-08-16T09:24:29.000Z</time>
</trkpt>
<trkpt lat="45.9584450" lon="10.1701830">
	<ele>1789.80</ele>
	<time>2025-08-16T09:24:30.000Z</time>
</trkpt>
<trkpt lat="45.9584350" lon="10.1701670">
	<ele>1789.60</ele>
	<time>2025-08-16T09:24:31.000Z</time>
</trkpt>
<trkpt lat="45.9584240" lon="10.1701530">
	<ele>1789.40</ele>
	<time>2025-08-16T09:24:32.000Z</time>
</trkpt>
<trkpt lat="45.9584180" lon="10.1701420">
	<ele>1789.20</ele>
	<time>2025-08-16T09:24:33.000Z</time>
</trkpt>
<trkpt lat="45.9584120" lon="10.1701260">
	<ele>1788.80</ele>
	<time>2025-08-16T09:24:34.000Z</time>
</trkpt>
<trkpt lat="45.9584080" lon="10.1701120">
	<ele>1788.80</ele>
	<time>2025-08-16T09:24:35.000Z</time>
</trkpt>
<trkpt lat="45.9584040" lon="10.1700970">
	<ele>1788.60</ele>
	<time>2025-08-16T09:24:36.000Z</time>
</trkpt>
<trkpt lat="45.9583990" lon="10.1700800">
	<ele>1788.40</ele>
	<time>2025-08-16T09:24:37.000Z</time>
</trkpt>
<trkpt lat="45.9583930" lon="10.1700630">
	<ele>1788.20</ele>
	<time>2025-08-16T09:24:38.000Z</time>
</trkpt>
<trkpt lat="45.9583860" lon="10.1700520">
	<ele>1788.00</ele>
	<time>2025-08-16T09:24:39.000Z</time>
</trkpt>
<trkpt lat="45.9583800" lon="10.1700390">
	<ele>1787.60</ele>
	<time>2025-08-16T09:24:40.000Z</time>
</trkpt>
<trkpt lat="45.9583760" lon="10.1700240">
	<ele>1787.20</ele>
	<time>2025-08-16T09:24:41.000Z</time>
</trkpt>
<trkpt lat="45.9583720" lon="10.1700080">
	<ele>1787.00</ele>
	<time>2025-08-16T09:24:42.000Z</time>
</trkpt>
<trkpt lat="45.9583670" lon="10.1699950">
	<ele>1787.00</ele>
	<time>2025-08-16T09:24:43.000Z</time>
</trkpt>
<trkpt lat="45.9583610" lon="10.1699820">
	<ele>1786.80</ele>
	<time>2025-08-16T09:24:44.000Z</time>
</trkpt>
<trkpt lat="45.9583550" lon="10.1699680">
	<ele>1786.40</ele>
	<time>2025-08-16T09:24:45.000Z</time>
</trkpt>
<trkpt lat="45.9583490" lon="10.1699560">
	<ele>1786.20</ele>
	<time>2025-08-16T09:24:46.000Z</time>
</trkpt>
<trkpt lat="45.9583440" lon="10.1699410">
	<ele>1786.00</ele>
	<time>2025-08-16T09:24:47.000Z</time>
</trkpt>
<trkpt lat="45.9583380" lon="10.1699270">
	<ele>1786.00</ele>
	<time>2025-08-16T09:24:48.000Z</time>
</trkpt>
<trkpt lat="45.9583330" lon="10.1699160">
	<ele>1785.40</ele>
	<time>2025-08-16T09:24:49.000Z</time>
</trkpt>
<trkpt lat="45.9583290" lon="10.1699040">
	<ele>1785.20</ele>
	<time>2025-08-16T09:24:50.000Z</time>
</trkpt>
<trkpt lat="45.9583260" lon="10.1698920">
	<ele>1785.00</ele>
	<time>2025-08-16T09:24:51.000Z</time>
</trkpt>
<trkpt lat="45.9583250" lon="10.1698800">
	<ele>1784.80</ele>
	<time>2025-08-16T09:24:52.000Z</time>
</trkpt>
<trkpt lat="45.9583230" lon="10.1698630">
	<ele>1784.60</ele>
	<time>2025-08-16T09:24:53.000Z</time>
</trkpt>
<trkpt lat="45.9583190" lon="10.1698450">
	<ele>1784.40</ele>
	<time>2025-08-16T09:24:54.000Z</time>
</trkpt>
<trkpt lat="45.9583140" lon="10.1698290">
	<ele>1784.20</ele>
	<time>2025-08-16T09:24:55.000Z</time>
</trkpt>
<trkpt lat="45.9583110" lon="10.1698120">
	<ele>1783.80</ele>
	<time>2025-08-16T09:24:56.000Z</time>
</trkpt>
<trkpt lat="45.9583060" lon="10.1697950">
	<ele>1783.40</ele>
	<time>2025-08-16T09:24:57.000Z</time>
</trkpt>
<trkpt lat="45.9583010" lon="10.1697800">
	<ele>1783.20</ele>
	<time>2025-08-16T09:24:58.000Z</time>
</trkpt>
<trkpt lat="45.9582960" lon="10.1697650">
	<ele>1783.00</ele>
	<time>2025-08-16T09:24:59.000Z</time>
</trkpt>
<trkpt lat="45.9582880" lon="10.1697510">
	<ele>1782.80</ele>
	<time>2025-08-16T09:25:00.000Z</time>
</trkpt>
<trkpt lat="45.9582780" lon="10.1697390">
	<ele>1782.40</ele>
	<time>2025-08-16T09:25:01.000Z</time>
</trkpt>
<trkpt lat="45.9582670" lon="10.1697340">
	<ele>1782.00</ele>
	<time>2025-08-16T09:25:02.000Z</time>
</trkpt>
<trkpt lat="45.9582590" lon="10.1697330">
	<ele>1782.00</ele>
	<time>2025-08-16T09:25:03.000Z</time>
</trkpt>
<trkpt lat="45.9582470" lon="10.1697350">
	<ele>1781.80</ele>
	<time>2025-08-16T09:25:04.000Z</time>
</trkpt>
<trkpt lat="45.9582350" lon="10.1697440">
	<ele>1781.60</ele>
	<time>2025-08-16T09:25:05.000Z</time>
</trkpt>
<trkpt lat="45.9582270" lon="10.1697540">
	<ele>1781.40</ele>
	<time>2025-08-16T09:25:06.000Z</time>
</trkpt>
<trkpt lat="45.9582200" lon="10.1697680">
	<ele>1781.20</ele>
	<time>2025-08-16T09:25:07.000Z</time>
</trkpt>
<trkpt lat="45.9582140" lon="10.1697830">
	<ele>1781.00</ele>
	<time>2025-08-16T09:25:08.000Z</time>
</trkpt>
<trkpt lat="45.9582100" lon="10.1698000">
	<ele>1781.00</ele>
	<time>2025-08-16T09:25:09.000Z</time>
</trkpt>
<trkpt lat="45.9582090" lon="10.1698190">
	<ele>1780.80</ele>
	<time>2025-08-16T09:25:10.000Z</time>
</trkpt>
<trkpt lat="45.9582080" lon="10.1698400">
	<ele>1780.80</ele>
	<time>2025-08-16T09:25:11.000Z</time>
</trkpt>
<trkpt lat="45.9582060" lon="10.1698600">
	<ele>1780.60</ele>
	<time>2025-08-16T09:25:12.000Z</time>
</trkpt>
<trkpt lat="45.9582060" lon="10.1698800">
	<ele>1780.40</ele>
	<time>2025-08-16T09:25:13.000Z</time>
</trkpt>
<trkpt lat="45.9582070" lon="10.1699000">
	<ele>1780.20</ele>
	<time>2025-08-16T09:25:14.000Z</time>
</trkpt>
<trkpt lat="45.9582080" lon="10.1699190">
	<ele>1780.20</ele>
	<time>2025-08-16T09:25:15.000Z</time>
</trkpt>
<trkpt lat="45.9582050" lon="10.1699390">
	<ele>1779.80</ele>
	<time>2025-08-16T09:25:16.000Z</time>
</trkpt>
<trkpt lat="45.9582020" lon="10.1699600">
	<ele>1779.60</ele>
	<time>2025-08-16T09:25:17.000Z</time>
</trkpt>
<trkpt lat="45.9581990" lon="10.1699780">
	<ele>1779.40</ele>
	<time>2025-08-16T09:25:18.000Z</time>
</trkpt>
<trkpt lat="45.9581990" lon="10.1699990">
	<ele>1779.40</ele>
	<time>2025-08-16T09:25:19.000Z</time>
</trkpt>
<trkpt lat="45.9581990" lon="10.1700210">
	<ele>1779.20</ele>
	<time>2025-08-16T09:25:20.000Z</time>
</trkpt>
<trkpt lat="45.9581980" lon="10.1700420">
	<ele>1779.20</ele>
	<time>2025-08-16T09:25:21.000Z</time>
</trkpt>
<trkpt lat="45.9581960" lon="10.1700630">
	<ele>1779.00</ele>
	<time>2025-08-16T09:25:22.000Z</time>
</trkpt>
<trkpt lat="45.9581930" lon="10.1700840">
	<ele>1779.00</ele>
	<time>2025-08-16T09:25:23.000Z</time>
</trkpt>
<trkpt lat="45.9581920" lon="10.1701050">
	<ele>1778.80</ele>
	<time>2025-08-16T09:25:24.000Z</time>
</trkpt>
<trkpt lat="45.9581930" lon="10.1701240">
	<ele>1778.60</ele>
	<time>2025-08-16T09:25:25.000Z</time>
</trkpt>
<trkpt lat="45.9581930" lon="10.1701460">
	<ele>1778.60</ele>
	<time>2025-08-16T09:25:26.000Z</time>
</trkpt>
<trkpt lat="45.9581910" lon="10.1701680">
	<ele>1778.40</ele>
	<time>2025-08-16T09:25:27.000Z</time>
</trkpt>
<trkpt lat="45.9581910" lon="10.1701900">
	<ele>1778.20</ele>
	<time>2025-08-16T09:25:28.000Z</time>
</trkpt>
<trkpt lat="45.9581890" lon="10.1702070">
	<ele>1778.00</ele>
	<time>2025-08-16T09:25:29.000Z</time>
</trkpt>
<trkpt lat="45.9581860" lon="10.1702240">
	<ele>1778.00</ele>
	<time>2025-08-16T09:25:30.000Z</time>
</trkpt>
<trkpt lat="45.9581840" lon="10.1702410">
	<ele>1777.80</ele>
	<time>2025-08-16T09:25:31.000Z</time>
</trkpt>
<trkpt lat="45.9581840" lon="10.1702580">
	<ele>1777.80</ele>
	<time>2025-08-16T09:25:32.000Z</time>
</trkpt>
<trkpt lat="45.9581830" lon="10.1702770">
	<ele>1777.60</ele>
	<time>2025-08-16T09:25:33.000Z</time>
</trkpt>
<trkpt lat="45.9581820" lon="10.1702970">
	<ele>1777.60</ele>
	<time>2025-08-16T09:25:34.000Z</time>
</trkpt>
<trkpt lat="45.9581810" lon="10.1703170">
	<ele>1777.60</ele>
	<time>2025-08-16T09:25:35.000Z</time>
</trkpt>
<trkpt lat="45.9581780" lon="10.1703340">
	<ele>1777.40</ele>
	<time>2025-08-16T09:25:36.000Z</time>
</trkpt>
<trkpt lat="45.9581780" lon="10.1703540">
	<ele>1777.60</ele>
	<time>2025-08-16T09:25:37.000Z</time>
</trkpt>
<trkpt lat="45.9581790" lon="10.1703750">
	<ele>1777.60</ele>
	<time>2025-08-16T09:25:38.000Z</time>
</trkpt>
<trkpt lat="45.9581780" lon="10.1703980">
	<ele>1777.60</ele>
	<time>2025-08-16T09:25:39.000Z</time>
</trkpt>
<trkpt lat="45.9581800" lon="10.1704180">
	<ele>1777.60</ele>
	<time>2025-08-16T09:25:40.000Z</time>
</trkpt>
<trkpt lat="45.9581810" lon="10.1704360">
	<ele>1777.60</ele>
	<time>2025-08-16T09:25:41.000Z</time>
</trkpt>
<trkpt lat="45.9581840" lon="10.1704550">
	<ele>1777.60</ele>
	<time>2025-08-16T09:25:42.000Z</time>
</trkpt>
<trkpt lat="45.9581880" lon="10.1704740">
	<ele>1777.40</ele>
	<time>2025-08-16T09:25:43.000Z</time>
</trkpt>
<trkpt lat="45.9581900" lon="10.1704910">
	<ele>1777.40</ele>
	<time>2025-08-16T09:25:44.000Z</time>
</trkpt>
<trkpt lat="45.9581930" lon="10.1705040">
	<ele>1777.20</ele>
	<time>2025-08-16T09:25:45.000Z</time>
</trkpt>
<trkpt lat="45.9581980" lon="10.1705270">
	<ele>1777.00</ele>
	<time>2025-08-16T09:25:46.000Z</time>
</trkpt>
<trkpt lat="45.9582020" lon="10.1705430">
	<ele>1776.80</ele>
	<time>2025-08-16T09:25:47.000Z</time>
</trkpt>
<trkpt lat="45.9582050" lon="10.1705620">
	<ele>1776.60</ele>
	<time>2025-08-16T09:25:48.000Z</time>
</trkpt>
<trkpt lat="45.9582120" lon="10.1705820">
	<ele>1776.40</ele>
	<time>2025-08-16T09:25:49.000Z</time>
</trkpt>
<trkpt lat="45.9582180" lon="10.1706020">
	<ele>1776.00</ele>
	<time>2025-08-16T09:25:50.000Z</time>
</trkpt>
<trkpt lat="45.9582210" lon="10.1706210">
	<ele>1775.80</ele>
	<time>2025-08-16T09:25:51.000Z</time>
</trkpt>
<trkpt lat="45.9582210" lon="10.1706410">
	<ele>1775.80</ele>
	<time>2025-08-16T09:25:52.000Z</time>
</trkpt>
<trkpt lat="45.9582230" lon="10.1706600">
	<ele>1775.60</ele>
	<time>2025-08-16T09:25:53.000Z</time>
</trkpt>
<trkpt lat="45.9582260" lon="10.1706790">
	<ele>1775.40</ele>
	<time>2025-08-16T09:25:54.000Z</time>
</trkpt>
<trkpt lat="45.9582270" lon="10.1707020">
	<ele>1775.20</ele>
	<time>2025-08-16T09:25:55.000Z</time>
</trkpt>
<trkpt lat="45.9582310" lon="10.1707220">
	<ele>1775.00</ele>
	<time>2025-08-16T09:25:56.000Z</time>
</trkpt>
<trkpt lat="45.9582360" lon="10.1707410">
	<ele>1774.60</ele>
	<time>2025-08-16T09:25:57.000Z</time>
</trkpt>
<trkpt lat="45.9582430" lon="10.1707570">
	<ele>1774.40</ele>
	<time>2025-08-16T09:25:58.000Z</time>
</trkpt>
<trkpt lat="45.9582490" lon="10.1707730">
	<ele>1774.20</ele>
	<time>2025-08-16T09:25:59.000Z</time>
</trkpt>
<trkpt lat="45.9582550" lon="10.1707920">
	<ele>1774.20</ele>
	<time>2025-08-16T09:26:00.000Z</time>
</trkpt>
<trkpt lat="45.9582590" lon="10.1708100">
	<ele>1774.00</ele>
	<time>2025-08-16T09:26:01.000Z</time>
</trkpt>
<trkpt lat="45.9582650" lon="10.1708240">
	<ele>1773.80</ele>
	<time>2025-08-16T09:26:02.000Z</time>
</trkpt>
<trkpt lat="45.9582710" lon="10.1708410">
	<ele>1773.60</ele>
	<time>2025-08-16T09:26:03.000Z</time>
</trkpt>
<trkpt lat="45.9582770" lon="10.1708570">
	<ele>1773.40</ele>
	<time>2025-08-16T09:26:04.000Z</time>
</trkpt>
<trkpt lat="45.9582820" lon="10.1708750">
	<ele>1773.40</ele>
	<time>2025-08-16T09:26:05.000Z</time>
</trkpt>
<trkpt lat="45.9582850" lon="10.1708920">
	<ele>1773.20</ele>
	<time>2025-08-16T09:26:06.000Z</time>
</trkpt>
<trkpt lat="45.9582880" lon="10.1709110">
	<ele>1773.00</ele>
	<time>2025-08-16T09:26:07.000Z</time>
</trkpt>
<trkpt lat="45.9582910" lon="10.1709270">
	<ele>1773.00</ele>
	<time>2025-08-16T09:26:08.000Z</time>
</trkpt>
<trkpt lat="45.9582930" lon="10.1709420">
	<ele>1772.80</ele>
	<time>2025-08-16T09:26:09.000Z</time>
</trkpt>
<trkpt lat="45.9582970" lon="10.1709600">
	<ele>1772.60</ele>
	<time>2025-08-16T09:26:10.000Z</time>
</trkpt>
<trkpt lat="45.9582980" lon="10.1709760">
	<ele>1772.60</ele>
	<time>2025-08-16T09:26:11.000Z</time>
</trkpt>
<trkpt lat="45.9583010" lon="10.1709940">
	<ele>1772.60</ele>
	<time>2025-08-16T09:26:12.000Z</time>
</trkpt>
<trkpt lat="45.9583050" lon="10.1710130">
	<ele>1772.40</ele>
	<time>2025-08-16T09:26:13.000Z</time>
</trkpt>
<trkpt lat="45.9583100" lon="10.1710310">
	<ele>1772.40</ele>
	<time>2025-08-16T09:26:14.000Z</time>
</trkpt>
<trkpt lat="45.9583170" lon="10.1710480">
	<ele>1772.40</ele>
	<time>2025-08-16T09:26:15.000Z</time>
</trkpt>
<trkpt lat="45.9583210" lon="10.1710650">
	<ele>1772.40</ele>
	<time>2025-08-16T09:26:16.000Z</time>
</trkpt>
<trkpt lat="45.9583270" lon="10.1710840">
	<ele>1772.20</ele>
	<time>2025-08-16T09:26:17.000Z</time>
</trkpt>
<trkpt lat="45.9583330" lon="10.1711060">
	<ele>1772.20</ele>
	<time>2025-08-16T09:26:18.000Z</time>
</trkpt>
<trkpt lat="45.9583380" lon="10.1711210">
	<ele>1772.20</ele>
	<time>2025-08-16T09:26:19.000Z</time>
</trkpt>
<trkpt lat="45.9583430" lon="10.1711420">
	<ele>1772.00</ele>
	<time>2025-08-16T09:26:20.000Z</time>
</trkpt>
<trkpt lat="45.9583480" lon="10.1711620">
	<ele>1772.00</ele>
	<time>2025-08-16T09:26:21.000Z</time>
</trkpt>
<trkpt lat="45.9583550" lon="10.1711870">
	<ele>1771.80</ele>
	<time>2025-08-16T09:26:22.000Z</time>
</trkpt>
<trkpt lat="45.9583600" lon="10.1712020">
	<ele>1771.60</ele>
	<time>2025-08-16T09:26:23.000Z</time>
</trkpt>
<trkpt lat="45.9583670" lon="10.1712200">
	<ele>1771.40</ele>
	<time>2025-08-16T09:26:24.000Z</time>
</trkpt>
<trkpt lat="45.9583740" lon="10.1712380">
	<ele>1771.40</ele>
	<time>2025-08-16T09:26:25.000Z</time>
</trkpt>
<trkpt lat="45.9583820" lon="10.1712560">
	<ele>1771.20</ele>
	<time>2025-08-16T09:26:26.000Z</time>
</trkpt>
<trkpt lat="45.9583940" lon="10.1712730">
	<ele>1771.20</ele>
	<time>2025-08-16T09:26:27.000Z</time>
</trkpt>
<trkpt lat="45.9584020" lon="10.1712850">
	<ele>1771.00</ele>
	<time>2025-08-16T09:26:28.000Z</time>
</trkpt>
<trkpt lat="45.9584100" lon="10.1712970">
	<ele>1771.00</ele>
	<time>2025-08-16T09:26:29.000Z</time>
</trkpt>
<trkpt lat="45.9584180" lon="10.1713040">
	<ele>1770.60</ele>
	<time>2025-08-16T09:26:30.000Z</time>
</trkpt>
<trkpt lat="45.9584290" lon="10.1713150">
	<ele>1770.40</ele>
	<time>2025-08-16T09:26:31.000Z</time>
</trkpt>
<trkpt lat="45.9584410" lon="10.1713220">
	<ele>1770.20</ele>
	<time>2025-08-16T09:26:32.000Z</time>
</trkpt>
<trkpt lat="45.9584550" lon="10.1713310">
	<ele>1770.00</ele>
	<time>2025-08-16T09:26:33.000Z</time>
</trkpt>
<trkpt lat="45.9584650" lon="10.1713360">
	<ele>1770.00</ele>
	<time>2025-08-16T09:26:34.000Z</time>
</trkpt>
<trkpt lat="45.9584760" lon="10.1713400">
	<ele>1769.80</ele>
	<time>2025-08-16T09:26:35.000Z</time>
</trkpt>
<trkpt lat="45.9584850" lon="10.1713420">
	<ele>1769.60</ele>
	<time>2025-08-16T09:26:36.000Z</time>
</trkpt>
<trkpt lat="45.9584990" lon="10.1713440">
	<ele>1769.40</ele>
	<time>2025-08-16T09:26:37.000Z</time>
</trkpt>
<trkpt lat="45.9585170" lon="10.1713430">
	<ele>1769.20</ele>
	<time>2025-08-16T09:26:38.000Z</time>
</trkpt>
<trkpt lat="45.9585280" lon="10.1713430">
	<ele>1769.00</ele>
	<time>2025-08-16T09:26:39.000Z</time>
</trkpt>
<trkpt lat="45.9585400" lon="10.1713410">
	<ele>1768.80</ele>
	<time>2025-08-16T09:26:40.000Z</time>
</trkpt>
<trkpt lat="45.9585490" lon="10.1713400">
	<ele>1768.60</ele>
	<time>2025-08-16T09:26:41.000Z</time>
</trkpt>
<trkpt lat="45.9585580" lon="10.1713420">
	<ele>1768.60</ele>
	<time>2025-08-16T09:26:42.000Z</time>
</trkpt>
<trkpt lat="45.9585640" lon="10.1713470">
	<ele>1768.40</ele>
	<time>2025-08-16T09:26:43.000Z</time>
</trkpt>
<trkpt lat="45.9585670" lon="10.1713490">
	<ele>1768.20</ele>
	<time>2025-08-16T09:26:44.000Z</time>
</trkpt>
<trkpt lat="45.9585690" lon="10.1713530">
	<ele>1768.00</ele>
	<time>2025-08-16T09:26:45.000Z</time>
</trkpt>
<trkpt lat="45.9585690" lon="10.1713540">
	<ele>1768.00</ele>
	<time>2025-08-16T09:26:46.000Z</time>
</trkpt>
<trkpt lat="45.9585690" lon="10.1713550">
	<ele>1768.00</ele>
	<time>2025-08-16T09:26:47.000Z</time>
</trkpt>
<trkpt lat="45.9585690" lon="10.1713560">
	<ele>1768.00</ele>
	<time>2025-08-16T09:26:48.000Z</time>
</trkpt>
<trkpt lat="45.9585690" lon="10.1713590">
	<ele>1768.00</ele>
	<time>2025-08-16T09:26:49.000Z</time>
</trkpt>
<trkpt lat="45.9585690" lon="10.1713590">
	<ele>1768.00</ele>
	<time>2025-08-16T09:26:50.000Z</time>
</trkpt>
<trkpt lat="45.9585680" lon="10.1713590">
	<ele>1768.20</ele>
	<time>2025-08-16T09:26:51.000Z</time>
</trkpt>
<trkpt lat="45.9585670" lon="10.1713570">
	<ele>1768.20</ele>
	<time>2025-08-16T09:26:52.000Z</time>
</trkpt>
<trkpt lat="45.9585670" lon="10.1713570">
	<ele>1768.20</ele>
	<time>2025-08-16T09:26:53.000Z</time>
</trkpt>
<trkpt lat="45.9585680" lon="10.1713570">
	<ele>1768.00</ele>
	<time>2025-08-16T09:26:54.000Z</time>
</trkpt>
<trkpt lat="45.9585710" lon="10.1713580">
	<ele>1768.00</ele>
	<time>2025-08-16T09:26:55.000Z</time>
</trkpt>
<trkpt lat="45.9585780" lon="10.1713570">
	<ele>1767.80</ele>
	<time>2025-08-16T09:26:56.000Z</time>
</trkpt>
<trkpt lat="45.9585870" lon="10.1713570">
	<ele>1767.80</ele>
	<time>2025-08-16T09:26:57.000Z</time>
</trkpt>
<trkpt lat="45.9585980" lon="10.1713570">
	<ele>1767.80</ele>
	<time>2025-08-16T09:26:58.000Z</time>
</trkpt>
<trkpt lat="45.9586100" lon="10.1713630">
	<ele>1767.60</ele>
	<time>2025-08-16T09:26:59.000Z</time>
</trkpt>
<trkpt lat="45.9586220" lon="10.1713720">
	<ele>1767.60</ele>
	<time>2025-08-16T09:27:00.000Z</time>
</trkpt>
<trkpt lat="45.9586360" lon="10.1713800">
	<ele>1767.40</ele>
	<time>2025-08-16T09:27:01.000Z</time>
</trkpt>
<trkpt lat="45.9586490" lon="10.1713890">
	<ele>1767.40</ele>
	<time>2025-08-16T09:27:02.000Z</time>
</trkpt>
<trkpt lat="45.9586600" lon="10.1713970">
	<ele>1767.40</ele>
	<time>2025-08-16T09:27:03.000Z</time>
</trkpt>
<trkpt lat="45.9586700" lon="10.1713990">
	<ele>1767.40</ele>
	<time>2025-08-16T09:27:04.000Z</time>
</trkpt>
<trkpt lat="45.9586780" lon="10.1714010">
	<ele>1767.20</ele>
	<time>2025-08-16T09:27:05.000Z</time>
</trkpt>
<trkpt lat="45.9586880" lon="10.1714080">
	<ele>1767.00</ele>
	<time>2025-08-16T09:27:06.000Z</time>
</trkpt>
<trkpt lat="45.9586960" lon="10.1714130">
	<ele>1766.60</ele>
	<time>2025-08-16T09:27:07.000Z</time>
</trkpt>
<trkpt lat="45.9587080" lon="10.1714200">
	<ele>1766.40</ele>
	<time>2025-08-16T09:27:08.000Z</time>
</trkpt>
<trkpt lat="45.9587180" lon="10.1714300">
	<ele>1766.40</ele>
	<time>2025-08-16T09:27:09.000Z</time>
</trkpt>
<trkpt lat="45.9587310" lon="10.1714420">
	<ele>1766.20</ele>
	<time>2025-08-16T09:27:10.000Z</time>
</trkpt>
<trkpt lat="45.9587400" lon="10.1714500">
	<ele>1766.00</ele>
	<time>2025-08-16T09:27:11.000Z</time>
</trkpt>
<trkpt lat="45.9587550" lon="10.1714590">
	<ele>1765.80</ele>
	<time>2025-08-16T09:27:12.000Z</time>
</trkpt>
<trkpt lat="45.9587690" lon="10.1714680">
	<ele>1765.60</ele>
	<time>2025-08-16T09:27:13.000Z</time>
</trkpt>
<trkpt lat="45.9587800" lon="10.1714790">
	<ele>1765.40</ele>
	<time>2025-08-16T09:27:14.000Z</time>
</trkpt>
<trkpt lat="45.9587940" lon="10.1714850">
	<ele>1765.00</ele>
	<time>2025-08-16T09:27:15.000Z</time>
</trkpt>
<trkpt lat="45.9588090" lon="10.1714870">
	<ele>1764.80</ele>
	<time>2025-08-16T09:27:16.000Z</time>
</trkpt>
<trkpt lat="45.9588260" lon="10.1714930">
	<ele>1764.80</ele>
	<time>2025-08-16T09:27:17.000Z</time>
</trkpt>
<trkpt lat="45.9588400" lon="10.1714990">
	<ele>1764.40</ele>
	<time>2025-08-16T09:27:18.000Z</time>
</trkpt>
<trkpt lat="45.9588520" lon="10.1715090">
	<ele>1764.20</ele>
	<time>2025-08-16T09:27:19.000Z</time>
</trkpt>
<trkpt lat="45.9588650" lon="10.1715210">
	<ele>1764.20</ele>
	<time>2025-08-16T09:27:20.000Z</time>
</trkpt>
<trkpt lat="45.9588780" lon="10.1715330">
	<ele>1764.00</ele>
	<time>2025-08-16T09:27:21.000Z</time>
</trkpt>
<trkpt lat="45.9588900" lon="10.1715430">
	<ele>1763.80</ele>
	<time>2025-08-16T09:27:22.000Z</time>
</trkpt>
<trkpt lat="45.9589010" lon="10.1715510">
	<ele>1763.60</ele>
	<time>2025-08-16T09:27:23.000Z</time>
</trkpt>
<trkpt lat="45.9589200" lon="10.1715600">
	<ele>1763.40</ele>
	<time>2025-08-16T09:27:24.000Z</time>
</trkpt>
<trkpt lat="45.9589340" lon="10.1715620">
	<ele>1763.20</ele>
	<time>2025-08-16T09:27:25.000Z</time>
</trkpt>
<trkpt lat="45.9589460" lon="10.1715630">
	<ele>1763.20</ele>
	<time>2025-08-16T09:27:26.000Z</time>
</trkpt>
<trkpt lat="45.9589620" lon="10.1715700">
	<ele>1763.00</ele>
	<time>2025-08-16T09:27:27.000Z</time>
</trkpt>
<trkpt lat="45.9589780" lon="10.1715730">
	<ele>1763.00</ele>
	<time>2025-08-16T09:27:28.000Z</time>
</trkpt>
<trkpt lat="45.9589900" lon="10.1715740">
	<ele>1762.80</ele>
	<time>2025-08-16T09:27:29.000Z</time>
</trkpt>
<trkpt lat="45.9590060" lon="10.1715750">
	<ele>1762.60</ele>
	<time>2025-08-16T09:27:30.000Z</time>
</trkpt>
<trkpt lat="45.9590220" lon="10.1715750">
	<ele>1762.40</ele>
	<time>2025-08-16T09:27:31.000Z</time>
</trkpt>
<trkpt lat="45.9590370" lon="10.1715730">
	<ele>1762.40</ele>
	<time>2025-08-16T09:27:32.000Z</time>
</trkpt>
<trkpt lat="45.9590510" lon="10.1715710">
	<ele>1762.20</ele>
	<time>2025-08-16T09:27:33.000Z</time>
</trkpt>
<trkpt lat="45.9590660" lon="10.1715730">
	<ele>1762.00</ele>
	<time>2025-08-16T09:27:34.000Z</time>
</trkpt>
<trkpt lat="45.9590810" lon="10.1715750">
	<ele>1761.80</ele>
	<time>2025-08-16T09:27:35.000Z</time>
</trkpt>
<trkpt lat="45.9590950" lon="10.1715750">
	<ele>1761.60</ele>
	<time>2025-08-16T09:27:36.000Z</time>
</trkpt>
<trkpt lat="45.9591100" lon="10.1715740">
	<ele>1761.60</ele>
	<time>2025-08-16T09:27:37.000Z</time>
</trkpt>
<trkpt lat="45.9591250" lon="10.1715730">
	<ele>1761.60</ele>
	<time>2025-08-16T09:27:38.000Z</time>
</trkpt>
<trkpt lat="45.9591390" lon="10.1715730">
	<ele>1761.40</ele>
	<time>2025-08-16T09:27:39.000Z</time>
</trkpt>
<trkpt lat="45.9591540" lon="10.1715730">
	<ele>1761.40</ele>
	<time>2025-08-16T09:27:40.000Z</time>
</trkpt>
<trkpt lat="45.9591690" lon="10.1715720">
	<ele>1761.20</ele>
	<time>2025-08-16T09:27:41.000Z</time>
</trkpt>
<trkpt lat="45.9591830" lon="10.1715720">
	<ele>1761.00</ele>
	<time>2025-08-16T09:27:42.000Z</time>
</trkpt>
<trkpt lat="45.9591960" lon="10.1715740">
	<ele>1760.80</ele>
	<time>2025-08-16T09:27:43.000Z</time>
</trkpt>
<trkpt lat="45.9592120" lon="10.1715740">
	<ele>1760.40</ele>
	<time>2025-08-16T09:27:44.000Z</time>
</trkpt>
<trkpt lat="45.9592270" lon="10.1715770">
	<ele>1760.20</ele>
	<time>2025-08-16T09:27:45.000Z</time>
</trkpt>
<trkpt lat="45.9592420" lon="10.1715780">
	<ele>1760.00</ele>
	<time>2025-08-16T09:27:46.000Z</time>
</trkpt>
<trkpt lat="45.9592550" lon="10.1715770">
	<ele>1759.80</ele>
	<time>2025-08-16T09:27:47.000Z</time>
</trkpt>
<trkpt lat="45.9592700" lon="10.1715760">
	<ele>1759.80</ele>
	<time>2025-08-16T09:27:48.000Z</time>
</trkpt>
<trkpt lat="45.9592840" lon="10.1715770">
	<ele>1759.60</ele>
	<time>2025-08-16T09:27:49.000Z</time>
</trkpt>
<trkpt lat="45.9592940" lon="10.1715770">
	<ele>1759.40</ele>
	<time>2025-08-16T09:27:50.000Z</time>
</trkpt>
<trkpt lat="45.9593080" lon="10.1715730">
	<ele>1759.20</ele>
	<time>2025-08-16T09:27:51.000Z</time>
</trkpt>
<trkpt lat="45.9593230" lon="10.1715680">
	<ele>1759.20</ele>
	<time>2025-08-16T09:27:52.000Z</time>
</trkpt>
<trkpt lat="45.9593350" lon="10.1715620">
	<ele>1759.00</ele>
	<time>2025-08-16T09:27:53.000Z</time>
</trkpt>
<trkpt lat="45.9593470" lon="10.1715570">
	<ele>1758.80</ele>
	<time>2025-08-16T09:27:54.000Z</time>
</trkpt>
<trkpt lat="45.9593590" lon="10.1715530">
	<ele>1758.60</ele>
	<time>2025-08-16T09:27:55.000Z</time>
</trkpt>
<trkpt lat="45.9593720" lon="10.1715480">
	<ele>1758.40</ele>
	<time>2025-08-16T09:27:56.000Z</time>
</trkpt>
<trkpt lat="45.9593850" lon="10.1715460">
	<ele>1758.40</ele>
	<time>2025-08-16T09:27:57.000Z</time>
</trkpt>
<trkpt lat="45.9593950" lon="10.1715400">
	<ele>1758.20</ele>
	<time>2025-08-16T09:27:58.000Z</time>
</trkpt>
<trkpt lat="45.9594050" lon="10.1715340">
	<ele>1758.00</ele>
	<time>2025-08-16T09:27:59.000Z</time>
</trkpt>
<trkpt lat="45.9594160" lon="10.1715310">
	<ele>1757.60</ele>
	<time>2025-08-16T09:28:00.000Z</time>
</trkpt>
<trkpt lat="45.9594290" lon="10.1715300">
	<ele>1757.60</ele>
	<time>2025-08-16T09:28:01.000Z</time>
</trkpt>
<trkpt lat="45.9594410" lon="10.1715290">
	<ele>1757.40</ele>
	<time>2025-08-16T09:28:02.000Z</time>
</trkpt>
<trkpt lat="45.9594540" lon="10.1715290">
	<ele>1757.20</ele>
	<time>2025-08-16T09:28:03.000Z</time>
</trkpt>
<trkpt lat="45.9594650" lon="10.1715270">
	<ele>1757.00</ele>
	<time>2025-08-16T09:28:04.000Z</time>
</trkpt>
<trkpt lat="45.9594780" lon="10.1715260">
	<ele>1756.60</ele>
	<time>2025-08-16T09:28:05.000Z</time>
</trkpt>
<trkpt lat="45.9594920" lon="10.1715240">
	<ele>1756.40</ele>
	<time>2025-08-16T09:28:06.000Z</time>
</trkpt>
<trkpt lat="45.9595060" lon="10.1715220">
	<ele>1756.00</ele>
	<time>2025-08-16T09:28:07.000Z</time>
</trkpt>
<trkpt lat="45.9595180" lon="10.1715200">
	<ele>1755.60</ele>
	<time>2025-08-16T09:28:08.000Z</time>
</trkpt>
<trkpt lat="45.9595300" lon="10.1715190">
	<ele>1755.40</ele>
	<time>2025-08-16T09:28:09.000Z</time>
</trkpt>
<trkpt lat="45.9595430" lon="10.1715190">
	<ele>1755.20</ele>
	<time>2025-08-16T09:28:10.000Z</time>
</trkpt>
<trkpt lat="45.9595550" lon="10.1715210">
	<ele>1755.00</ele>
	<time>2025-08-16T09:28:11.000Z</time>
</trkpt>
<trkpt lat="45.9595670" lon="10.1715220">
	<ele>1755.00</ele>
	<time>2025-08-16T09:28:12.000Z</time>
</trkpt>
<trkpt lat="45.9595800" lon="10.1715220">
	<ele>1754.60</ele>
	<time>2025-08-16T09:28:13.000Z</time>
</trkpt>
<trkpt lat="45.9595930" lon="10.1715220">
	<ele>1754.40</ele>
	<time>2025-08-16T09:28:14.000Z</time>
</trkpt>
<trkpt lat="45.9596080" lon="10.1715230">
	<ele>1754.20</ele>
	<time>2025-08-16T09:28:15.000Z</time>
</trkpt>
<trkpt lat="45.9596230" lon="10.1715220">
	<ele>1754.00</ele>
	<time>2025-08-16T09:28:16.000Z</time>
</trkpt>
<trkpt lat="45.9596370" lon="10.1715230">
	<ele>1754.00</ele>
	<time>2025-08-16T09:28:17.000Z</time>
</trkpt>
<trkpt lat="45.9596500" lon="10.1715250">
	<ele>1753.80</ele>
	<time>2025-08-16T09:28:18.000Z</time>
</trkpt>
<trkpt lat="45.9596640" lon="10.1715230">
	<ele>1753.40</ele>
	<time>2025-08-16T09:28:19.000Z</time>
</trkpt>
<trkpt lat="45.9596810" lon="10.1715190">
	<ele>1753.20</ele>
	<time>2025-08-16T09:28:20.000Z</time>
</trkpt>
<trkpt lat="45.9596960" lon="10.1715160">
	<ele>1753.00</ele>
	<time>2025-08-16T09:28:21.000Z</time>
</trkpt>
<trkpt lat="45.9597080" lon="10.1715200">
	<ele>1752.60</ele>
	<time>2025-08-16T09:28:22.000Z</time>
</trkpt>
<trkpt lat="45.9597230" lon="10.1715180">
	<ele>1752.20</ele>
	<time>2025-08-16T09:28:23.000Z</time>
</trkpt>
<trkpt lat="45.9597350" lon="10.1715170">
	<ele>1752.00</ele>
	<time>2025-08-16T09:28:24.000Z</time>
</trkpt>
<trkpt lat="45.9597480" lon="10.1715160">
	<ele>1751.80</ele>
	<time>2025-08-16T09:28:25.000Z</time>
</trkpt>
<trkpt lat="45.9597630" lon="10.1715160">
	<ele>1751.60</ele>
	<time>2025-08-16T09:28:26.000Z</time>
</trkpt>
<trkpt lat="45.9597790" lon="10.1715160">
	<ele>1751.60</ele>
	<time>2025-08-16T09:28:27.000Z</time>
</trkpt>
<trkpt lat="45.9597890" lon="10.1715180">
	<ele>1751.20</ele>
	<time>2025-08-16T09:28:28.000Z</time>
</trkpt>
<trkpt lat="45.9598020" lon="10.1715220">
	<ele>1751.20</ele>
	<time>2025-08-16T09:28:29.000Z</time>
</trkpt>
<trkpt lat="45.9598100" lon="10.1715350">
	<ele>1751.00</ele>
	<time>2025-08-16T09:28:30.000Z</time>
</trkpt>
<trkpt lat="45.9598270" lon="10.1715390">
	<ele>1750.80</ele>
	<time>2025-08-16T09:28:31.000Z</time>
</trkpt>
<trkpt lat="45.9598410" lon="10.1715410">
	<ele>1750.40</ele>
	<time>2025-08-16T09:28:32.000Z</time>
</trkpt>
<trkpt lat="45.9598550" lon="10.1715440">
	<ele>1750.20</ele>
	<time>2025-08-16T09:28:33.000Z</time>
</trkpt>
<trkpt lat="45.9598680" lon="10.1715480">
	<ele>1750.00</ele>
	<time>2025-08-16T09:28:34.000Z</time>
</trkpt>
<trkpt lat="45.9598820" lon="10.1715490">
	<ele>1750.00</ele>
	<time>2025-08-16T09:28:35.000Z</time>
</trkpt>
<trkpt lat="45.9598890" lon="10.1715450">
	<ele>1749.60</ele>
	<time>2025-08-16T09:28:36.000Z</time>
</trkpt>
<trkpt lat="45.9599000" lon="10.1715500">
	<ele>1749.40</ele>
	<time>2025-08-16T09:28:37.000Z</time>
</trkpt>
<trkpt lat="45.9599100" lon="10.1715560">
	<ele>1749.00</ele>
	<time>2025-08-16T09:28:38.000Z</time>
</trkpt>
<trkpt lat="45.9599230" lon="10.1715630">
	<ele>1748.80</ele>
	<time>2025-08-16T09:28:39.000Z</time>
</trkpt>
<trkpt lat="45.9599370" lon="10.1715710">
	<ele>1748.40</ele>
	<time>2025-08-16T09:28:40.000Z</time>
</trkpt>
<trkpt lat="45.9599470" lon="10.1715750">
	<ele>1748.20</ele>
	<time>2025-08-16T09:28:41.000Z</time>
</trkpt>
<trkpt lat="45.9599580" lon="10.1715800">
	<ele>1748.00</ele>
	<time>2025-08-16T09:28:42.000Z</time>
</trkpt>
<trkpt lat="45.9599690" lon="10.1715840">
	<ele>1747.80</ele>
	<time>2025-08-16T09:28:43.000Z</time>
</trkpt>
<trkpt lat="45.9599790" lon="10.1715900">
	<ele>1747.60</ele>
	<time>2025-08-16T09:28:44.000Z</time>
</trkpt>
<trkpt lat="45.9599870" lon="10.1715940">
	<ele>1747.40</ele>
	<time>2025-08-16T09:28:45.000Z</time>
</trkpt>
<trkpt lat="45.9599970" lon="10.1716010">
	<ele>1747.20</ele>
	<time>2025-08-16T09:28:46.000Z</time>
</trkpt>
<trkpt lat="45.9600100" lon="10.1716060">
	<ele>1746.80</ele>
	<time>2025-08-16T09:28:47.000Z</time>
</trkpt>
<trkpt lat="45.9600250" lon="10.1716080">
	<ele>1746.40</ele>
	<time>2025-08-16T09:28:48.000Z</time>
</trkpt>
<trkpt lat="45.9600390" lon="10.1716120">
	<ele>1746.20</ele>
	<time>2025-08-16T09:28:49.000Z</time>
</trkpt>
<trkpt lat="45.9600520" lon="10.1716130">
	<ele>1746.00</ele>
	<time>2025-08-16T09:28:50.000Z</time>
</trkpt>
<trkpt lat="45.9600660" lon="10.1716120">
	<ele>1745.80</ele>
	<time>2025-08-16T09:28:51.000Z</time>
</trkpt>
<trkpt lat="45.9600810" lon="10.1716150">
	<ele>1745.60</ele>
	<time>2025-08-16T09:28:52.000Z</time>
</trkpt>
<trkpt lat="45.9600950" lon="10.1716150">
	<ele>1745.20</ele>
	<time>2025-08-16T09:28:53.000Z</time>
</trkpt>
<trkpt lat="45.9601090" lon="10.1716140">
	<ele>1745.00</ele>
	<time>2025-08-16T09:28:54.000Z</time>
</trkpt>
<trkpt lat="45.9601190" lon="10.1716130">
	<ele>1745.00</ele>
	<time>2025-08-16T09:28:55.000Z</time>
</trkpt>
<trkpt lat="45.9601350" lon="10.1716110">
	<ele>1744.60</ele>
	<time>2025-08-16T09:28:56.000Z</time>
</trkpt>
<trkpt lat="45.9601470" lon="10.1716090">
	<ele>1744.20</ele>
	<time>2025-08-16T09:28:57.000Z</time>
</trkpt>
<trkpt lat="45.9601590" lon="10.1716070">
	<ele>1744.00</ele>
	<time>2025-08-16T09:28:58.000Z</time>
</trkpt>
<trkpt lat="45.9601720" lon="10.1716070">
	<ele>1743.80</ele>
	<time>2025-08-16T09:28:59.000Z</time>
</trkpt>
<trkpt lat="45.9601860" lon="10.1716060">
	<ele>1743.40</ele>
	<time>2025-08-16T09:29:00.000Z</time>
</trkpt>
<trkpt lat="45.9601990" lon="10.1716050">
	<ele>1743.20</ele>
	<time>2025-08-16T09:29:01.000Z</time>
</trkpt>
<trkpt lat="45.9602120" lon="10.1716060">
	<ele>1743.20</ele>
	<time>2025-08-16T09:29:02.000Z</time>
</trkpt>
<trkpt lat="45.9602230" lon="10.1716050">
	<ele>1743.00</ele>
	<time>2025-08-16T09:29:03.000Z</time>
</trkpt>
<trkpt lat="45.9602350" lon="10.1716050">
	<ele>1742.80</ele>
	<time>2025-08-16T09:29:04.000Z</time>
</trkpt>
<trkpt lat="45.9602470" lon="10.1716040">
	<ele>1742.60</ele>
	<time>2025-08-16T09:29:05.000Z</time>
</trkpt>
<trkpt lat="45.9602590" lon="10.1716050">
	<ele>1742.40</ele>
	<time>2025-08-16T09:29:06.000Z</time>
</trkpt>
<trkpt lat="45.9602700" lon="10.1716020">
	<ele>1742.00</ele>
	<time>2025-08-16T09:29:07.000Z</time>
</trkpt>
<trkpt lat="45.9602820" lon="10.1716020">
	<ele>1741.80</ele>
	<time>2025-08-16T09:29:08.000Z</time>
</trkpt>
<trkpt lat="45.9602940" lon="10.1716050">
	<ele>1741.60</ele>
	<time>2025-08-16T09:29:09.000Z</time>
</trkpt>
<trkpt lat="45.9603090" lon="10.1716090">
	<ele>1741.40</ele>
	<time>2025-08-16T09:29:10.000Z</time>
</trkpt>
<trkpt lat="45.9603250" lon="10.1716140">
	<ele>1741.20</ele>
	<time>2025-08-16T09:29:11.000Z</time>
</trkpt>
<trkpt lat="45.9603400" lon="10.1716180">
	<ele>1741.00</ele>
	<time>2025-08-16T09:29:12.000Z</time>
</trkpt>
<trkpt lat="45.9603560" lon="10.1716190">
	<ele>1740.80</ele>
	<time>2025-08-16T09:29:13.000Z</time>
</trkpt>
<trkpt lat="45.9603710" lon="10.1716170">
	<ele>1740.60</ele>
	<time>2025-08-16T09:29:14.000Z</time>
</trkpt>
<trkpt lat="45.9603850" lon="10.1716140">
	<ele>1740.40</ele>
	<time>2025-08-16T09:29:15.000Z</time>
</trkpt>
<trkpt lat="45.9603980" lon="10.1716110">
	<ele>1740.00</ele>
	<time>2025-08-16T09:29:16.000Z</time>
</trkpt>
<trkpt lat="45.9604170" lon="10.1716050">
	<ele>1739.80</ele>
	<time>2025-08-16T09:29:17.000Z</time>
</trkpt>
<trkpt lat="45.9604290" lon="10.1716020">
	<ele>1739.60</ele>
	<time>2025-08-16T09:29:18.000Z</time>
</trkpt>
<trkpt lat="45.9604430" lon="10.1715990">
	<ele>1739.40</ele>
	<time>2025-08-16T09:29:19.000Z</time>
</trkpt>
<trkpt lat="45.9604570" lon="10.1715980">
	<ele>1739.20</ele>
	<time>2025-08-16T09:29:20.000Z</time>
</trkpt>
<trkpt lat="45.9604720" lon="10.1715980">
	<ele>1739.00</ele>
	<time>2025-08-16T09:29:21.000Z</time>
</trkpt>
<trkpt lat="45.9604870" lon="10.1715980">
	<ele>1738.80</ele>
	<time>2025-08-16T09:29:22.000Z</time>
</trkpt>
<trkpt lat="45.9605030" lon="10.1715970">
	<ele>1738.60</ele>
	<time>2025-08-16T09:29:23.000Z</time>
</trkpt>
<trkpt lat="45.9605210" lon="10.1715980">
	<ele>1738.60</ele>
	<time>2025-08-16T09:29:24.000Z</time>
</trkpt>
<trkpt lat="45.9605370" lon="10.1715970">
	<ele>1738.40</ele>
	<time>2025-08-16T09:29:25.000Z</time>
</trkpt>
<trkpt lat="45.9605530" lon="10.1715960">
	<ele>1738.20</ele>
	<time>2025-08-16T09:29:26.000Z</time>
</trkpt>
<trkpt lat="45.9605700" lon="10.1715930">
	<ele>1738.20</ele>
	<time>2025-08-16T09:29:27.000Z</time>
</trkpt>
<trkpt lat="45.9605880" lon="10.1715880">
	<ele>1738.20</ele>
	<time>2025-08-16T09:29:28.000Z</time>
</trkpt>
<trkpt lat="45.9606050" lon="10.1715780">
	<ele>1738.20</ele>
	<time>2025-08-16T09:29:29.000Z</time>
</trkpt>
<trkpt lat="45.9606210" lon="10.1715680">
	<ele>1738.00</ele>
	<time>2025-08-16T09:29:30.000Z</time>
</trkpt>
<trkpt lat="45.9606340" lon="10.1715560">
	<ele>1737.80</ele>
	<time>2025-08-16T09:29:31.000Z</time>
</trkpt>
<trkpt lat="45.9606470" lon="10.1715480">
	<ele>1737.80</ele>
	<time>2025-08-16T09:29:32.000Z</time>
</trkpt>
<trkpt lat="45.9606590" lon="10.1715370">
	<ele>1737.80</ele>
	<time>2025-08-16T09:29:33.000Z</time>
</trkpt>
<trkpt lat="45.9606740" lon="10.1715270">
	<ele>1737.60</ele>
	<time>2025-08-16T09:29:34.000Z</time>
</trkpt>
<trkpt lat="45.9606860" lon="10.1715240">
	<ele>1737.60</ele>
	<time>2025-08-16T09:29:35.000Z</time>
</trkpt>
<trkpt lat="45.9607010" lon="10.1715210">
	<ele>1737.40</ele>
	<time>2025-08-16T09:29:36.000Z</time>
</trkpt>
<trkpt lat="45.9607120" lon="10.1715120">
	<ele>1737.20</ele>
	<time>2025-08-16T09:29:37.000Z</time>
</trkpt>
<trkpt lat="45.9607240" lon="10.1715040">
	<ele>1737.00</ele>
	<time>2025-08-16T09:29:38.000Z</time>
</trkpt>
<trkpt lat="45.9607390" lon="10.1714980">
	<ele>1736.80</ele>
	<time>2025-08-16T09:29:39.000Z</time>
</trkpt>
<trkpt lat="45.9607530" lon="10.1714950">
	<ele>1736.80</ele>
	<time>2025-08-16T09:29:40.000Z</time>
</trkpt>
<trkpt lat="45.9607640" lon="10.1714960">
	<ele>1736.80</ele>
	<time>2025-08-16T09:29:41.000Z</time>
</trkpt>
<trkpt lat="45.9607760" lon="10.1714990">
	<ele>1736.60</ele>
	<time>2025-08-16T09:29:42.000Z</time>
</trkpt>
<trkpt lat="45.9607870" lon="10.1715070">
	<ele>1736.60</ele>
	<time>2025-08-16T09:29:43.000Z</time>
</trkpt>
<trkpt lat="45.9607960" lon="10.1715170">
	<ele>1736.60</ele>
	<time>2025-08-16T09:29:44.000Z</time>
</trkpt>
<trkpt lat="45.9608040" lon="10.1715240">
	<ele>1736.60</ele>
	<time>2025-08-16T09:29:45.000Z</time>
</trkpt>
<trkpt lat="45.9608100" lon="10.1715320">
	<ele>1736.80</ele>
	<time>2025-08-16T09:29:46.000Z</time>
</trkpt>
<trkpt lat="45.9608180" lon="10.1715470">
	<ele>1736.80</ele>
	<time>2025-08-16T09:29:47.000Z</time>
</trkpt>
<trkpt lat="45.9608230" lon="10.1715610">
	<ele>1736.80</ele>
	<time>2025-08-16T09:29:48.000Z</time>
</trkpt>
<trkpt lat="45.9608280" lon="10.1715800">
	<ele>1736.60</ele>
	<time>2025-08-16T09:29:49.000Z</time>
</trkpt>
<trkpt lat="45.9608320" lon="10.1716040">
	<ele>1736.60</ele>
	<time>2025-08-16T09:29:50.000Z</time>
</trkpt>
<trkpt lat="45.9608340" lon="10.1716240">
	<ele>1736.40</ele>
	<time>2025-08-16T09:29:51.000Z</time>
</trkpt>
<trkpt lat="45.9608400" lon="10.1716380">
	<ele>1736.40</ele>
	<time>2025-08-16T09:29:52.000Z</time>
</trkpt>
<trkpt lat="45.9608430" lon="10.1716600">
	<ele>1736.20</ele>
	<time>2025-08-16T09:29:53.000Z</time>
</trkpt>
<trkpt lat="45.9608460" lon="10.1716780">
	<ele>1736.20</ele>
	<time>2025-08-16T09:29:54.000Z</time>
</trkpt>
<trkpt lat="45.9608490" lon="10.1716980">
	<ele>1736.00</ele>
	<time>2025-08-16T09:29:55.000Z</time>
</trkpt>
<trkpt lat="45.9608530" lon="10.1717140">
	<ele>1736.00</ele>
	<time>2025-08-16T09:29:56.000Z</time>
</trkpt>
<trkpt lat="45.9608570" lon="10.1717290">
	<ele>1735.80</ele>
	<time>2025-08-16T09:29:57.000Z</time>
</trkpt>
<trkpt lat="45.9608650" lon="10.1717420">
	<ele>1735.80</ele>
	<time>2025-08-16T09:29:58.000Z</time>
</trkpt>
<trkpt lat="45.9608700" lon="10.1717550">
	<ele>1735.40</ele>
	<time>2025-08-16T09:29:59.000Z</time>
</trkpt>
<trkpt lat="45.9608740" lon="10.1717750">
	<ele>1735.20</ele>
	<time>2025-08-16T09:30:00.000Z</time>
</trkpt>
<trkpt lat="45.9608770" lon="10.1717930">
	<ele>1735.20</ele>
	<time>2025-08-16T09:30:01.000Z</time>
</trkpt>
<trkpt lat="45.9608820" lon="10.1718100">
	<ele>1735.00</ele>
	<time>2025-08-16T09:30:02.000Z</time>
</trkpt>
<trkpt lat="45.9608860" lon="10.1718320">
	<ele>1735.00</ele>
	<time>2025-08-16T09:30:03.000Z</time>
</trkpt>
<trkpt lat="45.9608920" lon="10.1718530">
	<ele>1735.00</ele>
	<time>2025-08-16T09:30:04.000Z</time>
</trkpt>
<trkpt lat="45.9609000" lon="10.1718700">
	<ele>1735.00</ele>
	<time>2025-08-16T09:30:05.000Z</time>
</trkpt>
<trkpt lat="45.9609070" lon="10.1718850">
	<ele>1734.80</ele>
	<time>2025-08-16T09:30:06.000Z</time>
</trkpt>
<trkpt lat="45.9609110" lon="10.1718960">
	<ele>1734.60</ele>
	<time>2025-08-16T09:30:07.000Z</time>
</trkpt>
<trkpt lat="45.9609120" lon="10.1718990">
	<ele>1734.60</ele>
	<time>2025-08-16T09:30:08.000Z</time>
</trkpt>
<trkpt lat="45.9609120" lon="10.1719000">
	<ele>1734.40</ele>
	<time>2025-08-16T09:30:09.000Z</time>
</trkpt>
<trkpt lat="45.9609110" lon="10.1719020">
	<ele>1734.40</ele>
	<time>2025-08-16T09:30:10.000Z</time>
</trkpt>
<trkpt lat="45.9609100" lon="10.1719020">
	<ele>1734.40</ele>
	<time>2025-08-16T09:30:11.000Z</time>
</trkpt>
<trkpt lat="45.9609100" lon="10.1719030">
	<ele>1734.20</ele>
	<time>2025-08-16T09:30:12.000Z</time>
</trkpt>
<trkpt lat="45.9609070" lon="10.1719060">
	<ele>1734.20</ele>
	<time>2025-08-16T09:30:13.000Z</time>
</trkpt>
<trkpt lat="45.9609060" lon="10.1719040">
	<ele>1734.20</ele>
	<time>2025-08-16T09:30:14.000Z</time>
</trkpt>
<trkpt lat="45.9609040" lon="10.1719010">
	<ele>1734.20</ele>
	<time>2025-08-16T09:30:15.000Z</time>
</trkpt>
<trkpt lat="45.9609030" lon="10.1719010">
	<ele>1734.40</ele>
	<time>2025-08-16T09:30:16.000Z</time>
</trkpt>
<trkpt lat="45.9609000" lon="10.1719000">
	<ele>1734.40</ele>
	<time>2025-08-16T09:30:17.000Z</time>
</trkpt>
<trkpt lat="45.9608990" lon="10.1718980">
	<ele>1734.40</ele>
	<time>2025-08-16T09:30:18.000Z</time>
</trkpt>
<trkpt lat="45.9608980" lon="10.1718970">
	<ele>1734.40</ele>
	<time>2025-08-16T09:30:19.000Z</time>
</trkpt>
<trkpt lat="45.9609010" lon="10.1719070">
	<ele>1734.40</ele>
	<time>2025-08-16T09:30:20.000Z</time>
</trkpt>
<trkpt lat="45.9609050" lon="10.1719230">
	<ele>1734.40</ele>
	<time>2025-08-16T09:30:21.000Z</time>
</trkpt>
<trkpt lat="45.9609110" lon="10.1719380">
	<ele>1734.20</ele>
	<time>2025-08-16T09:30:22.000Z</time>
</trkpt>
<trkpt lat="45.9609180" lon="10.1719510">
	<ele>1734.00</ele>
	<time>2025-08-16T09:30:23.000Z</time>
</trkpt>
<trkpt lat="45.9609250" lon="10.1719630">
	<ele>1733.80</ele>
	<time>2025-08-16T09:30:24.000Z</time>
</trkpt>
<trkpt lat="45.9609310" lon="10.1719770">
	<ele>1733.80</ele>
	<time>2025-08-16T09:30:25.000Z</time>
</trkpt>
<trkpt lat="45.9609380" lon="10.1719880">
	<ele>1733.60</ele>
	<time>2025-08-16T09:30:26.000Z</time>
</trkpt>
<trkpt lat="45.9609470" lon="10.1720030">
	<ele>1733.60</ele>
	<time>2025-08-16T09:30:27.000Z</time>
</trkpt>
<trkpt lat="45.9609590" lon="10.1720140">
	<ele>1733.40</ele>
	<time>2025-08-16T09:30:28.000Z</time>
</trkpt>
<trkpt lat="45.9609670" lon="10.1720200">
	<ele>1733.20</ele>
	<time>2025-08-16T09:30:29.000Z</time>
</trkpt>
<trkpt lat="45.9609700" lon="10.1720310">
	<ele>1733.20</ele>
	<time>2025-08-16T09:30:30.000Z</time>
</trkpt>
<trkpt lat="45.9609730" lon="10.1720460">
	<ele>1733.00</ele>
	<time>2025-08-16T09:30:31.000Z</time>
</trkpt>
<trkpt lat="45.9609810" lon="10.1720560">
	<ele>1733.00</ele>
	<time>2025-08-16T09:30:32.000Z</time>
</trkpt>
<trkpt lat="45.9609870" lon="10.1720660">
	<ele>1733.00</ele>
	<time>2025-08-16T09:30:33.000Z</time>
</trkpt>
<trkpt lat="45.9609930" lon="10.1720810">
	<ele>1733.00</ele>
	<time>2025-08-16T09:30:34.000Z</time>
</trkpt>
<trkpt lat="45.9610010" lon="10.1720970">
	<ele>1732.80</ele>
	<time>2025-08-16T09:30:35.000Z</time>
</trkpt>
<trkpt lat="45.9610120" lon="10.1721090">
	<ele>1732.60</ele>
	<time>2025-08-16T09:30:36.000Z</time>
</trkpt>
<trkpt lat="45.9610250" lon="10.1721230">
	<ele>1732.60</ele>
	<time>2025-08-16T09:30:37.000Z</time>
</trkpt>
<trkpt lat="45.9610360" lon="10.1721410">
	<ele>1732.60</ele>
	<time>2025-08-16T09:30:38.000Z</time>
</trkpt>
<trkpt lat="45.9610460" lon="10.1721540">
	<ele>1732.40</ele>
	<time>2025-08-16T09:30:39.000Z</time>
</trkpt>
<trkpt lat="45.9610520" lon="10.1721800">
	<ele>1732.00</ele>
	<time>2025-08-16T09:30:40.000Z</time>
</trkpt>
<trkpt lat="45.9610630" lon="10.1722000">
	<ele>1731.80</ele>
	<time>2025-08-16T09:30:41.000Z</time>
</trkpt>
<trkpt lat="45.9610740" lon="10.1722170">
	<ele>1731.60</ele>
	<time>2025-08-16T09:30:42.000Z</time>
</trkpt>
<trkpt lat="45.9610820" lon="10.1722330">
	<ele>1731.40</ele>
	<time>2025-08-16T09:30:43.000Z</time>
</trkpt>
<trkpt lat="45.9610930" lon="10.1722450">
	<ele>1731.20</ele>
	<time>2025-08-16T09:30:44.000Z</time>
</trkpt>
<trkpt lat="45.9611030" lon="10.1722540">
	<ele>1731.00</ele>
	<time>2025-08-16T09:30:45.000Z</time>
</trkpt>
<trkpt lat="45.9611160" lon="10.1722660">
	<ele>1730.80</ele>
	<time>2025-08-16T09:30:46.000Z</time>
</trkpt>
<trkpt lat="45.9611280" lon="10.1722840">
	<ele>1730.60</ele>
	<time>2025-08-16T09:30:47.000Z</time>
</trkpt>
<trkpt lat="45.9611340" lon="10.1723010">
	<ele>1730.40</ele>
	<time>2025-08-16T09:30:48.000Z</time>
</trkpt>
<trkpt lat="45.9611380" lon="10.1723140">
	<ele>1730.20</ele>
	<time>2025-08-16T09:30:49.000Z</time>
</trkpt>
<trkpt lat="45.9611450" lon="10.1723290">
	<ele>1730.00</ele>
	<time>2025-08-16T09:30:50.000Z</time>
</trkpt>
<trkpt lat="45.9611560" lon="10.1723430">
	<ele>1729.80</ele>
	<time>2025-08-16T09:30:51.000Z</time>
</trkpt>
<trkpt lat="45.9611710" lon="10.1723530">
	<ele>1729.60</ele>
	<time>2025-08-16T09:30:52.000Z</time>
</trkpt>
<trkpt lat="45.9611940" lon="10.1723570">
	<ele>1729.40</ele>
	<time>2025-08-16T09:30:53.000Z</time>
</trkpt>
<trkpt lat="45.9612090" lon="10.1723570">
	<ele>1729.20</ele>
	<time>2025-08-16T09:30:54.000Z</time>
</trkpt>
<trkpt lat="45.9612280" lon="10.1723620">
	<ele>1729.20</ele>
	<time>2025-08-16T09:30:55.000Z</time>
</trkpt>
<trkpt lat="45.9612420" lon="10.1723620">
	<ele>1729.00</ele>
	<time>2025-08-16T09:30:56.000Z</time>
</trkpt>
<trkpt lat="45.9612580" lon="10.1723640">
	<ele>1729.00</ele>
	<time>2025-08-16T09:30:57.000Z</time>
</trkpt>
<trkpt lat="45.9612650" lon="10.1723730">
	<ele>1728.80</ele>
	<time>2025-08-16T09:30:58.000Z</time>
</trkpt>
<trkpt lat="45.9612800" lon="10.1723930">
	<ele>1728.60</ele>
	<time>2025-08-16T09:30:59.000Z</time>
</trkpt>
<trkpt lat="45.9612880" lon="10.1724100">
	<ele>1728.40</ele>
	<time>2025-08-16T09:31:00.000Z</time>
</trkpt>
<trkpt lat="45.9612960" lon="10.1724180">
	<ele>1728.20</ele>
	<time>2025-08-16T09:31:01.000Z</time>
</trkpt>
<trkpt lat="45.9613070" lon="10.1724260">
	<ele>1728.00</ele>
	<time>2025-08-16T09:31:02.000Z</time>
</trkpt>
<trkpt lat="45.9613190" lon="10.1724400">
	<ele>1727.80</ele>
	<time>2025-08-16T09:31:03.000Z</time>
</trkpt>
<trkpt lat="45.9613310" lon="10.1724610">
	<ele>1727.60</ele>
	<time>2025-08-16T09:31:04.000Z</time>
</trkpt>
<trkpt lat="45.9613410" lon="10.1724770">
	<ele>1727.40</ele>
	<time>2025-08-16T09:31:05.000Z</time>
</trkpt>
<trkpt lat="45.9613590" lon="10.1724890">
	<ele>1727.20</ele>
	<time>2025-08-16T09:31:06.000Z</time>
</trkpt>
<trkpt lat="45.9613740" lon="10.1725010">
	<ele>1727.20</ele>
	<time>2025-08-16T09:31:07.000Z</time>
</trkpt>
<trkpt lat="45.9613880" lon="10.1725150">
	<ele>1727.00</ele>
	<time>2025-08-16T09:31:08.000Z</time>
</trkpt>
<trkpt lat="45.9614000" lon="10.1725320">
	<ele>1726.80</ele>
	<time>2025-08-16T09:31:09.000Z</time>
</trkpt>
<trkpt lat="45.9614110" lon="10.1725470">
	<ele>1726.60</ele>
	<time>2025-08-16T09:31:10.000Z</time>
</trkpt>
<trkpt lat="45.9614180" lon="10.1725590">
	<ele>1726.40</ele>
	<time>2025-08-16T09:31:11.000Z</time>
</trkpt>
<trkpt lat="45.9614260" lon="10.1725760">
	<ele>1726.40</ele>
	<time>2025-08-16T09:31:12.000Z</time>
</trkpt>
<trkpt lat="45.9614360" lon="10.1725950">
	<ele>1726.20</ele>
	<time>2025-08-16T09:31:13.000Z</time>
</trkpt>
<trkpt lat="45.9614490" lon="10.1726080">
	<ele>1726.20</ele>
	<time>2025-08-16T09:31:14.000Z</time>
</trkpt>
<trkpt lat="45.9614620" lon="10.1726230">
	<ele>1726.00</ele>
	<time>2025-08-16T09:31:15.000Z</time>
</trkpt>
<trkpt lat="45.9614720" lon="10.1726410">
	<ele>1725.60</ele>
	<time>2025-08-16T09:31:16.000Z</time>
</trkpt>
<trkpt lat="45.9614830" lon="10.1726570">
	<ele>1725.40</ele>
	<time>2025-08-16T09:31:17.000Z</time>
</trkpt>
<trkpt lat="45.9614930" lon="10.1726720">
	<ele>1725.40</ele>
	<time>2025-08-16T09:31:18.000Z</time>
</trkpt>
<trkpt lat="45.9615050" lon="10.1726850">
	<ele>1725.20</ele>
	<time>2025-08-16T09:31:19.000Z</time>
</trkpt>
<trkpt lat="45.9615140" lon="10.1727000">
	<ele>1725.00</ele>
	<time>2025-08-16T09:31:20.000Z</time>
</trkpt>
<trkpt lat="45.9615240" lon="10.1727200">
	<ele>1724.80</ele>
	<time>2025-08-16T09:31:21.000Z</time>
</trkpt>
<trkpt lat="45.9615310" lon="10.1727360">
	<ele>1724.60</ele>
	<time>2025-08-16T09:31:22.000Z</time>
</trkpt>
<trkpt lat="45.9615400" lon="10.1727580">
	<ele>1724.40</ele>
	<time>2025-08-16T09:31:23.000Z</time>
</trkpt>
<trkpt lat="45.9615490" lon="10.1727700">
	<ele>1724.20</ele>
	<time>2025-08-16T09:31:24.000Z</time>
</trkpt>
<trkpt lat="45.9615650" lon="10.1727880">
	<ele>1724.00</ele>
	<time>2025-08-16T09:31:25.000Z</time>
</trkpt>
<trkpt lat="45.9615750" lon="10.1728040">
	<ele>1724.00</ele>
	<time>2025-08-16T09:31:26.000Z</time>
</trkpt>
<trkpt lat="45.9615820" lon="10.1728210">
	<ele>1723.80</ele>
	<time>2025-08-16T09:31:27.000Z</time>
</trkpt>
<trkpt lat="45.9615920" lon="10.1728440">
	<ele>1723.80</ele>
	<time>2025-08-16T09:31:28.000Z</time>
</trkpt>
<trkpt lat="45.9616020" lon="10.1728640">
	<ele>1723.80</ele>
	<time>2025-08-16T09:31:29.000Z</time>
</trkpt>
<trkpt lat="45.9616100" lon="10.1728780">
	<ele>1723.80</ele>
	<time>2025-08-16T09:31:30.000Z</time>
</trkpt>
<trkpt lat="45.9616180" lon="10.1728910">
	<ele>1723.80</ele>
	<time>2025-08-16T09:31:31.000Z</time>
</trkpt>
<trkpt lat="45.9616280" lon="10.1729040">
	<ele>1723.80</ele>
	<time>2025-08-16T09:31:32.000Z</time>
</trkpt>
<trkpt lat="45.9616360" lon="10.1729210">
	<ele>1723.80</ele>
	<time>2025-08-16T09:31:33.000Z</time>
</trkpt>
<trkpt lat="45.9616430" lon="10.1729410">
	<ele>1723.80</ele>
	<time>2025-08-16T09:31:34.000Z</time>
</trkpt>
<trkpt lat="45.9616470" lon="10.1729580">
	<ele>1723.60</ele>
	<time>2025-08-16T09:31:35.000Z</time>
</trkpt>
<trkpt lat="45.9616560" lon="10.1729750">
	<ele>1723.60</ele>
	<time>2025-08-16T09:31:36.000Z</time>
</trkpt>
<trkpt lat="45.9616600" lon="10.1729950">
	<ele>1723.40</ele>
	<time>2025-08-16T09:31:37.000Z</time>
</trkpt>
<trkpt lat="45.9616610" lon="10.1730110">
	<ele>1723.40</ele>
	<time>2025-08-16T09:31:38.000Z</time>
</trkpt>
<trkpt lat="45.9616660" lon="10.1730280">
	<ele>1723.20</ele>
	<time>2025-08-16T09:31:39.000Z</time>
</trkpt>
<trkpt lat="45.9616660" lon="10.1730460">
	<ele>1723.20</ele>
	<time>2025-08-16T09:31:40.000Z</time>
</trkpt>
<trkpt lat="45.9616710" lon="10.1730660">
	<ele>1723.00</ele>
	<time>2025-08-16T09:31:41.000Z</time>
</trkpt>
<trkpt lat="45.9616770" lon="10.1730840">
	<ele>1723.00</ele>
	<time>2025-08-16T09:31:42.000Z</time>
</trkpt>
<trkpt lat="45.9616820" lon="10.1731010">
	<ele>1723.00</ele>
	<time>2025-08-16T09:31:43.000Z</time>
</trkpt>
<trkpt lat="45.9616830" lon="10.1731230">
	<ele>1723.00</ele>
	<time>2025-08-16T09:31:44.000Z</time>
</trkpt>
<trkpt lat="45.9616880" lon="10.1731460">
	<ele>1723.00</ele>
	<time>2025-08-16T09:31:45.000Z</time>
</trkpt>
<trkpt lat="45.9616960" lon="10.1731680">
	<ele>1723.00</ele>
	<time>2025-08-16T09:31:46.000Z</time>
</trkpt>
<trkpt lat="45.9616980" lon="10.1731880">
	<ele>1722.80</ele>
	<time>2025-08-16T09:31:47.000Z</time>
</trkpt>
<trkpt lat="45.9616960" lon="10.1732020">
	<ele>1722.80</ele>
	<time>2025-08-16T09:31:48.000Z</time>
</trkpt>
<trkpt lat="45.9616910" lon="10.1732160">
	<ele>1722.80</ele>
	<time>2025-08-16T09:31:49.000Z</time>
</trkpt>
<trkpt lat="45.9616880" lon="10.1732440">
	<ele>1722.60</ele>
	<time>2025-08-16T09:31:50.000Z</time>
</trkpt>
<trkpt lat="45.9616830" lon="10.1732630">
	<ele>1722.60</ele>
	<time>2025-08-16T09:31:51.000Z</time>
</trkpt>
<trkpt lat="45.9616750" lon="10.1732840">
	<ele>1722.40</ele>
	<time>2025-08-16T09:31:52.000Z</time>
</trkpt>
<trkpt lat="45.9616650" lon="10.1733010">
	<ele>1722.20</ele>
	<time>2025-08-16T09:31:53.000Z</time>
</trkpt>
<trkpt lat="45.9616610" lon="10.1733170">
	<ele>1722.00</ele>
	<time>2025-08-16T09:31:54.000Z</time>
</trkpt>
<trkpt lat="45.9616590" lon="10.1733350">
	<ele>1721.80</ele>
	<time>2025-08-16T09:31:55.000Z</time>
</trkpt>
<trkpt lat="45.9616530" lon="10.1733500">
	<ele>1721.60</ele>
	<time>2025-08-16T09:31:56.000Z</time>
</trkpt>
<trkpt lat="45.9616490" lon="10.1733670">
	<ele>1721.60</ele>
	<time>2025-08-16T09:31:57.000Z</time>
</trkpt>
<trkpt lat="45.9616510" lon="10.1733850">
	<ele>1721.40</ele>
	<time>2025-08-16T09:31:58.000Z</time>
</trkpt>
<trkpt lat="45.9616500" lon="10.1734060">
	<ele>1721.20</ele>
	<time>2025-08-16T09:31:59.000Z</time>
</trkpt>
<trkpt lat="45.9616520" lon="10.1734290">
	<ele>1721.00</ele>
	<time>2025-08-16T09:32:00.000Z</time>
</trkpt>
<trkpt lat="45.9616550" lon="10.1734490">
	<ele>1720.80</ele>
	<time>2025-08-16T09:32:01.000Z</time>
</trkpt>
<trkpt lat="45.9616560" lon="10.1734680">
	<ele>1720.80</ele>
	<time>2025-08-16T09:32:02.000Z</time>
</trkpt>
<trkpt lat="45.9616580" lon="10.1734780">
	<ele>1720.80</ele>
	<time>2025-08-16T09:32:03.000Z</time>
</trkpt>
<trkpt lat="45.9616600" lon="10.1734890">
	<ele>1720.80</ele>
	<time>2025-08-16T09:32:04.000Z</time>
</trkpt>
<trkpt lat="45.9616600" lon="10.1735000">
	<ele>1720.60</ele>
	<time>2025-08-16T09:32:05.000Z</time>
</trkpt>
<trkpt lat="45.9616430" lon="10.1735090">
	<ele>1720.60</ele>
	<time>2025-08-16T09:32:06.000Z</time>
</trkpt>
<trkpt lat="45.9616270" lon="10.1735260">
	<ele>1720.60</ele>
	<time>2025-08-16T09:32:07.000Z</time>
</trkpt>
<trkpt lat="45.9616190" lon="10.1735380">
	<ele>1720.60</ele>
	<time>2025-08-16T09:32:08.000Z</time>
</trkpt>
<trkpt lat="45.9616150" lon="10.1735410">
	<ele>1720.60</ele>
	<time>2025-08-16T09:32:09.000Z</time>
</trkpt>
<trkpt lat="45.9616210" lon="10.1735380">
	<ele>1720.60</ele>
	<time>2025-08-16T09:32:10.000Z</time>
</trkpt>
<trkpt lat="45.9616240" lon="10.1735350">
	<ele>1720.60</ele>
	<time>2025-08-16T09:32:11.000Z</time>
</trkpt>
<trkpt lat="45.9616340" lon="10.1735310">
	<ele>1720.60</ele>
	<time>2025-08-16T09:32:12.000Z</time>
</trkpt>
<trkpt lat="45.9616440" lon="10.1735320">
	<ele>1720.60</ele>
	<time>2025-08-16T09:32:13.000Z</time>
</trkpt>
<trkpt lat="45.9616450" lon="10.1735340">
	<ele>1720.60</ele>
	<time>2025-08-16T09:32:14.000Z</time>
</trkpt>
<trkpt lat="45.9616490" lon="10.1735230">
	<ele>1720.40</ele>
	<time>2025-08-16T09:32:15.000Z</time>
</trkpt>
<trkpt lat="45.9616570" lon="10.1735240">
	<ele>1720.40</ele>
	<time>2025-08-16T09:32:16.000Z</time>
</trkpt>
<trkpt lat="45.9616660" lon="10.1735320">
	<ele>1720.40</ele>
	<time>2025-08-16T09:32:17.000Z</time>
</trkpt>
<trkpt lat="45.9616750" lon="10.1735430">
	<ele>1720.40</ele>
	<time>2025-08-16T09:32:18.000Z</time>
</trkpt>
<trkpt lat="45.9616730" lon="10.1735430">
	<ele>1720.20</ele>
	<time>2025-08-16T09:32:19.000Z</time>
</trkpt>
<trkpt lat="45.9616760" lon="10.1735480">
	<ele>1720.00</ele>
	<time>2025-08-16T09:32:20.000Z</time>
</trkpt>
<trkpt lat="45.9616760" lon="10.1735560">
	<ele>1720.00</ele>
	<time>2025-08-16T09:32:21.000Z</time>
</trkpt>
<trkpt lat="45.9616760" lon="10.1735850">
	<ele>1720.00</ele>
	<time>2025-08-16T09:32:22.000Z</time>
</trkpt>
<trkpt lat="45.9616830" lon="10.1736010">
	<ele>1720.00</ele>
	<time>2025-08-16T09:32:23.000Z</time>
</trkpt>
<trkpt lat="45.9616830" lon="10.1736040">
	<ele>1720.00</ele>
	<time>2025-08-16T09:32:24.000Z</time>
</trkpt>
<trkpt lat="45.9616880" lon="10.1736210">
	<ele>1720.00</ele>
	<time>2025-08-16T09:32:25.000Z</time>
</trkpt>
<trkpt lat="45.9616900" lon="10.1736370">
	<ele>1720.00</ele>
	<time>2025-08-16T09:32:26.000Z</time>
</trkpt>
<trkpt lat="45.9616950" lon="10.1736640">
	<ele>1719.60</ele>
	<time>2025-08-16T09:32:27.000Z</time>
</trkpt>
<trkpt lat="45.9617010" lon="10.1736760">
	<ele>1719.40</ele>
	<time>2025-08-16T09:32:28.000Z</time>
</trkpt>
<trkpt lat="45.9617080" lon="10.1736940">
	<ele>1719.00</ele>
	<time>2025-08-16T09:32:29.000Z</time>
</trkpt>
<trkpt lat="45.9617150" lon="10.1737050">
	<ele>1718.60</ele>
	<time>2025-08-16T09:32:30.000Z</time>
</trkpt>
<trkpt lat="45.9617230" lon="10.1737120">
	<ele>1718.40</ele>
	<time>2025-08-16T09:32:31.000Z</time>
</trkpt>
<trkpt lat="45.9617250" lon="10.1737210">
	<ele>1718.20</ele>
	<time>2025-08-16T09:32:32.000Z</time>
</trkpt>
<trkpt lat="45.9617280" lon="10.1737310">
	<ele>1718.00</ele>
	<time>2025-08-16T09:32:33.000Z</time>
</trkpt>
<trkpt lat="45.9617310" lon="10.1737460">
	<ele>1717.60</ele>
	<time>2025-08-16T09:32:34.000Z</time>
</trkpt>
<trkpt lat="45.9617330" lon="10.1737600">
	<ele>1717.40</ele>
	<time>2025-08-16T09:32:35.000Z</time>
</trkpt>
<trkpt lat="45.9617400" lon="10.1737750">
	<ele>1717.40</ele>
	<time>2025-08-16T09:32:36.000Z</time>
</trkpt>
<trkpt lat="45.9617470" lon="10.1737910">
	<ele>1717.00</ele>
	<time>2025-08-16T09:32:37.000Z</time>
</trkpt>
<trkpt lat="45.9617490" lon="10.1738040">
	<ele>1716.80</ele>
	<time>2025-08-16T09:32:38.000Z</time>
</trkpt>
<trkpt lat="45.9617520" lon="10.1738210">
	<ele>1716.40</ele>
	<time>2025-08-16T09:32:39.000Z</time>
</trkpt>
<trkpt lat="45.9617540" lon="10.1738380">
	<ele>1716.20</ele>
	<time>2025-08-16T09:32:40.000Z</time>
</trkpt>
<trkpt lat="45.9617590" lon="10.1738570">
	<ele>1716.20</ele>
	<time>2025-08-16T09:32:41.000Z</time>
</trkpt>
<trkpt lat="45.9617610" lon="10.1738700">
	<ele>1715.80</ele>
	<time>2025-08-16T09:32:42.000Z</time>
</trkpt>
<trkpt lat="45.9617660" lon="10.1739000">
	<ele>1715.60</ele>
	<time>2025-08-16T09:32:43.000Z</time>
</trkpt>
<trkpt lat="45.9617670" lon="10.1739250">
	<ele>1715.40</ele>
	<time>2025-08-16T09:32:44.000Z</time>
</trkpt>
<trkpt lat="45.9617730" lon="10.1739520">
	<ele>1715.20</ele>
	<time>2025-08-16T09:32:45.000Z</time>
</trkpt>
<trkpt lat="45.9617840" lon="10.1739760">
	<ele>1715.00</ele>
	<time>2025-08-16T09:32:46.000Z</time>
</trkpt>
<trkpt lat="45.9617960" lon="10.1739980">
	<ele>1714.60</ele>
	<time>2025-08-16T09:32:47.000Z</time>
</trkpt>
<trkpt lat="45.9618020" lon="10.1740120">
	<ele>1714.40</ele>
	<time>2025-08-16T09:32:48.000Z</time>
</trkpt>
<trkpt lat="45.9618070" lon="10.1740190">
	<ele>1714.20</ele>
	<time>2025-08-16T09:32:49.000Z</time>
</trkpt>
<trkpt lat="45.9618160" lon="10.1740290">
	<ele>1713.80</ele>
	<time>2025-08-16T09:32:50.000Z</time>
</trkpt>
<trkpt lat="45.9618270" lon="10.1740480">
	<ele>1713.60</ele>
	<time>2025-08-16T09:32:51.000Z</time>
</trkpt>
<trkpt lat="45.9618320" lon="10.1740670">
	<ele>1713.40</ele>
	<time>2025-08-16T09:32:52.000Z</time>
</trkpt>
<trkpt lat="45.9618380" lon="10.1740910">
	<ele>1713.20</ele>
	<time>2025-08-16T09:32:53.000Z</time>
</trkpt>
<trkpt lat="45.9618470" lon="10.1741230">
	<ele>1713.20</ele>
	<time>2025-08-16T09:32:54.000Z</time>
</trkpt>
<trkpt lat="45.9618550" lon="10.1741440">
	<ele>1712.80</ele>
	<time>2025-08-16T09:32:55.000Z</time>
</trkpt>
<trkpt lat="45.9618510" lon="10.1741550">
	<ele>1712.60</ele>
	<time>2025-08-16T09:32:56.000Z</time>
</trkpt>
<trkpt lat="45.9618440" lon="10.1741550">
	<ele>1712.40</ele>
	<time>2025-08-16T09:32:57.000Z</time>
</trkpt>
<trkpt lat="45.9618460" lon="10.1741610">
	<ele>1712.20</ele>
	<time>2025-08-16T09:32:58.000Z</time>
</trkpt>
<trkpt lat="45.9618520" lon="10.1741730">
	<ele>1712.00</ele>
	<time>2025-08-16T09:32:59.000Z</time>
</trkpt>
<trkpt lat="45.9618590" lon="10.1741840">
	<ele>1712.00</ele>
	<time>2025-08-16T09:33:00.000Z</time>
</trkpt>
<trkpt lat="45.9618680" lon="10.1741990">
	<ele>1711.80</ele>
	<time>2025-08-16T09:33:01.000Z</time>
</trkpt>
<trkpt lat="45.9618810" lon="10.1742140">
	<ele>1711.60</ele>
	<time>2025-08-16T09:33:02.000Z</time>
</trkpt>
<trkpt lat="45.9618920" lon="10.1742250">
	<ele>1711.40</ele>
	<time>2025-08-16T09:33:03.000Z</time>
</trkpt>
<trkpt lat="45.9619010" lon="10.1742340">
	<ele>1711.40</ele>
	<time>2025-08-16T09:33:04.000Z</time>
</trkpt>
<trkpt lat="45.9619140" lon="10.1742470">
	<ele>1711.20</ele>
	<time>2025-08-16T09:33:05.000Z</time>
</trkpt>
<trkpt lat="45.9619210" lon="10.1742640">
	<ele>1711.20</ele>
	<time>2025-08-16T09:33:06.000Z</time>
</trkpt>
<trkpt lat="45.9619340" lon="10.1742940">
	<ele>1711.20</ele>
	<time>2025-08-16T09:33:07.000Z</time>
</trkpt>
<trkpt lat="45.9619500" lon="10.1743190">
	<ele>1711.00</ele>
	<time>2025-08-16T09:33:08.000Z</time>
</trkpt>
<trkpt lat="45.9619500" lon="10.1743320">
	<ele>1710.60</ele>
	<time>2025-08-16T09:33:09.000Z</time>
</trkpt>
<trkpt lat="45.9619590" lon="10.1743510">
	<ele>1710.20</ele>
	<time>2025-08-16T09:33:10.000Z</time>
</trkpt>
<trkpt lat="45.9619730" lon="10.1743720">
	<ele>1710.00</ele>
	<time>2025-08-16T09:33:11.000Z</time>
</trkpt>
<trkpt lat="45.9619820" lon="10.1743970">
	<ele>1709.80</ele>
	<time>2025-08-16T09:33:12.000Z</time>
</trkpt>
<trkpt lat="45.9619920" lon="10.1744150">
	<ele>1709.60</ele>
	<time>2025-08-16T09:33:13.000Z</time>
</trkpt>
<trkpt lat="45.9620000" lon="10.1744300">
	<ele>1709.20</ele>
	<time>2025-08-16T09:33:14.000Z</time>
</trkpt>
<trkpt lat="45.9620130" lon="10.1744510">
	<ele>1709.00</ele>
	<time>2025-08-16T09:33:15.000Z</time>
</trkpt>
<trkpt lat="45.9620190" lon="10.1744620">
	<ele>1708.80</ele>
	<time>2025-08-16T09:33:16.000Z</time>
</trkpt>
<trkpt lat="45.9620230" lon="10.1744670">
	<ele>1708.60</ele>
	<time>2025-08-16T09:33:17.000Z</time>
</trkpt>
<trkpt lat="45.9620270" lon="10.1744720">
	<ele>1708.40</ele>
	<time>2025-08-16T09:33:18.000Z</time>
</trkpt>
<trkpt lat="45.9620290" lon="10.1744750">
	<ele>1708.20</ele>
	<time>2025-08-16T09:33:19.000Z</time>
</trkpt>
<trkpt lat="45.9620310" lon="10.1744770">
	<ele>1708.20</ele>
	<time>2025-08-16T09:33:20.000Z</time>
</trkpt>
<trkpt lat="45.9620310" lon="10.1744770">
	<ele>1708.20</ele>
	<time>2025-08-16T09:33:21.000Z</time>
</trkpt>
<trkpt lat="45.9620320" lon="10.1744780">
	<ele>1708.00</ele>
	<time>2025-08-16T09:33:22.000Z</time>
</trkpt>
<trkpt lat="45.9620320" lon="10.1744850">
	<ele>1708.00</ele>
	<time>2025-08-16T09:33:23.000Z</time>
</trkpt>
<trkpt lat="45.9620360" lon="10.1744900">
	<ele>1708.00</ele>
	<time>2025-08-16T09:33:24.000Z</time>
</trkpt>
<trkpt lat="45.9620450" lon="10.1745040">
	<ele>1707.80</ele>
	<time>2025-08-16T09:33:25.000Z</time>
</trkpt>
<trkpt lat="45.9620480" lon="10.1745130">
	<ele>1707.80</ele>
	<time>2025-08-16T09:33:26.000Z</time>
</trkpt>
<trkpt lat="45.9620530" lon="10.1745310">
	<ele>1707.60</ele>
	<time>2025-08-16T09:33:27.000Z</time>
</trkpt>
<trkpt lat="45.9620600" lon="10.1745470">
	<ele>1707.20</ele>
	<time>2025-08-16T09:33:28.000Z</time>
</trkpt>
<trkpt lat="45.9620680" lon="10.1745590">
	<ele>1707.00</ele>
	<time>2025-08-16T09:33:29.000Z</time>
</trkpt>
<trkpt lat="45.9620780" lon="10.1745770">
	<ele>1706.80</ele>
	<time>2025-08-16T09:33:30.000Z</time>
</trkpt>
<trkpt lat="45.9620890" lon="10.1745930">
	<ele>1706.80</ele>
	<time>2025-08-16T09:33:31.000Z</time>
</trkpt>
<trkpt lat="45.9620930" lon="10.1746100">
	<ele>1706.60</ele>
	<time>2025-08-16T09:33:32.000Z</time>
</trkpt>
<trkpt lat="45.9621010" lon="10.1746160">
	<ele>1706.60</ele>
	<time>2025-08-16T09:33:33.000Z</time>
</trkpt>
<trkpt lat="45.9621100" lon="10.1746230">
	<ele>1706.40</ele>
	<time>2025-08-16T09:33:34.000Z</time>
</trkpt>
<trkpt lat="45.9621210" lon="10.1746300">
	<ele>1706.20</ele>
	<time>2025-08-16T09:33:35.000Z</time>
</trkpt>
<trkpt lat="45.9621310" lon="10.1746410">
	<ele>1706.00</ele>
	<time>2025-08-16T09:33:36.000Z</time>
</trkpt>
<trkpt lat="45.9621410" lon="10.1746490">
	<ele>1706.00</ele>
	<time>2025-08-16T09:33:37.000Z</time>
</trkpt>
<trkpt lat="45.9621510" lon="10.1746630">
	<ele>1705.80</ele>
	<time>2025-08-16T09:33:38.000Z</time>
</trkpt>
<trkpt lat="45.9621600" lon="10.1746770">
	<ele>1705.60</ele>
	<time>2025-08-16T09:33:39.000Z</time>
</trkpt>
<trkpt lat="45.9621620" lon="10.1746940">
	<ele>1705.60</ele>
	<time>2025-08-16T09:33:40.000Z</time>
</trkpt>
<trkpt lat="45.9621630" lon="10.1747130">
	<ele>1705.60</ele>
	<time>2025-08-16T09:33:41.000Z</time>
</trkpt>
<trkpt lat="45.9621680" lon="10.1747240">
	<ele>1705.40</ele>
	<time>2025-08-16T09:33:42.000Z</time>
</trkpt>
<trkpt lat="45.9621780" lon="10.1747300">
	<ele>1705.40</ele>
	<time>2025-08-16T09:33:43.000Z</time>
</trkpt>
<trkpt lat="45.9621830" lon="10.1747470">
	<ele>1705.20</ele>
	<time>2025-08-16T09:33:44.000Z</time>
</trkpt>
<trkpt lat="45.9621990" lon="10.1747770">
	<ele>1705.20</ele>
	<time>2025-08-16T09:33:45.000Z</time>
</trkpt>
<trkpt lat="45.9622140" lon="10.1747880">
	<ele>1705.00</ele>
	<time>2025-08-16T09:33:46.000Z</time>
</trkpt>
<trkpt lat="45.9622260" lon="10.1748060">
	<ele>1705.00</ele>
	<time>2025-08-16T09:33:47.000Z</time>
</trkpt>
<trkpt lat="45.9622350" lon="10.1748180">
	<ele>1704.60</ele>
	<time>2025-08-16T09:33:48.000Z</time>
</trkpt>
<trkpt lat="45.9622440" lon="10.1748290">
	<ele>1704.20</ele>
	<time>2025-08-16T09:33:49.000Z</time>
</trkpt>
<trkpt lat="45.9622530" lon="10.1748360">
	<ele>1703.80</ele>
	<time>2025-08-16T09:33:50.000Z</time>
</trkpt>
<trkpt lat="45.9622640" lon="10.1748490">
	<ele>1703.60</ele>
	<time>2025-08-16T09:33:51.000Z</time>
</trkpt>
<trkpt lat="45.9622760" lon="10.1748540">
	<ele>1703.60</ele>
	<time>2025-08-16T09:33:52.000Z</time>
</trkpt>
<trkpt lat="45.9622840" lon="10.1748600">
	<ele>1703.40</ele>
	<time>2025-08-16T09:33:53.000Z</time>
</trkpt>
<trkpt lat="45.9622880" lon="10.1748600">
	<ele>1703.60</ele>
	<time>2025-08-16T09:33:54.000Z</time>
</trkpt>
<trkpt lat="45.9622920" lon="10.1748580">
	<ele>1703.60</ele>
	<time>2025-08-16T09:33:55.000Z</time>
</trkpt>
<trkpt lat="45.9622930" lon="10.1748620">
	<ele>1703.60</ele>
	<time>2025-08-16T09:33:56.000Z</time>
</trkpt>
<trkpt lat="45.9622930" lon="10.1748640">
	<ele>1703.60</ele>
	<time>2025-08-16T09:33:57.000Z</time>
</trkpt>
<trkpt lat="45.9622910" lon="10.1748630">
	<ele>1703.60</ele>
	<time>2025-08-16T09:33:58.000Z</time>
</trkpt>
<trkpt lat="45.9622900" lon="10.1748630">
	<ele>1703.60</ele>
	<time>2025-08-16T09:33:59.000Z</time>
</trkpt>
<trkpt lat="45.9622900" lon="10.1748620">
	<ele>1703.60</ele>
	<time>2025-08-16T09:34:00.000Z</time>
</trkpt>
<trkpt lat="45.9622880" lon="10.1748640">
	<ele>1703.40</ele>
	<time>2025-08-16T09:34:01.000Z</time>
</trkpt>
<trkpt lat="45.9622900" lon="10.1748600">
	<ele>1703.40</ele>
	<time>2025-08-16T09:34:02.000Z</time>
</trkpt>
<trkpt lat="45.9622920" lon="10.1748570">
	<ele>1703.40</ele>
	<time>2025-08-16T09:34:03.000Z</time>
</trkpt>
<trkpt lat="45.9622910" lon="10.1748580">
	<ele>1703.20</ele>
	<time>2025-08-16T09:34:04.000Z</time>
</trkpt>
<trkpt lat="45.9622910" lon="10.1748570">
	<ele>1703.20</ele>
	<time>2025-08-16T09:34:05.000Z</time>
</trkpt>
<trkpt lat="45.9622910" lon="10.1748570">
	<ele>1703.00</ele>
	<time>2025-08-16T09:34:06.000Z</time>
</trkpt>
<trkpt lat="45.9622910" lon="10.1748570">
	<ele>1703.00</ele>
	<time>2025-08-16T09:34:07.000Z</time>
</trkpt>
<trkpt lat="45.9622910" lon="10.1748570">
	<ele>1702.80</ele>
	<time>2025-08-16T09:34:08.000Z</time>
</trkpt>
<trkpt lat="45.9622910" lon="10.1748570">
	<ele>1702.80</ele>
	<time>2025-08-16T09:34:09.000Z</time>
</trkpt>
<trkpt lat="45.9622910" lon="10.1748570">
	<ele>1702.80</ele>
	<time>2025-08-16T09:34:10.000Z</time>
</trkpt>
<trkpt lat="45.9622910" lon="10.1748570">
	<ele>1702.80</ele>
	<time>2025-08-16T09:34:11.000Z</time>
</trkpt>
<trkpt lat="45.9622910" lon="10.1748570">
	<ele>1702.80</ele>
	<time>2025-08-16T09:34:12.000Z</time>
</trkpt>
<trkpt lat="45.9622910" lon="10.1748570">
	<ele>1702.60</ele>
	<time>2025-08-16T09:34:13.000Z</time>
</trkpt>
<trkpt lat="45.9622910" lon="10.1748570">
	<ele>1702.60</ele>
	<time>2025-08-16T09:34:14.000Z</time>
</trkpt>
<trkpt lat="45.9622910" lon="10.1748570">
	<ele>1702.60</ele>
	<time>2025-08-16T09:34:15.000Z</time>
</trkpt>
<trkpt lat="45.9622910" lon="10.1748570">
	<ele>1702.60</ele>
	<time>2025-08-16T09:34:16.000Z</time>
</trkpt>
<trkpt lat="45.9622910" lon="10.1748570">
	<ele>1702.60</ele>
	<time>2025-08-16T09:34:17.000Z</time>
</trkpt>
<trkpt lat="45.9622910" lon="10.1748570">
	<ele>1702.80</ele>
	<time>2025-08-16T09:34:18.000Z</time>
</trkpt>
<trkpt lat="45.9622920" lon="10.1748570">
	<ele>1702.80</ele>
	<time>2025-08-16T09:34:19.000Z</time>
</trkpt>
<trkpt lat="45.9622920" lon="10.1748570">
	<ele>1702.80</ele>
	<time>2025-08-16T09:34:20.000Z</time>
</trkpt>
<trkpt lat="45.9622920" lon="10.1748570">
	<ele>1702.80</ele>
	<time>2025-08-16T09:34:21.000Z</time>
</trkpt>
<trkpt lat="45.9622920" lon="10.1748570">
	<ele>1702.80</ele>
	<time>2025-08-16T09:34:22.000Z</time>
</trkpt>
<trkpt lat="45.9622930" lon="10.1748570">
	<ele>1702.80</ele>
	<time>2025-08-16T09:34:23.000Z</time>
</trkpt>
<trkpt lat="45.9622930" lon="10.1748570">
	<ele>1702.80</ele>
	<time>2025-08-16T09:34:24.000Z</time>
</trkpt>
<trkpt lat="45.9622930" lon="10.1748570">
	<ele>1702.80</ele>
	<time>2025-08-16T09:34:25.000Z</time>
</trkpt>
<trkpt lat="45.9622940" lon="10.1748570">
	<ele>1702.80</ele>
	<time>2025-08-16T09:34:26.000Z</time>
</trkpt>
<trkpt lat="45.9622940" lon="10.1748570">
	<ele>1702.80</ele>
	<time>2025-08-16T09:34:27.000Z</time>
</trkpt>
<trkpt lat="45.9622940" lon="10.1748560">
	<ele>1702.80</ele>
	<time>2025-08-16T09:34:28.000Z</time>
</trkpt>
<trkpt lat="45.9622950" lon="10.1748560">
	<ele>1702.80</ele>
	<time>2025-08-16T09:34:29.000Z</time>
</trkpt>
<trkpt lat="45.9622950" lon="10.1748560">
	<ele>1702.80</ele>
	<time>2025-08-16T09:34:30.000Z</time>
</trkpt>
<trkpt lat="45.9622950" lon="10.1748560">
	<ele>1702.80</ele>
	<time>2025-08-16T09:34:31.000Z</time>
</trkpt>
<trkpt lat="45.9622960" lon="10.1748560">
	<ele>1702.80</ele>
	<time>2025-08-16T09:34:32.000Z</time>
</trkpt>
<trkpt lat="45.9622960" lon="10.1748560">
	<ele>1702.80</ele>
	<time>2025-08-16T09:34:33.000Z</time>
</trkpt>
<trkpt lat="45.9622960" lon="10.1748550">
	<ele>1702.80</ele>
	<time>2025-08-16T09:34:34.000Z</time>
</trkpt>
<trkpt lat="45.9622960" lon="10.1748540">
	<ele>1702.60</ele>
	<time>2025-08-16T09:34:35.000Z</time>
</trkpt>
<trkpt lat="45.9622970" lon="10.1748540">
	<ele>1702.60</ele>
	<time>2025-08-16T09:34:36.000Z</time>
</trkpt>
<trkpt lat="45.9622970" lon="10.1748530">
	<ele>1702.60</ele>
	<time>2025-08-16T09:34:37.000Z</time>
</trkpt>
<trkpt lat="45.9622970" lon="10.1748530">
	<ele>1702.60</ele>
	<time>2025-08-16T09:34:38.000Z</time>
</trkpt>
<trkpt lat="45.9622970" lon="10.1748530">
	<ele>1702.60</ele>
	<time>2025-08-16T09:34:39.000Z</time>
</trkpt>
<trkpt lat="45.9622970" lon="10.1748530">
	<ele>1702.60</ele>
	<time>2025-08-16T09:34:40.000Z</time>
</trkpt>
<trkpt lat="45.9622970" lon="10.1748510">
	<ele>1702.80</ele>
	<time>2025-08-16T09:34:41.000Z</time>
</trkpt>
<trkpt lat="45.9622970" lon="10.1748510">
	<ele>1703.20</ele>
	<time>2025-08-16T09:34:42.000Z</time>
</trkpt>
<trkpt lat="45.9622970" lon="10.1748510">
	<ele>1703.40</ele>
	<time>2025-08-16T09:34:43.000Z</time>
</trkpt>
<trkpt lat="45.9622970" lon="10.1748510">
	<ele>1703.60</ele>
	<time>2025-08-16T09:34:44.000Z</time>
</trkpt>
<trkpt lat="45.9622970" lon="10.1748500">
	<ele>1703.60</ele>
	<time>2025-08-16T09:34:45.000Z</time>
</trkpt>
<trkpt lat="45.9622970" lon="10.1748500">
	<ele>1703.60</ele>
	<time>2025-08-16T09:34:46.000Z</time>
</trkpt>
<trkpt lat="45.9622960" lon="10.1748490">
	<ele>1703.60</ele>
	<time>2025-08-16T09:34:47.000Z</time>
</trkpt>
<trkpt lat="45.9622960" lon="10.1748490">
	<ele>1703.60</ele>
	<time>2025-08-16T09:34:48.000Z</time>
</trkpt>
<trkpt lat="45.9622960" lon="10.1748470">
	<ele>1703.40</ele>
	<time>2025-08-16T09:34:49.000Z</time>
</trkpt>
<trkpt lat="45.9622970" lon="10.1748470">
	<ele>1703.40</ele>
	<time>2025-08-16T09:34:50.000Z</time>
</trkpt>
<trkpt lat="45.9622970" lon="10.1748450">
	<ele>1703.40</ele>
	<time>2025-08-16T09:34:51.000Z</time>
</trkpt>
<trkpt lat="45.9622970" lon="10.1748420">
	<ele>1703.40</ele>
	<time>2025-08-16T09:34:52.000Z</time>
</trkpt>
<trkpt lat="45.9622980" lon="10.1748410">
	<ele>1703.40</ele>
	<time>2025-08-16T09:34:53.000Z</time>
</trkpt>
<trkpt lat="45.9622980" lon="10.1748380">
	<ele>1703.40</ele>
	<time>2025-08-16T09:34:54.000Z</time>
</trkpt>
<trkpt lat="45.9622980" lon="10.1748360">
	<ele>1703.40</ele>
	<time>2025-08-16T09:34:55.000Z</time>
</trkpt>
<trkpt lat="45.9622990" lon="10.1748350">
	<ele>1703.40</ele>
	<time>2025-08-16T09:34:56.000Z</time>
</trkpt>
<trkpt lat="45.9622990" lon="10.1748350">
	<ele>1703.40</ele>
	<time>2025-08-16T09:34:57.000Z</time>
</trkpt>
<trkpt lat="45.9623010" lon="10.1748400">
	<ele>1703.40</ele>
	<time>2025-08-16T09:34:58.000Z</time>
</trkpt>
<trkpt lat="45.9623120" lon="10.1748620">
	<ele>1703.40</ele>
	<time>2025-08-16T09:34:59.000Z</time>
</trkpt>
<trkpt lat="45.9623220" lon="10.1748850">
	<ele>1703.20</ele>
	<time>2025-08-16T09:35:00.000Z</time>
</trkpt>
<trkpt lat="45.9623300" lon="10.1749040">
	<ele>1703.20</ele>
	<time>2025-08-16T09:35:01.000Z</time>
</trkpt>
<trkpt lat="45.9623380" lon="10.1749260">
	<ele>1703.20</ele>
	<time>2025-08-16T09:35:02.000Z</time>
</trkpt>
<trkpt lat="45.9623450" lon="10.1749490">
	<ele>1703.00</ele>
	<time>2025-08-16T09:35:03.000Z</time>
</trkpt>
<trkpt lat="45.9623510" lon="10.1749710">
	<ele>1703.00</ele>
	<time>2025-08-16T09:35:04.000Z</time>
</trkpt>
<trkpt lat="45.9623570" lon="10.1749910">
	<ele>1703.00</ele>
	<time>2025-08-16T09:35:05.000Z</time>
</trkpt>
<trkpt lat="45.9623630" lon="10.1750130">
	<ele>1702.80</ele>
	<time>2025-08-16T09:35:06.000Z</time>
</trkpt>
<trkpt lat="45.9623670" lon="10.1750350">
	<ele>1702.60</ele>
	<time>2025-08-16T09:35:07.000Z</time>
</trkpt>
<trkpt lat="45.9623700" lon="10.1750540">
	<ele>1702.60</ele>
	<time>2025-08-16T09:35:08.000Z</time>
</trkpt>
<trkpt lat="45.9623740" lon="10.1750740">
	<ele>1702.60</ele>
	<time>2025-08-16T09:35:09.000Z</time>
</trkpt>
<trkpt lat="45.9623770" lon="10.1750880">
	<ele>1702.40</ele>
	<time>2025-08-16T09:35:10.000Z</time>
</trkpt>
<trkpt lat="45.9623780" lon="10.1751110">
	<ele>1702.20</ele>
	<time>2025-08-16T09:35:11.000Z</time>
</trkpt>
<trkpt lat="45.9623800" lon="10.1751310">
	<ele>1702.20</ele>
	<time>2025-08-16T09:35:12.000Z</time>
</trkpt>
<trkpt lat="45.9623820" lon="10.1751460">
	<ele>1701.80</ele>
	<time>2025-08-16T09:35:13.000Z</time>
</trkpt>
<trkpt lat="45.9623820" lon="10.1751660">
	<ele>1701.60</ele>
	<time>2025-08-16T09:35:14.000Z</time>
</trkpt>
<trkpt lat="45.9623840" lon="10.1751830">
	<ele>1701.40</ele>
	<time>2025-08-16T09:35:15.000Z</time>
</trkpt>
<trkpt lat="45.9623850" lon="10.1751960">
	<ele>1701.20</ele>
	<time>2025-08-16T09:35:16.000Z</time>
</trkpt>
<trkpt lat="45.9623890" lon="10.1752130">
	<ele>1701.00</ele>
	<time>2025-08-16T09:35:17.000Z</time>
</trkpt>
<trkpt lat="45.9623940" lon="10.1752320">
	<ele>1700.80</ele>
	<time>2025-08-16T09:35:18.000Z</time>
</trkpt>
<trkpt lat="45.9623980" lon="10.1752470">
	<ele>1700.60</ele>
	<time>2025-08-16T09:35:19.000Z</time>
</trkpt>
<trkpt lat="45.9624020" lon="10.1752640">
	<ele>1700.40</ele>
	<time>2025-08-16T09:35:20.000Z</time>
</trkpt>
<trkpt lat="45.9624070" lon="10.1752780">
	<ele>1700.20</ele>
	<time>2025-08-16T09:35:21.000Z</time>
</trkpt>
<trkpt lat="45.9624140" lon="10.1752920">
	<ele>1700.20</ele>
	<time>2025-08-16T09:35:22.000Z</time>
</trkpt>
<trkpt lat="45.9624220" lon="10.1753090">
	<ele>1700.00</ele>
	<time>2025-08-16T09:35:23.000Z</time>
</trkpt>
<trkpt lat="45.9624260" lon="10.1753260">
	<ele>1699.60</ele>
	<time>2025-08-16T09:35:24.000Z</time>
</trkpt>
<trkpt lat="45.9624290" lon="10.1753410">
	<ele>1699.40</ele>
	<time>2025-08-16T09:35:25.000Z</time>
</trkpt>
<trkpt lat="45.9624320" lon="10.1753590">
	<ele>1699.20</ele>
	<time>2025-08-16T09:35:26.000Z</time>
</trkpt>
<trkpt lat="45.9624350" lon="10.1753830">
	<ele>1699.00</ele>
	<time>2025-08-16T09:35:27.000Z</time>
</trkpt>
<trkpt lat="45.9624340" lon="10.1754030">
	<ele>1699.00</ele>
	<time>2025-08-16T09:35:28.000Z</time>
</trkpt>
<trkpt lat="45.9624390" lon="10.1754220">
	<ele>1698.80</ele>
	<time>2025-08-16T09:35:29.000Z</time>
</trkpt>
<trkpt lat="45.9624440" lon="10.1754370">
	<ele>1698.60</ele>
	<time>2025-08-16T09:35:30.000Z</time>
</trkpt>
<trkpt lat="45.9624480" lon="10.1754580">
	<ele>1698.60</ele>
	<time>2025-08-16T09:35:31.000Z</time>
</trkpt>
<trkpt lat="45.9624490" lon="10.1754780">
	<ele>1698.40</ele>
	<time>2025-08-16T09:35:32.000Z</time>
</trkpt>
<trkpt lat="45.9624510" lon="10.1754970">
	<ele>1698.40</ele>
	<time>2025-08-16T09:35:33.000Z</time>
</trkpt>
<trkpt lat="45.9624590" lon="10.1755160">
	<ele>1698.20</ele>
	<time>2025-08-16T09:35:34.000Z</time>
</trkpt>
<trkpt lat="45.9624640" lon="10.1755360">
	<ele>1698.00</ele>
	<time>2025-08-16T09:35:35.000Z</time>
</trkpt>
<trkpt lat="45.9624650" lon="10.1755580">
	<ele>1698.00</ele>
	<time>2025-08-16T09:35:36.000Z</time>
</trkpt>
<trkpt lat="45.9624700" lon="10.1755770">
	<ele>1698.00</ele>
	<time>2025-08-16T09:35:37.000Z</time>
</trkpt>
<trkpt lat="45.9624750" lon="10.1755990">
	<ele>1698.00</ele>
	<time>2025-08-16T09:35:38.000Z</time>
</trkpt>
<trkpt lat="45.9624770" lon="10.1756210">
	<ele>1698.00</ele>
	<time>2025-08-16T09:35:39.000Z</time>
</trkpt>
<trkpt lat="45.9624780" lon="10.1756420">
	<ele>1697.80</ele>
	<time>2025-08-16T09:35:40.000Z</time>
</trkpt>
<trkpt lat="45.9624790" lon="10.1756620">
	<ele>1697.80</ele>
	<time>2025-08-16T09:35:41.000Z</time>
</trkpt>
<trkpt lat="45.9624830" lon="10.1756870">
	<ele>1697.80</ele>
	<time>2025-08-16T09:35:42.000Z</time>
</trkpt>
<trkpt lat="45.9624860" lon="10.1757080">
	<ele>1697.60</ele>
	<time>2025-08-16T09:35:43.000Z</time>
</trkpt>
<trkpt lat="45.9624910" lon="10.1757290">
	<ele>1697.40</ele>
	<time>2025-08-16T09:35:44.000Z</time>
</trkpt>
<trkpt lat="45.9624980" lon="10.1757500">
	<ele>1697.20</ele>
	<time>2025-08-16T09:35:45.000Z</time>
</trkpt>
<trkpt lat="45.9625060" lon="10.1757690">
	<ele>1697.00</ele>
	<time>2025-08-16T09:35:46.000Z</time>
</trkpt>
<trkpt lat="45.9625110" lon="10.1757900">
	<ele>1696.80</ele>
	<time>2025-08-16T09:35:47.000Z</time>
</trkpt>
<trkpt lat="45.9625160" lon="10.1758110">
	<ele>1696.60</ele>
	<time>2025-08-16T09:35:48.000Z</time>
</trkpt>
<trkpt lat="45.9625210" lon="10.1758310">
	<ele>1696.60</ele>
	<time>2025-08-16T09:35:49.000Z</time>
</trkpt>
<trkpt lat="45.9625260" lon="10.1758460">
	<ele>1696.60</ele>
	<time>2025-08-16T09:35:50.000Z</time>
</trkpt>
<trkpt lat="45.9625280" lon="10.1758630">
	<ele>1696.40</ele>
	<time>2025-08-16T09:35:51.000Z</time>
</trkpt>
<trkpt lat="45.9625290" lon="10.1758780">
	<ele>1696.40</ele>
	<time>2025-08-16T09:35:52.000Z</time>
</trkpt>
<trkpt lat="45.9625280" lon="10.1759000">
	<ele>1696.40</ele>
	<time>2025-08-16T09:35:53.000Z</time>
</trkpt>
<trkpt lat="45.9625320" lon="10.1759260">
	<ele>1696.40</ele>
	<time>2025-08-16T09:35:54.000Z</time>
</trkpt>
<trkpt lat="45.9625320" lon="10.1759480">
	<ele>1696.40</ele>
	<time>2025-08-16T09:35:55.000Z</time>
</trkpt>
<trkpt lat="45.9625340" lon="10.1759680">
	<ele>1696.20</ele>
	<time>2025-08-16T09:35:56.000Z</time>
</trkpt>
<trkpt lat="45.9625300" lon="10.1759870">
	<ele>1696.20</ele>
	<time>2025-08-16T09:35:57.000Z</time>
</trkpt>
<trkpt lat="45.9625240" lon="10.1760060">
	<ele>1696.00</ele>
	<time>2025-08-16T09:35:58.000Z</time>
</trkpt>
<trkpt lat="45.9625230" lon="10.1760230">
	<ele>1696.00</ele>
	<time>2025-08-16T09:35:59.000Z</time>
</trkpt>
<trkpt lat="45.9625230" lon="10.1760440">
	<ele>1695.80</ele>
	<time>2025-08-16T09:36:00.000Z</time>
</trkpt>
<trkpt lat="45.9625220" lon="10.1760660">
	<ele>1695.80</ele>
	<time>2025-08-16T09:36:01.000Z</time>
</trkpt>
<trkpt lat="45.9625210" lon="10.1760820">
	<ele>1695.60</ele>
	<time>2025-08-16T09:36:02.000Z</time>
</trkpt>
<trkpt lat="45.9625220" lon="10.1761060">
	<ele>1695.40</ele>
	<time>2025-08-16T09:36:03.000Z</time>
</trkpt>
<trkpt lat="45.9625210" lon="10.1761280">
	<ele>1695.20</ele>
	<time>2025-08-16T09:36:04.000Z</time>
</trkpt>
<trkpt lat="45.9625230" lon="10.1761490">
	<ele>1695.20</ele>
	<time>2025-08-16T09:36:05.000Z</time>
</trkpt>
<trkpt lat="45.9625250" lon="10.1761670">
	<ele>1695.00</ele>
	<time>2025-08-16T09:36:06.000Z</time>
</trkpt>
<trkpt lat="45.9625280" lon="10.1761810">
	<ele>1694.80</ele>
	<time>2025-08-16T09:36:07.000Z</time>
</trkpt>
<trkpt lat="45.9625330" lon="10.1761980">
	<ele>1694.60</ele>
	<time>2025-08-16T09:36:08.000Z</time>
</trkpt>
<trkpt lat="45.9625430" lon="10.1762140">
	<ele>1694.20</ele>
	<time>2025-08-16T09:36:09.000Z</time>
</trkpt>
<trkpt lat="45.9625510" lon="10.1762290">
	<ele>1694.20</ele>
	<time>2025-08-16T09:36:10.000Z</time>
</trkpt>
<trkpt lat="45.9625560" lon="10.1762430">
	<ele>1694.00</ele>
	<time>2025-08-16T09:36:11.000Z</time>
</trkpt>
<trkpt lat="45.9625620" lon="10.1762600">
	<ele>1693.80</ele>
	<time>2025-08-16T09:36:12.000Z</time>
</trkpt>
<trkpt lat="45.9625660" lon="10.1762750">
	<ele>1693.60</ele>
	<time>2025-08-16T09:36:13.000Z</time>
</trkpt>
<trkpt lat="45.9625720" lon="10.1762900">
	<ele>1693.20</ele>
	<time>2025-08-16T09:36:14.000Z</time>
</trkpt>
<trkpt lat="45.9625770" lon="10.1763010">
	<ele>1693.00</ele>
	<time>2025-08-16T09:36:15.000Z</time>
</trkpt>
<trkpt lat="45.9625810" lon="10.1763160">
	<ele>1692.80</ele>
	<time>2025-08-16T09:36:16.000Z</time>
</trkpt>
<trkpt lat="45.9625850" lon="10.1763280">
	<ele>1692.40</ele>
	<time>2025-08-16T09:36:17.000Z</time>
</trkpt>
<trkpt lat="45.9625920" lon="10.1763400">
	<ele>1692.20</ele>
	<time>2025-08-16T09:36:18.000Z</time>
</trkpt>
<trkpt lat="45.9625960" lon="10.1763490">
	<ele>1691.80</ele>
	<time>2025-08-16T09:36:19.000Z</time>
</trkpt>
<trkpt lat="45.9626010" lon="10.1763670">
	<ele>1691.60</ele>
	<time>2025-08-16T09:36:20.000Z</time>
</trkpt>
<trkpt lat="45.9626040" lon="10.1763810">
	<ele>1691.40</ele>
	<time>2025-08-16T09:36:21.000Z</time>
</trkpt>
<trkpt lat="45.9626090" lon="10.1763960">
	<ele>1691.20</ele>
	<time>2025-08-16T09:36:22.000Z</time>
</trkpt>
<trkpt lat="45.9626140" lon="10.1764130">
	<ele>1690.80</ele>
	<time>2025-08-16T09:36:23.000Z</time>
</trkpt>
<trkpt lat="45.9626200" lon="10.1764310">
	<ele>1690.60</ele>
	<time>2025-08-16T09:36:24.000Z</time>
</trkpt>
<trkpt lat="45.9626240" lon="10.1764430">
	<ele>1690.40</ele>
	<time>2025-08-16T09:36:25.000Z</time>
</trkpt>
<trkpt lat="45.9626290" lon="10.1764520">
	<ele>1690.20</ele>
	<time>2025-08-16T09:36:26.000Z</time>
</trkpt>
<trkpt lat="45.9626420" lon="10.1764580">
	<ele>1690.20</ele>
	<time>2025-08-16T09:36:27.000Z</time>
</trkpt>
<trkpt lat="45.9626540" lon="10.1764670">
	<ele>1690.00</ele>
	<time>2025-08-16T09:36:28.000Z</time>
</trkpt>
<trkpt lat="45.9626660" lon="10.1764780">
	<ele>1690.00</ele>
	<time>2025-08-16T09:36:29.000Z</time>
</trkpt>
<trkpt lat="45.9626780" lon="10.1764900">
	<ele>1689.80</ele>
	<time>2025-08-16T09:36:30.000Z</time>
</trkpt>
<trkpt lat="45.9626920" lon="10.1765000">
	<ele>1689.80</ele>
	<time>2025-08-16T09:36:31.000Z</time>
</trkpt>
<trkpt lat="45.9626980" lon="10.1765040">
	<ele>1689.60</ele>
	<time>2025-08-16T09:36:32.000Z</time>
</trkpt>
<trkpt lat="45.9626990" lon="10.1765080">
	<ele>1689.20</ele>
	<time>2025-08-16T09:36:33.000Z</time>
</trkpt>
<trkpt lat="45.9626980" lon="10.1765080">
	<ele>1689.20</ele>
	<time>2025-08-16T09:36:34.000Z</time>
</trkpt>
<trkpt lat="45.9626960" lon="10.1765070">
	<ele>1689.00</ele>
	<time>2025-08-16T09:36:35.000Z</time>
</trkpt>
<trkpt lat="45.9626990" lon="10.1765080">
	<ele>1689.00</ele>
	<time>2025-08-16T09:36:36.000Z</time>
</trkpt>
<trkpt lat="45.9626990" lon="10.1765080">
	<ele>1689.00</ele>
	<time>2025-08-16T09:36:37.000Z</time>
</trkpt>
<trkpt lat="45.9627000" lon="10.1765080">
	<ele>1689.00</ele>
	<time>2025-08-16T09:36:38.000Z</time>
</trkpt>
<trkpt lat="45.9627020" lon="10.1765090">
	<ele>1689.00</ele>
	<time>2025-08-16T09:36:39.000Z</time>
</trkpt>
<trkpt lat="45.9627020" lon="10.1765070">
	<ele>1689.00</ele>
	<time>2025-08-16T09:36:40.000Z</time>
</trkpt>
<trkpt lat="45.9627040" lon="10.1765080">
	<ele>1689.00</ele>
	<time>2025-08-16T09:36:41.000Z</time>
</trkpt>
<trkpt lat="45.9627070" lon="10.1765120">
	<ele>1689.00</ele>
	<time>2025-08-16T09:36:42.000Z</time>
</trkpt>
<trkpt lat="45.9627120" lon="10.1765210">
	<ele>1689.00</ele>
	<time>2025-08-16T09:36:43.000Z</time>
</trkpt>
<trkpt lat="45.9627230" lon="10.1765330">
	<ele>1689.00</ele>
	<time>2025-08-16T09:36:44.000Z</time>
</trkpt>
<trkpt lat="45.9627360" lon="10.1765440">
	<ele>1688.80</ele>
	<time>2025-08-16T09:36:45.000Z</time>
</trkpt>
<trkpt lat="45.9627490" lon="10.1765510">
	<ele>1688.80</ele>
	<time>2025-08-16T09:36:46.000Z</time>
</trkpt>
<trkpt lat="45.9627620" lon="10.1765520">
	<ele>1688.60</ele>
	<time>2025-08-16T09:36:47.000Z</time>
</trkpt>
<trkpt lat="45.9627750" lon="10.1765570">
	<ele>1688.40</ele>
	<time>2025-08-16T09:36:48.000Z</time>
</trkpt>
<trkpt lat="45.9627840" lon="10.1765700">
	<ele>1688.20</ele>
	<time>2025-08-16T09:36:49.000Z</time>
</trkpt>
<trkpt lat="45.9627930" lon="10.1765860">
	<ele>1688.00</ele>
	<time>2025-08-16T09:36:50.000Z</time>
</trkpt>
<trkpt lat="45.9628000" lon="10.1765980">
	<ele>1687.60</ele>
	<time>2025-08-16T09:36:51.000Z</time>
</trkpt>
<trkpt lat="45.9628120" lon="10.1766170">
	<ele>1687.60</ele>
	<time>2025-08-16T09:36:52.000Z</time>
</trkpt>
<trkpt lat="45.9628180" lon="10.1766320">
	<ele>1687.40</ele>
	<time>2025-08-16T09:36:53.000Z</time>
</trkpt>
<trkpt lat="45.9628260" lon="10.1766470">
	<ele>1687.20</ele>
	<time>2025-08-16T09:36:54.000Z</time>
</trkpt>
<trkpt lat="45.9628300" lon="10.1766630">
	<ele>1687.00</ele>
	<time>2025-08-16T09:36:55.000Z</time>
</trkpt>
<trkpt lat="45.9628310" lon="10.1766820">
	<ele>1686.80</ele>
	<time>2025-08-16T09:36:56.000Z</time>
</trkpt>
<trkpt lat="45.9628320" lon="10.1767000">
	<ele>1686.80</ele>
	<time>2025-08-16T09:36:57.000Z</time>
</trkpt>
<trkpt lat="45.9628310" lon="10.1767200">
	<ele>1686.60</ele>
	<time>2025-08-16T09:36:58.000Z</time>
</trkpt>
<trkpt lat="45.9628300" lon="10.1767340">
	<ele>1686.40</ele>
	<time>2025-08-16T09:36:59.000Z</time>
</trkpt>
<trkpt lat="45.9628300" lon="10.1767550">
	<ele>1686.20</ele>
	<time>2025-08-16T09:37:00.000Z</time>
</trkpt>
<trkpt lat="45.9628310" lon="10.1767680">
	<ele>1686.20</ele>
	<time>2025-08-16T09:37:01.000Z</time>
</trkpt>
<trkpt lat="45.9628350" lon="10.1767860">
	<ele>1686.00</ele>
	<time>2025-08-16T09:37:02.000Z</time>
</trkpt>
<trkpt lat="45.9628370" lon="10.1767980">
	<ele>1685.80</ele>
	<time>2025-08-16T09:37:03.000Z</time>
</trkpt>
<trkpt lat="45.9628430" lon="10.1768150">
	<ele>1685.80</ele>
	<time>2025-08-16T09:37:04.000Z</time>
</trkpt>
<trkpt lat="45.9628520" lon="10.1768220">
	<ele>1685.60</ele>
	<time>2025-08-16T09:37:05.000Z</time>
</trkpt>
<trkpt lat="45.9628640" lon="10.1768330">
	<ele>1685.20</ele>
	<time>2025-08-16T09:37:06.000Z</time>
</trkpt>
<trkpt lat="45.9628740" lon="10.1768470">
	<ele>1684.60</ele>
	<time>2025-08-16T09:37:07.000Z</time>
</trkpt>
<trkpt lat="45.9628840" lon="10.1768570">
	<ele>1684.40</ele>
	<time>2025-08-16T09:37:08.000Z</time>
</trkpt>
<trkpt lat="45.9628890" lon="10.1768710">
	<ele>1684.20</ele>
	<time>2025-08-16T09:37:09.000Z</time>
</trkpt>
<trkpt lat="45.9628980" lon="10.1768920">
	<ele>1683.80</ele>
	<time>2025-08-16T09:37:10.000Z</time>
</trkpt>
<trkpt lat="45.9629040" lon="10.1769060">
	<ele>1683.40</ele>
	<time>2025-08-16T09:37:11.000Z</time>
</trkpt>
<trkpt lat="45.9629090" lon="10.1769210">
	<ele>1683.00</ele>
	<time>2025-08-16T09:37:12.000Z</time>
</trkpt>
<trkpt lat="45.9629160" lon="10.1769350">
	<ele>1682.60</ele>
	<time>2025-08-16T09:37:13.000Z</time>
</trkpt>
<trkpt lat="45.9629270" lon="10.1769510">
	<ele>1682.20</ele>
	<time>2025-08-16T09:37:14.000Z</time>
</trkpt>
<trkpt lat="45.9629340" lon="10.1769640">
	<ele>1682.00</ele>
	<time>2025-08-16T09:37:15.000Z</time>
</trkpt>
<trkpt lat="45.9629420" lon="10.1769780">
	<ele>1681.60</ele>
	<time>2025-08-16T09:37:16.000Z</time>
</trkpt>
<trkpt lat="45.9629470" lon="10.1769880">
	<ele>1681.60</ele>
	<time>2025-08-16T09:37:17.000Z</time>
</trkpt>
<trkpt lat="45.9629520" lon="10.1770050">
	<ele>1681.20</ele>
	<time>2025-08-16T09:37:18.000Z</time>
</trkpt>
<trkpt lat="45.9629560" lon="10.1770240">
	<ele>1681.20</ele>
	<time>2025-08-16T09:37:19.000Z</time>
</trkpt>
<trkpt lat="45.9629640" lon="10.1770460">
	<ele>1681.00</ele>
	<time>2025-08-16T09:37:20.000Z</time>
</trkpt>
<trkpt lat="45.9629690" lon="10.1770670">
	<ele>1681.00</ele>
	<time>2025-08-16T09:37:21.000Z</time>
</trkpt>
<trkpt lat="45.9629750" lon="10.1770840">
	<ele>1681.00</ele>
	<time>2025-08-16T09:37:22.000Z</time>
</trkpt>
<trkpt lat="45.9629770" lon="10.1771060">
	<ele>1680.60</ele>
	<time>2025-08-16T09:37:23.000Z</time>
</trkpt>
<trkpt lat="45.9629810" lon="10.1771260">
	<ele>1680.40</ele>
	<time>2025-08-16T09:37:24.000Z</time>
</trkpt>
<trkpt lat="45.9629860" lon="10.1771450">
	<ele>1680.20</ele>
	<time>2025-08-16T09:37:25.000Z</time>
</trkpt>
<trkpt lat="45.9629880" lon="10.1771630">
	<ele>1680.00</ele>
	<time>2025-08-16T09:37:26.000Z</time>
</trkpt>
<trkpt lat="45.9629870" lon="10.1771790">
	<ele>1680.00</ele>
	<time>2025-08-16T09:37:27.000Z</time>
</trkpt>
<trkpt lat="45.9629880" lon="10.1771940">
	<ele>1679.80</ele>
	<time>2025-08-16T09:37:28.000Z</time>
</trkpt>
<trkpt lat="45.9629880" lon="10.1772200">
	<ele>1679.80</ele>
	<time>2025-08-16T09:37:29.000Z</time>
</trkpt>
<trkpt lat="45.9629850" lon="10.1772400">
	<ele>1679.80</ele>
	<time>2025-08-16T09:37:30.000Z</time>
</trkpt>
<trkpt lat="45.9629850" lon="10.1772600">
	<ele>1679.60</ele>
	<time>2025-08-16T09:37:31.000Z</time>
</trkpt>
<trkpt lat="45.9629850" lon="10.1772760">
	<ele>1679.40</ele>
	<time>2025-08-16T09:37:32.000Z</time>
</trkpt>
<trkpt lat="45.9629820" lon="10.1772940">
	<ele>1679.20</ele>
	<time>2025-08-16T09:37:33.000Z</time>
</trkpt>
<trkpt lat="45.9629760" lon="10.1773130">
	<ele>1679.00</ele>
	<time>2025-08-16T09:37:34.000Z</time>
</trkpt>
<trkpt lat="45.9629660" lon="10.1773310">
	<ele>1678.80</ele>
	<time>2025-08-16T09:37:35.000Z</time>
</trkpt>
<trkpt lat="45.9629600" lon="10.1773470">
	<ele>1678.80</ele>
	<time>2025-08-16T09:37:36.000Z</time>
</trkpt>
<trkpt lat="45.9629600" lon="10.1773590">
	<ele>1678.60</ele>
	<time>2025-08-16T09:37:37.000Z</time>
</trkpt>
<trkpt lat="45.9629620" lon="10.1773750">
	<ele>1678.40</ele>
	<time>2025-08-16T09:37:38.000Z</time>
</trkpt>
<trkpt lat="45.9629600" lon="10.1773920">
	<ele>1678.20</ele>
	<time>2025-08-16T09:37:39.000Z</time>
</trkpt>
<trkpt lat="45.9629540" lon="10.1774090">
	<ele>1678.00</ele>
	<time>2025-08-16T09:37:40.000Z</time>
</trkpt>
<trkpt lat="45.9629460" lon="10.1774220">
	<ele>1677.80</ele>
	<time>2025-08-16T09:37:41.000Z</time>
</trkpt>
<trkpt lat="45.9629380" lon="10.1774370">
	<ele>1677.40</ele>
	<time>2025-08-16T09:37:42.000Z</time>
</trkpt>
<trkpt lat="45.9629340" lon="10.1774540">
	<ele>1677.20</ele>
	<time>2025-08-16T09:37:43.000Z</time>
</trkpt>
<trkpt lat="45.9629290" lon="10.1774710">
	<ele>1677.00</ele>
	<time>2025-08-16T09:37:44.000Z</time>
</trkpt>
<trkpt lat="45.9629270" lon="10.1774880">
	<ele>1676.80</ele>
	<time>2025-08-16T09:37:45.000Z</time>
</trkpt>
<trkpt lat="45.9629260" lon="10.1775080">
	<ele>1676.60</ele>
	<time>2025-08-16T09:37:46.000Z</time>
</trkpt>
<trkpt lat="45.9629240" lon="10.1775300">
	<ele>1676.60</ele>
	<time>2025-08-16T09:37:47.000Z</time>
</trkpt>
<trkpt lat="45.9629180" lon="10.1775490">
	<ele>1676.60</ele>
	<time>2025-08-16T09:37:48.000Z</time>
</trkpt>
<trkpt lat="45.9629170" lon="10.1775660">
	<ele>1676.40</ele>
	<time>2025-08-16T09:37:49.000Z</time>
</trkpt>
<trkpt lat="45.9629150" lon="10.1775850">
	<ele>1676.20</ele>
	<time>2025-08-16T09:37:50.000Z</time>
</trkpt>
<trkpt lat="45.9629170" lon="10.1776000">
	<ele>1676.00</ele>
	<time>2025-08-16T09:37:51.000Z</time>
</trkpt>
<trkpt lat="45.9629230" lon="10.1776160">
	<ele>1675.80</ele>
	<time>2025-08-16T09:37:52.000Z</time>
</trkpt>
<trkpt lat="45.9629250" lon="10.1776320">
	<ele>1675.40</ele>
	<time>2025-08-16T09:37:53.000Z</time>
</trkpt>
<trkpt lat="45.9629290" lon="10.1776500">
	<ele>1675.20</ele>
	<time>2025-08-16T09:37:54.000Z</time>
</trkpt>
<trkpt lat="45.9629300" lon="10.1776710">
	<ele>1675.00</ele>
	<time>2025-08-16T09:37:55.000Z</time>
</trkpt>
<trkpt lat="45.9629320" lon="10.1776930">
	<ele>1674.80</ele>
	<time>2025-08-16T09:37:56.000Z</time>
</trkpt>
<trkpt lat="45.9629340" lon="10.1777100">
	<ele>1674.60</ele>
	<time>2025-08-16T09:37:57.000Z</time>
</trkpt>
<trkpt lat="45.9629370" lon="10.1777270">
	<ele>1674.40</ele>
	<time>2025-08-16T09:37:58.000Z</time>
</trkpt>
<trkpt lat="45.9629390" lon="10.1777450">
	<ele>1674.20</ele>
	<time>2025-08-16T09:37:59.000Z</time>
</trkpt>
<trkpt lat="45.9629410" lon="10.1777590">
	<ele>1674.00</ele>
	<time>2025-08-16T09:38:00.000Z</time>
</trkpt>
<trkpt lat="45.9629440" lon="10.1777780">
	<ele>1673.80</ele>
	<time>2025-08-16T09:38:01.000Z</time>
</trkpt>
<trkpt lat="45.9629490" lon="10.1777940">
	<ele>1673.40</ele>
	<time>2025-08-16T09:38:02.000Z</time>
</trkpt>
<trkpt lat="45.9629540" lon="10.1778120">
	<ele>1673.20</ele>
	<time>2025-08-16T09:38:03.000Z</time>
</trkpt>
<trkpt lat="45.9629580" lon="10.1778300">
	<ele>1673.00</ele>
	<time>2025-08-16T09:38:04.000Z</time>
</trkpt>
<trkpt lat="45.9629620" lon="10.1778510">
	<ele>1673.00</ele>
	<time>2025-08-16T09:38:05.000Z</time>
</trkpt>
<trkpt lat="45.9629650" lon="10.1778690">
	<ele>1672.60</ele>
	<time>2025-08-16T09:38:06.000Z</time>
</trkpt>
<trkpt lat="45.9629690" lon="10.1778870">
	<ele>1672.60</ele>
	<time>2025-08-16T09:38:07.000Z</time>
</trkpt>
<trkpt lat="45.9629740" lon="10.1779070">
	<ele>1672.40</ele>
	<time>2025-08-16T09:38:08.000Z</time>
</trkpt>
<trkpt lat="45.9629760" lon="10.1779230">
	<ele>1672.20</ele>
	<time>2025-08-16T09:38:09.000Z</time>
</trkpt>
<trkpt lat="45.9629780" lon="10.1779390">
	<ele>1672.00</ele>
	<time>2025-08-16T09:38:10.000Z</time>
</trkpt>
<trkpt lat="45.9629790" lon="10.1779570">
	<ele>1671.80</ele>
	<time>2025-08-16T09:38:11.000Z</time>
</trkpt>
<trkpt lat="45.9629820" lon="10.1779770">
	<ele>1671.60</ele>
	<time>2025-08-16T09:38:12.000Z</time>
</trkpt>
<trkpt lat="45.9629830" lon="10.1779930">
	<ele>1671.40</ele>
	<time>2025-08-16T09:38:13.000Z</time>
</trkpt>
<trkpt lat="45.9629830" lon="10.1780090">
	<ele>1671.20</ele>
	<time>2025-08-16T09:38:14.000Z</time>
</trkpt>
<trkpt lat="45.9629810" lon="10.1780270">
	<ele>1670.80</ele>
	<time>2025-08-16T09:38:15.000Z</time>
</trkpt>
<trkpt lat="45.9629800" lon="10.1780430">
	<ele>1670.40</ele>
	<time>2025-08-16T09:38:16.000Z</time>
</trkpt>
<trkpt lat="45.9629790" lon="10.1780610">
	<ele>1670.20</ele>
	<time>2025-08-16T09:38:17.000Z</time>
</trkpt>
<trkpt lat="45.9629790" lon="10.1780790">
	<ele>1670.00</ele>
	<time>2025-08-16T09:38:18.000Z</time>
</trkpt>
<trkpt lat="45.9629810" lon="10.1781020">
	<ele>1669.80</ele>
	<time>2025-08-16T09:38:19.000Z</time>
</trkpt>
<trkpt lat="45.9629820" lon="10.1781190">
	<ele>1669.60</ele>
	<time>2025-08-16T09:38:20.000Z</time>
</trkpt>
<trkpt lat="45.9629820" lon="10.1781380">
	<ele>1669.40</ele>
	<time>2025-08-16T09:38:21.000Z</time>
</trkpt>
<trkpt lat="45.9629850" lon="10.1781600">
	<ele>1669.20</ele>
	<time>2025-08-16T09:38:22.000Z</time>
</trkpt>
<trkpt lat="45.9629880" lon="10.1781740">
	<ele>1669.00</ele>
	<time>2025-08-16T09:38:23.000Z</time>
</trkpt>
<trkpt lat="45.9629860" lon="10.1781920">
	<ele>1668.60</ele>
	<time>2025-08-16T09:38:24.000Z</time>
</trkpt>
<trkpt lat="45.9629850" lon="10.1782110">
	<ele>1668.20</ele>
	<time>2025-08-16T09:38:25.000Z</time>
</trkpt>
<trkpt lat="45.9629870" lon="10.1782270">
	<ele>1668.20</ele>
	<time>2025-08-16T09:38:26.000Z</time>
</trkpt>
<trkpt lat="45.9629870" lon="10.1782440">
	<ele>1668.00</ele>
	<time>2025-08-16T09:38:27.000Z</time>
</trkpt>
<trkpt lat="45.9629860" lon="10.1782620">
	<ele>1667.60</ele>
	<time>2025-08-16T09:38:28.000Z</time>
</trkpt>
<trkpt lat="45.9629850" lon="10.1782790">
	<ele>1667.40</ele>
	<time>2025-08-16T09:38:29.000Z</time>
</trkpt>
<trkpt lat="45.9629880" lon="10.1782990">
	<ele>1667.40</ele>
	<time>2025-08-16T09:38:30.000Z</time>
</trkpt>
<trkpt lat="45.9629860" lon="10.1783200">
	<ele>1667.20</ele>
	<time>2025-08-16T09:38:31.000Z</time>
</trkpt>
<trkpt lat="45.9629890" lon="10.1783380">
	<ele>1667.00</ele>
	<time>2025-08-16T09:38:32.000Z</time>
</trkpt>
<trkpt lat="45.9629900" lon="10.1783560">
	<ele>1666.80</ele>
	<time>2025-08-16T09:38:33.000Z</time>
</trkpt>
<trkpt lat="45.9629900" lon="10.1783770">
	<ele>1666.40</ele>
	<time>2025-08-16T09:38:34.000Z</time>
</trkpt>
<trkpt lat="45.9629900" lon="10.1783960">
	<ele>1666.20</ele>
	<time>2025-08-16T09:38:35.000Z</time>
</trkpt>
<trkpt lat="45.9629930" lon="10.1784130">
	<ele>1666.00</ele>
	<time>2025-08-16T09:38:36.000Z</time>
</trkpt>
<trkpt lat="45.9629980" lon="10.1784300">
	<ele>1665.80</ele>
	<time>2025-08-16T09:38:37.000Z</time>
</trkpt>
<trkpt lat="45.9630020" lon="10.1784430">
	<ele>1665.60</ele>
	<time>2025-08-16T09:38:38.000Z</time>
</trkpt>
<trkpt lat="45.9630080" lon="10.1784600">
	<ele>1665.60</ele>
	<time>2025-08-16T09:38:39.000Z</time>
</trkpt>
<trkpt lat="45.9630100" lon="10.1784780">
	<ele>1665.20</ele>
	<time>2025-08-16T09:38:40.000Z</time>
</trkpt>
<trkpt lat="45.9630110" lon="10.1785010">
	<ele>1665.00</ele>
	<time>2025-08-16T09:38:41.000Z</time>
</trkpt>
<trkpt lat="45.9630140" lon="10.1785220">
	<ele>1665.00</ele>
	<time>2025-08-16T09:38:42.000Z</time>
</trkpt>
<trkpt lat="45.9630180" lon="10.1785450">
	<ele>1664.80</ele>
	<time>2025-08-16T09:38:43.000Z</time>
</trkpt>
<trkpt lat="45.9630210" lon="10.1785670">
	<ele>1664.60</ele>
	<time>2025-08-16T09:38:44.000Z</time>
</trkpt>
<trkpt lat="45.9630210" lon="10.1785880">
	<ele>1664.20</ele>
	<time>2025-08-16T09:38:45.000Z</time>
</trkpt>
<trkpt lat="45.9630200" lon="10.1786100">
	<ele>1664.00</ele>
	<time>2025-08-16T09:38:46.000Z</time>
</trkpt>
<trkpt lat="45.9630200" lon="10.1786280">
	<ele>1663.80</ele>
	<time>2025-08-16T09:38:47.000Z</time>
</trkpt>
<trkpt lat="45.9630220" lon="10.1786470">
	<ele>1663.60</ele>
	<time>2025-08-16T09:38:48.000Z</time>
</trkpt>
<trkpt lat="45.9630250" lon="10.1786660">
	<ele>1663.40</ele>
	<time>2025-08-16T09:38:49.000Z</time>
</trkpt>
<trkpt lat="45.9630300" lon="10.1786820">
	<ele>1663.40</ele>
	<time>2025-08-16T09:38:50.000Z</time>
</trkpt>
<trkpt lat="45.9630350" lon="10.1786990">
	<ele>1663.20</ele>
	<time>2025-08-16T09:38:51.000Z</time>
</trkpt>
<trkpt lat="45.9630370" lon="10.1787210">
	<ele>1663.00</ele>
	<time>2025-08-16T09:38:52.000Z</time>
</trkpt>
<trkpt lat="45.9630400" lon="10.1787370">
	<ele>1663.00</ele>
	<time>2025-08-16T09:38:53.000Z</time>
</trkpt>
<trkpt lat="45.9630410" lon="10.1787560">
	<ele>1662.40</ele>
	<time>2025-08-16T09:38:54.000Z</time>
</trkpt>
<trkpt lat="45.9630480" lon="10.1787720">
	<ele>1662.00</ele>
	<time>2025-08-16T09:38:55.000Z</time>
</trkpt>
<trkpt lat="45.9630560" lon="10.1787870">
	<ele>1661.80</ele>
	<time>2025-08-16T09:38:56.000Z</time>
</trkpt>
<trkpt lat="45.9630640" lon="10.1788040">
	<ele>1661.80</ele>
	<time>2025-08-16T09:38:57.000Z</time>
</trkpt>
<trkpt lat="45.9630740" lon="10.1788230">
	<ele>1661.60</ele>
	<time>2025-08-16T09:38:58.000Z</time>
</trkpt>
<trkpt lat="45.9630860" lon="10.1788420">
	<ele>1661.40</ele>
	<time>2025-08-16T09:38:59.000Z</time>
</trkpt>
<trkpt lat="45.9630960" lon="10.1788560">
	<ele>1661.20</ele>
	<time>2025-08-16T09:39:00.000Z</time>
</trkpt>
<trkpt lat="45.9631030" lon="10.1788710">
	<ele>1661.00</ele>
	<time>2025-08-16T09:39:01.000Z</time>
</trkpt>
<trkpt lat="45.9631100" lon="10.1788830">
	<ele>1660.80</ele>
	<time>2025-08-16T09:39:02.000Z</time>
</trkpt>
<trkpt lat="45.9631170" lon="10.1788950">
	<ele>1660.60</ele>
	<time>2025-08-16T09:39:03.000Z</time>
</trkpt>
<trkpt lat="45.9631230" lon="10.1789060">
	<ele>1660.20</ele>
	<time>2025-08-16T09:39:04.000Z</time>
</trkpt>
<trkpt lat="45.9631310" lon="10.1789210">
	<ele>1660.00</ele>
	<time>2025-08-16T09:39:05.000Z</time>
</trkpt>
<trkpt lat="45.9631390" lon="10.1789380">
	<ele>1659.80</ele>
	<time>2025-08-16T09:39:06.000Z</time>
</trkpt>
<trkpt lat="45.9631400" lon="10.1789570">
	<ele>1659.60</ele>
	<time>2025-08-16T09:39:07.000Z</time>
</trkpt>
<trkpt lat="45.9631450" lon="10.1789790">
	<ele>1659.40</ele>
	<time>2025-08-16T09:39:08.000Z</time>
</trkpt>
<trkpt lat="45.9631450" lon="10.1789960">
	<ele>1659.40</ele>
	<time>2025-08-16T09:39:09.000Z</time>
</trkpt>
<trkpt lat="45.9631520" lon="10.1790110">
	<ele>1659.20</ele>
	<time>2025-08-16T09:39:10.000Z</time>
</trkpt>
<trkpt lat="45.9631620" lon="10.1790220">
	<ele>1659.20</ele>
	<time>2025-08-16T09:39:11.000Z</time>
</trkpt>
<trkpt lat="45.9631700" lon="10.1790400">
	<ele>1659.20</ele>
	<time>2025-08-16T09:39:12.000Z</time>
</trkpt>
<trkpt lat="45.9631750" lon="10.1790580">
	<ele>1659.00</ele>
	<time>2025-08-16T09:39:13.000Z</time>
</trkpt>
<trkpt lat="45.9631740" lon="10.1790810">
	<ele>1659.00</ele>
	<time>2025-08-16T09:39:14.000Z</time>
</trkpt>
<trkpt lat="45.9631750" lon="10.1790980">
	<ele>1658.80</ele>
	<time>2025-08-16T09:39:15.000Z</time>
</trkpt>
<trkpt lat="45.9631750" lon="10.1791150">
	<ele>1658.60</ele>
	<time>2025-08-16T09:39:16.000Z</time>
</trkpt>
<trkpt lat="45.9631770" lon="10.1791360">
	<ele>1658.60</ele>
	<time>2025-08-16T09:39:17.000Z</time>
</trkpt>
<trkpt lat="45.9631770" lon="10.1791580">
	<ele>1658.40</ele>
	<time>2025-08-16T09:39:18.000Z</time>
</trkpt>
<trkpt lat="45.9631780" lon="10.1791790">
	<ele>1658.40</ele>
	<time>2025-08-16T09:39:19.000Z</time>
</trkpt>
<trkpt lat="45.9631790" lon="10.1792020">
	<ele>1658.20</ele>
	<time>2025-08-16T09:39:20.000Z</time>
</trkpt>
<trkpt lat="45.9631790" lon="10.1792200">
	<ele>1658.00</ele>
	<time>2025-08-16T09:39:21.000Z</time>
</trkpt>
<trkpt lat="45.9631780" lon="10.1792390">
	<ele>1657.80</ele>
	<time>2025-08-16T09:39:22.000Z</time>
</trkpt>
<trkpt lat="45.9631810" lon="10.1792590">
	<ele>1657.40</ele>
	<time>2025-08-16T09:39:23.000Z</time>
</trkpt>
<trkpt lat="45.9631820" lon="10.1792780">
	<ele>1657.20</ele>
	<time>2025-08-16T09:39:24.000Z</time>
</trkpt>
<trkpt lat="45.9631840" lon="10.1792960">
	<ele>1656.80</ele>
	<time>2025-08-16T09:39:25.000Z</time>
</trkpt>
<trkpt lat="45.9631830" lon="10.1793120">
	<ele>1656.60</ele>
	<time>2025-08-16T09:39:26.000Z</time>
</trkpt>
<trkpt lat="45.9631830" lon="10.1793320">
	<ele>1656.40</ele>
	<time>2025-08-16T09:39:27.000Z</time>
</trkpt>
<trkpt lat="45.9631810" lon="10.1793510">
	<ele>1656.00</ele>
	<time>2025-08-16T09:39:28.000Z</time>
</trkpt>
<trkpt lat="45.9631790" lon="10.1793700">
	<ele>1655.80</ele>
	<time>2025-08-16T09:39:29.000Z</time>
</trkpt>
<trkpt lat="45.9631770" lon="10.1793910">
	<ele>1655.60</ele>
	<time>2025-08-16T09:39:30.000Z</time>
</trkpt>
<trkpt lat="45.9631740" lon="10.1794120">
	<ele>1655.60</ele>
	<time>2025-08-16T09:39:31.000Z</time>
</trkpt>
<trkpt lat="45.9631730" lon="10.1794320">
	<ele>1655.40</ele>
	<time>2025-08-16T09:39:32.000Z</time>
</trkpt>
<trkpt lat="45.9631710" lon="10.1794540">
	<ele>1655.20</ele>
	<time>2025-08-16T09:39:33.000Z</time>
</trkpt>
<trkpt lat="45.9631660" lon="10.1794750">
	<ele>1655.20</ele>
	<time>2025-08-16T09:39:34.000Z</time>
</trkpt>
<trkpt lat="45.9631630" lon="10.1794950">
	<ele>1655.00</ele>
	<time>2025-08-16T09:39:35.000Z</time>
</trkpt>
<trkpt lat="45.9631640" lon="10.1795160">
	<ele>1654.80</ele>
	<time>2025-08-16T09:39:36.000Z</time>
</trkpt>
<trkpt lat="45.9631670" lon="10.1795390">
	<ele>1654.60</ele>
	<time>2025-08-16T09:39:37.000Z</time>
</trkpt>
<trkpt lat="45.9631680" lon="10.1795600">
	<ele>1654.40</ele>
	<time>2025-08-16T09:39:38.000Z</time>
</trkpt>
<trkpt lat="45.9631700" lon="10.1795790">
	<ele>1654.40</ele>
	<time>2025-08-16T09:39:39.000Z</time>
</trkpt>
<trkpt lat="45.9631730" lon="10.1795980">
	<ele>1654.40</ele>
	<time>2025-08-16T09:39:40.000Z</time>
</trkpt>
<trkpt lat="45.9631750" lon="10.1796140">
	<ele>1654.00</ele>
	<time>2025-08-16T09:39:41.000Z</time>
</trkpt>
<trkpt lat="45.9631780" lon="10.1796300">
	<ele>1653.60</ele>
	<time>2025-08-16T09:39:42.000Z</time>
</trkpt>
<trkpt lat="45.9631840" lon="10.1796490">
	<ele>1653.60</ele>
	<time>2025-08-16T09:39:43.000Z</time>
</trkpt>
<trkpt lat="45.9631870" lon="10.1796640">
	<ele>1653.40</ele>
	<time>2025-08-16T09:39:44.000Z</time>
</trkpt>
<trkpt lat="45.9631970" lon="10.1796790">
	<ele>1653.20</ele>
	<time>2025-08-16T09:39:45.000Z</time>
</trkpt>
<trkpt lat="45.9632040" lon="10.1796960">
	<ele>1653.00</ele>
	<time>2025-08-16T09:39:46.000Z</time>
</trkpt>
<trkpt lat="45.9632120" lon="10.1797180">
	<ele>1653.00</ele>
	<time>2025-08-16T09:39:47.000Z</time>
</trkpt>
<trkpt lat="45.9632130" lon="10.1797320">
	<ele>1652.80</ele>
	<time>2025-08-16T09:39:48.000Z</time>
</trkpt>
<trkpt lat="45.9632110" lon="10.1797540">
	<ele>1652.40</ele>
	<time>2025-08-16T09:39:49.000Z</time>
</trkpt>
<trkpt lat="45.9632140" lon="10.1797760">
	<ele>1652.20</ele>
	<time>2025-08-16T09:39:50.000Z</time>
</trkpt>
<trkpt lat="45.9632160" lon="10.1797920">
	<ele>1652.00</ele>
	<time>2025-08-16T09:39:51.000Z</time>
</trkpt>
<trkpt lat="45.9632190" lon="10.1798100">
	<ele>1652.00</ele>
	<time>2025-08-16T09:39:52.000Z</time>
</trkpt>
<trkpt lat="45.9632210" lon="10.1798290">
	<ele>1651.80</ele>
	<time>2025-08-16T09:39:53.000Z</time>
</trkpt>
<trkpt lat="45.9632230" lon="10.1798450">
	<ele>1651.40</ele>
	<time>2025-08-16T09:39:54.000Z</time>
</trkpt>
<trkpt lat="45.9632260" lon="10.1798690">
	<ele>1651.40</ele>
	<time>2025-08-16T09:39:55.000Z</time>
</trkpt>
<trkpt lat="45.9632280" lon="10.1798880">
	<ele>1651.00</ele>
	<time>2025-08-16T09:39:56.000Z</time>
</trkpt>
<trkpt lat="45.9632310" lon="10.1799050">
	<ele>1651.00</ele>
	<time>2025-08-16T09:39:57.000Z</time>
</trkpt>
<trkpt lat="45.9632340" lon="10.1799230">
	<ele>1650.80</ele>
	<time>2025-08-16T09:39:58.000Z</time>
</trkpt>
<trkpt lat="45.9632360" lon="10.1799400">
	<ele>1650.40</ele>
	<time>2025-08-16T09:39:59.000Z</time>
</trkpt>
<trkpt lat="45.9632360" lon="10.1799580">
	<ele>1650.20</ele>
	<time>2025-08-16T09:40:00.000Z</time>
</trkpt>
<trkpt lat="45.9632380" lon="10.1799770">
	<ele>1650.00</ele>
	<time>2025-08-16T09:40:01.000Z</time>
</trkpt>
<trkpt lat="45.9632400" lon="10.1799990">
	<ele>1649.80</ele>
	<time>2025-08-16T09:40:02.000Z</time>
</trkpt>
<trkpt lat="45.9632440" lon="10.1800180">
	<ele>1649.60</ele>
	<time>2025-08-16T09:40:03.000Z</time>
</trkpt>
<trkpt lat="45.9632470" lon="10.1800360">
	<ele>1649.60</ele>
	<time>2025-08-16T09:40:04.000Z</time>
</trkpt>
<trkpt lat="45.9632520" lon="10.1800520">
	<ele>1649.40</ele>
	<time>2025-08-16T09:40:05.000Z</time>
</trkpt>
<trkpt lat="45.9632580" lon="10.1800690">
	<ele>1649.40</ele>
	<time>2025-08-16T09:40:06.000Z</time>
</trkpt>
<trkpt lat="45.9632660" lon="10.1800920">
	<ele>1649.20</ele>
	<time>2025-08-16T09:40:07.000Z</time>
</trkpt>
<trkpt lat="45.9632730" lon="10.1801140">
	<ele>1649.20</ele>
	<time>2025-08-16T09:40:08.000Z</time>
</trkpt>
<trkpt lat="45.9632780" lon="10.1801360">
	<ele>1649.00</ele>
	<time>2025-08-16T09:40:09.000Z</time>
</trkpt>
<trkpt lat="45.9632850" lon="10.1801550">
	<ele>1649.00</ele>
	<time>2025-08-16T09:40:10.000Z</time>
</trkpt>
<trkpt lat="45.9632890" lon="10.1801730">
	<ele>1648.80</ele>
	<time>2025-08-16T09:40:11.000Z</time>
</trkpt>
<trkpt lat="45.9632950" lon="10.1801920">
	<ele>1648.60</ele>
	<time>2025-08-16T09:40:12.000Z</time>
</trkpt>
<trkpt lat="45.9633010" lon="10.1802080">
	<ele>1648.60</ele>
	<time>2025-08-16T09:40:13.000Z</time>
</trkpt>
<trkpt lat="45.9633070" lon="10.1802230">
	<ele>1648.40</ele>
	<time>2025-08-16T09:40:14.000Z</time>
</trkpt>
<trkpt lat="45.9633110" lon="10.1802470">
	<ele>1648.40</ele>
	<time>2025-08-16T09:40:15.000Z</time>
</trkpt>
<trkpt lat="45.9633130" lon="10.1802720">
	<ele>1648.20</ele>
	<time>2025-08-16T09:40:16.000Z</time>
</trkpt>
<trkpt lat="45.9633160" lon="10.1802950">
	<ele>1648.00</ele>
	<time>2025-08-16T09:40:17.000Z</time>
</trkpt>
<trkpt lat="45.9633200" lon="10.1803180">
	<ele>1647.60</ele>
	<time>2025-08-16T09:40:18.000Z</time>
</trkpt>
<trkpt lat="45.9633240" lon="10.1803380">
	<ele>1647.40</ele>
	<time>2025-08-16T09:40:19.000Z</time>
</trkpt>
<trkpt lat="45.9633250" lon="10.1803590">
	<ele>1647.40</ele>
	<time>2025-08-16T09:40:20.000Z</time>
</trkpt>
<trkpt lat="45.9633320" lon="10.1803800">
	<ele>1647.20</ele>
	<time>2025-08-16T09:40:21.000Z</time>
</trkpt>
<trkpt lat="45.9633350" lon="10.1804010">
	<ele>1647.00</ele>
	<time>2025-08-16T09:40:22.000Z</time>
</trkpt>
<trkpt lat="45.9633390" lon="10.1804160">
	<ele>1646.80</ele>
	<time>2025-08-16T09:40:23.000Z</time>
</trkpt>
<trkpt lat="45.9633410" lon="10.1804400">
	<ele>1646.60</ele>
	<time>2025-08-16T09:40:24.000Z</time>
</trkpt>
<trkpt lat="45.9633510" lon="10.1804580">
	<ele>1646.40</ele>
	<time>2025-08-16T09:40:25.000Z</time>
</trkpt>
<trkpt lat="45.9633570" lon="10.1804740">
	<ele>1646.00</ele>
	<time>2025-08-16T09:40:26.000Z</time>
</trkpt>
<trkpt lat="45.9633630" lon="10.1804930">
	<ele>1645.80</ele>
	<time>2025-08-16T09:40:27.000Z</time>
</trkpt>
<trkpt lat="45.9633690" lon="10.1805110">
	<ele>1645.60</ele>
	<time>2025-08-16T09:40:28.000Z</time>
</trkpt>
<trkpt lat="45.9633750" lon="10.1805290">
	<ele>1645.40</ele>
	<time>2025-08-16T09:40:29.000Z</time>
</trkpt>
<trkpt lat="45.9633810" lon="10.1805480">
	<ele>1645.00</ele>
	<time>2025-08-16T09:40:30.000Z</time>
</trkpt>
<trkpt lat="45.9633850" lon="10.1805640">
	<ele>1644.60</ele>
	<time>2025-08-16T09:40:31.000Z</time>
</trkpt>
<trkpt lat="45.9633920" lon="10.1805810">
	<ele>1644.20</ele>
	<time>2025-08-16T09:40:32.000Z</time>
</trkpt>
<trkpt lat="45.9633960" lon="10.1805950">
	<ele>1644.00</ele>
	<time>2025-08-16T09:40:33.000Z</time>
</trkpt>
<trkpt lat="45.9634020" lon="10.1806090">
	<ele>1643.60</ele>
	<time>2025-08-16T09:40:34.000Z</time>
</trkpt>
<trkpt lat="45.9634010" lon="10.1806250">
	<ele>1643.60</ele>
	<time>2025-08-16T09:40:35.000Z</time>
</trkpt>
<trkpt lat="45.9634050" lon="10.1806460">
	<ele>1643.40</ele>
	<time>2025-08-16T09:40:36.000Z</time>
</trkpt>
<trkpt lat="45.9634120" lon="10.1806650">
	<ele>1643.20</ele>
	<time>2025-08-16T09:40:37.000Z</time>
</trkpt>
<trkpt lat="45.9634140" lon="10.1806810">
	<ele>1643.00</ele>
	<time>2025-08-16T09:40:38.000Z</time>
</trkpt>
<trkpt lat="45.9634150" lon="10.1806960">
	<ele>1642.80</ele>
	<time>2025-08-16T09:40:39.000Z</time>
</trkpt>
<trkpt lat="45.9634140" lon="10.1807140">
	<ele>1642.60</ele>
	<time>2025-08-16T09:40:40.000Z</time>
</trkpt>
<trkpt lat="45.9634110" lon="10.1807340">
	<ele>1642.60</ele>
	<time>2025-08-16T09:40:41.000Z</time>
</trkpt>
<trkpt lat="45.9634070" lon="10.1807500">
	<ele>1642.60</ele>
	<time>2025-08-16T09:40:42.000Z</time>
</trkpt>
<trkpt lat="45.9633990" lon="10.1807670">
	<ele>1642.60</ele>
	<time>2025-08-16T09:40:43.000Z</time>
</trkpt>
<trkpt lat="45.9633960" lon="10.1807910">
	<ele>1642.40</ele>
	<time>2025-08-16T09:40:44.000Z</time>
</trkpt>
<trkpt lat="45.9633950" lon="10.1808050">
	<ele>1642.40</ele>
	<time>2025-08-16T09:40:45.000Z</time>
</trkpt>
<trkpt lat="45.9633890" lon="10.1808270">
	<ele>1642.40</ele>
	<time>2025-08-16T09:40:46.000Z</time>
</trkpt>
<trkpt lat="45.9633870" lon="10.1808440">
	<ele>1642.20</ele>
	<time>2025-08-16T09:40:47.000Z</time>
</trkpt>
<trkpt lat="45.9633900" lon="10.1808570">
	<ele>1642.00</ele>
	<time>2025-08-16T09:40:48.000Z</time>
</trkpt>
<trkpt lat="45.9633930" lon="10.1808700">
	<ele>1642.00</ele>
	<time>2025-08-16T09:40:49.000Z</time>
</trkpt>
<trkpt lat="45.9633900" lon="10.1808860">
	<ele>1642.00</ele>
	<time>2025-08-16T09:40:50.000Z</time>
</trkpt>
<trkpt lat="45.9633840" lon="10.1808980">
	<ele>1642.00</ele>
	<time>2025-08-16T09:40:51.000Z</time>
</trkpt>
<trkpt lat="45.9633810" lon="10.1809090">
	<ele>1641.80</ele>
	<time>2025-08-16T09:40:52.000Z</time>
</trkpt>
<trkpt lat="45.9633790" lon="10.1809290">
	<ele>1641.80</ele>
	<time>2025-08-16T09:40:53.000Z</time>
</trkpt>
<trkpt lat="45.9633780" lon="10.1809450">
	<ele>1641.80</ele>
	<time>2025-08-16T09:40:54.000Z</time>
</trkpt>
<trkpt lat="45.9633730" lon="10.1809590">
	<ele>1641.80</ele>
	<time>2025-08-16T09:40:55.000Z</time>
</trkpt>
<trkpt lat="45.9633680" lon="10.1809750">
	<ele>1641.60</ele>
	<time>2025-08-16T09:40:56.000Z</time>
</trkpt>
<trkpt lat="45.9633620" lon="10.1809900">
	<ele>1641.20</ele>
	<time>2025-08-16T09:40:57.000Z</time>
</trkpt>
<trkpt lat="45.9633570" lon="10.1810080">
	<ele>1641.00</ele>
	<time>2025-08-16T09:40:58.000Z</time>
</trkpt>
<trkpt lat="45.9633500" lon="10.1810220">
	<ele>1640.80</ele>
	<time>2025-08-16T09:40:59.000Z</time>
</trkpt>
<trkpt lat="45.9633470" lon="10.1810450">
	<ele>1640.80</ele>
	<time>2025-08-16T09:41:00.000Z</time>
</trkpt>
<trkpt lat="45.9633440" lon="10.1810620">
	<ele>1640.40</ele>
	<time>2025-08-16T09:41:01.000Z</time>
</trkpt>
<trkpt lat="45.9633390" lon="10.1810800">
	<ele>1640.20</ele>
	<time>2025-08-16T09:41:02.000Z</time>
</trkpt>
<trkpt lat="45.9633360" lon="10.1810910">
	<ele>1640.00</ele>
	<time>2025-08-16T09:41:03.000Z</time>
</trkpt>
<trkpt lat="45.9633330" lon="10.1811080">
	<ele>1639.60</ele>
	<time>2025-08-16T09:41:04.000Z</time>
</trkpt>
<trkpt lat="45.9633290" lon="10.1811290">
	<ele>1639.40</ele>
	<time>2025-08-16T09:41:05.000Z</time>
</trkpt>
<trkpt lat="45.9633250" lon="10.1811450">
	<ele>1639.20</ele>
	<time>2025-08-16T09:41:06.000Z</time>
</trkpt>
<trkpt lat="45.9633230" lon="10.1811580">
	<ele>1639.00</ele>
	<time>2025-08-16T09:41:07.000Z</time>
</trkpt>
<trkpt lat="45.9633220" lon="10.1811760">
	<ele>1638.80</ele>
	<time>2025-08-16T09:41:08.000Z</time>
</trkpt>
<trkpt lat="45.9633210" lon="10.1811990">
	<ele>1638.60</ele>
	<time>2025-08-16T09:41:09.000Z</time>
</trkpt>
<trkpt lat="45.9633200" lon="10.1812130">
	<ele>1638.40</ele>
	<time>2025-08-16T09:41:10.000Z</time>
</trkpt>
<trkpt lat="45.9633190" lon="10.1812300">
	<ele>1638.20</ele>
	<time>2025-08-16T09:41:11.000Z</time>
</trkpt>
<trkpt lat="45.9633170" lon="10.1812520">
	<ele>1638.00</ele>
	<time>2025-08-16T09:41:12.000Z</time>
</trkpt>
<trkpt lat="45.9633150" lon="10.1812710">
	<ele>1637.80</ele>
	<time>2025-08-16T09:41:13.000Z</time>
</trkpt>
<trkpt lat="45.9633180" lon="10.1812920">
	<ele>1637.60</ele>
	<time>2025-08-16T09:41:14.000Z</time>
</trkpt>
<trkpt lat="45.9633250" lon="10.1813070">
	<ele>1637.40</ele>
	<time>2025-08-16T09:41:15.000Z</time>
</trkpt>
<trkpt lat="45.9633230" lon="10.1813290">
	<ele>1637.20</ele>
	<time>2025-08-16T09:41:16.000Z</time>
</trkpt>
<trkpt lat="45.9633200" lon="10.1813510">
	<ele>1637.00</ele>
	<time>2025-08-16T09:41:17.000Z</time>
</trkpt>
<trkpt lat="45.9633190" lon="10.1813640">
	<ele>1636.80</ele>
	<time>2025-08-16T09:41:18.000Z</time>
</trkpt>
<trkpt lat="45.9633170" lon="10.1813840">
	<ele>1636.40</ele>
	<time>2025-08-16T09:41:19.000Z</time>
</trkpt>
<trkpt lat="45.9633150" lon="10.1813980">
	<ele>1636.20</ele>
	<time>2025-08-16T09:41:20.000Z</time>
</trkpt>
<trkpt lat="45.9633100" lon="10.1814150">
	<ele>1636.00</ele>
	<time>2025-08-16T09:41:21.000Z</time>
</trkpt>
<trkpt lat="45.9633090" lon="10.1814330">
	<ele>1635.80</ele>
	<time>2025-08-16T09:41:22.000Z</time>
</trkpt>
<trkpt lat="45.9633020" lon="10.1814530">
	<ele>1635.60</ele>
	<time>2025-08-16T09:41:23.000Z</time>
</trkpt>
<trkpt lat="45.9632960" lon="10.1814710">
	<ele>1635.40</ele>
	<time>2025-08-16T09:41:24.000Z</time>
</trkpt>
<trkpt lat="45.9632920" lon="10.1814880">
	<ele>1635.20</ele>
	<time>2025-08-16T09:41:25.000Z</time>
</trkpt>
<trkpt lat="45.9632930" lon="10.1815060">
	<ele>1635.20</ele>
	<time>2025-08-16T09:41:26.000Z</time>
</trkpt>
<trkpt lat="45.9632940" lon="10.1815210">
	<ele>1635.00</ele>
	<time>2025-08-16T09:41:27.000Z</time>
</trkpt>
<trkpt lat="45.9632910" lon="10.1815380">
	<ele>1635.00</ele>
	<time>2025-08-16T09:41:28.000Z</time>
</trkpt>
<trkpt lat="45.9632910" lon="10.1815530">
	<ele>1634.80</ele>
	<time>2025-08-16T09:41:29.000Z</time>
</trkpt>
<trkpt lat="45.9632940" lon="10.1815700">
	<ele>1634.60</ele>
	<time>2025-08-16T09:41:30.000Z</time>
</trkpt>
<trkpt lat="45.9632980" lon="10.1815880">
	<ele>1634.20</ele>
	<time>2025-08-16T09:41:31.000Z</time>
</trkpt>
<trkpt lat="45.9632930" lon="10.1816060">
	<ele>1634.00</ele>
	<time>2025-08-16T09:41:32.000Z</time>
</trkpt>
<trkpt lat="45.9632900" lon="10.1816220">
	<ele>1634.00</ele>
	<time>2025-08-16T09:41:33.000Z</time>
</trkpt>
<trkpt lat="45.9632910" lon="10.1816370">
	<ele>1633.80</ele>
	<time>2025-08-16T09:41:34.000Z</time>
</trkpt>
<trkpt lat="45.9632940" lon="10.1816590">
	<ele>1633.60</ele>
	<time>2025-08-16T09:41:35.000Z</time>
</trkpt>
<trkpt lat="45.9632980" lon="10.1816790">
	<ele>1633.40</ele>
	<time>2025-08-16T09:41:36.000Z</time>
</trkpt>
<trkpt lat="45.9632960" lon="10.1816970">
	<ele>1633.40</ele>
	<time>2025-08-16T09:41:37.000Z</time>
</trkpt>
<trkpt lat="45.9632920" lon="10.1817180">
	<ele>1633.40</ele>
	<time>2025-08-16T09:41:38.000Z</time>
</trkpt>
<trkpt lat="45.9632940" lon="10.1817390">
	<ele>1633.20</ele>
	<time>2025-08-16T09:41:39.000Z</time>
</trkpt>
<trkpt lat="45.9632880" lon="10.1817550">
	<ele>1633.20</ele>
	<time>2025-08-16T09:41:40.000Z</time>
</trkpt>
<trkpt lat="45.9632820" lon="10.1817740">
	<ele>1633.00</ele>
	<time>2025-08-16T09:41:41.000Z</time>
</trkpt>
<trkpt lat="45.9632750" lon="10.1817920">
	<ele>1632.60</ele>
	<time>2025-08-16T09:41:42.000Z</time>
</trkpt>
<trkpt lat="45.9632670" lon="10.1818060">
	<ele>1632.40</ele>
	<time>2025-08-16T09:41:43.000Z</time>
</trkpt>
<trkpt lat="45.9632590" lon="10.1818300">
	<ele>1632.20</ele>
	<time>2025-08-16T09:41:44.000Z</time>
</trkpt>
<trkpt lat="45.9632540" lon="10.1818410">
	<ele>1632.20</ele>
	<time>2025-08-16T09:41:45.000Z</time>
</trkpt>
<trkpt lat="45.9632480" lon="10.1818610">
	<ele>1632.00</ele>
	<time>2025-08-16T09:41:46.000Z</time>
</trkpt>
<trkpt lat="45.9632410" lon="10.1818770">
	<ele>1632.00</ele>
	<time>2025-08-16T09:41:47.000Z</time>
</trkpt>
<trkpt lat="45.9632330" lon="10.1818990">
	<ele>1631.80</ele>
	<time>2025-08-16T09:41:48.000Z</time>
</trkpt>
<trkpt lat="45.9632310" lon="10.1819180">
	<ele>1631.80</ele>
	<time>2025-08-16T09:41:49.000Z</time>
</trkpt>
<trkpt lat="45.9632320" lon="10.1819310">
	<ele>1631.60</ele>
	<time>2025-08-16T09:41:50.000Z</time>
</trkpt>
<trkpt lat="45.9632290" lon="10.1819380">
	<ele>1631.60</ele>
	<time>2025-08-16T09:41:51.000Z</time>
</trkpt>
<trkpt lat="45.9632260" lon="10.1819540">
	<ele>1631.40</ele>
	<time>2025-08-16T09:41:52.000Z</time>
</trkpt>
<trkpt lat="45.9632220" lon="10.1819730">
	<ele>1631.40</ele>
	<time>2025-08-16T09:41:53.000Z</time>
</trkpt>
<trkpt lat="45.9632130" lon="10.1819920">
	<ele>1631.40</ele>
	<time>2025-08-16T09:41:54.000Z</time>
</trkpt>
<trkpt lat="45.9632080" lon="10.1820090">
	<ele>1631.20</ele>
	<time>2025-08-16T09:41:55.000Z</time>
</trkpt>
<trkpt lat="45.9632000" lon="10.1820220">
	<ele>1631.20</ele>
	<time>2025-08-16T09:41:56.000Z</time>
</trkpt>
<trkpt lat="45.9631960" lon="10.1820330">
	<ele>1631.20</ele>
	<time>2025-08-16T09:41:57.000Z</time>
</trkpt>
<trkpt lat="45.9631900" lon="10.1820530">
	<ele>1631.00</ele>
	<time>2025-08-16T09:41:58.000Z</time>
</trkpt>
<trkpt lat="45.9631860" lon="10.1820650">
	<ele>1631.00</ele>
	<time>2025-08-16T09:41:59.000Z</time>
</trkpt>
<trkpt lat="45.9631790" lon="10.1820850">
	<ele>1630.80</ele>
	<time>2025-08-16T09:42:00.000Z</time>
</trkpt>
<trkpt lat="45.9631700" lon="10.1821090">
	<ele>1630.80</ele>
	<time>2025-08-16T09:42:01.000Z</time>
</trkpt>
<trkpt lat="45.9631660" lon="10.1821260">
	<ele>1630.60</ele>
	<time>2025-08-16T09:42:02.000Z</time>
</trkpt>
<trkpt lat="45.9631610" lon="10.1821470">
	<ele>1630.60</ele>
	<time>2025-08-16T09:42:03.000Z</time>
</trkpt>
<trkpt lat="45.9631570" lon="10.1821730">
	<ele>1630.40</ele>
	<time>2025-08-16T09:42:04.000Z</time>
</trkpt>
<trkpt lat="45.9631570" lon="10.1821920">
	<ele>1630.20</ele>
	<time>2025-08-16T09:42:05.000Z</time>
</trkpt>
<trkpt lat="45.9631570" lon="10.1822090">
	<ele>1630.20</ele>
	<time>2025-08-16T09:42:06.000Z</time>
</trkpt>
<trkpt lat="45.9631560" lon="10.1822260">
	<ele>1630.00</ele>
	<time>2025-08-16T09:42:07.000Z</time>
</trkpt>
<trkpt lat="45.9631570" lon="10.1822400">
	<ele>1629.80</ele>
	<time>2025-08-16T09:42:08.000Z</time>
</trkpt>
<trkpt lat="45.9631540" lon="10.1822590">
	<ele>1629.60</ele>
	<time>2025-08-16T09:42:09.000Z</time>
</trkpt>
<trkpt lat="45.9631560" lon="10.1822660">
	<ele>1629.20</ele>
	<time>2025-08-16T09:42:10.000Z</time>
</trkpt>
<trkpt lat="45.9631560" lon="10.1822670">
	<ele>1629.20</ele>
	<time>2025-08-16T09:42:11.000Z</time>
</trkpt>
<trkpt lat="45.9631560" lon="10.1822670">
	<ele>1629.00</ele>
	<time>2025-08-16T09:42:12.000Z</time>
</trkpt>
<trkpt lat="45.9631560" lon="10.1822660">
	<ele>1629.00</ele>
	<time>2025-08-16T09:42:13.000Z</time>
</trkpt>
<trkpt lat="45.9631570" lon="10.1822650">
	<ele>1629.00</ele>
	<time>2025-08-16T09:42:14.000Z</time>
</trkpt>
<trkpt lat="45.9631570" lon="10.1822620">
	<ele>1629.00</ele>
	<time>2025-08-16T09:42:15.000Z</time>
</trkpt>
<trkpt lat="45.9631580" lon="10.1822600">
	<ele>1629.00</ele>
	<time>2025-08-16T09:42:16.000Z</time>
</trkpt>
<trkpt lat="45.9631580" lon="10.1822600">
	<ele>1628.80</ele>
	<time>2025-08-16T09:42:17.000Z</time>
</trkpt>
<trkpt lat="45.9631580" lon="10.1822610">
	<ele>1628.80</ele>
	<time>2025-08-16T09:42:18.000Z</time>
</trkpt>
<trkpt lat="45.9631560" lon="10.1822600">
	<ele>1628.80</ele>
	<time>2025-08-16T09:42:19.000Z</time>
</trkpt>
<trkpt lat="45.9631560" lon="10.1822600">
	<ele>1628.60</ele>
	<time>2025-08-16T09:42:20.000Z</time>
</trkpt>
<trkpt lat="45.9631560" lon="10.1822590">
	<ele>1628.60</ele>
	<time>2025-08-16T09:42:21.000Z</time>
</trkpt>
<trkpt lat="45.9631550" lon="10.1822570">
	<ele>1628.60</ele>
	<time>2025-08-16T09:42:22.000Z</time>
</trkpt>
<trkpt lat="45.9631550" lon="10.1822570">
	<ele>1628.60</ele>
	<time>2025-08-16T09:42:23.000Z</time>
</trkpt>
<trkpt lat="45.9631550" lon="10.1822570">
	<ele>1628.60</ele>
	<time>2025-08-16T09:42:24.000Z</time>
</trkpt>
<trkpt lat="45.9631550" lon="10.1822570">
	<ele>1628.60</ele>
	<time>2025-08-16T09:42:25.000Z</time>
</trkpt>
<trkpt lat="45.9631550" lon="10.1822570">
	<ele>1628.60</ele>
	<time>2025-08-16T09:42:26.000Z</time>
</trkpt>
<trkpt lat="45.9631550" lon="10.1822570">
	<ele>1628.60</ele>
	<time>2025-08-16T09:42:27.000Z</time>
</trkpt>
<trkpt lat="45.9631550" lon="10.1822570">
	<ele>1628.60</ele>
	<time>2025-08-16T09:42:28.000Z</time>
</trkpt>
<trkpt lat="45.9631550" lon="10.1822570">
	<ele>1628.60</ele>
	<time>2025-08-16T09:42:29.000Z</time>
</trkpt>
<trkpt lat="45.9631560" lon="10.1822580">
	<ele>1628.60</ele>
	<time>2025-08-16T09:42:30.000Z</time>
</trkpt>
<trkpt lat="45.9631560" lon="10.1822590">
	<ele>1628.60</ele>
	<time>2025-08-16T09:42:31.000Z</time>
</trkpt>
<trkpt lat="45.9631560" lon="10.1822600">
	<ele>1628.40</ele>
	<time>2025-08-16T09:42:32.000Z</time>
</trkpt>
<trkpt lat="45.9631570" lon="10.1822600">
	<ele>1628.40</ele>
	<time>2025-08-16T09:42:33.000Z</time>
</trkpt>
<trkpt lat="45.9631570" lon="10.1822600">
	<ele>1628.40</ele>
	<time>2025-08-16T09:42:34.000Z</time>
</trkpt>
<trkpt lat="45.9631570" lon="10.1822600">
	<ele>1628.40</ele>
	<time>2025-08-16T09:42:35.000Z</time>
</trkpt>
<trkpt lat="45.9631570" lon="10.1822610">
	<ele>1628.40</ele>
	<time>2025-08-16T09:42:36.000Z</time>
</trkpt>
<trkpt lat="45.9631570" lon="10.1822620">
	<ele>1628.40</ele>
	<time>2025-08-16T09:42:37.000Z</time>
</trkpt>
<trkpt lat="45.9631570" lon="10.1822620">
	<ele>1628.40</ele>
	<time>2025-08-16T09:42:38.000Z</time>
</trkpt>
<trkpt lat="45.9631570" lon="10.1822620">
	<ele>1628.40</ele>
	<time>2025-08-16T09:42:39.000Z</time>
</trkpt>
<trkpt lat="45.9631570" lon="10.1822620">
	<ele>1628.40</ele>
	<time>2025-08-16T09:42:40.000Z</time>
</trkpt>
<trkpt lat="45.9631570" lon="10.1822620">
	<ele>1628.40</ele>
	<time>2025-08-16T09:42:41.000Z</time>
</trkpt>
<trkpt lat="45.9631570" lon="10.1822620">
	<ele>1628.40</ele>
	<time>2025-08-16T09:42:42.000Z</time>
</trkpt>
<trkpt lat="45.9631570" lon="10.1822620">
	<ele>1628.40</ele>
	<time>2025-08-16T09:42:43.000Z</time>
</trkpt>
<trkpt lat="45.9631560" lon="10.1822620">
	<ele>1628.40</ele>
	<time>2025-08-16T09:42:44.000Z</time>
</trkpt>
<trkpt lat="45.9631560" lon="10.1822610">
	<ele>1628.40</ele>
	<time>2025-08-16T09:42:45.000Z</time>
</trkpt>
<trkpt lat="45.9631560" lon="10.1822610">
	<ele>1628.40</ele>
	<time>2025-08-16T09:42:46.000Z</time>
</trkpt>
<trkpt lat="45.9631560" lon="10.1822610">
	<ele>1628.40</ele>
	<time>2025-08-16T09:42:47.000Z</time>
</trkpt>
<trkpt lat="45.9631560" lon="10.1822600">
	<ele>1628.40</ele>
	<time>2025-08-16T09:42:48.000Z</time>
</trkpt>
<trkpt lat="45.9631550" lon="10.1822600">
	<ele>1628.40</ele>
	<time>2025-08-16T09:42:49.000Z</time>
</trkpt>
<trkpt lat="45.9631550" lon="10.1822590">
	<ele>1628.40</ele>
	<time>2025-08-16T09:42:50.000Z</time>
</trkpt>
<trkpt lat="45.9631540" lon="10.1822590">
	<ele>1628.40</ele>
	<time>2025-08-16T09:42:51.000Z</time>
</trkpt>
<trkpt lat="45.9631480" lon="10.1822590">
	<ele>1628.40</ele>
	<time>2025-08-16T09:42:52.000Z</time>
</trkpt>
<trkpt lat="45.9631470" lon="10.1822610">
	<ele>1628.40</ele>
	<time>2025-08-16T09:42:53.000Z</time>
</trkpt>
<trkpt lat="45.9631470" lon="10.1822620">
	<ele>1628.20</ele>
	<time>2025-08-16T09:42:54.000Z</time>
</trkpt>
<trkpt lat="45.9631470" lon="10.1822620">
	<ele>1628.20</ele>
	<time>2025-08-16T09:42:55.000Z</time>
</trkpt>
<trkpt lat="45.9631490" lon="10.1822680">
	<ele>1628.00</ele>
	<time>2025-08-16T09:42:56.000Z</time>
</trkpt>
<trkpt lat="45.9631500" lon="10.1822960">
	<ele>1628.00</ele>
	<time>2025-08-16T09:42:57.000Z</time>
</trkpt>
<trkpt lat="45.9631570" lon="10.1823190">
	<ele>1627.80</ele>
	<time>2025-08-16T09:42:58.000Z</time>
</trkpt>
<trkpt lat="45.9631660" lon="10.1823460">
	<ele>1627.60</ele>
	<time>2025-08-16T09:42:59.000Z</time>
</trkpt>
<trkpt lat="45.9631750" lon="10.1823700">
	<ele>1627.40</ele>
	<time>2025-08-16T09:43:00.000Z</time>
</trkpt>
<trkpt lat="45.9631850" lon="10.1823950">
	<ele>1627.40</ele>
	<time>2025-08-16T09:43:01.000Z</time>
</trkpt>
<trkpt lat="45.9631960" lon="10.1824180">
	<ele>1627.20</ele>
	<time>2025-08-16T09:43:02.000Z</time>
</trkpt>
<trkpt lat="45.9632080" lon="10.1824420">
	<ele>1626.80</ele>
	<time>2025-08-16T09:43:03.000Z</time>
</trkpt>
<trkpt lat="45.9632160" lon="10.1824650">
	<ele>1626.60</ele>
	<time>2025-08-16T09:43:04.000Z</time>
</trkpt>
<trkpt lat="45.9632240" lon="10.1824870">
	<ele>1626.60</ele>
	<time>2025-08-16T09:43:05.000Z</time>
</trkpt>
<trkpt lat="45.9632300" lon="10.1825060">
	<ele>1626.40</ele>
	<time>2025-08-16T09:43:06.000Z</time>
</trkpt>
<trkpt lat="45.9632360" lon="10.1825260">
	<ele>1626.20</ele>
	<time>2025-08-16T09:43:07.000Z</time>
</trkpt>
<trkpt lat="45.9632380" lon="10.1825560">
	<ele>1626.20</ele>
	<time>2025-08-16T09:43:08.000Z</time>
</trkpt>
<trkpt lat="45.9632400" lon="10.1825790">
	<ele>1626.00</ele>
	<time>2025-08-16T09:43:09.000Z</time>
</trkpt>
<trkpt lat="45.9632530" lon="10.1826000">
	<ele>1625.80</ele>
	<time>2025-08-16T09:43:10.000Z</time>
</trkpt>
<trkpt lat="45.9632630" lon="10.1826140">
	<ele>1625.40</ele>
	<time>2025-08-16T09:43:11.000Z</time>
</trkpt>
<trkpt lat="45.9632720" lon="10.1826220">
	<ele>1625.20</ele>
	<time>2025-08-16T09:43:12.000Z</time>
</trkpt>
<trkpt lat="45.9632790" lon="10.1826310">
	<ele>1625.00</ele>
	<time>2025-08-16T09:43:13.000Z</time>
</trkpt>
<trkpt lat="45.9632880" lon="10.1826460">
	<ele>1624.80</ele>
	<time>2025-08-16T09:43:14.000Z</time>
</trkpt>
<trkpt lat="45.9632980" lon="10.1826670">
	<ele>1624.80</ele>
	<time>2025-08-16T09:43:15.000Z</time>
</trkpt>
<trkpt lat="45.9632990" lon="10.1826850">
	<ele>1624.60</ele>
	<time>2025-08-16T09:43:16.000Z</time>
</trkpt>
<trkpt lat="45.9633050" lon="10.1827090">
	<ele>1624.40</ele>
	<time>2025-08-16T09:43:17.000Z</time>
</trkpt>
<trkpt lat="45.9633060" lon="10.1827220">
	<ele>1624.20</ele>
	<time>2025-08-16T09:43:18.000Z</time>
</trkpt>
<trkpt lat="45.9633050" lon="10.1827270">
	<ele>1623.80</ele>
	<time>2025-08-16T09:43:19.000Z</time>
</trkpt>
<trkpt lat="45.9633070" lon="10.1827300">
	<ele>1623.80</ele>
	<time>2025-08-16T09:43:20.000Z</time>
</trkpt>
<trkpt lat="45.9633150" lon="10.1827430">
	<ele>1623.40</ele>
	<time>2025-08-16T09:43:21.000Z</time>
</trkpt>
<trkpt lat="45.9633160" lon="10.1827590">
	<ele>1623.00</ele>
	<time>2025-08-16T09:43:22.000Z</time>
</trkpt>
<trkpt lat="45.9633200" lon="10.1827740">
	<ele>1622.80</ele>
	<time>2025-08-16T09:43:23.000Z</time>
</trkpt>
<trkpt lat="45.9633200" lon="10.1827880">
	<ele>1622.60</ele>
	<time>2025-08-16T09:43:24.000Z</time>
</trkpt>
<trkpt lat="45.9633150" lon="10.1827990">
	<ele>1622.40</ele>
	<time>2025-08-16T09:43:25.000Z</time>
</trkpt>
<trkpt lat="45.9633140" lon="10.1828170">
	<ele>1622.20</ele>
	<time>2025-08-16T09:43:26.000Z</time>
</trkpt>
<trkpt lat="45.9633160" lon="10.1828340">
	<ele>1622.00</ele>
	<time>2025-08-16T09:43:27.000Z</time>
</trkpt>
<trkpt lat="45.9633170" lon="10.1828500">
	<ele>1621.80</ele>
	<time>2025-08-16T09:43:28.000Z</time>
</trkpt>
<trkpt lat="45.9633180" lon="10.1828670">
	<ele>1621.80</ele>
	<time>2025-08-16T09:43:29.000Z</time>
</trkpt>
<trkpt lat="45.9633190" lon="10.1828830">
	<ele>1621.60</ele>
	<time>2025-08-16T09:43:30.000Z</time>
</trkpt>
<trkpt lat="45.9633170" lon="10.1828980">
	<ele>1621.40</ele>
	<time>2025-08-16T09:43:31.000Z</time>
</trkpt>
<trkpt lat="45.9633170" lon="10.1829060">
	<ele>1621.20</ele>
	<time>2025-08-16T09:43:32.000Z</time>
</trkpt>
<trkpt lat="45.9633170" lon="10.1829170">
	<ele>1621.00</ele>
	<time>2025-08-16T09:43:33.000Z</time>
</trkpt>
<trkpt lat="45.9633170" lon="10.1829290">
	<ele>1620.60</ele>
	<time>2025-08-16T09:43:34.000Z</time>
</trkpt>
<trkpt lat="45.9633190" lon="10.1829420">
	<ele>1620.40</ele>
	<time>2025-08-16T09:43:35.000Z</time>
</trkpt>
<trkpt lat="45.9633200" lon="10.1829570">
	<ele>1620.00</ele>
	<time>2025-08-16T09:43:36.000Z</time>
</trkpt>
<trkpt lat="45.9633220" lon="10.1829700">
	<ele>1619.60</ele>
	<time>2025-08-16T09:43:37.000Z</time>
</trkpt>
<trkpt lat="45.9633210" lon="10.1829820">
	<ele>1619.40</ele>
	<time>2025-08-16T09:43:38.000Z</time>
</trkpt>
<trkpt lat="45.9633220" lon="10.1829950">
	<ele>1619.20</ele>
	<time>2025-08-16T09:43:39.000Z</time>
</trkpt>
<trkpt lat="45.9633230" lon="10.1830090">
	<ele>1619.00</ele>
	<time>2025-08-16T09:43:40.000Z</time>
</trkpt>
<trkpt lat="45.9633260" lon="10.1830250">
	<ele>1618.60</ele>
	<time>2025-08-16T09:43:41.000Z</time>
</trkpt>
<trkpt lat="45.9633290" lon="10.1830420">
	<ele>1618.40</ele>
	<time>2025-08-16T09:43:42.000Z</time>
</trkpt>
<trkpt lat="45.9633340" lon="10.1830630">
	<ele>1618.00</ele>
	<time>2025-08-16T09:43:43.000Z</time>
</trkpt>
<trkpt lat="45.9633370" lon="10.1830780">
	<ele>1617.60</ele>
	<time>2025-08-16T09:43:44.000Z</time>
</trkpt>
<trkpt lat="45.9633410" lon="10.1830940">
	<ele>1617.40</ele>
	<time>2025-08-16T09:43:45.000Z</time>
</trkpt>
<trkpt lat="45.9633470" lon="10.1831110">
	<ele>1617.20</ele>
	<time>2025-08-16T09:43:46.000Z</time>
</trkpt>
<trkpt lat="45.9633480" lon="10.1831290">
	<ele>1617.00</ele>
	<time>2025-08-16T09:43:47.000Z</time>
</trkpt>
<trkpt lat="45.9633530" lon="10.1831520">
	<ele>1616.60</ele>
	<time>2025-08-16T09:43:48.000Z</time>
</trkpt>
<trkpt lat="45.9633610" lon="10.1831680">
	<ele>1616.20</ele>
	<time>2025-08-16T09:43:49.000Z</time>
</trkpt>
<trkpt lat="45.9633640" lon="10.1831840">
	<ele>1616.00</ele>
	<time>2025-08-16T09:43:50.000Z</time>
</trkpt>
<trkpt lat="45.9633640" lon="10.1832030">
	<ele>1615.80</ele>
	<time>2025-08-16T09:43:51.000Z</time>
</trkpt>
<trkpt lat="45.9633620" lon="10.1832190">
	<ele>1615.60</ele>
	<time>2025-08-16T09:43:52.000Z</time>
</trkpt>
<trkpt lat="45.9633600" lon="10.1832400">
	<ele>1615.40</ele>
	<time>2025-08-16T09:43:53.000Z</time>
</trkpt>
<trkpt lat="45.9633600" lon="10.1832520">
	<ele>1615.40</ele>
	<time>2025-08-16T09:43:54.000Z</time>
</trkpt>
<trkpt lat="45.9633570" lon="10.1832650">
	<ele>1615.20</ele>
	<time>2025-08-16T09:43:55.000Z</time>
</trkpt>
<trkpt lat="45.9633570" lon="10.1832870">
	<ele>1615.00</ele>
	<time>2025-08-16T09:43:56.000Z</time>
</trkpt>
<trkpt lat="45.9633560" lon="10.1833080">
	<ele>1615.00</ele>
	<time>2025-08-16T09:43:57.000Z</time>
</trkpt>
<trkpt lat="45.9633540" lon="10.1833290">
	<ele>1614.80</ele>
	<time>2025-08-16T09:43:58.000Z</time>
</trkpt>
<trkpt lat="45.9633540" lon="10.1833490">
	<ele>1614.80</ele>
	<time>2025-08-16T09:43:59.000Z</time>
</trkpt>
<trkpt lat="45.9633510" lon="10.1833680">
	<ele>1614.80</ele>
	<time>2025-08-16T09:44:00.000Z</time>
</trkpt>
<trkpt lat="45.9633470" lon="10.1833890">
	<ele>1614.60</ele>
	<time>2025-08-16T09:44:01.000Z</time>
</trkpt>
<trkpt lat="45.9633440" lon="10.1834040">
	<ele>1614.40</ele>
	<time>2025-08-16T09:44:02.000Z</time>
</trkpt>
<trkpt lat="45.9633410" lon="10.1834230">
	<ele>1614.40</ele>
	<time>2025-08-16T09:44:03.000Z</time>
</trkpt>
<trkpt lat="45.9633400" lon="10.1834440">
	<ele>1614.20</ele>
	<time>2025-08-16T09:44:04.000Z</time>
</trkpt>
<trkpt lat="45.9633400" lon="10.1834620">
	<ele>1614.00</ele>
	<time>2025-08-16T09:44:05.000Z</time>
</trkpt>
<trkpt lat="45.9633380" lon="10.1834790">
	<ele>1614.00</ele>
	<time>2025-08-16T09:44:06.000Z</time>
</trkpt>
<trkpt lat="45.9633340" lon="10.1834980">
	<ele>1613.80</ele>
	<time>2025-08-16T09:44:07.000Z</time>
</trkpt>
<trkpt lat="45.9633300" lon="10.1835140">
	<ele>1613.80</ele>
	<time>2025-08-16T09:44:08.000Z</time>
</trkpt>
<trkpt lat="45.9633270" lon="10.1835310">
	<ele>1613.60</ele>
	<time>2025-08-16T09:44:09.000Z</time>
</trkpt>
<trkpt lat="45.9633270" lon="10.1835460">
	<ele>1613.60</ele>
	<time>2025-08-16T09:44:10.000Z</time>
</trkpt>
<trkpt lat="45.9633270" lon="10.1835630">
	<ele>1613.40</ele>
	<time>2025-08-16T09:44:11.000Z</time>
</trkpt>
<trkpt lat="45.9633310" lon="10.1835780">
	<ele>1613.00</ele>
	<time>2025-08-16T09:44:12.000Z</time>
</trkpt>
<trkpt lat="45.9633350" lon="10.1835940">
	<ele>1612.80</ele>
	<time>2025-08-16T09:44:13.000Z</time>
</trkpt>
<trkpt lat="45.9633360" lon="10.1836050">
	<ele>1612.60</ele>
	<time>2025-08-16T09:44:14.000Z</time>
</trkpt>
<trkpt lat="45.9633350" lon="10.1836200">
	<ele>1612.60</ele>
	<time>2025-08-16T09:44:15.000Z</time>
</trkpt>
<trkpt lat="45.9633370" lon="10.1836400">
	<ele>1612.40</ele>
	<time>2025-08-16T09:44:16.000Z</time>
</trkpt>
<trkpt lat="45.9633380" lon="10.1836630">
	<ele>1612.20</ele>
	<time>2025-08-16T09:44:17.000Z</time>
</trkpt>
<trkpt lat="45.9633380" lon="10.1836870">
	<ele>1612.20</ele>
	<time>2025-08-16T09:44:18.000Z</time>
</trkpt>
<trkpt lat="45.9633390" lon="10.1837070">
	<ele>1612.00</ele>
	<time>2025-08-16T09:44:19.000Z</time>
</trkpt>
<trkpt lat="45.9633400" lon="10.1837230">
	<ele>1611.80</ele>
	<time>2025-08-16T09:44:20.000Z</time>
</trkpt>
<trkpt lat="45.9633400" lon="10.1837380">
	<ele>1611.80</ele>
	<time>2025-08-16T09:44:21.000Z</time>
</trkpt>
<trkpt lat="45.9633380" lon="10.1837530">
	<ele>1611.60</ele>
	<time>2025-08-16T09:44:22.000Z</time>
</trkpt>
<trkpt lat="45.9633370" lon="10.1837670">
	<ele>1611.40</ele>
	<time>2025-08-16T09:44:23.000Z</time>
</trkpt>
<trkpt lat="45.9633360" lon="10.1837840">
	<ele>1611.40</ele>
	<time>2025-08-16T09:44:24.000Z</time>
</trkpt>
<trkpt lat="45.9633360" lon="10.1838020">
	<ele>1611.20</ele>
	<time>2025-08-16T09:44:25.000Z</time>
</trkpt>
<trkpt lat="45.9633340" lon="10.1838180">
	<ele>1611.00</ele>
	<time>2025-08-16T09:44:26.000Z</time>
</trkpt>
<trkpt lat="45.9633350" lon="10.1838370">
	<ele>1611.00</ele>
	<time>2025-08-16T09:44:27.000Z</time>
</trkpt>
<trkpt lat="45.9633340" lon="10.1838590">
	<ele>1610.80</ele>
	<time>2025-08-16T09:44:28.000Z</time>
</trkpt>
<trkpt lat="45.9633340" lon="10.1838810">
	<ele>1610.60</ele>
	<time>2025-08-16T09:44:29.000Z</time>
</trkpt>
<trkpt lat="45.9633350" lon="10.1838990">
	<ele>1610.60</ele>
	<time>2025-08-16T09:44:30.000Z</time>
</trkpt>
<trkpt lat="45.9633360" lon="10.1839130">
	<ele>1610.40</ele>
	<time>2025-08-16T09:44:31.000Z</time>
</trkpt>
<trkpt lat="45.9633330" lon="10.1839260">
	<ele>1610.40</ele>
	<time>2025-08-16T09:44:32.000Z</time>
</trkpt>
<trkpt lat="45.9633320" lon="10.1839400">
	<ele>1610.40</ele>
	<time>2025-08-16T09:44:33.000Z</time>
</trkpt>
<trkpt lat="45.9633330" lon="10.1839570">
	<ele>1610.40</ele>
	<time>2025-08-16T09:44:34.000Z</time>
</trkpt>
<trkpt lat="45.9633350" lon="10.1839760">
	<ele>1610.20</ele>
	<time>2025-08-16T09:44:35.000Z</time>
</trkpt>
<trkpt lat="45.9633360" lon="10.1839930">
	<ele>1610.20</ele>
	<time>2025-08-16T09:44:36.000Z</time>
</trkpt>
<trkpt lat="45.9633410" lon="10.1840090">
	<ele>1610.00</ele>
	<time>2025-08-16T09:44:37.000Z</time>
</trkpt>
<trkpt lat="45.9633470" lon="10.1840260">
	<ele>1609.80</ele>
	<time>2025-08-16T09:44:38.000Z</time>
</trkpt>
<trkpt lat="45.9633560" lon="10.1840400">
	<ele>1609.60</ele>
	<time>2025-08-16T09:44:39.000Z</time>
</trkpt>
<trkpt lat="45.9633640" lon="10.1840500">
	<ele>1609.40</ele>
	<time>2025-08-16T09:44:40.000Z</time>
</trkpt>
<trkpt lat="45.9633700" lon="10.1840640">
	<ele>1609.20</ele>
	<time>2025-08-16T09:44:41.000Z</time>
</trkpt>
<trkpt lat="45.9633770" lon="10.1840770">
	<ele>1609.00</ele>
	<time>2025-08-16T09:44:42.000Z</time>
</trkpt>
<trkpt lat="45.9633780" lon="10.1840950">
	<ele>1608.80</ele>
	<time>2025-08-16T09:44:43.000Z</time>
</trkpt>
<trkpt lat="45.9633810" lon="10.1841320">
	<ele>1608.80</ele>
	<time>2025-08-16T09:44:44.000Z</time>
</trkpt>
<trkpt lat="45.9633840" lon="10.1841690">
	<ele>1608.60</ele>
	<time>2025-08-16T09:44:45.000Z</time>
</trkpt>
<trkpt lat="45.9633920" lon="10.1842050">
	<ele>1608.40</ele>
	<time>2025-08-16T09:44:46.000Z</time>
</trkpt>
<trkpt lat="45.9633980" lon="10.1842350">
	<ele>1608.20</ele>
	<time>2025-08-16T09:44:47.000Z</time>
</trkpt>
<trkpt lat="45.9634090" lon="10.1842560">
	<ele>1608.20</ele>
	<time>2025-08-16T09:44:48.000Z</time>
</trkpt>
<trkpt lat="45.9634130" lon="10.1842700">
	<ele>1608.00</ele>
	<time>2025-08-16T09:44:49.000Z</time>
</trkpt>
<trkpt lat="45.9634120" lon="10.1842770">
	<ele>1608.00</ele>
	<time>2025-08-16T09:44:50.000Z</time>
</trkpt>
<trkpt lat="45.9634150" lon="10.1842930">
	<ele>1607.80</ele>
	<time>2025-08-16T09:44:51.000Z</time>
</trkpt>
<trkpt lat="45.9634200" lon="10.1843090">
	<ele>1607.60</ele>
	<time>2025-08-16T09:44:52.000Z</time>
</trkpt>
<trkpt lat="45.9634260" lon="10.1843240">
	<ele>1607.40</ele>
	<time>2025-08-16T09:44:53.000Z</time>
</trkpt>
<trkpt lat="45.9634340" lon="10.1843450">
	<ele>1607.20</ele>
	<time>2025-08-16T09:44:54.000Z</time>
</trkpt>
<trkpt lat="45.9634360" lon="10.1843610">
	<ele>1607.00</ele>
	<time>2025-08-16T09:44:55.000Z</time>
</trkpt>
<trkpt lat="45.9634430" lon="10.1843800">
	<ele>1607.00</ele>
	<time>2025-08-16T09:44:56.000Z</time>
</trkpt>
<trkpt lat="45.9634530" lon="10.1844000">
	<ele>1606.80</ele>
	<time>2025-08-16T09:44:57.000Z</time>
</trkpt>
<trkpt lat="45.9634600" lon="10.1844170">
	<ele>1606.60</ele>
	<time>2025-08-16T09:44:58.000Z</time>
</trkpt>
<trkpt lat="45.9634700" lon="10.1844320">
	<ele>1606.40</ele>
	<time>2025-08-16T09:44:59.000Z</time>
</trkpt>
<trkpt lat="45.9634780" lon="10.1844510">
	<ele>1606.20</ele>
	<time>2025-08-16T09:45:00.000Z</time>
</trkpt>
<trkpt lat="45.9634850" lon="10.1844710">
	<ele>1606.00</ele>
	<time>2025-08-16T09:45:01.000Z</time>
</trkpt>
<trkpt lat="45.9635000" lon="10.1844900">
	<ele>1605.80</ele>
	<time>2025-08-16T09:45:02.000Z</time>
</trkpt>
<trkpt lat="45.9635120" lon="10.1845000">
	<ele>1605.80</ele>
	<time>2025-08-16T09:45:03.000Z</time>
</trkpt>
<trkpt lat="45.9635210" lon="10.1845160">
	<ele>1605.80</ele>
	<time>2025-08-16T09:45:04.000Z</time>
</trkpt>
<trkpt lat="45.9635320" lon="10.1845300">
	<ele>1605.60</ele>
	<time>2025-08-16T09:45:05.000Z</time>
</trkpt>
<trkpt lat="45.9635430" lon="10.1845460">
	<ele>1605.60</ele>
	<time>2025-08-16T09:45:06.000Z</time>
</trkpt>
<trkpt lat="45.9635500" lon="10.1845610">
	<ele>1605.20</ele>
	<time>2025-08-16T09:45:07.000Z</time>
</trkpt>
<trkpt lat="45.9635530" lon="10.1845780">
	<ele>1605.00</ele>
	<time>2025-08-16T09:45:08.000Z</time>
</trkpt>
<trkpt lat="45.9635530" lon="10.1845860">
	<ele>1605.00</ele>
	<time>2025-08-16T09:45:09.000Z</time>
</trkpt>
<trkpt lat="45.9635600" lon="10.1845930">
	<ele>1604.80</ele>
	<time>2025-08-16T09:45:10.000Z</time>
</trkpt>
<trkpt lat="45.9635720" lon="10.1846020">
	<ele>1604.60</ele>
	<time>2025-08-16T09:45:11.000Z</time>
</trkpt>
<trkpt lat="45.9635830" lon="10.1846140">
	<ele>1604.40</ele>
	<time>2025-08-16T09:45:12.000Z</time>
</trkpt>
<trkpt lat="45.9635930" lon="10.1846240">
	<ele>1604.40</ele>
	<time>2025-08-16T09:45:13.000Z</time>
</trkpt>
<trkpt lat="45.9636030" lon="10.1846420">
	<ele>1604.20</ele>
	<time>2025-08-16T09:45:14.000Z</time>
</trkpt>
<trkpt lat="45.9636180" lon="10.1846880">
	<ele>1604.20</ele>
	<time>2025-08-16T09:45:15.000Z</time>
</trkpt>
<trkpt lat="45.9636300" lon="10.1847150">
	<ele>1604.00</ele>
	<time>2025-08-16T09:45:16.000Z</time>
</trkpt>
<trkpt lat="45.9636350" lon="10.1847400">
	<ele>1603.80</ele>
	<time>2025-08-16T09:45:17.000Z</time>
</trkpt>
<trkpt lat="45.9636440" lon="10.1847600">
	<ele>1603.80</ele>
	<time>2025-08-16T09:45:18.000Z</time>
</trkpt>
<trkpt lat="45.9636460" lon="10.1847740">
	<ele>1603.60</ele>
	<time>2025-08-16T09:45:19.000Z</time>
</trkpt>
<trkpt lat="45.9636450" lon="10.1847970">
	<ele>1603.40</ele>
	<time>2025-08-16T09:45:20.000Z</time>
</trkpt>
<trkpt lat="45.9636510" lon="10.1848270">
	<ele>1603.40</ele>
	<time>2025-08-16T09:45:21.000Z</time>
</trkpt>
<trkpt lat="45.9636610" lon="10.1848530">
	<ele>1603.00</ele>
	<time>2025-08-16T09:45:22.000Z</time>
</trkpt>
<trkpt lat="45.9636690" lon="10.1848670">
	<ele>1603.00</ele>
	<time>2025-08-16T09:45:23.000Z</time>
</trkpt>
<trkpt lat="45.9636750" lon="10.1848760">
	<ele>1602.80</ele>
	<time>2025-08-16T09:45:24.000Z</time>
</trkpt>
<trkpt lat="45.9636770" lon="10.1848870">
	<ele>1602.80</ele>
	<time>2025-08-16T09:45:25.000Z</time>
</trkpt>
<trkpt lat="45.9636810" lon="10.1849010">
	<ele>1602.60</ele>
	<time>2025-08-16T09:45:26.000Z</time>
</trkpt>
<trkpt lat="45.9636820" lon="10.1849210">
	<ele>1602.60</ele>
	<time>2025-08-16T09:45:27.000Z</time>
</trkpt>
<trkpt lat="45.9636850" lon="10.1849510">
	<ele>1602.40</ele>
	<time>2025-08-16T09:45:28.000Z</time>
</trkpt>
<trkpt lat="45.9636870" lon="10.1849680">
	<ele>1602.20</ele>
	<time>2025-08-16T09:45:29.000Z</time>
</trkpt>
<trkpt lat="45.9636940" lon="10.1849800">
	<ele>1602.20</ele>
	<time>2025-08-16T09:45:30.000Z</time>
</trkpt>
<trkpt lat="45.9636990" lon="10.1849950">
	<ele>1602.00</ele>
	<time>2025-08-16T09:45:31.000Z</time>
</trkpt>
<trkpt lat="45.9637040" lon="10.1850040">
	<ele>1601.80</ele>
	<time>2025-08-16T09:45:32.000Z</time>
</trkpt>
<trkpt lat="45.9637090" lon="10.1850200">
	<ele>1601.80</ele>
	<time>2025-08-16T09:45:33.000Z</time>
</trkpt>
<trkpt lat="45.9637140" lon="10.1850390">
	<ele>1601.80</ele>
	<time>2025-08-16T09:45:34.000Z</time>
</trkpt>
<trkpt lat="45.9637180" lon="10.1850590">
	<ele>1601.60</ele>
	<time>2025-08-16T09:45:35.000Z</time>
</trkpt>
<trkpt lat="45.9637260" lon="10.1850770">
	<ele>1601.60</ele>
	<time>2025-08-16T09:45:36.000Z</time>
</trkpt>
<trkpt lat="45.9637290" lon="10.1850980">
	<ele>1601.40</ele>
	<time>2025-08-16T09:45:37.000Z</time>
</trkpt>
<trkpt lat="45.9637280" lon="10.1851110">
	<ele>1601.40</ele>
	<time>2025-08-16T09:45:38.000Z</time>
</trkpt>
<trkpt lat="45.9637310" lon="10.1851340">
	<ele>1601.20</ele>
	<time>2025-08-16T09:45:39.000Z</time>
</trkpt>
<trkpt lat="45.9637410" lon="10.1851500">
	<ele>1601.20</ele>
	<time>2025-08-16T09:45:40.000Z</time>
</trkpt>
<trkpt lat="45.9637480" lon="10.1851630">
	<ele>1601.00</ele>
	<time>2025-08-16T09:45:41.000Z</time>
</trkpt>
<trkpt lat="45.9637490" lon="10.1851800">
	<ele>1600.80</ele>
	<time>2025-08-16T09:45:42.000Z</time>
</trkpt>
<trkpt lat="45.9637520" lon="10.1852010">
	<ele>1600.80</ele>
	<time>2025-08-16T09:45:43.000Z</time>
</trkpt>
<trkpt lat="45.9637560" lon="10.1852210">
	<ele>1600.40</ele>
	<time>2025-08-16T09:45:44.000Z</time>
</trkpt>
<trkpt lat="45.9637620" lon="10.1852410">
	<ele>1600.20</ele>
	<time>2025-08-16T09:45:45.000Z</time>
</trkpt>
<trkpt lat="45.9637690" lon="10.1852560">
	<ele>1600.00</ele>
	<time>2025-08-16T09:45:46.000Z</time>
</trkpt>
<trkpt lat="45.9637770" lon="10.1852720">
	<ele>1600.00</ele>
	<time>2025-08-16T09:45:47.000Z</time>
</trkpt>
<trkpt lat="45.9637840" lon="10.1852900">
	<ele>1599.80</ele>
	<time>2025-08-16T09:45:48.000Z</time>
</trkpt>
<trkpt lat="45.9637870" lon="10.1853080">
	<ele>1599.80</ele>
	<time>2025-08-16T09:45:49.000Z</time>
</trkpt>
<trkpt lat="45.9637900" lon="10.1853250">
	<ele>1599.60</ele>
	<time>2025-08-16T09:45:50.000Z</time>
</trkpt>
<trkpt lat="45.9637940" lon="10.1853460">
	<ele>1599.40</ele>
	<time>2025-08-16T09:45:51.000Z</time>
</trkpt>
<trkpt lat="45.9637970" lon="10.1853680">
	<ele>1599.40</ele>
	<time>2025-08-16T09:45:52.000Z</time>
</trkpt>
<trkpt lat="45.9637980" lon="10.1853860">
	<ele>1599.20</ele>
	<time>2025-08-16T09:45:53.000Z</time>
</trkpt>
<trkpt lat="45.9637980" lon="10.1854090">
	<ele>1599.00</ele>
	<time>2025-08-16T09:45:54.000Z</time>
</trkpt>
<trkpt lat="45.9638050" lon="10.1854230">
	<ele>1599.00</ele>
	<time>2025-08-16T09:45:55.000Z</time>
</trkpt>
<trkpt lat="45.9638130" lon="10.1854400">
	<ele>1598.80</ele>
	<time>2025-08-16T09:45:56.000Z</time>
</trkpt>
<trkpt lat="45.9638240" lon="10.1854540">
	<ele>1598.60</ele>
	<time>2025-08-16T09:45:57.000Z</time>
</trkpt>
<trkpt lat="45.9638370" lon="10.1854660">
	<ele>1598.60</ele>
	<time>2025-08-16T09:45:58.000Z</time>
</trkpt>
<trkpt lat="45.9638360" lon="10.1854850">
	<ele>1598.60</ele>
	<time>2025-08-16T09:45:59.000Z</time>
</trkpt>
<trkpt lat="45.9638360" lon="10.1855090">
	<ele>1598.40</ele>
	<time>2025-08-16T09:46:00.000Z</time>
</trkpt>
<trkpt lat="45.9638410" lon="10.1855250">
	<ele>1598.40</ele>
	<time>2025-08-16T09:46:01.000Z</time>
</trkpt>
<trkpt lat="45.9638450" lon="10.1855360">
	<ele>1598.20</ele>
	<time>2025-08-16T09:46:02.000Z</time>
</trkpt>
<trkpt lat="45.9638480" lon="10.1855450">
	<ele>1598.20</ele>
	<time>2025-08-16T09:46:03.000Z</time>
</trkpt>
<trkpt lat="45.9638450" lon="10.1855550">
	<ele>1598.20</ele>
	<time>2025-08-16T09:46:04.000Z</time>
</trkpt>
<trkpt lat="45.9638460" lon="10.1855590">
	<ele>1598.20</ele>
	<time>2025-08-16T09:46:05.000Z</time>
</trkpt>
<trkpt lat="45.9638470" lon="10.1855610">
	<ele>1598.20</ele>
	<time>2025-08-16T09:46:06.000Z</time>
</trkpt>
<trkpt lat="45.9638500" lon="10.1855610">
	<ele>1598.00</ele>
	<time>2025-08-16T09:46:07.000Z</time>
</trkpt>
<trkpt lat="45.9638540" lon="10.1855670">
	<ele>1598.00</ele>
	<time>2025-08-16T09:46:08.000Z</time>
</trkpt>
<trkpt lat="45.9638550" lon="10.1855740">
	<ele>1598.00</ele>
	<time>2025-08-16T09:46:09.000Z</time>
</trkpt>
<trkpt lat="45.9638600" lon="10.1855830">
	<ele>1597.80</ele>
	<time>2025-08-16T09:46:10.000Z</time>
</trkpt>
<trkpt lat="45.9638720" lon="10.1855950">
	<ele>1597.80</ele>
	<time>2025-08-16T09:46:11.000Z</time>
</trkpt>
<trkpt lat="45.9638840" lon="10.1856080">
	<ele>1597.80</ele>
	<time>2025-08-16T09:46:12.000Z</time>
</trkpt>
<trkpt lat="45.9638950" lon="10.1856160">
	<ele>1597.80</ele>
	<time>2025-08-16T09:46:13.000Z</time>
</trkpt>
<trkpt lat="45.9639080" lon="10.1856250">
	<ele>1597.80</ele>
	<time>2025-08-16T09:46:14.000Z</time>
</trkpt>
<trkpt lat="45.9639180" lon="10.1856370">
	<ele>1597.80</ele>
	<time>2025-08-16T09:46:15.000Z</time>
</trkpt>
<trkpt lat="45.9639260" lon="10.1856480">
	<ele>1597.80</ele>
	<time>2025-08-16T09:46:16.000Z</time>
</trkpt>
<trkpt lat="45.9639320" lon="10.1856620">
	<ele>1597.80</ele>
	<time>2025-08-16T09:46:17.000Z</time>
</trkpt>
<trkpt lat="45.9639400" lon="10.1856700">
	<ele>1597.80</ele>
	<time>2025-08-16T09:46:18.000Z</time>
</trkpt>
<trkpt lat="45.9639450" lon="10.1856730">
	<ele>1597.80</ele>
	<time>2025-08-16T09:46:19.000Z</time>
</trkpt>
<trkpt lat="45.9639480" lon="10.1856750">
	<ele>1598.00</ele>
	<time>2025-08-16T09:46:20.000Z</time>
</trkpt>
<trkpt lat="45.9639500" lon="10.1856750">
	<ele>1598.00</ele>
	<time>2025-08-16T09:46:21.000Z</time>
</trkpt>
<trkpt lat="45.9639510" lon="10.1856750">
	<ele>1598.20</ele>
	<time>2025-08-16T09:46:22.000Z</time>
</trkpt>
<trkpt lat="45.9639510" lon="10.1856740">
	<ele>1598.20</ele>
	<time>2025-08-16T09:46:23.000Z</time>
</trkpt>
<trkpt lat="45.9639600" lon="10.1856750">
	<ele>1598.20</ele>
	<time>2025-08-16T09:46:24.000Z</time>
</trkpt>
<trkpt lat="45.9639700" lon="10.1856780">
	<ele>1598.20</ele>
	<time>2025-08-16T09:46:25.000Z</time>
</trkpt>
<trkpt lat="45.9639800" lon="10.1856770">
	<ele>1598.00</ele>
	<time>2025-08-16T09:46:26.000Z</time>
</trkpt>
<trkpt lat="45.9639910" lon="10.1856770">
	<ele>1597.80</ele>
	<time>2025-08-16T09:46:27.000Z</time>
</trkpt>
<trkpt lat="45.9640000" lon="10.1856800">
	<ele>1597.80</ele>
	<time>2025-08-16T09:46:28.000Z</time>
</trkpt>
<trkpt lat="45.9640060" lon="10.1856790">
	<ele>1597.80</ele>
	<time>2025-08-16T09:46:29.000Z</time>
</trkpt>
<trkpt lat="45.9640080" lon="10.1856780">
	<ele>1597.80</ele>
	<time>2025-08-16T09:46:30.000Z</time>
</trkpt>
<trkpt lat="45.9640110" lon="10.1856760">
	<ele>1597.80</ele>
	<time>2025-08-16T09:46:31.000Z</time>
</trkpt>
<trkpt lat="45.9640130" lon="10.1856760">
	<ele>1598.00</ele>
	<time>2025-08-16T09:46:32.000Z</time>
</trkpt>
<trkpt lat="45.9640120" lon="10.1856740">
	<ele>1598.00</ele>
	<time>2025-08-16T09:46:33.000Z</time>
</trkpt>
<trkpt lat="45.9640110" lon="10.1856730">
	<ele>1598.00</ele>
	<time>2025-08-16T09:46:34.000Z</time>
</trkpt>
<trkpt lat="45.9640110" lon="10.1856730">
	<ele>1598.00</ele>
	<time>2025-08-16T09:46:35.000Z</time>
</trkpt>
<trkpt lat="45.9640120" lon="10.1856730">
	<ele>1598.00</ele>
	<time>2025-08-16T09:46:36.000Z</time>
</trkpt>
<trkpt lat="45.9640120" lon="10.1856750">
	<ele>1598.00</ele>
	<time>2025-08-16T09:46:37.000Z</time>
</trkpt>
<trkpt lat="45.9640120" lon="10.1856760">
	<ele>1598.00</ele>
	<time>2025-08-16T09:46:38.000Z</time>
</trkpt>
<trkpt lat="45.9640120" lon="10.1856760">
	<ele>1598.00</ele>
	<time>2025-08-16T09:46:39.000Z</time>
</trkpt>
<trkpt lat="45.9640140" lon="10.1856740">
	<ele>1598.00</ele>
	<time>2025-08-16T09:46:40.000Z</time>
</trkpt>
<trkpt lat="45.9640160" lon="10.1856720">
	<ele>1597.80</ele>
	<time>2025-08-16T09:46:41.000Z</time>
</trkpt>
<trkpt lat="45.9640180" lon="10.1856710">
	<ele>1597.80</ele>
	<time>2025-08-16T09:46:42.000Z</time>
</trkpt>
<trkpt lat="45.9640220" lon="10.1856730">
	<ele>1597.80</ele>
	<time>2025-08-16T09:46:43.000Z</time>
</trkpt>
<trkpt lat="45.9640250" lon="10.1856740">
	<ele>1597.80</ele>
	<time>2025-08-16T09:46:44.000Z</time>
</trkpt>
<trkpt lat="45.9640270" lon="10.1856720">
	<ele>1598.00</ele>
	<time>2025-08-16T09:46:45.000Z</time>
</trkpt>
<trkpt lat="45.9640310" lon="10.1856700">
	<ele>1598.00</ele>
	<time>2025-08-16T09:46:46.000Z</time>
</trkpt>
<trkpt lat="45.9640360" lon="10.1856690">
	<ele>1598.00</ele>
	<time>2025-08-16T09:46:47.000Z</time>
</trkpt>
<trkpt lat="45.9640440" lon="10.1856670">
	<ele>1598.00</ele>
	<time>2025-08-16T09:46:48.000Z</time>
</trkpt>
<trkpt lat="45.9640530" lon="10.1856650">
	<ele>1598.00</ele>
	<time>2025-08-16T09:46:49.000Z</time>
</trkpt>
<trkpt lat="45.9640600" lon="10.1856640">
	<ele>1598.00</ele>
	<time>2025-08-16T09:46:50.000Z</time>
</trkpt>
<trkpt lat="45.9640670" lon="10.1856640">
	<ele>1598.00</ele>
	<time>2025-08-16T09:46:51.000Z</time>
</trkpt>
<trkpt lat="45.9640700" lon="10.1856670">
	<ele>1598.00</ele>
	<time>2025-08-16T09:46:52.000Z</time>
</trkpt>
<trkpt lat="45.9640760" lon="10.1856680">
	<ele>1598.20</ele>
	<time>2025-08-16T09:46:53.000Z</time>
</trkpt>
<trkpt lat="45.9640790" lon="10.1856700">
	<ele>1598.20</ele>
	<time>2025-08-16T09:46:54.000Z</time>
</trkpt>
<trkpt lat="45.9640810" lon="10.1856700">
	<ele>1598.20</ele>
	<time>2025-08-16T09:46:55.000Z</time>
</trkpt>
<trkpt lat="45.9640820" lon="10.1856700">
	<ele>1598.20</ele>
	<time>2025-08-16T09:46:56.000Z</time>
</trkpt>
<trkpt lat="45.9640820" lon="10.1856710">
	<ele>1598.20</ele>
	<time>2025-08-16T09:46:57.000Z</time>
</trkpt>
<trkpt lat="45.9640830" lon="10.1856710">
	<ele>1598.20</ele>
	<time>2025-08-16T09:46:58.000Z</time>
</trkpt>
<trkpt lat="45.9640840" lon="10.1856710">
	<ele>1598.20</ele>
	<time>2025-08-16T09:46:59.000Z</time>
</trkpt>
<trkpt lat="45.9640860" lon="10.1856670">
	<ele>1598.20</ele>
	<time>2025-08-16T09:47:00.000Z</time>
</trkpt>
<trkpt lat="45.9640860" lon="10.1856650">
	<ele>1598.20</ele>
	<time>2025-08-16T09:47:01.000Z</time>
</trkpt>
<trkpt lat="45.9640860" lon="10.1856640">
	<ele>1598.20</ele>
	<time>2025-08-16T09:47:02.000Z</time>
</trkpt>
<trkpt lat="45.9640890" lon="10.1856650">
	<ele>1598.20</ele>
	<time>2025-08-16T09:47:03.000Z</time>
</trkpt>
<trkpt lat="45.9640970" lon="10.1856660">
	<ele>1598.20</ele>
	<time>2025-08-16T09:47:04.000Z</time>
</trkpt>
<trkpt lat="45.9641050" lon="10.1856660">
	<ele>1598.20</ele>
	<time>2025-08-16T09:47:05.000Z</time>
</trkpt>
<trkpt lat="45.9641130" lon="10.1856680">
	<ele>1598.40</ele>
	<time>2025-08-16T09:47:06.000Z</time>
</trkpt>
<trkpt lat="45.9641230" lon="10.1856690">
	<ele>1598.20</ele>
	<time>2025-08-16T09:47:07.000Z</time>
</trkpt>
<trkpt lat="45.9641350" lon="10.1856690">
	<ele>1598.20</ele>
	<time>2025-08-16T09:47:08.000Z</time>
</trkpt>
<trkpt lat="45.9641450" lon="10.1856750">
	<ele>1598.20</ele>
	<time>2025-08-16T09:47:09.000Z</time>
</trkpt>
<trkpt lat="45.9641550" lon="10.1856850">
	<ele>1598.20</ele>
	<time>2025-08-16T09:47:10.000Z</time>
</trkpt>
<trkpt lat="45.9641630" lon="10.1856970">
	<ele>1598.20</ele>
	<time>2025-08-16T09:47:11.000Z</time>
</trkpt>
<trkpt lat="45.9641750" lon="10.1857030">
	<ele>1598.40</ele>
	<time>2025-08-16T09:47:12.000Z</time>
</trkpt>
<trkpt lat="45.9641870" lon="10.1857070">
	<ele>1598.40</ele>
	<time>2025-08-16T09:47:13.000Z</time>
</trkpt>
<trkpt lat="45.9641990" lon="10.1857090">
	<ele>1598.40</ele>
	<time>2025-08-16T09:47:14.000Z</time>
</trkpt>
<trkpt lat="45.9642110" lon="10.1857130">
	<ele>1598.40</ele>
	<time>2025-08-16T09:47:15.000Z</time>
</trkpt>
<trkpt lat="45.9642220" lon="10.1857170">
	<ele>1598.40</ele>
	<time>2025-08-16T09:47:16.000Z</time>
</trkpt>
<trkpt lat="45.9642360" lon="10.1857210">
	<ele>1598.40</ele>
	<time>2025-08-16T09:47:17.000Z</time>
</trkpt>
<trkpt lat="45.9642500" lon="10.1857230">
	<ele>1598.40</ele>
	<time>2025-08-16T09:47:18.000Z</time>
</trkpt>
<trkpt lat="45.9642650" lon="10.1857250">
	<ele>1598.40</ele>
	<time>2025-08-16T09:47:19.000Z</time>
</trkpt>
<trkpt lat="45.9642790" lon="10.1857290">
	<ele>1598.40</ele>
	<time>2025-08-16T09:47:20.000Z</time>
</trkpt>
<trkpt lat="45.9642900" lon="10.1857340">
	<ele>1598.40</ele>
	<time>2025-08-16T09:47:21.000Z</time>
</trkpt>
<trkpt lat="45.9643000" lon="10.1857420">
	<ele>1598.40</ele>
	<time>2025-08-16T09:47:22.000Z</time>
</trkpt>
<trkpt lat="45.9643100" lon="10.1857490">
	<ele>1598.60</ele>
	<time>2025-08-16T09:47:23.000Z</time>
</trkpt>
<trkpt lat="45.9643190" lon="10.1857530">
	<ele>1598.80</ele>
	<time>2025-08-16T09:47:24.000Z</time>
</trkpt>
<trkpt lat="45.9643280" lon="10.1857560">
	<ele>1599.00</ele>
	<time>2025-08-16T09:47:25.000Z</time>
</trkpt>
<trkpt lat="45.9643330" lon="10.1857580">
	<ele>1599.00</ele>
	<time>2025-08-16T09:47:26.000Z</time>
</trkpt>
<trkpt lat="45.9643350" lon="10.1857580">
	<ele>1599.40</ele>
	<time>2025-08-16T09:47:27.000Z</time>
</trkpt>
<trkpt lat="45.9643350" lon="10.1857590">
	<ele>1599.80</ele>
	<time>2025-08-16T09:47:28.000Z</time>
</trkpt>
<trkpt lat="45.9643360" lon="10.1857620">
	<ele>1599.80</ele>
	<time>2025-08-16T09:47:29.000Z</time>
</trkpt>
<trkpt lat="45.9643360" lon="10.1857660">
	<ele>1599.80</ele>
	<time>2025-08-16T09:47:30.000Z</time>
</trkpt>
<trkpt lat="45.9643390" lon="10.1857720">
	<ele>1599.80</ele>
	<time>2025-08-16T09:47:31.000Z</time>
</trkpt>
<trkpt lat="45.9643450" lon="10.1857780">
	<ele>1599.80</ele>
	<time>2025-08-16T09:47:32.000Z</time>
</trkpt>
<trkpt lat="45.9643550" lon="10.1857830">
	<ele>1599.80</ele>
	<time>2025-08-16T09:47:33.000Z</time>
</trkpt>
<trkpt lat="45.9643630" lon="10.1857890">
	<ele>1599.80</ele>
	<time>2025-08-16T09:47:34.000Z</time>
</trkpt>
<trkpt lat="45.9643710" lon="10.1857970">
	<ele>1599.80</ele>
	<time>2025-08-16T09:47:35.000Z</time>
</trkpt>
<trkpt lat="45.9643760" lon="10.1858000">
	<ele>1600.00</ele>
	<time>2025-08-16T09:47:36.000Z</time>
</trkpt>
<trkpt lat="45.9643850" lon="10.1858050">
	<ele>1600.20</ele>
	<time>2025-08-16T09:47:37.000Z</time>
</trkpt>
<trkpt lat="45.9643930" lon="10.1858080">
	<ele>1600.40</ele>
	<time>2025-08-16T09:47:38.000Z</time>
</trkpt>
<trkpt lat="45.9644000" lon="10.1858120">
	<ele>1600.60</ele>
	<time>2025-08-16T09:47:39.000Z</time>
</trkpt>
<trkpt lat="45.9644030" lon="10.1858210">
	<ele>1600.80</ele>
	<time>2025-08-16T09:47:40.000Z</time>
</trkpt>
<trkpt lat="45.9644100" lon="10.1858350">
	<ele>1601.00</ele>
	<time>2025-08-16T09:47:41.000Z</time>
</trkpt>
<trkpt lat="45.9644160" lon="10.1858470">
	<ele>1601.20</ele>
	<time>2025-08-16T09:47:42.000Z</time>
</trkpt>
<trkpt lat="45.9644250" lon="10.1858490">
	<ele>1601.40</ele>
	<time>2025-08-16T09:47:43.000Z</time>
</trkpt>
<trkpt lat="45.9644340" lon="10.1858540">
	<ele>1601.60</ele>
	<time>2025-08-16T09:47:44.000Z</time>
</trkpt>
<trkpt lat="45.9644420" lon="10.1858630">
	<ele>1601.80</ele>
	<time>2025-08-16T09:47:45.000Z</time>
</trkpt>
<trkpt lat="45.9644550" lon="10.1858720">
	<ele>1602.00</ele>
	<time>2025-08-16T09:47:46.000Z</time>
</trkpt>
<trkpt lat="45.9644620" lon="10.1858780">
	<ele>1602.20</ele>
	<time>2025-08-16T09:47:47.000Z</time>
</trkpt>
<trkpt lat="45.9644690" lon="10.1858840">
	<ele>1602.20</ele>
	<time>2025-08-16T09:47:48.000Z</time>
</trkpt>
<trkpt lat="45.9644780" lon="10.1858930">
	<ele>1602.40</ele>
	<time>2025-08-16T09:47:49.000Z</time>
</trkpt>
<trkpt lat="45.9644860" lon="10.1859010">
	<ele>1602.40</ele>
	<time>2025-08-16T09:47:50.000Z</time>
</trkpt>
<trkpt lat="45.9644940" lon="10.1859070">
	<ele>1602.60</ele>
	<time>2025-08-16T09:47:51.000Z</time>
</trkpt>
<trkpt lat="45.9645050" lon="10.1859150">
	<ele>1602.80</ele>
	<time>2025-08-16T09:47:52.000Z</time>
</trkpt>
<trkpt lat="45.9645090" lon="10.1859210">
	<ele>1602.80</ele>
	<time>2025-08-16T09:47:53.000Z</time>
</trkpt>
<trkpt lat="45.9645190" lon="10.1859290">
	<ele>1603.20</ele>
	<time>2025-08-16T09:47:54.000Z</time>
</trkpt>
<trkpt lat="45.9645280" lon="10.1859320">
	<ele>1603.40</ele>
	<time>2025-08-16T09:47:55.000Z</time>
</trkpt>
<trkpt lat="45.9645370" lon="10.1859350">
	<ele>1603.40</ele>
	<time>2025-08-16T09:47:56.000Z</time>
</trkpt>
<trkpt lat="45.9645470" lon="10.1859380">
	<ele>1603.60</ele>
	<time>2025-08-16T09:47:57.000Z</time>
</trkpt>
<trkpt lat="45.9645570" lon="10.1859360">
	<ele>1603.80</ele>
	<time>2025-08-16T09:47:58.000Z</time>
</trkpt>
<trkpt lat="45.9645620" lon="10.1859370">
	<ele>1603.80</ele>
	<time>2025-08-16T09:47:59.000Z</time>
</trkpt>
<trkpt lat="45.9645640" lon="10.1859370">
	<ele>1604.00</ele>
	<time>2025-08-16T09:48:00.000Z</time>
</trkpt>
<trkpt lat="45.9645640" lon="10.1859380">
	<ele>1604.00</ele>
	<time>2025-08-16T09:48:01.000Z</time>
</trkpt>
<trkpt lat="45.9645660" lon="10.1859370">
	<ele>1604.20</ele>
	<time>2025-08-16T09:48:02.000Z</time>
</trkpt>
<trkpt lat="45.9645660" lon="10.1859370">
	<ele>1604.40</ele>
	<time>2025-08-16T09:48:03.000Z</time>
</trkpt>
<trkpt lat="45.9645660" lon="10.1859380">
	<ele>1604.60</ele>
	<time>2025-08-16T09:48:04.000Z</time>
</trkpt>
<trkpt lat="45.9645660" lon="10.1859400">
	<ele>1604.60</ele>
	<time>2025-08-16T09:48:05.000Z</time>
</trkpt>
<trkpt lat="45.9645670" lon="10.1859410">
	<ele>1604.80</ele>
	<time>2025-08-16T09:48:06.000Z</time>
</trkpt>
<trkpt lat="45.9645710" lon="10.1859380">
	<ele>1604.80</ele>
	<time>2025-08-16T09:48:07.000Z</time>
</trkpt>
<trkpt lat="45.9645800" lon="10.1859370">
	<ele>1604.80</ele>
	<time>2025-08-16T09:48:08.000Z</time>
</trkpt>
<trkpt lat="45.9645900" lon="10.1859380">
	<ele>1604.80</ele>
	<time>2025-08-16T09:48:09.000Z</time>
</trkpt>
<trkpt lat="45.9645980" lon="10.1859370">
	<ele>1604.80</ele>
	<time>2025-08-16T09:48:10.000Z</time>
</trkpt>
<trkpt lat="45.9646120" lon="10.1859320">
	<ele>1604.80</ele>
	<time>2025-08-16T09:48:11.000Z</time>
</trkpt>
<trkpt lat="45.9646240" lon="10.1859290">
	<ele>1604.80</ele>
	<time>2025-08-16T09:48:12.000Z</time>
</trkpt>
<trkpt lat="45.9646340" lon="10.1859280">
	<ele>1605.00</ele>
	<time>2025-08-16T09:48:13.000Z</time>
</trkpt>
<trkpt lat="45.9646430" lon="10.1859280">
	<ele>1605.00</ele>
	<time>2025-08-16T09:48:14.000Z</time>
</trkpt>
<trkpt lat="45.9646510" lon="10.1859270">
	<ele>1605.20</ele>
	<time>2025-08-16T09:48:15.000Z</time>
</trkpt>
<trkpt lat="45.9646580" lon="10.1859250">
	<ele>1605.40</ele>
	<time>2025-08-16T09:48:16.000Z</time>
</trkpt>
<trkpt lat="45.9646650" lon="10.1859300">
	<ele>1605.60</ele>
	<time>2025-08-16T09:48:17.000Z</time>
</trkpt>
<trkpt lat="45.9646730" lon="10.1859380">
	<ele>1605.80</ele>
	<time>2025-08-16T09:48:18.000Z</time>
</trkpt>
<trkpt lat="45.9646780" lon="10.1859440">
	<ele>1605.80</ele>
	<time>2025-08-16T09:48:19.000Z</time>
</trkpt>
<trkpt lat="45.9646860" lon="10.1859460">
	<ele>1606.20</ele>
	<time>2025-08-16T09:48:20.000Z</time>
</trkpt>
<trkpt lat="45.9646910" lon="10.1859480">
	<ele>1606.40</ele>
	<time>2025-08-16T09:48:21.000Z</time>
</trkpt>
<trkpt lat="45.9646980" lon="10.1859480">
	<ele>1606.60</ele>
	<time>2025-08-16T09:48:22.000Z</time>
</trkpt>
<trkpt lat="45.9647110" lon="10.1859450">
	<ele>1606.80</ele>
	<time>2025-08-16T09:48:23.000Z</time>
</trkpt>
<trkpt lat="45.9647240" lon="10.1859490">
	<ele>1607.20</ele>
	<time>2025-08-16T09:48:24.000Z</time>
</trkpt>
<trkpt lat="45.9647350" lon="10.1859510">
	<ele>1607.40</ele>
	<time>2025-08-16T09:48:25.000Z</time>
</trkpt>
<trkpt lat="45.9647480" lon="10.1859520">
	<ele>1607.60</ele>
	<time>2025-08-16T09:48:26.000Z</time>
</trkpt>
<trkpt lat="45.9647610" lon="10.1859460">
	<ele>1607.80</ele>
	<time>2025-08-16T09:48:27.000Z</time>
</trkpt>
<trkpt lat="45.9647730" lon="10.1859470">
	<ele>1608.00</ele>
	<time>2025-08-16T09:48:28.000Z</time>
</trkpt>
<trkpt lat="45.9647810" lon="10.1859450">
	<ele>1608.20</ele>
	<time>2025-08-16T09:48:29.000Z</time>
</trkpt>
<trkpt lat="45.9647930" lon="10.1859450">
	<ele>1608.40</ele>
	<time>2025-08-16T09:48:30.000Z</time>
</trkpt>
<trkpt lat="45.9648040" lon="10.1859430">
	<ele>1608.60</ele>
	<time>2025-08-16T09:48:31.000Z</time>
</trkpt>
<trkpt lat="45.9648180" lon="10.1859470">
	<ele>1608.80</ele>
	<time>2025-08-16T09:48:32.000Z</time>
</trkpt>
<trkpt lat="45.9648280" lon="10.1859460">
	<ele>1609.00</ele>
	<time>2025-08-16T09:48:33.000Z</time>
</trkpt>
<trkpt lat="45.9648370" lon="10.1859430">
	<ele>1609.00</ele>
	<time>2025-08-16T09:48:34.000Z</time>
</trkpt>
<trkpt lat="45.9648460" lon="10.1859390">
	<ele>1609.20</ele>
	<time>2025-08-16T09:48:35.000Z</time>
</trkpt>
<trkpt lat="45.9648560" lon="10.1859350">
	<ele>1609.40</ele>
	<time>2025-08-16T09:48:36.000Z</time>
</trkpt>
<trkpt lat="45.9648670" lon="10.1859330">
	<ele>1609.40</ele>
	<time>2025-08-16T09:48:37.000Z</time>
</trkpt>
<trkpt lat="45.9648780" lon="10.1859290">
	<ele>1609.60</ele>
	<time>2025-08-16T09:48:38.000Z</time>
</trkpt>
<trkpt lat="45.9648890" lon="10.1859240">
	<ele>1609.80</ele>
	<time>2025-08-16T09:48:39.000Z</time>
</trkpt>
<trkpt lat="45.9649010" lon="10.1859170">
	<ele>1609.80</ele>
	<time>2025-08-16T09:48:40.000Z</time>
</trkpt>
<trkpt lat="45.9649120" lon="10.1859130">
	<ele>1610.00</ele>
	<time>2025-08-16T09:48:41.000Z</time>
</trkpt>
<trkpt lat="45.9649210" lon="10.1859060">
	<ele>1610.20</ele>
	<time>2025-08-16T09:48:42.000Z</time>
</trkpt>
<trkpt lat="45.9649280" lon="10.1858970">
	<ele>1610.20</ele>
	<time>2025-08-16T09:48:43.000Z</time>
</trkpt>
<trkpt lat="45.9649310" lon="10.1858890">
	<ele>1610.40</ele>
	<time>2025-08-16T09:48:44.000Z</time>
</trkpt>
<trkpt lat="45.9649350" lon="10.1858800">
	<ele>1610.60</ele>
	<time>2025-08-16T09:48:45.000Z</time>
</trkpt>
<trkpt lat="45.9649360" lon="10.1858710">
	<ele>1610.80</ele>
	<time>2025-08-16T09:48:46.000Z</time>
</trkpt>
<trkpt lat="45.9649380" lon="10.1858680">
	<ele>1610.80</ele>
	<time>2025-08-16T09:48:47.000Z</time>
</trkpt>
<trkpt lat="45.9649400" lon="10.1858650">
	<ele>1610.80</ele>
	<time>2025-08-16T09:48:48.000Z</time>
</trkpt>
<trkpt lat="45.9649380" lon="10.1858650">
	<ele>1611.00</ele>
	<time>2025-08-16T09:48:49.000Z</time>
</trkpt>
<trkpt lat="45.9649360" lon="10.1858660">
	<ele>1611.00</ele>
	<time>2025-08-16T09:48:50.000Z</time>
</trkpt>
<trkpt lat="45.9649330" lon="10.1858680">
	<ele>1611.00</ele>
	<time>2025-08-16T09:48:51.000Z</time>
</trkpt>
<trkpt lat="45.9649280" lon="10.1858710">
	<ele>1611.00</ele>
	<time>2025-08-16T09:48:52.000Z</time>
</trkpt>
<trkpt lat="45.9649260" lon="10.1858770">
	<ele>1611.00</ele>
	<time>2025-08-16T09:48:53.000Z</time>
</trkpt>
<trkpt lat="45.9649210" lon="10.1858870">
	<ele>1611.00</ele>
	<time>2025-08-16T09:48:54.000Z</time>
</trkpt>
<trkpt lat="45.9649210" lon="10.1858870">
	<ele>1611.00</ele>
	<time>2025-08-16T09:48:55.000Z</time>
</trkpt>
<trkpt lat="45.9649210" lon="10.1858830">
	<ele>1611.20</ele>
	<time>2025-08-16T09:48:56.000Z</time>
</trkpt>
<trkpt lat="45.9649220" lon="10.1858820">
	<ele>1611.20</ele>
	<time>2025-08-16T09:48:57.000Z</time>
</trkpt>
<trkpt lat="45.9649220" lon="10.1858820">
	<ele>1611.20</ele>
	<time>2025-08-16T09:48:58.000Z</time>
</trkpt>
<trkpt lat="45.9649220" lon="10.1858820">
	<ele>1611.20</ele>
	<time>2025-08-16T09:48:59.000Z</time>
</trkpt>
<trkpt lat="45.9649220" lon="10.1858820">
	<ele>1611.20</ele>
	<time>2025-08-16T09:49:00.000Z</time>
</trkpt>
<trkpt lat="45.9649220" lon="10.1858820">
	<ele>1611.40</ele>
	<time>2025-08-16T09:49:01.000Z</time>
</trkpt>
<trkpt lat="45.9649240" lon="10.1858850">
	<ele>1611.60</ele>
	<time>2025-08-16T09:49:02.000Z</time>
</trkpt>
<trkpt lat="45.9649370" lon="10.1858950">
	<ele>1611.60</ele>
	<time>2025-08-16T09:49:03.000Z</time>
</trkpt>
<trkpt lat="45.9649480" lon="10.1859080">
	<ele>1611.60</ele>
	<time>2025-08-16T09:49:04.000Z</time>
</trkpt>
<trkpt lat="45.9649600" lon="10.1859220">
	<ele>1611.60</ele>
	<time>2025-08-16T09:49:05.000Z</time>
</trkpt>
<trkpt lat="45.9649730" lon="10.1859330">
	<ele>1611.60</ele>
	<time>2025-08-16T09:49:06.000Z</time>
</trkpt>
<trkpt lat="45.9649880" lon="10.1859460">
	<ele>1611.60</ele>
	<time>2025-08-16T09:49:07.000Z</time>
</trkpt>
<trkpt lat="45.9650010" lon="10.1859520">
	<ele>1611.80</ele>
	<time>2025-08-16T09:49:08.000Z</time>
</trkpt>
<trkpt lat="45.9650140" lon="10.1859590">
	<ele>1611.80</ele>
	<time>2025-08-16T09:49:09.000Z</time>
</trkpt>
<trkpt lat="45.9650250" lon="10.1859660">
	<ele>1612.00</ele>
	<time>2025-08-16T09:49:10.000Z</time>
</trkpt>
<trkpt lat="45.9650390" lon="10.1859740">
	<ele>1612.20</ele>
	<time>2025-08-16T09:49:11.000Z</time>
</trkpt>
<trkpt lat="45.9650510" lon="10.1859780">
	<ele>1612.20</ele>
	<time>2025-08-16T09:49:12.000Z</time>
</trkpt>
<trkpt lat="45.9650630" lon="10.1859810">
	<ele>1612.40</ele>
	<time>2025-08-16T09:49:13.000Z</time>
</trkpt>
<trkpt lat="45.9650780" lon="10.1859860">
	<ele>1612.40</ele>
	<time>2025-08-16T09:49:14.000Z</time>
</trkpt>
<trkpt lat="45.9650910" lon="10.1859870">
	<ele>1612.60</ele>
	<time>2025-08-16T09:49:15.000Z</time>
</trkpt>
<trkpt lat="45.9651030" lon="10.1859890">
	<ele>1612.80</ele>
	<time>2025-08-16T09:49:16.000Z</time>
</trkpt>
<trkpt lat="45.9651110" lon="10.1859910">
	<ele>1612.80</ele>
	<time>2025-08-16T09:49:17.000Z</time>
</trkpt>
<trkpt lat="45.9651230" lon="10.1859920">
	<ele>1613.00</ele>
	<time>2025-08-16T09:49:18.000Z</time>
</trkpt>
<trkpt lat="45.9651360" lon="10.1859970">
	<ele>1613.00</ele>
	<time>2025-08-16T09:49:19.000Z</time>
</trkpt>
<trkpt lat="45.9651490" lon="10.1860030">
	<ele>1613.00</ele>
	<time>2025-08-16T09:49:20.000Z</time>
</trkpt>
<trkpt lat="45.9651650" lon="10.1860100">
	<ele>1613.00</ele>
	<time>2025-08-16T09:49:21.000Z</time>
</trkpt>
<trkpt lat="45.9651760" lon="10.1860110">
	<ele>1613.00</ele>
	<time>2025-08-16T09:49:22.000Z</time>
</trkpt>
<trkpt lat="45.9651860" lon="10.1860140">
	<ele>1613.00</ele>
	<time>2025-08-16T09:49:23.000Z</time>
</trkpt>
<trkpt lat="45.9651960" lon="10.1860170">
	<ele>1613.00</ele>
	<time>2025-08-16T09:49:24.000Z</time>
</trkpt>
<trkpt lat="45.9652040" lon="10.1860220">
	<ele>1613.00</ele>
	<time>2025-08-16T09:49:25.000Z</time>
</trkpt>
<trkpt lat="45.9652180" lon="10.1860310">
	<ele>1613.00</ele>
	<time>2025-08-16T09:49:26.000Z</time>
</trkpt>
<trkpt lat="45.9652250" lon="10.1860330">
	<ele>1613.00</ele>
	<time>2025-08-16T09:49:27.000Z</time>
</trkpt>
<trkpt lat="45.9652290" lon="10.1860350">
	<ele>1613.20</ele>
	<time>2025-08-16T09:49:28.000Z</time>
</trkpt>
<trkpt lat="45.9652310" lon="10.1860360">
	<ele>1613.40</ele>
	<time>2025-08-16T09:49:29.000Z</time>
</trkpt>
<trkpt lat="45.9652320" lon="10.1860410">
	<ele>1613.60</ele>
	<time>2025-08-16T09:49:30.000Z</time>
</trkpt>
<trkpt lat="45.9652330" lon="10.1860430">
	<ele>1613.60</ele>
	<time>2025-08-16T09:49:31.000Z</time>
</trkpt>
<trkpt lat="45.9652400" lon="10.1860490">
	<ele>1613.60</ele>
	<time>2025-08-16T09:49:32.000Z</time>
</trkpt>
<trkpt lat="45.9652440" lon="10.1860580">
	<ele>1613.80</ele>
	<time>2025-08-16T09:49:33.000Z</time>
</trkpt>
<trkpt lat="45.9652520" lon="10.1860670">
	<ele>1613.80</ele>
	<time>2025-08-16T09:49:34.000Z</time>
</trkpt>
<trkpt lat="45.9652600" lon="10.1860750">
	<ele>1613.80</ele>
	<time>2025-08-16T09:49:35.000Z</time>
</trkpt>
<trkpt lat="45.9652690" lon="10.1860810">
	<ele>1613.80</ele>
	<time>2025-08-16T09:49:36.000Z</time>
</trkpt>
<trkpt lat="45.9652750" lon="10.1860820">
	<ele>1614.00</ele>
	<time>2025-08-16T09:49:37.000Z</time>
</trkpt>
<trkpt lat="45.9652830" lon="10.1860820">
	<ele>1614.20</ele>
	<time>2025-08-16T09:49:38.000Z</time>
</trkpt>
<trkpt lat="45.9652910" lon="10.1860860">
	<ele>1614.40</ele>
	<time>2025-08-16T09:49:39.000Z</time>
</trkpt>
<trkpt lat="45.9653020" lon="10.1860890">
	<ele>1614.60</ele>
	<time>2025-08-16T09:49:40.000Z</time>
</trkpt>
<trkpt lat="45.9653110" lon="10.1860930">
	<ele>1614.80</ele>
	<time>2025-08-16T09:49:41.000Z</time>
</trkpt>
<trkpt lat="45.9653200" lon="10.1860980">
	<ele>1615.00</ele>
	<time>2025-08-16T09:49:42.000Z</time>
</trkpt>
<trkpt lat="45.9653300" lon="10.1861010">
	<ele>1615.20</ele>
	<time>2025-08-16T09:49:43.000Z</time>
</trkpt>
<trkpt lat="45.9653390" lon="10.1861040">
	<ele>1615.60</ele>
	<time>2025-08-16T09:49:44.000Z</time>
</trkpt>
<trkpt lat="45.9653480" lon="10.1861100">
	<ele>1615.80</ele>
	<time>2025-08-16T09:49:45.000Z</time>
</trkpt>
<trkpt lat="45.9653540" lon="10.1861100">
	<ele>1616.20</ele>
	<time>2025-08-16T09:49:46.000Z</time>
</trkpt>
<trkpt lat="45.9653630" lon="10.1861150">
	<ele>1616.40</ele>
	<time>2025-08-16T09:49:47.000Z</time>
</trkpt>
<trkpt lat="45.9653640" lon="10.1861180">
	<ele>1616.40</ele>
	<time>2025-08-16T09:49:48.000Z</time>
</trkpt>
<trkpt lat="45.9653720" lon="10.1861210">
	<ele>1616.60</ele>
	<time>2025-08-16T09:49:49.000Z</time>
</trkpt>
<trkpt lat="45.9653780" lon="10.1861240">
	<ele>1616.80</ele>
	<time>2025-08-16T09:49:50.000Z</time>
</trkpt>
<trkpt lat="45.9653860" lon="10.1861280">
	<ele>1617.00</ele>
	<time>2025-08-16T09:49:51.000Z</time>
</trkpt>
<trkpt lat="45.9653920" lon="10.1861330">
	<ele>1617.20</ele>
	<time>2025-08-16T09:49:52.000Z</time>
</trkpt>
<trkpt lat="45.9653960" lon="10.1861400">
	<ele>1617.40</ele>
	<time>2025-08-16T09:49:53.000Z</time>
</trkpt>
<trkpt lat="45.9654030" lon="10.1861450">
	<ele>1617.60</ele>
	<time>2025-08-16T09:49:54.000Z</time>
</trkpt>
<trkpt lat="45.9654150" lon="10.1861460">
	<ele>1617.80</ele>
	<time>2025-08-16T09:49:55.000Z</time>
</trkpt>
<trkpt lat="45.9654260" lon="10.1861480">
	<ele>1618.00</ele>
	<time>2025-08-16T09:49:56.000Z</time>
</trkpt>
<trkpt lat="45.9654360" lon="10.1861490">
	<ele>1618.20</ele>
	<time>2025-08-16T09:49:57.000Z</time>
</trkpt>
<trkpt lat="45.9654470" lon="10.1861550">
	<ele>1618.40</ele>
	<time>2025-08-16T09:49:58.000Z</time>
</trkpt>
<trkpt lat="45.9654540" lon="10.1861570">
	<ele>1618.60</ele>
	<time>2025-08-16T09:49:59.000Z</time>
</trkpt>
<trkpt lat="45.9654580" lon="10.1861590">
	<ele>1619.00</ele>
	<time>2025-08-16T09:50:00.000Z</time>
</trkpt>
<trkpt lat="45.9654680" lon="10.1861630">
	<ele>1619.20</ele>
	<time>2025-08-16T09:50:01.000Z</time>
</trkpt>
<trkpt lat="45.9654760" lon="10.1861670">
	<ele>1619.40</ele>
	<time>2025-08-16T09:50:02.000Z</time>
</trkpt>
<trkpt lat="45.9654840" lon="10.1861730">
	<ele>1619.60</ele>
	<time>2025-08-16T09:50:03.000Z</time>
</trkpt>
<trkpt lat="45.9654920" lon="10.1861780">
	<ele>1619.60</ele>
	<time>2025-08-16T09:50:04.000Z</time>
</trkpt>
<trkpt lat="45.9655000" lon="10.1861790">
	<ele>1619.80</ele>
	<time>2025-08-16T09:50:05.000Z</time>
</trkpt>
<trkpt lat="45.9655090" lon="10.1861750">
	<ele>1620.00</ele>
	<time>2025-08-16T09:50:06.000Z</time>
</trkpt>
<trkpt lat="45.9655150" lon="10.1861730">
	<ele>1620.20</ele>
	<time>2025-08-16T09:50:07.000Z</time>
</trkpt>
<trkpt lat="45.9655220" lon="10.1861720">
	<ele>1620.40</ele>
	<time>2025-08-16T09:50:08.000Z</time>
</trkpt>
<trkpt lat="45.9655320" lon="10.1861730">
	<ele>1620.80</ele>
	<time>2025-08-16T09:50:09.000Z</time>
</trkpt>
<trkpt lat="45.9655400" lon="10.1861770">
	<ele>1621.00</ele>
	<time>2025-08-16T09:50:10.000Z</time>
</trkpt>
<trkpt lat="45.9655480" lon="10.1861780">
	<ele>1621.20</ele>
	<time>2025-08-16T09:50:11.000Z</time>
</trkpt>
<trkpt lat="45.9655530" lon="10.1861810">
	<ele>1621.20</ele>
	<time>2025-08-16T09:50:12.000Z</time>
</trkpt>
<trkpt lat="45.9655610" lon="10.1861830">
	<ele>1621.40</ele>
	<time>2025-08-16T09:50:13.000Z</time>
</trkpt>
<trkpt lat="45.9655680" lon="10.1861890">
	<ele>1621.60</ele>
	<time>2025-08-16T09:50:14.000Z</time>
</trkpt>
<trkpt lat="45.9655730" lon="10.1861930">
	<ele>1621.80</ele>
	<time>2025-08-16T09:50:15.000Z</time>
</trkpt>
<trkpt lat="45.9655790" lon="10.1862000">
	<ele>1622.00</ele>
	<time>2025-08-16T09:50:16.000Z</time>
</trkpt>
<trkpt lat="45.9655820" lon="10.1862010">
	<ele>1622.20</ele>
	<time>2025-08-16T09:50:17.000Z</time>
</trkpt>
<trkpt lat="45.9655870" lon="10.1862050">
	<ele>1622.40</ele>
	<time>2025-08-16T09:50:18.000Z</time>
</trkpt>
<trkpt lat="45.9655910" lon="10.1862080">
	<ele>1622.60</ele>
	<time>2025-08-16T09:50:19.000Z</time>
</trkpt>
<trkpt lat="45.9655900" lon="10.1862080">
	<ele>1622.80</ele>
	<time>2025-08-16T09:50:20.000Z</time>
</trkpt>
<trkpt lat="45.9655910" lon="10.1862090">
	<ele>1623.00</ele>
	<time>2025-08-16T09:50:21.000Z</time>
</trkpt>
<trkpt lat="45.9656000" lon="10.1862110">
	<ele>1623.00</ele>
	<time>2025-08-16T09:50:22.000Z</time>
</trkpt>
<trkpt lat="45.9656120" lon="10.1862110">
	<ele>1623.00</ele>
	<time>2025-08-16T09:50:23.000Z</time>
</trkpt>
<trkpt lat="45.9656230" lon="10.1862090">
	<ele>1623.20</ele>
	<time>2025-08-16T09:50:24.000Z</time>
</trkpt>
<trkpt lat="45.9656320" lon="10.1862020">
	<ele>1623.20</ele>
	<time>2025-08-16T09:50:25.000Z</time>
</trkpt>
<trkpt lat="45.9656410" lon="10.1861930">
	<ele>1623.20</ele>
	<time>2025-08-16T09:50:26.000Z</time>
</trkpt>
<trkpt lat="45.9656530" lon="10.1861840">
	<ele>1623.40</ele>
	<time>2025-08-16T09:50:27.000Z</time>
</trkpt>
<trkpt lat="45.9656640" lon="10.1861770">
	<ele>1623.40</ele>
	<time>2025-08-16T09:50:28.000Z</time>
</trkpt>
<trkpt lat="45.9656740" lon="10.1861690">
	<ele>1623.60</ele>
	<time>2025-08-16T09:50:29.000Z</time>
</trkpt>
<trkpt lat="45.9656820" lon="10.1861590">
	<ele>1623.60</ele>
	<time>2025-08-16T09:50:30.000Z</time>
</trkpt>
<trkpt lat="45.9656920" lon="10.1861500">
	<ele>1623.80</ele>
	<time>2025-08-16T09:50:31.000Z</time>
</trkpt>
<trkpt lat="45.9657010" lon="10.1861420">
	<ele>1624.00</ele>
	<time>2025-08-16T09:50:32.000Z</time>
</trkpt>
<trkpt lat="45.9657080" lon="10.1861320">
	<ele>1624.00</ele>
	<time>2025-08-16T09:50:33.000Z</time>
</trkpt>
<trkpt lat="45.9657180" lon="10.1861230">
	<ele>1624.20</ele>
	<time>2025-08-16T09:50:34.000Z</time>
</trkpt>
<trkpt lat="45.9657270" lon="10.1861130">
	<ele>1624.40</ele>
	<time>2025-08-16T09:50:35.000Z</time>
</trkpt>
<trkpt lat="45.9657360" lon="10.1861080">
	<ele>1624.60</ele>
	<time>2025-08-16T09:50:36.000Z</time>
</trkpt>
<trkpt lat="45.9657480" lon="10.1861040">
	<ele>1624.80</ele>
	<time>2025-08-16T09:50:37.000Z</time>
</trkpt>
<trkpt lat="45.9657580" lon="10.1861030">
	<ele>1625.00</ele>
	<time>2025-08-16T09:50:38.000Z</time>
</trkpt>
<trkpt lat="45.9657680" lon="10.1861030">
	<ele>1625.20</ele>
	<time>2025-08-16T09:50:39.000Z</time>
</trkpt>
<trkpt lat="45.9657760" lon="10.1861030">
	<ele>1625.40</ele>
	<time>2025-08-16T09:50:40.000Z</time>
</trkpt>
<trkpt lat="45.9657840" lon="10.1861050">
	<ele>1625.80</ele>
	<time>2025-08-16T09:50:41.000Z</time>
</trkpt>
<trkpt lat="45.9657950" lon="10.1861070">
	<ele>1625.80</ele>
	<time>2025-08-16T09:50:42.000Z</time>
</trkpt>
<trkpt lat="45.9658040" lon="10.1861120">
	<ele>1626.00</ele>
	<time>2025-08-16T09:50:43.000Z</time>
</trkpt>
<trkpt lat="45.9658140" lon="10.1861200">
	<ele>1626.00</ele>
	<time>2025-08-16T09:50:44.000Z</time>
</trkpt>
<trkpt lat="45.9658230" lon="10.1861280">
	<ele>1626.20</ele>
	<time>2025-08-16T09:50:45.000Z</time>
</trkpt>
<trkpt lat="45.9658310" lon="10.1861360">
	<ele>1626.40</ele>
	<time>2025-08-16T09:50:46.000Z</time>
</trkpt>
<trkpt lat="45.9658400" lon="10.1861400">
	<ele>1626.40</ele>
	<time>2025-08-16T09:50:47.000Z</time>
</trkpt>
<trkpt lat="45.9658450" lon="10.1861420">
	<ele>1626.60</ele>
	<time>2025-08-16T09:50:48.000Z</time>
</trkpt>
<trkpt lat="45.9658460" lon="10.1861430">
	<ele>1627.00</ele>
	<time>2025-08-16T09:50:49.000Z</time>
</trkpt>
<trkpt lat="45.9658460" lon="10.1861420">
	<ele>1627.20</ele>
	<time>2025-08-16T09:50:50.000Z</time>
</trkpt>
<trkpt lat="45.9658450" lon="10.1861420">
	<ele>1627.40</ele>
	<time>2025-08-16T09:50:51.000Z</time>
</trkpt>
<trkpt lat="45.9658460" lon="10.1861420">
	<ele>1627.40</ele>
	<time>2025-08-16T09:50:52.000Z</time>
</trkpt>
<trkpt lat="45.9658480" lon="10.1861470">
	<ele>1627.60</ele>
	<time>2025-08-16T09:50:53.000Z</time>
</trkpt>
<trkpt lat="45.9658530" lon="10.1861550">
	<ele>1627.40</ele>
	<time>2025-08-16T09:50:54.000Z</time>
</trkpt>
<trkpt lat="45.9658570" lon="10.1861660">
	<ele>1627.40</ele>
	<time>2025-08-16T09:50:55.000Z</time>
</trkpt>
<trkpt lat="45.9658570" lon="10.1861750">
	<ele>1627.40</ele>
	<time>2025-08-16T09:50:56.000Z</time>
</trkpt>
<trkpt lat="45.9658620" lon="10.1861880">
	<ele>1627.40</ele>
	<time>2025-08-16T09:50:57.000Z</time>
</trkpt>
<trkpt lat="45.9658690" lon="10.1861950">
	<ele>1627.40</ele>
	<time>2025-08-16T09:50:58.000Z</time>
</trkpt>
<trkpt lat="45.9658760" lon="10.1861960">
	<ele>1627.40</ele>
	<time>2025-08-16T09:50:59.000Z</time>
</trkpt>
<trkpt lat="45.9658800" lon="10.1861970">
	<ele>1627.60</ele>
	<time>2025-08-16T09:51:00.000Z</time>
</trkpt>
<trkpt lat="45.9658830" lon="10.1861980">
	<ele>1627.80</ele>
	<time>2025-08-16T09:51:01.000Z</time>
</trkpt>
<trkpt lat="45.9658830" lon="10.1861980">
	<ele>1628.00</ele>
	<time>2025-08-16T09:51:02.000Z</time>
</trkpt>
<trkpt lat="45.9658820" lon="10.1861970">
	<ele>1628.00</ele>
	<time>2025-08-16T09:51:03.000Z</time>
</trkpt>
<trkpt lat="45.9658870" lon="10.1861960">
	<ele>1628.20</ele>
	<time>2025-08-16T09:51:04.000Z</time>
</trkpt>
<trkpt lat="45.9658900" lon="10.1861940">
	<ele>1628.20</ele>
	<time>2025-08-16T09:51:05.000Z</time>
</trkpt>
<trkpt lat="45.9658930" lon="10.1861940">
	<ele>1628.20</ele>
	<time>2025-08-16T09:51:06.000Z</time>
</trkpt>
<trkpt lat="45.9658940" lon="10.1861950">
	<ele>1628.20</ele>
	<time>2025-08-16T09:51:07.000Z</time>
</trkpt>
<trkpt lat="45.9658950" lon="10.1861950">
	<ele>1628.40</ele>
	<time>2025-08-16T09:51:08.000Z</time>
</trkpt>
<trkpt lat="45.9658940" lon="10.1861950">
	<ele>1628.60</ele>
	<time>2025-08-16T09:51:09.000Z</time>
</trkpt>
<trkpt lat="45.9658940" lon="10.1861960">
	<ele>1628.60</ele>
	<time>2025-08-16T09:51:10.000Z</time>
</trkpt>
<trkpt lat="45.9658920" lon="10.1861980">
	<ele>1628.60</ele>
	<time>2025-08-16T09:51:11.000Z</time>
</trkpt>
<trkpt lat="45.9658880" lon="10.1862020">
	<ele>1628.60</ele>
	<time>2025-08-16T09:51:12.000Z</time>
</trkpt>
<trkpt lat="45.9658870" lon="10.1862030">
	<ele>1628.60</ele>
	<time>2025-08-16T09:51:13.000Z</time>
</trkpt>
<trkpt lat="45.9658850" lon="10.1862040">
	<ele>1628.60</ele>
	<time>2025-08-16T09:51:14.000Z</time>
</trkpt>
<trkpt lat="45.9658840" lon="10.1862040">
	<ele>1628.40</ele>
	<time>2025-08-16T09:51:15.000Z</time>
</trkpt>
<trkpt lat="45.9658830" lon="10.1862040">
	<ele>1628.40</ele>
	<time>2025-08-16T09:51:16.000Z</time>
</trkpt>
<trkpt lat="45.9658830" lon="10.1862040">
	<ele>1628.40</ele>
	<time>2025-08-16T09:51:17.000Z</time>
</trkpt>
<trkpt lat="45.9658830" lon="10.1862040">
	<ele>1628.40</ele>
	<time>2025-08-16T09:51:18.000Z</time>
</trkpt>
<trkpt lat="45.9658830" lon="10.1862040">
	<ele>1628.40</ele>
	<time>2025-08-16T09:51:19.000Z</time>
</trkpt>
<trkpt lat="45.9658830" lon="10.1862040">
	<ele>1628.40</ele>
	<time>2025-08-16T09:51:20.000Z</time>
</trkpt>
<trkpt lat="45.9658830" lon="10.1862040">
	<ele>1628.40</ele>
	<time>2025-08-16T09:51:21.000Z</time>
</trkpt>
<trkpt lat="45.9658820" lon="10.1862100">
	<ele>1628.40</ele>
	<time>2025-08-16T09:51:22.000Z</time>
</trkpt>
<trkpt lat="45.9658800" lon="10.1862290">
	<ele>1628.60</ele>
	<time>2025-08-16T09:51:23.000Z</time>
</trkpt>
<trkpt lat="45.9658810" lon="10.1862460">
	<ele>1628.60</ele>
	<time>2025-08-16T09:51:24.000Z</time>
</trkpt>
<trkpt lat="45.9658860" lon="10.1862640">
	<ele>1628.60</ele>
	<time>2025-08-16T09:51:25.000Z</time>
</trkpt>
<trkpt lat="45.9658940" lon="10.1862860">
	<ele>1628.80</ele>
	<time>2025-08-16T09:51:26.000Z</time>
</trkpt>
<trkpt lat="45.9659020" lon="10.1863050">
	<ele>1629.00</ele>
	<time>2025-08-16T09:51:27.000Z</time>
</trkpt>
<trkpt lat="45.9659090" lon="10.1863220">
	<ele>1629.20</ele>
	<time>2025-08-16T09:51:28.000Z</time>
</trkpt>
<trkpt lat="45.9659140" lon="10.1863400">
	<ele>1629.60</ele>
	<time>2025-08-16T09:51:29.000Z</time>
</trkpt>
<trkpt lat="45.9659150" lon="10.1863570">
	<ele>1629.80</ele>
	<time>2025-08-16T09:51:30.000Z</time>
</trkpt>
<trkpt lat="45.9659160" lon="10.1863750">
	<ele>1630.00</ele>
	<time>2025-08-16T09:51:31.000Z</time>
</trkpt>
<trkpt lat="45.9659170" lon="10.1863850">
	<ele>1630.00</ele>
	<time>2025-08-16T09:51:32.000Z</time>
</trkpt>
<trkpt lat="45.9659220" lon="10.1863980">
	<ele>1630.20</ele>
	<time>2025-08-16T09:51:33.000Z</time>
</trkpt>
<trkpt lat="45.9659250" lon="10.1864110">
	<ele>1630.40</ele>
	<time>2025-08-16T09:51:34.000Z</time>
</trkpt>
<trkpt lat="45.9659260" lon="10.1864240">
	<ele>1630.40</ele>
	<time>2025-08-16T09:51:35.000Z</time>
</trkpt>
<trkpt lat="45.9659250" lon="10.1864390">
	<ele>1630.80</ele>
	<time>2025-08-16T09:51:36.000Z</time>
</trkpt>
<trkpt lat="45.9659250" lon="10.1864500">
	<ele>1631.00</ele>
	<time>2025-08-16T09:51:37.000Z</time>
</trkpt>
<trkpt lat="45.9659270" lon="10.1864630">
	<ele>1631.20</ele>
	<time>2025-08-16T09:51:38.000Z</time>
</trkpt>
<trkpt lat="45.9659290" lon="10.1864740">
	<ele>1631.40</ele>
	<time>2025-08-16T09:51:39.000Z</time>
</trkpt>
<trkpt lat="45.9659330" lon="10.1864870">
	<ele>1631.60</ele>
	<time>2025-08-16T09:51:40.000Z</time>
</trkpt>
<trkpt lat="45.9659350" lon="10.1865000">
	<ele>1631.80</ele>
	<time>2025-08-16T09:51:41.000Z</time>
</trkpt>
<trkpt lat="45.9659380" lon="10.1865150">
	<ele>1632.00</ele>
	<time>2025-08-16T09:51:42.000Z</time>
</trkpt>
<trkpt lat="45.9659370" lon="10.1865300">
	<ele>1632.20</ele>
	<time>2025-08-16T09:51:43.000Z</time>
</trkpt>
<trkpt lat="45.9659360" lon="10.1865460">
	<ele>1632.20</ele>
	<time>2025-08-16T09:51:44.000Z</time>
</trkpt>
<trkpt lat="45.9659380" lon="10.1865570">
	<ele>1632.20</ele>
	<time>2025-08-16T09:51:45.000Z</time>
</trkpt>
<trkpt lat="45.9659370" lon="10.1865680">
	<ele>1632.40</ele>
	<time>2025-08-16T09:51:46.000Z</time>
</trkpt>
<trkpt lat="45.9659370" lon="10.1865830">
	<ele>1632.40</ele>
	<time>2025-08-16T09:51:47.000Z</time>
</trkpt>
<trkpt lat="45.9659360" lon="10.1865930">
	<ele>1632.60</ele>
	<time>2025-08-16T09:51:48.000Z</time>
</trkpt>
<trkpt lat="45.9659360" lon="10.1866090">
	<ele>1632.80</ele>
	<time>2025-08-16T09:51:49.000Z</time>
</trkpt>
<trkpt lat="45.9659350" lon="10.1866150">
	<ele>1633.00</ele>
	<time>2025-08-16T09:51:50.000Z</time>
</trkpt>
<trkpt lat="45.9659350" lon="10.1866160">
	<ele>1633.20</ele>
	<time>2025-08-16T09:51:51.000Z</time>
</trkpt>
<trkpt lat="45.9659350" lon="10.1866160">
	<ele>1633.60</ele>
	<time>2025-08-16T09:51:52.000Z</time>
</trkpt>
<trkpt lat="45.9659350" lon="10.1866170">
	<ele>1634.00</ele>
	<time>2025-08-16T09:51:53.000Z</time>
</trkpt>
<trkpt lat="45.9659330" lon="10.1866200">
	<ele>1634.20</ele>
	<time>2025-08-16T09:51:54.000Z</time>
</trkpt>
<trkpt lat="45.9659370" lon="10.1866260">
	<ele>1634.40</ele>
	<time>2025-08-16T09:51:55.000Z</time>
</trkpt>
<trkpt lat="45.9659390" lon="10.1866340">
	<ele>1634.60</ele>
	<time>2025-08-16T09:51:56.000Z</time>
</trkpt>
<trkpt lat="45.9659420" lon="10.1866380">
	<ele>1634.80</ele>
	<time>2025-08-16T09:51:57.000Z</time>
</trkpt>
<trkpt lat="45.9659430" lon="10.1866400">
	<ele>1634.80</ele>
	<time>2025-08-16T09:51:58.000Z</time>
</trkpt>
<trkpt lat="45.9659390" lon="10.1866400">
	<ele>1634.80</ele>
	<time>2025-08-16T09:51:59.000Z</time>
</trkpt>
<trkpt lat="45.9659370" lon="10.1866420">
	<ele>1635.00</ele>
	<time>2025-08-16T09:52:00.000Z</time>
</trkpt>
<trkpt lat="45.9659340" lon="10.1866460">
	<ele>1635.00</ele>
	<time>2025-08-16T09:52:01.000Z</time>
</trkpt>
<trkpt lat="45.9659320" lon="10.1866560">
	<ele>1634.60</ele>
	<time>2025-08-16T09:52:02.000Z</time>
</trkpt>
<trkpt lat="45.9659280" lon="10.1866690">
	<ele>1634.40</ele>
	<time>2025-08-16T09:52:03.000Z</time>
</trkpt>
<trkpt lat="45.9659230" lon="10.1866840">
	<ele>1634.20</ele>
	<time>2025-08-16T09:52:04.000Z</time>
</trkpt>
<trkpt lat="45.9659190" lon="10.1866960">
	<ele>1634.20</ele>
	<time>2025-08-16T09:52:05.000Z</time>
</trkpt>
<trkpt lat="45.9659170" lon="10.1867090">
	<ele>1634.20</ele>
	<time>2025-08-16T09:52:06.000Z</time>
</trkpt>
<trkpt lat="45.9659130" lon="10.1867210">
	<ele>1634.40</ele>
	<time>2025-08-16T09:52:07.000Z</time>
</trkpt>
<trkpt lat="45.9659110" lon="10.1867330">
	<ele>1634.40</ele>
	<time>2025-08-16T09:52:08.000Z</time>
</trkpt>
<trkpt lat="45.9659120" lon="10.1867510">
	<ele>1634.60</ele>
	<time>2025-08-16T09:52:09.000Z</time>
</trkpt>
<trkpt lat="45.9659130" lon="10.1867640">
	<ele>1634.80</ele>
	<time>2025-08-16T09:52:10.000Z</time>
</trkpt>
<trkpt lat="45.9659110" lon="10.1867780">
	<ele>1635.00</ele>
	<time>2025-08-16T09:52:11.000Z</time>
</trkpt>
<trkpt lat="45.9659100" lon="10.1868000">
	<ele>1635.20</ele>
	<time>2025-08-16T09:52:12.000Z</time>
</trkpt>
<trkpt lat="45.9659070" lon="10.1868160">
	<ele>1635.40</ele>
	<time>2025-08-16T09:52:13.000Z</time>
</trkpt>
<trkpt lat="45.9659050" lon="10.1868300">
	<ele>1635.60</ele>
	<time>2025-08-16T09:52:14.000Z</time>
</trkpt>
<trkpt lat="45.9659040" lon="10.1868450">
	<ele>1635.80</ele>
	<time>2025-08-16T09:52:15.000Z</time>
</trkpt>
<trkpt lat="45.9659010" lon="10.1868620">
	<ele>1636.20</ele>
	<time>2025-08-16T09:52:16.000Z</time>
</trkpt>
<trkpt lat="45.9658980" lon="10.1868800">
	<ele>1636.60</ele>
	<time>2025-08-16T09:52:17.000Z</time>
</trkpt>
<trkpt lat="45.9658930" lon="10.1868960">
	<ele>1636.60</ele>
	<time>2025-08-16T09:52:18.000Z</time>
</trkpt>
<trkpt lat="45.9658900" lon="10.1869110">
	<ele>1636.80</ele>
	<time>2025-08-16T09:52:19.000Z</time>
</trkpt>
<trkpt lat="45.9658870" lon="10.1869240">
	<ele>1636.80</ele>
	<time>2025-08-16T09:52:20.000Z</time>
</trkpt>
<trkpt lat="45.9658850" lon="10.1869360">
	<ele>1636.80</ele>
	<time>2025-08-16T09:52:21.000Z</time>
</trkpt>
<trkpt lat="45.9658850" lon="10.1869510">
	<ele>1637.00</ele>
	<time>2025-08-16T09:52:22.000Z</time>
</trkpt>
<trkpt lat="45.9658810" lon="10.1869640">
	<ele>1637.20</ele>
	<time>2025-08-16T09:52:23.000Z</time>
</trkpt>
<trkpt lat="45.9658770" lon="10.1869770">
	<ele>1637.20</ele>
	<time>2025-08-16T09:52:24.000Z</time>
</trkpt>
<trkpt lat="45.9658710" lon="10.1869910">
	<ele>1637.40</ele>
	<time>2025-08-16T09:52:25.000Z</time>
</trkpt>
<trkpt lat="45.9658660" lon="10.1870060">
	<ele>1637.60</ele>
	<time>2025-08-16T09:52:26.000Z</time>
</trkpt>
<trkpt lat="45.9658650" lon="10.1870230">
	<ele>1637.80</ele>
	<time>2025-08-16T09:52:27.000Z</time>
</trkpt>
<trkpt lat="45.9658650" lon="10.1870400">
	<ele>1638.00</ele>
	<time>2025-08-16T09:52:28.000Z</time>
</trkpt>
<trkpt lat="45.9658640" lon="10.1870540">
	<ele>1638.20</ele>
	<time>2025-08-16T09:52:29.000Z</time>
</trkpt>
<trkpt lat="45.9658630" lon="10.1870690">
	<ele>1638.40</ele>
	<time>2025-08-16T09:52:30.000Z</time>
</trkpt>
<trkpt lat="45.9658620" lon="10.1870840">
	<ele>1638.40</ele>
	<time>2025-08-16T09:52:31.000Z</time>
</trkpt>
<trkpt lat="45.9658610" lon="10.1870990">
	<ele>1638.60</ele>
	<time>2025-08-16T09:52:32.000Z</time>
</trkpt>
<trkpt lat="45.9658600" lon="10.1871140">
	<ele>1638.80</ele>
	<time>2025-08-16T09:52:33.000Z</time>
</trkpt>
<trkpt lat="45.9658610" lon="10.1871240">
	<ele>1638.80</ele>
	<time>2025-08-16T09:52:34.000Z</time>
</trkpt>
<trkpt lat="45.9658640" lon="10.1871300">
	<ele>1638.80</ele>
	<time>2025-08-16T09:52:35.000Z</time>
</trkpt>
<trkpt lat="45.9658650" lon="10.1871330">
	<ele>1639.20</ele>
	<time>2025-08-16T09:52:36.000Z</time>
</trkpt>
<trkpt lat="45.9658670" lon="10.1871350">
	<ele>1639.40</ele>
	<time>2025-08-16T09:52:37.000Z</time>
</trkpt>
<trkpt lat="45.9658680" lon="10.1871360">
	<ele>1639.80</ele>
	<time>2025-08-16T09:52:38.000Z</time>
</trkpt>
<trkpt lat="45.9658690" lon="10.1871360">
	<ele>1639.80</ele>
	<time>2025-08-16T09:52:39.000Z</time>
</trkpt>
<trkpt lat="45.9658660" lon="10.1871340">
	<ele>1640.00</ele>
	<time>2025-08-16T09:52:40.000Z</time>
</trkpt>
<trkpt lat="45.9658620" lon="10.1871370">
	<ele>1640.00</ele>
	<time>2025-08-16T09:52:41.000Z</time>
</trkpt>
<trkpt lat="45.9658630" lon="10.1871470">
	<ele>1640.00</ele>
	<time>2025-08-16T09:52:42.000Z</time>
</trkpt>
<trkpt lat="45.9658600" lon="10.1871620">
	<ele>1640.00</ele>
	<time>2025-08-16T09:52:43.000Z</time>
</trkpt>
<trkpt lat="45.9658550" lon="10.1871770">
	<ele>1639.80</ele>
	<time>2025-08-16T09:52:44.000Z</time>
</trkpt>
<trkpt lat="45.9658510" lon="10.1871910">
	<ele>1639.80</ele>
	<time>2025-08-16T09:52:45.000Z</time>
</trkpt>
<trkpt lat="45.9658490" lon="10.1872060">
	<ele>1639.80</ele>
	<time>2025-08-16T09:52:46.000Z</time>
</trkpt>
<trkpt lat="45.9658450" lon="10.1872200">
	<ele>1639.80</ele>
	<time>2025-08-16T09:52:47.000Z</time>
</trkpt>
<trkpt lat="45.9658430" lon="10.1872320">
	<ele>1640.00</ele>
	<time>2025-08-16T09:52:48.000Z</time>
</trkpt>
<trkpt lat="45.9658450" lon="10.1872440">
	<ele>1640.20</ele>
	<time>2025-08-16T09:52:49.000Z</time>
</trkpt>
<trkpt lat="45.9658430" lon="10.1872570">
	<ele>1640.40</ele>
	<time>2025-08-16T09:52:50.000Z</time>
</trkpt>
<trkpt lat="45.9658390" lon="10.1872710">
	<ele>1640.60</ele>
	<time>2025-08-16T09:52:51.000Z</time>
</trkpt>
<trkpt lat="45.9658370" lon="10.1872860">
	<ele>1640.60</ele>
	<time>2025-08-16T09:52:52.000Z</time>
</trkpt>
<trkpt lat="45.9658400" lon="10.1873020">
	<ele>1641.00</ele>
	<time>2025-08-16T09:52:53.000Z</time>
</trkpt>
<trkpt lat="45.9658400" lon="10.1873180">
	<ele>1641.00</ele>
	<time>2025-08-16T09:52:54.000Z</time>
</trkpt>
<trkpt lat="45.9658400" lon="10.1873340">
	<ele>1641.20</ele>
	<time>2025-08-16T09:52:55.000Z</time>
</trkpt>
<trkpt lat="45.9658400" lon="10.1873510">
	<ele>1641.40</ele>
	<time>2025-08-16T09:52:56.000Z</time>
</trkpt>
<trkpt lat="45.9658450" lon="10.1873660">
	<ele>1641.60</ele>
	<time>2025-08-16T09:52:57.000Z</time>
</trkpt>
<trkpt lat="45.9658480" lon="10.1873790">
	<ele>1641.80</ele>
	<time>2025-08-16T09:52:58.000Z</time>
</trkpt>
<trkpt lat="45.9658490" lon="10.1873910">
	<ele>1642.00</ele>
	<time>2025-08-16T09:52:59.000Z</time>
</trkpt>
<trkpt lat="45.9658490" lon="10.1874030">
	<ele>1642.20</ele>
	<time>2025-08-16T09:53:00.000Z</time>
</trkpt>
<trkpt lat="45.9658520" lon="10.1874170">
	<ele>1642.60</ele>
	<time>2025-08-16T09:53:01.000Z</time>
</trkpt>
<trkpt lat="45.9658540" lon="10.1874300">
	<ele>1642.80</ele>
	<time>2025-08-16T09:53:02.000Z</time>
</trkpt>
<trkpt lat="45.9658570" lon="10.1874430">
	<ele>1642.80</ele>
	<time>2025-08-16T09:53:03.000Z</time>
</trkpt>
<trkpt lat="45.9658610" lon="10.1874530">
	<ele>1643.00</ele>
	<time>2025-08-16T09:53:04.000Z</time>
</trkpt>
<trkpt lat="45.9658600" lon="10.1874660">
	<ele>1643.20</ele>
	<time>2025-08-16T09:53:05.000Z</time>
</trkpt>
<trkpt lat="45.9658600" lon="10.1874780">
	<ele>1643.40</ele>
	<time>2025-08-16T09:53:06.000Z</time>
</trkpt>
<trkpt lat="45.9658590" lon="10.1874910">
	<ele>1643.60</ele>
	<time>2025-08-16T09:53:07.000Z</time>
</trkpt>
<trkpt lat="45.9658580" lon="10.1875050">
	<ele>1643.80</ele>
	<time>2025-08-16T09:53:08.000Z</time>
</trkpt>
<trkpt lat="45.9658610" lon="10.1875150">
	<ele>1644.00</ele>
	<time>2025-08-16T09:53:09.000Z</time>
</trkpt>
<trkpt lat="45.9658660" lon="10.1875290">
	<ele>1644.00</ele>
	<time>2025-08-16T09:53:10.000Z</time>
</trkpt>
<trkpt lat="45.9658670" lon="10.1875420">
	<ele>1644.20</ele>
	<time>2025-08-16T09:53:11.000Z</time>
</trkpt>
<trkpt lat="45.9658660" lon="10.1875610">
	<ele>1644.60</ele>
	<time>2025-08-16T09:53:12.000Z</time>
</trkpt>
<trkpt lat="45.9658620" lon="10.1875770">
	<ele>1644.80</ele>
	<time>2025-08-16T09:53:13.000Z</time>
</trkpt>
<trkpt lat="45.9658590" lon="10.1875920">
	<ele>1645.00</ele>
	<time>2025-08-16T09:53:14.000Z</time>
</trkpt>
<trkpt lat="45.9658610" lon="10.1876040">
	<ele>1645.20</ele>
	<time>2025-08-16T09:53:15.000Z</time>
</trkpt>
<trkpt lat="45.9658670" lon="10.1876160">
	<ele>1645.40</ele>
	<time>2025-08-16T09:53:16.000Z</time>
</trkpt>
<trkpt lat="45.9658740" lon="10.1876240">
	<ele>1645.60</ele>
	<time>2025-08-16T09:53:17.000Z</time>
</trkpt>
<trkpt lat="45.9658760" lon="10.1876280">
	<ele>1646.00</ele>
	<time>2025-08-16T09:53:18.000Z</time>
</trkpt>
<trkpt lat="45.9658760" lon="10.1876300">
	<ele>1646.40</ele>
	<time>2025-08-16T09:53:19.000Z</time>
</trkpt>
<trkpt lat="45.9658770" lon="10.1876370">
	<ele>1646.60</ele>
	<time>2025-08-16T09:53:20.000Z</time>
</trkpt>
<trkpt lat="45.9658760" lon="10.1876420">
	<ele>1646.60</ele>
	<time>2025-08-16T09:53:21.000Z</time>
</trkpt>
<trkpt lat="45.9658770" lon="10.1876510">
	<ele>1646.80</ele>
	<time>2025-08-16T09:53:22.000Z</time>
</trkpt>
<trkpt lat="45.9658750" lon="10.1876670">
	<ele>1647.00</ele>
	<time>2025-08-16T09:53:23.000Z</time>
</trkpt>
<trkpt lat="45.9658770" lon="10.1876800">
	<ele>1647.20</ele>
	<time>2025-08-16T09:53:24.000Z</time>
</trkpt>
<trkpt lat="45.9658790" lon="10.1876900">
	<ele>1647.20</ele>
	<time>2025-08-16T09:53:25.000Z</time>
</trkpt>
<trkpt lat="45.9658800" lon="10.1876990">
	<ele>1647.20</ele>
	<time>2025-08-16T09:53:26.000Z</time>
</trkpt>
<trkpt lat="45.9658800" lon="10.1877100">
	<ele>1647.40</ele>
	<time>2025-08-16T09:53:27.000Z</time>
</trkpt>
<trkpt lat="45.9658800" lon="10.1877220">
	<ele>1647.60</ele>
	<time>2025-08-16T09:53:28.000Z</time>
</trkpt>
<trkpt lat="45.9658810" lon="10.1877310">
	<ele>1647.80</ele>
	<time>2025-08-16T09:53:29.000Z</time>
</trkpt>
<trkpt lat="45.9658810" lon="10.1877420">
	<ele>1647.80</ele>
	<time>2025-08-16T09:53:30.000Z</time>
</trkpt>
<trkpt lat="45.9658790" lon="10.1877510">
	<ele>1648.20</ele>
	<time>2025-08-16T09:53:31.000Z</time>
</trkpt>
<trkpt lat="45.9658770" lon="10.1877630">
	<ele>1648.40</ele>
	<time>2025-08-16T09:53:32.000Z</time>
</trkpt>
<trkpt lat="45.9658750" lon="10.1877750">
	<ele>1648.60</ele>
	<time>2025-08-16T09:53:33.000Z</time>
</trkpt>
<trkpt lat="45.9658760" lon="10.1877850">
	<ele>1648.80</ele>
	<time>2025-08-16T09:53:34.000Z</time>
</trkpt>
<trkpt lat="45.9658760" lon="10.1877930">
	<ele>1649.00</ele>
	<time>2025-08-16T09:53:35.000Z</time>
</trkpt>
<trkpt lat="45.9658740" lon="10.1877990">
	<ele>1649.20</ele>
	<time>2025-08-16T09:53:36.000Z</time>
</trkpt>
<trkpt lat="45.9658730" lon="10.1878110">
	<ele>1649.40</ele>
	<time>2025-08-16T09:53:37.000Z</time>
</trkpt>
<trkpt lat="45.9658740" lon="10.1878280">
	<ele>1649.60</ele>
	<time>2025-08-16T09:53:38.000Z</time>
</trkpt>
<trkpt lat="45.9658730" lon="10.1878430">
	<ele>1649.80</ele>
	<time>2025-08-16T09:53:39.000Z</time>
</trkpt>
<trkpt lat="45.9658720" lon="10.1878580">
	<ele>1650.00</ele>
	<time>2025-08-16T09:53:40.000Z</time>
</trkpt>
<trkpt lat="45.9658690" lon="10.1878690">
	<ele>1650.20</ele>
	<time>2025-08-16T09:53:41.000Z</time>
</trkpt>
<trkpt lat="45.9658660" lon="10.1878780">
	<ele>1650.40</ele>
	<time>2025-08-16T09:53:42.000Z</time>
</trkpt>
<trkpt lat="45.9658610" lon="10.1878870">
	<ele>1650.60</ele>
	<time>2025-08-16T09:53:43.000Z</time>
</trkpt>
<trkpt lat="45.9658610" lon="10.1878970">
	<ele>1650.80</ele>
	<time>2025-08-16T09:53:44.000Z</time>
</trkpt>
<trkpt lat="45.9658610" lon="10.1879060">
	<ele>1651.00</ele>
	<time>2025-08-16T09:53:45.000Z</time>
</trkpt>
<trkpt lat="45.9658610" lon="10.1879180">
	<ele>1651.20</ele>
	<time>2025-08-16T09:53:46.000Z</time>
</trkpt>
<trkpt lat="45.9658620" lon="10.1879260">
	<ele>1651.40</ele>
	<time>2025-08-16T09:53:47.000Z</time>
</trkpt>
<trkpt lat="45.9658590" lon="10.1879380">
	<ele>1651.60</ele>
	<time>2025-08-16T09:53:48.000Z</time>
</trkpt>
<trkpt lat="45.9658570" lon="10.1879500">
	<ele>1652.00</ele>
	<time>2025-08-16T09:53:49.000Z</time>
</trkpt>
<trkpt lat="45.9658600" lon="10.1879610">
	<ele>1652.20</ele>
	<time>2025-08-16T09:53:50.000Z</time>
</trkpt>
<trkpt lat="45.9658630" lon="10.1879650">
	<ele>1652.40</ele>
	<time>2025-08-16T09:53:51.000Z</time>
</trkpt>
<trkpt lat="45.9658660" lon="10.1879690">
	<ele>1652.60</ele>
	<time>2025-08-16T09:53:52.000Z</time>
</trkpt>
<trkpt lat="45.9658620" lon="10.1879710">
	<ele>1652.60</ele>
	<time>2025-08-16T09:53:53.000Z</time>
</trkpt>
<trkpt lat="45.9658580" lon="10.1879760">
	<ele>1652.80</ele>
	<time>2025-08-16T09:53:54.000Z</time>
</trkpt>
<trkpt lat="45.9658580" lon="10.1879810">
	<ele>1653.20</ele>
	<time>2025-08-16T09:53:55.000Z</time>
</trkpt>
<trkpt lat="45.9658580" lon="10.1879850">
	<ele>1653.40</ele>
	<time>2025-08-16T09:53:56.000Z</time>
</trkpt>
<trkpt lat="45.9658530" lon="10.1879880">
	<ele>1653.60</ele>
	<time>2025-08-16T09:53:57.000Z</time>
</trkpt>
<trkpt lat="45.9658570" lon="10.1879930">
	<ele>1653.60</ele>
	<time>2025-08-16T09:53:58.000Z</time>
</trkpt>
<trkpt lat="45.9658570" lon="10.1880020">
	<ele>1653.80</ele>
	<time>2025-08-16T09:53:59.000Z</time>
</trkpt>
<trkpt lat="45.9658570" lon="10.1880120">
	<ele>1653.80</ele>
	<time>2025-08-16T09:54:00.000Z</time>
</trkpt>
<trkpt lat="45.9658540" lon="10.1880210">
	<ele>1654.00</ele>
	<time>2025-08-16T09:54:01.000Z</time>
</trkpt>
<trkpt lat="45.9658520" lon="10.1880290">
	<ele>1654.00</ele>
	<time>2025-08-16T09:54:02.000Z</time>
</trkpt>
<trkpt lat="45.9658490" lon="10.1880400">
	<ele>1654.00</ele>
	<time>2025-08-16T09:54:03.000Z</time>
</trkpt>
<trkpt lat="45.9658480" lon="10.1880490">
	<ele>1654.20</ele>
	<time>2025-08-16T09:54:04.000Z</time>
</trkpt>
<trkpt lat="45.9658480" lon="10.1880530">
	<ele>1654.20</ele>
	<time>2025-08-16T09:54:05.000Z</time>
</trkpt>
<trkpt lat="45.9658480" lon="10.1880550">
	<ele>1654.60</ele>
	<time>2025-08-16T09:54:06.000Z</time>
</trkpt>
<trkpt lat="45.9658500" lon="10.1880570">
	<ele>1655.00</ele>
	<time>2025-08-16T09:54:07.000Z</time>
</trkpt>
<trkpt lat="45.9658480" lon="10.1880580">
	<ele>1655.20</ele>
	<time>2025-08-16T09:54:08.000Z</time>
</trkpt>
<trkpt lat="45.9658450" lon="10.1880590">
	<ele>1655.40</ele>
	<time>2025-08-16T09:54:09.000Z</time>
</trkpt>
<trkpt lat="45.9658420" lon="10.1880670">
	<ele>1655.40</ele>
	<time>2025-08-16T09:54:10.000Z</time>
</trkpt>
<trkpt lat="45.9658400" lon="10.1880760">
	<ele>1655.40</ele>
	<time>2025-08-16T09:54:11.000Z</time>
</trkpt>
<trkpt lat="45.9658380" lon="10.1880860">
	<ele>1655.20</ele>
	<time>2025-08-16T09:54:12.000Z</time>
</trkpt>
<trkpt lat="45.9658320" lon="10.1880940">
	<ele>1655.20</ele>
	<time>2025-08-16T09:54:13.000Z</time>
</trkpt>
<trkpt lat="45.9658290" lon="10.1881060">
	<ele>1655.20</ele>
	<time>2025-08-16T09:54:14.000Z</time>
</trkpt>
<trkpt lat="45.9658260" lon="10.1881210">
	<ele>1655.40</ele>
	<time>2025-08-16T09:54:15.000Z</time>
</trkpt>
<trkpt lat="45.9658250" lon="10.1881370">
	<ele>1655.40</ele>
	<time>2025-08-16T09:54:16.000Z</time>
</trkpt>
<trkpt lat="45.9658260" lon="10.1881470">
	<ele>1655.60</ele>
	<time>2025-08-16T09:54:17.000Z</time>
</trkpt>
<trkpt lat="45.9658250" lon="10.1881590">
	<ele>1655.80</ele>
	<time>2025-08-16T09:54:18.000Z</time>
</trkpt>
<trkpt lat="45.9658210" lon="10.1881710">
	<ele>1656.00</ele>
	<time>2025-08-16T09:54:19.000Z</time>
</trkpt>
<trkpt lat="45.9658180" lon="10.1881810">
	<ele>1656.20</ele>
	<time>2025-08-16T09:54:20.000Z</time>
</trkpt>
<trkpt lat="45.9658160" lon="10.1881920">
	<ele>1656.20</ele>
	<time>2025-08-16T09:54:21.000Z</time>
</trkpt>
<trkpt lat="45.9658130" lon="10.1882010">
	<ele>1656.40</ele>
	<time>2025-08-16T09:54:22.000Z</time>
</trkpt>
<trkpt lat="45.9658100" lon="10.1882130">
	<ele>1656.60</ele>
	<time>2025-08-16T09:54:23.000Z</time>
</trkpt>
<trkpt lat="45.9658070" lon="10.1882260">
	<ele>1656.80</ele>
	<time>2025-08-16T09:54:24.000Z</time>
</trkpt>
<trkpt lat="45.9658030" lon="10.1882450">
	<ele>1656.80</ele>
	<time>2025-08-16T09:54:25.000Z</time>
</trkpt>
<trkpt lat="45.9658020" lon="10.1882580">
	<ele>1657.00</ele>
	<time>2025-08-16T09:54:26.000Z</time>
</trkpt>
<trkpt lat="45.9658000" lon="10.1882730">
	<ele>1657.20</ele>
	<time>2025-08-16T09:54:27.000Z</time>
</trkpt>
<trkpt lat="45.9657960" lon="10.1882840">
	<ele>1657.40</ele>
	<time>2025-08-16T09:54:28.000Z</time>
</trkpt>
<trkpt lat="45.9657900" lon="10.1882980">
	<ele>1657.60</ele>
	<time>2025-08-16T09:54:29.000Z</time>
</trkpt>
<trkpt lat="45.9657860" lon="10.1883070">
	<ele>1657.80</ele>
	<time>2025-08-16T09:54:30.000Z</time>
</trkpt>
<trkpt lat="45.9657840" lon="10.1883160">
	<ele>1658.00</ele>
	<time>2025-08-16T09:54:31.000Z</time>
</trkpt>
<trkpt lat="45.9657830" lon="10.1883230">
	<ele>1658.20</ele>
	<time>2025-08-16T09:54:32.000Z</time>
</trkpt>
<trkpt lat="45.9657790" lon="10.1883360">
	<ele>1658.60</ele>
	<time>2025-08-16T09:54:33.000Z</time>
</trkpt>
<trkpt lat="45.9657770" lon="10.1883490">
	<ele>1658.80</ele>
	<time>2025-08-16T09:54:34.000Z</time>
</trkpt>
<trkpt lat="45.9657740" lon="10.1883610">
	<ele>1659.00</ele>
	<time>2025-08-16T09:54:35.000Z</time>
</trkpt>
<trkpt lat="45.9657730" lon="10.1883680">
	<ele>1659.00</ele>
	<time>2025-08-16T09:54:36.000Z</time>
</trkpt>
<trkpt lat="45.9657760" lon="10.1883820">
	<ele>1659.20</ele>
	<time>2025-08-16T09:54:37.000Z</time>
</trkpt>
<trkpt lat="45.9657790" lon="10.1883910">
	<ele>1659.40</ele>
	<time>2025-08-16T09:54:38.000Z</time>
</trkpt>
<trkpt lat="45.9657740" lon="10.1884020">
	<ele>1659.60</ele>
	<time>2025-08-16T09:54:39.000Z</time>
</trkpt>
<trkpt lat="45.9657710" lon="10.1884060">
	<ele>1659.80</ele>
	<time>2025-08-16T09:54:40.000Z</time>
</trkpt>
<trkpt lat="45.9657580" lon="10.1884080">
	<ele>1660.00</ele>
	<time>2025-08-16T09:54:41.000Z</time>
</trkpt>
<trkpt lat="45.9657570" lon="10.1884120">
	<ele>1660.20</ele>
	<time>2025-08-16T09:54:42.000Z</time>
</trkpt>
<trkpt lat="45.9657530" lon="10.1884210">
	<ele>1660.40</ele>
	<time>2025-08-16T09:54:43.000Z</time>
</trkpt>
<trkpt lat="45.9657500" lon="10.1884220">
	<ele>1660.60</ele>
	<time>2025-08-16T09:54:44.000Z</time>
</trkpt>
<trkpt lat="45.9657500" lon="10.1884210">
	<ele>1660.80</ele>
	<time>2025-08-16T09:54:45.000Z</time>
</trkpt>
<trkpt lat="45.9657480" lon="10.1884210">
	<ele>1661.20</ele>
	<time>2025-08-16T09:54:46.000Z</time>
</trkpt>
<trkpt lat="45.9657470" lon="10.1884230">
	<ele>1661.40</ele>
	<time>2025-08-16T09:54:47.000Z</time>
</trkpt>
<trkpt lat="45.9657490" lon="10.1884260">
	<ele>1661.40</ele>
	<time>2025-08-16T09:54:48.000Z</time>
</trkpt>
<trkpt lat="45.9657480" lon="10.1884340">
	<ele>1661.40</ele>
	<time>2025-08-16T09:54:49.000Z</time>
</trkpt>
<trkpt lat="45.9657510" lon="10.1884490">
	<ele>1661.40</ele>
	<time>2025-08-16T09:54:50.000Z</time>
</trkpt>
<trkpt lat="45.9657540" lon="10.1884580">
	<ele>1661.40</ele>
	<time>2025-08-16T09:54:51.000Z</time>
</trkpt>
<trkpt lat="45.9657530" lon="10.1884660">
	<ele>1661.40</ele>
	<time>2025-08-16T09:54:52.000Z</time>
</trkpt>
<trkpt lat="45.9657530" lon="10.1884750">
	<ele>1661.60</ele>
	<time>2025-08-16T09:54:53.000Z</time>
</trkpt>
<trkpt lat="45.9657550" lon="10.1884860">
	<ele>1661.80</ele>
	<time>2025-08-16T09:54:54.000Z</time>
</trkpt>
<trkpt lat="45.9657570" lon="10.1884990">
	<ele>1662.00</ele>
	<time>2025-08-16T09:54:55.000Z</time>
</trkpt>
<trkpt lat="45.9657590" lon="10.1885120">
	<ele>1662.40</ele>
	<time>2025-08-16T09:54:56.000Z</time>
</trkpt>
<trkpt lat="45.9657610" lon="10.1885260">
	<ele>1662.40</ele>
	<time>2025-08-16T09:54:57.000Z</time>
</trkpt>
<trkpt lat="45.9657620" lon="10.1885370">
	<ele>1662.60</ele>
	<time>2025-08-16T09:54:58.000Z</time>
</trkpt>
<trkpt lat="45.9657620" lon="10.1885490">
	<ele>1662.80</ele>
	<time>2025-08-16T09:54:59.000Z</time>
</trkpt>
<trkpt lat="45.9657600" lon="10.1885550">
	<ele>1663.20</ele>
	<time>2025-08-16T09:55:00.000Z</time>
</trkpt>
<trkpt lat="45.9657640" lon="10.1885680">
	<ele>1663.40</ele>
	<time>2025-08-16T09:55:01.000Z</time>
</trkpt>
<trkpt lat="45.9657670" lon="10.1885810">
	<ele>1663.60</ele>
	<time>2025-08-16T09:55:02.000Z</time>
</trkpt>
<trkpt lat="45.9657660" lon="10.1885930">
	<ele>1664.00</ele>
	<time>2025-08-16T09:55:03.000Z</time>
</trkpt>
<trkpt lat="45.9657650" lon="10.1886020">
	<ele>1664.20</ele>
	<time>2025-08-16T09:55:04.000Z</time>
</trkpt>
<trkpt lat="45.9657660" lon="10.1886110">
	<ele>1664.40</ele>
	<time>2025-08-16T09:55:05.000Z</time>
</trkpt>
<trkpt lat="45.9657640" lon="10.1886240">
	<ele>1664.60</ele>
	<time>2025-08-16T09:55:06.000Z</time>
</trkpt>
<trkpt lat="45.9657610" lon="10.1886310">
	<ele>1664.80</ele>
	<time>2025-08-16T09:55:07.000Z</time>
</trkpt>
<trkpt lat="45.9657530" lon="10.1886380">
	<ele>1665.00</ele>
	<time>2025-08-16T09:55:08.000Z</time>
</trkpt>
<trkpt lat="45.9657410" lon="10.1886410">
	<ele>1665.00</ele>
	<time>2025-08-16T09:55:09.000Z</time>
</trkpt>
<trkpt lat="45.9657400" lon="10.1886530">
	<ele>1665.20</ele>
	<time>2025-08-16T09:55:10.000Z</time>
</trkpt>
<trkpt lat="45.9657380" lon="10.1886640">
	<ele>1665.40</ele>
	<time>2025-08-16T09:55:11.000Z</time>
</trkpt>
<trkpt lat="45.9657380" lon="10.1886780">
	<ele>1665.60</ele>
	<time>2025-08-16T09:55:12.000Z</time>
</trkpt>
<trkpt lat="45.9657370" lon="10.1886890">
	<ele>1665.80</ele>
	<time>2025-08-16T09:55:13.000Z</time>
</trkpt>
<trkpt lat="45.9657360" lon="10.1886940">
	<ele>1666.00</ele>
	<time>2025-08-16T09:55:14.000Z</time>
</trkpt>
<trkpt lat="45.9657340" lon="10.1887050">
	<ele>1666.40</ele>
	<time>2025-08-16T09:55:15.000Z</time>
</trkpt>
<trkpt lat="45.9657290" lon="10.1887190">
	<ele>1666.60</ele>
	<time>2025-08-16T09:55:16.000Z</time>
</trkpt>
<trkpt lat="45.9657260" lon="10.1887260">
	<ele>1666.80</ele>
	<time>2025-08-16T09:55:17.000Z</time>
</trkpt>
<trkpt lat="45.9657250" lon="10.1887340">
	<ele>1667.00</ele>
	<time>2025-08-16T09:55:18.000Z</time>
</trkpt>
<trkpt lat="45.9657240" lon="10.1887420">
	<ele>1667.20</ele>
	<time>2025-08-16T09:55:19.000Z</time>
</trkpt>
<trkpt lat="45.9657240" lon="10.1887530">
	<ele>1667.40</ele>
	<time>2025-08-16T09:55:20.000Z</time>
</trkpt>
<trkpt lat="45.9657240" lon="10.1887630">
	<ele>1667.60</ele>
	<time>2025-08-16T09:55:21.000Z</time>
</trkpt>
<trkpt lat="45.9657200" lon="10.1887770">
	<ele>1668.00</ele>
	<time>2025-08-16T09:55:22.000Z</time>
</trkpt>
<trkpt lat="45.9657150" lon="10.1887870">
	<ele>1668.20</ele>
	<time>2025-08-16T09:55:23.000Z</time>
</trkpt>
<trkpt lat="45.9657140" lon="10.1887970">
	<ele>1668.40</ele>
	<time>2025-08-16T09:55:24.000Z</time>
</trkpt>
<trkpt lat="45.9657140" lon="10.1888100">
	<ele>1668.40</ele>
	<time>2025-08-16T09:55:25.000Z</time>
</trkpt>
<trkpt lat="45.9657110" lon="10.1888200">
	<ele>1668.60</ele>
	<time>2025-08-16T09:55:26.000Z</time>
</trkpt>
<trkpt lat="45.9657080" lon="10.1888330">
	<ele>1668.80</ele>
	<time>2025-08-16T09:55:27.000Z</time>
</trkpt>
<trkpt lat="45.9657050" lon="10.1888430">
	<ele>1669.00</ele>
	<time>2025-08-16T09:55:28.000Z</time>
</trkpt>
<trkpt lat="45.9657060" lon="10.1888530">
	<ele>1669.40</ele>
	<time>2025-08-16T09:55:29.000Z</time>
</trkpt>
<trkpt lat="45.9657060" lon="10.1888570">
	<ele>1669.60</ele>
	<time>2025-08-16T09:55:30.000Z</time>
</trkpt>
<trkpt lat="45.9657050" lon="10.1888590">
	<ele>1669.80</ele>
	<time>2025-08-16T09:55:31.000Z</time>
</trkpt>
<trkpt lat="45.9657050" lon="10.1888600">
	<ele>1670.00</ele>
	<time>2025-08-16T09:55:32.000Z</time>
</trkpt>
<trkpt lat="45.9657040" lon="10.1888610">
	<ele>1670.00</ele>
	<time>2025-08-16T09:55:33.000Z</time>
</trkpt>
<trkpt lat="45.9657010" lon="10.1888640">
	<ele>1670.20</ele>
	<time>2025-08-16T09:55:34.000Z</time>
</trkpt>
<trkpt lat="45.9657010" lon="10.1888690">
	<ele>1670.20</ele>
	<time>2025-08-16T09:55:35.000Z</time>
</trkpt>
<trkpt lat="45.9657030" lon="10.1888800">
	<ele>1670.40</ele>
	<time>2025-08-16T09:55:36.000Z</time>
</trkpt>
<trkpt lat="45.9657030" lon="10.1888950">
	<ele>1670.40</ele>
	<time>2025-08-16T09:55:37.000Z</time>
</trkpt>
<trkpt lat="45.9657000" lon="10.1889120">
	<ele>1670.40</ele>
	<time>2025-08-16T09:55:38.000Z</time>
</trkpt>
<trkpt lat="45.9657010" lon="10.1889290">
	<ele>1670.40</ele>
	<time>2025-08-16T09:55:39.000Z</time>
</trkpt>
<trkpt lat="45.9657010" lon="10.1889430">
	<ele>1670.60</ele>
	<time>2025-08-16T09:55:40.000Z</time>
</trkpt>
<trkpt lat="45.9656980" lon="10.1889560">
	<ele>1671.00</ele>
	<time>2025-08-16T09:55:41.000Z</time>
</trkpt>
<trkpt lat="45.9656920" lon="10.1889690">
	<ele>1671.00</ele>
	<time>2025-08-16T09:55:42.000Z</time>
</trkpt>
<trkpt lat="45.9656900" lon="10.1889790">
	<ele>1671.40</ele>
	<time>2025-08-16T09:55:43.000Z</time>
</trkpt>
<trkpt lat="45.9656860" lon="10.1889900">
	<ele>1671.40</ele>
	<time>2025-08-16T09:55:44.000Z</time>
</trkpt>
<trkpt lat="45.9656810" lon="10.1890000">
	<ele>1671.60</ele>
	<time>2025-08-16T09:55:45.000Z</time>
</trkpt>
<trkpt lat="45.9656750" lon="10.1890100">
	<ele>1671.80</ele>
	<time>2025-08-16T09:55:46.000Z</time>
</trkpt>
<trkpt lat="45.9656740" lon="10.1890230">
	<ele>1672.00</ele>
	<time>2025-08-16T09:55:47.000Z</time>
</trkpt>
<trkpt lat="45.9656750" lon="10.1890350">
	<ele>1672.40</ele>
	<time>2025-08-16T09:55:48.000Z</time>
</trkpt>
<trkpt lat="45.9656730" lon="10.1890440">
	<ele>1672.40</ele>
	<time>2025-08-16T09:55:49.000Z</time>
</trkpt>
<trkpt lat="45.9656720" lon="10.1890540">
	<ele>1672.60</ele>
	<time>2025-08-16T09:55:50.000Z</time>
</trkpt>
<trkpt lat="45.9656720" lon="10.1890680">
	<ele>1672.80</ele>
	<time>2025-08-16T09:55:51.000Z</time>
</trkpt>
<trkpt lat="45.9656690" lon="10.1890780">
	<ele>1673.00</ele>
	<time>2025-08-16T09:55:52.000Z</time>
</trkpt>
<trkpt lat="45.9656630" lon="10.1890890">
	<ele>1673.20</ele>
	<time>2025-08-16T09:55:53.000Z</time>
</trkpt>
<trkpt lat="45.9656620" lon="10.1890990">
	<ele>1673.40</ele>
	<time>2025-08-16T09:55:54.000Z</time>
</trkpt>
<trkpt lat="45.9656600" lon="10.1891100">
	<ele>1673.60</ele>
	<time>2025-08-16T09:55:55.000Z</time>
</trkpt>
<trkpt lat="45.9656580" lon="10.1891200">
	<ele>1673.80</ele>
	<time>2025-08-16T09:55:56.000Z</time>
</trkpt>
<trkpt lat="45.9656560" lon="10.1891280">
	<ele>1674.00</ele>
	<time>2025-08-16T09:55:57.000Z</time>
</trkpt>
<trkpt lat="45.9656520" lon="10.1891410">
	<ele>1674.20</ele>
	<time>2025-08-16T09:55:58.000Z</time>
</trkpt>
<trkpt lat="45.9656510" lon="10.1891490">
	<ele>1674.40</ele>
	<time>2025-08-16T09:55:59.000Z</time>
</trkpt>
<trkpt lat="45.9656510" lon="10.1891620">
	<ele>1674.60</ele>
	<time>2025-08-16T09:56:00.000Z</time>
</trkpt>
<trkpt lat="45.9656500" lon="10.1891750">
	<ele>1674.60</ele>
	<time>2025-08-16T09:56:01.000Z</time>
</trkpt>
<trkpt lat="45.9656500" lon="10.1891890">
	<ele>1674.80</ele>
	<time>2025-08-16T09:56:02.000Z</time>
</trkpt>
<trkpt lat="45.9656490" lon="10.1892010">
	<ele>1675.00</ele>
	<time>2025-08-16T09:56:03.000Z</time>
</trkpt>
<trkpt lat="45.9656510" lon="10.1892100">
	<ele>1675.20</ele>
	<time>2025-08-16T09:56:04.000Z</time>
</trkpt>
<trkpt lat="45.9656540" lon="10.1892180">
	<ele>1675.40</ele>
	<time>2025-08-16T09:56:05.000Z</time>
</trkpt>
<trkpt lat="45.9656520" lon="10.1892260">
	<ele>1675.80</ele>
	<time>2025-08-16T09:56:06.000Z</time>
</trkpt>
<trkpt lat="45.9656540" lon="10.1892310">
	<ele>1676.00</ele>
	<time>2025-08-16T09:56:07.000Z</time>
</trkpt>
<trkpt lat="45.9656550" lon="10.1892330">
	<ele>1676.40</ele>
	<time>2025-08-16T09:56:08.000Z</time>
</trkpt>
<trkpt lat="45.9656550" lon="10.1892330">
	<ele>1676.80</ele>
	<time>2025-08-16T09:56:09.000Z</time>
</trkpt>
<trkpt lat="45.9656530" lon="10.1892340">
	<ele>1677.00</ele>
	<time>2025-08-16T09:56:10.000Z</time>
</trkpt>
<trkpt lat="45.9656510" lon="10.1892360">
	<ele>1677.00</ele>
	<time>2025-08-16T09:56:11.000Z</time>
</trkpt>
<trkpt lat="45.9656500" lon="10.1892420">
	<ele>1677.00</ele>
	<time>2025-08-16T09:56:12.000Z</time>
</trkpt>
<trkpt lat="45.9656490" lon="10.1892540">
	<ele>1677.00</ele>
	<time>2025-08-16T09:56:13.000Z</time>
</trkpt>
<trkpt lat="45.9656480" lon="10.1892660">
	<ele>1676.80</ele>
	<time>2025-08-16T09:56:14.000Z</time>
</trkpt>
<trkpt lat="45.9656500" lon="10.1892770">
	<ele>1676.80</ele>
	<time>2025-08-16T09:56:15.000Z</time>
</trkpt>
<trkpt lat="45.9656520" lon="10.1892890">
	<ele>1676.80</ele>
	<time>2025-08-16T09:56:16.000Z</time>
</trkpt>
<trkpt lat="45.9656540" lon="10.1893000">
	<ele>1677.00</ele>
	<time>2025-08-16T09:56:17.000Z</time>
</trkpt>
<trkpt lat="45.9656550" lon="10.1893080">
	<ele>1677.00</ele>
	<time>2025-08-16T09:56:18.000Z</time>
</trkpt>
<trkpt lat="45.9656570" lon="10.1893130">
	<ele>1677.20</ele>
	<time>2025-08-16T09:56:19.000Z</time>
</trkpt>
<trkpt lat="45.9656590" lon="10.1893240">
	<ele>1677.40</ele>
	<time>2025-08-16T09:56:20.000Z</time>
</trkpt>
<trkpt lat="45.9656610" lon="10.1893320">
	<ele>1677.60</ele>
	<time>2025-08-16T09:56:21.000Z</time>
</trkpt>
<trkpt lat="45.9656640" lon="10.1893400">
	<ele>1677.80</ele>
	<time>2025-08-16T09:56:22.000Z</time>
</trkpt>
<trkpt lat="45.9656700" lon="10.1893470">
	<ele>1678.00</ele>
	<time>2025-08-16T09:56:23.000Z</time>
</trkpt>
<trkpt lat="45.9656750" lon="10.1893540">
	<ele>1678.20</ele>
	<time>2025-08-16T09:56:24.000Z</time>
</trkpt>
<trkpt lat="45.9656780" lon="10.1893590">
	<ele>1678.40</ele>
	<time>2025-08-16T09:56:25.000Z</time>
</trkpt>
<trkpt lat="45.9656820" lon="10.1893610">
	<ele>1678.60</ele>
	<time>2025-08-16T09:56:26.000Z</time>
</trkpt>
<trkpt lat="45.9656880" lon="10.1893640">
	<ele>1678.80</ele>
	<time>2025-08-16T09:56:27.000Z</time>
</trkpt>
<trkpt lat="45.9656950" lon="10.1893680">
	<ele>1678.80</ele>
	<time>2025-08-16T09:56:28.000Z</time>
</trkpt>
<trkpt lat="45.9657010" lon="10.1893710">
	<ele>1679.20</ele>
	<time>2025-08-16T09:56:29.000Z</time>
</trkpt>
<trkpt lat="45.9657060" lon="10.1893710">
	<ele>1679.20</ele>
	<time>2025-08-16T09:56:30.000Z</time>
</trkpt>
<trkpt lat="45.9657130" lon="10.1893700">
	<ele>1679.40</ele>
	<time>2025-08-16T09:56:31.000Z</time>
</trkpt>
<trkpt lat="45.9657170" lon="10.1893700">
	<ele>1679.60</ele>
	<time>2025-08-16T09:56:32.000Z</time>
</trkpt>
<trkpt lat="45.9657250" lon="10.1893710">
	<ele>1679.80</ele>
	<time>2025-08-16T09:56:33.000Z</time>
</trkpt>
<trkpt lat="45.9657330" lon="10.1893720">
	<ele>1680.00</ele>
	<time>2025-08-16T09:56:34.000Z</time>
</trkpt>
<trkpt lat="45.9657360" lon="10.1893730">
	<ele>1680.20</ele>
	<time>2025-08-16T09:56:35.000Z</time>
</trkpt>
<trkpt lat="45.9657370" lon="10.1893740">
	<ele>1680.20</ele>
	<time>2025-08-16T09:56:36.000Z</time>
</trkpt>
<trkpt lat="45.9657380" lon="10.1893740">
	<ele>1680.60</ele>
	<time>2025-08-16T09:56:37.000Z</time>
</trkpt>
<trkpt lat="45.9657380" lon="10.1893750">
	<ele>1680.80</ele>
	<time>2025-08-16T09:56:38.000Z</time>
</trkpt>
<trkpt lat="45.9657380" lon="10.1893750">
	<ele>1680.80</ele>
	<time>2025-08-16T09:56:39.000Z</time>
</trkpt>
<trkpt lat="45.9657380" lon="10.1893750">
	<ele>1680.80</ele>
	<time>2025-08-16T09:56:40.000Z</time>
</trkpt>
<trkpt lat="45.9657380" lon="10.1893750">
	<ele>1681.00</ele>
	<time>2025-08-16T09:56:41.000Z</time>
</trkpt>
<trkpt lat="45.9657390" lon="10.1893750">
	<ele>1681.00</ele>
	<time>2025-08-16T09:56:42.000Z</time>
</trkpt>
<trkpt lat="45.9657390" lon="10.1893750">
	<ele>1681.00</ele>
	<time>2025-08-16T09:56:43.000Z</time>
</trkpt>
<trkpt lat="45.9657390" lon="10.1893750">
	<ele>1681.00</ele>
	<time>2025-08-16T09:56:44.000Z</time>
</trkpt>
<trkpt lat="45.9657390" lon="10.1893750">
	<ele>1681.00</ele>
	<time>2025-08-16T09:56:45.000Z</time>
</trkpt>
<trkpt lat="45.9657390" lon="10.1893750">
	<ele>1681.00</ele>
	<time>2025-08-16T09:56:46.000Z</time>
</trkpt>
<trkpt lat="45.9657390" lon="10.1893750">
	<ele>1680.80</ele>
	<time>2025-08-16T09:56:47.000Z</time>
</trkpt>
<trkpt lat="45.9657420" lon="10.1893740">
	<ele>1680.60</ele>
	<time>2025-08-16T09:56:48.000Z</time>
</trkpt>
<trkpt lat="45.9657490" lon="10.1893730">
	<ele>1680.60</ele>
	<time>2025-08-16T09:56:49.000Z</time>
</trkpt>
<trkpt lat="45.9657610" lon="10.1893740">
	<ele>1680.60</ele>
	<time>2025-08-16T09:56:50.000Z</time>
</trkpt>
<trkpt lat="45.9657710" lon="10.1893760">
	<ele>1680.60</ele>
	<time>2025-08-16T09:56:51.000Z</time>
</trkpt>
<trkpt lat="45.9657800" lon="10.1893750">
	<ele>1680.80</ele>
	<time>2025-08-16T09:56:52.000Z</time>
</trkpt>
<trkpt lat="45.9657930" lon="10.1893720">
	<ele>1680.80</ele>
	<time>2025-08-16T09:56:53.000Z</time>
</trkpt>
<trkpt lat="45.9658030" lon="10.1893700">
	<ele>1681.20</ele>
	<time>2025-08-16T09:56:54.000Z</time>
</trkpt>
<trkpt lat="45.9658080" lon="10.1893700">
	<ele>1681.40</ele>
	<time>2025-08-16T09:56:55.000Z</time>
</trkpt>
<trkpt lat="45.9658150" lon="10.1893700">
	<ele>1681.60</ele>
	<time>2025-08-16T09:56:56.000Z</time>
</trkpt>
<trkpt lat="45.9658230" lon="10.1893640">
	<ele>1681.80</ele>
	<time>2025-08-16T09:56:57.000Z</time>
</trkpt>
<trkpt lat="45.9658300" lon="10.1893540">
	<ele>1682.20</ele>
	<time>2025-08-16T09:56:58.000Z</time>
</trkpt>
<trkpt lat="45.9658390" lon="10.1893450">
	<ele>1682.40</ele>
	<time>2025-08-16T09:56:59.000Z</time>
</trkpt>
<trkpt lat="45.9658460" lon="10.1893350">
	<ele>1682.60</ele>
	<time>2025-08-16T09:57:00.000Z</time>
</trkpt>
<trkpt lat="45.9658540" lon="10.1893270">
	<ele>1682.80</ele>
	<time>2025-08-16T09:57:01.000Z</time>
</trkpt>
<trkpt lat="45.9658580" lon="10.1893250">
	<ele>1683.00</ele>
	<time>2025-08-16T09:57:02.000Z</time>
</trkpt>
<trkpt lat="45.9658610" lon="10.1893310">
	<ele>1683.00</ele>
	<time>2025-08-16T09:57:03.000Z</time>
</trkpt>
<trkpt lat="45.9658670" lon="10.1893500">
	<ele>1683.20</ele>
	<time>2025-08-16T09:57:07.000Z</time>
</trkpt>
<trkpt lat="45.9658660" lon="10.1893500">
	<ele>1683.00</ele>
	<time>2025-08-16T09:57:08.000Z</time>
</trkpt>
<trkpt lat="45.9658660" lon="10.1893490">
	<ele>1683.00</ele>
	<time>2025-08-16T09:57:09.000Z</time>
</trkpt>
<trkpt lat="45.9658620" lon="10.1893510">
	<ele>1683.00</ele>
	<time>2025-08-16T09:57:10.000Z</time>
</trkpt>
<trkpt lat="45.9658590" lon="10.1893540">
	<ele>1683.00</ele>
	<time>2025-08-16T09:57:11.000Z</time>
</trkpt>
<trkpt lat="45.9658550" lon="10.1893570">
	<ele>1683.00</ele>
	<time>2025-08-16T09:57:12.000Z</time>
</trkpt>
<trkpt lat="45.9658600" lon="10.1893580">
	<ele>1683.00</ele>
	<time>2025-08-16T09:57:13.000Z</time>
</trkpt>
<trkpt lat="45.9658700" lon="10.1893600">
	<ele>1683.00</ele>
	<time>2025-08-16T09:57:14.000Z</time>
</trkpt>
<trkpt lat="45.9658830" lon="10.1893590">
	<ele>1683.00</ele>
	<time>2025-08-16T09:57:15.000Z</time>
</trkpt>
<trkpt lat="45.9658890" lon="10.1893570">
	<ele>1683.00</ele>
	<time>2025-08-16T09:57:16.000Z</time>
</trkpt>
<trkpt lat="45.9658920" lon="10.1893440">
	<ele>1683.00</ele>
	<time>2025-08-16T09:57:17.000Z</time>
</trkpt>
<trkpt lat="45.9658920" lon="10.1893380">
	<ele>1683.00</ele>
	<time>2025-08-16T09:57:18.000Z</time>
</trkpt>
<trkpt lat="45.9658930" lon="10.1893340">
	<ele>1683.00</ele>
	<time>2025-08-16T09:57:19.000Z</time>
</trkpt>
<trkpt lat="45.9658950" lon="10.1893320">
	<ele>1683.00</ele>
	<time>2025-08-16T09:57:20.000Z</time>
</trkpt>
<trkpt lat="45.9658950" lon="10.1893320">
	<ele>1683.20</ele>
	<time>2025-08-16T09:57:21.000Z</time>
</trkpt>
<trkpt lat="45.9658930" lon="10.1893320">
	<ele>1683.20</ele>
	<time>2025-08-16T09:57:22.000Z</time>
</trkpt>
<trkpt lat="45.9658950" lon="10.1893290">
	<ele>1683.20</ele>
	<time>2025-08-16T09:57:23.000Z</time>
</trkpt>
<trkpt lat="45.9658930" lon="10.1893290">
	<ele>1683.20</ele>
	<time>2025-08-16T09:57:24.000Z</time>
</trkpt>
<trkpt lat="45.9658880" lon="10.1893330">
	<ele>1683.20</ele>
	<time>2025-08-16T09:57:25.000Z</time>
</trkpt>
<trkpt lat="45.9658870" lon="10.1893290">
	<ele>1683.00</ele>
	<time>2025-08-16T09:57:26.000Z</time>
</trkpt>
<trkpt lat="45.9658880" lon="10.1893240">
	<ele>1683.00</ele>
	<time>2025-08-16T09:57:27.000Z</time>
</trkpt>
<trkpt lat="45.9658870" lon="10.1893250">
	<ele>1683.20</ele>
	<time>2025-08-16T09:57:28.000Z</time>
</trkpt>
<trkpt lat="45.9658860" lon="10.1893260">
	<ele>1683.40</ele>
	<time>2025-08-16T09:57:29.000Z</time>
</trkpt>
<trkpt lat="45.9658830" lon="10.1893320">
	<ele>1683.60</ele>
	<time>2025-08-16T09:57:30.000Z</time>
</trkpt>
<trkpt lat="45.9658840" lon="10.1893320">
	<ele>1683.80</ele>
	<time>2025-08-16T09:57:31.000Z</time>
</trkpt>
<trkpt lat="45.9658830" lon="10.1893330">
	<ele>1683.80</ele>
	<time>2025-08-16T09:57:32.000Z</time>
</trkpt>
<trkpt lat="45.9658820" lon="10.1893340">
	<ele>1683.80</ele>
	<time>2025-08-16T09:57:33.000Z</time>
</trkpt>
<trkpt lat="45.9658830" lon="10.1893330">
	<ele>1683.80</ele>
	<time>2025-08-16T09:57:34.000Z</time>
</trkpt>
<trkpt lat="45.9658830" lon="10.1893330">
	<ele>1683.80</ele>
	<time>2025-08-16T09:57:35.000Z</time>
</trkpt>
<trkpt lat="45.9658830" lon="10.1893330">
	<ele>1683.60</ele>
	<time>2025-08-16T09:57:36.000Z</time>
</trkpt>
<trkpt lat="45.9658830" lon="10.1893330">
	<ele>1683.60</ele>
	<time>2025-08-16T09:57:37.000Z</time>
</trkpt>
<trkpt lat="45.9658830" lon="10.1893330">
	<ele>1683.60</ele>
	<time>2025-08-16T09:57:38.000Z</time>
</trkpt>
<trkpt lat="45.9658830" lon="10.1893330">
	<ele>1683.80</ele>
	<time>2025-08-16T09:57:39.000Z</time>
</trkpt>
<trkpt lat="45.9658830" lon="10.1893330">
	<ele>1683.80</ele>
	<time>2025-08-16T09:57:40.000Z</time>
</trkpt>
<trkpt lat="45.9658830" lon="10.1893330">
	<ele>1683.80</ele>
	<time>2025-08-16T09:57:41.000Z</time>
</trkpt>
<trkpt lat="45.9658830" lon="10.1893330">
	<ele>1683.80</ele>
	<time>2025-08-16T09:57:42.000Z</time>
</trkpt>
<trkpt lat="45.9658830" lon="10.1893330">
	<ele>1683.80</ele>
	<time>2025-08-16T09:57:43.000Z</time>
</trkpt>
<trkpt lat="45.9658830" lon="10.1893330">
	<ele>1683.80</ele>
	<time>2025-08-16T09:57:44.000Z</time>
</trkpt>
<trkpt lat="45.9658830" lon="10.1893330">
	<ele>1683.80</ele>
	<time>2025-08-16T09:57:45.000Z</time>
</trkpt>
<trkpt lat="45.9658830" lon="10.1893330">
	<ele>1683.80</ele>
	<time>2025-08-16T09:57:46.000Z</time>
</trkpt>
<trkpt lat="45.9658830" lon="10.1893330">
	<ele>1683.60</ele>
	<time>2025-08-16T09:57:47.000Z</time>
</trkpt>
<trkpt lat="45.9658830" lon="10.1893330">
	<ele>1683.40</ele>
	<time>2025-08-16T09:57:48.000Z</time>
</trkpt>
<trkpt lat="45.9658830" lon="10.1893330">
	<ele>1683.20</ele>
	<time>2025-08-16T09:57:49.000Z</time>
</trkpt>
<trkpt lat="45.9658820" lon="10.1893330">
	<ele>1683.20</ele>
	<time>2025-08-16T09:57:50.000Z</time>
</trkpt>
<trkpt lat="45.9658820" lon="10.1893330">
	<ele>1683.00</ele>
	<time>2025-08-16T09:57:51.000Z</time>
</trkpt>
<trkpt lat="45.9658800" lon="10.1893330">
	<ele>1683.00</ele>
	<time>2025-08-16T09:57:52.000Z</time>
</trkpt>
<trkpt lat="45.9658800" lon="10.1893330">
	<ele>1682.80</ele>
	<time>2025-08-16T09:57:53.000Z</time>
</trkpt>
<trkpt lat="45.9658800" lon="10.1893330">
	<ele>1682.80</ele>
	<time>2025-08-16T09:57:54.000Z</time>
</trkpt>
<trkpt lat="45.9658800" lon="10.1893330">
	<ele>1682.80</ele>
	<time>2025-08-16T09:57:55.000Z</time>
</trkpt>
<trkpt lat="45.9658800" lon="10.1893330">
	<ele>1682.80</ele>
	<time>2025-08-16T09:57:56.000Z</time>
</trkpt>
<trkpt lat="45.9658800" lon="10.1893330">
	<ele>1682.80</ele>
	<time>2025-08-16T09:57:57.000Z</time>
</trkpt>
<trkpt lat="45.9658800" lon="10.1893330">
	<ele>1682.80</ele>
	<time>2025-08-16T09:57:58.000Z</time>
</trkpt>
<trkpt lat="45.9658800" lon="10.1893330">
	<ele>1682.80</ele>
	<time>2025-08-16T09:57:59.000Z</time>
</trkpt>
<trkpt lat="45.9658800" lon="10.1893330">
	<ele>1682.80</ele>
	<time>2025-08-16T09:58:00.000Z</time>
</trkpt>
<trkpt lat="45.9658800" lon="10.1893330">
	<ele>1682.80</ele>
	<time>2025-08-16T09:58:01.000Z</time>
</trkpt>
<trkpt lat="45.9658800" lon="10.1893330">
	<ele>1682.80</ele>
	<time>2025-08-16T09:58:02.000Z</time>
</trkpt>
<trkpt lat="45.9658800" lon="10.1893300">
	<ele>1682.80</ele>
	<time>2025-08-16T09:58:03.000Z</time>
</trkpt>
<trkpt lat="45.9658800" lon="10.1893230">
	<ele>1682.80</ele>
	<time>2025-08-16T09:58:04.000Z</time>
</trkpt>
<trkpt lat="45.9658800" lon="10.1893170">
	<ele>1682.80</ele>
	<time>2025-08-16T09:58:05.000Z</time>
</trkpt>
<trkpt lat="45.9658800" lon="10.1893150">
	<ele>1682.80</ele>
	<time>2025-08-16T09:58:06.000Z</time>
</trkpt>
<trkpt lat="45.9658840" lon="10.1893130">
	<ele>1682.80</ele>
	<time>2025-08-16T09:58:07.000Z</time>
</trkpt>
<trkpt lat="45.9658890" lon="10.1893120">
	<ele>1682.80</ele>
	<time>2025-08-16T09:58:08.000Z</time>
</trkpt>
<trkpt lat="45.9658930" lon="10.1893120">
	<ele>1682.60</ele>
	<time>2025-08-16T09:58:09.000Z</time>
</trkpt>
<trkpt lat="45.9658930" lon="10.1893120">
	<ele>1682.60</ele>
	<time>2025-08-16T09:58:10.000Z</time>
</trkpt>
<trkpt lat="45.9658930" lon="10.1893120">
	<ele>1682.40</ele>
	<time>2025-08-16T09:58:11.000Z</time>
</trkpt>
<trkpt lat="45.9658900" lon="10.1893150">
	<ele>1682.40</ele>
	<time>2025-08-16T09:58:12.000Z</time>
</trkpt>
<trkpt lat="45.9658750" lon="10.1893280">
	<ele>1682.00</ele>
	<time>2025-08-16T09:58:13.000Z</time>
</trkpt>
<trkpt lat="45.9658620" lon="10.1893380">
	<ele>1682.00</ele>
	<time>2025-08-16T09:58:14.000Z</time>
</trkpt>
<trkpt lat="45.9658500" lon="10.1893490">
	<ele>1681.80</ele>
	<time>2025-08-16T09:58:15.000Z</time>
</trkpt>
<trkpt lat="45.9658360" lon="10.1893580">
	<ele>1681.60</ele>
	<time>2025-08-16T09:58:16.000Z</time>
</trkpt>
<trkpt lat="45.9658150" lon="10.1893650">
	<ele>1681.60</ele>
	<time>2025-08-16T09:58:17.000Z</time>
</trkpt>
<trkpt lat="45.9657940" lon="10.1893720">
	<ele>1681.20</ele>
	<time>2025-08-16T09:58:18.000Z</time>
</trkpt>
<trkpt lat="45.9657790" lon="10.1893840">
	<ele>1680.80</ele>
	<time>2025-08-16T09:58:19.000Z</time>
</trkpt>
<trkpt lat="45.9657700" lon="10.1893950">
	<ele>1680.60</ele>
	<time>2025-08-16T09:58:20.000Z</time>
</trkpt>
<trkpt lat="45.9657650" lon="10.1894050">
	<ele>1680.40</ele>
	<time>2025-08-16T09:58:21.000Z</time>
</trkpt>
<trkpt lat="45.9657680" lon="10.1894150">
	<ele>1680.20</ele>
	<time>2025-08-16T09:58:22.000Z</time>
</trkpt>
<trkpt lat="45.9657740" lon="10.1894270">
	<ele>1680.00</ele>
	<time>2025-08-16T09:58:23.000Z</time>
</trkpt>
<trkpt lat="45.9657820" lon="10.1894360">
	<ele>1680.00</ele>
	<time>2025-08-16T09:58:24.000Z</time>
</trkpt>
<trkpt lat="45.9657900" lon="10.1894450">
	<ele>1680.00</ele>
	<time>2025-08-16T09:58:25.000Z</time>
</trkpt>
<trkpt lat="45.9657980" lon="10.1894500">
	<ele>1680.00</ele>
	<time>2025-08-16T09:58:26.000Z</time>
</trkpt>
<trkpt lat="45.9658030" lon="10.1894570">
	<ele>1679.80</ele>
	<time>2025-08-16T09:58:27.000Z</time>
</trkpt>
<trkpt lat="45.9658050" lon="10.1894620">
	<ele>1679.60</ele>
	<time>2025-08-16T09:58:28.000Z</time>
</trkpt>
<trkpt lat="45.9658050" lon="10.1894640">
	<ele>1679.60</ele>
	<time>2025-08-16T09:58:29.000Z</time>
</trkpt>
<trkpt lat="45.9658040" lon="10.1894650">
	<ele>1679.60</ele>
	<time>2025-08-16T09:58:30.000Z</time>
</trkpt>
<trkpt lat="45.9658030" lon="10.1894660">
	<ele>1679.60</ele>
	<time>2025-08-16T09:58:31.000Z</time>
</trkpt>
<trkpt lat="45.9658020" lon="10.1894680">
	<ele>1679.40</ele>
	<time>2025-08-16T09:58:32.000Z</time>
</trkpt>
<trkpt lat="45.9658010" lon="10.1894690">
	<ele>1679.40</ele>
	<time>2025-08-16T09:58:33.000Z</time>
</trkpt>
<trkpt lat="45.9658000" lon="10.1894690">
	<ele>1679.40</ele>
	<time>2025-08-16T09:58:34.000Z</time>
</trkpt>
<trkpt lat="45.9658000" lon="10.1894710">
	<ele>1679.40</ele>
	<time>2025-08-16T09:58:35.000Z</time>
</trkpt>
<trkpt lat="45.9657990" lon="10.1894730">
	<ele>1679.40</ele>
	<time>2025-08-16T09:58:36.000Z</time>
</trkpt>
<trkpt lat="45.9657990" lon="10.1894740">
	<ele>1679.40</ele>
	<time>2025-08-16T09:58:37.000Z</time>
</trkpt>
<trkpt lat="45.9657990" lon="10.1894740">
	<ele>1679.60</ele>
	<time>2025-08-16T09:58:38.000Z</time>
</trkpt>
<trkpt lat="45.9657990" lon="10.1894740">
	<ele>1679.60</ele>
	<time>2025-08-16T09:58:39.000Z</time>
</trkpt>
<trkpt lat="45.9657990" lon="10.1894740">
	<ele>1679.60</ele>
	<time>2025-08-16T09:58:40.000Z</time>
</trkpt>
<trkpt lat="45.9657990" lon="10.1894740">
	<ele>1679.80</ele>
	<time>2025-08-16T09:58:41.000Z</time>
</trkpt>
<trkpt lat="45.9657990" lon="10.1894740">
	<ele>1679.60</ele>
	<time>2025-08-16T09:58:42.000Z</time>
</trkpt>
<trkpt lat="45.9657990" lon="10.1894740">
	<ele>1679.60</ele>
	<time>2025-08-16T09:58:43.000Z</time>
</trkpt>
<trkpt lat="45.9657950" lon="10.1894710">
	<ele>1679.60</ele>
	<time>2025-08-16T09:58:44.000Z</time>
</trkpt>
<trkpt lat="45.9657770" lon="10.1894610">
	<ele>1679.60</ele>
	<time>2025-08-16T09:58:45.000Z</time>
</trkpt>
<trkpt lat="45.9657600" lon="10.1894470">
	<ele>1679.60</ele>
	<time>2025-08-16T09:58:46.000Z</time>
</trkpt>
<trkpt lat="45.9657480" lon="10.1894380">
	<ele>1679.60</ele>
	<time>2025-08-16T09:58:47.000Z</time>
</trkpt>
<trkpt lat="45.9657350" lon="10.1894240">
	<ele>1679.80</ele>
	<time>2025-08-16T09:58:48.000Z</time>
</trkpt>
<trkpt lat="45.9657190" lon="10.1894170">
	<ele>1679.80</ele>
	<time>2025-08-16T09:58:49.000Z</time>
</trkpt>
<trkpt lat="45.9657050" lon="10.1894080">
	<ele>1679.80</ele>
	<time>2025-08-16T09:58:50.000Z</time>
</trkpt>
<trkpt lat="45.9656920" lon="10.1893980">
	<ele>1679.80</ele>
	<time>2025-08-16T09:58:51.000Z</time>
</trkpt>
<trkpt lat="45.9656800" lon="10.1893860">
	<ele>1679.60</ele>
	<time>2025-08-16T09:58:52.000Z</time>
</trkpt>
<trkpt lat="45.9656680" lon="10.1893730">
	<ele>1679.60</ele>
	<time>2025-08-16T09:58:53.000Z</time>
</trkpt>
<trkpt lat="45.9656600" lon="10.1893620">
	<ele>1679.60</ele>
	<time>2025-08-16T09:58:54.000Z</time>
</trkpt>
<trkpt lat="45.9656550" lon="10.1893500">
	<ele>1679.20</ele>
	<time>2025-08-16T09:58:55.000Z</time>
</trkpt>
<trkpt lat="45.9656530" lon="10.1893360">
	<ele>1679.00</ele>
	<time>2025-08-16T09:58:56.000Z</time>
</trkpt>
<trkpt lat="45.9656540" lon="10.1893250">
	<ele>1678.80</ele>
	<time>2025-08-16T09:58:57.000Z</time>
</trkpt>
<trkpt lat="45.9656540" lon="10.1893120">
	<ele>1678.60</ele>
	<time>2025-08-16T09:58:58.000Z</time>
</trkpt>
<trkpt lat="45.9656540" lon="10.1892990">
	<ele>1678.40</ele>
	<time>2025-08-16T09:58:59.000Z</time>
</trkpt>
<trkpt lat="45.9656530" lon="10.1892830">
	<ele>1678.00</ele>
	<time>2025-08-16T09:59:00.000Z</time>
</trkpt>
<trkpt lat="45.9656500" lon="10.1892670">
	<ele>1677.80</ele>
	<time>2025-08-16T09:59:01.000Z</time>
</trkpt>
<trkpt lat="45.9656480" lon="10.1892510">
	<ele>1677.60</ele>
	<time>2025-08-16T09:59:02.000Z</time>
</trkpt>
<trkpt lat="45.9656460" lon="10.1892380">
	<ele>1677.20</ele>
	<time>2025-08-16T09:59:03.000Z</time>
</trkpt>
<trkpt lat="45.9656430" lon="10.1892200">
	<ele>1676.80</ele>
	<time>2025-08-16T09:59:04.000Z</time>
</trkpt>
<trkpt lat="45.9656410" lon="10.1892040">
	<ele>1676.60</ele>
	<time>2025-08-16T09:59:05.000Z</time>
</trkpt>
<trkpt lat="45.9656420" lon="10.1891860">
	<ele>1676.20</ele>
	<time>2025-08-16T09:59:06.000Z</time>
</trkpt>
<trkpt lat="45.9656460" lon="10.1891680">
	<ele>1676.00</ele>
	<time>2025-08-16T09:59:07.000Z</time>
</trkpt>
<trkpt lat="45.9656490" lon="10.1891520">
	<ele>1675.60</ele>
	<time>2025-08-16T09:59:08.000Z</time>
</trkpt>
<trkpt lat="45.9656540" lon="10.1891390">
	<ele>1675.40</ele>
	<time>2025-08-16T09:59:09.000Z</time>
</trkpt>
<trkpt lat="45.9656590" lon="10.1891230">
	<ele>1675.20</ele>
	<time>2025-08-16T09:59:10.000Z</time>
</trkpt>
<trkpt lat="45.9656630" lon="10.1891050">
	<ele>1674.80</ele>
	<time>2025-08-16T09:59:11.000Z</time>
</trkpt>
<trkpt lat="45.9656650" lon="10.1890890">
	<ele>1674.60</ele>
	<time>2025-08-16T09:59:12.000Z</time>
</trkpt>
<trkpt lat="45.9656670" lon="10.1890710">
	<ele>1674.40</ele>
	<time>2025-08-16T09:59:13.000Z</time>
</trkpt>
<trkpt lat="45.9656710" lon="10.1890550">
	<ele>1674.20</ele>
	<time>2025-08-16T09:59:14.000Z</time>
</trkpt>
<trkpt lat="45.9656720" lon="10.1890400">
	<ele>1674.20</ele>
	<time>2025-08-16T09:59:15.000Z</time>
</trkpt>
<trkpt lat="45.9656760" lon="10.1890250">
	<ele>1673.80</ele>
	<time>2025-08-16T09:59:16.000Z</time>
</trkpt>
<trkpt lat="45.9656810" lon="10.1890110">
	<ele>1673.60</ele>
	<time>2025-08-16T09:59:17.000Z</time>
</trkpt>
<trkpt lat="45.9656810" lon="10.1889960">
	<ele>1673.20</ele>
	<time>2025-08-16T09:59:18.000Z</time>
</trkpt>
<trkpt lat="45.9656810" lon="10.1889820">
	<ele>1672.80</ele>
	<time>2025-08-16T09:59:19.000Z</time>
</trkpt>
<trkpt lat="45.9656850" lon="10.1889680">
	<ele>1672.60</ele>
	<time>2025-08-16T09:59:20.000Z</time>
</trkpt>
<trkpt lat="45.9656880" lon="10.1889560">
	<ele>1672.40</ele>
	<time>2025-08-16T09:59:21.000Z</time>
</trkpt>
<trkpt lat="45.9656920" lon="10.1889460">
	<ele>1672.00</ele>
	<time>2025-08-16T09:59:22.000Z</time>
</trkpt>
<trkpt lat="45.9656960" lon="10.1889350">
	<ele>1671.80</ele>
	<time>2025-08-16T09:59:23.000Z</time>
</trkpt>
<trkpt lat="45.9657020" lon="10.1889230">
	<ele>1671.40</ele>
	<time>2025-08-16T09:59:24.000Z</time>
</trkpt>
<trkpt lat="45.9657080" lon="10.1889130">
	<ele>1671.00</ele>
	<time>2025-08-16T09:59:25.000Z</time>
</trkpt>
<trkpt lat="45.9657140" lon="10.1888980">
	<ele>1670.80</ele>
	<time>2025-08-16T09:59:26.000Z</time>
</trkpt>
<trkpt lat="45.9657160" lon="10.1888820">
	<ele>1670.60</ele>
	<time>2025-08-16T09:59:27.000Z</time>
</trkpt>
<trkpt lat="45.9657220" lon="10.1888660">
	<ele>1670.60</ele>
	<time>2025-08-16T09:59:28.000Z</time>
</trkpt>
<trkpt lat="45.9657270" lon="10.1888530">
	<ele>1670.40</ele>
	<time>2025-08-16T09:59:29.000Z</time>
</trkpt>
<trkpt lat="45.9657300" lon="10.1888400">
	<ele>1670.20</ele>
	<time>2025-08-16T09:59:30.000Z</time>
</trkpt>
<trkpt lat="45.9657340" lon="10.1888260">
	<ele>1670.00</ele>
	<time>2025-08-16T09:59:31.000Z</time>
</trkpt>
<trkpt lat="45.9657400" lon="10.1888120">
	<ele>1670.00</ele>
	<time>2025-08-16T09:59:32.000Z</time>
</trkpt>
<trkpt lat="45.9657450" lon="10.1887990">
	<ele>1669.60</ele>
	<time>2025-08-16T09:59:33.000Z</time>
</trkpt>
<trkpt lat="45.9657480" lon="10.1887940">
	<ele>1669.20</ele>
	<time>2025-08-16T09:59:34.000Z</time>
</trkpt>
<trkpt lat="45.9657540" lon="10.1887830">
	<ele>1669.00</ele>
	<time>2025-08-16T09:59:35.000Z</time>
</trkpt>
<trkpt lat="45.9657580" lon="10.1887690">
	<ele>1668.60</ele>
	<time>2025-08-16T09:59:36.000Z</time>
</trkpt>
<trkpt lat="45.9657660" lon="10.1887620">
	<ele>1668.20</ele>
	<time>2025-08-16T09:59:37.000Z</time>
</trkpt>
<trkpt lat="45.9657680" lon="10.1887490">
	<ele>1668.00</ele>
	<time>2025-08-16T09:59:38.000Z</time>
</trkpt>
<trkpt lat="45.9657710" lon="10.1887340">
	<ele>1667.80</ele>
	<time>2025-08-16T09:59:39.000Z</time>
</trkpt>
<trkpt lat="45.9657710" lon="10.1887190">
	<ele>1667.60</ele>
	<time>2025-08-16T09:59:40.000Z</time>
</trkpt>
<trkpt lat="45.9657690" lon="10.1887040">
	<ele>1667.40</ele>
	<time>2025-08-16T09:59:41.000Z</time>
</trkpt>
<trkpt lat="45.9657700" lon="10.1886930">
	<ele>1667.20</ele>
	<time>2025-08-16T09:59:42.000Z</time>
</trkpt>
<trkpt lat="45.9657720" lon="10.1886820">
	<ele>1666.80</ele>
	<time>2025-08-16T09:59:43.000Z</time>
</trkpt>
<trkpt lat="45.9657730" lon="10.1886630">
	<ele>1666.40</ele>
	<time>2025-08-16T09:59:44.000Z</time>
</trkpt>
<trkpt lat="45.9657760" lon="10.1886480">
	<ele>1666.00</ele>
	<time>2025-08-16T09:59:45.000Z</time>
</trkpt>
<trkpt lat="45.9657790" lon="10.1886330">
	<ele>1665.80</ele>
	<time>2025-08-16T09:59:46.000Z</time>
</trkpt>
<trkpt lat="45.9657850" lon="10.1886200">
	<ele>1665.60</ele>
	<time>2025-08-16T09:59:47.000Z</time>
</trkpt>
<trkpt lat="45.9657910" lon="10.1886050">
	<ele>1665.40</ele>
	<time>2025-08-16T09:59:48.000Z</time>
</trkpt>
<trkpt lat="45.9657920" lon="10.1885940">
	<ele>1665.00</ele>
	<time>2025-08-16T09:59:49.000Z</time>
</trkpt>
<trkpt lat="45.9657930" lon="10.1885830">
	<ele>1664.80</ele>
	<time>2025-08-16T09:59:50.000Z</time>
</trkpt>
<trkpt lat="45.9657930" lon="10.1885670">
	<ele>1664.40</ele>
	<time>2025-08-16T09:59:51.000Z</time>
</trkpt>
<trkpt lat="45.9657930" lon="10.1885520">
	<ele>1664.20</ele>
	<time>2025-08-16T09:59:52.000Z</time>
</trkpt>
<trkpt lat="45.9657930" lon="10.1885360">
	<ele>1664.00</ele>
	<time>2025-08-16T09:59:53.000Z</time>
</trkpt>
<trkpt lat="45.9657920" lon="10.1885260">
	<ele>1663.60</ele>
	<time>2025-08-16T09:59:54.000Z</time>
</trkpt>
<trkpt lat="45.9657880" lon="10.1885160">
	<ele>1663.20</ele>
	<time>2025-08-16T09:59:55.000Z</time>
</trkpt>
<trkpt lat="45.9657860" lon="10.1885010">
	<ele>1663.00</ele>
	<time>2025-08-16T09:59:56.000Z</time>
</trkpt>
<trkpt lat="45.9657840" lon="10.1884850">
	<ele>1662.80</ele>
	<time>2025-08-16T09:59:57.000Z</time>
</trkpt>
<trkpt lat="45.9657860" lon="10.1884680">
	<ele>1662.40</ele>
	<time>2025-08-16T09:59:58.000Z</time>
</trkpt>
<trkpt lat="45.9657880" lon="10.1884550">
	<ele>1662.20</ele>
	<time>2025-08-16T09:59:59.000Z</time>
</trkpt>
<trkpt lat="45.9657920" lon="10.1884410">
	<ele>1662.00</ele>
	<time>2025-08-16T10:00:00.000Z</time>
</trkpt>
<trkpt lat="45.9657980" lon="10.1884290">
	<ele>1661.60</ele>
	<time>2025-08-16T10:00:01.000Z</time>
</trkpt>
<trkpt lat="45.9658000" lon="10.1884210">
	<ele>1661.20</ele>
	<time>2025-08-16T10:00:02.000Z</time>
</trkpt>
<trkpt lat="45.9658000" lon="10.1884070">
	<ele>1661.00</ele>
	<time>2025-08-16T10:00:03.000Z</time>
</trkpt>
<trkpt lat="45.9657990" lon="10.1883950">
	<ele>1660.80</ele>
	<time>2025-08-16T10:00:04.000Z</time>
</trkpt>
<trkpt lat="45.9657990" lon="10.1883800">
	<ele>1660.60</ele>
	<time>2025-08-16T10:00:05.000Z</time>
</trkpt>
<trkpt lat="45.9658000" lon="10.1883700">
	<ele>1660.40</ele>
	<time>2025-08-16T10:00:06.000Z</time>
</trkpt>
<trkpt lat="45.9657980" lon="10.1883560">
	<ele>1660.20</ele>
	<time>2025-08-16T10:00:07.000Z</time>
</trkpt>
<trkpt lat="45.9658010" lon="10.1883440">
	<ele>1659.80</ele>
	<time>2025-08-16T10:00:08.000Z</time>
</trkpt>
<trkpt lat="45.9658030" lon="10.1883300">
	<ele>1659.60</ele>
	<time>2025-08-16T10:00:09.000Z</time>
</trkpt>
<trkpt lat="45.9658050" lon="10.1883140">
	<ele>1659.20</ele>
	<time>2025-08-16T10:00:10.000Z</time>
</trkpt>
<trkpt lat="45.9658030" lon="10.1883000">
	<ele>1659.00</ele>
	<time>2025-08-16T10:00:11.000Z</time>
</trkpt>
<trkpt lat="45.9658060" lon="10.1882850">
	<ele>1658.60</ele>
	<time>2025-08-16T10:00:12.000Z</time>
</trkpt>
<trkpt lat="45.9658090" lon="10.1882750">
	<ele>1658.40</ele>
	<time>2025-08-16T10:00:13.000Z</time>
</trkpt>
<trkpt lat="45.9658120" lon="10.1882640">
	<ele>1658.00</ele>
	<time>2025-08-16T10:00:14.000Z</time>
</trkpt>
<trkpt lat="45.9658140" lon="10.1882470">
	<ele>1657.80</ele>
	<time>2025-08-16T10:00:15.000Z</time>
</trkpt>
<trkpt lat="45.9658150" lon="10.1882240">
	<ele>1657.40</ele>
	<time>2025-08-16T10:00:16.000Z</time>
</trkpt>
<trkpt lat="45.9658170" lon="10.1882120">
	<ele>1657.20</ele>
	<time>2025-08-16T10:00:17.000Z</time>
</trkpt>
<trkpt lat="45.9658200" lon="10.1882010">
	<ele>1656.80</ele>
	<time>2025-08-16T10:00:18.000Z</time>
</trkpt>
<trkpt lat="45.9658230" lon="10.1881900">
	<ele>1656.60</ele>
	<time>2025-08-16T10:00:19.000Z</time>
</trkpt>
<trkpt lat="45.9658240" lon="10.1881750">
	<ele>1656.40</ele>
	<time>2025-08-16T10:00:20.000Z</time>
</trkpt>
<trkpt lat="45.9658270" lon="10.1881580">
	<ele>1656.20</ele>
	<time>2025-08-16T10:00:21.000Z</time>
</trkpt>
<trkpt lat="45.9658310" lon="10.1881420">
	<ele>1656.00</ele>
	<time>2025-08-16T10:00:22.000Z</time>
</trkpt>
<trkpt lat="45.9658330" lon="10.1881250">
	<ele>1655.60</ele>
	<time>2025-08-16T10:00:23.000Z</time>
</trkpt>
<trkpt lat="45.9658330" lon="10.1881050">
	<ele>1655.40</ele>
	<time>2025-08-16T10:00:24.000Z</time>
</trkpt>
<trkpt lat="45.9658330" lon="10.1880890">
	<ele>1655.20</ele>
	<time>2025-08-16T10:00:25.000Z</time>
</trkpt>
<trkpt lat="45.9658360" lon="10.1880730">
	<ele>1655.00</ele>
	<time>2025-08-16T10:00:26.000Z</time>
</trkpt>
<trkpt lat="45.9658410" lon="10.1880570">
	<ele>1654.80</ele>
	<time>2025-08-16T10:00:27.000Z</time>
</trkpt>
<trkpt lat="45.9658430" lon="10.1880400">
	<ele>1654.40</ele>
	<time>2025-08-16T10:00:28.000Z</time>
</trkpt>
<trkpt lat="45.9658450" lon="10.1880210">
	<ele>1654.20</ele>
	<time>2025-08-16T10:00:29.000Z</time>
</trkpt>
<trkpt lat="45.9658480" lon="10.1880040">
	<ele>1654.00</ele>
	<time>2025-08-16T10:00:30.000Z</time>
</trkpt>
<trkpt lat="45.9658480" lon="10.1879870">
	<ele>1653.80</ele>
	<time>2025-08-16T10:00:31.000Z</time>
</trkpt>
<trkpt lat="45.9658550" lon="10.1879740">
	<ele>1653.60</ele>
	<time>2025-08-16T10:00:32.000Z</time>
</trkpt>
<trkpt lat="45.9658570" lon="10.1879670">
	<ele>1653.20</ele>
	<time>2025-08-16T10:00:33.000Z</time>
</trkpt>
<trkpt lat="45.9658600" lon="10.1879560">
	<ele>1653.00</ele>
	<time>2025-08-16T10:00:34.000Z</time>
</trkpt>
<trkpt lat="45.9658650" lon="10.1879480">
	<ele>1652.80</ele>
	<time>2025-08-16T10:00:35.000Z</time>
</trkpt>
<trkpt lat="45.9658660" lon="10.1879460">
	<ele>1652.60</ele>
	<time>2025-08-16T10:00:36.000Z</time>
</trkpt>
<trkpt lat="45.9658670" lon="10.1879430">
	<ele>1652.40</ele>
	<time>2025-08-16T10:00:37.000Z</time>
</trkpt>
<trkpt lat="45.9658650" lon="10.1879470">
	<ele>1652.20</ele>
	<time>2025-08-16T10:00:38.000Z</time>
</trkpt>
<trkpt lat="45.9658630" lon="10.1879460">
	<ele>1652.20</ele>
	<time>2025-08-16T10:00:39.000Z</time>
</trkpt>
<trkpt lat="45.9658630" lon="10.1879460">
	<ele>1652.00</ele>
	<time>2025-08-16T10:00:40.000Z</time>
</trkpt>
<trkpt lat="45.9658590" lon="10.1879470">
	<ele>1652.00</ele>
	<time>2025-08-16T10:00:41.000Z</time>
</trkpt>
<trkpt lat="45.9658590" lon="10.1879420">
	<ele>1651.80</ele>
	<time>2025-08-16T10:00:42.000Z</time>
</trkpt>
<trkpt lat="45.9658670" lon="10.1879390">
	<ele>1651.80</ele>
	<time>2025-08-16T10:00:43.000Z</time>
</trkpt>
<trkpt lat="45.9658700" lon="10.1879240">
	<ele>1651.80</ele>
	<time>2025-08-16T10:00:44.000Z</time>
</trkpt>
<trkpt lat="45.9658640" lon="10.1879000">
	<ele>1651.80</ele>
	<time>2025-08-16T10:00:45.000Z</time>
</trkpt>
<trkpt lat="45.9658600" lon="10.1878780">
	<ele>1651.80</ele>
	<time>2025-08-16T10:00:46.000Z</time>
</trkpt>
<trkpt lat="45.9658590" lon="10.1878550">
	<ele>1651.60</ele>
	<time>2025-08-16T10:00:47.000Z</time>
</trkpt>
<trkpt lat="45.9658610" lon="10.1878370">
	<ele>1651.40</ele>
	<time>2025-08-16T10:00:48.000Z</time>
</trkpt>
<trkpt lat="45.9658630" lon="10.1878220">
	<ele>1651.00</ele>
	<time>2025-08-16T10:00:49.000Z</time>
</trkpt>
<trkpt lat="45.9658720" lon="10.1878080">
	<ele>1650.80</ele>
	<time>2025-08-16T10:00:50.000Z</time>
</trkpt>
<trkpt lat="45.9659030" lon="10.1878120">
	<ele>1650.60</ele>
	<time>2025-08-16T10:00:51.000Z</time>
</trkpt>
<trkpt lat="45.9659110" lon="10.1877890">
	<ele>1650.20</ele>
	<time>2025-08-16T10:00:52.000Z</time>
</trkpt>
<trkpt lat="45.9659030" lon="10.1877610">
	<ele>1649.80</ele>
	<time>2025-08-16T10:00:53.000Z</time>
</trkpt>
<trkpt lat="45.9659030" lon="10.1877440">
	<ele>1649.60</ele>
	<time>2025-08-16T10:00:54.000Z</time>
</trkpt>
<trkpt lat="45.9659040" lon="10.1877240">
	<ele>1649.20</ele>
	<time>2025-08-16T10:00:55.000Z</time>
</trkpt>
<trkpt lat="45.9659060" lon="10.1877160">
	<ele>1648.80</ele>
	<time>2025-08-16T10:00:56.000Z</time>
</trkpt>
<trkpt lat="45.9659000" lon="10.1876990">
	<ele>1648.60</ele>
	<time>2025-08-16T10:00:57.000Z</time>
</trkpt>
<trkpt lat="45.9658990" lon="10.1876870">
	<ele>1648.40</ele>
	<time>2025-08-16T10:00:58.000Z</time>
</trkpt>
<trkpt lat="45.9659000" lon="10.1876750">
	<ele>1648.00</ele>
	<time>2025-08-16T10:00:59.000Z</time>
</trkpt>
<trkpt lat="45.9658940" lon="10.1876700">
	<ele>1647.80</ele>
	<time>2025-08-16T10:01:00.000Z</time>
</trkpt>
<trkpt lat="45.9658950" lon="10.1876580">
	<ele>1647.60</ele>
	<time>2025-08-16T10:01:01.000Z</time>
</trkpt>
<trkpt lat="45.9658940" lon="10.1876470">
	<ele>1647.20</ele>
	<time>2025-08-16T10:01:02.000Z</time>
</trkpt>
<trkpt lat="45.9658930" lon="10.1876340">
	<ele>1646.80</ele>
	<time>2025-08-16T10:01:03.000Z</time>
</trkpt>
<trkpt lat="45.9658960" lon="10.1876170">
	<ele>1646.60</ele>
	<time>2025-08-16T10:01:04.000Z</time>
</trkpt>
<trkpt lat="45.9658950" lon="10.1876030">
	<ele>1646.40</ele>
	<time>2025-08-16T10:01:05.000Z</time>
</trkpt>
<trkpt lat="45.9658920" lon="10.1875860">
	<ele>1646.20</ele>
	<time>2025-08-16T10:01:06.000Z</time>
</trkpt>
<trkpt lat="45.9658920" lon="10.1875700">
	<ele>1645.80</ele>
	<time>2025-08-16T10:01:07.000Z</time>
</trkpt>
<trkpt lat="45.9658920" lon="10.1875540">
	<ele>1645.60</ele>
	<time>2025-08-16T10:01:08.000Z</time>
</trkpt>
<trkpt lat="45.9658890" lon="10.1875380">
	<ele>1645.20</ele>
	<time>2025-08-16T10:01:09.000Z</time>
</trkpt>
<trkpt lat="45.9658890" lon="10.1875220">
	<ele>1645.00</ele>
	<time>2025-08-16T10:01:10.000Z</time>
</trkpt>
<trkpt lat="45.9658890" lon="10.1875080">
	<ele>1644.60</ele>
	<time>2025-08-16T10:01:11.000Z</time>
</trkpt>
<trkpt lat="45.9658880" lon="10.1874880">
	<ele>1644.40</ele>
	<time>2025-08-16T10:01:12.000Z</time>
</trkpt>
<trkpt lat="45.9658830" lon="10.1874710">
	<ele>1644.20</ele>
	<time>2025-08-16T10:01:13.000Z</time>
</trkpt>
<trkpt lat="45.9658830" lon="10.1874590">
	<ele>1643.80</ele>
	<time>2025-08-16T10:01:14.000Z</time>
</trkpt>
<trkpt lat="45.9658840" lon="10.1874340">
	<ele>1643.40</ele>
	<time>2025-08-16T10:01:15.000Z</time>
</trkpt>
<trkpt lat="45.9658850" lon="10.1874150">
	<ele>1643.40</ele>
	<time>2025-08-16T10:01:16.000Z</time>
</trkpt>
<trkpt lat="45.9658850" lon="10.1873980">
	<ele>1643.00</ele>
	<time>2025-08-16T10:01:17.000Z</time>
</trkpt>
<trkpt lat="45.9658870" lon="10.1873830">
	<ele>1642.60</ele>
	<time>2025-08-16T10:01:18.000Z</time>
</trkpt>
<trkpt lat="45.9658920" lon="10.1873660">
	<ele>1642.40</ele>
	<time>2025-08-16T10:01:19.000Z</time>
</trkpt>
<trkpt lat="45.9658930" lon="10.1873480">
	<ele>1642.20</ele>
	<time>2025-08-16T10:01:20.000Z</time>
</trkpt>
<trkpt lat="45.9658940" lon="10.1873290">
	<ele>1642.00</ele>
	<time>2025-08-16T10:01:21.000Z</time>
</trkpt>
<trkpt lat="45.9658950" lon="10.1873090">
	<ele>1641.80</ele>
	<time>2025-08-16T10:01:22.000Z</time>
</trkpt>
<trkpt lat="45.9658850" lon="10.1872850">
	<ele>1641.60</ele>
	<time>2025-08-16T10:01:23.000Z</time>
</trkpt>
<trkpt lat="45.9658750" lon="10.1872650">
	<ele>1641.40</ele>
	<time>2025-08-16T10:01:24.000Z</time>
</trkpt>
<trkpt lat="45.9658680" lon="10.1872460">
	<ele>1641.00</ele>
	<time>2025-08-16T10:01:25.000Z</time>
</trkpt>
<trkpt lat="45.9658700" lon="10.1872260">
	<ele>1640.80</ele>
	<time>2025-08-16T10:01:26.000Z</time>
</trkpt>
<trkpt lat="45.9658750" lon="10.1872170">
	<ele>1640.60</ele>
	<time>2025-08-16T10:01:27.000Z</time>
</trkpt>
<trkpt lat="45.9658710" lon="10.1871900">
	<ele>1640.40</ele>
	<time>2025-08-16T10:01:28.000Z</time>
</trkpt>
<trkpt lat="45.9658660" lon="10.1871720">
	<ele>1640.40</ele>
	<time>2025-08-16T10:01:29.000Z</time>
</trkpt>
<trkpt lat="45.9658630" lon="10.1871510">
	<ele>1640.20</ele>
	<time>2025-08-16T10:01:30.000Z</time>
</trkpt>
<trkpt lat="45.9658590" lon="10.1871350">
	<ele>1640.00</ele>
	<time>2025-08-16T10:01:31.000Z</time>
</trkpt>
<trkpt lat="45.9658590" lon="10.1871150">
	<ele>1639.60</ele>
	<time>2025-08-16T10:01:32.000Z</time>
</trkpt>
<trkpt lat="45.9658570" lon="10.1871020">
	<ele>1639.40</ele>
	<time>2025-08-16T10:01:33.000Z</time>
</trkpt>
<trkpt lat="45.9658650" lon="10.1870850">
	<ele>1639.20</ele>
	<time>2025-08-16T10:01:34.000Z</time>
</trkpt>
<trkpt lat="45.9658710" lon="10.1870710">
	<ele>1639.00</ele>
	<time>2025-08-16T10:01:35.000Z</time>
</trkpt>
<trkpt lat="45.9658750" lon="10.1870600">
	<ele>1638.80</ele>
	<time>2025-08-16T10:01:36.000Z</time>
</trkpt>
<trkpt lat="45.9658780" lon="10.1870360">
	<ele>1638.40</ele>
	<time>2025-08-16T10:01:37.000Z</time>
</trkpt>
<trkpt lat="45.9658800" lon="10.1870200">
	<ele>1638.00</ele>
	<time>2025-08-16T10:01:38.000Z</time>
</trkpt>
<trkpt lat="45.9658800" lon="10.1870010">
	<ele>1637.80</ele>
	<time>2025-08-16T10:01:39.000Z</time>
</trkpt>
<trkpt lat="45.9658780" lon="10.1869820">
	<ele>1637.40</ele>
	<time>2025-08-16T10:01:40.000Z</time>
</trkpt>
<trkpt lat="45.9658740" lon="10.1869630">
	<ele>1637.20</ele>
	<time>2025-08-16T10:01:41.000Z</time>
</trkpt>
<trkpt lat="45.9658740" lon="10.1869420">
	<ele>1637.20</ele>
	<time>2025-08-16T10:01:42.000Z</time>
</trkpt>
<trkpt lat="45.9658790" lon="10.1869240">
	<ele>1636.80</ele>
	<time>2025-08-16T10:01:43.000Z</time>
</trkpt>
<trkpt lat="45.9658810" lon="10.1869100">
	<ele>1636.60</ele>
	<time>2025-08-16T10:01:44.000Z</time>
</trkpt>
<trkpt lat="45.9658790" lon="10.1868870">
	<ele>1636.60</ele>
	<time>2025-08-16T10:01:45.000Z</time>
</trkpt>
<trkpt lat="45.9658800" lon="10.1868640">
	<ele>1636.20</ele>
	<time>2025-08-16T10:01:46.000Z</time>
</trkpt>
<trkpt lat="45.9658830" lon="10.1868490">
	<ele>1636.00</ele>
	<time>2025-08-16T10:01:47.000Z</time>
</trkpt>
<trkpt lat="45.9658870" lon="10.1868330">
	<ele>1635.80</ele>
	<time>2025-08-16T10:01:48.000Z</time>
</trkpt>
<trkpt lat="45.9658900" lon="10.1868090">
	<ele>1635.60</ele>
	<time>2025-08-16T10:01:49.000Z</time>
</trkpt>
<trkpt lat="45.9658930" lon="10.1867900">
	<ele>1635.20</ele>
	<time>2025-08-16T10:01:50.000Z</time>
</trkpt>
<trkpt lat="45.9659010" lon="10.1867730">
	<ele>1635.00</ele>
	<time>2025-08-16T10:01:51.000Z</time>
</trkpt>
<trkpt lat="45.9659060" lon="10.1867580">
	<ele>1634.80</ele>
	<time>2025-08-16T10:01:52.000Z</time>
</trkpt>
<trkpt lat="45.9659120" lon="10.1867400">
	<ele>1634.60</ele>
	<time>2025-08-16T10:01:53.000Z</time>
</trkpt>
<trkpt lat="45.9659180" lon="10.1867200">
	<ele>1634.40</ele>
	<time>2025-08-16T10:01:54.000Z</time>
</trkpt>
<trkpt lat="45.9659230" lon="10.1867010">
	<ele>1634.40</ele>
	<time>2025-08-16T10:01:55.000Z</time>
</trkpt>
<trkpt lat="45.9659300" lon="10.1866810">
	<ele>1634.20</ele>
	<time>2025-08-16T10:01:56.000Z</time>
</trkpt>
<trkpt lat="45.9659360" lon="10.1866640">
	<ele>1634.20</ele>
	<time>2025-08-16T10:01:57.000Z</time>
</trkpt>
<trkpt lat="45.9659390" lon="10.1866480">
	<ele>1634.00</ele>
	<time>2025-08-16T10:01:58.000Z</time>
</trkpt>
<trkpt lat="45.9659410" lon="10.1866240">
	<ele>1633.80</ele>
	<time>2025-08-16T10:01:59.000Z</time>
</trkpt>
<trkpt lat="45.9659420" lon="10.1866070">
	<ele>1633.60</ele>
	<time>2025-08-16T10:02:00.000Z</time>
</trkpt>
<trkpt lat="45.9659450" lon="10.1865910">
	<ele>1633.40</ele>
	<time>2025-08-16T10:02:01.000Z</time>
</trkpt>
<trkpt lat="45.9659460" lon="10.1865790">
	<ele>1633.20</ele>
	<time>2025-08-16T10:02:02.000Z</time>
</trkpt>
<trkpt lat="45.9659470" lon="10.1865670">
	<ele>1633.00</ele>
	<time>2025-08-16T10:02:03.000Z</time>
</trkpt>
<trkpt lat="45.9659450" lon="10.1865480">
	<ele>1632.80</ele>
	<time>2025-08-16T10:02:04.000Z</time>
</trkpt>
<trkpt lat="45.9659470" lon="10.1865340">
	<ele>1632.60</ele>
	<time>2025-08-16T10:02:05.000Z</time>
</trkpt>
<trkpt lat="45.9659500" lon="10.1865180">
	<ele>1632.40</ele>
	<time>2025-08-16T10:02:06.000Z</time>
</trkpt>
<trkpt lat="45.9659550" lon="10.1865000">
	<ele>1632.20</ele>
	<time>2025-08-16T10:02:07.000Z</time>
</trkpt>
<trkpt lat="45.9659550" lon="10.1864740">
	<ele>1632.00</ele>
	<time>2025-08-16T10:02:08.000Z</time>
</trkpt>
<trkpt lat="45.9659540" lon="10.1864480">
	<ele>1632.00</ele>
	<time>2025-08-16T10:02:09.000Z</time>
</trkpt>
<trkpt lat="45.9659510" lon="10.1864260">
	<ele>1631.80</ele>
	<time>2025-08-16T10:02:10.000Z</time>
</trkpt>
<trkpt lat="45.9659480" lon="10.1864090">
	<ele>1631.80</ele>
	<time>2025-08-16T10:02:11.000Z</time>
</trkpt>
<trkpt lat="45.9659510" lon="10.1863980">
	<ele>1631.60</ele>
	<time>2025-08-16T10:02:12.000Z</time>
</trkpt>
<trkpt lat="45.9659510" lon="10.1863780">
	<ele>1631.60</ele>
	<time>2025-08-16T10:02:13.000Z</time>
</trkpt>
<trkpt lat="45.9659430" lon="10.1863590">
	<ele>1631.20</ele>
	<time>2025-08-16T10:02:14.000Z</time>
</trkpt>
<trkpt lat="45.9659350" lon="10.1863490">
	<ele>1631.20</ele>
	<time>2025-08-16T10:02:15.000Z</time>
</trkpt>
<trkpt lat="45.9659240" lon="10.1863350">
	<ele>1630.80</ele>
	<time>2025-08-16T10:02:16.000Z</time>
</trkpt>
<trkpt lat="45.9659180" lon="10.1863130">
	<ele>1630.80</ele>
	<time>2025-08-16T10:02:17.000Z</time>
</trkpt>
<trkpt lat="45.9659100" lon="10.1862940">
	<ele>1630.60</ele>
	<time>2025-08-16T10:02:18.000Z</time>
</trkpt>
<trkpt lat="45.9659030" lon="10.1862740">
	<ele>1630.40</ele>
	<time>2025-08-16T10:02:19.000Z</time>
</trkpt>
<trkpt lat="45.9658940" lon="10.1862620">
	<ele>1630.20</ele>
	<time>2025-08-16T10:02:20.000Z</time>
</trkpt>
<trkpt lat="45.9658910" lon="10.1862580">
	<ele>1630.20</ele>
	<time>2025-08-16T10:02:21.000Z</time>
</trkpt>
<trkpt lat="45.9658890" lon="10.1862550">
	<ele>1630.20</ele>
	<time>2025-08-16T10:02:22.000Z</time>
</trkpt>
<trkpt lat="45.9658870" lon="10.1862500">
	<ele>1630.00</ele>
	<time>2025-08-16T10:02:23.000Z</time>
</trkpt>
<trkpt lat="45.9658820" lon="10.1862450">
	<ele>1630.00</ele>
	<time>2025-08-16T10:02:24.000Z</time>
</trkpt>
<trkpt lat="45.9658710" lon="10.1862370">
	<ele>1630.00</ele>
	<time>2025-08-16T10:02:25.000Z</time>
</trkpt>
<trkpt lat="45.9658610" lon="10.1862280">
	<ele>1629.60</ele>
	<time>2025-08-16T10:02:26.000Z</time>
</trkpt>
<trkpt lat="45.9658560" lon="10.1862190">
	<ele>1629.40</ele>
	<time>2025-08-16T10:02:27.000Z</time>
</trkpt>
<trkpt lat="45.9658530" lon="10.1862050">
	<ele>1629.20</ele>
	<time>2025-08-16T10:02:28.000Z</time>
</trkpt>
<trkpt lat="45.9658530" lon="10.1861900">
	<ele>1628.80</ele>
	<time>2025-08-16T10:02:29.000Z</time>
</trkpt>
<trkpt lat="45.9658490" lon="10.1861690">
	<ele>1628.40</ele>
	<time>2025-08-16T10:02:30.000Z</time>
</trkpt>
<trkpt lat="45.9658450" lon="10.1861540">
	<ele>1628.40</ele>
	<time>2025-08-16T10:02:31.000Z</time>
</trkpt>
<trkpt lat="45.9658440" lon="10.1861410">
	<ele>1628.00</ele>
	<time>2025-08-16T10:02:32.000Z</time>
</trkpt>
<trkpt lat="45.9658400" lon="10.1861300">
	<ele>1628.00</ele>
	<time>2025-08-16T10:02:33.000Z</time>
</trkpt>
<trkpt lat="45.9658380" lon="10.1861150">
	<ele>1627.60</ele>
	<time>2025-08-16T10:02:34.000Z</time>
</trkpt>
<trkpt lat="45.9658340" lon="10.1861000">
	<ele>1627.40</ele>
	<time>2025-08-16T10:02:35.000Z</time>
</trkpt>
<trkpt lat="45.9658330" lon="10.1860860">
	<ele>1627.20</ele>
	<time>2025-08-16T10:02:36.000Z</time>
</trkpt>
<trkpt lat="45.9658280" lon="10.1860720">
	<ele>1627.20</ele>
	<time>2025-08-16T10:02:37.000Z</time>
</trkpt>
<trkpt lat="45.9658180" lon="10.1860610">
	<ele>1627.00</ele>
	<time>2025-08-16T10:02:38.000Z</time>
</trkpt>
<trkpt lat="45.9658050" lon="10.1860580">
	<ele>1626.80</ele>
	<time>2025-08-16T10:02:39.000Z</time>
</trkpt>
<trkpt lat="45.9657920" lon="10.1860520">
	<ele>1626.60</ele>
	<time>2025-08-16T10:02:40.000Z</time>
</trkpt>
<trkpt lat="45.9657720" lon="10.1860480">
	<ele>1626.60</ele>
	<time>2025-08-16T10:02:41.000Z</time>
</trkpt>
<trkpt lat="45.9657540" lon="10.1860440">
	<ele>1626.40</ele>
	<time>2025-08-16T10:02:42.000Z</time>
</trkpt>
<trkpt lat="45.9657410" lon="10.1860450">
	<ele>1626.40</ele>
	<time>2025-08-16T10:02:43.000Z</time>
</trkpt>
<trkpt lat="45.9657290" lon="10.1860510">
	<ele>1626.20</ele>
	<time>2025-08-16T10:02:44.000Z</time>
</trkpt>
<trkpt lat="45.9657160" lon="10.1860550">
	<ele>1626.20</ele>
	<time>2025-08-16T10:02:45.000Z</time>
</trkpt>
<trkpt lat="45.9657040" lon="10.1860620">
	<ele>1626.00</ele>
	<time>2025-08-16T10:02:46.000Z</time>
</trkpt>
<trkpt lat="45.9656950" lon="10.1860710">
	<ele>1625.60</ele>
	<time>2025-08-16T10:02:47.000Z</time>
</trkpt>
<trkpt lat="45.9656880" lon="10.1860800">
	<ele>1625.40</ele>
	<time>2025-08-16T10:02:48.000Z</time>
</trkpt>
<trkpt lat="45.9656820" lon="10.1860930">
	<ele>1625.20</ele>
	<time>2025-08-16T10:02:49.000Z</time>
</trkpt>
<trkpt lat="45.9656670" lon="10.1861020">
	<ele>1624.80</ele>
	<time>2025-08-16T10:02:50.000Z</time>
</trkpt>
<trkpt lat="45.9656530" lon="10.1861090">
	<ele>1624.60</ele>
	<time>2025-08-16T10:02:51.000Z</time>
</trkpt>
<trkpt lat="45.9656420" lon="10.1861160">
	<ele>1624.20</ele>
	<time>2025-08-16T10:02:52.000Z</time>
</trkpt>
<trkpt lat="45.9656330" lon="10.1861230">
	<ele>1624.00</ele>
	<time>2025-08-16T10:02:53.000Z</time>
</trkpt>
<trkpt lat="45.9656230" lon="10.1861300">
	<ele>1623.80</ele>
	<time>2025-08-16T10:02:54.000Z</time>
</trkpt>
<trkpt lat="45.9656140" lon="10.1861350">
	<ele>1623.60</ele>
	<time>2025-08-16T10:02:55.000Z</time>
</trkpt>
<trkpt lat="45.9656060" lon="10.1861430">
	<ele>1623.40</ele>
	<time>2025-08-16T10:02:56.000Z</time>
</trkpt>
<trkpt lat="45.9655950" lon="10.1861450">
	<ele>1623.20</ele>
	<time>2025-08-16T10:02:57.000Z</time>
</trkpt>
<trkpt lat="45.9655860" lon="10.1861410">
	<ele>1623.00</ele>
	<time>2025-08-16T10:02:58.000Z</time>
</trkpt>
<trkpt lat="45.9655750" lon="10.1861390">
	<ele>1622.80</ele>
	<time>2025-08-16T10:02:59.000Z</time>
</trkpt>
<trkpt lat="45.9655660" lon="10.1861330">
	<ele>1622.60</ele>
	<time>2025-08-16T10:03:00.000Z</time>
</trkpt>
<trkpt lat="45.9655560" lon="10.1861290">
	<ele>1622.20</ele>
	<time>2025-08-16T10:03:01.000Z</time>
</trkpt>
<trkpt lat="45.9655450" lon="10.1861250">
	<ele>1621.80</ele>
	<time>2025-08-16T10:03:02.000Z</time>
</trkpt>
<trkpt lat="45.9655350" lon="10.1861260">
	<ele>1621.60</ele>
	<time>2025-08-16T10:03:03.000Z</time>
</trkpt>
<trkpt lat="45.9655230" lon="10.1861260">
	<ele>1621.40</ele>
	<time>2025-08-16T10:03:04.000Z</time>
</trkpt>
<trkpt lat="45.9655140" lon="10.1861260">
	<ele>1621.20</ele>
	<time>2025-08-16T10:03:05.000Z</time>
</trkpt>
<trkpt lat="45.9655000" lon="10.1861240">
	<ele>1620.80</ele>
	<time>2025-08-16T10:03:06.000Z</time>
</trkpt>
<trkpt lat="45.9654900" lon="10.1861230">
	<ele>1620.60</ele>
	<time>2025-08-16T10:03:07.000Z</time>
</trkpt>
<trkpt lat="45.9654800" lon="10.1861250">
	<ele>1620.20</ele>
	<time>2025-08-16T10:03:08.000Z</time>
</trkpt>
<trkpt lat="45.9654660" lon="10.1861190">
	<ele>1620.00</ele>
	<time>2025-08-16T10:03:09.000Z</time>
</trkpt>
<trkpt lat="45.9654550" lon="10.1861170">
	<ele>1619.80</ele>
	<time>2025-08-16T10:03:10.000Z</time>
</trkpt>
<trkpt lat="45.9654460" lon="10.1861160">
	<ele>1619.60</ele>
	<time>2025-08-16T10:03:11.000Z</time>
</trkpt>
<trkpt lat="45.9654400" lon="10.1861140">
	<ele>1619.40</ele>
	<time>2025-08-16T10:03:12.000Z</time>
</trkpt>
<trkpt lat="45.9654330" lon="10.1861080">
	<ele>1619.00</ele>
	<time>2025-08-16T10:03:13.000Z</time>
</trkpt>
<trkpt lat="45.9654250" lon="10.1861020">
	<ele>1618.80</ele>
	<time>2025-08-16T10:03:14.000Z</time>
</trkpt>
<trkpt lat="45.9654150" lon="10.1860980">
	<ele>1618.60</ele>
	<time>2025-08-16T10:03:15.000Z</time>
</trkpt>
<trkpt lat="45.9654050" lon="10.1860950">
	<ele>1618.40</ele>
	<time>2025-08-16T10:03:16.000Z</time>
</trkpt>
<trkpt lat="45.9653980" lon="10.1860880">
	<ele>1618.20</ele>
	<time>2025-08-16T10:03:17.000Z</time>
</trkpt>
<trkpt lat="45.9653930" lon="10.1860850">
	<ele>1617.80</ele>
	<time>2025-08-16T10:03:18.000Z</time>
</trkpt>
<trkpt lat="45.9653880" lon="10.1860810">
	<ele>1617.60</ele>
	<time>2025-08-16T10:03:19.000Z</time>
</trkpt>
<trkpt lat="45.9653770" lon="10.1860730">
	<ele>1617.20</ele>
	<time>2025-08-16T10:03:20.000Z</time>
</trkpt>
<trkpt lat="45.9653650" lon="10.1860650">
	<ele>1617.00</ele>
	<time>2025-08-16T10:03:21.000Z</time>
</trkpt>
<trkpt lat="45.9653540" lon="10.1860580">
	<ele>1616.60</ele>
	<time>2025-08-16T10:03:22.000Z</time>
</trkpt>
<trkpt lat="45.9653440" lon="10.1860510">
	<ele>1616.20</ele>
	<time>2025-08-16T10:03:23.000Z</time>
</trkpt>
<trkpt lat="45.9653360" lon="10.1860450">
	<ele>1616.00</ele>
	<time>2025-08-16T10:03:24.000Z</time>
</trkpt>
<trkpt lat="45.9653220" lon="10.1860370">
	<ele>1615.60</ele>
	<time>2025-08-16T10:03:25.000Z</time>
</trkpt>
<trkpt lat="45.9653110" lon="10.1860300">
	<ele>1615.40</ele>
	<time>2025-08-16T10:03:26.000Z</time>
</trkpt>
<trkpt lat="45.9652980" lon="10.1860250">
	<ele>1615.20</ele>
	<time>2025-08-16T10:03:27.000Z</time>
</trkpt>
<trkpt lat="45.9652870" lon="10.1860210">
	<ele>1615.00</ele>
	<time>2025-08-16T10:03:28.000Z</time>
</trkpt>
<trkpt lat="45.9652730" lon="10.1860190">
	<ele>1614.60</ele>
	<time>2025-08-16T10:03:29.000Z</time>
</trkpt>
<trkpt lat="45.9652610" lon="10.1860170">
	<ele>1614.20</ele>
	<time>2025-08-16T10:03:30.000Z</time>
</trkpt>
<trkpt lat="45.9652510" lon="10.1860150">
	<ele>1614.20</ele>
	<time>2025-08-16T10:03:31.000Z</time>
</trkpt>
<trkpt lat="45.9652420" lon="10.1860120">
	<ele>1614.00</ele>
	<time>2025-08-16T10:03:32.000Z</time>
</trkpt>
<trkpt lat="45.9652330" lon="10.1860050">
	<ele>1613.60</ele>
	<time>2025-08-16T10:03:33.000Z</time>
</trkpt>
<trkpt lat="45.9652220" lon="10.1859980">
	<ele>1613.40</ele>
	<time>2025-08-16T10:03:34.000Z</time>
</trkpt>
<trkpt lat="45.9652080" lon="10.1859910">
	<ele>1613.20</ele>
	<time>2025-08-16T10:03:35.000Z</time>
</trkpt>
<trkpt lat="45.9651950" lon="10.1859840">
	<ele>1613.00</ele>
	<time>2025-08-16T10:03:36.000Z</time>
</trkpt>
<trkpt lat="45.9651810" lon="10.1859780">
	<ele>1613.00</ele>
	<time>2025-08-16T10:03:37.000Z</time>
</trkpt>
<trkpt lat="45.9651690" lon="10.1859740">
	<ele>1612.80</ele>
	<time>2025-08-16T10:03:38.000Z</time>
</trkpt>
<trkpt lat="45.9651560" lon="10.1859680">
	<ele>1612.60</ele>
	<time>2025-08-16T10:03:39.000Z</time>
</trkpt>
<trkpt lat="45.9651420" lon="10.1859610">
	<ele>1612.60</ele>
	<time>2025-08-16T10:03:40.000Z</time>
</trkpt>
<trkpt lat="45.9651270" lon="10.1859540">
	<ele>1612.60</ele>
	<time>2025-08-16T10:03:41.000Z</time>
</trkpt>
<trkpt lat="45.9651120" lon="10.1859490">
	<ele>1612.40</ele>
	<time>2025-08-16T10:03:42.000Z</time>
</trkpt>
<trkpt lat="45.9651010" lon="10.1859460">
	<ele>1612.40</ele>
	<time>2025-08-16T10:03:43.000Z</time>
</trkpt>
<trkpt lat="45.9650870" lon="10.1859420">
	<ele>1612.40</ele>
	<time>2025-08-16T10:03:44.000Z</time>
</trkpt>
<trkpt lat="45.9650720" lon="10.1859410">
	<ele>1612.40</ele>
	<time>2025-08-16T10:03:45.000Z</time>
</trkpt>
<trkpt lat="45.9650600" lon="10.1859430">
	<ele>1612.40</ele>
	<time>2025-08-16T10:03:46.000Z</time>
</trkpt>
<trkpt lat="45.9650490" lon="10.1859420">
	<ele>1612.40</ele>
	<time>2025-08-16T10:03:47.000Z</time>
</trkpt>
<trkpt lat="45.9650370" lon="10.1859420">
	<ele>1612.20</ele>
	<time>2025-08-16T10:03:48.000Z</time>
</trkpt>
<trkpt lat="45.9650230" lon="10.1859380">
	<ele>1612.20</ele>
	<time>2025-08-16T10:03:49.000Z</time>
</trkpt>
<trkpt lat="45.9650090" lon="10.1859320">
	<ele>1612.20</ele>
	<time>2025-08-16T10:03:50.000Z</time>
</trkpt>
<trkpt lat="45.9649930" lon="10.1859290">
	<ele>1612.00</ele>
	<time>2025-08-16T10:03:51.000Z</time>
</trkpt>
<trkpt lat="45.9649760" lon="10.1859250">
	<ele>1612.00</ele>
	<time>2025-08-16T10:03:52.000Z</time>
</trkpt>
<trkpt lat="45.9649590" lon="10.1859170">
	<ele>1612.00</ele>
	<time>2025-08-16T10:03:53.000Z</time>
</trkpt>
<trkpt lat="45.9649460" lon="10.1859060">
	<ele>1611.60</ele>
	<time>2025-08-16T10:03:54.000Z</time>
</trkpt>
<trkpt lat="45.9649330" lon="10.1858950">
	<ele>1611.60</ele>
	<time>2025-08-16T10:03:55.000Z</time>
</trkpt>
<trkpt lat="45.9649180" lon="10.1858870">
	<ele>1611.20</ele>
	<time>2025-08-16T10:03:56.000Z</time>
</trkpt>
<trkpt lat="45.9649060" lon="10.1858800">
	<ele>1611.20</ele>
	<time>2025-08-16T10:03:57.000Z</time>
</trkpt>
<trkpt lat="45.9648980" lon="10.1858740">
	<ele>1611.00</ele>
	<time>2025-08-16T10:03:58.000Z</time>
</trkpt>
<trkpt lat="45.9648850" lon="10.1858710">
	<ele>1610.80</ele>
	<time>2025-08-16T10:03:59.000Z</time>
</trkpt>
<trkpt lat="45.9648720" lon="10.1858680">
	<ele>1610.60</ele>
	<time>2025-08-16T10:04:00.000Z</time>
</trkpt>
<trkpt lat="45.9648570" lon="10.1858650">
	<ele>1610.40</ele>
	<time>2025-08-16T10:04:01.000Z</time>
</trkpt>
<trkpt lat="45.9648430" lon="10.1858620">
	<ele>1610.20</ele>
	<time>2025-08-16T10:04:02.000Z</time>
</trkpt>
<trkpt lat="45.9648280" lon="10.1858630">
	<ele>1610.20</ele>
	<time>2025-08-16T10:04:03.000Z</time>
</trkpt>
<trkpt lat="45.9648140" lon="10.1858670">
	<ele>1610.00</ele>
	<time>2025-08-16T10:04:04.000Z</time>
</trkpt>
<trkpt lat="45.9648010" lon="10.1858730">
	<ele>1609.80</ele>
	<time>2025-08-16T10:04:05.000Z</time>
</trkpt>
<trkpt lat="45.9647890" lon="10.1858790">
	<ele>1609.80</ele>
	<time>2025-08-16T10:04:06.000Z</time>
</trkpt>
<trkpt lat="45.9647770" lon="10.1858820">
	<ele>1609.80</ele>
	<time>2025-08-16T10:04:07.000Z</time>
</trkpt>
<trkpt lat="45.9647690" lon="10.1858870">
	<ele>1609.40</ele>
	<time>2025-08-16T10:04:08.000Z</time>
</trkpt>
<trkpt lat="45.9647620" lon="10.1858910">
	<ele>1609.20</ele>
	<time>2025-08-16T10:04:09.000Z</time>
</trkpt>
<trkpt lat="45.9647510" lon="10.1858970">
	<ele>1608.80</ele>
	<time>2025-08-16T10:04:10.000Z</time>
</trkpt>
<trkpt lat="45.9647440" lon="10.1859040">
	<ele>1608.60</ele>
	<time>2025-08-16T10:04:11.000Z</time>
</trkpt>
<trkpt lat="45.9647330" lon="10.1859050">
	<ele>1608.20</ele>
	<time>2025-08-16T10:04:12.000Z</time>
</trkpt>
<trkpt lat="45.9647210" lon="10.1859010">
	<ele>1608.00</ele>
	<time>2025-08-16T10:04:13.000Z</time>
</trkpt>
<trkpt lat="45.9647100" lon="10.1858980">
	<ele>1607.80</ele>
	<time>2025-08-16T10:04:14.000Z</time>
</trkpt>
<trkpt lat="45.9646970" lon="10.1858940">
	<ele>1607.60</ele>
	<time>2025-08-16T10:04:15.000Z</time>
</trkpt>
<trkpt lat="45.9646850" lon="10.1858910">
	<ele>1607.40</ele>
	<time>2025-08-16T10:04:16.000Z</time>
</trkpt>
<trkpt lat="45.9646750" lon="10.1858870">
	<ele>1607.00</ele>
	<time>2025-08-16T10:04:17.000Z</time>
</trkpt>
<trkpt lat="45.9646650" lon="10.1858860">
	<ele>1607.00</ele>
	<time>2025-08-16T10:04:18.000Z</time>
</trkpt>
<trkpt lat="45.9646560" lon="10.1858890">
	<ele>1606.80</ele>
	<time>2025-08-16T10:04:19.000Z</time>
</trkpt>
<trkpt lat="45.9646480" lon="10.1858910">
	<ele>1606.40</ele>
	<time>2025-08-16T10:04:20.000Z</time>
</trkpt>
<trkpt lat="45.9646370" lon="10.1858930">
	<ele>1606.00</ele>
	<time>2025-08-16T10:04:21.000Z</time>
</trkpt>
<trkpt lat="45.9646240" lon="10.1858930">
	<ele>1605.80</ele>
	<time>2025-08-16T10:04:22.000Z</time>
</trkpt>
<trkpt lat="45.9646120" lon="10.1858910">
	<ele>1605.60</ele>
	<time>2025-08-16T10:04:23.000Z</time>
</trkpt>
<trkpt lat="45.9646000" lon="10.1858880">
	<ele>1605.20</ele>
	<time>2025-08-16T10:04:24.000Z</time>
</trkpt>
<trkpt lat="45.9645890" lon="10.1858840">
	<ele>1604.80</ele>
	<time>2025-08-16T10:04:25.000Z</time>
</trkpt>
<trkpt lat="45.9645780" lon="10.1858750">
	<ele>1604.40</ele>
	<time>2025-08-16T10:04:26.000Z</time>
</trkpt>
<trkpt lat="45.9645720" lon="10.1858690">
	<ele>1604.20</ele>
	<time>2025-08-16T10:04:27.000Z</time>
</trkpt>
<trkpt lat="45.9645600" lon="10.1858670">
	<ele>1604.00</ele>
	<time>2025-08-16T10:04:28.000Z</time>
</trkpt>
<trkpt lat="45.9645490" lon="10.1858650">
	<ele>1603.80</ele>
	<time>2025-08-16T10:04:29.000Z</time>
</trkpt>
<trkpt lat="45.9645380" lon="10.1858630">
	<ele>1603.60</ele>
	<time>2025-08-16T10:04:30.000Z</time>
</trkpt>
<trkpt lat="45.9645260" lon="10.1858610">
	<ele>1603.40</ele>
	<time>2025-08-16T10:04:31.000Z</time>
</trkpt>
<trkpt lat="45.9645140" lon="10.1858580">
	<ele>1603.20</ele>
	<time>2025-08-16T10:04:32.000Z</time>
</trkpt>
<trkpt lat="45.9645020" lon="10.1858550">
	<ele>1603.00</ele>
	<time>2025-08-16T10:04:33.000Z</time>
</trkpt>
<trkpt lat="45.9644900" lon="10.1858520">
	<ele>1602.80</ele>
	<time>2025-08-16T10:04:34.000Z</time>
</trkpt>
<trkpt lat="45.9644780" lon="10.1858470">
	<ele>1602.80</ele>
	<time>2025-08-16T10:04:35.000Z</time>
</trkpt>
<trkpt lat="45.9644660" lon="10.1858410">
	<ele>1602.60</ele>
	<time>2025-08-16T10:04:36.000Z</time>
</trkpt>
<trkpt lat="45.9644580" lon="10.1858330">
	<ele>1602.60</ele>
	<time>2025-08-16T10:04:37.000Z</time>
</trkpt>
<trkpt lat="45.9644430" lon="10.1858250">
	<ele>1602.20</ele>
	<time>2025-08-16T10:04:38.000Z</time>
</trkpt>
<trkpt lat="45.9644320" lon="10.1858160">
	<ele>1602.00</ele>
	<time>2025-08-16T10:04:39.000Z</time>
</trkpt>
<trkpt lat="45.9644180" lon="10.1858110">
	<ele>1601.60</ele>
	<time>2025-08-16T10:04:40.000Z</time>
</trkpt>
<trkpt lat="45.9644090" lon="10.1857950">
	<ele>1601.40</ele>
	<time>2025-08-16T10:04:41.000Z</time>
</trkpt>
<trkpt lat="45.9643980" lon="10.1857780">
	<ele>1601.00</ele>
	<time>2025-08-16T10:04:42.000Z</time>
</trkpt>
<trkpt lat="45.9643890" lon="10.1857620">
	<ele>1600.80</ele>
	<time>2025-08-16T10:04:43.000Z</time>
</trkpt>
<trkpt lat="45.9643740" lon="10.1857560">
	<ele>1600.60</ele>
	<time>2025-08-16T10:04:44.000Z</time>
</trkpt>
<trkpt lat="45.9643590" lon="10.1857510">
	<ele>1600.40</ele>
	<time>2025-08-16T10:04:45.000Z</time>
</trkpt>
<trkpt lat="45.9643410" lon="10.1857430">
	<ele>1600.20</ele>
	<time>2025-08-16T10:04:46.000Z</time>
</trkpt>
<trkpt lat="45.9643350" lon="10.1857280">
	<ele>1600.00</ele>
	<time>2025-08-16T10:04:47.000Z</time>
</trkpt>
<trkpt lat="45.9643280" lon="10.1857120">
	<ele>1599.80</ele>
	<time>2025-08-16T10:04:48.000Z</time>
</trkpt>
<trkpt lat="45.9643180" lon="10.1857010">
	<ele>1599.60</ele>
	<time>2025-08-16T10:04:49.000Z</time>
</trkpt>
<trkpt lat="45.9643000" lon="10.1856940">
	<ele>1599.40</ele>
	<time>2025-08-16T10:04:50.000Z</time>
</trkpt>
<trkpt lat="45.9642810" lon="10.1856850">
	<ele>1599.00</ele>
	<time>2025-08-16T10:04:51.000Z</time>
</trkpt>
<trkpt lat="45.9642620" lon="10.1856800">
	<ele>1598.80</ele>
	<time>2025-08-16T10:04:52.000Z</time>
</trkpt>
<trkpt lat="45.9642480" lon="10.1856730">
	<ele>1598.40</ele>
	<time>2025-08-16T10:04:53.000Z</time>
</trkpt>
<trkpt lat="45.9642360" lon="10.1856640">
	<ele>1598.40</ele>
	<time>2025-08-16T10:04:54.000Z</time>
</trkpt>
<trkpt lat="45.9642220" lon="10.1856630">
	<ele>1598.20</ele>
	<time>2025-08-16T10:04:55.000Z</time>
</trkpt>
<trkpt lat="45.9642100" lon="10.1856620">
	<ele>1598.00</ele>
	<time>2025-08-16T10:04:56.000Z</time>
</trkpt>
<trkpt lat="45.9641990" lon="10.1856600">
	<ele>1597.80</ele>
	<time>2025-08-16T10:04:57.000Z</time>
</trkpt>
<trkpt lat="45.9641830" lon="10.1856570">
	<ele>1597.80</ele>
	<time>2025-08-16T10:04:58.000Z</time>
</trkpt>
<trkpt lat="45.9641690" lon="10.1856540">
	<ele>1597.60</ele>
	<time>2025-08-16T10:04:59.000Z</time>
</trkpt>
<trkpt lat="45.9641580" lon="10.1856520">
	<ele>1597.60</ele>
	<time>2025-08-16T10:05:00.000Z</time>
</trkpt>
<trkpt lat="45.9641460" lon="10.1856480">
	<ele>1597.40</ele>
	<time>2025-08-16T10:05:01.000Z</time>
</trkpt>
<trkpt lat="45.9641320" lon="10.1856450">
	<ele>1597.40</ele>
	<time>2025-08-16T10:05:02.000Z</time>
</trkpt>
<trkpt lat="45.9641200" lon="10.1856420">
	<ele>1597.40</ele>
	<time>2025-08-16T10:05:03.000Z</time>
</trkpt>
<trkpt lat="45.9641070" lon="10.1856360">
	<ele>1597.40</ele>
	<time>2025-08-16T10:05:04.000Z</time>
</trkpt>
<trkpt lat="45.9640940" lon="10.1856290">
	<ele>1597.40</ele>
	<time>2025-08-16T10:05:05.000Z</time>
</trkpt>
<trkpt lat="45.9640800" lon="10.1856240">
	<ele>1597.40</ele>
	<time>2025-08-16T10:05:06.000Z</time>
</trkpt>
<trkpt lat="45.9640670" lon="10.1856250">
	<ele>1597.40</ele>
	<time>2025-08-16T10:05:07.000Z</time>
</trkpt>
<trkpt lat="45.9640530" lon="10.1856240">
	<ele>1597.40</ele>
	<time>2025-08-16T10:05:08.000Z</time>
</trkpt>
<trkpt lat="45.9640390" lon="10.1856250">
	<ele>1597.40</ele>
	<time>2025-08-16T10:05:09.000Z</time>
</trkpt>
<trkpt lat="45.9640270" lon="10.1856270">
	<ele>1597.20</ele>
	<time>2025-08-16T10:05:10.000Z</time>
</trkpt>
<trkpt lat="45.9640160" lon="10.1856260">
	<ele>1597.20</ele>
	<time>2025-08-16T10:05:11.000Z</time>
</trkpt>
<trkpt lat="45.9640060" lon="10.1856250">
	<ele>1597.20</ele>
	<time>2025-08-16T10:05:12.000Z</time>
</trkpt>
<trkpt lat="45.9639950" lon="10.1856240">
	<ele>1597.00</ele>
	<time>2025-08-16T10:05:13.000Z</time>
</trkpt>
<trkpt lat="45.9639830" lon="10.1856280">
	<ele>1597.00</ele>
	<time>2025-08-16T10:05:14.000Z</time>
</trkpt>
<trkpt lat="45.9639670" lon="10.1856340">
	<ele>1596.80</ele>
	<time>2025-08-16T10:05:15.000Z</time>
</trkpt>
<trkpt lat="45.9639520" lon="10.1856440">
	<ele>1596.80</ele>
	<time>2025-08-16T10:05:16.000Z</time>
</trkpt>
<trkpt lat="45.9639390" lon="10.1856560">
	<ele>1596.60</ele>
	<time>2025-08-16T10:05:17.000Z</time>
</trkpt>
<trkpt lat="45.9639310" lon="10.1856680">
	<ele>1596.60</ele>
	<time>2025-08-16T10:05:18.000Z</time>
</trkpt>
<trkpt lat="45.9639310" lon="10.1856750">
	<ele>1596.40</ele>
	<time>2025-08-16T10:05:19.000Z</time>
</trkpt>
<trkpt lat="45.9639310" lon="10.1856810">
	<ele>1596.20</ele>
	<time>2025-08-16T10:05:20.000Z</time>
</trkpt>
<trkpt lat="45.9639300" lon="10.1856850">
	<ele>1595.80</ele>
	<time>2025-08-16T10:05:21.000Z</time>
</trkpt>
<trkpt lat="45.9639310" lon="10.1856870">
	<ele>1595.60</ele>
	<time>2025-08-16T10:05:22.000Z</time>
</trkpt>
<trkpt lat="45.9639320" lon="10.1856870">
	<ele>1595.40</ele>
	<time>2025-08-16T10:05:23.000Z</time>
</trkpt>
<trkpt lat="45.9639350" lon="10.1856850">
	<ele>1595.40</ele>
	<time>2025-08-16T10:05:24.000Z</time>
</trkpt>
<trkpt lat="45.9639360" lon="10.1856850">
	<ele>1595.40</ele>
	<time>2025-08-16T10:05:25.000Z</time>
</trkpt>
<trkpt lat="45.9639370" lon="10.1856850">
	<ele>1595.40</ele>
	<time>2025-08-16T10:05:26.000Z</time>
</trkpt>
<trkpt lat="45.9639360" lon="10.1856890">
	<ele>1595.40</ele>
	<time>2025-08-16T10:05:27.000Z</time>
</trkpt>
<trkpt lat="45.9639310" lon="10.1856960">
	<ele>1595.40</ele>
	<time>2025-08-16T10:05:28.000Z</time>
</trkpt>
<trkpt lat="45.9639250" lon="10.1857070">
	<ele>1595.40</ele>
	<time>2025-08-16T10:05:29.000Z</time>
</trkpt>
<trkpt lat="45.9639200" lon="10.1857180">
	<ele>1595.40</ele>
	<time>2025-08-16T10:05:30.000Z</time>
</trkpt>
<trkpt lat="45.9639150" lon="10.1857270">
	<ele>1595.20</ele>
	<time>2025-08-16T10:05:31.000Z</time>
</trkpt>
<trkpt lat="45.9639110" lon="10.1857390">
	<ele>1595.00</ele>
	<time>2025-08-16T10:05:32.000Z</time>
</trkpt>
<trkpt lat="45.9639090" lon="10.1857450">
	<ele>1595.00</ele>
	<time>2025-08-16T10:05:33.000Z</time>
</trkpt>
<trkpt lat="45.9639080" lon="10.1857490">
	<ele>1594.80</ele>
	<time>2025-08-16T10:05:34.000Z</time>
</trkpt>
<trkpt lat="45.9639080" lon="10.1857510">
	<ele>1594.80</ele>
	<time>2025-08-16T10:05:35.000Z</time>
</trkpt>
<trkpt lat="45.9639080" lon="10.1857510">
	<ele>1594.80</ele>
	<time>2025-08-16T10:05:36.000Z</time>
</trkpt>
<trkpt lat="45.9639080" lon="10.1857510">
	<ele>1594.80</ele>
	<time>2025-08-16T10:05:37.000Z</time>
</trkpt>
<trkpt lat="45.9639080" lon="10.1857510">
	<ele>1594.60</ele>
	<time>2025-08-16T10:05:38.000Z</time>
</trkpt>
<trkpt lat="45.9639090" lon="10.1857560">
	<ele>1594.60</ele>
	<time>2025-08-16T10:05:39.000Z</time>
</trkpt>
<trkpt lat="45.9639130" lon="10.1857750">
	<ele>1594.40</ele>
	<time>2025-08-16T10:05:40.000Z</time>
</trkpt>
<trkpt lat="45.9639120" lon="10.1857950">
	<ele>1594.40</ele>
	<time>2025-08-16T10:05:41.000Z</time>
</trkpt>
<trkpt lat="45.9639140" lon="10.1858150">
	<ele>1594.40</ele>
	<time>2025-08-16T10:05:42.000Z</time>
</trkpt>
<trkpt lat="45.9639170" lon="10.1858350">
	<ele>1594.00</ele>
	<time>2025-08-16T10:05:43.000Z</time>
</trkpt>
<trkpt lat="45.9639170" lon="10.1858550">
	<ele>1593.80</ele>
	<time>2025-08-16T10:05:44.000Z</time>
</trkpt>
<trkpt lat="45.9639180" lon="10.1858740">
	<ele>1593.60</ele>
	<time>2025-08-16T10:05:45.000Z</time>
</trkpt>
<trkpt lat="45.9639200" lon="10.1858920">
	<ele>1593.40</ele>
	<time>2025-08-16T10:05:46.000Z</time>
</trkpt>
<trkpt lat="45.9639210" lon="10.1859110">
	<ele>1593.20</ele>
	<time>2025-08-16T10:05:47.000Z</time>
</trkpt>
<trkpt lat="45.9639230" lon="10.1859290">
	<ele>1593.00</ele>
	<time>2025-08-16T10:05:48.000Z</time>
</trkpt>
<trkpt lat="45.9639230" lon="10.1859490">
	<ele>1592.60</ele>
	<time>2025-08-16T10:05:49.000Z</time>
</trkpt>
<trkpt lat="45.9639200" lon="10.1859640">
	<ele>1592.40</ele>
	<time>2025-08-16T10:05:50.000Z</time>
</trkpt>
<trkpt lat="45.9639200" lon="10.1859820">
	<ele>1592.20</ele>
	<time>2025-08-16T10:05:51.000Z</time>
</trkpt>
<trkpt lat="45.9639190" lon="10.1859970">
	<ele>1592.20</ele>
	<time>2025-08-16T10:05:52.000Z</time>
</trkpt>
<trkpt lat="45.9639170" lon="10.1860130">
	<ele>1592.00</ele>
	<time>2025-08-16T10:05:53.000Z</time>
</trkpt>
<trkpt lat="45.9639160" lon="10.1860280">
	<ele>1592.00</ele>
	<time>2025-08-16T10:05:54.000Z</time>
</trkpt>
<trkpt lat="45.9639130" lon="10.1860530">
	<ele>1592.00</ele>
	<time>2025-08-16T10:05:55.000Z</time>
</trkpt>
<trkpt lat="45.9639110" lon="10.1860710">
	<ele>1592.00</ele>
	<time>2025-08-16T10:05:56.000Z</time>
</trkpt>
<trkpt lat="45.9639080" lon="10.1860830">
	<ele>1591.80</ele>
	<time>2025-08-16T10:05:57.000Z</time>
</trkpt>
<trkpt lat="45.9639030" lon="10.1861010">
	<ele>1591.60</ele>
	<time>2025-08-16T10:05:58.000Z</time>
</trkpt>
<trkpt lat="45.9638950" lon="10.1861200">
	<ele>1591.40</ele>
	<time>2025-08-16T10:05:59.000Z</time>
</trkpt>
<trkpt lat="45.9638890" lon="10.1861350">
	<ele>1591.40</ele>
	<time>2025-08-16T10:06:00.000Z</time>
</trkpt>
<trkpt lat="45.9638850" lon="10.1861510">
	<ele>1591.20</ele>
	<time>2025-08-16T10:06:01.000Z</time>
</trkpt>
<trkpt lat="45.9638800" lon="10.1861680">
	<ele>1591.00</ele>
	<time>2025-08-16T10:06:02.000Z</time>
</trkpt>
<trkpt lat="45.9638770" lon="10.1861850">
	<ele>1590.80</ele>
	<time>2025-08-16T10:06:03.000Z</time>
</trkpt>
<trkpt lat="45.9638710" lon="10.1862090">
	<ele>1590.60</ele>
	<time>2025-08-16T10:06:04.000Z</time>
</trkpt>
<trkpt lat="45.9638650" lon="10.1862270">
	<ele>1590.40</ele>
	<time>2025-08-16T10:06:05.000Z</time>
</trkpt>
<trkpt lat="45.9638570" lon="10.1862440">
	<ele>1590.20</ele>
	<time>2025-08-16T10:06:06.000Z</time>
</trkpt>
<trkpt lat="45.9638490" lon="10.1862580">
	<ele>1590.20</ele>
	<time>2025-08-16T10:06:07.000Z</time>
</trkpt>
<trkpt lat="45.9638400" lon="10.1862730">
	<ele>1590.00</ele>
	<time>2025-08-16T10:06:08.000Z</time>
</trkpt>
<trkpt lat="45.9638320" lon="10.1862840">
	<ele>1589.80</ele>
	<time>2025-08-16T10:06:09.000Z</time>
</trkpt>
<trkpt lat="45.9638210" lon="10.1863070">
	<ele>1589.60</ele>
	<time>2025-08-16T10:06:10.000Z</time>
</trkpt>
<trkpt lat="45.9638180" lon="10.1863300">
	<ele>1589.40</ele>
	<time>2025-08-16T10:06:11.000Z</time>
</trkpt>
<trkpt lat="45.9638160" lon="10.1863500">
	<ele>1589.20</ele>
	<time>2025-08-16T10:06:12.000Z</time>
</trkpt>
<trkpt lat="45.9638150" lon="10.1863670">
	<ele>1589.00</ele>
	<time>2025-08-16T10:06:13.000Z</time>
</trkpt>
<trkpt lat="45.9638120" lon="10.1863840">
	<ele>1588.80</ele>
	<time>2025-08-16T10:06:14.000Z</time>
</trkpt>
<trkpt lat="45.9638080" lon="10.1864000">
	<ele>1588.60</ele>
	<time>2025-08-16T10:06:15.000Z</time>
</trkpt>
<trkpt lat="45.9638080" lon="10.1864160">
	<ele>1588.40</ele>
	<time>2025-08-16T10:06:16.000Z</time>
</trkpt>
<trkpt lat="45.9638090" lon="10.1864360">
	<ele>1588.20</ele>
	<time>2025-08-16T10:06:17.000Z</time>
</trkpt>
<trkpt lat="45.9638080" lon="10.1864550">
	<ele>1587.80</ele>
	<time>2025-08-16T10:06:18.000Z</time>
</trkpt>
<trkpt lat="45.9638010" lon="10.1864770">
	<ele>1587.60</ele>
	<time>2025-08-16T10:06:19.000Z</time>
</trkpt>
<trkpt lat="45.9637980" lon="10.1865010">
	<ele>1587.40</ele>
	<time>2025-08-16T10:06:20.000Z</time>
</trkpt>
<trkpt lat="45.9637970" lon="10.1865250">
	<ele>1587.20</ele>
	<time>2025-08-16T10:06:21.000Z</time>
</trkpt>
<trkpt lat="45.9637960" lon="10.1865460">
	<ele>1587.00</ele>
	<time>2025-08-16T10:06:22.000Z</time>
</trkpt>
<trkpt lat="45.9637950" lon="10.1865660">
	<ele>1586.80</ele>
	<time>2025-08-16T10:06:23.000Z</time>
</trkpt>
<trkpt lat="45.9637930" lon="10.1865860">
	<ele>1586.60</ele>
	<time>2025-08-16T10:06:24.000Z</time>
</trkpt>
<trkpt lat="45.9637910" lon="10.1866070">
	<ele>1586.40</ele>
	<time>2025-08-16T10:06:25.000Z</time>
</trkpt>
<trkpt lat="45.9637880" lon="10.1866270">
	<ele>1586.20</ele>
	<time>2025-08-16T10:06:26.000Z</time>
</trkpt>
<trkpt lat="45.9637870" lon="10.1866460">
	<ele>1586.00</ele>
	<time>2025-08-16T10:06:27.000Z</time>
</trkpt>
<trkpt lat="45.9637850" lon="10.1866650">
	<ele>1585.80</ele>
	<time>2025-08-16T10:06:28.000Z</time>
</trkpt>
<trkpt lat="45.9637840" lon="10.1866810">
	<ele>1585.60</ele>
	<time>2025-08-16T10:06:29.000Z</time>
</trkpt>
<trkpt lat="45.9637820" lon="10.1867040">
	<ele>1585.60</ele>
	<time>2025-08-16T10:06:30.000Z</time>
</trkpt>
<trkpt lat="45.9637780" lon="10.1867250">
	<ele>1585.40</ele>
	<time>2025-08-16T10:06:31.000Z</time>
</trkpt>
<trkpt lat="45.9637770" lon="10.1867350">
	<ele>1585.40</ele>
	<time>2025-08-16T10:06:32.000Z</time>
</trkpt>
<trkpt lat="45.9637760" lon="10.1867410">
	<ele>1585.00</ele>
	<time>2025-08-16T10:06:33.000Z</time>
</trkpt>
<trkpt lat="45.9637760" lon="10.1867420">
	<ele>1584.80</ele>
	<time>2025-08-16T10:06:34.000Z</time>
</trkpt>
<trkpt lat="45.9637760" lon="10.1867420">
	<ele>1584.60</ele>
	<time>2025-08-16T10:06:35.000Z</time>
</trkpt>
<trkpt lat="45.9637750" lon="10.1867420">
	<ele>1584.60</ele>
	<time>2025-08-16T10:06:36.000Z</time>
</trkpt>
<trkpt lat="45.9637750" lon="10.1867420">
	<ele>1584.60</ele>
	<time>2025-08-16T10:06:37.000Z</time>
</trkpt>
<trkpt lat="45.9637760" lon="10.1867420">
	<ele>1584.60</ele>
	<time>2025-08-16T10:06:38.000Z</time>
</trkpt>
<trkpt lat="45.9637760" lon="10.1867410">
	<ele>1584.60</ele>
	<time>2025-08-16T10:06:39.000Z</time>
</trkpt>
<trkpt lat="45.9637760" lon="10.1867400">
	<ele>1584.60</ele>
	<time>2025-08-16T10:06:40.000Z</time>
</trkpt>
<trkpt lat="45.9637760" lon="10.1867400">
	<ele>1584.60</ele>
	<time>2025-08-16T10:06:41.000Z</time>
</trkpt>
<trkpt lat="45.9637770" lon="10.1867400">
	<ele>1584.60</ele>
	<time>2025-08-16T10:06:42.000Z</time>
</trkpt>
<trkpt lat="45.9637780" lon="10.1867400">
	<ele>1584.60</ele>
	<time>2025-08-16T10:06:43.000Z</time>
</trkpt>
<trkpt lat="45.9637780" lon="10.1867400">
	<ele>1584.40</ele>
	<time>2025-08-16T10:06:44.000Z</time>
</trkpt>
<trkpt lat="45.9637760" lon="10.1867400">
	<ele>1584.40</ele>
	<time>2025-08-16T10:06:45.000Z</time>
</trkpt>
<trkpt lat="45.9637760" lon="10.1867400">
	<ele>1584.60</ele>
	<time>2025-08-16T10:06:46.000Z</time>
</trkpt>
<trkpt lat="45.9637760" lon="10.1867400">
	<ele>1584.60</ele>
	<time>2025-08-16T10:06:47.000Z</time>
</trkpt>
<trkpt lat="45.9637760" lon="10.1867400">
	<ele>1584.40</ele>
	<time>2025-08-16T10:06:48.000Z</time>
</trkpt>
<trkpt lat="45.9637760" lon="10.1867400">
	<ele>1584.40</ele>
	<time>2025-08-16T10:06:49.000Z</time>
</trkpt>
<trkpt lat="45.9637780" lon="10.1867430">
	<ele>1584.40</ele>
	<time>2025-08-16T10:06:50.000Z</time>
</trkpt>
<trkpt lat="45.9637880" lon="10.1867600">
	<ele>1584.20</ele>
	<time>2025-08-16T10:06:51.000Z</time>
</trkpt>
<trkpt lat="45.9637990" lon="10.1867740">
	<ele>1584.20</ele>
	<time>2025-08-16T10:06:52.000Z</time>
</trkpt>
<trkpt lat="45.9638080" lon="10.1867960">
	<ele>1584.20</ele>
	<time>2025-08-16T10:06:53.000Z</time>
</trkpt>
<trkpt lat="45.9638160" lon="10.1868190">
	<ele>1584.00</ele>
	<time>2025-08-16T10:06:54.000Z</time>
</trkpt>
<trkpt lat="45.9638260" lon="10.1868410">
	<ele>1584.00</ele>
	<time>2025-08-16T10:06:55.000Z</time>
</trkpt>
<trkpt lat="45.9638360" lon="10.1868580">
	<ele>1584.00</ele>
	<time>2025-08-16T10:06:56.000Z</time>
</trkpt>
<trkpt lat="45.9638480" lon="10.1868750">
	<ele>1584.00</ele>
	<time>2025-08-16T10:06:57.000Z</time>
</trkpt>
<trkpt lat="45.9638580" lon="10.1868900">
	<ele>1583.80</ele>
	<time>2025-08-16T10:06:58.000Z</time>
</trkpt>
<trkpt lat="45.9638690" lon="10.1869030">
	<ele>1583.80</ele>
	<time>2025-08-16T10:06:59.000Z</time>
</trkpt>
<trkpt lat="45.9638780" lon="10.1869120">
	<ele>1583.60</ele>
	<time>2025-08-16T10:07:00.000Z</time>
</trkpt>
<trkpt lat="45.9638870" lon="10.1869210">
	<ele>1583.40</ele>
	<time>2025-08-16T10:07:01.000Z</time>
</trkpt>
<trkpt lat="45.9639000" lon="10.1869340">
	<ele>1583.20</ele>
	<time>2025-08-16T10:07:02.000Z</time>
</trkpt>
<trkpt lat="45.9639120" lon="10.1869490">
	<ele>1583.00</ele>
	<time>2025-08-16T10:07:03.000Z</time>
</trkpt>
<trkpt lat="45.9639240" lon="10.1869650">
	<ele>1582.60</ele>
	<time>2025-08-16T10:07:04.000Z</time>
</trkpt>
<trkpt lat="45.9639360" lon="10.1869790">
	<ele>1582.20</ele>
	<time>2025-08-16T10:07:05.000Z</time>
</trkpt>
<trkpt lat="45.9639440" lon="10.1869900">
	<ele>1582.00</ele>
	<time>2025-08-16T10:07:06.000Z</time>
</trkpt>
<trkpt lat="45.9639530" lon="10.1870000">
	<ele>1581.60</ele>
	<time>2025-08-16T10:07:07.000Z</time>
</trkpt>
<trkpt lat="45.9639640" lon="10.1870120">
	<ele>1581.40</ele>
	<time>2025-08-16T10:07:08.000Z</time>
</trkpt>
<trkpt lat="45.9639770" lon="10.1870220">
	<ele>1581.20</ele>
	<time>2025-08-16T10:07:09.000Z</time>
</trkpt>
<trkpt lat="45.9639880" lon="10.1870310">
	<ele>1581.00</ele>
	<time>2025-08-16T10:07:10.000Z</time>
</trkpt>
<trkpt lat="45.9640020" lon="10.1870400">
	<ele>1580.80</ele>
	<time>2025-08-16T10:07:11.000Z</time>
</trkpt>
<trkpt lat="45.9640100" lon="10.1870460">
	<ele>1580.60</ele>
	<time>2025-08-16T10:07:12.000Z</time>
</trkpt>
<trkpt lat="45.9640250" lon="10.1870590">
	<ele>1580.40</ele>
	<time>2025-08-16T10:07:13.000Z</time>
</trkpt>
<trkpt lat="45.9640370" lon="10.1870680">
	<ele>1580.20</ele>
	<time>2025-08-16T10:07:14.000Z</time>
</trkpt>
<trkpt lat="45.9640480" lon="10.1870770">
	<ele>1580.00</ele>
	<time>2025-08-16T10:07:15.000Z</time>
</trkpt>
<trkpt lat="45.9640600" lon="10.1870850">
	<ele>1579.80</ele>
	<time>2025-08-16T10:07:16.000Z</time>
</trkpt>
<trkpt lat="45.9640690" lon="10.1870980">
	<ele>1579.40</ele>
	<time>2025-08-16T10:07:17.000Z</time>
</trkpt>
<trkpt lat="45.9640810" lon="10.1871140">
	<ele>1579.20</ele>
	<time>2025-08-16T10:07:18.000Z</time>
</trkpt>
<trkpt lat="45.9640940" lon="10.1871280">
	<ele>1579.00</ele>
	<time>2025-08-16T10:07:19.000Z</time>
</trkpt>
<trkpt lat="45.9641050" lon="10.1871380">
	<ele>1578.60</ele>
	<time>2025-08-16T10:07:20.000Z</time>
</trkpt>
<trkpt lat="45.9641170" lon="10.1871450">
	<ele>1578.40</ele>
	<time>2025-08-16T10:07:21.000Z</time>
</trkpt>
<trkpt lat="45.9641340" lon="10.1871490">
	<ele>1578.20</ele>
	<time>2025-08-16T10:07:22.000Z</time>
</trkpt>
<trkpt lat="45.9641460" lon="10.1871530">
	<ele>1578.00</ele>
	<time>2025-08-16T10:07:23.000Z</time>
</trkpt>
<trkpt lat="45.9641570" lon="10.1871630">
	<ele>1577.60</ele>
	<time>2025-08-16T10:07:24.000Z</time>
</trkpt>
<trkpt lat="45.9641670" lon="10.1871750">
	<ele>1577.40</ele>
	<time>2025-08-16T10:07:25.000Z</time>
</trkpt>
<trkpt lat="45.9641740" lon="10.1871880">
	<ele>1577.20</ele>
	<time>2025-08-16T10:07:26.000Z</time>
</trkpt>
<trkpt lat="45.9641810" lon="10.1872040">
	<ele>1577.00</ele>
	<time>2025-08-16T10:07:27.000Z</time>
</trkpt>
<trkpt lat="45.9641880" lon="10.1872190">
	<ele>1576.80</ele>
	<time>2025-08-16T10:07:28.000Z</time>
</trkpt>
<trkpt lat="45.9641930" lon="10.1872340">
	<ele>1576.60</ele>
	<time>2025-08-16T10:07:29.000Z</time>
</trkpt>
<trkpt lat="45.9641980" lon="10.1872500">
	<ele>1576.40</ele>
	<time>2025-08-16T10:07:30.000Z</time>
</trkpt>
<trkpt lat="45.9642010" lon="10.1872700">
	<ele>1576.20</ele>
	<time>2025-08-16T10:07:31.000Z</time>
</trkpt>
<trkpt lat="45.9642020" lon="10.1872870">
	<ele>1576.00</ele>
	<time>2025-08-16T10:07:32.000Z</time>
</trkpt>
<trkpt lat="45.9642030" lon="10.1873050">
	<ele>1576.00</ele>
	<time>2025-08-16T10:07:33.000Z</time>
</trkpt>
<trkpt lat="45.9642030" lon="10.1873230">
	<ele>1575.80</ele>
	<time>2025-08-16T10:07:34.000Z</time>
</trkpt>
<trkpt lat="45.9642000" lon="10.1873380">
	<ele>1575.40</ele>
	<time>2025-08-16T10:07:35.000Z</time>
</trkpt>
<trkpt lat="45.9641940" lon="10.1873550">
	<ele>1575.20</ele>
	<time>2025-08-16T10:07:36.000Z</time>
</trkpt>
<trkpt lat="45.9641870" lon="10.1873690">
	<ele>1575.00</ele>
	<time>2025-08-16T10:07:37.000Z</time>
</trkpt>
<trkpt lat="45.9641830" lon="10.1873840">
	<ele>1574.80</ele>
	<time>2025-08-16T10:07:38.000Z</time>
</trkpt>
<trkpt lat="45.9641830" lon="10.1873980">
	<ele>1574.60</ele>
	<time>2025-08-16T10:07:39.000Z</time>
</trkpt>
<trkpt lat="45.9641830" lon="10.1874050">
	<ele>1574.40</ele>
	<time>2025-08-16T10:07:40.000Z</time>
</trkpt>
<trkpt lat="45.9641850" lon="10.1874070">
	<ele>1574.20</ele>
	<time>2025-08-16T10:07:41.000Z</time>
</trkpt>
<trkpt lat="45.9641860" lon="10.1874080">
	<ele>1574.00</ele>
	<time>2025-08-16T10:07:42.000Z</time>
</trkpt>
<trkpt lat="45.9641860" lon="10.1874080">
	<ele>1574.00</ele>
	<time>2025-08-16T10:07:43.000Z</time>
</trkpt>
<trkpt lat="45.9641860" lon="10.1874070">
	<ele>1574.00</ele>
	<time>2025-08-16T10:07:44.000Z</time>
</trkpt>
<trkpt lat="45.9641850" lon="10.1874060">
	<ele>1574.00</ele>
	<time>2025-08-16T10:07:45.000Z</time>
</trkpt>
<trkpt lat="45.9641860" lon="10.1874040">
	<ele>1574.00</ele>
	<time>2025-08-16T10:07:46.000Z</time>
</trkpt>
<trkpt lat="45.9641860" lon="10.1874030">
	<ele>1574.00</ele>
	<time>2025-08-16T10:07:47.000Z</time>
</trkpt>
<trkpt lat="45.9641840" lon="10.1874020">
	<ele>1574.00</ele>
	<time>2025-08-16T10:07:48.000Z</time>
</trkpt>
<trkpt lat="45.9641840" lon="10.1874010">
	<ele>1574.20</ele>
	<time>2025-08-16T10:07:49.000Z</time>
</trkpt>
<trkpt lat="45.9641830" lon="10.1873990">
	<ele>1574.20</ele>
	<time>2025-08-16T10:07:50.000Z</time>
</trkpt>
<trkpt lat="45.9641820" lon="10.1873980">
	<ele>1574.20</ele>
	<time>2025-08-16T10:07:51.000Z</time>
</trkpt>
<trkpt lat="45.9641820" lon="10.1873960">
	<ele>1574.20</ele>
	<time>2025-08-16T10:07:52.000Z</time>
</trkpt>
<trkpt lat="45.9641830" lon="10.1873930">
	<ele>1574.20</ele>
	<time>2025-08-16T10:07:53.000Z</time>
</trkpt>
<trkpt lat="45.9641880" lon="10.1873890">
	<ele>1574.20</ele>
	<time>2025-08-16T10:07:54.000Z</time>
</trkpt>
<trkpt lat="45.9641880" lon="10.1873850">
	<ele>1574.20</ele>
	<time>2025-08-16T10:07:55.000Z</time>
</trkpt>
<trkpt lat="45.9641880" lon="10.1873820">
	<ele>1574.20</ele>
	<time>2025-08-16T10:07:56.000Z</time>
</trkpt>
<trkpt lat="45.9641880" lon="10.1873800">
	<ele>1574.20</ele>
	<time>2025-08-16T10:07:57.000Z</time>
</trkpt>
<trkpt lat="45.9641890" lon="10.1873790">
	<ele>1574.20</ele>
	<time>2025-08-16T10:07:58.000Z</time>
</trkpt>
<trkpt lat="45.9641940" lon="10.1873810">
	<ele>1574.20</ele>
	<time>2025-08-16T10:07:59.000Z</time>
</trkpt>
<trkpt lat="45.9641960" lon="10.1873810">
	<ele>1574.20</ele>
	<time>2025-08-16T10:08:00.000Z</time>
</trkpt>
<trkpt lat="45.9641970" lon="10.1873810">
	<ele>1574.20</ele>
	<time>2025-08-16T10:08:01.000Z</time>
</trkpt>
<trkpt lat="45.9641970" lon="10.1873810">
	<ele>1574.20</ele>
	<time>2025-08-16T10:08:02.000Z</time>
</trkpt>
<trkpt lat="45.9641970" lon="10.1873810">
	<ele>1574.20</ele>
	<time>2025-08-16T10:08:03.000Z</time>
</trkpt>
<trkpt lat="45.9641970" lon="10.1873810">
	<ele>1574.20</ele>
	<time>2025-08-16T10:08:04.000Z</time>
</trkpt>
<trkpt lat="45.9641970" lon="10.1873810">
	<ele>1574.40</ele>
	<time>2025-08-16T10:08:05.000Z</time>
</trkpt>
<trkpt lat="45.9641970" lon="10.1873810">
	<ele>1574.40</ele>
	<time>2025-08-16T10:08:06.000Z</time>
</trkpt>
<trkpt lat="45.9641970" lon="10.1873810">
	<ele>1574.20</ele>
	<time>2025-08-16T10:08:07.000Z</time>
</trkpt>
<trkpt lat="45.9641970" lon="10.1873810">
	<ele>1574.20</ele>
	<time>2025-08-16T10:08:08.000Z</time>
</trkpt>
<trkpt lat="45.9641970" lon="10.1873810">
	<ele>1574.20</ele>
	<time>2025-08-16T10:08:09.000Z</time>
</trkpt>
<trkpt lat="45.9641970" lon="10.1873810">
	<ele>1574.00</ele>
	<time>2025-08-16T10:08:10.000Z</time>
</trkpt>
<trkpt lat="45.9641970" lon="10.1873810">
	<ele>1573.80</ele>
	<time>2025-08-16T10:08:11.000Z</time>
</trkpt>
<trkpt lat="45.9641960" lon="10.1873810">
	<ele>1573.80</ele>
	<time>2025-08-16T10:08:12.000Z</time>
</trkpt>
<trkpt lat="45.9641950" lon="10.1873810">
	<ele>1573.80</ele>
	<time>2025-08-16T10:08:13.000Z</time>
</trkpt>
<trkpt lat="45.9641940" lon="10.1873810">
	<ele>1573.80</ele>
	<time>2025-08-16T10:08:14.000Z</time>
</trkpt>
<trkpt lat="45.9641910" lon="10.1873810">
	<ele>1573.80</ele>
	<time>2025-08-16T10:08:15.000Z</time>
</trkpt>
<trkpt lat="45.9641890" lon="10.1873810">
	<ele>1573.80</ele>
	<time>2025-08-16T10:08:16.000Z</time>
</trkpt>
<trkpt lat="45.9641880" lon="10.1873810">
	<ele>1573.80</ele>
	<time>2025-08-16T10:08:17.000Z</time>
</trkpt>
<trkpt lat="45.9641880" lon="10.1873810">
	<ele>1574.00</ele>
	<time>2025-08-16T10:08:18.000Z</time>
</trkpt>
<trkpt lat="45.9641880" lon="10.1873820">
	<ele>1574.00</ele>
	<time>2025-08-16T10:08:19.000Z</time>
</trkpt>
<trkpt lat="45.9641880" lon="10.1873850">
	<ele>1574.00</ele>
	<time>2025-08-16T10:08:20.000Z</time>
</trkpt>
<trkpt lat="45.9641870" lon="10.1873860">
	<ele>1574.00</ele>
	<time>2025-08-16T10:08:21.000Z</time>
</trkpt>
<trkpt lat="45.9641850" lon="10.1873870">
	<ele>1573.80</ele>
	<time>2025-08-16T10:08:22.000Z</time>
</trkpt>
<trkpt lat="45.9641850" lon="10.1873870">
	<ele>1573.60</ele>
	<time>2025-08-16T10:08:23.000Z</time>
</trkpt>
<trkpt lat="45.9641830" lon="10.1873920">
	<ele>1573.40</ele>
	<time>2025-08-16T10:08:24.000Z</time>
</trkpt>
<trkpt lat="45.9641770" lon="10.1874090">
	<ele>1573.00</ele>
	<time>2025-08-16T10:08:25.000Z</time>
</trkpt>
<trkpt lat="45.9641700" lon="10.1874300">
	<ele>1572.80</ele>
	<time>2025-08-16T10:08:26.000Z</time>
</trkpt>
<trkpt lat="45.9641650" lon="10.1874510">
	<ele>1572.60</ele>
	<time>2025-08-16T10:08:27.000Z</time>
</trkpt>
<trkpt lat="45.9641600" lon="10.1874720">
	<ele>1572.60</ele>
	<time>2025-08-16T10:08:28.000Z</time>
</trkpt>
<trkpt lat="45.9641550" lon="10.1874910">
	<ele>1572.40</ele>
	<time>2025-08-16T10:08:29.000Z</time>
</trkpt>
<trkpt lat="45.9641490" lon="10.1875130">
	<ele>1572.40</ele>
	<time>2025-08-16T10:08:30.000Z</time>
</trkpt>
<trkpt lat="45.9641420" lon="10.1875350">
	<ele>1572.20</ele>
	<time>2025-08-16T10:08:31.000Z</time>
</trkpt>
<trkpt lat="45.9641370" lon="10.1875580">
	<ele>1572.00</ele>
	<time>2025-08-16T10:08:32.000Z</time>
</trkpt>
<trkpt lat="45.9641340" lon="10.1875750">
	<ele>1571.80</ele>
	<time>2025-08-16T10:08:33.000Z</time>
</trkpt>
<trkpt lat="45.9641280" lon="10.1875930">
	<ele>1571.80</ele>
	<time>2025-08-16T10:08:34.000Z</time>
</trkpt>
<trkpt lat="45.9641230" lon="10.1876090">
	<ele>1571.60</ele>
	<time>2025-08-16T10:08:35.000Z</time>
</trkpt>
<trkpt lat="45.9641170" lon="10.1876220">
	<ele>1571.60</ele>
	<time>2025-08-16T10:08:36.000Z</time>
</trkpt>
<trkpt lat="45.9641100" lon="10.1876350">
	<ele>1571.40</ele>
	<time>2025-08-16T10:08:37.000Z</time>
</trkpt>
<trkpt lat="45.9641020" lon="10.1876520">
	<ele>1571.20</ele>
	<time>2025-08-16T10:08:38.000Z</time>
</trkpt>
<trkpt lat="45.9640990" lon="10.1876660">
	<ele>1571.20</ele>
	<time>2025-08-16T10:08:39.000Z</time>
</trkpt>
<trkpt lat="45.9640940" lon="10.1876860">
	<ele>1570.80</ele>
	<time>2025-08-16T10:08:40.000Z</time>
</trkpt>
<trkpt lat="45.9640890" lon="10.1877010">
	<ele>1570.60</ele>
	<time>2025-08-16T10:08:41.000Z</time>
</trkpt>
<trkpt lat="45.9640810" lon="10.1877120">
	<ele>1570.20</ele>
	<time>2025-08-16T10:08:42.000Z</time>
</trkpt>
<trkpt lat="45.9640730" lon="10.1877200">
	<ele>1569.80</ele>
	<time>2025-08-16T10:08:43.000Z</time>
</trkpt>
<trkpt lat="45.9640620" lon="10.1877240">
	<ele>1569.60</ele>
	<time>2025-08-16T10:08:44.000Z</time>
</trkpt>
<trkpt lat="45.9640520" lon="10.1877240">
	<ele>1569.40</ele>
	<time>2025-08-16T10:08:45.000Z</time>
</trkpt>
<trkpt lat="45.9640420" lon="10.1877220">
	<ele>1569.40</ele>
	<time>2025-08-16T10:08:46.000Z</time>
</trkpt>
<trkpt lat="45.9640340" lon="10.1877190">
	<ele>1569.60</ele>
	<time>2025-08-16T10:08:47.000Z</time>
</trkpt>
<trkpt lat="45.9640250" lon="10.1877150">
	<ele>1569.60</ele>
	<time>2025-08-16T10:08:48.000Z</time>
</trkpt>
<trkpt lat="45.9640160" lon="10.1877100">
	<ele>1569.60</ele>
	<time>2025-08-16T10:08:49.000Z</time>
</trkpt>
<trkpt lat="45.9640070" lon="10.1877020">
	<ele>1569.60</ele>
	<time>2025-08-16T10:08:50.000Z</time>
</trkpt>
<trkpt lat="45.9639950" lon="10.1876920">
	<ele>1569.40</ele>
	<time>2025-08-16T10:08:51.000Z</time>
</trkpt>
<trkpt lat="45.9639850" lon="10.1876810">
	<ele>1569.20</ele>
	<time>2025-08-16T10:08:52.000Z</time>
</trkpt>
<trkpt lat="45.9639770" lon="10.1876660">
	<ele>1569.00</ele>
	<time>2025-08-16T10:08:53.000Z</time>
</trkpt>
<trkpt lat="45.9639700" lon="10.1876490">
	<ele>1568.80</ele>
	<time>2025-08-16T10:08:54.000Z</time>
</trkpt>
<trkpt lat="45.9639640" lon="10.1876330">
	<ele>1568.40</ele>
	<time>2025-08-16T10:08:55.000Z</time>
</trkpt>
<trkpt lat="45.9639590" lon="10.1876150">
	<ele>1568.40</ele>
	<time>2025-08-16T10:08:56.000Z</time>
</trkpt>
<trkpt lat="45.9639540" lon="10.1875990">
	<ele>1568.20</ele>
	<time>2025-08-16T10:08:57.000Z</time>
</trkpt>
<trkpt lat="45.9639500" lon="10.1875840">
	<ele>1568.20</ele>
	<time>2025-08-16T10:08:58.000Z</time>
</trkpt>
<trkpt lat="45.9639470" lon="10.1875660">
	<ele>1568.00</ele>
	<time>2025-08-16T10:08:59.000Z</time>
</trkpt>
<trkpt lat="45.9639390" lon="10.1875490">
	<ele>1567.60</ele>
	<time>2025-08-16T10:09:00.000Z</time>
</trkpt>
<trkpt lat="45.9639330" lon="10.1875370">
	<ele>1567.20</ele>
	<time>2025-08-16T10:09:01.000Z</time>
</trkpt>
<trkpt lat="45.9639270" lon="10.1875250">
	<ele>1567.20</ele>
	<time>2025-08-16T10:09:02.000Z</time>
</trkpt>
<trkpt lat="45.9639190" lon="10.1875120">
	<ele>1566.80</ele>
	<time>2025-08-16T10:09:03.000Z</time>
</trkpt>
<trkpt lat="45.9639100" lon="10.1874980">
	<ele>1566.60</ele>
	<time>2025-08-16T10:09:04.000Z</time>
</trkpt>
<trkpt lat="45.9639020" lon="10.1874860">
	<ele>1566.40</ele>
	<time>2025-08-16T10:09:05.000Z</time>
</trkpt>
<trkpt lat="45.9638960" lon="10.1874770">
	<ele>1566.20</ele>
	<time>2025-08-16T10:09:06.000Z</time>
</trkpt>
<trkpt lat="45.9638930" lon="10.1874720">
	<ele>1566.00</ele>
	<time>2025-08-16T10:09:07.000Z</time>
</trkpt>
<trkpt lat="45.9638920" lon="10.1874700">
	<ele>1566.00</ele>
	<time>2025-08-16T10:09:08.000Z</time>
</trkpt>
<trkpt lat="45.9638920" lon="10.1874690">
	<ele>1566.00</ele>
	<time>2025-08-16T10:09:09.000Z</time>
</trkpt>
<trkpt lat="45.9638930" lon="10.1874690">
	<ele>1565.80</ele>
	<time>2025-08-16T10:09:10.000Z</time>
</trkpt>
<trkpt lat="45.9638920" lon="10.1874690">
	<ele>1565.80</ele>
	<time>2025-08-16T10:09:11.000Z</time>
</trkpt>
<trkpt lat="45.9638920" lon="10.1874680">
	<ele>1565.60</ele>
	<time>2025-08-16T10:09:12.000Z</time>
</trkpt>
<trkpt lat="45.9638910" lon="10.1874680">
	<ele>1565.60</ele>
	<time>2025-08-16T10:09:13.000Z</time>
</trkpt>
<trkpt lat="45.9638860" lon="10.1874660">
	<ele>1565.60</ele>
	<time>2025-08-16T10:09:14.000Z</time>
</trkpt>
<trkpt lat="45.9638850" lon="10.1874630">
	<ele>1565.60</ele>
	<time>2025-08-16T10:09:15.000Z</time>
</trkpt>
<trkpt lat="45.9638850" lon="10.1874620">
	<ele>1565.60</ele>
	<time>2025-08-16T10:09:16.000Z</time>
</trkpt>
<trkpt lat="45.9638860" lon="10.1874610">
	<ele>1565.60</ele>
	<time>2025-08-16T10:09:17.000Z</time>
</trkpt>
<trkpt lat="45.9638870" lon="10.1874620">
	<ele>1565.60</ele>
	<time>2025-08-16T10:09:18.000Z</time>
</trkpt>
<trkpt lat="45.9638880" lon="10.1874620">
	<ele>1565.80</ele>
	<time>2025-08-16T10:09:19.000Z</time>
</trkpt>
<trkpt lat="45.9638890" lon="10.1874620">
	<ele>1565.80</ele>
	<time>2025-08-16T10:09:20.000Z</time>
</trkpt>
<trkpt lat="45.9638910" lon="10.1874540">
	<ele>1565.80</ele>
	<time>2025-08-16T10:09:21.000Z</time>
</trkpt>
<trkpt lat="45.9638910" lon="10.1874440">
	<ele>1565.80</ele>
	<time>2025-08-16T10:09:22.000Z</time>
</trkpt>
<trkpt lat="45.9638870" lon="10.1874320">
	<ele>1565.40</ele>
	<time>2025-08-16T10:09:23.000Z</time>
</trkpt>
<trkpt lat="45.9638820" lon="10.1874200">
	<ele>1565.20</ele>
	<time>2025-08-16T10:09:24.000Z</time>
</trkpt>
<trkpt lat="45.9638750" lon="10.1874070">
	<ele>1564.80</ele>
	<time>2025-08-16T10:09:25.000Z</time>
</trkpt>
<trkpt lat="45.9638690" lon="10.1873960">
	<ele>1564.60</ele>
	<time>2025-08-16T10:09:26.000Z</time>
</trkpt>
<trkpt lat="45.9638610" lon="10.1873850">
	<ele>1564.40</ele>
	<time>2025-08-16T10:09:27.000Z</time>
</trkpt>
<trkpt lat="45.9638530" lon="10.1873730">
	<ele>1564.20</ele>
	<time>2025-08-16T10:09:28.000Z</time>
</trkpt>
<trkpt lat="45.9638430" lon="10.1873610">
	<ele>1564.00</ele>
	<time>2025-08-16T10:09:29.000Z</time>
</trkpt>
<trkpt lat="45.9638340" lon="10.1873510">
	<ele>1563.80</ele>
	<time>2025-08-16T10:09:30.000Z</time>
</trkpt>
<trkpt lat="45.9638250" lon="10.1873420">
	<ele>1563.80</ele>
	<time>2025-08-16T10:09:31.000Z</time>
</trkpt>
<trkpt lat="45.9638180" lon="10.1873380">
	<ele>1563.80</ele>
	<time>2025-08-16T10:09:32.000Z</time>
</trkpt>
<trkpt lat="45.9638130" lon="10.1873360">
	<ele>1563.80</ele>
	<time>2025-08-16T10:09:33.000Z</time>
</trkpt>
<trkpt lat="45.9638070" lon="10.1873350">
	<ele>1563.80</ele>
	<time>2025-08-16T10:09:34.000Z</time>
</trkpt>
<trkpt lat="45.9637970" lon="10.1873320">
	<ele>1563.80</ele>
	<time>2025-08-16T10:09:35.000Z</time>
</trkpt>
<trkpt lat="45.9637850" lon="10.1873280">
	<ele>1563.60</ele>
	<time>2025-08-16T10:09:36.000Z</time>
</trkpt>
<trkpt lat="45.9637720" lon="10.1873220">
	<ele>1563.60</ele>
	<time>2025-08-16T10:09:37.000Z</time>
</trkpt>
<trkpt lat="45.9637590" lon="10.1873180">
	<ele>1563.20</ele>
	<time>2025-08-16T10:09:38.000Z</time>
</trkpt>
<trkpt lat="45.9637470" lon="10.1873140">
	<ele>1563.00</ele>
	<time>2025-08-16T10:09:39.000Z</time>
</trkpt>
<trkpt lat="45.9637350" lon="10.1873040">
	<ele>1562.60</ele>
	<time>2025-08-16T10:09:40.000Z</time>
</trkpt>
<trkpt lat="45.9637220" lon="10.1872980">
	<ele>1562.40</ele>
	<time>2025-08-16T10:09:41.000Z</time>
</trkpt>
<trkpt lat="45.9637070" lon="10.1872940">
	<ele>1562.20</ele>
	<time>2025-08-16T10:09:42.000Z</time>
</trkpt>
<trkpt lat="45.9636950" lon="10.1872900">
	<ele>1561.80</ele>
	<time>2025-08-16T10:09:43.000Z</time>
</trkpt>
<trkpt lat="45.9636840" lon="10.1872840">
	<ele>1561.60</ele>
	<time>2025-08-16T10:09:44.000Z</time>
</trkpt>
<trkpt lat="45.9636730" lon="10.1872790">
	<ele>1561.40</ele>
	<time>2025-08-16T10:09:45.000Z</time>
</trkpt>
<trkpt lat="45.9636590" lon="10.1872720">
	<ele>1561.00</ele>
	<time>2025-08-16T10:09:46.000Z</time>
</trkpt>
<trkpt lat="45.9636450" lon="10.1872650">
	<ele>1560.60</ele>
	<time>2025-08-16T10:09:47.000Z</time>
</trkpt>
<trkpt lat="45.9636310" lon="10.1872580">
	<ele>1560.40</ele>
	<time>2025-08-16T10:09:48.000Z</time>
</trkpt>
<trkpt lat="45.9636200" lon="10.1872520">
	<ele>1560.00</ele>
	<time>2025-08-16T10:09:49.000Z</time>
</trkpt>
<trkpt lat="45.9636080" lon="10.1872440">
	<ele>1559.40</ele>
	<time>2025-08-16T10:09:50.000Z</time>
</trkpt>
<trkpt lat="45.9635940" lon="10.1872360">
	<ele>1559.20</ele>
	<time>2025-08-16T10:09:51.000Z</time>
</trkpt>
<trkpt lat="45.9635810" lon="10.1872270">
	<ele>1559.00</ele>
	<time>2025-08-16T10:09:52.000Z</time>
</trkpt>
<trkpt lat="45.9635680" lon="10.1872180">
	<ele>1558.80</ele>
	<time>2025-08-16T10:09:53.000Z</time>
</trkpt>
<trkpt lat="45.9635540" lon="10.1872110">
	<ele>1558.40</ele>
	<time>2025-08-16T10:09:54.000Z</time>
</trkpt>
<trkpt lat="45.9635420" lon="10.1872050">
	<ele>1558.20</ele>
	<time>2025-08-16T10:09:55.000Z</time>
</trkpt>
<trkpt lat="45.9635280" lon="10.1871970">
	<ele>1558.00</ele>
	<time>2025-08-16T10:09:56.000Z</time>
</trkpt>
<trkpt lat="45.9635160" lon="10.1871910">
	<ele>1557.60</ele>
	<time>2025-08-16T10:09:57.000Z</time>
</trkpt>
<trkpt lat="45.9635060" lon="10.1871830">
	<ele>1557.40</ele>
	<time>2025-08-16T10:09:58.000Z</time>
</trkpt>
<trkpt lat="45.9634950" lon="10.1871770">
	<ele>1557.20</ele>
	<time>2025-08-16T10:09:59.000Z</time>
</trkpt>
<trkpt lat="45.9634840" lon="10.1871700">
	<ele>1557.00</ele>
	<time>2025-08-16T10:10:00.000Z</time>
</trkpt>
<trkpt lat="45.9634730" lon="10.1871640">
	<ele>1556.80</ele>
	<time>2025-08-16T10:10:01.000Z</time>
</trkpt>
<trkpt lat="45.9634620" lon="10.1871540">
	<ele>1556.40</ele>
	<time>2025-08-16T10:10:02.000Z</time>
</trkpt>
<trkpt lat="45.9634510" lon="10.1871470">
	<ele>1556.20</ele>
	<time>2025-08-16T10:10:03.000Z</time>
</trkpt>
<trkpt lat="45.9634410" lon="10.1871380">
	<ele>1555.80</ele>
	<time>2025-08-16T10:10:04.000Z</time>
</trkpt>
<trkpt lat="45.9634300" lon="10.1871300">
	<ele>1555.60</ele>
	<time>2025-08-16T10:10:05.000Z</time>
</trkpt>
<trkpt lat="45.9634160" lon="10.1871220">
	<ele>1555.60</ele>
	<time>2025-08-16T10:10:06.000Z</time>
</trkpt>
<trkpt lat="45.9634040" lon="10.1871140">
	<ele>1555.20</ele>
	<time>2025-08-16T10:10:07.000Z</time>
</trkpt>
<trkpt lat="45.9633940" lon="10.1871090">
	<ele>1555.00</ele>
	<time>2025-08-16T10:10:08.000Z</time>
</trkpt>
<trkpt lat="45.9633800" lon="10.1871050">
	<ele>1554.60</ele>
	<time>2025-08-16T10:10:09.000Z</time>
</trkpt>
<trkpt lat="45.9633660" lon="10.1871060">
	<ele>1554.60</ele>
	<time>2025-08-16T10:10:10.000Z</time>
</trkpt>
<trkpt lat="45.9633510" lon="10.1871080">
	<ele>1554.40</ele>
	<time>2025-08-16T10:10:11.000Z</time>
</trkpt>
<trkpt lat="45.9633380" lon="10.1871120">
	<ele>1554.20</ele>
	<time>2025-08-16T10:10:12.000Z</time>
</trkpt>
<trkpt lat="45.9633260" lon="10.1871190">
	<ele>1554.00</ele>
	<time>2025-08-16T10:10:13.000Z</time>
</trkpt>
<trkpt lat="45.9633150" lon="10.1871280">
	<ele>1553.80</ele>
	<time>2025-08-16T10:10:14.000Z</time>
</trkpt>
<trkpt lat="45.9633040" lon="10.1871390">
	<ele>1553.40</ele>
	<time>2025-08-16T10:10:15.000Z</time>
</trkpt>
<trkpt lat="45.9632950" lon="10.1871520">
	<ele>1553.20</ele>
	<time>2025-08-16T10:10:16.000Z</time>
</trkpt>
<trkpt lat="45.9632880" lon="10.1871670">
	<ele>1552.80</ele>
	<time>2025-08-16T10:10:17.000Z</time>
</trkpt>
<trkpt lat="45.9632820" lon="10.1871830">
	<ele>1552.60</ele>
	<time>2025-08-16T10:10:18.000Z</time>
</trkpt>
<trkpt lat="45.9632760" lon="10.1872000">
	<ele>1552.40</ele>
	<time>2025-08-16T10:10:19.000Z</time>
</trkpt>
<trkpt lat="45.9632700" lon="10.1872170">
	<ele>1552.40</ele>
	<time>2025-08-16T10:10:20.000Z</time>
</trkpt>
<trkpt lat="45.9632640" lon="10.1872350">
	<ele>1552.00</ele>
	<time>2025-08-16T10:10:21.000Z</time>
</trkpt>
<trkpt lat="45.9632580" lon="10.1872530">
	<ele>1551.80</ele>
	<time>2025-08-16T10:10:22.000Z</time>
</trkpt>
<trkpt lat="45.9632510" lon="10.1872690">
	<ele>1551.60</ele>
	<time>2025-08-16T10:10:23.000Z</time>
</trkpt>
<trkpt lat="45.9632460" lon="10.1872880">
	<ele>1551.40</ele>
	<time>2025-08-16T10:10:24.000Z</time>
</trkpt>
<trkpt lat="45.9632420" lon="10.1873080">
	<ele>1551.20</ele>
	<time>2025-08-16T10:10:25.000Z</time>
</trkpt>
<trkpt lat="45.9632380" lon="10.1873280">
	<ele>1551.00</ele>
	<time>2025-08-16T10:10:26.000Z</time>
</trkpt>
<trkpt lat="45.9632360" lon="10.1873490">
	<ele>1550.80</ele>
	<time>2025-08-16T10:10:27.000Z</time>
</trkpt>
<trkpt lat="45.9632360" lon="10.1873680">
	<ele>1550.40</ele>
	<time>2025-08-16T10:10:28.000Z</time>
</trkpt>
<trkpt lat="45.9632350" lon="10.1873890">
	<ele>1550.20</ele>
	<time>2025-08-16T10:10:29.000Z</time>
</trkpt>
<trkpt lat="45.9632350" lon="10.1874100">
	<ele>1550.00</ele>
	<time>2025-08-16T10:10:30.000Z</time>
</trkpt>
<trkpt lat="45.9632370" lon="10.1874310">
	<ele>1549.80</ele>
	<time>2025-08-16T10:10:31.000Z</time>
</trkpt>
<trkpt lat="45.9632420" lon="10.1874520">
	<ele>1549.60</ele>
	<time>2025-08-16T10:10:32.000Z</time>
</trkpt>
<trkpt lat="45.9632470" lon="10.1874710">
	<ele>1549.40</ele>
	<time>2025-08-16T10:10:33.000Z</time>
</trkpt>
<trkpt lat="45.9632500" lon="10.1874900">
	<ele>1549.20</ele>
	<time>2025-08-16T10:10:34.000Z</time>
</trkpt>
<trkpt lat="45.9632530" lon="10.1875120">
	<ele>1549.20</ele>
	<time>2025-08-16T10:10:35.000Z</time>
</trkpt>
<trkpt lat="45.9632550" lon="10.1875330">
	<ele>1549.00</ele>
	<time>2025-08-16T10:10:36.000Z</time>
</trkpt>
<trkpt lat="45.9632570" lon="10.1875530">
	<ele>1548.80</ele>
	<time>2025-08-16T10:10:37.000Z</time>
</trkpt>
<trkpt lat="45.9632590" lon="10.1875750">
	<ele>1548.60</ele>
	<time>2025-08-16T10:10:38.000Z</time>
</trkpt>
<trkpt lat="45.9632620" lon="10.1875970">
	<ele>1548.40</ele>
	<time>2025-08-16T10:10:39.000Z</time>
</trkpt>
<trkpt lat="45.9632630" lon="10.1876180">
	<ele>1548.20</ele>
	<time>2025-08-16T10:10:40.000Z</time>
</trkpt>
<trkpt lat="45.9632640" lon="10.1876370">
	<ele>1548.20</ele>
	<time>2025-08-16T10:10:41.000Z</time>
</trkpt>
<trkpt lat="45.9632620" lon="10.1876550">
	<ele>1548.20</ele>
	<time>2025-08-16T10:10:42.000Z</time>
</trkpt>
<trkpt lat="45.9632600" lon="10.1876730">
	<ele>1548.20</ele>
	<time>2025-08-16T10:10:43.000Z</time>
</trkpt>
<trkpt lat="45.9632570" lon="10.1876920">
	<ele>1548.00</ele>
	<time>2025-08-16T10:10:44.000Z</time>
</trkpt>
<trkpt lat="45.9632560" lon="10.1877120">
	<ele>1548.00</ele>
	<time>2025-08-16T10:10:45.000Z</time>
</trkpt>
<trkpt lat="45.9632530" lon="10.1877330">
	<ele>1548.20</ele>
	<time>2025-08-16T10:10:46.000Z</time>
</trkpt>
<trkpt lat="45.9632540" lon="10.1877510">
	<ele>1548.20</ele>
	<time>2025-08-16T10:10:47.000Z</time>
</trkpt>
<trkpt lat="45.9632540" lon="10.1877720">
	<ele>1548.20</ele>
	<time>2025-08-16T10:10:48.000Z</time>
</trkpt>
<trkpt lat="45.9632560" lon="10.1877920">
	<ele>1548.20</ele>
	<time>2025-08-16T10:10:49.000Z</time>
</trkpt>
<trkpt lat="45.9632580" lon="10.1878130">
	<ele>1548.00</ele>
	<time>2025-08-16T10:10:50.000Z</time>
</trkpt>
<trkpt lat="45.9632580" lon="10.1878340">
	<ele>1547.80</ele>
	<time>2025-08-16T10:10:51.000Z</time>
</trkpt>
<trkpt lat="45.9632560" lon="10.1878560">
	<ele>1547.80</ele>
	<time>2025-08-16T10:10:52.000Z</time>
</trkpt>
<trkpt lat="45.9632540" lon="10.1878770">
	<ele>1547.60</ele>
	<time>2025-08-16T10:10:53.000Z</time>
</trkpt>
<trkpt lat="45.9632540" lon="10.1878970">
	<ele>1547.40</ele>
	<time>2025-08-16T10:10:54.000Z</time>
</trkpt>
<trkpt lat="45.9632520" lon="10.1879170">
	<ele>1547.20</ele>
	<time>2025-08-16T10:10:55.000Z</time>
</trkpt>
<trkpt lat="45.9632520" lon="10.1879370">
	<ele>1547.20</ele>
	<time>2025-08-16T10:10:56.000Z</time>
</trkpt>
<trkpt lat="45.9632520" lon="10.1879600">
	<ele>1547.00</ele>
	<time>2025-08-16T10:10:57.000Z</time>
</trkpt>
<trkpt lat="45.9632540" lon="10.1879800">
	<ele>1546.80</ele>
	<time>2025-08-16T10:10:58.000Z</time>
</trkpt>
<trkpt lat="45.9632540" lon="10.1880000">
	<ele>1546.80</ele>
	<time>2025-08-16T10:10:59.000Z</time>
</trkpt>
<trkpt lat="45.9632550" lon="10.1880200">
	<ele>1546.60</ele>
	<time>2025-08-16T10:11:00.000Z</time>
</trkpt>
<trkpt lat="45.9632550" lon="10.1880390">
	<ele>1546.40</ele>
	<time>2025-08-16T10:11:01.000Z</time>
</trkpt>
<trkpt lat="45.9632530" lon="10.1880570">
	<ele>1546.40</ele>
	<time>2025-08-16T10:11:02.000Z</time>
</trkpt>
<trkpt lat="45.9632510" lon="10.1880750">
	<ele>1546.20</ele>
	<time>2025-08-16T10:11:03.000Z</time>
</trkpt>
<trkpt lat="45.9632480" lon="10.1880920">
	<ele>1546.20</ele>
	<time>2025-08-16T10:11:04.000Z</time>
</trkpt>
<trkpt lat="45.9632440" lon="10.1881100">
	<ele>1546.20</ele>
	<time>2025-08-16T10:11:05.000Z</time>
</trkpt>
<trkpt lat="45.9632400" lon="10.1881300">
	<ele>1546.20</ele>
	<time>2025-08-16T10:11:06.000Z</time>
</trkpt>
<trkpt lat="45.9632370" lon="10.1881490">
	<ele>1546.00</ele>
	<time>2025-08-16T10:11:07.000Z</time>
</trkpt>
<trkpt lat="45.9632330" lon="10.1881680">
	<ele>1546.00</ele>
	<time>2025-08-16T10:11:08.000Z</time>
</trkpt>
<trkpt lat="45.9632280" lon="10.1881870">
	<ele>1546.00</ele>
	<time>2025-08-16T10:11:09.000Z</time>
</trkpt>
<trkpt lat="45.9632220" lon="10.1882050">
	<ele>1546.00</ele>
	<time>2025-08-16T10:11:10.000Z</time>
</trkpt>
<trkpt lat="45.9632160" lon="10.1882250">
	<ele>1546.00</ele>
	<time>2025-08-16T10:11:11.000Z</time>
</trkpt>
<trkpt lat="45.9632110" lon="10.1882430">
	<ele>1546.00</ele>
	<time>2025-08-16T10:11:12.000Z</time>
</trkpt>
<trkpt lat="45.9632050" lon="10.1882620">
	<ele>1546.00</ele>
	<time>2025-08-16T10:11:13.000Z</time>
</trkpt>
<trkpt lat="45.9631980" lon="10.1882810">
	<ele>1546.00</ele>
	<time>2025-08-16T10:11:14.000Z</time>
</trkpt>
<trkpt lat="45.9631900" lon="10.1883000">
	<ele>1546.00</ele>
	<time>2025-08-16T10:11:15.000Z</time>
</trkpt>
<trkpt lat="45.9631830" lon="10.1883190">
	<ele>1546.00</ele>
	<time>2025-08-16T10:11:16.000Z</time>
</trkpt>
<trkpt lat="45.9631750" lon="10.1883360">
	<ele>1546.00</ele>
	<time>2025-08-16T10:11:17.000Z</time>
</trkpt>
<trkpt lat="45.9631660" lon="10.1883540">
	<ele>1546.00</ele>
	<time>2025-08-16T10:11:18.000Z</time>
</trkpt>
<trkpt lat="45.9631580" lon="10.1883710">
	<ele>1546.00</ele>
	<time>2025-08-16T10:11:19.000Z</time>
</trkpt>
<trkpt lat="45.9631490" lon="10.1883870">
	<ele>1545.80</ele>
	<time>2025-08-16T10:11:20.000Z</time>
</trkpt>
<trkpt lat="45.9631420" lon="10.1884030">
	<ele>1545.80</ele>
	<time>2025-08-16T10:11:21.000Z</time>
</trkpt>
<trkpt lat="45.9631330" lon="10.1884200">
	<ele>1545.80</ele>
	<time>2025-08-16T10:11:22.000Z</time>
</trkpt>
<trkpt lat="45.9631250" lon="10.1884350">
	<ele>1545.80</ele>
	<time>2025-08-16T10:11:23.000Z</time>
</trkpt>
<trkpt lat="45.9631170" lon="10.1884510">
	<ele>1545.80</ele>
	<time>2025-08-16T10:11:24.000Z</time>
</trkpt>
<trkpt lat="45.9631080" lon="10.1884640">
	<ele>1545.80</ele>
	<time>2025-08-16T10:11:25.000Z</time>
</trkpt>
<trkpt lat="45.9630990" lon="10.1884780">
	<ele>1545.80</ele>
	<time>2025-08-16T10:11:26.000Z</time>
</trkpt>
<trkpt lat="45.9630880" lon="10.1884910">
	<ele>1545.80</ele>
	<time>2025-08-16T10:11:27.000Z</time>
</trkpt>
<trkpt lat="45.9630760" lon="10.1885030">
	<ele>1545.80</ele>
	<time>2025-08-16T10:11:28.000Z</time>
</trkpt>
<trkpt lat="45.9630650" lon="10.1885160">
	<ele>1545.80</ele>
	<time>2025-08-16T10:11:29.000Z</time>
</trkpt>
<trkpt lat="45.9630540" lon="10.1885290">
	<ele>1545.60</ele>
	<time>2025-08-16T10:11:30.000Z</time>
</trkpt>
<trkpt lat="45.9630430" lon="10.1885440">
	<ele>1545.60</ele>
	<time>2025-08-16T10:11:31.000Z</time>
</trkpt>
<trkpt lat="45.9630330" lon="10.1885580">
	<ele>1545.60</ele>
	<time>2025-08-16T10:11:32.000Z</time>
</trkpt>
<trkpt lat="45.9630210" lon="10.1885740">
	<ele>1545.60</ele>
	<time>2025-08-16T10:11:33.000Z</time>
</trkpt>
<trkpt lat="45.9630100" lon="10.1885890">
	<ele>1545.60</ele>
	<time>2025-08-16T10:11:34.000Z</time>
</trkpt>
<trkpt lat="45.9629990" lon="10.1886030">
	<ele>1545.60</ele>
	<time>2025-08-16T10:11:35.000Z</time>
</trkpt>
<trkpt lat="45.9629880" lon="10.1886160">
	<ele>1545.60</ele>
	<time>2025-08-16T10:11:36.000Z</time>
</trkpt>
<trkpt lat="45.9629800" lon="10.1886310">
	<ele>1545.60</ele>
	<time>2025-08-16T10:11:37.000Z</time>
</trkpt>
<trkpt lat="45.9629710" lon="10.1886440">
	<ele>1545.60</ele>
	<time>2025-08-16T10:11:38.000Z</time>
</trkpt>
<trkpt lat="45.9629620" lon="10.1886590">
	<ele>1545.40</ele>
	<time>2025-08-16T10:11:39.000Z</time>
</trkpt>
<trkpt lat="45.9629540" lon="10.1886730">
	<ele>1545.20</ele>
	<time>2025-08-16T10:11:40.000Z</time>
</trkpt>
<trkpt lat="45.9629470" lon="10.1886870">
	<ele>1545.00</ele>
	<time>2025-08-16T10:11:41.000Z</time>
</trkpt>
<trkpt lat="45.9629420" lon="10.1887050">
	<ele>1545.00</ele>
	<time>2025-08-16T10:11:42.000Z</time>
</trkpt>
<trkpt lat="45.9629380" lon="10.1887250">
	<ele>1544.80</ele>
	<time>2025-08-16T10:11:43.000Z</time>
</trkpt>
<trkpt lat="45.9629330" lon="10.1887430">
	<ele>1544.80</ele>
	<time>2025-08-16T10:11:44.000Z</time>
</trkpt>
<trkpt lat="45.9629250" lon="10.1887590">
	<ele>1544.40</ele>
	<time>2025-08-16T10:11:45.000Z</time>
</trkpt>
<trkpt lat="45.9629150" lon="10.1887750">
	<ele>1544.20</ele>
	<time>2025-08-16T10:11:46.000Z</time>
</trkpt>
<trkpt lat="45.9629060" lon="10.1887950">
	<ele>1544.00</ele>
	<time>2025-08-16T10:11:47.000Z</time>
</trkpt>
<trkpt lat="45.9628980" lon="10.1888100">
	<ele>1543.60</ele>
	<time>2025-08-16T10:11:48.000Z</time>
</trkpt>
<trkpt lat="45.9628900" lon="10.1888240">
	<ele>1543.40</ele>
	<time>2025-08-16T10:11:49.000Z</time>
</trkpt>
<trkpt lat="45.9628850" lon="10.1888410">
	<ele>1543.20</ele>
	<time>2025-08-16T10:11:50.000Z</time>
</trkpt>
<trkpt lat="45.9628790" lon="10.1888570">
	<ele>1543.00</ele>
	<time>2025-08-16T10:11:51.000Z</time>
</trkpt>
<trkpt lat="45.9628710" lon="10.1888710">
	<ele>1542.80</ele>
	<time>2025-08-16T10:11:52.000Z</time>
</trkpt>
<trkpt lat="45.9628620" lon="10.1888840">
	<ele>1542.60</ele>
	<time>2025-08-16T10:11:53.000Z</time>
</trkpt>
<trkpt lat="45.9628530" lon="10.1888990">
	<ele>1542.40</ele>
	<time>2025-08-16T10:11:54.000Z</time>
</trkpt>
<trkpt lat="45.9628460" lon="10.1889160">
	<ele>1542.40</ele>
	<time>2025-08-16T10:11:55.000Z</time>
</trkpt>
<trkpt lat="45.9628360" lon="10.1889300">
	<ele>1542.20</ele>
	<time>2025-08-16T10:11:56.000Z</time>
</trkpt>
<trkpt lat="45.9628230" lon="10.1889430">
	<ele>1541.80</ele>
	<time>2025-08-16T10:11:57.000Z</time>
</trkpt>
<trkpt lat="45.9628120" lon="10.1889540">
	<ele>1541.60</ele>
	<time>2025-08-16T10:11:58.000Z</time>
</trkpt>
<trkpt lat="45.9628010" lon="10.1889660">
	<ele>1541.40</ele>
	<time>2025-08-16T10:11:59.000Z</time>
</trkpt>
<trkpt lat="45.9627920" lon="10.1889810">
	<ele>1541.40</ele>
	<time>2025-08-16T10:12:00.000Z</time>
</trkpt>
<trkpt lat="45.9627850" lon="10.1890000">
	<ele>1541.20</ele>
	<time>2025-08-16T10:12:01.000Z</time>
</trkpt>
<trkpt lat="45.9627780" lon="10.1890160">
	<ele>1541.00</ele>
	<time>2025-08-16T10:12:02.000Z</time>
</trkpt>
<trkpt lat="45.9627690" lon="10.1890320">
	<ele>1540.80</ele>
	<time>2025-08-16T10:12:03.000Z</time>
</trkpt>
<trkpt lat="45.9627600" lon="10.1890460">
	<ele>1540.80</ele>
	<time>2025-08-16T10:12:04.000Z</time>
</trkpt>
<trkpt lat="45.9627510" lon="10.1890590">
	<ele>1540.40</ele>
	<time>2025-08-16T10:12:05.000Z</time>
</trkpt>
<trkpt lat="45.9627370" lon="10.1890690">
	<ele>1540.20</ele>
	<time>2025-08-16T10:12:06.000Z</time>
</trkpt>
<trkpt lat="45.9627230" lon="10.1890810">
	<ele>1540.00</ele>
	<time>2025-08-16T10:12:07.000Z</time>
</trkpt>
<trkpt lat="45.9627120" lon="10.1890930">
	<ele>1539.60</ele>
	<time>2025-08-16T10:12:08.000Z</time>
</trkpt>
<trkpt lat="45.9627080" lon="10.1891060">
	<ele>1539.40</ele>
	<time>2025-08-16T10:12:09.000Z</time>
</trkpt>
<trkpt lat="45.9626990" lon="10.1891260">
	<ele>1539.00</ele>
	<time>2025-08-16T10:12:10.000Z</time>
</trkpt>
<trkpt lat="45.9626910" lon="10.1891390">
	<ele>1538.60</ele>
	<time>2025-08-16T10:12:11.000Z</time>
</trkpt>
<trkpt lat="45.9626830" lon="10.1891510">
	<ele>1538.40</ele>
	<time>2025-08-16T10:12:12.000Z</time>
</trkpt>
<trkpt lat="45.9626740" lon="10.1891670">
	<ele>1538.20</ele>
	<time>2025-08-16T10:12:13.000Z</time>
</trkpt>
<trkpt lat="45.9626650" lon="10.1891840">
	<ele>1538.00</ele>
	<time>2025-08-16T10:12:14.000Z</time>
</trkpt>
<trkpt lat="45.9626570" lon="10.1892010">
	<ele>1537.80</ele>
	<time>2025-08-16T10:12:15.000Z</time>
</trkpt>
<trkpt lat="45.9626510" lon="10.1892160">
	<ele>1537.60</ele>
	<time>2025-08-16T10:12:16.000Z</time>
</trkpt>
<trkpt lat="45.9626490" lon="10.1892300">
	<ele>1537.60</ele>
	<time>2025-08-16T10:12:17.000Z</time>
</trkpt>
<trkpt lat="45.9626450" lon="10.1892420">
	<ele>1537.60</ele>
	<time>2025-08-16T10:12:18.000Z</time>
</trkpt>
<trkpt lat="45.9626390" lon="10.1892530">
	<ele>1537.40</ele>
	<time>2025-08-16T10:12:19.000Z</time>
</trkpt>
<trkpt lat="45.9626360" lon="10.1892610">
	<ele>1537.40</ele>
	<time>2025-08-16T10:12:20.000Z</time>
</trkpt>
<trkpt lat="45.9626370" lon="10.1892630">
	<ele>1537.40</ele>
	<time>2025-08-16T10:12:21.000Z</time>
</trkpt>
<trkpt lat="45.9626340" lon="10.1892610">
	<ele>1537.40</ele>
	<time>2025-08-16T10:12:22.000Z</time>
</trkpt>
<trkpt lat="45.9626350" lon="10.1892570">
	<ele>1537.20</ele>
	<time>2025-08-16T10:12:23.000Z</time>
</trkpt>
<trkpt lat="45.9626400" lon="10.1892500">
	<ele>1537.20</ele>
	<time>2025-08-16T10:12:24.000Z</time>
</trkpt>
<trkpt lat="45.9626410" lon="10.1892470">
	<ele>1537.20</ele>
	<time>2025-08-16T10:12:25.000Z</time>
</trkpt>
<trkpt lat="45.9626390" lon="10.1892430">
	<ele>1537.20</ele>
	<time>2025-08-16T10:12:26.000Z</time>
</trkpt>
<trkpt lat="45.9626370" lon="10.1892420">
	<ele>1537.20</ele>
	<time>2025-08-16T10:12:27.000Z</time>
</trkpt>
<trkpt lat="45.9626370" lon="10.1892420">
	<ele>1537.20</ele>
	<time>2025-08-16T10:12:28.000Z</time>
</trkpt>
<trkpt lat="45.9626380" lon="10.1892420">
	<ele>1537.20</ele>
	<time>2025-08-16T10:12:29.000Z</time>
</trkpt>
<trkpt lat="45.9626380" lon="10.1892400">
	<ele>1537.40</ele>
	<time>2025-08-16T10:12:30.000Z</time>
</trkpt>
<trkpt lat="45.9626380" lon="10.1892390">
	<ele>1537.40</ele>
	<time>2025-08-16T10:12:31.000Z</time>
</trkpt>
<trkpt lat="45.9626430" lon="10.1892340">
	<ele>1537.40</ele>
	<time>2025-08-16T10:12:32.000Z</time>
</trkpt>
<trkpt lat="45.9626440" lon="10.1892310">
	<ele>1537.40</ele>
	<time>2025-08-16T10:12:33.000Z</time>
</trkpt>
<trkpt lat="45.9626440" lon="10.1892310">
	<ele>1537.40</ele>
	<time>2025-08-16T10:12:34.000Z</time>
</trkpt>
<trkpt lat="45.9626440" lon="10.1892310">
	<ele>1537.40</ele>
	<time>2025-08-16T10:12:35.000Z</time>
</trkpt>
<trkpt lat="45.9626440" lon="10.1892310">
	<ele>1537.40</ele>
	<time>2025-08-16T10:12:36.000Z</time>
</trkpt>
<trkpt lat="45.9626440" lon="10.1892310">
	<ele>1537.40</ele>
	<time>2025-08-16T10:12:37.000Z</time>
</trkpt>
<trkpt lat="45.9626440" lon="10.1892310">
	<ele>1537.40</ele>
	<time>2025-08-16T10:12:38.000Z</time>
</trkpt>
<trkpt lat="45.9626440" lon="10.1892310">
	<ele>1537.20</ele>
	<time>2025-08-16T10:12:39.000Z</time>
</trkpt>
<trkpt lat="45.9626440" lon="10.1892310">
	<ele>1537.20</ele>
	<time>2025-08-16T10:12:40.000Z</time>
</trkpt>
<trkpt lat="45.9626430" lon="10.1892320">
	<ele>1537.00</ele>
	<time>2025-08-16T10:12:41.000Z</time>
</trkpt>
<trkpt lat="45.9626430" lon="10.1892320">
	<ele>1536.80</ele>
	<time>2025-08-16T10:12:42.000Z</time>
</trkpt>
<trkpt lat="45.9626420" lon="10.1892330">
	<ele>1536.80</ele>
	<time>2025-08-16T10:12:43.000Z</time>
</trkpt>
<trkpt lat="45.9626420" lon="10.1892340">
	<ele>1536.80</ele>
	<time>2025-08-16T10:12:44.000Z</time>
</trkpt>
<trkpt lat="45.9626410" lon="10.1892350">
	<ele>1536.80</ele>
	<time>2025-08-16T10:12:45.000Z</time>
</trkpt>
<trkpt lat="45.9626380" lon="10.1892480">
	<ele>1536.60</ele>
	<time>2025-08-16T10:12:46.000Z</time>
</trkpt>
<trkpt lat="45.9626420" lon="10.1892820">
	<ele>1536.60</ele>
	<time>2025-08-16T10:12:47.000Z</time>
</trkpt>
<trkpt lat="45.9626470" lon="10.1893170">
	<ele>1536.40</ele>
	<time>2025-08-16T10:12:48.000Z</time>
</trkpt>
<trkpt lat="45.9626480" lon="10.1893350">
	<ele>1536.40</ele>
	<time>2025-08-16T10:12:49.000Z</time>
</trkpt>
<trkpt lat="45.9626460" lon="10.1893490">
	<ele>1536.20</ele>
	<time>2025-08-16T10:12:50.000Z</time>
</trkpt>
<trkpt lat="45.9626430" lon="10.1893620">
	<ele>1536.20</ele>
	<time>2025-08-16T10:12:51.000Z</time>
</trkpt>
<trkpt lat="45.9626400" lon="10.1893760">
	<ele>1536.20</ele>
	<time>2025-08-16T10:12:52.000Z</time>
</trkpt>
<trkpt lat="45.9626370" lon="10.1893890">
	<ele>1536.00</ele>
	<time>2025-08-16T10:12:53.000Z</time>
</trkpt>
<trkpt lat="45.9626340" lon="10.1894010">
	<ele>1535.80</ele>
	<time>2025-08-16T10:12:54.000Z</time>
</trkpt>
<trkpt lat="45.9626310" lon="10.1894130">
	<ele>1535.80</ele>
	<time>2025-08-16T10:12:55.000Z</time>
</trkpt>
<trkpt lat="45.9626310" lon="10.1894140">
	<ele>1535.80</ele>
	<time>2025-08-16T10:12:56.000Z</time>
</trkpt>
<trkpt lat="45.9626310" lon="10.1894150">
	<ele>1535.80</ele>
	<time>2025-08-16T10:12:57.000Z</time>
</trkpt>
<trkpt lat="45.9626310" lon="10.1894160">
	<ele>1536.00</ele>
	<time>2025-08-16T10:12:58.000Z</time>
</trkpt>
<trkpt lat="45.9626360" lon="10.1894080">
	<ele>1536.00</ele>
	<time>2025-08-16T10:12:59.000Z</time>
</trkpt>
<trkpt lat="45.9626370" lon="10.1894070">
	<ele>1536.20</ele>
	<time>2025-08-16T10:13:00.000Z</time>
</trkpt>
<trkpt lat="45.9626370" lon="10.1894050">
	<ele>1536.20</ele>
	<time>2025-08-16T10:13:01.000Z</time>
</trkpt>
<trkpt lat="45.9626370" lon="10.1894050">
	<ele>1536.00</ele>
	<time>2025-08-16T10:13:02.000Z</time>
</trkpt>
<trkpt lat="45.9626370" lon="10.1894090">
	<ele>1536.00</ele>
	<time>2025-08-16T10:13:03.000Z</time>
</trkpt>
<trkpt lat="45.9626320" lon="10.1894180">
	<ele>1535.80</ele>
	<time>2025-08-16T10:13:04.000Z</time>
</trkpt>
<trkpt lat="45.9626310" lon="10.1894250">
	<ele>1535.60</ele>
	<time>2025-08-16T10:13:05.000Z</time>
</trkpt>
<trkpt lat="45.9626380" lon="10.1894330">
	<ele>1535.60</ele>
	<time>2025-08-16T10:13:06.000Z</time>
</trkpt>
<trkpt lat="45.9626450" lon="10.1894430">
	<ele>1535.60</ele>
	<time>2025-08-16T10:13:07.000Z</time>
</trkpt>
<trkpt lat="45.9626510" lon="10.1894530">
	<ele>1535.60</ele>
	<time>2025-08-16T10:13:08.000Z</time>
</trkpt>
<trkpt lat="45.9626570" lon="10.1894640">
	<ele>1535.60</ele>
	<time>2025-08-16T10:13:09.000Z</time>
</trkpt>
<trkpt lat="45.9626640" lon="10.1894740">
	<ele>1535.40</ele>
	<time>2025-08-16T10:13:10.000Z</time>
</trkpt>
<trkpt lat="45.9626740" lon="10.1894820">
	<ele>1535.40</ele>
	<time>2025-08-16T10:13:11.000Z</time>
</trkpt>
<trkpt lat="45.9626890" lon="10.1894940">
	<ele>1535.20</ele>
	<time>2025-08-16T10:13:12.000Z</time>
</trkpt>
<trkpt lat="45.9627020" lon="10.1895030">
	<ele>1535.00</ele>
	<time>2025-08-16T10:13:13.000Z</time>
</trkpt>
<trkpt lat="45.9627140" lon="10.1895100">
	<ele>1534.80</ele>
	<time>2025-08-16T10:13:14.000Z</time>
</trkpt>
<trkpt lat="45.9627270" lon="10.1895160">
	<ele>1534.60</ele>
	<time>2025-08-16T10:13:15.000Z</time>
</trkpt>
<trkpt lat="45.9627400" lon="10.1895250">
	<ele>1534.40</ele>
	<time>2025-08-16T10:13:16.000Z</time>
</trkpt>
<trkpt lat="45.9627530" lon="10.1895400">
	<ele>1534.20</ele>
	<time>2025-08-16T10:13:17.000Z</time>
</trkpt>
<trkpt lat="45.9627620" lon="10.1895520">
	<ele>1534.20</ele>
	<time>2025-08-16T10:13:18.000Z</time>
</trkpt>
<trkpt lat="45.9627760" lon="10.1895670">
	<ele>1533.80</ele>
	<time>2025-08-16T10:13:19.000Z</time>
</trkpt>
<trkpt lat="45.9627860" lon="10.1895800">
	<ele>1533.60</ele>
	<time>2025-08-16T10:13:20.000Z</time>
</trkpt>
<trkpt lat="45.9627960" lon="10.1895910">
	<ele>1533.40</ele>
	<time>2025-08-16T10:13:21.000Z</time>
</trkpt>
<trkpt lat="45.9628020" lon="10.1896060">
	<ele>1533.40</ele>
	<time>2025-08-16T10:13:22.000Z</time>
</trkpt>
<trkpt lat="45.9628120" lon="10.1896260">
	<ele>1533.00</ele>
	<time>2025-08-16T10:13:23.000Z</time>
</trkpt>
<trkpt lat="45.9628200" lon="10.1896370">
	<ele>1532.80</ele>
	<time>2025-08-16T10:13:24.000Z</time>
</trkpt>
<trkpt lat="45.9628300" lon="10.1896550">
	<ele>1532.60</ele>
	<time>2025-08-16T10:13:25.000Z</time>
</trkpt>
<trkpt lat="45.9628340" lon="10.1896670">
	<ele>1532.60</ele>
	<time>2025-08-16T10:13:26.000Z</time>
</trkpt>
<trkpt lat="45.9628400" lon="10.1896820">
	<ele>1532.40</ele>
	<time>2025-08-16T10:13:27.000Z</time>
</trkpt>
<trkpt lat="45.9628490" lon="10.1896940">
	<ele>1532.20</ele>
	<time>2025-08-16T10:13:28.000Z</time>
</trkpt>
<trkpt lat="45.9628570" lon="10.1897100">
	<ele>1532.20</ele>
	<time>2025-08-16T10:13:29.000Z</time>
</trkpt>
<trkpt lat="45.9628630" lon="10.1897290">
	<ele>1532.00</ele>
	<time>2025-08-16T10:13:30.000Z</time>
</trkpt>
<trkpt lat="45.9628650" lon="10.1897450">
	<ele>1531.80</ele>
	<time>2025-08-16T10:13:31.000Z</time>
</trkpt>
<trkpt lat="45.9628700" lon="10.1897590">
	<ele>1531.60</ele>
	<time>2025-08-16T10:13:32.000Z</time>
</trkpt>
<trkpt lat="45.9628810" lon="10.1897740">
	<ele>1531.40</ele>
	<time>2025-08-16T10:13:33.000Z</time>
</trkpt>
<trkpt lat="45.9628880" lon="10.1897820">
	<ele>1531.40</ele>
	<time>2025-08-16T10:13:34.000Z</time>
</trkpt>
<trkpt lat="45.9628980" lon="10.1897930">
	<ele>1531.20</ele>
	<time>2025-08-16T10:13:35.000Z</time>
</trkpt>
<trkpt lat="45.9629110" lon="10.1898050">
	<ele>1531.00</ele>
	<time>2025-08-16T10:13:36.000Z</time>
</trkpt>
<trkpt lat="45.9629190" lon="10.1898230">
	<ele>1531.00</ele>
	<time>2025-08-16T10:13:37.000Z</time>
</trkpt>
<trkpt lat="45.9629320" lon="10.1898280">
	<ele>1530.80</ele>
	<time>2025-08-16T10:13:38.000Z</time>
</trkpt>
<trkpt lat="45.9629470" lon="10.1898340">
	<ele>1530.80</ele>
	<time>2025-08-16T10:13:39.000Z</time>
</trkpt>
<trkpt lat="45.9629560" lon="10.1898430">
	<ele>1530.40</ele>
	<time>2025-08-16T10:13:40.000Z</time>
</trkpt>
<trkpt lat="45.9629650" lon="10.1898530">
	<ele>1530.20</ele>
	<time>2025-08-16T10:13:41.000Z</time>
</trkpt>
<trkpt lat="45.9629730" lon="10.1898580">
	<ele>1529.80</ele>
	<time>2025-08-16T10:13:42.000Z</time>
</trkpt>
<trkpt lat="45.9629800" lon="10.1898680">
	<ele>1529.40</ele>
	<time>2025-08-16T10:13:43.000Z</time>
</trkpt>
<trkpt lat="45.9629880" lon="10.1898790">
	<ele>1529.20</ele>
	<time>2025-08-16T10:13:44.000Z</time>
</trkpt>
<trkpt lat="45.9629940" lon="10.1898910">
	<ele>1529.20</ele>
	<time>2025-08-16T10:13:45.000Z</time>
</trkpt>
<trkpt lat="45.9630000" lon="10.1899020">
	<ele>1529.00</ele>
	<time>2025-08-16T10:13:46.000Z</time>
</trkpt>
<trkpt lat="45.9630110" lon="10.1899090">
	<ele>1528.60</ele>
	<time>2025-08-16T10:13:47.000Z</time>
</trkpt>
<trkpt lat="45.9630230" lon="10.1899140">
	<ele>1528.40</ele>
	<time>2025-08-16T10:13:48.000Z</time>
</trkpt>
<trkpt lat="45.9630330" lon="10.1899230">
	<ele>1528.00</ele>
	<time>2025-08-16T10:13:49.000Z</time>
</trkpt>
<trkpt lat="45.9630440" lon="10.1899270">
	<ele>1527.80</ele>
	<time>2025-08-16T10:13:50.000Z</time>
</trkpt>
<trkpt lat="45.9630570" lon="10.1899300">
	<ele>1527.60</ele>
	<time>2025-08-16T10:13:51.000Z</time>
</trkpt>
<trkpt lat="45.9630690" lon="10.1899340">
	<ele>1527.20</ele>
	<time>2025-08-16T10:13:52.000Z</time>
</trkpt>
<trkpt lat="45.9630810" lon="10.1899400">
	<ele>1527.00</ele>
	<time>2025-08-16T10:13:53.000Z</time>
</trkpt>
<trkpt lat="45.9630920" lon="10.1899450">
	<ele>1526.80</ele>
	<time>2025-08-16T10:13:54.000Z</time>
</trkpt>
<trkpt lat="45.9631010" lon="10.1899490">
	<ele>1526.60</ele>
	<time>2025-08-16T10:13:55.000Z</time>
</trkpt>
<trkpt lat="45.9631100" lon="10.1899570">
	<ele>1526.20</ele>
	<time>2025-08-16T10:13:56.000Z</time>
</trkpt>
<trkpt lat="45.9631210" lon="10.1899670">
	<ele>1526.00</ele>
	<time>2025-08-16T10:13:57.000Z</time>
</trkpt>
<trkpt lat="45.9631320" lon="10.1899790">
	<ele>1525.60</ele>
	<time>2025-08-16T10:13:58.000Z</time>
</trkpt>
<trkpt lat="45.9631440" lon="10.1899840">
	<ele>1525.20</ele>
	<time>2025-08-16T10:13:59.000Z</time>
</trkpt>
<trkpt lat="45.9631590" lon="10.1899860">
	<ele>1525.00</ele>
	<time>2025-08-16T10:14:00.000Z</time>
</trkpt>
<trkpt lat="45.9631740" lon="10.1899880">
	<ele>1524.80</ele>
	<time>2025-08-16T10:14:01.000Z</time>
</trkpt>
<trkpt lat="45.9631880" lon="10.1899910">
	<ele>1524.60</ele>
	<time>2025-08-16T10:14:02.000Z</time>
</trkpt>
<trkpt lat="45.9632000" lon="10.1899930">
	<ele>1524.40</ele>
	<time>2025-08-16T10:14:03.000Z</time>
</trkpt>
<trkpt lat="45.9632110" lon="10.1900010">
	<ele>1524.20</ele>
	<time>2025-08-16T10:14:04.000Z</time>
</trkpt>
<trkpt lat="45.9632230" lon="10.1900040">
	<ele>1524.00</ele>
	<time>2025-08-16T10:14:05.000Z</time>
</trkpt>
<trkpt lat="45.9632350" lon="10.1900030">
	<ele>1523.80</ele>
	<time>2025-08-16T10:14:06.000Z</time>
</trkpt>
<trkpt lat="45.9632460" lon="10.1900080">
	<ele>1523.60</ele>
	<time>2025-08-16T10:14:07.000Z</time>
</trkpt>
<trkpt lat="45.9632590" lon="10.1900140">
	<ele>1523.40</ele>
	<time>2025-08-16T10:14:08.000Z</time>
</trkpt>
<trkpt lat="45.9632730" lon="10.1900250">
	<ele>1523.20</ele>
	<time>2025-08-16T10:14:09.000Z</time>
</trkpt>
<trkpt lat="45.9632870" lon="10.1900370">
	<ele>1523.00</ele>
	<time>2025-08-16T10:14:10.000Z</time>
</trkpt>
<trkpt lat="45.9633000" lon="10.1900500">
	<ele>1522.60</ele>
	<time>2025-08-16T10:14:11.000Z</time>
</trkpt>
<trkpt lat="45.9633110" lon="10.1900600">
	<ele>1522.40</ele>
	<time>2025-08-16T10:14:12.000Z</time>
</trkpt>
<trkpt lat="45.9633230" lon="10.1900720">
	<ele>1522.00</ele>
	<time>2025-08-16T10:14:13.000Z</time>
</trkpt>
<trkpt lat="45.9633340" lon="10.1900840">
	<ele>1521.80</ele>
	<time>2025-08-16T10:14:14.000Z</time>
</trkpt>
<trkpt lat="45.9633450" lon="10.1900980">
	<ele>1521.60</ele>
	<time>2025-08-16T10:14:15.000Z</time>
</trkpt>
<trkpt lat="45.9633580" lon="10.1901070">
	<ele>1521.40</ele>
	<time>2025-08-16T10:14:16.000Z</time>
</trkpt>
<trkpt lat="45.9633690" lon="10.1901240">
	<ele>1521.20</ele>
	<time>2025-08-16T10:14:17.000Z</time>
</trkpt>
<trkpt lat="45.9633830" lon="10.1901330">
	<ele>1521.00</ele>
	<time>2025-08-16T10:14:18.000Z</time>
</trkpt>
<trkpt lat="45.9633960" lon="10.1901470">
	<ele>1520.80</ele>
	<time>2025-08-16T10:14:19.000Z</time>
</trkpt>
<trkpt lat="45.9634080" lon="10.1901630">
	<ele>1520.60</ele>
	<time>2025-08-16T10:14:20.000Z</time>
</trkpt>
<trkpt lat="45.9634180" lon="10.1901800">
	<ele>1520.60</ele>
	<time>2025-08-16T10:14:21.000Z</time>
</trkpt>
<trkpt lat="45.9634330" lon="10.1901930">
	<ele>1520.40</ele>
	<time>2025-08-16T10:14:22.000Z</time>
</trkpt>
<trkpt lat="45.9634420" lon="10.1902170">
	<ele>1520.40</ele>
	<time>2025-08-16T10:14:23.000Z</time>
</trkpt>
<trkpt lat="45.9634550" lon="10.1902280">
	<ele>1520.00</ele>
	<time>2025-08-16T10:14:24.000Z</time>
</trkpt>
<trkpt lat="45.9634630" lon="10.1902510">
	<ele>1519.80</ele>
	<time>2025-08-16T10:14:25.000Z</time>
</trkpt>
<trkpt lat="45.9634690" lon="10.1902730">
	<ele>1519.60</ele>
	<time>2025-08-16T10:14:26.000Z</time>
</trkpt>
<trkpt lat="45.9634780" lon="10.1903000">
	<ele>1519.40</ele>
	<time>2025-08-16T10:14:27.000Z</time>
</trkpt>
<trkpt lat="45.9634880" lon="10.1903200">
	<ele>1519.20</ele>
	<time>2025-08-16T10:14:28.000Z</time>
</trkpt>
<trkpt lat="45.9634950" lon="10.1903350">
	<ele>1519.00</ele>
	<time>2025-08-16T10:14:29.000Z</time>
</trkpt>
<trkpt lat="45.9635000" lon="10.1903480">
	<ele>1518.80</ele>
	<time>2025-08-16T10:14:30.000Z</time>
</trkpt>
<trkpt lat="45.9635070" lon="10.1903660">
	<ele>1518.60</ele>
	<time>2025-08-16T10:14:31.000Z</time>
</trkpt>
<trkpt lat="45.9635140" lon="10.1903840">
	<ele>1518.40</ele>
	<time>2025-08-16T10:14:32.000Z</time>
</trkpt>
<trkpt lat="45.9635250" lon="10.1904010">
	<ele>1518.20</ele>
	<time>2025-08-16T10:14:33.000Z</time>
</trkpt>
<trkpt lat="45.9635310" lon="10.1904080">
	<ele>1517.80</ele>
	<time>2025-08-16T10:14:34.000Z</time>
</trkpt>
<trkpt lat="45.9635390" lon="10.1904190">
	<ele>1517.80</ele>
	<time>2025-08-16T10:14:35.000Z</time>
</trkpt>
<trkpt lat="45.9635430" lon="10.1904320">
	<ele>1517.60</ele>
	<time>2025-08-16T10:14:36.000Z</time>
</trkpt>
<trkpt lat="45.9635500" lon="10.1904590">
	<ele>1517.60</ele>
	<time>2025-08-16T10:14:37.000Z</time>
</trkpt>
<trkpt lat="45.9635590" lon="10.1904770">
	<ele>1517.40</ele>
	<time>2025-08-16T10:14:38.000Z</time>
</trkpt>
<trkpt lat="45.9635600" lon="10.1904880">
	<ele>1517.40</ele>
	<time>2025-08-16T10:14:39.000Z</time>
</trkpt>
<trkpt lat="45.9635670" lon="10.1905020">
	<ele>1517.20</ele>
	<time>2025-08-16T10:14:40.000Z</time>
</trkpt>
<trkpt lat="45.9635720" lon="10.1905170">
	<ele>1517.00</ele>
	<time>2025-08-16T10:14:41.000Z</time>
</trkpt>
<trkpt lat="45.9635760" lon="10.1905340">
	<ele>1517.00</ele>
	<time>2025-08-16T10:14:42.000Z</time>
</trkpt>
<trkpt lat="45.9635800" lon="10.1905510">
	<ele>1516.80</ele>
	<time>2025-08-16T10:14:43.000Z</time>
</trkpt>
<trkpt lat="45.9635830" lon="10.1905700">
	<ele>1516.80</ele>
	<time>2025-08-16T10:14:44.000Z</time>
</trkpt>
<trkpt lat="45.9635840" lon="10.1905870">
	<ele>1516.60</ele>
	<time>2025-08-16T10:14:45.000Z</time>
</trkpt>
<trkpt lat="45.9635850" lon="10.1906050">
	<ele>1516.60</ele>
	<time>2025-08-16T10:14:46.000Z</time>
</trkpt>
<trkpt lat="45.9635850" lon="10.1906210">
	<ele>1516.40</ele>
	<time>2025-08-16T10:14:47.000Z</time>
</trkpt>
<trkpt lat="45.9635900" lon="10.1906390">
	<ele>1516.20</ele>
	<time>2025-08-16T10:14:48.000Z</time>
</trkpt>
<trkpt lat="45.9635940" lon="10.1906570">
	<ele>1516.00</ele>
	<time>2025-08-16T10:14:49.000Z</time>
</trkpt>
<trkpt lat="45.9635990" lon="10.1906730">
	<ele>1515.80</ele>
	<time>2025-08-16T10:14:50.000Z</time>
</trkpt>
<trkpt lat="45.9636010" lon="10.1906890">
	<ele>1515.60</ele>
	<time>2025-08-16T10:14:51.000Z</time>
</trkpt>
<trkpt lat="45.9636040" lon="10.1907030">
	<ele>1515.40</ele>
	<time>2025-08-16T10:14:52.000Z</time>
</trkpt>
<trkpt lat="45.9636090" lon="10.1907180">
	<ele>1515.20</ele>
	<time>2025-08-16T10:14:53.000Z</time>
</trkpt>
<trkpt lat="45.9636130" lon="10.1907340">
	<ele>1515.20</ele>
	<time>2025-08-16T10:14:54.000Z</time>
</trkpt>
<trkpt lat="45.9636200" lon="10.1907510">
	<ele>1515.00</ele>
	<time>2025-08-16T10:14:55.000Z</time>
</trkpt>
<trkpt lat="45.9636270" lon="10.1907690">
	<ele>1515.00</ele>
	<time>2025-08-16T10:14:56.000Z</time>
</trkpt>
<trkpt lat="45.9636290" lon="10.1907860">
	<ele>1515.00</ele>
	<time>2025-08-16T10:14:57.000Z</time>
</trkpt>
<trkpt lat="45.9636300" lon="10.1908050">
	<ele>1515.00</ele>
	<time>2025-08-16T10:14:58.000Z</time>
</trkpt>
<trkpt lat="45.9636310" lon="10.1908260">
	<ele>1515.00</ele>
	<time>2025-08-16T10:14:59.000Z</time>
</trkpt>
<trkpt lat="45.9636350" lon="10.1908470">
	<ele>1514.80</ele>
	<time>2025-08-16T10:15:00.000Z</time>
</trkpt>
<trkpt lat="45.9636400" lon="10.1908680">
	<ele>1514.80</ele>
	<time>2025-08-16T10:15:01.000Z</time>
</trkpt>
<trkpt lat="45.9636430" lon="10.1908910">
	<ele>1514.60</ele>
	<time>2025-08-16T10:15:02.000Z</time>
</trkpt>
<trkpt lat="45.9636460" lon="10.1909080">
	<ele>1514.60</ele>
	<time>2025-08-16T10:15:03.000Z</time>
</trkpt>
<trkpt lat="45.9636480" lon="10.1909250">
	<ele>1514.40</ele>
	<time>2025-08-16T10:15:04.000Z</time>
</trkpt>
<trkpt lat="45.9636490" lon="10.1909450">
	<ele>1514.40</ele>
	<time>2025-08-16T10:15:05.000Z</time>
</trkpt>
<trkpt lat="45.9636550" lon="10.1909660">
	<ele>1514.40</ele>
	<time>2025-08-16T10:15:06.000Z</time>
</trkpt>
<trkpt lat="45.9636600" lon="10.1909870">
	<ele>1514.20</ele>
	<time>2025-08-16T10:15:07.000Z</time>
</trkpt>
<trkpt lat="45.9636650" lon="10.1910030">
	<ele>1514.20</ele>
	<time>2025-08-16T10:15:08.000Z</time>
</trkpt>
<trkpt lat="45.9636680" lon="10.1910190">
	<ele>1514.00</ele>
	<time>2025-08-16T10:15:09.000Z</time>
</trkpt>
<trkpt lat="45.9636720" lon="10.1910350">
	<ele>1513.80</ele>
	<time>2025-08-16T10:15:10.000Z</time>
</trkpt>
<trkpt lat="45.9636790" lon="10.1910480">
	<ele>1513.60</ele>
	<time>2025-08-16T10:15:11.000Z</time>
</trkpt>
<trkpt lat="45.9636860" lon="10.1910620">
	<ele>1513.60</ele>
	<time>2025-08-16T10:15:12.000Z</time>
</trkpt>
<trkpt lat="45.9636930" lon="10.1910760">
	<ele>1513.40</ele>
	<time>2025-08-16T10:15:13.000Z</time>
</trkpt>
<trkpt lat="45.9637010" lon="10.1910880">
	<ele>1513.20</ele>
	<time>2025-08-16T10:15:14.000Z</time>
</trkpt>
<trkpt lat="45.9637100" lon="10.1910970">
	<ele>1513.20</ele>
	<time>2025-08-16T10:15:15.000Z</time>
</trkpt>
<trkpt lat="45.9637210" lon="10.1911100">
	<ele>1513.00</ele>
	<time>2025-08-16T10:15:16.000Z</time>
</trkpt>
<trkpt lat="45.9637290" lon="10.1911240">
	<ele>1513.00</ele>
	<time>2025-08-16T10:15:17.000Z</time>
</trkpt>
<trkpt lat="45.9637380" lon="10.1911350">
	<ele>1512.80</ele>
	<time>2025-08-16T10:15:18.000Z</time>
</trkpt>
<trkpt lat="45.9637450" lon="10.1911470">
	<ele>1512.80</ele>
	<time>2025-08-16T10:15:19.000Z</time>
</trkpt>
<trkpt lat="45.9637540" lon="10.1911570">
	<ele>1512.60</ele>
	<time>2025-08-16T10:15:20.000Z</time>
</trkpt>
<trkpt lat="45.9637620" lon="10.1911700">
	<ele>1512.20</ele>
	<time>2025-08-16T10:15:21.000Z</time>
</trkpt>
<trkpt lat="45.9637700" lon="10.1911860">
	<ele>1512.20</ele>
	<time>2025-08-16T10:15:22.000Z</time>
</trkpt>
<trkpt lat="45.9637770" lon="10.1912040">
	<ele>1511.80</ele>
	<time>2025-08-16T10:15:23.000Z</time>
</trkpt>
<trkpt lat="45.9637830" lon="10.1912220">
	<ele>1511.60</ele>
	<time>2025-08-16T10:15:24.000Z</time>
</trkpt>
<trkpt lat="45.9637900" lon="10.1912390">
	<ele>1511.20</ele>
	<time>2025-08-16T10:15:25.000Z</time>
</trkpt>
<trkpt lat="45.9637980" lon="10.1912580">
	<ele>1511.00</ele>
	<time>2025-08-16T10:15:26.000Z</time>
</trkpt>
<trkpt lat="45.9638080" lon="10.1912760">
	<ele>1510.80</ele>
	<time>2025-08-16T10:15:27.000Z</time>
</trkpt>
<trkpt lat="45.9638140" lon="10.1912930">
	<ele>1510.80</ele>
	<time>2025-08-16T10:15:28.000Z</time>
</trkpt>
<trkpt lat="45.9638180" lon="10.1913090">
	<ele>1510.60</ele>
	<time>2025-08-16T10:15:29.000Z</time>
</trkpt>
<trkpt lat="45.9638230" lon="10.1913270">
	<ele>1510.60</ele>
	<time>2025-08-16T10:15:30.000Z</time>
</trkpt>
<trkpt lat="45.9638270" lon="10.1913450">
	<ele>1510.60</ele>
	<time>2025-08-16T10:15:31.000Z</time>
</trkpt>
<trkpt lat="45.9638310" lon="10.1913610">
	<ele>1510.40</ele>
	<time>2025-08-16T10:15:32.000Z</time>
</trkpt>
<trkpt lat="45.9638370" lon="10.1913730">
	<ele>1510.40</ele>
	<time>2025-08-16T10:15:33.000Z</time>
</trkpt>
<trkpt lat="45.9638430" lon="10.1913860">
	<ele>1510.40</ele>
	<time>2025-08-16T10:15:34.000Z</time>
</trkpt>
<trkpt lat="45.9638480" lon="10.1914040">
	<ele>1510.40</ele>
	<time>2025-08-16T10:15:35.000Z</time>
</trkpt>
<trkpt lat="45.9638530" lon="10.1914260">
	<ele>1510.40</ele>
	<time>2025-08-16T10:15:36.000Z</time>
</trkpt>
<trkpt lat="45.9638610" lon="10.1914450">
	<ele>1510.20</ele>
	<time>2025-08-16T10:15:37.000Z</time>
</trkpt>
<trkpt lat="45.9638680" lon="10.1914660">
	<ele>1510.20</ele>
	<time>2025-08-16T10:15:38.000Z</time>
</trkpt>
<trkpt lat="45.9638790" lon="10.1914830">
	<ele>1510.00</ele>
	<time>2025-08-16T10:15:39.000Z</time>
</trkpt>
<trkpt lat="45.9638910" lon="10.1915010">
	<ele>1510.00</ele>
	<time>2025-08-16T10:15:40.000Z</time>
</trkpt>
<trkpt lat="45.9639030" lon="10.1915190">
	<ele>1509.80</ele>
	<time>2025-08-16T10:15:41.000Z</time>
</trkpt>
<trkpt lat="45.9639120" lon="10.1915350">
	<ele>1509.80</ele>
	<time>2025-08-16T10:15:42.000Z</time>
</trkpt>
<trkpt lat="45.9639230" lon="10.1915500">
	<ele>1509.60</ele>
	<time>2025-08-16T10:15:43.000Z</time>
</trkpt>
<trkpt lat="45.9639330" lon="10.1915660">
	<ele>1509.60</ele>
	<time>2025-08-16T10:15:44.000Z</time>
</trkpt>
<trkpt lat="45.9639450" lon="10.1915760">
	<ele>1509.40</ele>
	<time>2025-08-16T10:15:45.000Z</time>
</trkpt>
<trkpt lat="45.9639530" lon="10.1915900">
	<ele>1509.40</ele>
	<time>2025-08-16T10:15:46.000Z</time>
</trkpt>
<trkpt lat="45.9639620" lon="10.1916070">
	<ele>1509.40</ele>
	<time>2025-08-16T10:15:47.000Z</time>
</trkpt>
<trkpt lat="45.9639740" lon="10.1916220">
	<ele>1509.20</ele>
	<time>2025-08-16T10:15:48.000Z</time>
</trkpt>
<trkpt lat="45.9639850" lon="10.1916360">
	<ele>1509.20</ele>
	<time>2025-08-16T10:15:49.000Z</time>
</trkpt>
<trkpt lat="45.9639950" lon="10.1916480">
	<ele>1509.20</ele>
	<time>2025-08-16T10:15:50.000Z</time>
</trkpt>
<trkpt lat="45.9640060" lon="10.1916600">
	<ele>1509.20</ele>
	<time>2025-08-16T10:15:51.000Z</time>
</trkpt>
<trkpt lat="45.9640170" lon="10.1916710">
	<ele>1509.00</ele>
	<time>2025-08-16T10:15:52.000Z</time>
</trkpt>
<trkpt lat="45.9640280" lon="10.1916820">
	<ele>1509.00</ele>
	<time>2025-08-16T10:15:53.000Z</time>
</trkpt>
<trkpt lat="45.9640410" lon="10.1916930">
	<ele>1509.00</ele>
	<time>2025-08-16T10:15:54.000Z</time>
</trkpt>
<trkpt lat="45.9640510" lon="10.1917040">
	<ele>1509.00</ele>
	<time>2025-08-16T10:15:55.000Z</time>
</trkpt>
<trkpt lat="45.9640590" lon="10.1917170">
	<ele>1509.00</ele>
	<time>2025-08-16T10:15:56.000Z</time>
</trkpt>
<trkpt lat="45.9640630" lon="10.1917320">
	<ele>1509.20</ele>
	<time>2025-08-16T10:15:57.000Z</time>
</trkpt>
<trkpt lat="45.9640640" lon="10.1917520">
	<ele>1509.20</ele>
	<time>2025-08-16T10:15:58.000Z</time>
</trkpt>
<trkpt lat="45.9640720" lon="10.1917710">
	<ele>1509.20</ele>
	<time>2025-08-16T10:15:59.000Z</time>
</trkpt>
<trkpt lat="45.9640840" lon="10.1917850">
	<ele>1509.20</ele>
	<time>2025-08-16T10:16:00.000Z</time>
</trkpt>
<trkpt lat="45.9640930" lon="10.1918030">
	<ele>1509.20</ele>
	<time>2025-08-16T10:16:01.000Z</time>
</trkpt>
<trkpt lat="45.9641090" lon="10.1918180">
	<ele>1509.20</ele>
	<time>2025-08-16T10:16:02.000Z</time>
</trkpt>
<trkpt lat="45.9641160" lon="10.1918270">
	<ele>1509.20</ele>
	<time>2025-08-16T10:16:03.000Z</time>
</trkpt>
<trkpt lat="45.9641260" lon="10.1918330">
	<ele>1509.20</ele>
	<time>2025-08-16T10:16:04.000Z</time>
</trkpt>
<trkpt lat="45.9641410" lon="10.1918520">
	<ele>1509.20</ele>
	<time>2025-08-16T10:16:05.000Z</time>
</trkpt>
<trkpt lat="45.9641530" lon="10.1918660">
	<ele>1509.20</ele>
	<time>2025-08-16T10:16:06.000Z</time>
</trkpt>
<trkpt lat="45.9641670" lon="10.1918840">
	<ele>1509.20</ele>
	<time>2025-08-16T10:16:07.000Z</time>
</trkpt>
<trkpt lat="45.9641770" lon="10.1918990">
	<ele>1509.20</ele>
	<time>2025-08-16T10:16:08.000Z</time>
</trkpt>
<trkpt lat="45.9641830" lon="10.1919130">
	<ele>1509.20</ele>
	<time>2025-08-16T10:16:09.000Z</time>
</trkpt>
<trkpt lat="45.9641900" lon="10.1919250">
	<ele>1509.20</ele>
	<time>2025-08-16T10:16:10.000Z</time>
</trkpt>
<trkpt lat="45.9642060" lon="10.1919390">
	<ele>1509.20</ele>
	<time>2025-08-16T10:16:11.000Z</time>
</trkpt>
<trkpt lat="45.9642200" lon="10.1919450">
	<ele>1509.00</ele>
	<time>2025-08-16T10:16:12.000Z</time>
</trkpt>
<trkpt lat="45.9642360" lon="10.1919530">
	<ele>1509.00</ele>
	<time>2025-08-16T10:16:13.000Z</time>
</trkpt>
<trkpt lat="45.9642540" lon="10.1919680">
	<ele>1509.00</ele>
	<time>2025-08-16T10:16:14.000Z</time>
</trkpt>
<trkpt lat="45.9642680" lon="10.1919780">
	<ele>1509.00</ele>
	<time>2025-08-16T10:16:15.000Z</time>
</trkpt>
<trkpt lat="45.9642840" lon="10.1919870">
	<ele>1508.80</ele>
	<time>2025-08-16T10:16:16.000Z</time>
</trkpt>
<trkpt lat="45.9642980" lon="10.1919930">
	<ele>1508.80</ele>
	<time>2025-08-16T10:16:17.000Z</time>
</trkpt>
<trkpt lat="45.9643110" lon="10.1920030">
	<ele>1508.60</ele>
	<time>2025-08-16T10:16:18.000Z</time>
</trkpt>
<trkpt lat="45.9643210" lon="10.1920140">
	<ele>1508.60</ele>
	<time>2025-08-16T10:16:19.000Z</time>
</trkpt>
<trkpt lat="45.9643310" lon="10.1920240">
	<ele>1508.40</ele>
	<time>2025-08-16T10:16:20.000Z</time>
</trkpt>
<trkpt lat="45.9643440" lon="10.1920230">
	<ele>1508.20</ele>
	<time>2025-08-16T10:16:21.000Z</time>
</trkpt>
<trkpt lat="45.9643550" lon="10.1920320">
	<ele>1508.20</ele>
	<time>2025-08-16T10:16:22.000Z</time>
</trkpt>
<trkpt lat="45.9643650" lon="10.1920430">
	<ele>1508.00</ele>
	<time>2025-08-16T10:16:23.000Z</time>
</trkpt>
<trkpt lat="45.9643720" lon="10.1920510">
	<ele>1507.80</ele>
	<time>2025-08-16T10:16:24.000Z</time>
</trkpt>
<trkpt lat="45.9643780" lon="10.1920640">
	<ele>1507.60</ele>
	<time>2025-08-16T10:16:25.000Z</time>
</trkpt>
<trkpt lat="45.9643890" lon="10.1920750">
	<ele>1507.40</ele>
	<time>2025-08-16T10:16:26.000Z</time>
</trkpt>
<trkpt lat="45.9643990" lon="10.1920850">
	<ele>1507.20</ele>
	<time>2025-08-16T10:16:27.000Z</time>
</trkpt>
<trkpt lat="45.9644090" lon="10.1920970">
	<ele>1507.20</ele>
	<time>2025-08-16T10:16:28.000Z</time>
</trkpt>
<trkpt lat="45.9644230" lon="10.1921070">
	<ele>1507.00</ele>
	<time>2025-08-16T10:16:29.000Z</time>
</trkpt>
<trkpt lat="45.9644340" lon="10.1921120">
	<ele>1506.80</ele>
	<time>2025-08-16T10:16:30.000Z</time>
</trkpt>
<trkpt lat="45.9644460" lon="10.1921170">
	<ele>1506.80</ele>
	<time>2025-08-16T10:16:31.000Z</time>
</trkpt>
<trkpt lat="45.9644590" lon="10.1921230">
	<ele>1506.60</ele>
	<time>2025-08-16T10:16:32.000Z</time>
</trkpt>
<trkpt lat="45.9644680" lon="10.1921330">
	<ele>1506.60</ele>
	<time>2025-08-16T10:16:33.000Z</time>
</trkpt>
<trkpt lat="45.9644770" lon="10.1921450">
	<ele>1506.40</ele>
	<time>2025-08-16T10:16:34.000Z</time>
</trkpt>
<trkpt lat="45.9644870" lon="10.1921580">
	<ele>1506.20</ele>
	<time>2025-08-16T10:16:35.000Z</time>
</trkpt>
<trkpt lat="45.9644990" lon="10.1921670">
	<ele>1506.00</ele>
	<time>2025-08-16T10:16:36.000Z</time>
</trkpt>
<trkpt lat="45.9645130" lon="10.1921760">
	<ele>1506.00</ele>
	<time>2025-08-16T10:16:37.000Z</time>
</trkpt>
<trkpt lat="45.9645230" lon="10.1921830">
	<ele>1505.80</ele>
	<time>2025-08-16T10:16:38.000Z</time>
</trkpt>
<trkpt lat="45.9645340" lon="10.1921940">
	<ele>1505.60</ele>
	<time>2025-08-16T10:16:39.000Z</time>
</trkpt>
<trkpt lat="45.9645470" lon="10.1922060">
	<ele>1505.20</ele>
	<time>2025-08-16T10:16:40.000Z</time>
</trkpt>
<trkpt lat="45.9645600" lon="10.1922190">
	<ele>1505.00</ele>
	<time>2025-08-16T10:16:41.000Z</time>
</trkpt>
<trkpt lat="45.9645700" lon="10.1922340">
	<ele>1505.00</ele>
	<time>2025-08-16T10:16:42.000Z</time>
</trkpt>
<trkpt lat="45.9645810" lon="10.1922480">
	<ele>1504.80</ele>
	<time>2025-08-16T10:16:43.000Z</time>
</trkpt>
<trkpt lat="45.9645890" lon="10.1922650">
	<ele>1504.60</ele>
	<time>2025-08-16T10:16:44.000Z</time>
</trkpt>
<trkpt lat="45.9645980" lon="10.1922820">
	<ele>1504.40</ele>
	<time>2025-08-16T10:16:45.000Z</time>
</trkpt>
<trkpt lat="45.9646090" lon="10.1922990">
	<ele>1504.40</ele>
	<time>2025-08-16T10:16:46.000Z</time>
</trkpt>
<trkpt lat="45.9646170" lon="10.1923160">
	<ele>1504.40</ele>
	<time>2025-08-16T10:16:47.000Z</time>
</trkpt>
<trkpt lat="45.9646260" lon="10.1923340">
	<ele>1504.20</ele>
	<time>2025-08-16T10:16:48.000Z</time>
</trkpt>
<trkpt lat="45.9646350" lon="10.1923530">
	<ele>1504.20</ele>
	<time>2025-08-16T10:16:49.000Z</time>
</trkpt>
<trkpt lat="45.9646420" lon="10.1923690">
	<ele>1504.20</ele>
	<time>2025-08-16T10:16:50.000Z</time>
</trkpt>
<trkpt lat="45.9646480" lon="10.1923860">
	<ele>1504.20</ele>
	<time>2025-08-16T10:16:51.000Z</time>
</trkpt>
<trkpt lat="45.9646520" lon="10.1924050">
	<ele>1504.20</ele>
	<time>2025-08-16T10:16:52.000Z</time>
</trkpt>
<trkpt lat="45.9646570" lon="10.1924250">
	<ele>1504.20</ele>
	<time>2025-08-16T10:16:53.000Z</time>
</trkpt>
<trkpt lat="45.9646650" lon="10.1924460">
	<ele>1504.00</ele>
	<time>2025-08-16T10:16:54.000Z</time>
</trkpt>
<trkpt lat="45.9646720" lon="10.1924610">
	<ele>1504.00</ele>
	<time>2025-08-16T10:16:55.000Z</time>
</trkpt>
<trkpt lat="45.9646790" lon="10.1924780">
	<ele>1504.00</ele>
	<time>2025-08-16T10:16:56.000Z</time>
</trkpt>
<trkpt lat="45.9646860" lon="10.1925000">
	<ele>1504.00</ele>
	<time>2025-08-16T10:16:57.000Z</time>
</trkpt>
<trkpt lat="45.9646920" lon="10.1925180">
	<ele>1504.00</ele>
	<time>2025-08-16T10:16:58.000Z</time>
</trkpt>
<trkpt lat="45.9646970" lon="10.1925370">
	<ele>1503.80</ele>
	<time>2025-08-16T10:16:59.000Z</time>
</trkpt>
<trkpt lat="45.9647010" lon="10.1925570">
	<ele>1504.00</ele>
	<time>2025-08-16T10:17:00.000Z</time>
</trkpt>
<trkpt lat="45.9647090" lon="10.1925760">
	<ele>1504.00</ele>
	<time>2025-08-16T10:17:01.000Z</time>
</trkpt>
<trkpt lat="45.9647160" lon="10.1925930">
	<ele>1504.00</ele>
	<time>2025-08-16T10:17:02.000Z</time>
</trkpt>
<trkpt lat="45.9647220" lon="10.1926060">
	<ele>1504.20</ele>
	<time>2025-08-16T10:17:03.000Z</time>
</trkpt>
<trkpt lat="45.9647290" lon="10.1926180">
	<ele>1504.60</ele>
	<time>2025-08-16T10:17:04.000Z</time>
</trkpt>
<trkpt lat="45.9647380" lon="10.1926300">
	<ele>1504.60</ele>
	<time>2025-08-16T10:17:05.000Z</time>
</trkpt>
<trkpt lat="45.9647490" lon="10.1926400">
	<ele>1504.60</ele>
	<time>2025-08-16T10:17:06.000Z</time>
</trkpt>
<trkpt lat="45.9647630" lon="10.1926500">
	<ele>1504.60</ele>
	<time>2025-08-16T10:17:07.000Z</time>
</trkpt>
<trkpt lat="45.9647730" lon="10.1926620">
	<ele>1504.60</ele>
	<time>2025-08-16T10:17:08.000Z</time>
</trkpt>
<trkpt lat="45.9647850" lon="10.1926700">
	<ele>1504.60</ele>
	<time>2025-08-16T10:17:09.000Z</time>
</trkpt>
<trkpt lat="45.9647920" lon="10.1926780">
	<ele>1504.60</ele>
	<time>2025-08-16T10:17:10.000Z</time>
</trkpt>
<trkpt lat="45.9648010" lon="10.1926890">
	<ele>1504.60</ele>
	<time>2025-08-16T10:17:11.000Z</time>
</trkpt>
<trkpt lat="45.9648100" lon="10.1927000">
	<ele>1504.60</ele>
	<time>2025-08-16T10:17:12.000Z</time>
</trkpt>
<trkpt lat="45.9648170" lon="10.1927120">
	<ele>1504.60</ele>
	<time>2025-08-16T10:17:13.000Z</time>
</trkpt>
<trkpt lat="45.9648260" lon="10.1927230">
	<ele>1504.60</ele>
	<time>2025-08-16T10:17:14.000Z</time>
</trkpt>
<trkpt lat="45.9648350" lon="10.1927370">
	<ele>1504.60</ele>
	<time>2025-08-16T10:17:15.000Z</time>
</trkpt>
<trkpt lat="45.9648420" lon="10.1927540">
	<ele>1504.60</ele>
	<time>2025-08-16T10:17:16.000Z</time>
</trkpt>
<trkpt lat="45.9648530" lon="10.1927710">
	<ele>1504.60</ele>
	<time>2025-08-16T10:17:17.000Z</time>
</trkpt>
<trkpt lat="45.9648630" lon="10.1927860">
	<ele>1504.60</ele>
	<time>2025-08-16T10:17:18.000Z</time>
</trkpt>
<trkpt lat="45.9648720" lon="10.1928000">
	<ele>1504.60</ele>
	<time>2025-08-16T10:17:19.000Z</time>
</trkpt>
<trkpt lat="45.9648810" lon="10.1928160">
	<ele>1504.60</ele>
	<time>2025-08-16T10:17:20.000Z</time>
</trkpt>
<trkpt lat="45.9648890" lon="10.1928320">
	<ele>1504.60</ele>
	<time>2025-08-16T10:17:21.000Z</time>
</trkpt>
<trkpt lat="45.9648960" lon="10.1928490">
	<ele>1504.60</ele>
	<time>2025-08-16T10:17:22.000Z</time>
</trkpt>
<trkpt lat="45.9649030" lon="10.1928630">
	<ele>1504.40</ele>
	<time>2025-08-16T10:17:23.000Z</time>
</trkpt>
<trkpt lat="45.9649080" lon="10.1928810">
	<ele>1504.40</ele>
	<time>2025-08-16T10:17:24.000Z</time>
</trkpt>
<trkpt lat="45.9649110" lon="10.1929000">
	<ele>1504.20</ele>
	<time>2025-08-16T10:17:25.000Z</time>
</trkpt>
<trkpt lat="45.9649130" lon="10.1929200">
	<ele>1504.20</ele>
	<time>2025-08-16T10:17:26.000Z</time>
</trkpt>
<trkpt lat="45.9649140" lon="10.1929350">
	<ele>1504.00</ele>
	<time>2025-08-16T10:17:27.000Z</time>
</trkpt>
<trkpt lat="45.9649130" lon="10.1929470">
	<ele>1503.80</ele>
	<time>2025-08-16T10:17:28.000Z</time>
</trkpt>
<trkpt lat="45.9649150" lon="10.1929660">
	<ele>1503.80</ele>
	<time>2025-08-16T10:17:29.000Z</time>
</trkpt>
<trkpt lat="45.9649180" lon="10.1929840">
	<ele>1503.80</ele>
	<time>2025-08-16T10:17:30.000Z</time>
</trkpt>
<trkpt lat="45.9649190" lon="10.1930040">
	<ele>1503.80</ele>
	<time>2025-08-16T10:17:31.000Z</time>
</trkpt>
<trkpt lat="45.9649250" lon="10.1930240">
	<ele>1504.00</ele>
	<time>2025-08-16T10:17:32.000Z</time>
</trkpt>
<trkpt lat="45.9649290" lon="10.1930420">
	<ele>1504.00</ele>
	<time>2025-08-16T10:17:33.000Z</time>
</trkpt>
<trkpt lat="45.9649320" lon="10.1930680">
	<ele>1504.00</ele>
	<time>2025-08-16T10:17:34.000Z</time>
</trkpt>
<trkpt lat="45.9649350" lon="10.1930880">
	<ele>1504.00</ele>
	<time>2025-08-16T10:17:35.000Z</time>
</trkpt>
<trkpt lat="45.9649380" lon="10.1931080">
	<ele>1503.80</ele>
	<time>2025-08-16T10:17:36.000Z</time>
</trkpt>
<trkpt lat="45.9649390" lon="10.1931240">
	<ele>1503.80</ele>
	<time>2025-08-16T10:17:37.000Z</time>
</trkpt>
<trkpt lat="45.9649410" lon="10.1931480">
	<ele>1503.60</ele>
	<time>2025-08-16T10:17:38.000Z</time>
</trkpt>
<trkpt lat="45.9649440" lon="10.1931700">
	<ele>1503.60</ele>
	<time>2025-08-16T10:17:39.000Z</time>
</trkpt>
<trkpt lat="45.9649480" lon="10.1931870">
	<ele>1503.60</ele>
	<time>2025-08-16T10:17:40.000Z</time>
</trkpt>
<trkpt lat="45.9649520" lon="10.1932140">
	<ele>1503.60</ele>
	<time>2025-08-16T10:17:41.000Z</time>
</trkpt>
<trkpt lat="45.9649540" lon="10.1932300">
	<ele>1503.60</ele>
	<time>2025-08-16T10:17:42.000Z</time>
</trkpt>
<trkpt lat="45.9649580" lon="10.1932460">
	<ele>1503.60</ele>
	<time>2025-08-16T10:17:43.000Z</time>
</trkpt>
<trkpt lat="45.9649640" lon="10.1932660">
	<ele>1503.40</ele>
	<time>2025-08-16T10:17:44.000Z</time>
</trkpt>
<trkpt lat="45.9649690" lon="10.1932820">
	<ele>1503.40</ele>
	<time>2025-08-16T10:17:45.000Z</time>
</trkpt>
<trkpt lat="45.9649740" lon="10.1932950">
	<ele>1503.40</ele>
	<time>2025-08-16T10:17:46.000Z</time>
</trkpt>
<trkpt lat="45.9649760" lon="10.1933200">
	<ele>1503.20</ele>
	<time>2025-08-16T10:17:47.000Z</time>
</trkpt>
<trkpt lat="45.9649820" lon="10.1933400">
	<ele>1503.20</ele>
	<time>2025-08-16T10:17:48.000Z</time>
</trkpt>
<trkpt lat="45.9649880" lon="10.1933510">
	<ele>1503.20</ele>
	<time>2025-08-16T10:17:49.000Z</time>
</trkpt>
<trkpt lat="45.9649960" lon="10.1933630">
	<ele>1503.20</ele>
	<time>2025-08-16T10:17:50.000Z</time>
</trkpt>
<trkpt lat="45.9650030" lon="10.1933780">
	<ele>1503.40</ele>
	<time>2025-08-16T10:17:51.000Z</time>
</trkpt>
<trkpt lat="45.9650040" lon="10.1933880">
	<ele>1503.40</ele>
	<time>2025-08-16T10:17:52.000Z</time>
</trkpt>
<trkpt lat="45.9650050" lon="10.1933990">
	<ele>1503.60</ele>
	<time>2025-08-16T10:17:53.000Z</time>
</trkpt>
<trkpt lat="45.9650060" lon="10.1934030">
	<ele>1503.60</ele>
	<time>2025-08-16T10:17:54.000Z</time>
</trkpt>
<trkpt lat="45.9650070" lon="10.1934070">
	<ele>1503.60</ele>
	<time>2025-08-16T10:17:55.000Z</time>
</trkpt>
<trkpt lat="45.9650100" lon="10.1934130">
	<ele>1503.60</ele>
	<time>2025-08-16T10:17:56.000Z</time>
</trkpt>
<trkpt lat="45.9650140" lon="10.1934260">
	<ele>1503.60</ele>
	<time>2025-08-16T10:17:57.000Z</time>
</trkpt>
<trkpt lat="45.9650200" lon="10.1934400">
	<ele>1503.80</ele>
	<time>2025-08-16T10:17:58.000Z</time>
</trkpt>
<trkpt lat="45.9650250" lon="10.1934580">
	<ele>1503.60</ele>
	<time>2025-08-16T10:17:59.000Z</time>
</trkpt>
<trkpt lat="45.9650270" lon="10.1934760">
	<ele>1503.60</ele>
	<time>2025-08-16T10:18:00.000Z</time>
</trkpt>
<trkpt lat="45.9650310" lon="10.1934870">
	<ele>1503.80</ele>
	<time>2025-08-16T10:18:01.000Z</time>
</trkpt>
<trkpt lat="45.9650370" lon="10.1935030">
	<ele>1503.80</ele>
	<time>2025-08-16T10:18:02.000Z</time>
</trkpt>
<trkpt lat="45.9650440" lon="10.1935190">
	<ele>1504.00</ele>
	<time>2025-08-16T10:18:03.000Z</time>
</trkpt>
<trkpt lat="45.9650470" lon="10.1935370">
	<ele>1504.00</ele>
	<time>2025-08-16T10:18:04.000Z</time>
</trkpt>
<trkpt lat="45.9650550" lon="10.1935540">
	<ele>1504.00</ele>
	<time>2025-08-16T10:18:05.000Z</time>
</trkpt>
<trkpt lat="45.9650600" lon="10.1935700">
	<ele>1504.00</ele>
	<time>2025-08-16T10:18:06.000Z</time>
</trkpt>
<trkpt lat="45.9650690" lon="10.1935820">
	<ele>1504.00</ele>
	<time>2025-08-16T10:18:07.000Z</time>
</trkpt>
<trkpt lat="45.9650780" lon="10.1935920">
	<ele>1504.00</ele>
	<time>2025-08-16T10:18:08.000Z</time>
</trkpt>
<trkpt lat="45.9650850" lon="10.1936000">
	<ele>1503.80</ele>
	<time>2025-08-16T10:18:09.000Z</time>
</trkpt>
<trkpt lat="45.9650920" lon="10.1936110">
	<ele>1503.60</ele>
	<time>2025-08-16T10:18:10.000Z</time>
</trkpt>
<trkpt lat="45.9651010" lon="10.1936290">
	<ele>1503.60</ele>
	<time>2025-08-16T10:18:11.000Z</time>
</trkpt>
<trkpt lat="45.9651070" lon="10.1936430">
	<ele>1503.60</ele>
	<time>2025-08-16T10:18:12.000Z</time>
</trkpt>
<trkpt lat="45.9651110" lon="10.1936670">
	<ele>1503.40</ele>
	<time>2025-08-16T10:18:13.000Z</time>
</trkpt>
<trkpt lat="45.9651140" lon="10.1936900">
	<ele>1503.40</ele>
	<time>2025-08-16T10:18:14.000Z</time>
</trkpt>
<trkpt lat="45.9651190" lon="10.1937040">
	<ele>1503.20</ele>
	<time>2025-08-16T10:18:15.000Z</time>
</trkpt>
<trkpt lat="45.9651310" lon="10.1937160">
	<ele>1503.00</ele>
	<time>2025-08-16T10:18:16.000Z</time>
</trkpt>
<trkpt lat="45.9651380" lon="10.1937260">
	<ele>1502.80</ele>
	<time>2025-08-16T10:18:17.000Z</time>
</trkpt>
<trkpt lat="45.9651440" lon="10.1937430">
	<ele>1502.80</ele>
	<time>2025-08-16T10:18:18.000Z</time>
</trkpt>
<trkpt lat="45.9651580" lon="10.1937570">
	<ele>1502.60</ele>
	<time>2025-08-16T10:18:19.000Z</time>
</trkpt>
<trkpt lat="45.9651680" lon="10.1937670">
	<ele>1502.40</ele>
	<time>2025-08-16T10:18:20.000Z</time>
</trkpt>
<trkpt lat="45.9651780" lon="10.1937830">
	<ele>1502.20</ele>
	<time>2025-08-16T10:18:21.000Z</time>
</trkpt>
<trkpt lat="45.9651860" lon="10.1937990">
	<ele>1502.20</ele>
	<time>2025-08-16T10:18:22.000Z</time>
</trkpt>
<trkpt lat="45.9651930" lon="10.1938120">
	<ele>1502.00</ele>
	<time>2025-08-16T10:18:23.000Z</time>
</trkpt>
<trkpt lat="45.9652000" lon="10.1938280">
	<ele>1502.00</ele>
	<time>2025-08-16T10:18:24.000Z</time>
</trkpt>
<trkpt lat="45.9652100" lon="10.1938440">
	<ele>1501.80</ele>
	<time>2025-08-16T10:18:25.000Z</time>
</trkpt>
<trkpt lat="45.9652150" lon="10.1938560">
	<ele>1501.60</ele>
	<time>2025-08-16T10:18:26.000Z</time>
</trkpt>
<trkpt lat="45.9652240" lon="10.1938770">
	<ele>1501.40</ele>
	<time>2025-08-16T10:18:27.000Z</time>
</trkpt>
<trkpt lat="45.9652310" lon="10.1938910">
	<ele>1501.40</ele>
	<time>2025-08-16T10:18:28.000Z</time>
</trkpt>
<trkpt lat="45.9652400" lon="10.1939070">
	<ele>1501.20</ele>
	<time>2025-08-16T10:18:29.000Z</time>
</trkpt>
<trkpt lat="45.9652500" lon="10.1939260">
	<ele>1501.20</ele>
	<time>2025-08-16T10:18:30.000Z</time>
</trkpt>
<trkpt lat="45.9652550" lon="10.1939390">
	<ele>1501.20</ele>
	<time>2025-08-16T10:18:31.000Z</time>
</trkpt>
<trkpt lat="45.9652620" lon="10.1939530">
	<ele>1501.20</ele>
	<time>2025-08-16T10:18:32.000Z</time>
</trkpt>
<trkpt lat="45.9652670" lon="10.1939690">
	<ele>1501.20</ele>
	<time>2025-08-16T10:18:33.000Z</time>
</trkpt>
<trkpt lat="45.9652700" lon="10.1939860">
	<ele>1501.20</ele>
	<time>2025-08-16T10:18:34.000Z</time>
</trkpt>
<trkpt lat="45.9652740" lon="10.1940060">
	<ele>1501.20</ele>
	<time>2025-08-16T10:18:35.000Z</time>
</trkpt>
<trkpt lat="45.9652780" lon="10.1940230">
	<ele>1501.20</ele>
	<time>2025-08-16T10:18:36.000Z</time>
</trkpt>
<trkpt lat="45.9652830" lon="10.1940430">
	<ele>1501.20</ele>
	<time>2025-08-16T10:18:37.000Z</time>
</trkpt>
<trkpt lat="45.9652820" lon="10.1940620">
	<ele>1501.20</ele>
	<time>2025-08-16T10:18:38.000Z</time>
</trkpt>
<trkpt lat="45.9652820" lon="10.1940800">
	<ele>1501.20</ele>
	<time>2025-08-16T10:18:39.000Z</time>
</trkpt>
<trkpt lat="45.9652810" lon="10.1940980">
	<ele>1501.00</ele>
	<time>2025-08-16T10:18:40.000Z</time>
</trkpt>
<trkpt lat="45.9652830" lon="10.1941150">
	<ele>1501.00</ele>
	<time>2025-08-16T10:18:41.000Z</time>
</trkpt>
<trkpt lat="45.9652870" lon="10.1941290">
	<ele>1501.00</ele>
	<time>2025-08-16T10:18:42.000Z</time>
</trkpt>
<trkpt lat="45.9652910" lon="10.1941500">
	<ele>1501.00</ele>
	<time>2025-08-16T10:18:43.000Z</time>
</trkpt>
<trkpt lat="45.9652920" lon="10.1941690">
	<ele>1501.00</ele>
	<time>2025-08-16T10:18:44.000Z</time>
</trkpt>
<trkpt lat="45.9652950" lon="10.1941890">
	<ele>1501.00</ele>
	<time>2025-08-16T10:18:45.000Z</time>
</trkpt>
<trkpt lat="45.9652950" lon="10.1942080">
	<ele>1501.00</ele>
	<time>2025-08-16T10:18:46.000Z</time>
</trkpt>
<trkpt lat="45.9652980" lon="10.1942270">
	<ele>1501.00</ele>
	<time>2025-08-16T10:18:47.000Z</time>
</trkpt>
<trkpt lat="45.9653010" lon="10.1942470">
	<ele>1501.00</ele>
	<time>2025-08-16T10:18:48.000Z</time>
</trkpt>
<trkpt lat="45.9653050" lon="10.1942670">
	<ele>1501.00</ele>
	<time>2025-08-16T10:18:49.000Z</time>
</trkpt>
<trkpt lat="45.9653090" lon="10.1942870">
	<ele>1501.00</ele>
	<time>2025-08-16T10:18:50.000Z</time>
</trkpt>
<trkpt lat="45.9653150" lon="10.1943080">
	<ele>1501.00</ele>
	<time>2025-08-16T10:18:51.000Z</time>
</trkpt>
<trkpt lat="45.9653210" lon="10.1943290">
	<ele>1501.00</ele>
	<time>2025-08-16T10:18:52.000Z</time>
</trkpt>
<trkpt lat="45.9653250" lon="10.1943440">
	<ele>1501.00</ele>
	<time>2025-08-16T10:18:53.000Z</time>
</trkpt>
<trkpt lat="45.9653350" lon="10.1943640">
	<ele>1501.00</ele>
	<time>2025-08-16T10:18:54.000Z</time>
</trkpt>
<trkpt lat="45.9653440" lon="10.1943800">
	<ele>1501.00</ele>
	<time>2025-08-16T10:18:55.000Z</time>
</trkpt>
<trkpt lat="45.9653520" lon="10.1943950">
	<ele>1501.20</ele>
	<time>2025-08-16T10:18:56.000Z</time>
</trkpt>
<trkpt lat="45.9653590" lon="10.1944110">
	<ele>1501.20</ele>
	<time>2025-08-16T10:18:57.000Z</time>
</trkpt>
<trkpt lat="45.9653670" lon="10.1944220">
	<ele>1501.20</ele>
	<time>2025-08-16T10:18:58.000Z</time>
</trkpt>
<trkpt lat="45.9653780" lon="10.1944350">
	<ele>1501.20</ele>
	<time>2025-08-16T10:18:59.000Z</time>
</trkpt>
<trkpt lat="45.9653900" lon="10.1944490">
	<ele>1501.20</ele>
	<time>2025-08-16T10:19:00.000Z</time>
</trkpt>
<trkpt lat="45.9653990" lon="10.1944610">
	<ele>1501.20</ele>
	<time>2025-08-16T10:19:01.000Z</time>
</trkpt>
<trkpt lat="45.9654110" lon="10.1944720">
	<ele>1501.20</ele>
	<time>2025-08-16T10:19:02.000Z</time>
</trkpt>
<trkpt lat="45.9654250" lon="10.1944820">
	<ele>1501.20</ele>
	<time>2025-08-16T10:19:03.000Z</time>
</trkpt>
<trkpt lat="45.9654380" lon="10.1944880">
	<ele>1501.20</ele>
	<time>2025-08-16T10:19:04.000Z</time>
</trkpt>
<trkpt lat="45.9654480" lon="10.1944920">
	<ele>1501.20</ele>
	<time>2025-08-16T10:19:05.000Z</time>
</trkpt>
<trkpt lat="45.9654630" lon="10.1944970">
	<ele>1501.20</ele>
	<time>2025-08-16T10:19:06.000Z</time>
</trkpt>
<trkpt lat="45.9654720" lon="10.1944980">
	<ele>1501.20</ele>
	<time>2025-08-16T10:19:07.000Z</time>
</trkpt>
<trkpt lat="45.9654820" lon="10.1945010">
	<ele>1501.20</ele>
	<time>2025-08-16T10:19:08.000Z</time>
</trkpt>
<trkpt lat="45.9654890" lon="10.1945050">
	<ele>1501.20</ele>
	<time>2025-08-16T10:19:09.000Z</time>
</trkpt>
<trkpt lat="45.9654930" lon="10.1945060">
	<ele>1501.20</ele>
	<time>2025-08-16T10:19:10.000Z</time>
</trkpt>
<trkpt lat="45.9654950" lon="10.1945070">
	<ele>1501.20</ele>
	<time>2025-08-16T10:19:11.000Z</time>
</trkpt>
<trkpt lat="45.9655000" lon="10.1945110">
	<ele>1501.20</ele>
	<time>2025-08-16T10:19:12.000Z</time>
</trkpt>
<trkpt lat="45.9655080" lon="10.1945140">
	<ele>1501.20</ele>
	<time>2025-08-16T10:19:13.000Z</time>
</trkpt>
<trkpt lat="45.9655190" lon="10.1945140">
	<ele>1501.00</ele>
	<time>2025-08-16T10:19:14.000Z</time>
</trkpt>
<trkpt lat="45.9655330" lon="10.1945170">
	<ele>1501.00</ele>
	<time>2025-08-16T10:19:15.000Z</time>
</trkpt>
<trkpt lat="45.9655470" lon="10.1945220">
	<ele>1500.80</ele>
	<time>2025-08-16T10:19:16.000Z</time>
</trkpt>
<trkpt lat="45.9655580" lon="10.1945310">
	<ele>1500.80</ele>
	<time>2025-08-16T10:19:17.000Z</time>
</trkpt>
<trkpt lat="45.9655690" lon="10.1945380">
	<ele>1500.60</ele>
	<time>2025-08-16T10:19:18.000Z</time>
</trkpt>
<trkpt lat="45.9655790" lon="10.1945470">
	<ele>1500.40</ele>
	<time>2025-08-16T10:19:19.000Z</time>
</trkpt>
<trkpt lat="45.9655920" lon="10.1945540">
	<ele>1500.20</ele>
	<time>2025-08-16T10:19:20.000Z</time>
</trkpt>
<trkpt lat="45.9656030" lon="10.1945580">
	<ele>1500.20</ele>
	<time>2025-08-16T10:19:21.000Z</time>
</trkpt>
<trkpt lat="45.9656170" lon="10.1945610">
	<ele>1500.00</ele>
	<time>2025-08-16T10:19:22.000Z</time>
</trkpt>
<trkpt lat="45.9656310" lon="10.1945670">
	<ele>1500.00</ele>
	<time>2025-08-16T10:19:23.000Z</time>
</trkpt>
<trkpt lat="45.9656430" lon="10.1945720">
	<ele>1499.80</ele>
	<time>2025-08-16T10:19:24.000Z</time>
</trkpt>
<trkpt lat="45.9656540" lon="10.1945830">
	<ele>1499.80</ele>
	<time>2025-08-16T10:19:25.000Z</time>
</trkpt>
<trkpt lat="45.9656660" lon="10.1945940">
	<ele>1499.60</ele>
	<time>2025-08-16T10:19:26.000Z</time>
</trkpt>
<trkpt lat="45.9656800" lon="10.1946020">
	<ele>1499.60</ele>
	<time>2025-08-16T10:19:27.000Z</time>
</trkpt>
<trkpt lat="45.9656930" lon="10.1946060">
	<ele>1499.60</ele>
	<time>2025-08-16T10:19:28.000Z</time>
</trkpt>
<trkpt lat="45.9657100" lon="10.1946090">
	<ele>1499.60</ele>
	<time>2025-08-16T10:19:29.000Z</time>
</trkpt>
<trkpt lat="45.9657190" lon="10.1946100">
	<ele>1499.60</ele>
	<time>2025-08-16T10:19:30.000Z</time>
</trkpt>
<trkpt lat="45.9657320" lon="10.1946140">
	<ele>1499.40</ele>
	<time>2025-08-16T10:19:31.000Z</time>
</trkpt>
<trkpt lat="45.9657450" lon="10.1946200">
	<ele>1499.40</ele>
	<time>2025-08-16T10:19:32.000Z</time>
</trkpt>
<trkpt lat="45.9657570" lon="10.1946270">
	<ele>1499.40</ele>
	<time>2025-08-16T10:19:33.000Z</time>
</trkpt>
<trkpt lat="45.9657700" lon="10.1946360">
	<ele>1499.40</ele>
	<time>2025-08-16T10:19:34.000Z</time>
</trkpt>
<trkpt lat="45.9657800" lon="10.1946420">
	<ele>1499.20</ele>
	<time>2025-08-16T10:19:35.000Z</time>
</trkpt>
<trkpt lat="45.9657910" lon="10.1946490">
	<ele>1499.20</ele>
	<time>2025-08-16T10:19:36.000Z</time>
</trkpt>
<trkpt lat="45.9658010" lon="10.1946540">
	<ele>1499.20</ele>
	<time>2025-08-16T10:19:37.000Z</time>
</trkpt>
<trkpt lat="45.9658120" lon="10.1946590">
	<ele>1499.00</ele>
	<time>2025-08-16T10:19:38.000Z</time>
</trkpt>
<trkpt lat="45.9658250" lon="10.1946640">
	<ele>1499.00</ele>
	<time>2025-08-16T10:19:39.000Z</time>
</trkpt>
<trkpt lat="45.9658380" lon="10.1946700">
	<ele>1498.80</ele>
	<time>2025-08-16T10:19:40.000Z</time>
</trkpt>
<trkpt lat="45.9658490" lon="10.1946770">
	<ele>1498.80</ele>
	<time>2025-08-16T10:19:41.000Z</time>
</trkpt>
<trkpt lat="45.9658600" lon="10.1946850">
	<ele>1498.60</ele>
	<time>2025-08-16T10:19:42.000Z</time>
</trkpt>
<trkpt lat="45.9658740" lon="10.1946930">
	<ele>1498.60</ele>
	<time>2025-08-16T10:19:43.000Z</time>
</trkpt>
<trkpt lat="45.9658870" lon="10.1947010">
	<ele>1498.40</ele>
	<time>2025-08-16T10:19:44.000Z</time>
</trkpt>
<trkpt lat="45.9659010" lon="10.1947080">
	<ele>1498.20</ele>
	<time>2025-08-16T10:19:45.000Z</time>
</trkpt>
<trkpt lat="45.9659140" lon="10.1947150">
	<ele>1498.20</ele>
	<time>2025-08-16T10:19:46.000Z</time>
</trkpt>
<trkpt lat="45.9659260" lon="10.1947200">
	<ele>1498.20</ele>
	<time>2025-08-16T10:19:47.000Z</time>
</trkpt>
<trkpt lat="45.9659400" lon="10.1947210">
	<ele>1498.00</ele>
	<time>2025-08-16T10:19:48.000Z</time>
</trkpt>
<trkpt lat="45.9659560" lon="10.1947210">
	<ele>1498.00</ele>
	<time>2025-08-16T10:19:49.000Z</time>
</trkpt>
<trkpt lat="45.9659720" lon="10.1947220">
	<ele>1498.00</ele>
	<time>2025-08-16T10:19:50.000Z</time>
</trkpt>
<trkpt lat="45.9659870" lon="10.1947260">
	<ele>1498.00</ele>
	<time>2025-08-16T10:19:51.000Z</time>
</trkpt>
<trkpt lat="45.9660020" lon="10.1947330">
	<ele>1497.80</ele>
	<time>2025-08-16T10:19:52.000Z</time>
</trkpt>
<trkpt lat="45.9660170" lon="10.1947420">
	<ele>1497.80</ele>
	<time>2025-08-16T10:19:53.000Z</time>
</trkpt>
<trkpt lat="45.9660310" lon="10.1947510">
	<ele>1497.80</ele>
	<time>2025-08-16T10:19:54.000Z</time>
</trkpt>
<trkpt lat="45.9660450" lon="10.1947620">
	<ele>1497.60</ele>
	<time>2025-08-16T10:19:55.000Z</time>
</trkpt>
<trkpt lat="45.9660600" lon="10.1947700">
	<ele>1497.40</ele>
	<time>2025-08-16T10:19:56.000Z</time>
</trkpt>
<trkpt lat="45.9660760" lon="10.1947770">
	<ele>1497.20</ele>
	<time>2025-08-16T10:19:57.000Z</time>
</trkpt>
<trkpt lat="45.9660920" lon="10.1947850">
	<ele>1497.20</ele>
	<time>2025-08-16T10:19:58.000Z</time>
</trkpt>
<trkpt lat="45.9661070" lon="10.1947960">
	<ele>1497.00</ele>
	<time>2025-08-16T10:19:59.000Z</time>
</trkpt>
<trkpt lat="45.9661200" lon="10.1948060">
	<ele>1497.00</ele>
	<time>2025-08-16T10:20:00.000Z</time>
</trkpt>
<trkpt lat="45.9661320" lon="10.1948150">
	<ele>1497.00</ele>
	<time>2025-08-16T10:20:01.000Z</time>
</trkpt>
<trkpt lat="45.9661450" lon="10.1948280">
	<ele>1497.00</ele>
	<time>2025-08-16T10:20:02.000Z</time>
</trkpt>
<trkpt lat="45.9661560" lon="10.1948410">
	<ele>1497.00</ele>
	<time>2025-08-16T10:20:03.000Z</time>
</trkpt>
<trkpt lat="45.9661660" lon="10.1948560">
	<ele>1497.00</ele>
	<time>2025-08-16T10:20:04.000Z</time>
</trkpt>
<trkpt lat="45.9661750" lon="10.1948700">
	<ele>1497.00</ele>
	<time>2025-08-16T10:20:05.000Z</time>
</trkpt>
<trkpt lat="45.9661850" lon="10.1948830">
	<ele>1496.80</ele>
	<time>2025-08-16T10:20:06.000Z</time>
</trkpt>
<trkpt lat="45.9661970" lon="10.1948960">
	<ele>1496.80</ele>
	<time>2025-08-16T10:20:07.000Z</time>
</trkpt>
<trkpt lat="45.9662090" lon="10.1949070">
	<ele>1496.60</ele>
	<time>2025-08-16T10:20:08.000Z</time>
</trkpt>
<trkpt lat="45.9662210" lon="10.1949160">
	<ele>1496.40</ele>
	<time>2025-08-16T10:20:09.000Z</time>
</trkpt>
<trkpt lat="45.9662340" lon="10.1949260">
	<ele>1496.40</ele>
	<time>2025-08-16T10:20:10.000Z</time>
</trkpt>
<trkpt lat="45.9662480" lon="10.1949350">
	<ele>1496.20</ele>
	<time>2025-08-16T10:20:11.000Z</time>
</trkpt>
<trkpt lat="45.9662610" lon="10.1949440">
	<ele>1496.20</ele>
	<time>2025-08-16T10:20:12.000Z</time>
</trkpt>
<trkpt lat="45.9662730" lon="10.1949530">
	<ele>1496.00</ele>
	<time>2025-08-16T10:20:13.000Z</time>
</trkpt>
<trkpt lat="45.9662840" lon="10.1949620">
	<ele>1495.80</ele>
	<time>2025-08-16T10:20:14.000Z</time>
</trkpt>
<trkpt lat="45.9662930" lon="10.1949690">
	<ele>1495.80</ele>
	<time>2025-08-16T10:20:15.000Z</time>
</trkpt>
<trkpt lat="45.9663040" lon="10.1949730">
	<ele>1495.80</ele>
	<time>2025-08-16T10:20:16.000Z</time>
</trkpt>
<trkpt lat="45.9663140" lon="10.1949800">
	<ele>1495.60</ele>
	<time>2025-08-16T10:20:17.000Z</time>
</trkpt>
<trkpt lat="45.9663250" lon="10.1949890">
	<ele>1495.40</ele>
	<time>2025-08-16T10:20:18.000Z</time>
</trkpt>
<trkpt lat="45.9663360" lon="10.1949980">
	<ele>1495.40</ele>
	<time>2025-08-16T10:20:19.000Z</time>
</trkpt>
<trkpt lat="45.9663480" lon="10.1950060">
	<ele>1495.40</ele>
	<time>2025-08-16T10:20:20.000Z</time>
</trkpt>
<trkpt lat="45.9663620" lon="10.1950100">
	<ele>1495.20</ele>
	<time>2025-08-16T10:20:21.000Z</time>
</trkpt>
<trkpt lat="45.9663780" lon="10.1950150">
	<ele>1495.20</ele>
	<time>2025-08-16T10:20:22.000Z</time>
</trkpt>
<trkpt lat="45.9663900" lon="10.1950230">
	<ele>1495.00</ele>
	<time>2025-08-16T10:20:23.000Z</time>
</trkpt>
<trkpt lat="45.9664020" lon="10.1950320">
	<ele>1494.80</ele>
	<time>2025-08-16T10:20:24.000Z</time>
</trkpt>
<trkpt lat="45.9664150" lon="10.1950410">
	<ele>1494.80</ele>
	<time>2025-08-16T10:20:25.000Z</time>
</trkpt>
<trkpt lat="45.9664260" lon="10.1950510">
	<ele>1494.60</ele>
	<time>2025-08-16T10:20:26.000Z</time>
</trkpt>
<trkpt lat="45.9664380" lon="10.1950640">
	<ele>1494.60</ele>
	<time>2025-08-16T10:20:27.000Z</time>
</trkpt>
<trkpt lat="45.9664490" lon="10.1950770">
	<ele>1494.60</ele>
	<time>2025-08-16T10:20:28.000Z</time>
</trkpt>
<trkpt lat="45.9664590" lon="10.1950910">
	<ele>1494.60</ele>
	<time>2025-08-16T10:20:29.000Z</time>
</trkpt>
<trkpt lat="45.9664680" lon="10.1951080">
	<ele>1494.60</ele>
	<time>2025-08-16T10:20:30.000Z</time>
</trkpt>
<trkpt lat="45.9664770" lon="10.1951230">
	<ele>1494.60</ele>
	<time>2025-08-16T10:20:31.000Z</time>
</trkpt>
<trkpt lat="45.9664870" lon="10.1951400">
	<ele>1494.60</ele>
	<time>2025-08-16T10:20:32.000Z</time>
</trkpt>
<trkpt lat="45.9664950" lon="10.1951580">
	<ele>1494.60</ele>
	<time>2025-08-16T10:20:33.000Z</time>
</trkpt>
<trkpt lat="45.9665040" lon="10.1951770">
	<ele>1494.60</ele>
	<time>2025-08-16T10:20:34.000Z</time>
</trkpt>
<trkpt lat="45.9665110" lon="10.1951970">
	<ele>1494.60</ele>
	<time>2025-08-16T10:20:35.000Z</time>
</trkpt>
<trkpt lat="45.9665180" lon="10.1952170">
	<ele>1494.40</ele>
	<time>2025-08-16T10:20:36.000Z</time>
</trkpt>
<trkpt lat="45.9665250" lon="10.1952370">
	<ele>1494.20</ele>
	<time>2025-08-16T10:20:37.000Z</time>
</trkpt>
<trkpt lat="45.9665330" lon="10.1952570">
	<ele>1494.00</ele>
	<time>2025-08-16T10:20:38.000Z</time>
</trkpt>
<trkpt lat="45.9665410" lon="10.1952790">
	<ele>1494.00</ele>
	<time>2025-08-16T10:20:39.000Z</time>
</trkpt>
<trkpt lat="45.9665500" lon="10.1952970">
	<ele>1493.80</ele>
	<time>2025-08-16T10:20:40.000Z</time>
</trkpt>
<trkpt lat="45.9665590" lon="10.1953160">
	<ele>1493.80</ele>
	<time>2025-08-16T10:20:41.000Z</time>
</trkpt>
<trkpt lat="45.9665670" lon="10.1953340">
	<ele>1493.80</ele>
	<time>2025-08-16T10:20:42.000Z</time>
</trkpt>
<trkpt lat="45.9665780" lon="10.1953490">
	<ele>1493.80</ele>
	<time>2025-08-16T10:20:43.000Z</time>
</trkpt>
<trkpt lat="45.9665880" lon="10.1953670">
	<ele>1493.80</ele>
	<time>2025-08-16T10:20:44.000Z</time>
</trkpt>
<trkpt lat="45.9665980" lon="10.1953860">
	<ele>1493.80</ele>
	<time>2025-08-16T10:20:45.000Z</time>
</trkpt>
<trkpt lat="45.9666060" lon="10.1954020">
	<ele>1494.00</ele>
	<time>2025-08-16T10:20:46.000Z</time>
</trkpt>
<trkpt lat="45.9666150" lon="10.1954150">
	<ele>1494.00</ele>
	<time>2025-08-16T10:20:47.000Z</time>
</trkpt>
<trkpt lat="45.9666260" lon="10.1954250">
	<ele>1494.20</ele>
	<time>2025-08-16T10:20:48.000Z</time>
</trkpt>
<trkpt lat="45.9666380" lon="10.1954350">
	<ele>1494.20</ele>
	<time>2025-08-16T10:20:49.000Z</time>
</trkpt>
<trkpt lat="45.9666490" lon="10.1954440">
	<ele>1494.20</ele>
	<time>2025-08-16T10:20:50.000Z</time>
</trkpt>
<trkpt lat="45.9666590" lon="10.1954520">
	<ele>1494.20</ele>
	<time>2025-08-16T10:20:51.000Z</time>
</trkpt>
<trkpt lat="45.9666710" lon="10.1954590">
	<ele>1494.20</ele>
	<time>2025-08-16T10:20:52.000Z</time>
</trkpt>
<trkpt lat="45.9666830" lon="10.1954640">
	<ele>1494.00</ele>
	<time>2025-08-16T10:20:53.000Z</time>
</trkpt>
<trkpt lat="45.9666980" lon="10.1954710">
	<ele>1494.00</ele>
	<time>2025-08-16T10:20:54.000Z</time>
</trkpt>
<trkpt lat="45.9667090" lon="10.1954810">
	<ele>1493.60</ele>
	<time>2025-08-16T10:20:55.000Z</time>
</trkpt>
<trkpt lat="45.9667180" lon="10.1954930">
	<ele>1493.40</ele>
	<time>2025-08-16T10:20:56.000Z</time>
</trkpt>
<trkpt lat="45.9667260" lon="10.1955060">
	<ele>1493.40</ele>
	<time>2025-08-16T10:20:57.000Z</time>
</trkpt>
<trkpt lat="45.9667350" lon="10.1955200">
	<ele>1493.20</ele>
	<time>2025-08-16T10:20:58.000Z</time>
</trkpt>
<trkpt lat="45.9667450" lon="10.1955320">
	<ele>1493.00</ele>
	<time>2025-08-16T10:20:59.000Z</time>
</trkpt>
<trkpt lat="45.9667580" lon="10.1955410">
	<ele>1492.80</ele>
	<time>2025-08-16T10:21:00.000Z</time>
</trkpt>
<trkpt lat="45.9667660" lon="10.1955530">
	<ele>1492.60</ele>
	<time>2025-08-16T10:21:01.000Z</time>
</trkpt>
<trkpt lat="45.9667770" lon="10.1955610">
	<ele>1492.40</ele>
	<time>2025-08-16T10:21:02.000Z</time>
</trkpt>
<trkpt lat="45.9667900" lon="10.1955700">
	<ele>1492.40</ele>
	<time>2025-08-16T10:21:03.000Z</time>
</trkpt>
<trkpt lat="45.9668040" lon="10.1955780">
	<ele>1492.20</ele>
	<time>2025-08-16T10:21:04.000Z</time>
</trkpt>
<trkpt lat="45.9668190" lon="10.1955830">
	<ele>1491.80</ele>
	<time>2025-08-16T10:21:05.000Z</time>
</trkpt>
<trkpt lat="45.9668340" lon="10.1955880">
	<ele>1491.40</ele>
	<time>2025-08-16T10:21:06.000Z</time>
</trkpt>
<trkpt lat="45.9668470" lon="10.1955920">
	<ele>1491.20</ele>
	<time>2025-08-16T10:21:07.000Z</time>
</trkpt>
<trkpt lat="45.9668620" lon="10.1955960">
	<ele>1491.00</ele>
	<time>2025-08-16T10:21:08.000Z</time>
</trkpt>
<trkpt lat="45.9668770" lon="10.1955970">
	<ele>1490.80</ele>
	<time>2025-08-16T10:21:09.000Z</time>
</trkpt>
<trkpt lat="45.9668890" lon="10.1956040">
	<ele>1490.40</ele>
	<time>2025-08-16T10:21:10.000Z</time>
</trkpt>
<trkpt lat="45.9668970" lon="10.1956170">
	<ele>1490.40</ele>
	<time>2025-08-16T10:21:11.000Z</time>
</trkpt>
<trkpt lat="45.9669070" lon="10.1956320">
	<ele>1490.20</ele>
	<time>2025-08-16T10:21:12.000Z</time>
</trkpt>
<trkpt lat="45.9669160" lon="10.1956460">
	<ele>1489.80</ele>
	<time>2025-08-16T10:21:13.000Z</time>
</trkpt>
<trkpt lat="45.9669250" lon="10.1956620">
	<ele>1489.60</ele>
	<time>2025-08-16T10:21:14.000Z</time>
</trkpt>
<trkpt lat="45.9669320" lon="10.1956780">
	<ele>1489.20</ele>
	<time>2025-08-16T10:21:15.000Z</time>
</trkpt>
<trkpt lat="45.9669420" lon="10.1956920">
	<ele>1489.00</ele>
	<time>2025-08-16T10:21:16.000Z</time>
</trkpt>
<trkpt lat="45.9669500" lon="10.1957060">
	<ele>1488.80</ele>
	<time>2025-08-16T10:21:17.000Z</time>
</trkpt>
<trkpt lat="45.9669600" lon="10.1957190">
	<ele>1488.80</ele>
	<time>2025-08-16T10:21:18.000Z</time>
</trkpt>
<trkpt lat="45.9669720" lon="10.1957310">
	<ele>1488.40</ele>
	<time>2025-08-16T10:21:19.000Z</time>
</trkpt>
<trkpt lat="45.9669840" lon="10.1957440">
	<ele>1488.20</ele>
	<time>2025-08-16T10:21:20.000Z</time>
</trkpt>
<trkpt lat="45.9669980" lon="10.1957590">
	<ele>1488.00</ele>
	<time>2025-08-16T10:21:21.000Z</time>
</trkpt>
<trkpt lat="45.9670100" lon="10.1957720">
	<ele>1487.80</ele>
	<time>2025-08-16T10:21:22.000Z</time>
</trkpt>
<trkpt lat="45.9670220" lon="10.1957840">
	<ele>1487.60</ele>
	<time>2025-08-16T10:21:23.000Z</time>
</trkpt>
<trkpt lat="45.9670350" lon="10.1957960">
	<ele>1487.40</ele>
	<time>2025-08-16T10:21:24.000Z</time>
</trkpt>
<trkpt lat="45.9670480" lon="10.1958050">
	<ele>1487.20</ele>
	<time>2025-08-16T10:21:25.000Z</time>
</trkpt>
<trkpt lat="45.9670590" lon="10.1958150">
	<ele>1487.20</ele>
	<time>2025-08-16T10:21:26.000Z</time>
</trkpt>
<trkpt lat="45.9670700" lon="10.1958290">
	<ele>1487.20</ele>
	<time>2025-08-16T10:21:27.000Z</time>
</trkpt>
<trkpt lat="45.9670850" lon="10.1958430">
	<ele>1487.00</ele>
	<time>2025-08-16T10:21:28.000Z</time>
</trkpt>
<trkpt lat="45.9670980" lon="10.1958570">
	<ele>1487.00</ele>
	<time>2025-08-16T10:21:29.000Z</time>
</trkpt>
<trkpt lat="45.9671140" lon="10.1958700">
	<ele>1487.00</ele>
	<time>2025-08-16T10:21:30.000Z</time>
</trkpt>
<trkpt lat="45.9671250" lon="10.1958810">
	<ele>1487.00</ele>
	<time>2025-08-16T10:21:31.000Z</time>
</trkpt>
<trkpt lat="45.9671390" lon="10.1958900">
	<ele>1487.00</ele>
	<time>2025-08-16T10:21:32.000Z</time>
</trkpt>
<trkpt lat="45.9671520" lon="10.1958990">
	<ele>1487.00</ele>
	<time>2025-08-16T10:21:33.000Z</time>
</trkpt>
<trkpt lat="45.9671640" lon="10.1959090">
	<ele>1487.00</ele>
	<time>2025-08-16T10:21:34.000Z</time>
</trkpt>
<trkpt lat="45.9671770" lon="10.1959170">
	<ele>1486.80</ele>
	<time>2025-08-16T10:21:35.000Z</time>
</trkpt>
<trkpt lat="45.9671930" lon="10.1959250">
	<ele>1486.80</ele>
	<time>2025-08-16T10:21:36.000Z</time>
</trkpt>
<trkpt lat="45.9672070" lon="10.1959310">
	<ele>1486.80</ele>
	<time>2025-08-16T10:21:37.000Z</time>
</trkpt>
<trkpt lat="45.9672210" lon="10.1959360">
	<ele>1486.80</ele>
	<time>2025-08-16T10:21:38.000Z</time>
</trkpt>
<trkpt lat="45.9672310" lon="10.1959460">
	<ele>1486.60</ele>
	<time>2025-08-16T10:21:39.000Z</time>
</trkpt>
<trkpt lat="45.9672410" lon="10.1959560">
	<ele>1486.60</ele>
	<time>2025-08-16T10:21:40.000Z</time>
</trkpt>
<trkpt lat="45.9672530" lon="10.1959680">
	<ele>1486.60</ele>
	<time>2025-08-16T10:21:41.000Z</time>
</trkpt>
<trkpt lat="45.9672640" lon="10.1959820">
	<ele>1486.60</ele>
	<time>2025-08-16T10:21:42.000Z</time>
</trkpt>
<trkpt lat="45.9672750" lon="10.1959920">
	<ele>1486.40</ele>
	<time>2025-08-16T10:21:43.000Z</time>
</trkpt>
<trkpt lat="45.9672860" lon="10.1960020">
	<ele>1486.20</ele>
	<time>2025-08-16T10:21:44.000Z</time>
</trkpt>
<trkpt lat="45.9672980" lon="10.1960150">
	<ele>1486.00</ele>
	<time>2025-08-16T10:21:45.000Z</time>
</trkpt>
<trkpt lat="45.9673100" lon="10.1960290">
	<ele>1485.80</ele>
	<time>2025-08-16T10:21:46.000Z</time>
</trkpt>
<trkpt lat="45.9673200" lon="10.1960430">
	<ele>1485.60</ele>
	<time>2025-08-16T10:21:47.000Z</time>
</trkpt>
<trkpt lat="45.9673300" lon="10.1960600">
	<ele>1485.40</ele>
	<time>2025-08-16T10:21:48.000Z</time>
</trkpt>
<trkpt lat="45.9673410" lon="10.1960760">
	<ele>1485.20</ele>
	<time>2025-08-16T10:21:49.000Z</time>
</trkpt>
<trkpt lat="45.9673500" lon="10.1960950">
	<ele>1484.80</ele>
	<time>2025-08-16T10:21:50.000Z</time>
</trkpt>
<trkpt lat="45.9673610" lon="10.1961130">
	<ele>1484.60</ele>
	<time>2025-08-16T10:21:51.000Z</time>
</trkpt>
<trkpt lat="45.9673730" lon="10.1961280">
	<ele>1484.40</ele>
	<time>2025-08-16T10:21:52.000Z</time>
</trkpt>
<trkpt lat="45.9673850" lon="10.1961450">
	<ele>1484.20</ele>
	<time>2025-08-16T10:21:53.000Z</time>
</trkpt>
<trkpt lat="45.9673980" lon="10.1961610">
	<ele>1483.80</ele>
	<time>2025-08-16T10:21:54.000Z</time>
</trkpt>
<trkpt lat="45.9674120" lon="10.1961740">
	<ele>1483.60</ele>
	<time>2025-08-16T10:21:55.000Z</time>
</trkpt>
<trkpt lat="45.9674260" lon="10.1961840">
	<ele>1483.40</ele>
	<time>2025-08-16T10:21:56.000Z</time>
</trkpt>
<trkpt lat="45.9674390" lon="10.1961910">
	<ele>1483.40</ele>
	<time>2025-08-16T10:21:57.000Z</time>
</trkpt>
<trkpt lat="45.9674540" lon="10.1961970">
	<ele>1483.40</ele>
	<time>2025-08-16T10:21:58.000Z</time>
</trkpt>
<trkpt lat="45.9674690" lon="10.1962010">
	<ele>1483.20</ele>
	<time>2025-08-16T10:21:59.000Z</time>
</trkpt>
<trkpt lat="45.9674830" lon="10.1962050">
	<ele>1483.20</ele>
	<time>2025-08-16T10:22:00.000Z</time>
</trkpt>
<trkpt lat="45.9674980" lon="10.1962070">
	<ele>1483.20</ele>
	<time>2025-08-16T10:22:01.000Z</time>
</trkpt>
<trkpt lat="45.9675090" lon="10.1962080">
	<ele>1483.20</ele>
	<time>2025-08-16T10:22:02.000Z</time>
</trkpt>
<trkpt lat="45.9675190" lon="10.1962070">
	<ele>1483.00</ele>
	<time>2025-08-16T10:22:03.000Z</time>
</trkpt>
<trkpt lat="45.9675300" lon="10.1962080">
	<ele>1482.80</ele>
	<time>2025-08-16T10:22:04.000Z</time>
</trkpt>
<trkpt lat="45.9675450" lon="10.1962090">
	<ele>1482.80</ele>
	<time>2025-08-16T10:22:05.000Z</time>
</trkpt>
<trkpt lat="45.9675580" lon="10.1962120">
	<ele>1482.60</ele>
	<time>2025-08-16T10:22:06.000Z</time>
</trkpt>
<trkpt lat="45.9675680" lon="10.1962200">
	<ele>1482.40</ele>
	<time>2025-08-16T10:22:07.000Z</time>
</trkpt>
<trkpt lat="45.9675760" lon="10.1962320">
	<ele>1482.20</ele>
	<time>2025-08-16T10:22:08.000Z</time>
</trkpt>
<trkpt lat="45.9675840" lon="10.1962470">
	<ele>1481.80</ele>
	<time>2025-08-16T10:22:09.000Z</time>
</trkpt>
<trkpt lat="45.9675920" lon="10.1962610">
	<ele>1481.60</ele>
	<time>2025-08-16T10:22:10.000Z</time>
</trkpt>
<trkpt lat="45.9676010" lon="10.1962720">
	<ele>1481.40</ele>
	<time>2025-08-16T10:22:11.000Z</time>
</trkpt>
<trkpt lat="45.9676100" lon="10.1962860">
	<ele>1481.00</ele>
	<time>2025-08-16T10:22:12.000Z</time>
</trkpt>
<trkpt lat="45.9676190" lon="10.1963010">
	<ele>1480.80</ele>
	<time>2025-08-16T10:22:13.000Z</time>
</trkpt>
<trkpt lat="45.9676280" lon="10.1963160">
	<ele>1480.60</ele>
	<time>2025-08-16T10:22:14.000Z</time>
</trkpt>
<trkpt lat="45.9676380" lon="10.1963310">
	<ele>1480.40</ele>
	<time>2025-08-16T10:22:15.000Z</time>
</trkpt>
<trkpt lat="45.9676480" lon="10.1963440">
	<ele>1480.20</ele>
	<time>2025-08-16T10:22:16.000Z</time>
</trkpt>
<trkpt lat="45.9676570" lon="10.1963580">
	<ele>1480.00</ele>
	<time>2025-08-16T10:22:17.000Z</time>
</trkpt>
<trkpt lat="45.9676660" lon="10.1963720">
	<ele>1479.80</ele>
	<time>2025-08-16T10:22:18.000Z</time>
</trkpt>
<trkpt lat="45.9676740" lon="10.1963880">
	<ele>1479.60</ele>
	<time>2025-08-16T10:22:19.000Z</time>
</trkpt>
<trkpt lat="45.9676820" lon="10.1964030">
	<ele>1479.40</ele>
	<time>2025-08-16T10:22:20.000Z</time>
</trkpt>
<trkpt lat="45.9676860" lon="10.1964170">
	<ele>1479.20</ele>
	<time>2025-08-16T10:22:21.000Z</time>
</trkpt>
<trkpt lat="45.9676920" lon="10.1964330">
	<ele>1479.00</ele>
	<time>2025-08-16T10:22:22.000Z</time>
</trkpt>
<trkpt lat="45.9676990" lon="10.1964490">
	<ele>1479.00</ele>
	<time>2025-08-16T10:22:23.000Z</time>
</trkpt>
<trkpt lat="45.9677080" lon="10.1964670">
	<ele>1478.80</ele>
	<time>2025-08-16T10:22:24.000Z</time>
</trkpt>
<trkpt lat="45.9677180" lon="10.1964790">
	<ele>1478.80</ele>
	<time>2025-08-16T10:22:25.000Z</time>
</trkpt>
<trkpt lat="45.9677290" lon="10.1964880">
	<ele>1478.60</ele>
	<time>2025-08-16T10:22:26.000Z</time>
</trkpt>
<trkpt lat="45.9677400" lon="10.1965010">
	<ele>1478.20</ele>
	<time>2025-08-16T10:22:27.000Z</time>
</trkpt>
<trkpt lat="45.9677530" lon="10.1965130">
	<ele>1477.80</ele>
	<time>2025-08-16T10:22:28.000Z</time>
</trkpt>
<trkpt lat="45.9677670" lon="10.1965230">
	<ele>1477.40</ele>
	<time>2025-08-16T10:22:29.000Z</time>
</trkpt>
<trkpt lat="45.9677780" lon="10.1965280">
	<ele>1477.20</ele>
	<time>2025-08-16T10:22:30.000Z</time>
</trkpt>
<trkpt lat="45.9677880" lon="10.1965350">
	<ele>1477.00</ele>
	<time>2025-08-16T10:22:31.000Z</time>
</trkpt>
<trkpt lat="45.9677990" lon="10.1965420">
	<ele>1476.60</ele>
	<time>2025-08-16T10:22:32.000Z</time>
</trkpt>
<trkpt lat="45.9678120" lon="10.1965480">
	<ele>1476.60</ele>
	<time>2025-08-16T10:22:33.000Z</time>
</trkpt>
<trkpt lat="45.9678260" lon="10.1965540">
	<ele>1476.20</ele>
	<time>2025-08-16T10:22:34.000Z</time>
</trkpt>
<trkpt lat="45.9678390" lon="10.1965590">
	<ele>1476.00</ele>
	<time>2025-08-16T10:22:35.000Z</time>
</trkpt>
<trkpt lat="45.9678520" lon="10.1965660">
	<ele>1475.80</ele>
	<time>2025-08-16T10:22:36.000Z</time>
</trkpt>
<trkpt lat="45.9678660" lon="10.1965720">
	<ele>1475.80</ele>
	<time>2025-08-16T10:22:37.000Z</time>
</trkpt>
<trkpt lat="45.9678790" lon="10.1965800">
	<ele>1475.60</ele>
	<time>2025-08-16T10:22:38.000Z</time>
</trkpt>
<trkpt lat="45.9678920" lon="10.1965840">
	<ele>1475.40</ele>
	<time>2025-08-16T10:22:39.000Z</time>
</trkpt>
<trkpt lat="45.9679050" lon="10.1965920">
	<ele>1475.20</ele>
	<time>2025-08-16T10:22:40.000Z</time>
</trkpt>
<trkpt lat="45.9679150" lon="10.1966010">
	<ele>1475.00</ele>
	<time>2025-08-16T10:22:41.000Z</time>
</trkpt>
<trkpt lat="45.9679250" lon="10.1966120">
	<ele>1474.60</ele>
	<time>2025-08-16T10:22:42.000Z</time>
</trkpt>
<trkpt lat="45.9679360" lon="10.1966210">
	<ele>1474.60</ele>
	<time>2025-08-16T10:22:43.000Z</time>
</trkpt>
<trkpt lat="45.9679490" lon="10.1966280">
	<ele>1474.40</ele>
	<time>2025-08-16T10:22:44.000Z</time>
</trkpt>
<trkpt lat="45.9679610" lon="10.1966330">
	<ele>1474.20</ele>
	<time>2025-08-16T10:22:45.000Z</time>
</trkpt>
<trkpt lat="45.9679730" lon="10.1966390">
	<ele>1473.80</ele>
	<time>2025-08-16T10:22:46.000Z</time>
</trkpt>
<trkpt lat="45.9679850" lon="10.1966480">
	<ele>1473.60</ele>
	<time>2025-08-16T10:22:47.000Z</time>
</trkpt>
<trkpt lat="45.9679940" lon="10.1966570">
	<ele>1473.40</ele>
	<time>2025-08-16T10:22:48.000Z</time>
</trkpt>
<trkpt lat="45.9680020" lon="10.1966690">
	<ele>1473.20</ele>
	<time>2025-08-16T10:22:49.000Z</time>
</trkpt>
<trkpt lat="45.9680130" lon="10.1966780">
	<ele>1473.20</ele>
	<time>2025-08-16T10:22:50.000Z</time>
</trkpt>
<trkpt lat="45.9680270" lon="10.1966860">
	<ele>1473.00</ele>
	<time>2025-08-16T10:22:51.000Z</time>
</trkpt>
<trkpt lat="45.9680420" lon="10.1966910">
	<ele>1472.80</ele>
	<time>2025-08-16T10:22:52.000Z</time>
</trkpt>
<trkpt lat="45.9680590" lon="10.1966980">
	<ele>1472.60</ele>
	<time>2025-08-16T10:22:53.000Z</time>
</trkpt>
<trkpt lat="45.9680710" lon="10.1967030">
	<ele>1472.40</ele>
	<time>2025-08-16T10:22:54.000Z</time>
</trkpt>
<trkpt lat="45.9680830" lon="10.1967110">
	<ele>1472.20</ele>
	<time>2025-08-16T10:22:55.000Z</time>
</trkpt>
<trkpt lat="45.9680950" lon="10.1967200">
	<ele>1472.00</ele>
	<time>2025-08-16T10:22:56.000Z</time>
</trkpt>
<trkpt lat="45.9681060" lon="10.1967300">
	<ele>1471.80</ele>
	<time>2025-08-16T10:22:57.000Z</time>
</trkpt>
<trkpt lat="45.9681150" lon="10.1967380">
	<ele>1471.60</ele>
	<time>2025-08-16T10:22:58.000Z</time>
</trkpt>
<trkpt lat="45.9681250" lon="10.1967460">
	<ele>1471.40</ele>
	<time>2025-08-16T10:22:59.000Z</time>
</trkpt>
<trkpt lat="45.9681380" lon="10.1967560">
	<ele>1471.40</ele>
	<time>2025-08-16T10:23:00.000Z</time>
</trkpt>
<trkpt lat="45.9681520" lon="10.1967670">
	<ele>1471.20</ele>
	<time>2025-08-16T10:23:01.000Z</time>
</trkpt>
<trkpt lat="45.9681650" lon="10.1967790">
	<ele>1471.00</ele>
	<time>2025-08-16T10:23:02.000Z</time>
</trkpt>
<trkpt lat="45.9681750" lon="10.1967910">
	<ele>1470.80</ele>
	<time>2025-08-16T10:23:03.000Z</time>
</trkpt>
<trkpt lat="45.9681860" lon="10.1968040">
	<ele>1470.60</ele>
	<time>2025-08-16T10:23:04.000Z</time>
</trkpt>
<trkpt lat="45.9681970" lon="10.1968180">
	<ele>1470.60</ele>
	<time>2025-08-16T10:23:05.000Z</time>
</trkpt>
<trkpt lat="45.9682070" lon="10.1968320">
	<ele>1470.40</ele>
	<time>2025-08-16T10:23:06.000Z</time>
</trkpt>
<trkpt lat="45.9682170" lon="10.1968470">
	<ele>1470.20</ele>
	<time>2025-08-16T10:23:07.000Z</time>
</trkpt>
<trkpt lat="45.9682280" lon="10.1968620">
	<ele>1470.20</ele>
	<time>2025-08-16T10:23:08.000Z</time>
</trkpt>
<trkpt lat="45.9682390" lon="10.1968780">
	<ele>1469.80</ele>
	<time>2025-08-16T10:23:09.000Z</time>
</trkpt>
<trkpt lat="45.9682470" lon="10.1968870">
	<ele>1469.60</ele>
	<time>2025-08-16T10:23:10.000Z</time>
</trkpt>
<trkpt lat="45.9682580" lon="10.1968990">
	<ele>1469.40</ele>
	<time>2025-08-16T10:23:11.000Z</time>
</trkpt>
<trkpt lat="45.9682700" lon="10.1969080">
	<ele>1469.40</ele>
	<time>2025-08-16T10:23:12.000Z</time>
</trkpt>
<trkpt lat="45.9682820" lon="10.1969190">
	<ele>1469.20</ele>
	<time>2025-08-16T10:23:13.000Z</time>
</trkpt>
<trkpt lat="45.9682940" lon="10.1969310">
	<ele>1469.00</ele>
	<time>2025-08-16T10:23:14.000Z</time>
</trkpt>
<trkpt lat="45.9683020" lon="10.1969460">
	<ele>1468.80</ele>
	<time>2025-08-16T10:23:15.000Z</time>
</trkpt>
<trkpt lat="45.9683110" lon="10.1969610">
	<ele>1468.60</ele>
	<time>2025-08-16T10:23:16.000Z</time>
</trkpt>
<trkpt lat="45.9683210" lon="10.1969750">
	<ele>1468.40</ele>
	<time>2025-08-16T10:23:17.000Z</time>
</trkpt>
<trkpt lat="45.9683310" lon="10.1969900">
	<ele>1468.20</ele>
	<time>2025-08-16T10:23:18.000Z</time>
</trkpt>
<trkpt lat="45.9683400" lon="10.1970060">
	<ele>1468.20</ele>
	<time>2025-08-16T10:23:19.000Z</time>
</trkpt>
<trkpt lat="45.9683490" lon="10.1970200">
	<ele>1468.20</ele>
	<time>2025-08-16T10:23:20.000Z</time>
</trkpt>
<trkpt lat="45.9683580" lon="10.1970340">
	<ele>1468.00</ele>
	<time>2025-08-16T10:23:21.000Z</time>
</trkpt>
<trkpt lat="45.9683670" lon="10.1970460">
	<ele>1468.00</ele>
	<time>2025-08-16T10:23:22.000Z</time>
</trkpt>
<trkpt lat="45.9683770" lon="10.1970610">
	<ele>1468.00</ele>
	<time>2025-08-16T10:23:23.000Z</time>
</trkpt>
<trkpt lat="45.9683870" lon="10.1970720">
	<ele>1468.00</ele>
	<time>2025-08-16T10:23:24.000Z</time>
</trkpt>
<trkpt lat="45.9683960" lon="10.1970840">
	<ele>1467.80</ele>
	<time>2025-08-16T10:23:25.000Z</time>
</trkpt>
<trkpt lat="45.9684050" lon="10.1970980">
	<ele>1467.80</ele>
	<time>2025-08-16T10:23:26.000Z</time>
</trkpt>
<trkpt lat="45.9684130" lon="10.1971120">
	<ele>1467.80</ele>
	<time>2025-08-16T10:23:27.000Z</time>
</trkpt>
<trkpt lat="45.9684230" lon="10.1971270">
	<ele>1467.60</ele>
	<time>2025-08-16T10:23:28.000Z</time>
</trkpt>
<trkpt lat="45.9684310" lon="10.1971390">
	<ele>1467.40</ele>
	<time>2025-08-16T10:23:29.000Z</time>
</trkpt>
<trkpt lat="45.9684390" lon="10.1971540">
	<ele>1467.20</ele>
	<time>2025-08-16T10:23:30.000Z</time>
</trkpt>
<trkpt lat="45.9684470" lon="10.1971710">
	<ele>1467.00</ele>
	<time>2025-08-16T10:23:31.000Z</time>
</trkpt>
<trkpt lat="45.9684550" lon="10.1971880">
	<ele>1466.60</ele>
	<time>2025-08-16T10:23:32.000Z</time>
</trkpt>
<trkpt lat="45.9684640" lon="10.1972040">
	<ele>1466.60</ele>
	<time>2025-08-16T10:23:33.000Z</time>
</trkpt>
<trkpt lat="45.9684730" lon="10.1972190">
	<ele>1466.40</ele>
	<time>2025-08-16T10:23:34.000Z</time>
</trkpt>
<trkpt lat="45.9684810" lon="10.1972340">
	<ele>1466.20</ele>
	<time>2025-08-16T10:23:35.000Z</time>
</trkpt>
<trkpt lat="45.9684870" lon="10.1972510">
	<ele>1466.00</ele>
	<time>2025-08-16T10:23:36.000Z</time>
</trkpt>
<trkpt lat="45.9684970" lon="10.1972660">
	<ele>1466.00</ele>
	<time>2025-08-16T10:23:37.000Z</time>
</trkpt>
<trkpt lat="45.9685090" lon="10.1972790">
	<ele>1465.80</ele>
	<time>2025-08-16T10:23:38.000Z</time>
</trkpt>
<trkpt lat="45.9685180" lon="10.1972920">
	<ele>1465.60</ele>
	<time>2025-08-16T10:23:39.000Z</time>
</trkpt>
<trkpt lat="45.9685270" lon="10.1973090">
	<ele>1465.40</ele>
	<time>2025-08-16T10:23:40.000Z</time>
</trkpt>
<trkpt lat="45.9685380" lon="10.1973240">
	<ele>1465.40</ele>
	<time>2025-08-16T10:23:41.000Z</time>
</trkpt>
<trkpt lat="45.9685450" lon="10.1973410">
	<ele>1465.20</ele>
	<time>2025-08-16T10:23:42.000Z</time>
</trkpt>
<trkpt lat="45.9685510" lon="10.1973590">
	<ele>1465.00</ele>
	<time>2025-08-16T10:23:43.000Z</time>
</trkpt>
<trkpt lat="45.9685580" lon="10.1973780">
	<ele>1464.80</ele>
	<time>2025-08-16T10:23:44.000Z</time>
</trkpt>
<trkpt lat="45.9685660" lon="10.1973960">
	<ele>1464.60</ele>
	<time>2025-08-16T10:23:45.000Z</time>
</trkpt>
<trkpt lat="45.9685720" lon="10.1974140">
	<ele>1464.20</ele>
	<time>2025-08-16T10:23:46.000Z</time>
</trkpt>
<trkpt lat="45.9685800" lon="10.1974340">
	<ele>1464.00</ele>
	<time>2025-08-16T10:23:47.000Z</time>
</trkpt>
<trkpt lat="45.9685860" lon="10.1974530">
	<ele>1464.00</ele>
	<time>2025-08-16T10:23:48.000Z</time>
</trkpt>
<trkpt lat="45.9685900" lon="10.1974700">
	<ele>1463.80</ele>
	<time>2025-08-16T10:23:49.000Z</time>
</trkpt>
<trkpt lat="45.9685950" lon="10.1974810">
	<ele>1463.60</ele>
	<time>2025-08-16T10:23:50.000Z</time>
</trkpt>
<trkpt lat="45.9685960" lon="10.1974890">
	<ele>1463.60</ele>
	<time>2025-08-16T10:23:51.000Z</time>
</trkpt>
<trkpt lat="45.9685950" lon="10.1974950">
	<ele>1463.40</ele>
	<time>2025-08-16T10:23:52.000Z</time>
</trkpt>
<trkpt lat="45.9685950" lon="10.1975060">
	<ele>1463.40</ele>
	<time>2025-08-16T10:23:53.000Z</time>
</trkpt>
<trkpt lat="45.9685990" lon="10.1975180">
	<ele>1463.20</ele>
	<time>2025-08-16T10:23:54.000Z</time>
</trkpt>
<trkpt lat="45.9686040" lon="10.1975290">
	<ele>1463.20</ele>
	<time>2025-08-16T10:23:55.000Z</time>
</trkpt>
<trkpt lat="45.9686080" lon="10.1975380">
	<ele>1463.20</ele>
	<time>2025-08-16T10:23:56.000Z</time>
</trkpt>
<trkpt lat="45.9686130" lon="10.1975480">
	<ele>1463.20</ele>
	<time>2025-08-16T10:23:57.000Z</time>
</trkpt>
<trkpt lat="45.9686140" lon="10.1975520">
	<ele>1463.20</ele>
	<time>2025-08-16T10:23:58.000Z</time>
</trkpt>
<trkpt lat="45.9686140" lon="10.1975560">
	<ele>1463.00</ele>
	<time>2025-08-16T10:23:59.000Z</time>
</trkpt>
<trkpt lat="45.9686140" lon="10.1975580">
	<ele>1463.00</ele>
	<time>2025-08-16T10:24:00.000Z</time>
</trkpt>
<trkpt lat="45.9686130" lon="10.1975590">
	<ele>1462.80</ele>
	<time>2025-08-16T10:24:01.000Z</time>
</trkpt>
<trkpt lat="45.9686130" lon="10.1975590">
	<ele>1462.80</ele>
	<time>2025-08-16T10:24:02.000Z</time>
</trkpt>
<trkpt lat="45.9686130" lon="10.1975590">
	<ele>1462.80</ele>
	<time>2025-08-16T10:24:03.000Z</time>
</trkpt>
<trkpt lat="45.9686130" lon="10.1975580">
	<ele>1462.80</ele>
	<time>2025-08-16T10:24:04.000Z</time>
</trkpt>
<trkpt lat="45.9686140" lon="10.1975580">
	<ele>1462.80</ele>
	<time>2025-08-16T10:24:05.000Z</time>
</trkpt>
<trkpt lat="45.9686150" lon="10.1975580">
	<ele>1462.80</ele>
	<time>2025-08-16T10:24:06.000Z</time>
</trkpt>
<trkpt lat="45.9686170" lon="10.1975640">
	<ele>1462.80</ele>
	<time>2025-08-16T10:24:07.000Z</time>
</trkpt>
<trkpt lat="45.9686210" lon="10.1975760">
	<ele>1462.80</ele>
	<time>2025-08-16T10:24:08.000Z</time>
</trkpt>
<trkpt lat="45.9686250" lon="10.1975890">
	<ele>1462.80</ele>
	<time>2025-08-16T10:24:09.000Z</time>
</trkpt>
<trkpt lat="45.9686290" lon="10.1976040">
	<ele>1462.80</ele>
	<time>2025-08-16T10:24:10.000Z</time>
</trkpt>
<trkpt lat="45.9686350" lon="10.1976230">
	<ele>1462.60</ele>
	<time>2025-08-16T10:24:11.000Z</time>
</trkpt>
<trkpt lat="45.9686400" lon="10.1976380">
	<ele>1462.60</ele>
	<time>2025-08-16T10:24:12.000Z</time>
</trkpt>
<trkpt lat="45.9686450" lon="10.1976530">
	<ele>1462.40</ele>
	<time>2025-08-16T10:24:13.000Z</time>
</trkpt>
<trkpt lat="45.9686520" lon="10.1976680">
	<ele>1462.20</ele>
	<time>2025-08-16T10:24:14.000Z</time>
</trkpt>
<trkpt lat="45.9686570" lon="10.1976820">
	<ele>1462.00</ele>
	<time>2025-08-16T10:24:15.000Z</time>
</trkpt>
<trkpt lat="45.9686640" lon="10.1977000">
	<ele>1461.80</ele>
	<time>2025-08-16T10:24:16.000Z</time>
</trkpt>
<trkpt lat="45.9686700" lon="10.1977130">
	<ele>1461.80</ele>
	<time>2025-08-16T10:24:17.000Z</time>
</trkpt>
<trkpt lat="45.9686790" lon="10.1977300">
	<ele>1461.60</ele>
	<time>2025-08-16T10:24:18.000Z</time>
</trkpt>
<trkpt lat="45.9686870" lon="10.1977490">
	<ele>1461.60</ele>
	<time>2025-08-16T10:24:19.000Z</time>
</trkpt>
<trkpt lat="45.9686940" lon="10.1977640">
	<ele>1461.60</ele>
	<time>2025-08-16T10:24:20.000Z</time>
</trkpt>
<trkpt lat="45.9686980" lon="10.1977820">
	<ele>1461.40</ele>
	<time>2025-08-16T10:24:21.000Z</time>
</trkpt>
<trkpt lat="45.9687030" lon="10.1977970">
	<ele>1461.20</ele>
	<time>2025-08-16T10:24:22.000Z</time>
</trkpt>
<trkpt lat="45.9687100" lon="10.1978220">
	<ele>1461.00</ele>
	<time>2025-08-16T10:24:23.000Z</time>
</trkpt>
<trkpt lat="45.9687160" lon="10.1978430">
	<ele>1460.80</ele>
	<time>2025-08-16T10:24:24.000Z</time>
</trkpt>
<trkpt lat="45.9687230" lon="10.1978650">
	<ele>1460.60</ele>
	<time>2025-08-16T10:24:25.000Z</time>
</trkpt>
<trkpt lat="45.9687300" lon="10.1978840">
	<ele>1460.60</ele>
	<time>2025-08-16T10:24:26.000Z</time>
</trkpt>
<trkpt lat="45.9687400" lon="10.1979030">
	<ele>1460.40</ele>
	<time>2025-08-16T10:24:27.000Z</time>
</trkpt>
<trkpt lat="45.9687470" lon="10.1979160">
	<ele>1460.20</ele>
	<time>2025-08-16T10:24:28.000Z</time>
</trkpt>
<trkpt lat="45.9687560" lon="10.1979360">
	<ele>1460.20</ele>
	<time>2025-08-16T10:24:29.000Z</time>
</trkpt>
<trkpt lat="45.9687630" lon="10.1979530">
	<ele>1460.00</ele>
	<time>2025-08-16T10:24:30.000Z</time>
</trkpt>
<trkpt lat="45.9687710" lon="10.1979730">
	<ele>1460.00</ele>
	<time>2025-08-16T10:24:31.000Z</time>
</trkpt>
<trkpt lat="45.9687810" lon="10.1979880">
	<ele>1460.00</ele>
	<time>2025-08-16T10:24:32.000Z</time>
</trkpt>
<trkpt lat="45.9687890" lon="10.1980030">
	<ele>1459.60</ele>
	<time>2025-08-16T10:24:33.000Z</time>
</trkpt>
<trkpt lat="45.9687970" lon="10.1980210">
	<ele>1459.40</ele>
	<time>2025-08-16T10:24:34.000Z</time>
</trkpt>
<trkpt lat="45.9688040" lon="10.1980390">
	<ele>1459.20</ele>
	<time>2025-08-16T10:24:35.000Z</time>
</trkpt>
<trkpt lat="45.9688100" lon="10.1980560">
	<ele>1459.20</ele>
	<time>2025-08-16T10:24:36.000Z</time>
</trkpt>
<trkpt lat="45.9688170" lon="10.1980710">
	<ele>1459.00</ele>
	<time>2025-08-16T10:24:37.000Z</time>
</trkpt>
<trkpt lat="45.9688270" lon="10.1980940">
	<ele>1458.80</ele>
	<time>2025-08-16T10:24:38.000Z</time>
</trkpt>
<trkpt lat="45.9688360" lon="10.1981100">
	<ele>1458.60</ele>
	<time>2025-08-16T10:24:39.000Z</time>
</trkpt>
<trkpt lat="45.9688450" lon="10.1981260">
	<ele>1458.40</ele>
	<time>2025-08-16T10:24:40.000Z</time>
</trkpt>
<trkpt lat="45.9688510" lon="10.1981430">
	<ele>1458.40</ele>
	<time>2025-08-16T10:24:41.000Z</time>
</trkpt>
<trkpt lat="45.9688580" lon="10.1981590">
	<ele>1458.20</ele>
	<time>2025-08-16T10:24:42.000Z</time>
</trkpt>
<trkpt lat="45.9688650" lon="10.1981760">
	<ele>1458.00</ele>
	<time>2025-08-16T10:24:43.000Z</time>
</trkpt>
<trkpt lat="45.9688700" lon="10.1981940">
	<ele>1458.00</ele>
	<time>2025-08-16T10:24:44.000Z</time>
</trkpt>
<trkpt lat="45.9688760" lon="10.1982100">
	<ele>1457.80</ele>
	<time>2025-08-16T10:24:45.000Z</time>
</trkpt>
<trkpt lat="45.9688820" lon="10.1982270">
	<ele>1457.80</ele>
	<time>2025-08-16T10:24:46.000Z</time>
</trkpt>
<trkpt lat="45.9688890" lon="10.1982440">
	<ele>1457.60</ele>
	<time>2025-08-16T10:24:47.000Z</time>
</trkpt>
<trkpt lat="45.9688960" lon="10.1982600">
	<ele>1457.60</ele>
	<time>2025-08-16T10:24:48.000Z</time>
</trkpt>
<trkpt lat="45.9689010" lon="10.1982770">
	<ele>1457.40</ele>
	<time>2025-08-16T10:24:49.000Z</time>
</trkpt>
<trkpt lat="45.9689060" lon="10.1982910">
	<ele>1457.20</ele>
	<time>2025-08-16T10:24:50.000Z</time>
</trkpt>
<trkpt lat="45.9689160" lon="10.1983120">
	<ele>1457.20</ele>
	<time>2025-08-16T10:24:51.000Z</time>
</trkpt>
<trkpt lat="45.9689200" lon="10.1983270">
	<ele>1457.00</ele>
	<time>2025-08-16T10:24:52.000Z</time>
</trkpt>
<trkpt lat="45.9689300" lon="10.1983450">
	<ele>1456.80</ele>
	<time>2025-08-16T10:24:53.000Z</time>
</trkpt>
<trkpt lat="45.9689400" lon="10.1983640">
	<ele>1456.80</ele>
	<time>2025-08-16T10:24:54.000Z</time>
</trkpt>
<trkpt lat="45.9689470" lon="10.1983850">
	<ele>1456.60</ele>
	<time>2025-08-16T10:24:55.000Z</time>
</trkpt>
<trkpt lat="45.9689530" lon="10.1984030">
	<ele>1456.40</ele>
	<time>2025-08-16T10:24:56.000Z</time>
</trkpt>
<trkpt lat="45.9689580" lon="10.1984220">
	<ele>1456.20</ele>
	<time>2025-08-16T10:24:57.000Z</time>
</trkpt>
<trkpt lat="45.9689660" lon="10.1984400">
	<ele>1456.00</ele>
	<time>2025-08-16T10:24:58.000Z</time>
</trkpt>
<trkpt lat="45.9689690" lon="10.1984570">
	<ele>1455.80</ele>
	<time>2025-08-16T10:24:59.000Z</time>
</trkpt>
<trkpt lat="45.9689730" lon="10.1984760">
	<ele>1455.80</ele>
	<time>2025-08-16T10:25:00.000Z</time>
</trkpt>
<trkpt lat="45.9689750" lon="10.1984950">
	<ele>1455.60</ele>
	<time>2025-08-16T10:25:01.000Z</time>
</trkpt>
<trkpt lat="45.9689760" lon="10.1985110">
	<ele>1455.40</ele>
	<time>2025-08-16T10:25:02.000Z</time>
</trkpt>
<trkpt lat="45.9689770" lon="10.1985270">
	<ele>1455.40</ele>
	<time>2025-08-16T10:25:03.000Z</time>
</trkpt>
<trkpt lat="45.9689770" lon="10.1985480">
	<ele>1455.40</ele>
	<time>2025-08-16T10:25:04.000Z</time>
</trkpt>
<trkpt lat="45.9689770" lon="10.1985720">
	<ele>1455.20</ele>
	<time>2025-08-16T10:25:05.000Z</time>
</trkpt>
<trkpt lat="45.9689790" lon="10.1985890">
	<ele>1455.00</ele>
	<time>2025-08-16T10:25:06.000Z</time>
</trkpt>
<trkpt lat="45.9689810" lon="10.1986080">
	<ele>1454.80</ele>
	<time>2025-08-16T10:25:07.000Z</time>
</trkpt>
<trkpt lat="45.9689810" lon="10.1986280">
	<ele>1454.80</ele>
	<time>2025-08-16T10:25:08.000Z</time>
</trkpt>
<trkpt lat="45.9689790" lon="10.1986490">
	<ele>1454.60</ele>
	<time>2025-08-16T10:25:09.000Z</time>
</trkpt>
<trkpt lat="45.9689770" lon="10.1986690">
	<ele>1454.40</ele>
	<time>2025-08-16T10:25:10.000Z</time>
</trkpt>
<trkpt lat="45.9689800" lon="10.1986830">
	<ele>1454.40</ele>
	<time>2025-08-16T10:25:11.000Z</time>
</trkpt>
<trkpt lat="45.9689810" lon="10.1987060">
	<ele>1454.20</ele>
	<time>2025-08-16T10:25:12.000Z</time>
</trkpt>
<trkpt lat="45.9689810" lon="10.1987220">
	<ele>1454.00</ele>
	<time>2025-08-16T10:25:13.000Z</time>
</trkpt>
<trkpt lat="45.9689820" lon="10.1987430">
	<ele>1454.00</ele>
	<time>2025-08-16T10:25:14.000Z</time>
</trkpt>
<trkpt lat="45.9689840" lon="10.1987630">
	<ele>1453.80</ele>
	<time>2025-08-16T10:25:15.000Z</time>
</trkpt>
<trkpt lat="45.9689850" lon="10.1987830">
	<ele>1453.80</ele>
	<time>2025-08-16T10:25:16.000Z</time>
</trkpt>
<trkpt lat="45.9689850" lon="10.1988030">
	<ele>1453.60</ele>
	<time>2025-08-16T10:25:17.000Z</time>
</trkpt>
<trkpt lat="45.9689840" lon="10.1988330">
	<ele>1453.60</ele>
	<time>2025-08-16T10:25:18.000Z</time>
</trkpt>
<trkpt lat="45.9689850" lon="10.1988540">
	<ele>1453.40</ele>
	<time>2025-08-16T10:25:19.000Z</time>
</trkpt>
<trkpt lat="45.9689870" lon="10.1988770">
	<ele>1453.40</ele>
	<time>2025-08-16T10:25:20.000Z</time>
</trkpt>
<trkpt lat="45.9689900" lon="10.1988980">
	<ele>1453.40</ele>
	<time>2025-08-16T10:25:21.000Z</time>
</trkpt>
<trkpt lat="45.9689920" lon="10.1989160">
	<ele>1453.40</ele>
	<time>2025-08-16T10:25:22.000Z</time>
</trkpt>
<trkpt lat="45.9689950" lon="10.1989370">
	<ele>1453.40</ele>
	<time>2025-08-16T10:25:23.000Z</time>
</trkpt>
<trkpt lat="45.9689960" lon="10.1989600">
	<ele>1453.20</ele>
	<time>2025-08-16T10:25:24.000Z</time>
</trkpt>
<trkpt lat="45.9689980" lon="10.1989860">
	<ele>1453.20</ele>
	<time>2025-08-16T10:25:25.000Z</time>
</trkpt>
<trkpt lat="45.9689990" lon="10.1990110">
	<ele>1453.20</ele>
	<time>2025-08-16T10:25:26.000Z</time>
</trkpt>
<trkpt lat="45.9690010" lon="10.1990330">
	<ele>1453.00</ele>
	<time>2025-08-16T10:25:27.000Z</time>
</trkpt>
<trkpt lat="45.9690030" lon="10.1990520">
	<ele>1453.00</ele>
	<time>2025-08-16T10:25:28.000Z</time>
</trkpt>
<trkpt lat="45.9690050" lon="10.1990710">
	<ele>1453.00</ele>
	<time>2025-08-16T10:25:29.000Z</time>
</trkpt>
<trkpt lat="45.9690110" lon="10.1990940">
	<ele>1452.80</ele>
	<time>2025-08-16T10:25:30.000Z</time>
</trkpt>
<trkpt lat="45.9690150" lon="10.1991140">
	<ele>1452.60</ele>
	<time>2025-08-16T10:25:31.000Z</time>
</trkpt>
<trkpt lat="45.9690200" lon="10.1991300">
	<ele>1452.60</ele>
	<time>2025-08-16T10:25:32.000Z</time>
</trkpt>
<trkpt lat="45.9690230" lon="10.1991500">
	<ele>1452.40</ele>
	<time>2025-08-16T10:25:33.000Z</time>
</trkpt>
<trkpt lat="45.9690250" lon="10.1991690">
	<ele>1452.40</ele>
	<time>2025-08-16T10:25:34.000Z</time>
</trkpt>
<trkpt lat="45.9690280" lon="10.1991850">
	<ele>1452.40</ele>
	<time>2025-08-16T10:25:35.000Z</time>
</trkpt>
<trkpt lat="45.9690330" lon="10.1992000">
	<ele>1452.40</ele>
	<time>2025-08-16T10:25:36.000Z</time>
</trkpt>
<trkpt lat="45.9690390" lon="10.1992150">
	<ele>1452.40</ele>
	<time>2025-08-16T10:25:37.000Z</time>
</trkpt>
<trkpt lat="45.9690430" lon="10.1992280">
	<ele>1452.60</ele>
	<time>2025-08-16T10:25:38.000Z</time>
</trkpt>
<trkpt lat="45.9690450" lon="10.1992410">
	<ele>1452.60</ele>
	<time>2025-08-16T10:25:39.000Z</time>
</trkpt>
<trkpt lat="45.9690460" lon="10.1992560">
	<ele>1452.60</ele>
	<time>2025-08-16T10:25:40.000Z</time>
</trkpt>
<trkpt lat="45.9690430" lon="10.1992620">
	<ele>1452.60</ele>
	<time>2025-08-16T10:25:41.000Z</time>
</trkpt>
<trkpt lat="45.9690460" lon="10.1992850">
	<ele>1452.60</ele>
	<time>2025-08-16T10:25:42.000Z</time>
</trkpt>
<trkpt lat="45.9690550" lon="10.1993000">
	<ele>1452.40</ele>
	<time>2025-08-16T10:25:43.000Z</time>
</trkpt>
<trkpt lat="45.9690610" lon="10.1993110">
	<ele>1452.20</ele>
	<time>2025-08-16T10:25:44.000Z</time>
</trkpt>
<trkpt lat="45.9690680" lon="10.1993310">
	<ele>1452.20</ele>
	<time>2025-08-16T10:25:45.000Z</time>
</trkpt>
<trkpt lat="45.9690710" lon="10.1993480">
	<ele>1452.00</ele>
	<time>2025-08-16T10:25:46.000Z</time>
</trkpt>
<trkpt lat="45.9690760" lon="10.1993760">
	<ele>1451.80</ele>
	<time>2025-08-16T10:25:47.000Z</time>
</trkpt>
<trkpt lat="45.9690770" lon="10.1993980">
	<ele>1451.80</ele>
	<time>2025-08-16T10:25:48.000Z</time>
</trkpt>
<trkpt lat="45.9690790" lon="10.1994180">
	<ele>1451.80</ele>
	<time>2025-08-16T10:25:49.000Z</time>
</trkpt>
<trkpt lat="45.9690810" lon="10.1994370">
	<ele>1451.60</ele>
	<time>2025-08-16T10:25:50.000Z</time>
</trkpt>
<trkpt lat="45.9690820" lon="10.1994580">
	<ele>1451.60</ele>
	<time>2025-08-16T10:25:51.000Z</time>
</trkpt>
<trkpt lat="45.9690860" lon="10.1994770">
	<ele>1451.40</ele>
	<time>2025-08-16T10:25:52.000Z</time>
</trkpt>
<trkpt lat="45.9690900" lon="10.1994960">
	<ele>1451.40</ele>
	<time>2025-08-16T10:25:53.000Z</time>
</trkpt>
<trkpt lat="45.9690940" lon="10.1995140">
	<ele>1451.40</ele>
	<time>2025-08-16T10:25:54.000Z</time>
</trkpt>
<trkpt lat="45.9690960" lon="10.1995300">
	<ele>1451.20</ele>
	<time>2025-08-16T10:25:55.000Z</time>
</trkpt>
<trkpt lat="45.9690990" lon="10.1995510">
	<ele>1451.20</ele>
	<time>2025-08-16T10:25:56.000Z</time>
</trkpt>
<trkpt lat="45.9691020" lon="10.1995680">
	<ele>1451.20</ele>
	<time>2025-08-16T10:25:57.000Z</time>
</trkpt>
<trkpt lat="45.9691060" lon="10.1995830">
	<ele>1451.20</ele>
	<time>2025-08-16T10:25:58.000Z</time>
</trkpt>
<trkpt lat="45.9691110" lon="10.1996070">
	<ele>1451.20</ele>
	<time>2025-08-16T10:25:59.000Z</time>
</trkpt>
<trkpt lat="45.9691170" lon="10.1996260">
	<ele>1451.20</ele>
	<time>2025-08-16T10:26:00.000Z</time>
</trkpt>
<trkpt lat="45.9691220" lon="10.1996450">
	<ele>1451.20</ele>
	<time>2025-08-16T10:26:01.000Z</time>
</trkpt>
<trkpt lat="45.9691280" lon="10.1996640">
	<ele>1451.20</ele>
	<time>2025-08-16T10:26:02.000Z</time>
</trkpt>
<trkpt lat="45.9691330" lon="10.1996830">
	<ele>1451.20</ele>
	<time>2025-08-16T10:26:03.000Z</time>
</trkpt>
<trkpt lat="45.9691390" lon="10.1996980">
	<ele>1451.00</ele>
	<time>2025-08-16T10:26:04.000Z</time>
</trkpt>
<trkpt lat="45.9691470" lon="10.1997210">
	<ele>1451.00</ele>
	<time>2025-08-16T10:26:05.000Z</time>
</trkpt>
<trkpt lat="45.9691550" lon="10.1997400">
	<ele>1450.80</ele>
	<time>2025-08-16T10:26:06.000Z</time>
</trkpt>
<trkpt lat="45.9691620" lon="10.1997580">
	<ele>1450.60</ele>
	<time>2025-08-16T10:26:07.000Z</time>
</trkpt>
<trkpt lat="45.9691670" lon="10.1997730">
	<ele>1450.60</ele>
	<time>2025-08-16T10:26:08.000Z</time>
</trkpt>
<trkpt lat="45.9691730" lon="10.1997930">
	<ele>1450.40</ele>
	<time>2025-08-16T10:26:09.000Z</time>
</trkpt>
<trkpt lat="45.9691770" lon="10.1998040">
	<ele>1450.40</ele>
	<time>2025-08-16T10:26:10.000Z</time>
</trkpt>
<trkpt lat="45.9691800" lon="10.1998160">
	<ele>1450.40</ele>
	<time>2025-08-16T10:26:11.000Z</time>
</trkpt>
<trkpt lat="45.9691800" lon="10.1998210">
	<ele>1450.40</ele>
	<time>2025-08-16T10:26:12.000Z</time>
</trkpt>
<trkpt lat="45.9691820" lon="10.1998240">
	<ele>1450.40</ele>
	<time>2025-08-16T10:26:13.000Z</time>
</trkpt>
<trkpt lat="45.9691850" lon="10.1998280">
	<ele>1450.40</ele>
	<time>2025-08-16T10:26:14.000Z</time>
</trkpt>
<trkpt lat="45.9691890" lon="10.1998360">
	<ele>1450.40</ele>
	<time>2025-08-16T10:26:15.000Z</time>
</trkpt>
<trkpt lat="45.9691920" lon="10.1998470">
	<ele>1450.20</ele>
	<time>2025-08-16T10:26:16.000Z</time>
</trkpt>
<trkpt lat="45.9691940" lon="10.1998640">
	<ele>1450.00</ele>
	<time>2025-08-16T10:26:17.000Z</time>
</trkpt>
<trkpt lat="45.9691970" lon="10.1998720">
	<ele>1449.80</ele>
	<time>2025-08-16T10:26:18.000Z</time>
</trkpt>
<trkpt lat="45.9691980" lon="10.1998860">
	<ele>1449.80</ele>
	<time>2025-08-16T10:26:19.000Z</time>
</trkpt>
<trkpt lat="45.9691980" lon="10.1999000">
	<ele>1449.60</ele>
	<time>2025-08-16T10:26:20.000Z</time>
</trkpt>
<trkpt lat="45.9691970" lon="10.1999130">
	<ele>1449.40</ele>
	<time>2025-08-16T10:26:21.000Z</time>
</trkpt>
<trkpt lat="45.9691920" lon="10.1999270">
	<ele>1449.20</ele>
	<time>2025-08-16T10:26:22.000Z</time>
</trkpt>
<trkpt lat="45.9691890" lon="10.1999450">
	<ele>1448.80</ele>
	<time>2025-08-16T10:26:23.000Z</time>
</trkpt>
<trkpt lat="45.9691870" lon="10.1999580">
	<ele>1448.20</ele>
	<time>2025-08-16T10:26:24.000Z</time>
</trkpt>
<trkpt lat="45.9691860" lon="10.1999710">
	<ele>1448.00</ele>
	<time>2025-08-16T10:26:25.000Z</time>
</trkpt>
<trkpt lat="45.9691820" lon="10.1999790">
	<ele>1447.80</ele>
	<time>2025-08-16T10:26:26.000Z</time>
</trkpt>
<trkpt lat="45.9691790" lon="10.1999920">
	<ele>1447.20</ele>
	<time>2025-08-16T10:26:27.000Z</time>
</trkpt>
<trkpt lat="45.9691780" lon="10.2000090">
	<ele>1446.80</ele>
	<time>2025-08-16T10:26:28.000Z</time>
</trkpt>
<trkpt lat="45.9691810" lon="10.2000220">
	<ele>1446.40</ele>
	<time>2025-08-16T10:26:29.000Z</time>
</trkpt>
<trkpt lat="45.9691830" lon="10.2000430">
	<ele>1446.00</ele>
	<time>2025-08-16T10:26:30.000Z</time>
</trkpt>
<trkpt lat="45.9691910" lon="10.2000590">
	<ele>1445.80</ele>
	<time>2025-08-16T10:26:31.000Z</time>
</trkpt>
<trkpt lat="45.9691980" lon="10.2000710">
	<ele>1445.60</ele>
	<time>2025-08-16T10:26:32.000Z</time>
</trkpt>
<trkpt lat="45.9692010" lon="10.2000830">
	<ele>1445.40</ele>
	<time>2025-08-16T10:26:33.000Z</time>
</trkpt>
<trkpt lat="45.9692000" lon="10.2000920">
	<ele>1445.20</ele>
	<time>2025-08-16T10:26:34.000Z</time>
</trkpt>
<trkpt lat="45.9692030" lon="10.2000950">
	<ele>1444.80</ele>
	<time>2025-08-16T10:26:35.000Z</time>
</trkpt>
<trkpt lat="45.9692050" lon="10.2000970">
	<ele>1444.60</ele>
	<time>2025-08-16T10:26:36.000Z</time>
</trkpt>
<trkpt lat="45.9692050" lon="10.2001000">
	<ele>1444.40</ele>
	<time>2025-08-16T10:26:37.000Z</time>
</trkpt>
<trkpt lat="45.9692060" lon="10.2001030">
	<ele>1444.20</ele>
	<time>2025-08-16T10:26:38.000Z</time>
</trkpt>
<trkpt lat="45.9692100" lon="10.2001070">
	<ele>1444.00</ele>
	<time>2025-08-16T10:26:39.000Z</time>
</trkpt>
<trkpt lat="45.9692140" lon="10.2001070">
	<ele>1443.60</ele>
	<time>2025-08-16T10:26:40.000Z</time>
</trkpt>
<trkpt lat="45.9692160" lon="10.2001240">
	<ele>1443.20</ele>
	<time>2025-08-16T10:26:41.000Z</time>
</trkpt>
<trkpt lat="45.9692110" lon="10.2001470">
	<ele>1443.00</ele>
	<time>2025-08-16T10:26:42.000Z</time>
</trkpt>
<trkpt lat="45.9692060" lon="10.2001630">
	<ele>1442.80</ele>
	<time>2025-08-16T10:26:43.000Z</time>
</trkpt>
<trkpt lat="45.9692040" lon="10.2001740">
	<ele>1442.40</ele>
	<time>2025-08-16T10:26:44.000Z</time>
</trkpt>
<trkpt lat="45.9691990" lon="10.2001920">
	<ele>1442.20</ele>
	<time>2025-08-16T10:26:45.000Z</time>
</trkpt>
<trkpt lat="45.9691910" lon="10.2002080">
	<ele>1441.80</ele>
	<time>2025-08-16T10:26:46.000Z</time>
</trkpt>
<trkpt lat="45.9691820" lon="10.2002310">
	<ele>1441.40</ele>
	<time>2025-08-16T10:26:47.000Z</time>
</trkpt>
<trkpt lat="45.9691730" lon="10.2002450">
	<ele>1441.20</ele>
	<time>2025-08-16T10:26:48.000Z</time>
</trkpt>
<trkpt lat="45.9691670" lon="10.2002570">
	<ele>1440.80</ele>
	<time>2025-08-16T10:26:49.000Z</time>
</trkpt>
<trkpt lat="45.9691620" lon="10.2002700">
	<ele>1440.40</ele>
	<time>2025-08-16T10:26:50.000Z</time>
</trkpt>
<trkpt lat="45.9691580" lon="10.2002840">
	<ele>1440.20</ele>
	<time>2025-08-16T10:26:51.000Z</time>
</trkpt>
<trkpt lat="45.9691520" lon="10.2003050">
	<ele>1439.80</ele>
	<time>2025-08-16T10:26:52.000Z</time>
</trkpt>
<trkpt lat="45.9691420" lon="10.2003220">
	<ele>1439.60</ele>
	<time>2025-08-16T10:26:53.000Z</time>
</trkpt>
<trkpt lat="45.9691320" lon="10.2003360">
	<ele>1439.40</ele>
	<time>2025-08-16T10:26:54.000Z</time>
</trkpt>
<trkpt lat="45.9691270" lon="10.2003440">
	<ele>1438.80</ele>
	<time>2025-08-16T10:26:55.000Z</time>
</trkpt>
<trkpt lat="45.9691120" lon="10.2003620">
	<ele>1438.60</ele>
	<time>2025-08-16T10:26:56.000Z</time>
</trkpt>
<trkpt lat="45.9690990" lon="10.2003750">
	<ele>1438.40</ele>
	<time>2025-08-16T10:26:57.000Z</time>
</trkpt>
<trkpt lat="45.9690890" lon="10.2003880">
	<ele>1438.20</ele>
	<time>2025-08-16T10:26:58.000Z</time>
</trkpt>
<trkpt lat="45.9690810" lon="10.2003980">
	<ele>1438.00</ele>
	<time>2025-08-16T10:26:59.000Z</time>
</trkpt>
<trkpt lat="45.9690730" lon="10.2004070">
	<ele>1437.80</ele>
	<time>2025-08-16T10:27:00.000Z</time>
</trkpt>
<trkpt lat="45.9690620" lon="10.2004160">
	<ele>1437.40</ele>
	<time>2025-08-16T10:27:01.000Z</time>
</trkpt>
<trkpt lat="45.9690490" lon="10.2004230">
	<ele>1437.20</ele>
	<time>2025-08-16T10:27:02.000Z</time>
</trkpt>
<trkpt lat="45.9690340" lon="10.2004320">
	<ele>1437.00</ele>
	<time>2025-08-16T10:27:03.000Z</time>
</trkpt>
<trkpt lat="45.9690190" lon="10.2004410">
	<ele>1436.60</ele>
	<time>2025-08-16T10:27:04.000Z</time>
</trkpt>
<trkpt lat="45.9690050" lon="10.2004510">
	<ele>1436.20</ele>
	<time>2025-08-16T10:27:05.000Z</time>
</trkpt>
<trkpt lat="45.9689890" lon="10.2004620">
	<ele>1436.00</ele>
	<time>2025-08-16T10:27:06.000Z</time>
</trkpt>
<trkpt lat="45.9689800" lon="10.2004790">
	<ele>1435.60</ele>
	<time>2025-08-16T10:27:07.000Z</time>
</trkpt>
<trkpt lat="45.9689700" lon="10.2004930">
	<ele>1435.20</ele>
	<time>2025-08-16T10:27:08.000Z</time>
</trkpt>
<trkpt lat="45.9689550" lon="10.2005110">
	<ele>1435.00</ele>
	<time>2025-08-16T10:27:09.000Z</time>
</trkpt>
<trkpt lat="45.9689410" lon="10.2005380">
	<ele>1434.80</ele>
	<time>2025-08-16T10:27:10.000Z</time>
</trkpt>
<trkpt lat="45.9689270" lon="10.2005610">
	<ele>1434.60</ele>
	<time>2025-08-16T10:27:11.000Z</time>
</trkpt>
<trkpt lat="45.9689140" lon="10.2005750">
	<ele>1434.40</ele>
	<time>2025-08-16T10:27:12.000Z</time>
</trkpt>
<trkpt lat="45.9689000" lon="10.2005860">
	<ele>1434.20</ele>
	<time>2025-08-16T10:27:13.000Z</time>
</trkpt>
<trkpt lat="45.9688890" lon="10.2005910">
	<ele>1434.20</ele>
	<time>2025-08-16T10:27:14.000Z</time>
</trkpt>
<trkpt lat="45.9688870" lon="10.2005920">
	<ele>1434.00</ele>
	<time>2025-08-16T10:27:15.000Z</time>
</trkpt>
<trkpt lat="45.9688840" lon="10.2005930">
	<ele>1433.80</ele>
	<time>2025-08-16T10:27:16.000Z</time>
</trkpt>
<trkpt lat="45.9688810" lon="10.2005890">
	<ele>1433.60</ele>
	<time>2025-08-16T10:27:17.000Z</time>
</trkpt>
<trkpt lat="45.9688740" lon="10.2005850">
	<ele>1433.40</ele>
	<time>2025-08-16T10:27:18.000Z</time>
</trkpt>
<trkpt lat="45.9688610" lon="10.2005840">
	<ele>1433.20</ele>
	<time>2025-08-16T10:27:19.000Z</time>
</trkpt>
<trkpt lat="45.9688510" lon="10.2005850">
	<ele>1433.20</ele>
	<time>2025-08-16T10:27:20.000Z</time>
</trkpt>
<trkpt lat="45.9688410" lon="10.2005890">
	<ele>1433.20</ele>
	<time>2025-08-16T10:27:21.000Z</time>
</trkpt>
<trkpt lat="45.9688290" lon="10.2005990">
	<ele>1433.20</ele>
	<time>2025-08-16T10:27:22.000Z</time>
</trkpt>
<trkpt lat="45.9688190" lon="10.2005930">
	<ele>1433.20</ele>
	<time>2025-08-16T10:27:23.000Z</time>
</trkpt>
<trkpt lat="45.9688000" lon="10.2005840">
	<ele>1433.00</ele>
	<time>2025-08-16T10:27:24.000Z</time>
</trkpt>
<trkpt lat="45.9687780" lon="10.2005880">
	<ele>1433.00</ele>
	<time>2025-08-16T10:27:25.000Z</time>
</trkpt>
<trkpt lat="45.9687620" lon="10.2005930">
	<ele>1433.00</ele>
	<time>2025-08-16T10:27:26.000Z</time>
</trkpt>
<trkpt lat="45.9687430" lon="10.2006060">
	<ele>1433.00</ele>
	<time>2025-08-16T10:27:27.000Z</time>
</trkpt>
<trkpt lat="45.9687260" lon="10.2006080">
	<ele>1433.00</ele>
	<time>2025-08-16T10:27:28.000Z</time>
</trkpt>
<trkpt lat="45.9687080" lon="10.2006150">
	<ele>1432.80</ele>
	<time>2025-08-16T10:27:29.000Z</time>
</trkpt>
<trkpt lat="45.9686910" lon="10.2006180">
	<ele>1432.40</ele>
	<time>2025-08-16T10:27:30.000Z</time>
</trkpt>
<trkpt lat="45.9686760" lon="10.2006220">
	<ele>1432.40</ele>
	<time>2025-08-16T10:27:31.000Z</time>
</trkpt>
<trkpt lat="45.9686600" lon="10.2006290">
	<ele>1432.20</ele>
	<time>2025-08-16T10:27:32.000Z</time>
</trkpt>
<trkpt lat="45.9686440" lon="10.2006350">
	<ele>1432.20</ele>
	<time>2025-08-16T10:27:33.000Z</time>
</trkpt>
<trkpt lat="45.9686320" lon="10.2006370">
	<ele>1432.00</ele>
	<time>2025-08-16T10:27:34.000Z</time>
</trkpt>
<trkpt lat="45.9686180" lon="10.2006440">
	<ele>1431.80</ele>
	<time>2025-08-16T10:27:35.000Z</time>
</trkpt>
<trkpt lat="45.9686050" lon="10.2006440">
	<ele>1431.60</ele>
	<time>2025-08-16T10:27:36.000Z</time>
</trkpt>
<trkpt lat="45.9685830" lon="10.2006410">
	<ele>1431.40</ele>
	<time>2025-08-16T10:27:37.000Z</time>
</trkpt>
<trkpt lat="45.9685730" lon="10.2006340">
	<ele>1431.00</ele>
	<time>2025-08-16T10:27:38.000Z</time>
</trkpt>
<trkpt lat="45.9685630" lon="10.2006260">
	<ele>1430.60</ele>
	<time>2025-08-16T10:27:39.000Z</time>
</trkpt>
<trkpt lat="45.9685580" lon="10.2006120">
	<ele>1430.40</ele>
	<time>2025-08-16T10:27:40.000Z</time>
</trkpt>
<trkpt lat="45.9685530" lon="10.2005870">
	<ele>1430.00</ele>
	<time>2025-08-16T10:27:41.000Z</time>
</trkpt>
<trkpt lat="45.9685430" lon="10.2005710">
	<ele>1429.60</ele>
	<time>2025-08-16T10:27:42.000Z</time>
</trkpt>
<trkpt lat="45.9685330" lon="10.2005610">
	<ele>1429.20</ele>
	<time>2025-08-16T10:27:43.000Z</time>
</trkpt>
<trkpt lat="45.9685230" lon="10.2005490">
	<ele>1429.00</ele>
	<time>2025-08-16T10:27:44.000Z</time>
</trkpt>
<trkpt lat="45.9685160" lon="10.2005310">
	<ele>1428.60</ele>
	<time>2025-08-16T10:27:45.000Z</time>
</trkpt>
<trkpt lat="45.9685070" lon="10.2005100">
	<ele>1428.40</ele>
	<time>2025-08-16T10:27:46.000Z</time>
</trkpt>
<trkpt lat="45.9684930" lon="10.2004950">
	<ele>1428.00</ele>
	<time>2025-08-16T10:27:47.000Z</time>
</trkpt>
<trkpt lat="45.9684810" lon="10.2004810">
	<ele>1427.60</ele>
	<time>2025-08-16T10:27:48.000Z</time>
</trkpt>
<trkpt lat="45.9684670" lon="10.2004700">
	<ele>1427.20</ele>
	<time>2025-08-16T10:27:49.000Z</time>
</trkpt>
<trkpt lat="45.9684530" lon="10.2004620">
	<ele>1427.00</ele>
	<time>2025-08-16T10:27:50.000Z</time>
</trkpt>
<trkpt lat="45.9684320" lon="10.2004480">
	<ele>1426.80</ele>
	<time>2025-08-16T10:27:51.000Z</time>
</trkpt>
<trkpt lat="45.9684070" lon="10.2004490">
	<ele>1426.40</ele>
	<time>2025-08-16T10:27:52.000Z</time>
</trkpt>
<trkpt lat="45.9683900" lon="10.2004610">
	<ele>1426.20</ele>
	<time>2025-08-16T10:27:53.000Z</time>
</trkpt>
<trkpt lat="45.9683770" lon="10.2004720">
	<ele>1426.00</ele>
	<time>2025-08-16T10:27:54.000Z</time>
</trkpt>
<trkpt lat="45.9683590" lon="10.2004820">
	<ele>1425.60</ele>
	<time>2025-08-16T10:27:55.000Z</time>
</trkpt>
<trkpt lat="45.9683440" lon="10.2004920">
	<ele>1425.20</ele>
	<time>2025-08-16T10:27:56.000Z</time>
</trkpt>
<trkpt lat="45.9683240" lon="10.2005090">
	<ele>1425.00</ele>
	<time>2025-08-16T10:27:57.000Z</time>
</trkpt>
<trkpt lat="45.9683160" lon="10.2005290">
	<ele>1424.80</ele>
	<time>2025-08-16T10:27:58.000Z</time>
</trkpt>
<trkpt lat="45.9683090" lon="10.2005420">
	<ele>1424.60</ele>
	<time>2025-08-16T10:27:59.000Z</time>
</trkpt>
<trkpt lat="45.9682970" lon="10.2005590">
	<ele>1424.40</ele>
	<time>2025-08-16T10:28:00.000Z</time>
</trkpt>
<trkpt lat="45.9682860" lon="10.2005770">
	<ele>1424.20</ele>
	<time>2025-08-16T10:28:01.000Z</time>
</trkpt>
<trkpt lat="45.9682810" lon="10.2005900">
	<ele>1424.00</ele>
	<time>2025-08-16T10:28:02.000Z</time>
</trkpt>
<trkpt lat="45.9682800" lon="10.2006010">
	<ele>1423.60</ele>
	<time>2025-08-16T10:28:03.000Z</time>
</trkpt>
<trkpt lat="45.9682790" lon="10.2006180">
	<ele>1423.40</ele>
	<time>2025-08-16T10:28:04.000Z</time>
</trkpt>
<trkpt lat="45.9682770" lon="10.2006350">
	<ele>1423.20</ele>
	<time>2025-08-16T10:28:05.000Z</time>
</trkpt>
<trkpt lat="45.9682750" lon="10.2006540">
	<ele>1422.80</ele>
	<time>2025-08-16T10:28:06.000Z</time>
</trkpt>
<trkpt lat="45.9682730" lon="10.2006740">
	<ele>1422.60</ele>
	<time>2025-08-16T10:28:07.000Z</time>
</trkpt>
<trkpt lat="45.9682690" lon="10.2006970">
	<ele>1422.00</ele>
	<time>2025-08-16T10:28:08.000Z</time>
</trkpt>
<trkpt lat="45.9682740" lon="10.2007140">
	<ele>1421.80</ele>
	<time>2025-08-16T10:28:09.000Z</time>
</trkpt>
<trkpt lat="45.9682720" lon="10.2007380">
	<ele>1421.40</ele>
	<time>2025-08-16T10:28:10.000Z</time>
</trkpt>
<trkpt lat="45.9682660" lon="10.2007570">
	<ele>1420.80</ele>
	<time>2025-08-16T10:28:11.000Z</time>
</trkpt>
<trkpt lat="45.9682640" lon="10.2007830">
	<ele>1420.60</ele>
	<time>2025-08-16T10:28:12.000Z</time>
</trkpt>
<trkpt lat="45.9682640" lon="10.2008050">
	<ele>1420.20</ele>
	<time>2025-08-16T10:28:13.000Z</time>
</trkpt>
<trkpt lat="45.9682670" lon="10.2008280">
	<ele>1420.00</ele>
	<time>2025-08-16T10:28:14.000Z</time>
</trkpt>
<trkpt lat="45.9682780" lon="10.2008460">
	<ele>1419.60</ele>
	<time>2025-08-16T10:28:15.000Z</time>
</trkpt>
<trkpt lat="45.9682820" lon="10.2008710">
	<ele>1419.40</ele>
	<time>2025-08-16T10:28:16.000Z</time>
</trkpt>
<trkpt lat="45.9682840" lon="10.2008950">
	<ele>1418.80</ele>
	<time>2025-08-16T10:28:17.000Z</time>
</trkpt>
<trkpt lat="45.9682850" lon="10.2009080">
	<ele>1418.40</ele>
	<time>2025-08-16T10:28:18.000Z</time>
</trkpt>
<trkpt lat="45.9682890" lon="10.2009190">
	<ele>1418.20</ele>
	<time>2025-08-16T10:28:19.000Z</time>
</trkpt>
<trkpt lat="45.9683000" lon="10.2009270">
	<ele>1418.00</ele>
	<time>2025-08-16T10:28:20.000Z</time>
</trkpt>
<trkpt lat="45.9683120" lon="10.2009340">
	<ele>1417.60</ele>
	<time>2025-08-16T10:28:21.000Z</time>
</trkpt>
<trkpt lat="45.9683210" lon="10.2009500">
	<ele>1417.40</ele>
	<time>2025-08-16T10:28:22.000Z</time>
</trkpt>
<trkpt lat="45.9683300" lon="10.2009610">
	<ele>1417.00</ele>
	<time>2025-08-16T10:28:23.000Z</time>
</trkpt>
<trkpt lat="45.9683390" lon="10.2009700">
	<ele>1416.80</ele>
	<time>2025-08-16T10:28:24.000Z</time>
</trkpt>
<trkpt lat="45.9683540" lon="10.2009800">
	<ele>1416.60</ele>
	<time>2025-08-16T10:28:25.000Z</time>
</trkpt>
<trkpt lat="45.9683690" lon="10.2009890">
	<ele>1416.20</ele>
	<time>2025-08-16T10:28:26.000Z</time>
</trkpt>
<trkpt lat="45.9683820" lon="10.2009980">
	<ele>1416.00</ele>
	<time>2025-08-16T10:28:27.000Z</time>
</trkpt>
<trkpt lat="45.9683950" lon="10.2010130">
	<ele>1415.60</ele>
	<time>2025-08-16T10:28:28.000Z</time>
</trkpt>
<trkpt lat="45.9684110" lon="10.2010300">
	<ele>1415.20</ele>
	<time>2025-08-16T10:28:29.000Z</time>
</trkpt>
<trkpt lat="45.9684250" lon="10.2010420">
	<ele>1415.00</ele>
	<time>2025-08-16T10:28:30.000Z</time>
</trkpt>
<trkpt lat="45.9684420" lon="10.2010500">
	<ele>1414.60</ele>
	<time>2025-08-16T10:28:31.000Z</time>
</trkpt>
<trkpt lat="45.9684590" lon="10.2010580">
	<ele>1414.40</ele>
	<time>2025-08-16T10:28:32.000Z</time>
</trkpt>
<trkpt lat="45.9684730" lon="10.2010720">
	<ele>1414.00</ele>
	<time>2025-08-16T10:28:33.000Z</time>
</trkpt>
<trkpt lat="45.9684770" lon="10.2010980">
	<ele>1413.80</ele>
	<time>2025-08-16T10:28:34.000Z</time>
</trkpt>
<trkpt lat="45.9684950" lon="10.2011100">
	<ele>1413.60</ele>
	<time>2025-08-16T10:28:35.000Z</time>
</trkpt>
<trkpt lat="45.9685050" lon="10.2011230">
	<ele>1413.40</ele>
	<time>2025-08-16T10:28:36.000Z</time>
</trkpt>
<trkpt lat="45.9685160" lon="10.2011290">
	<ele>1413.00</ele>
	<time>2025-08-16T10:28:37.000Z</time>
</trkpt>
<trkpt lat="45.9685310" lon="10.2011390">
	<ele>1412.60</ele>
	<time>2025-08-16T10:28:38.000Z</time>
</trkpt>
<trkpt lat="45.9685460" lon="10.2011490">
	<ele>1412.40</ele>
	<time>2025-08-16T10:28:39.000Z</time>
</trkpt>
<trkpt lat="45.9685590" lon="10.2011570">
	<ele>1412.20</ele>
	<time>2025-08-16T10:28:40.000Z</time>
</trkpt>
<trkpt lat="45.9685830" lon="10.2011510">
	<ele>1412.00</ele>
	<time>2025-08-16T10:28:41.000Z</time>
</trkpt>
<trkpt lat="45.9686010" lon="10.2011460">
	<ele>1411.60</ele>
	<time>2025-08-16T10:28:42.000Z</time>
</trkpt>
<trkpt lat="45.9686200" lon="10.2011500">
	<ele>1411.40</ele>
	<time>2025-08-16T10:28:43.000Z</time>
</trkpt>
<trkpt lat="45.9686340" lon="10.2011570">
	<ele>1411.00</ele>
	<time>2025-08-16T10:28:44.000Z</time>
</trkpt>
<trkpt lat="45.9686430" lon="10.2011680">
	<ele>1410.80</ele>
	<time>2025-08-16T10:28:45.000Z</time>
</trkpt>
<trkpt lat="45.9686480" lon="10.2011790">
	<ele>1410.60</ele>
	<time>2025-08-16T10:28:46.000Z</time>
</trkpt>
<trkpt lat="45.9686550" lon="10.2011900">
	<ele>1410.20</ele>
	<time>2025-08-16T10:28:47.000Z</time>
</trkpt>
<trkpt lat="45.9686650" lon="10.2012020">
	<ele>1410.00</ele>
	<time>2025-08-16T10:28:48.000Z</time>
</trkpt>
<trkpt lat="45.9686800" lon="10.2012140">
	<ele>1409.80</ele>
	<time>2025-08-16T10:28:49.000Z</time>
</trkpt>
<trkpt lat="45.9686960" lon="10.2012230">
	<ele>1409.60</ele>
	<time>2025-08-16T10:28:50.000Z</time>
</trkpt>
<trkpt lat="45.9687010" lon="10.2012450">
	<ele>1409.20</ele>
	<time>2025-08-16T10:28:51.000Z</time>
</trkpt>
<trkpt lat="45.9687100" lon="10.2012610">
	<ele>1409.00</ele>
	<time>2025-08-16T10:28:52.000Z</time>
</trkpt>
<trkpt lat="45.9687290" lon="10.2012670">
	<ele>1408.60</ele>
	<time>2025-08-16T10:28:53.000Z</time>
</trkpt>
<trkpt lat="45.9687470" lon="10.2012680">
	<ele>1408.40</ele>
	<time>2025-08-16T10:28:54.000Z</time>
</trkpt>
<trkpt lat="45.9687630" lon="10.2012870">
	<ele>1408.20</ele>
	<time>2025-08-16T10:28:55.000Z</time>
</trkpt>
<trkpt lat="45.9687770" lon="10.2013090">
	<ele>1408.20</ele>
	<time>2025-08-16T10:28:56.000Z</time>
</trkpt>
<trkpt lat="45.9687930" lon="10.2013220">
	<ele>1407.80</ele>
	<time>2025-08-16T10:28:57.000Z</time>
</trkpt>
<trkpt lat="45.9688050" lon="10.2013140">
	<ele>1407.60</ele>
	<time>2025-08-16T10:28:58.000Z</time>
</trkpt>
<trkpt lat="45.9688170" lon="10.2013040">
	<ele>1407.40</ele>
	<time>2025-08-16T10:28:59.000Z</time>
</trkpt>
<trkpt lat="45.9688320" lon="10.2013040">
	<ele>1407.00</ele>
	<time>2025-08-16T10:29:00.000Z</time>
</trkpt>
<trkpt lat="45.9688510" lon="10.2012960">
	<ele>1406.80</ele>
	<time>2025-08-16T10:29:01.000Z</time>
</trkpt>
<trkpt lat="45.9688600" lon="10.2012990">
	<ele>1406.80</ele>
	<time>2025-08-16T10:29:02.000Z</time>
</trkpt>
<trkpt lat="45.9688680" lon="10.2013030">
	<ele>1406.60</ele>
	<time>2025-08-16T10:29:03.000Z</time>
</trkpt>
<trkpt lat="45.9688800" lon="10.2013110">
	<ele>1406.60</ele>
	<time>2025-08-16T10:29:04.000Z</time>
</trkpt>
<trkpt lat="45.9688910" lon="10.2013190">
	<ele>1406.40</ele>
	<time>2025-08-16T10:29:05.000Z</time>
</trkpt>
<trkpt lat="45.9689100" lon="10.2013270">
	<ele>1406.20</ele>
	<time>2025-08-16T10:29:06.000Z</time>
</trkpt>
<trkpt lat="45.9689340" lon="10.2013350">
	<ele>1406.00</ele>
	<time>2025-08-16T10:29:07.000Z</time>
</trkpt>
<trkpt lat="45.9689490" lon="10.2013310">
	<ele>1405.80</ele>
	<time>2025-08-16T10:29:08.000Z</time>
</trkpt>
<trkpt lat="45.9689670" lon="10.2013400">
	<ele>1405.60</ele>
	<time>2025-08-16T10:29:09.000Z</time>
</trkpt>
<trkpt lat="45.9689810" lon="10.2013470">
	<ele>1405.40</ele>
	<time>2025-08-16T10:29:10.000Z</time>
</trkpt>
<trkpt lat="45.9689940" lon="10.2013450">
	<ele>1405.20</ele>
	<time>2025-08-16T10:29:11.000Z</time>
</trkpt>
<trkpt lat="45.9690080" lon="10.2013510">
	<ele>1405.00</ele>
	<time>2025-08-16T10:29:12.000Z</time>
</trkpt>
<trkpt lat="45.9690240" lon="10.2013550">
	<ele>1404.80</ele>
	<time>2025-08-16T10:29:13.000Z</time>
</trkpt>
<trkpt lat="45.9690370" lon="10.2013620">
	<ele>1404.40</ele>
	<time>2025-08-16T10:29:14.000Z</time>
</trkpt>
<trkpt lat="45.9690470" lon="10.2013700">
	<ele>1404.00</ele>
	<time>2025-08-16T10:29:15.000Z</time>
</trkpt>
<trkpt lat="45.9690570" lon="10.2013760">
	<ele>1403.60</ele>
	<time>2025-08-16T10:29:16.000Z</time>
</trkpt>
<trkpt lat="45.9690680" lon="10.2013820">
	<ele>1403.40</ele>
	<time>2025-08-16T10:29:17.000Z</time>
</trkpt>
<trkpt lat="45.9690800" lon="10.2013870">
	<ele>1403.00</ele>
	<time>2025-08-16T10:29:18.000Z</time>
</trkpt>
<trkpt lat="45.9690930" lon="10.2013910">
	<ele>1402.80</ele>
	<time>2025-08-16T10:29:19.000Z</time>
</trkpt>
<trkpt lat="45.9691020" lon="10.2014040">
	<ele>1402.20</ele>
	<time>2025-08-16T10:29:20.000Z</time>
</trkpt>
<trkpt lat="45.9691070" lon="10.2014160">
	<ele>1401.80</ele>
	<time>2025-08-16T10:29:21.000Z</time>
</trkpt>
<trkpt lat="45.9691040" lon="10.2014310">
	<ele>1401.60</ele>
	<time>2025-08-16T10:29:22.000Z</time>
</trkpt>
<trkpt lat="45.9690950" lon="10.2014420">
	<ele>1401.40</ele>
	<time>2025-08-16T10:29:23.000Z</time>
</trkpt>
<trkpt lat="45.9690850" lon="10.2014490">
	<ele>1401.00</ele>
	<time>2025-08-16T10:29:24.000Z</time>
</trkpt>
<trkpt lat="45.9690740" lon="10.2014510">
	<ele>1400.60</ele>
	<time>2025-08-16T10:29:25.000Z</time>
</trkpt>
<trkpt lat="45.9690630" lon="10.2014550">
	<ele>1400.40</ele>
	<time>2025-08-16T10:29:26.000Z</time>
</trkpt>
<trkpt lat="45.9690460" lon="10.2014610">
	<ele>1400.00</ele>
	<time>2025-08-16T10:29:27.000Z</time>
</trkpt>
<trkpt lat="45.9690350" lon="10.2014600">
	<ele>1399.80</ele>
	<time>2025-08-16T10:29:28.000Z</time>
</trkpt>
<trkpt lat="45.9690250" lon="10.2014580">
	<ele>1399.40</ele>
	<time>2025-08-16T10:29:29.000Z</time>
</trkpt>
<trkpt lat="45.9690150" lon="10.2014580">
	<ele>1399.20</ele>
	<time>2025-08-16T10:29:30.000Z</time>
</trkpt>
<trkpt lat="45.9690070" lon="10.2014700">
	<ele>1398.80</ele>
	<time>2025-08-16T10:29:31.000Z</time>
</trkpt>
<trkpt lat="45.9690030" lon="10.2014910">
	<ele>1398.40</ele>
	<time>2025-08-16T10:29:32.000Z</time>
</trkpt>
<trkpt lat="45.9689940" lon="10.2015160">
	<ele>1398.20</ele>
	<time>2025-08-16T10:29:33.000Z</time>
</trkpt>
<trkpt lat="45.9689860" lon="10.2015240">
	<ele>1397.80</ele>
	<time>2025-08-16T10:29:34.000Z</time>
</trkpt>
<trkpt lat="45.9689730" lon="10.2015240">
	<ele>1397.40</ele>
	<time>2025-08-16T10:29:35.000Z</time>
</trkpt>
<trkpt lat="45.9689640" lon="10.2015220">
	<ele>1397.00</ele>
	<time>2025-08-16T10:29:36.000Z</time>
</trkpt>
<trkpt lat="45.9689630" lon="10.2015350">
	<ele>1396.80</ele>
	<time>2025-08-16T10:29:37.000Z</time>
</trkpt>
<trkpt lat="45.9689630" lon="10.2015370">
	<ele>1396.40</ele>
	<time>2025-08-16T10:29:38.000Z</time>
</trkpt>
<trkpt lat="45.9689610" lon="10.2015380">
	<ele>1396.00</ele>
	<time>2025-08-16T10:29:39.000Z</time>
</trkpt>
<trkpt lat="45.9689530" lon="10.2015310">
	<ele>1395.80</ele>
	<time>2025-08-16T10:29:40.000Z</time>
</trkpt>
<trkpt lat="45.9689540" lon="10.2015160">
	<ele>1395.40</ele>
	<time>2025-08-16T10:29:41.000Z</time>
</trkpt>
<trkpt lat="45.9689450" lon="10.2015210">
	<ele>1395.00</ele>
	<time>2025-08-16T10:29:42.000Z</time>
</trkpt>
<trkpt lat="45.9689310" lon="10.2015290">
	<ele>1394.80</ele>
	<time>2025-08-16T10:29:43.000Z</time>
</trkpt>
<trkpt lat="45.9689200" lon="10.2015380">
	<ele>1394.40</ele>
	<time>2025-08-16T10:29:44.000Z</time>
</trkpt>
<trkpt lat="45.9689110" lon="10.2015610">
	<ele>1394.20</ele>
	<time>2025-08-16T10:29:45.000Z</time>
</trkpt>
<trkpt lat="45.9689070" lon="10.2015750">
	<ele>1394.00</ele>
	<time>2025-08-16T10:29:46.000Z</time>
</trkpt>
<trkpt lat="45.9688950" lon="10.2016000">
	<ele>1393.60</ele>
	<time>2025-08-16T10:29:47.000Z</time>
</trkpt>
<trkpt lat="45.9688830" lon="10.2016220">
	<ele>1393.40</ele>
	<time>2025-08-16T10:29:48.000Z</time>
</trkpt>
<trkpt lat="45.9688600" lon="10.2016390">
	<ele>1393.20</ele>
	<time>2025-08-16T10:29:49.000Z</time>
</trkpt>
<trkpt lat="45.9688260" lon="10.2016500">
	<ele>1393.00</ele>
	<time>2025-08-16T10:29:50.000Z</time>
</trkpt>
<trkpt lat="45.9688070" lon="10.2016580">
	<ele>1392.80</ele>
	<time>2025-08-16T10:29:51.000Z</time>
</trkpt>
<trkpt lat="45.9687870" lon="10.2016820">
	<ele>1392.60</ele>
	<time>2025-08-16T10:29:52.000Z</time>
</trkpt>
<trkpt lat="45.9687710" lon="10.2017000">
	<ele>1392.40</ele>
	<time>2025-08-16T10:29:53.000Z</time>
</trkpt>
<trkpt lat="45.9687590" lon="10.2017090">
	<ele>1392.20</ele>
	<time>2025-08-16T10:29:54.000Z</time>
</trkpt>
<trkpt lat="45.9687350" lon="10.2017290">
	<ele>1391.80</ele>
	<time>2025-08-16T10:29:55.000Z</time>
</trkpt>
<trkpt lat="45.9687160" lon="10.2017390">
	<ele>1391.60</ele>
	<time>2025-08-16T10:29:56.000Z</time>
</trkpt>
<trkpt lat="45.9687010" lon="10.2017490">
	<ele>1391.40</ele>
	<time>2025-08-16T10:29:57.000Z</time>
</trkpt>
<trkpt lat="45.9686830" lon="10.2017580">
	<ele>1391.20</ele>
	<time>2025-08-16T10:29:58.000Z</time>
</trkpt>
<trkpt lat="45.9686650" lon="10.2017590">
	<ele>1390.80</ele>
	<time>2025-08-16T10:29:59.000Z</time>
</trkpt>
<trkpt lat="45.9686570" lon="10.2017630">
	<ele>1390.60</ele>
	<time>2025-08-16T10:30:00.000Z</time>
</trkpt>
<trkpt lat="45.9686510" lon="10.2017660">
	<ele>1390.40</ele>
	<time>2025-08-16T10:30:01.000Z</time>
</trkpt>
<trkpt lat="45.9686490" lon="10.2017630">
	<ele>1390.20</ele>
	<time>2025-08-16T10:30:02.000Z</time>
</trkpt>
<trkpt lat="45.9686440" lon="10.2017550">
	<ele>1390.00</ele>
	<time>2025-08-16T10:30:03.000Z</time>
</trkpt>
<trkpt lat="45.9686290" lon="10.2017590">
	<ele>1389.80</ele>
	<time>2025-08-16T10:30:04.000Z</time>
</trkpt>
<trkpt lat="45.9686120" lon="10.2017700">
	<ele>1389.60</ele>
	<time>2025-08-16T10:30:05.000Z</time>
</trkpt>
<trkpt lat="45.9685930" lon="10.2017790">
	<ele>1389.40</ele>
	<time>2025-08-16T10:30:06.000Z</time>
</trkpt>
<trkpt lat="45.9685780" lon="10.2017900">
	<ele>1389.20</ele>
	<time>2025-08-16T10:30:07.000Z</time>
</trkpt>
<trkpt lat="45.9685590" lon="10.2017700">
	<ele>1389.00</ele>
	<time>2025-08-16T10:30:08.000Z</time>
</trkpt>
<trkpt lat="45.9685470" lon="10.2017530">
	<ele>1388.60</ele>
	<time>2025-08-16T10:30:09.000Z</time>
</trkpt>
<trkpt lat="45.9685380" lon="10.2017370">
	<ele>1388.40</ele>
	<time>2025-08-16T10:30:10.000Z</time>
</trkpt>
<trkpt lat="45.9685250" lon="10.2017300">
	<ele>1388.40</ele>
	<time>2025-08-16T10:30:11.000Z</time>
</trkpt>
<trkpt lat="45.9685090" lon="10.2017360">
	<ele>1388.20</ele>
	<time>2025-08-16T10:30:12.000Z</time>
</trkpt>
<trkpt lat="45.9684980" lon="10.2017470">
	<ele>1388.20</ele>
	<time>2025-08-16T10:30:13.000Z</time>
</trkpt>
<trkpt lat="45.9684850" lon="10.2017490">
	<ele>1388.00</ele>
	<time>2025-08-16T10:30:14.000Z</time>
</trkpt>
<trkpt lat="45.9684750" lon="10.2017670">
	<ele>1387.80</ele>
	<time>2025-08-16T10:30:15.000Z</time>
</trkpt>
<trkpt lat="45.9684650" lon="10.2017810">
	<ele>1387.40</ele>
	<time>2025-08-16T10:30:16.000Z</time>
</trkpt>
<trkpt lat="45.9684530" lon="10.2017990">
	<ele>1387.20</ele>
	<time>2025-08-16T10:30:17.000Z</time>
</trkpt>
<trkpt lat="45.9684400" lon="10.2018120">
	<ele>1387.20</ele>
	<time>2025-08-16T10:30:18.000Z</time>
</trkpt>
<trkpt lat="45.9684310" lon="10.2018150">
	<ele>1387.00</ele>
	<time>2025-08-16T10:30:19.000Z</time>
</trkpt>
<trkpt lat="45.9684230" lon="10.2018290">
	<ele>1386.80</ele>
	<time>2025-08-16T10:30:20.000Z</time>
</trkpt>
<trkpt lat="45.9684160" lon="10.2018430">
	<ele>1386.60</ele>
	<time>2025-08-16T10:30:21.000Z</time>
</trkpt>
<trkpt lat="45.9684060" lon="10.2018470">
	<ele>1386.40</ele>
	<time>2025-08-16T10:30:22.000Z</time>
</trkpt>
<trkpt lat="45.9683940" lon="10.2018580">
	<ele>1386.00</ele>
	<time>2025-08-16T10:30:23.000Z</time>
</trkpt>
<trkpt lat="45.9683700" lon="10.2018700">
	<ele>1386.00</ele>
	<time>2025-08-16T10:30:24.000Z</time>
</trkpt>
<trkpt lat="45.9683600" lon="10.2018630">
	<ele>1385.60</ele>
	<time>2025-08-16T10:30:25.000Z</time>
</trkpt>
<trkpt lat="45.9683390" lon="10.2018570">
	<ele>1385.40</ele>
	<time>2025-08-16T10:30:26.000Z</time>
</trkpt>
<trkpt lat="45.9683190" lon="10.2018400">
	<ele>1385.00</ele>
	<time>2025-08-16T10:30:27.000Z</time>
</trkpt>
<trkpt lat="45.9683010" lon="10.2018450">
	<ele>1384.60</ele>
	<time>2025-08-16T10:30:28.000Z</time>
</trkpt>
<trkpt lat="45.9683010" lon="10.2018500">
	<ele>1384.40</ele>
	<time>2025-08-16T10:30:29.000Z</time>
</trkpt>
<trkpt lat="45.9683030" lon="10.2018560">
	<ele>1383.80</ele>
	<time>2025-08-16T10:30:30.000Z</time>
</trkpt>
<trkpt lat="45.9683050" lon="10.2018700">
	<ele>1383.60</ele>
	<time>2025-08-16T10:30:31.000Z</time>
</trkpt>
<trkpt lat="45.9682950" lon="10.2018820">
	<ele>1383.20</ele>
	<time>2025-08-16T10:30:32.000Z</time>
</trkpt>
<trkpt lat="45.9682780" lon="10.2019000">
	<ele>1382.80</ele>
	<time>2025-08-16T10:30:33.000Z</time>
</trkpt>
<trkpt lat="45.9682610" lon="10.2019270">
	<ele>1382.40</ele>
	<time>2025-08-16T10:30:34.000Z</time>
</trkpt>
<trkpt lat="45.9682490" lon="10.2019400">
	<ele>1382.00</ele>
	<time>2025-08-16T10:30:35.000Z</time>
</trkpt>
<trkpt lat="45.9682360" lon="10.2019540">
	<ele>1381.60</ele>
	<time>2025-08-16T10:30:36.000Z</time>
</trkpt>
<trkpt lat="45.9682220" lon="10.2019540">
	<ele>1381.20</ele>
	<time>2025-08-16T10:30:37.000Z</time>
</trkpt>
<trkpt lat="45.9682100" lon="10.2019590">
	<ele>1380.60</ele>
	<time>2025-08-16T10:30:38.000Z</time>
</trkpt>
<trkpt lat="45.9681950" lon="10.2019680">
	<ele>1380.20</ele>
	<time>2025-08-16T10:30:39.000Z</time>
</trkpt>
<trkpt lat="45.9681840" lon="10.2019800">
	<ele>1380.00</ele>
	<time>2025-08-16T10:30:40.000Z</time>
</trkpt>
<trkpt lat="45.9681730" lon="10.2019960">
	<ele>1379.60</ele>
	<time>2025-08-16T10:30:41.000Z</time>
</trkpt>
<trkpt lat="45.9681590" lon="10.2020290">
	<ele>1379.20</ele>
	<time>2025-08-16T10:30:42.000Z</time>
</trkpt>
<trkpt lat="45.9681550" lon="10.2020560">
	<ele>1378.80</ele>
	<time>2025-08-16T10:30:43.000Z</time>
</trkpt>
<trkpt lat="45.9681440" lon="10.2020870">
	<ele>1378.40</ele>
	<time>2025-08-16T10:30:44.000Z</time>
</trkpt>
<trkpt lat="45.9681350" lon="10.2021010">
	<ele>1378.00</ele>
	<time>2025-08-16T10:30:45.000Z</time>
</trkpt>
<trkpt lat="45.9681240" lon="10.2021130">
	<ele>1377.80</ele>
	<time>2025-08-16T10:30:46.000Z</time>
</trkpt>
<trkpt lat="45.9681180" lon="10.2021300">
	<ele>1377.20</ele>
	<time>2025-08-16T10:30:47.000Z</time>
</trkpt>
<trkpt lat="45.9681100" lon="10.2021490">
	<ele>1377.00</ele>
	<time>2025-08-16T10:30:48.000Z</time>
</trkpt>
<trkpt lat="45.9680950" lon="10.2021710">
	<ele>1376.40</ele>
	<time>2025-08-16T10:30:49.000Z</time>
</trkpt>
<trkpt lat="45.9680820" lon="10.2021840">
	<ele>1376.20</ele>
	<time>2025-08-16T10:30:50.000Z</time>
</trkpt>
<trkpt lat="45.9680740" lon="10.2021980">
	<ele>1376.00</ele>
	<time>2025-08-16T10:30:51.000Z</time>
</trkpt>
<trkpt lat="45.9680590" lon="10.2022210">
	<ele>1375.40</ele>
	<time>2025-08-16T10:30:52.000Z</time>
</trkpt>
<trkpt lat="45.9680540" lon="10.2022480">
	<ele>1375.00</ele>
	<time>2025-08-16T10:30:53.000Z</time>
</trkpt>
<trkpt lat="45.9680430" lon="10.2022560">
	<ele>1374.60</ele>
	<time>2025-08-16T10:30:54.000Z</time>
</trkpt>
<trkpt lat="45.9680300" lon="10.2022570">
	<ele>1374.20</ele>
	<time>2025-08-16T10:30:55.000Z</time>
</trkpt>
<trkpt lat="45.9680250" lon="10.2022630">
	<ele>1373.60</ele>
	<time>2025-08-16T10:30:56.000Z</time>
</trkpt>
<trkpt lat="45.9680200" lon="10.2022730">
	<ele>1373.20</ele>
	<time>2025-08-16T10:30:57.000Z</time>
</trkpt>
<trkpt lat="45.9680160" lon="10.2022800">
	<ele>1372.80</ele>
	<time>2025-08-16T10:30:58.000Z</time>
</trkpt>
<trkpt lat="45.9680120" lon="10.2022790">
	<ele>1372.40</ele>
	<time>2025-08-16T10:30:59.000Z</time>
</trkpt>
<trkpt lat="45.9680110" lon="10.2022800">
	<ele>1372.00</ele>
	<time>2025-08-16T10:31:00.000Z</time>
</trkpt>
<trkpt lat="45.9679970" lon="10.2022860">
	<ele>1371.60</ele>
	<time>2025-08-16T10:31:01.000Z</time>
</trkpt>
<trkpt lat="45.9679880" lon="10.2022790">
	<ele>1371.20</ele>
	<time>2025-08-16T10:31:02.000Z</time>
</trkpt>
<trkpt lat="45.9679700" lon="10.2022790">
	<ele>1370.80</ele>
	<time>2025-08-16T10:31:03.000Z</time>
</trkpt>
<trkpt lat="45.9679450" lon="10.2022860">
	<ele>1370.40</ele>
	<time>2025-08-16T10:31:04.000Z</time>
</trkpt>
<trkpt lat="45.9679200" lon="10.2023060">
	<ele>1370.00</ele>
	<time>2025-08-16T10:31:05.000Z</time>
</trkpt>
<trkpt lat="45.9678930" lon="10.2023340">
	<ele>1369.80</ele>
	<time>2025-08-16T10:31:06.000Z</time>
</trkpt>
<trkpt lat="45.9678800" lon="10.2023560">
	<ele>1369.40</ele>
	<time>2025-08-16T10:31:07.000Z</time>
</trkpt>
<trkpt lat="45.9678620" lon="10.2023670">
	<ele>1369.20</ele>
	<time>2025-08-16T10:31:08.000Z</time>
</trkpt>
<trkpt lat="45.9678460" lon="10.2023820">
	<ele>1369.00</ele>
	<time>2025-08-16T10:31:09.000Z</time>
</trkpt>
<trkpt lat="45.9678320" lon="10.2023960">
	<ele>1368.60</ele>
	<time>2025-08-16T10:31:10.000Z</time>
</trkpt>
<trkpt lat="45.9678170" lon="10.2024080">
	<ele>1368.20</ele>
	<time>2025-08-16T10:31:11.000Z</time>
</trkpt>
<trkpt lat="45.9678040" lon="10.2024180">
	<ele>1368.00</ele>
	<time>2025-08-16T10:31:12.000Z</time>
</trkpt>
<trkpt lat="45.9677980" lon="10.2024290">
	<ele>1367.60</ele>
	<time>2025-08-16T10:31:13.000Z</time>
</trkpt>
<trkpt lat="45.9677870" lon="10.2024410">
	<ele>1367.40</ele>
	<time>2025-08-16T10:31:14.000Z</time>
</trkpt>
<trkpt lat="45.9677780" lon="10.2024480">
	<ele>1367.00</ele>
	<time>2025-08-16T10:31:15.000Z</time>
</trkpt>
<trkpt lat="45.9677720" lon="10.2024590">
	<ele>1367.00</ele>
	<time>2025-08-16T10:31:16.000Z</time>
</trkpt>
<trkpt lat="45.9677680" lon="10.2024710">
	<ele>1366.80</ele>
	<time>2025-08-16T10:31:17.000Z</time>
</trkpt>
<trkpt lat="45.9677540" lon="10.2024900">
	<ele>1366.60</ele>
	<time>2025-08-16T10:31:18.000Z</time>
</trkpt>
<trkpt lat="45.9677330" lon="10.2025040">
	<ele>1366.20</ele>
	<time>2025-08-16T10:31:19.000Z</time>
</trkpt>
<trkpt lat="45.9677170" lon="10.2025220">
	<ele>1366.20</ele>
	<time>2025-08-16T10:31:20.000Z</time>
</trkpt>
<trkpt lat="45.9676910" lon="10.2025360">
	<ele>1365.80</ele>
	<time>2025-08-16T10:31:21.000Z</time>
</trkpt>
<trkpt lat="45.9676650" lon="10.2025400">
	<ele>1365.40</ele>
	<time>2025-08-16T10:31:22.000Z</time>
</trkpt>
<trkpt lat="45.9676540" lon="10.2025330">
	<ele>1365.20</ele>
	<time>2025-08-16T10:31:23.000Z</time>
</trkpt>
<trkpt lat="45.9676520" lon="10.2025320">
	<ele>1365.00</ele>
	<time>2025-08-16T10:31:24.000Z</time>
</trkpt>
<trkpt lat="45.9676410" lon="10.2025530">
	<ele>1364.60</ele>
	<time>2025-08-16T10:31:25.000Z</time>
</trkpt>
<trkpt lat="45.9676380" lon="10.2025740">
	<ele>1364.20</ele>
	<time>2025-08-16T10:31:26.000Z</time>
</trkpt>
<trkpt lat="45.9676420" lon="10.2025910">
	<ele>1364.00</ele>
	<time>2025-08-16T10:31:27.000Z</time>
</trkpt>
<trkpt lat="45.9676450" lon="10.2026090">
	<ele>1363.60</ele>
	<time>2025-08-16T10:31:28.000Z</time>
</trkpt>
<trkpt lat="45.9676500" lon="10.2026310">
	<ele>1363.40</ele>
	<time>2025-08-16T10:31:29.000Z</time>
</trkpt>
<trkpt lat="45.9676530" lon="10.2026470">
	<ele>1363.20</ele>
	<time>2025-08-16T10:31:30.000Z</time>
</trkpt>
<trkpt lat="45.9676520" lon="10.2026520">
	<ele>1363.00</ele>
	<time>2025-08-16T10:31:31.000Z</time>
</trkpt>
<trkpt lat="45.9676530" lon="10.2026580">
	<ele>1362.60</ele>
	<time>2025-08-16T10:31:32.000Z</time>
</trkpt>
<trkpt lat="45.9676530" lon="10.2026610">
	<ele>1362.40</ele>
	<time>2025-08-16T10:31:33.000Z</time>
</trkpt>
<trkpt lat="45.9676540" lon="10.2026580">
	<ele>1362.20</ele>
	<time>2025-08-16T10:31:34.000Z</time>
</trkpt>
<trkpt lat="45.9676550" lon="10.2026560">
	<ele>1362.20</ele>
	<time>2025-08-16T10:31:35.000Z</time>
</trkpt>
<trkpt lat="45.9676550" lon="10.2026540">
	<ele>1362.20</ele>
	<time>2025-08-16T10:31:36.000Z</time>
</trkpt>
<trkpt lat="45.9676540" lon="10.2026560">
	<ele>1362.20</ele>
	<time>2025-08-16T10:31:37.000Z</time>
</trkpt>
<trkpt lat="45.9676540" lon="10.2026600">
	<ele>1362.20</ele>
	<time>2025-08-16T10:31:38.000Z</time>
</trkpt>
<trkpt lat="45.9676520" lon="10.2026600">
	<ele>1362.20</ele>
	<time>2025-08-16T10:31:39.000Z</time>
</trkpt>
<trkpt lat="45.9676500" lon="10.2026620">
	<ele>1362.20</ele>
	<time>2025-08-16T10:31:40.000Z</time>
</trkpt>
<trkpt lat="45.9676550" lon="10.2026630">
	<ele>1362.20</ele>
	<time>2025-08-16T10:31:41.000Z</time>
</trkpt>
<trkpt lat="45.9676560" lon="10.2026620">
	<ele>1362.20</ele>
	<time>2025-08-16T10:31:42.000Z</time>
</trkpt>
<trkpt lat="45.9676580" lon="10.2026590">
	<ele>1362.20</ele>
	<time>2025-08-16T10:31:43.000Z</time>
</trkpt>
<trkpt lat="45.9676570" lon="10.2026580">
	<ele>1362.40</ele>
	<time>2025-08-16T10:31:44.000Z</time>
</trkpt>
<trkpt lat="45.9676570" lon="10.2026550">
	<ele>1362.40</ele>
	<time>2025-08-16T10:31:45.000Z</time>
</trkpt>
<trkpt lat="45.9676570" lon="10.2026560">
	<ele>1362.40</ele>
	<time>2025-08-16T10:31:46.000Z</time>
</trkpt>
<trkpt lat="45.9676570" lon="10.2026560">
	<ele>1362.40</ele>
	<time>2025-08-16T10:31:47.000Z</time>
</trkpt>
<trkpt lat="45.9676570" lon="10.2026560">
	<ele>1362.20</ele>
	<time>2025-08-16T10:31:48.000Z</time>
</trkpt>
<trkpt lat="45.9676570" lon="10.2026560">
	<ele>1362.40</ele>
	<time>2025-08-16T10:31:49.000Z</time>
</trkpt>
<trkpt lat="45.9676570" lon="10.2026560">
	<ele>1362.40</ele>
	<time>2025-08-16T10:31:50.000Z</time>
</trkpt>
<trkpt lat="45.9676570" lon="10.2026560">
	<ele>1362.60</ele>
	<time>2025-08-16T10:31:51.000Z</time>
</trkpt>
<trkpt lat="45.9676570" lon="10.2026560">
	<ele>1362.60</ele>
	<time>2025-08-16T10:31:52.000Z</time>
</trkpt>
<trkpt lat="45.9676570" lon="10.2026560">
	<ele>1362.80</ele>
	<time>2025-08-16T10:31:53.000Z</time>
</trkpt>
<trkpt lat="45.9676570" lon="10.2026560">
	<ele>1363.00</ele>
	<time>2025-08-16T10:31:54.000Z</time>
</trkpt>
<trkpt lat="45.9676550" lon="10.2026540">
	<ele>1363.20</ele>
	<time>2025-08-16T10:31:55.000Z</time>
</trkpt>
<trkpt lat="45.9676430" lon="10.2026410">
	<ele>1363.20</ele>
	<time>2025-08-16T10:31:56.000Z</time>
</trkpt>
<trkpt lat="45.9676340" lon="10.2026270">
	<ele>1363.40</ele>
	<time>2025-08-16T10:31:57.000Z</time>
</trkpt>
<trkpt lat="45.9676210" lon="10.2026180">
	<ele>1363.40</ele>
	<time>2025-08-16T10:31:58.000Z</time>
</trkpt>
<trkpt lat="45.9676090" lon="10.2026120">
	<ele>1363.40</ele>
	<time>2025-08-16T10:31:59.000Z</time>
</trkpt>
<trkpt lat="45.9676050" lon="10.2026030">
	<ele>1363.20</ele>
	<time>2025-08-16T10:32:00.000Z</time>
</trkpt>
<trkpt lat="45.9675990" lon="10.2025890">
	<ele>1363.20</ele>
	<time>2025-08-16T10:32:01.000Z</time>
</trkpt>
<trkpt lat="45.9675940" lon="10.2025790">
	<ele>1363.00</ele>
	<time>2025-08-16T10:32:02.000Z</time>
</trkpt>
<trkpt lat="45.9675900" lon="10.2025720">
	<ele>1362.60</ele>
	<time>2025-08-16T10:32:03.000Z</time>
</trkpt>
<trkpt lat="45.9675850" lon="10.2025600">
	<ele>1362.20</ele>
	<time>2025-08-16T10:32:04.000Z</time>
</trkpt>
<trkpt lat="45.9675770" lon="10.2025470">
	<ele>1362.00</ele>
	<time>2025-08-16T10:32:05.000Z</time>
</trkpt>
<trkpt lat="45.9675720" lon="10.2025340">
	<ele>1361.80</ele>
	<time>2025-08-16T10:32:06.000Z</time>
</trkpt>
<trkpt lat="45.9675710" lon="10.2025210">
	<ele>1361.40</ele>
	<time>2025-08-16T10:32:07.000Z</time>
</trkpt>
<trkpt lat="45.9675730" lon="10.2025080">
	<ele>1361.00</ele>
	<time>2025-08-16T10:32:08.000Z</time>
</trkpt>
<trkpt lat="45.9675730" lon="10.2025000">
	<ele>1360.80</ele>
	<time>2025-08-16T10:32:09.000Z</time>
</trkpt>
<trkpt lat="45.9675740" lon="10.2024810">
	<ele>1360.60</ele>
	<time>2025-08-16T10:32:10.000Z</time>
</trkpt>
<trkpt lat="45.9675680" lon="10.2024700">
	<ele>1360.40</ele>
	<time>2025-08-16T10:32:11.000Z</time>
</trkpt>
<trkpt lat="45.9675660" lon="10.2024490">
	<ele>1360.00</ele>
	<time>2025-08-16T10:32:12.000Z</time>
</trkpt>
<trkpt lat="45.9675590" lon="10.2024340">
	<ele>1359.80</ele>
	<time>2025-08-16T10:32:13.000Z</time>
</trkpt>
<trkpt lat="45.9675570" lon="10.2024090">
	<ele>1359.40</ele>
	<time>2025-08-16T10:32:14.000Z</time>
</trkpt>
<trkpt lat="45.9675570" lon="10.2023850">
	<ele>1359.00</ele>
	<time>2025-08-16T10:32:15.000Z</time>
</trkpt>
<trkpt lat="45.9675580" lon="10.2023660">
	<ele>1358.80</ele>
	<time>2025-08-16T10:32:16.000Z</time>
</trkpt>
<trkpt lat="45.9675550" lon="10.2023440">
	<ele>1358.60</ele>
	<time>2025-08-16T10:32:17.000Z</time>
</trkpt>
<trkpt lat="45.9675490" lon="10.2023260">
	<ele>1358.20</ele>
	<time>2025-08-16T10:32:18.000Z</time>
</trkpt>
<trkpt lat="45.9675400" lon="10.2023140">
	<ele>1357.80</ele>
	<time>2025-08-16T10:32:19.000Z</time>
</trkpt>
<trkpt lat="45.9675280" lon="10.2023000">
	<ele>1357.40</ele>
	<time>2025-08-16T10:32:20.000Z</time>
</trkpt>
<trkpt lat="45.9675180" lon="10.2022830">
	<ele>1357.00</ele>
	<time>2025-08-16T10:32:21.000Z</time>
</trkpt>
<trkpt lat="45.9675070" lon="10.2022580">
	<ele>1356.80</ele>
	<time>2025-08-16T10:32:22.000Z</time>
</trkpt>
<trkpt lat="45.9674970" lon="10.2022330">
	<ele>1356.40</ele>
	<time>2025-08-16T10:32:23.000Z</time>
</trkpt>
<trkpt lat="45.9674930" lon="10.2022060">
	<ele>1356.20</ele>
	<time>2025-08-16T10:32:24.000Z</time>
</trkpt>
<trkpt lat="45.9674840" lon="10.2021820">
	<ele>1356.00</ele>
	<time>2025-08-16T10:32:25.000Z</time>
</trkpt>
<trkpt lat="45.9674620" lon="10.2021590">
	<ele>1355.80</ele>
	<time>2025-08-16T10:32:26.000Z</time>
</trkpt>
<trkpt lat="45.9674440" lon="10.2021500">
	<ele>1355.40</ele>
	<time>2025-08-16T10:32:27.000Z</time>
</trkpt>
<trkpt lat="45.9674390" lon="10.2021390">
	<ele>1355.20</ele>
	<time>2025-08-16T10:32:28.000Z</time>
</trkpt>
<trkpt lat="45.9674470" lon="10.2021180">
	<ele>1354.80</ele>
	<time>2025-08-16T10:32:29.000Z</time>
</trkpt>
<trkpt lat="45.9674550" lon="10.2020910">
	<ele>1354.80</ele>
	<time>2025-08-16T10:32:30.000Z</time>
</trkpt>
<trkpt lat="45.9674650" lon="10.2020560">
	<ele>1354.20</ele>
	<time>2025-08-16T10:32:31.000Z</time>
</trkpt>
<trkpt lat="45.9674560" lon="10.2020380">
	<ele>1354.00</ele>
	<time>2025-08-16T10:32:32.000Z</time>
</trkpt>
<trkpt lat="45.9674450" lon="10.2020270">
	<ele>1353.80</ele>
	<time>2025-08-16T10:32:33.000Z</time>
</trkpt>
<trkpt lat="45.9674380" lon="10.2020230">
	<ele>1353.20</ele>
	<time>2025-08-16T10:32:34.000Z</time>
</trkpt>
<trkpt lat="45.9674210" lon="10.2020200">
	<ele>1353.00</ele>
	<time>2025-08-16T10:32:35.000Z</time>
</trkpt>
<trkpt lat="45.9674010" lon="10.2020140">
	<ele>1352.80</ele>
	<time>2025-08-16T10:32:36.000Z</time>
</trkpt>
<trkpt lat="45.9673830" lon="10.2020010">
	<ele>1352.60</ele>
	<time>2025-08-16T10:32:37.000Z</time>
</trkpt>
<trkpt lat="45.9673770" lon="10.2019860">
	<ele>1352.20</ele>
	<time>2025-08-16T10:32:38.000Z</time>
</trkpt>
<trkpt lat="45.9673690" lon="10.2019750">
	<ele>1352.00</ele>
	<time>2025-08-16T10:32:39.000Z</time>
</trkpt>
<trkpt lat="45.9673660" lon="10.2019640">
	<ele>1351.80</ele>
	<time>2025-08-16T10:32:40.000Z</time>
</trkpt>
<trkpt lat="45.9673700" lon="10.2019500">
	<ele>1351.40</ele>
	<time>2025-08-16T10:32:41.000Z</time>
</trkpt>
<trkpt lat="45.9673660" lon="10.2019320">
	<ele>1351.20</ele>
	<time>2025-08-16T10:32:42.000Z</time>
</trkpt>
<trkpt lat="45.9673550" lon="10.2019130">
	<ele>1351.00</ele>
	<time>2025-08-16T10:32:43.000Z</time>
</trkpt>
<trkpt lat="45.9673470" lon="10.2018920">
	<ele>1350.60</ele>
	<time>2025-08-16T10:32:44.000Z</time>
</trkpt>
<trkpt lat="45.9673340" lon="10.2018650">
	<ele>1350.20</ele>
	<time>2025-08-16T10:32:45.000Z</time>
</trkpt>
<trkpt lat="45.9673270" lon="10.2018230">
	<ele>1350.00</ele>
	<time>2025-08-16T10:32:46.000Z</time>
</trkpt>
<trkpt lat="45.9673240" lon="10.2017980">
	<ele>1349.80</ele>
	<time>2025-08-16T10:32:47.000Z</time>
</trkpt>
<trkpt lat="45.9673180" lon="10.2017720">
	<ele>1349.40</ele>
	<time>2025-08-16T10:32:48.000Z</time>
</trkpt>
<trkpt lat="45.9673140" lon="10.2017480">
	<ele>1349.00</ele>
	<time>2025-08-16T10:32:49.000Z</time>
</trkpt>
<trkpt lat="45.9673100" lon="10.2017310">
	<ele>1348.60</ele>
	<time>2025-08-16T10:32:50.000Z</time>
</trkpt>
<trkpt lat="45.9673040" lon="10.2017170">
	<ele>1348.00</ele>
	<time>2025-08-16T10:32:51.000Z</time>
</trkpt>
<trkpt lat="45.9672970" lon="10.2017050">
	<ele>1347.80</ele>
	<time>2025-08-16T10:32:52.000Z</time>
</trkpt>
<trkpt lat="45.9672930" lon="10.2016960">
	<ele>1347.60</ele>
	<time>2025-08-16T10:32:53.000Z</time>
</trkpt>
<trkpt lat="45.9672920" lon="10.2016780">
	<ele>1347.20</ele>
	<time>2025-08-16T10:32:54.000Z</time>
</trkpt>
<trkpt lat="45.9672870" lon="10.2016620">
	<ele>1346.80</ele>
	<time>2025-08-16T10:32:55.000Z</time>
</trkpt>
<trkpt lat="45.9672820" lon="10.2016470">
	<ele>1346.40</ele>
	<time>2025-08-16T10:32:56.000Z</time>
</trkpt>
<trkpt lat="45.9672790" lon="10.2016320">
	<ele>1346.20</ele>
	<time>2025-08-16T10:32:57.000Z</time>
</trkpt>
<trkpt lat="45.9672740" lon="10.2016150">
	<ele>1345.80</ele>
	<time>2025-08-16T10:32:58.000Z</time>
</trkpt>
<trkpt lat="45.9672740" lon="10.2015900">
	<ele>1345.40</ele>
	<time>2025-08-16T10:32:59.000Z</time>
</trkpt>
<trkpt lat="45.9672740" lon="10.2015680">
	<ele>1345.00</ele>
	<time>2025-08-16T10:33:00.000Z</time>
</trkpt>
<trkpt lat="45.9672720" lon="10.2015480">
	<ele>1344.80</ele>
	<time>2025-08-16T10:33:01.000Z</time>
</trkpt>
<trkpt lat="45.9672680" lon="10.2015220">
	<ele>1344.40</ele>
	<time>2025-08-16T10:33:02.000Z</time>
</trkpt>
<trkpt lat="45.9672700" lon="10.2014930">
	<ele>1344.20</ele>
	<time>2025-08-16T10:33:03.000Z</time>
</trkpt>
<trkpt lat="45.9672650" lon="10.2014720">
	<ele>1344.00</ele>
	<time>2025-08-16T10:33:04.000Z</time>
</trkpt>
<trkpt lat="45.9672590" lon="10.2014560">
	<ele>1343.60</ele>
	<time>2025-08-16T10:33:05.000Z</time>
</trkpt>
<trkpt lat="45.9672490" lon="10.2014310">
	<ele>1343.40</ele>
	<time>2025-08-16T10:33:06.000Z</time>
</trkpt>
<trkpt lat="45.9672360" lon="10.2014110">
	<ele>1343.20</ele>
	<time>2025-08-16T10:33:07.000Z</time>
</trkpt>
<trkpt lat="45.9672270" lon="10.2013910">
	<ele>1343.00</ele>
	<time>2025-08-16T10:33:08.000Z</time>
</trkpt>
<trkpt lat="45.9672170" lon="10.2013790">
	<ele>1342.60</ele>
	<time>2025-08-16T10:33:09.000Z</time>
</trkpt>
<trkpt lat="45.9672090" lon="10.2013590">
	<ele>1342.20</ele>
	<time>2025-08-16T10:33:10.000Z</time>
</trkpt>
<trkpt lat="45.9672040" lon="10.2013320">
	<ele>1341.60</ele>
	<time>2025-08-16T10:33:11.000Z</time>
</trkpt>
<trkpt lat="45.9672020" lon="10.2013040">
	<ele>1341.20</ele>
	<time>2025-08-16T10:33:12.000Z</time>
</trkpt>
<trkpt lat="45.9671990" lon="10.2012750">
	<ele>1341.00</ele>
	<time>2025-08-16T10:33:13.000Z</time>
</trkpt>
<trkpt lat="45.9671890" lon="10.2012640">
	<ele>1340.80</ele>
	<time>2025-08-16T10:33:14.000Z</time>
</trkpt>
<trkpt lat="45.9671790" lon="10.2012530">
	<ele>1340.60</ele>
	<time>2025-08-16T10:33:15.000Z</time>
</trkpt>
<trkpt lat="45.9671600" lon="10.2012460">
	<ele>1340.40</ele>
	<time>2025-08-16T10:33:16.000Z</time>
</trkpt>
<trkpt lat="45.9671400" lon="10.2012280">
	<ele>1340.20</ele>
	<time>2025-08-16T10:33:17.000Z</time>
</trkpt>
<trkpt lat="45.9671310" lon="10.2012200">
	<ele>1340.00</ele>
	<time>2025-08-16T10:33:18.000Z</time>
</trkpt>
<trkpt lat="45.9671310" lon="10.2012060">
	<ele>1339.60</ele>
	<time>2025-08-16T10:33:19.000Z</time>
</trkpt>
<trkpt lat="45.9671270" lon="10.2011870">
	<ele>1339.40</ele>
	<time>2025-08-16T10:33:20.000Z</time>
</trkpt>
<trkpt lat="45.9671230" lon="10.2011680">
	<ele>1339.20</ele>
	<time>2025-08-16T10:33:21.000Z</time>
</trkpt>
<trkpt lat="45.9671210" lon="10.2011420">
	<ele>1339.00</ele>
	<time>2025-08-16T10:33:22.000Z</time>
</trkpt>
<trkpt lat="45.9671170" lon="10.2011210">
	<ele>1338.80</ele>
	<time>2025-08-16T10:33:23.000Z</time>
</trkpt>
<trkpt lat="45.9671110" lon="10.2011020">
	<ele>1338.40</ele>
	<time>2025-08-16T10:33:24.000Z</time>
</trkpt>
<trkpt lat="45.9671070" lon="10.2010760">
	<ele>1338.20</ele>
	<time>2025-08-16T10:33:25.000Z</time>
</trkpt>
<trkpt lat="45.9670900" lon="10.2010580">
	<ele>1338.00</ele>
	<time>2025-08-16T10:33:26.000Z</time>
</trkpt>
<trkpt lat="45.9670840" lon="10.2010330">
	<ele>1337.80</ele>
	<time>2025-08-16T10:33:27.000Z</time>
</trkpt>
<trkpt lat="45.9670810" lon="10.2010080">
	<ele>1337.60</ele>
	<time>2025-08-16T10:33:28.000Z</time>
</trkpt>
<trkpt lat="45.9670720" lon="10.2009930">
	<ele>1337.40</ele>
	<time>2025-08-16T10:33:29.000Z</time>
</trkpt>
<trkpt lat="45.9670670" lon="10.2009740">
	<ele>1337.00</ele>
	<time>2025-08-16T10:33:30.000Z</time>
</trkpt>
<trkpt lat="45.9670610" lon="10.2009540">
	<ele>1336.80</ele>
	<time>2025-08-16T10:33:31.000Z</time>
</trkpt>
<trkpt lat="45.9670540" lon="10.2009360">
	<ele>1336.60</ele>
	<time>2025-08-16T10:33:32.000Z</time>
</trkpt>
<trkpt lat="45.9670500" lon="10.2009090">
	<ele>1336.20</ele>
	<time>2025-08-16T10:33:33.000Z</time>
</trkpt>
<trkpt lat="45.9670430" lon="10.2008810">
	<ele>1336.00</ele>
	<time>2025-08-16T10:33:34.000Z</time>
</trkpt>
<trkpt lat="45.9670410" lon="10.2008560">
	<ele>1335.80</ele>
	<time>2025-08-16T10:33:35.000Z</time>
</trkpt>
<trkpt lat="45.9670350" lon="10.2008340">
	<ele>1335.40</ele>
	<time>2025-08-16T10:33:36.000Z</time>
</trkpt>
<trkpt lat="45.9670260" lon="10.2008150">
	<ele>1335.20</ele>
	<time>2025-08-16T10:33:37.000Z</time>
</trkpt>
<trkpt lat="45.9670200" lon="10.2008060">
	<ele>1335.00</ele>
	<time>2025-08-16T10:33:38.000Z</time>
</trkpt>
<trkpt lat="45.9670160" lon="10.2007890">
	<ele>1335.00</ele>
	<time>2025-08-16T10:33:39.000Z</time>
</trkpt>
<trkpt lat="45.9670150" lon="10.2007770">
	<ele>1334.60</ele>
	<time>2025-08-16T10:33:40.000Z</time>
</trkpt>
<trkpt lat="45.9670050" lon="10.2007550">
	<ele>1334.40</ele>
	<time>2025-08-16T10:33:41.000Z</time>
</trkpt>
<trkpt lat="45.9669890" lon="10.2007360">
	<ele>1334.00</ele>
	<time>2025-08-16T10:33:42.000Z</time>
</trkpt>
<trkpt lat="45.9669750" lon="10.2007180">
	<ele>1333.80</ele>
	<time>2025-08-16T10:33:43.000Z</time>
</trkpt>
<trkpt lat="45.9669690" lon="10.2006990">
	<ele>1333.40</ele>
	<time>2025-08-16T10:33:44.000Z</time>
</trkpt>
<trkpt lat="45.9669780" lon="10.2006620">
	<ele>1333.20</ele>
	<time>2025-08-16T10:33:45.000Z</time>
</trkpt>
<trkpt lat="45.9669720" lon="10.2006490">
	<ele>1333.20</ele>
	<time>2025-08-16T10:33:46.000Z</time>
</trkpt>
<trkpt lat="45.9669560" lon="10.2006430">
	<ele>1332.80</ele>
	<time>2025-08-16T10:33:47.000Z</time>
</trkpt>
<trkpt lat="45.9669370" lon="10.2006370">
	<ele>1332.60</ele>
	<time>2025-08-16T10:33:48.000Z</time>
</trkpt>
<trkpt lat="45.9669220" lon="10.2006220">
	<ele>1332.40</ele>
	<time>2025-08-16T10:33:49.000Z</time>
</trkpt>
<trkpt lat="45.9669110" lon="10.2006050">
	<ele>1332.00</ele>
	<time>2025-08-16T10:33:50.000Z</time>
</trkpt>
<trkpt lat="45.9669130" lon="10.2005990">
	<ele>1331.80</ele>
	<time>2025-08-16T10:33:51.000Z</time>
</trkpt>
<trkpt lat="45.9669040" lon="10.2005950">
	<ele>1331.60</ele>
	<time>2025-08-16T10:33:52.000Z</time>
</trkpt>
<trkpt lat="45.9668910" lon="10.2005880">
	<ele>1331.40</ele>
	<time>2025-08-16T10:33:53.000Z</time>
</trkpt>
<trkpt lat="45.9668780" lon="10.2005790">
	<ele>1331.00</ele>
	<time>2025-08-16T10:33:54.000Z</time>
</trkpt>
<trkpt lat="45.9668670" lon="10.2005610">
	<ele>1330.80</ele>
	<time>2025-08-16T10:33:55.000Z</time>
</trkpt>
<trkpt lat="45.9668570" lon="10.2005420">
	<ele>1330.60</ele>
	<time>2025-08-16T10:33:56.000Z</time>
</trkpt>
<trkpt lat="45.9668490" lon="10.2005090">
	<ele>1330.40</ele>
	<time>2025-08-16T10:33:57.000Z</time>
</trkpt>
<trkpt lat="45.9668340" lon="10.2004840">
	<ele>1330.20</ele>
	<time>2025-08-16T10:33:58.000Z</time>
</trkpt>
<trkpt lat="45.9668180" lon="10.2004610">
	<ele>1329.80</ele>
	<time>2025-08-16T10:33:59.000Z</time>
</trkpt>
<trkpt lat="45.9668130" lon="10.2004410">
	<ele>1329.60</ele>
	<time>2025-08-16T10:34:00.000Z</time>
</trkpt>
<trkpt lat="45.9667970" lon="10.2004170">
	<ele>1329.40</ele>
	<time>2025-08-16T10:34:01.000Z</time>
</trkpt>
<trkpt lat="45.9667850" lon="10.2004110">
	<ele>1329.40</ele>
	<time>2025-08-16T10:34:02.000Z</time>
</trkpt>
<trkpt lat="45.9667720" lon="10.2003970">
	<ele>1329.20</ele>
	<time>2025-08-16T10:34:03.000Z</time>
</trkpt>
<trkpt lat="45.9667600" lon="10.2003850">
	<ele>1328.80</ele>
	<time>2025-08-16T10:34:04.000Z</time>
</trkpt>
<trkpt lat="45.9667470" lon="10.2003780">
	<ele>1328.60</ele>
	<time>2025-08-16T10:34:05.000Z</time>
</trkpt>
<trkpt lat="45.9667400" lon="10.2003580">
	<ele>1328.40</ele>
	<time>2025-08-16T10:34:06.000Z</time>
</trkpt>
<trkpt lat="45.9667330" lon="10.2003380">
	<ele>1328.20</ele>
	<time>2025-08-16T10:34:07.000Z</time>
</trkpt>
<trkpt lat="45.9667260" lon="10.2003100">
	<ele>1328.00</ele>
	<time>2025-08-16T10:34:08.000Z</time>
</trkpt>
<trkpt lat="45.9667120" lon="10.2002800">
	<ele>1327.80</ele>
	<time>2025-08-16T10:34:09.000Z</time>
</trkpt>
<trkpt lat="45.9666910" lon="10.2002720">
	<ele>1327.40</ele>
	<time>2025-08-16T10:34:10.000Z</time>
</trkpt>
<trkpt lat="45.9666720" lon="10.2002590">
	<ele>1327.00</ele>
	<time>2025-08-16T10:34:11.000Z</time>
</trkpt>
<trkpt lat="45.9666490" lon="10.2002560">
	<ele>1326.80</ele>
	<time>2025-08-16T10:34:12.000Z</time>
</trkpt>
<trkpt lat="45.9666380" lon="10.2002550">
	<ele>1326.40</ele>
	<time>2025-08-16T10:34:13.000Z</time>
</trkpt>
<trkpt lat="45.9666220" lon="10.2002690">
	<ele>1326.00</ele>
	<time>2025-08-16T10:34:14.000Z</time>
</trkpt>
<trkpt lat="45.9666110" lon="10.2002740">
	<ele>1325.80</ele>
	<time>2025-08-16T10:34:15.000Z</time>
</trkpt>
<trkpt lat="45.9665970" lon="10.2002900">
	<ele>1325.60</ele>
	<time>2025-08-16T10:34:16.000Z</time>
</trkpt>
<trkpt lat="45.9665840" lon="10.2003020">
	<ele>1325.20</ele>
	<time>2025-08-16T10:34:17.000Z</time>
</trkpt>
<trkpt lat="45.9665700" lon="10.2003130">
	<ele>1324.80</ele>
	<time>2025-08-16T10:34:18.000Z</time>
</trkpt>
<trkpt lat="45.9665550" lon="10.2003260">
	<ele>1324.60</ele>
	<time>2025-08-16T10:34:19.000Z</time>
</trkpt>
<trkpt lat="45.9665330" lon="10.2003420">
	<ele>1324.20</ele>
	<time>2025-08-16T10:34:20.000Z</time>
</trkpt>
<trkpt lat="45.9665190" lon="10.2003490">
	<ele>1324.00</ele>
	<time>2025-08-16T10:34:21.000Z</time>
</trkpt>
<trkpt lat="45.9664990" lon="10.2003560">
	<ele>1323.40</ele>
	<time>2025-08-16T10:34:22.000Z</time>
</trkpt>
<trkpt lat="45.9664780" lon="10.2003530">
	<ele>1323.00</ele>
	<time>2025-08-16T10:34:23.000Z</time>
</trkpt>
<trkpt lat="45.9664510" lon="10.2003640">
	<ele>1322.60</ele>
	<time>2025-08-16T10:34:24.000Z</time>
</trkpt>
<trkpt lat="45.9664240" lon="10.2003810">
	<ele>1322.40</ele>
	<time>2025-08-16T10:34:25.000Z</time>
</trkpt>
<trkpt lat="45.9663980" lon="10.2004020">
	<ele>1322.20</ele>
	<time>2025-08-16T10:34:26.000Z</time>
</trkpt>
<trkpt lat="45.9663860" lon="10.2004150">
	<ele>1322.00</ele>
	<time>2025-08-16T10:34:27.000Z</time>
</trkpt>
<trkpt lat="45.9663820" lon="10.2004150">
	<ele>1321.40</ele>
	<time>2025-08-16T10:34:28.000Z</time>
</trkpt>
<trkpt lat="45.9663740" lon="10.2004300">
	<ele>1321.00</ele>
	<time>2025-08-16T10:34:29.000Z</time>
</trkpt>
<trkpt lat="45.9663620" lon="10.2004510">
	<ele>1320.80</ele>
	<time>2025-08-16T10:34:30.000Z</time>
</trkpt>
<trkpt lat="45.9663450" lon="10.2004740">
	<ele>1320.40</ele>
	<time>2025-08-16T10:34:31.000Z</time>
</trkpt>
<trkpt lat="45.9663320" lon="10.2004880">
	<ele>1320.00</ele>
	<time>2025-08-16T10:34:32.000Z</time>
</trkpt>
<trkpt lat="45.9663180" lon="10.2005000">
	<ele>1319.80</ele>
	<time>2025-08-16T10:34:33.000Z</time>
</trkpt>
<trkpt lat="45.9663120" lon="10.2005070">
	<ele>1319.40</ele>
	<time>2025-08-16T10:34:34.000Z</time>
</trkpt>
<trkpt lat="45.9663010" lon="10.2005260">
	<ele>1319.00</ele>
	<time>2025-08-16T10:34:35.000Z</time>
</trkpt>
<trkpt lat="45.9662960" lon="10.2005390">
	<ele>1318.60</ele>
	<time>2025-08-16T10:34:36.000Z</time>
</trkpt>
<trkpt lat="45.9662890" lon="10.2005410">
	<ele>1318.20</ele>
	<time>2025-08-16T10:34:37.000Z</time>
</trkpt>
<trkpt lat="45.9662880" lon="10.2005500">
	<ele>1318.20</ele>
	<time>2025-08-16T10:34:38.000Z</time>
</trkpt>
<trkpt lat="45.9662800" lon="10.2005430">
	<ele>1318.00</ele>
	<time>2025-08-16T10:34:39.000Z</time>
</trkpt>
<trkpt lat="45.9662660" lon="10.2005370">
	<ele>1317.60</ele>
	<time>2025-08-16T10:34:40.000Z</time>
</trkpt>
<trkpt lat="45.9662580" lon="10.2005240">
	<ele>1317.20</ele>
	<time>2025-08-16T10:34:41.000Z</time>
</trkpt>
<trkpt lat="45.9662440" lon="10.2005120">
	<ele>1317.00</ele>
	<time>2025-08-16T10:34:42.000Z</time>
</trkpt>
<trkpt lat="45.9662290" lon="10.2005070">
	<ele>1316.80</ele>
	<time>2025-08-16T10:34:43.000Z</time>
</trkpt>
<trkpt lat="45.9662120" lon="10.2005100">
	<ele>1316.40</ele>
	<time>2025-08-16T10:34:44.000Z</time>
</trkpt>
<trkpt lat="45.9661980" lon="10.2005120">
	<ele>1316.00</ele>
	<time>2025-08-16T10:34:45.000Z</time>
</trkpt>
<trkpt lat="45.9661820" lon="10.2005120">
	<ele>1315.60</ele>
	<time>2025-08-16T10:34:46.000Z</time>
</trkpt>
<trkpt lat="45.9661630" lon="10.2005190">
	<ele>1315.40</ele>
	<time>2025-08-16T10:34:47.000Z</time>
</trkpt>
<trkpt lat="45.9661540" lon="10.2005270">
	<ele>1315.20</ele>
	<time>2025-08-16T10:34:48.000Z</time>
</trkpt>
<trkpt lat="45.9661520" lon="10.2005220">
	<ele>1314.80</ele>
	<time>2025-08-16T10:34:49.000Z</time>
</trkpt>
<trkpt lat="45.9661560" lon="10.2005110">
	<ele>1314.60</ele>
	<time>2025-08-16T10:34:50.000Z</time>
</trkpt>
<trkpt lat="45.9661590" lon="10.2004960">
	<ele>1314.20</ele>
	<time>2025-08-16T10:34:51.000Z</time>
</trkpt>
<trkpt lat="45.9661640" lon="10.2004810">
	<ele>1314.00</ele>
	<time>2025-08-16T10:34:52.000Z</time>
</trkpt>
<trkpt lat="45.9661640" lon="10.2004680">
	<ele>1313.60</ele>
	<time>2025-08-16T10:34:53.000Z</time>
</trkpt>
<trkpt lat="45.9661590" lon="10.2004580">
	<ele>1313.40</ele>
	<time>2025-08-16T10:34:54.000Z</time>
</trkpt>
<trkpt lat="45.9661510" lon="10.2004470">
	<ele>1313.00</ele>
	<time>2025-08-16T10:34:55.000Z</time>
</trkpt>
<trkpt lat="45.9661300" lon="10.2004320">
	<ele>1312.80</ele>
	<time>2025-08-16T10:34:56.000Z</time>
</trkpt>
<trkpt lat="45.9661180" lon="10.2004130">
	<ele>1312.40</ele>
	<time>2025-08-16T10:34:57.000Z</time>
</trkpt>
<trkpt lat="45.9661070" lon="10.2003990">
	<ele>1312.00</ele>
	<time>2025-08-16T10:34:58.000Z</time>
</trkpt>
<trkpt lat="45.9660930" lon="10.2003820">
	<ele>1311.80</ele>
	<time>2025-08-16T10:34:59.000Z</time>
</trkpt>
<trkpt lat="45.9660810" lon="10.2003740">
	<ele>1311.60</ele>
	<time>2025-08-16T10:35:00.000Z</time>
</trkpt>
<trkpt lat="45.9660710" lon="10.2003670">
	<ele>1311.40</ele>
	<time>2025-08-16T10:35:01.000Z</time>
</trkpt>
<trkpt lat="45.9660590" lon="10.2003620">
	<ele>1311.00</ele>
	<time>2025-08-16T10:35:02.000Z</time>
</trkpt>
<trkpt lat="45.9660490" lon="10.2003590">
	<ele>1310.80</ele>
	<time>2025-08-16T10:35:03.000Z</time>
</trkpt>
<trkpt lat="45.9660400" lon="10.2003570">
	<ele>1310.60</ele>
	<time>2025-08-16T10:35:04.000Z</time>
</trkpt>
<trkpt lat="45.9660280" lon="10.2003610">
	<ele>1310.40</ele>
	<time>2025-08-16T10:35:05.000Z</time>
</trkpt>
<trkpt lat="45.9660160" lon="10.2003650">
	<ele>1310.00</ele>
	<time>2025-08-16T10:35:06.000Z</time>
</trkpt>
<trkpt lat="45.9660030" lon="10.2003630">
	<ele>1309.60</ele>
	<time>2025-08-16T10:35:07.000Z</time>
</trkpt>
<trkpt lat="45.9659940" lon="10.2003600">
	<ele>1309.40</ele>
	<time>2025-08-16T10:35:08.000Z</time>
</trkpt>
<trkpt lat="45.9659710" lon="10.2003650">
	<ele>1309.20</ele>
	<time>2025-08-16T10:35:09.000Z</time>
</trkpt>
<trkpt lat="45.9659470" lon="10.2003710">
	<ele>1308.80</ele>
	<time>2025-08-16T10:35:10.000Z</time>
</trkpt>
<trkpt lat="45.9659240" lon="10.2003740">
	<ele>1308.60</ele>
	<time>2025-08-16T10:35:11.000Z</time>
</trkpt>
<trkpt lat="45.9659060" lon="10.2003760">
	<ele>1308.20</ele>
	<time>2025-08-16T10:35:12.000Z</time>
</trkpt>
<trkpt lat="45.9658940" lon="10.2003830">
	<ele>1308.00</ele>
	<time>2025-08-16T10:35:13.000Z</time>
</trkpt>
<trkpt lat="45.9658830" lon="10.2003840">
	<ele>1307.80</ele>
	<time>2025-08-16T10:35:14.000Z</time>
</trkpt>
<trkpt lat="45.9658670" lon="10.2003850">
	<ele>1307.60</ele>
	<time>2025-08-16T10:35:15.000Z</time>
</trkpt>
<trkpt lat="45.9658520" lon="10.2003840">
	<ele>1307.40</ele>
	<time>2025-08-16T10:35:16.000Z</time>
</trkpt>
<trkpt lat="45.9658430" lon="10.2003880">
	<ele>1307.00</ele>
	<time>2025-08-16T10:35:17.000Z</time>
</trkpt>
<trkpt lat="45.9658300" lon="10.2003940">
	<ele>1307.00</ele>
	<time>2025-08-16T10:35:18.000Z</time>
</trkpt>
<trkpt lat="45.9658200" lon="10.2003950">
	<ele>1306.80</ele>
	<time>2025-08-16T10:35:19.000Z</time>
</trkpt>
<trkpt lat="45.9658120" lon="10.2004000">
	<ele>1306.60</ele>
	<time>2025-08-16T10:35:20.000Z</time>
</trkpt>
<trkpt lat="45.9658020" lon="10.2003990">
	<ele>1306.40</ele>
	<time>2025-08-16T10:35:21.000Z</time>
</trkpt>
<trkpt lat="45.9657930" lon="10.2004010">
	<ele>1306.20</ele>
	<time>2025-08-16T10:35:22.000Z</time>
</trkpt>
<trkpt lat="45.9657800" lon="10.2004100">
	<ele>1305.80</ele>
	<time>2025-08-16T10:35:23.000Z</time>
</trkpt>
<trkpt lat="45.9657680" lon="10.2004180">
	<ele>1305.60</ele>
	<time>2025-08-16T10:35:24.000Z</time>
</trkpt>
<trkpt lat="45.9657560" lon="10.2004280">
	<ele>1305.40</ele>
	<time>2025-08-16T10:35:25.000Z</time>
</trkpt>
<trkpt lat="45.9657520" lon="10.2004350">
	<ele>1305.20</ele>
	<time>2025-08-16T10:35:26.000Z</time>
</trkpt>
<trkpt lat="45.9657490" lon="10.2004380">
	<ele>1305.00</ele>
	<time>2025-08-16T10:35:27.000Z</time>
</trkpt>
<trkpt lat="45.9657430" lon="10.2004410">
	<ele>1304.60</ele>
	<time>2025-08-16T10:35:28.000Z</time>
</trkpt>
<trkpt lat="45.9657390" lon="10.2004470">
	<ele>1304.40</ele>
	<time>2025-08-16T10:35:29.000Z</time>
</trkpt>
<trkpt lat="45.9657300" lon="10.2004610">
	<ele>1304.00</ele>
	<time>2025-08-16T10:35:30.000Z</time>
</trkpt>
<trkpt lat="45.9657220" lon="10.2004790">
	<ele>1303.40</ele>
	<time>2025-08-16T10:35:31.000Z</time>
</trkpt>
<trkpt lat="45.9657120" lon="10.2004940">
	<ele>1303.00</ele>
	<time>2025-08-16T10:35:32.000Z</time>
</trkpt>
<trkpt lat="45.9656910" lon="10.2005100">
	<ele>1302.60</ele>
	<time>2025-08-16T10:35:33.000Z</time>
</trkpt>
<trkpt lat="45.9656800" lon="10.2005270">
	<ele>1302.20</ele>
	<time>2025-08-16T10:35:34.000Z</time>
</trkpt>
<trkpt lat="45.9656750" lon="10.2005460">
	<ele>1302.00</ele>
	<time>2025-08-16T10:35:35.000Z</time>
</trkpt>
<trkpt lat="45.9656630" lon="10.2005660">
	<ele>1301.40</ele>
	<time>2025-08-16T10:35:36.000Z</time>
</trkpt>
<trkpt lat="45.9656510" lon="10.2005860">
	<ele>1301.00</ele>
	<time>2025-08-16T10:35:37.000Z</time>
</trkpt>
<trkpt lat="45.9656410" lon="10.2005970">
	<ele>1300.60</ele>
	<time>2025-08-16T10:35:38.000Z</time>
</trkpt>
<trkpt lat="45.9656310" lon="10.2006080">
	<ele>1300.20</ele>
	<time>2025-08-16T10:35:39.000Z</time>
</trkpt>
<trkpt lat="45.9656200" lon="10.2006180">
	<ele>1299.80</ele>
	<time>2025-08-16T10:35:40.000Z</time>
</trkpt>
<trkpt lat="45.9656050" lon="10.2006230">
	<ele>1299.60</ele>
	<time>2025-08-16T10:35:41.000Z</time>
</trkpt>
<trkpt lat="45.9655870" lon="10.2006330">
	<ele>1299.20</ele>
	<time>2025-08-16T10:35:42.000Z</time>
</trkpt>
<trkpt lat="45.9655700" lon="10.2006400">
	<ele>1299.00</ele>
	<time>2025-08-16T10:35:43.000Z</time>
</trkpt>
<trkpt lat="45.9655450" lon="10.2006590">
	<ele>1298.60</ele>
	<time>2025-08-16T10:35:44.000Z</time>
</trkpt>
<trkpt lat="45.9655310" lon="10.2006700">
	<ele>1298.20</ele>
	<time>2025-08-16T10:35:45.000Z</time>
</trkpt>
<trkpt lat="45.9655150" lon="10.2006790">
	<ele>1297.60</ele>
	<time>2025-08-16T10:35:46.000Z</time>
</trkpt>
<trkpt lat="45.9655070" lon="10.2006890">
	<ele>1297.40</ele>
	<time>2025-08-16T10:35:47.000Z</time>
</trkpt>
<trkpt lat="45.9655010" lon="10.2006980">
	<ele>1297.00</ele>
	<time>2025-08-16T10:35:48.000Z</time>
</trkpt>
<trkpt lat="45.9654930" lon="10.2007060">
	<ele>1296.60</ele>
	<time>2025-08-16T10:35:49.000Z</time>
</trkpt>
<trkpt lat="45.9654850" lon="10.2007110">
	<ele>1296.20</ele>
	<time>2025-08-16T10:35:50.000Z</time>
</trkpt>
<trkpt lat="45.9654750" lon="10.2007190">
	<ele>1295.80</ele>
	<time>2025-08-16T10:35:51.000Z</time>
</trkpt>
<trkpt lat="45.9654690" lon="10.2007290">
	<ele>1295.40</ele>
	<time>2025-08-16T10:35:52.000Z</time>
</trkpt>
<trkpt lat="45.9654600" lon="10.2007350">
	<ele>1295.00</ele>
	<time>2025-08-16T10:35:53.000Z</time>
</trkpt>
<trkpt lat="45.9654490" lon="10.2007380">
	<ele>1294.80</ele>
	<time>2025-08-16T10:35:54.000Z</time>
</trkpt>
<trkpt lat="45.9654420" lon="10.2007360">
	<ele>1294.40</ele>
	<time>2025-08-16T10:35:55.000Z</time>
</trkpt>
<trkpt lat="45.9654390" lon="10.2007380">
	<ele>1294.20</ele>
	<time>2025-08-16T10:35:56.000Z</time>
</trkpt>
<trkpt lat="45.9654320" lon="10.2007430">
	<ele>1293.80</ele>
	<time>2025-08-16T10:35:57.000Z</time>
</trkpt>
<trkpt lat="45.9654260" lon="10.2007530">
	<ele>1293.60</ele>
	<time>2025-08-16T10:35:58.000Z</time>
</trkpt>
<trkpt lat="45.9654170" lon="10.2007650">
	<ele>1293.40</ele>
	<time>2025-08-16T10:35:59.000Z</time>
</trkpt>
<trkpt lat="45.9654040" lon="10.2007740">
	<ele>1292.80</ele>
	<time>2025-08-16T10:36:00.000Z</time>
</trkpt>
<trkpt lat="45.9653940" lon="10.2007820">
	<ele>1292.40</ele>
	<time>2025-08-16T10:36:01.000Z</time>
</trkpt>
<trkpt lat="45.9653860" lon="10.2007890">
	<ele>1292.00</ele>
	<time>2025-08-16T10:36:02.000Z</time>
</trkpt>
<trkpt lat="45.9653790" lon="10.2008010">
	<ele>1291.60</ele>
	<time>2025-08-16T10:36:03.000Z</time>
</trkpt>
<trkpt lat="45.9653750" lon="10.2008090">
	<ele>1291.00</ele>
	<time>2025-08-16T10:36:04.000Z</time>
</trkpt>
<trkpt lat="45.9653710" lon="10.2008220">
	<ele>1290.60</ele>
	<time>2025-08-16T10:36:05.000Z</time>
</trkpt>
<trkpt lat="45.9653690" lon="10.2008350">
	<ele>1290.40</ele>
	<time>2025-08-16T10:36:06.000Z</time>
</trkpt>
<trkpt lat="45.9653670" lon="10.2008410">
	<ele>1290.00</ele>
	<time>2025-08-16T10:36:07.000Z</time>
</trkpt>
<trkpt lat="45.9653630" lon="10.2008510">
	<ele>1289.80</ele>
	<time>2025-08-16T10:36:08.000Z</time>
</trkpt>
<trkpt lat="45.9653620" lon="10.2008530">
	<ele>1289.60</ele>
	<time>2025-08-16T10:36:09.000Z</time>
</trkpt>
<trkpt lat="45.9653580" lon="10.2008580">
	<ele>1289.00</ele>
	<time>2025-08-16T10:36:10.000Z</time>
</trkpt>
<trkpt lat="45.9653520" lon="10.2008620">
	<ele>1288.80</ele>
	<time>2025-08-16T10:36:11.000Z</time>
</trkpt>
<trkpt lat="45.9653450" lon="10.2008650">
	<ele>1288.40</ele>
	<time>2025-08-16T10:36:12.000Z</time>
</trkpt>
<trkpt lat="45.9653360" lon="10.2008650">
	<ele>1288.00</ele>
	<time>2025-08-16T10:36:13.000Z</time>
</trkpt>
<trkpt lat="45.9653290" lon="10.2008720">
	<ele>1287.80</ele>
	<time>2025-08-16T10:36:14.000Z</time>
</trkpt>
<trkpt lat="45.9653170" lon="10.2008800">
	<ele>1287.60</ele>
	<time>2025-08-16T10:36:15.000Z</time>
</trkpt>
<trkpt lat="45.9653040" lon="10.2008900">
	<ele>1287.40</ele>
	<time>2025-08-16T10:36:16.000Z</time>
</trkpt>
<trkpt lat="45.9652980" lon="10.2008970">
	<ele>1287.00</ele>
	<time>2025-08-16T10:36:17.000Z</time>
</trkpt>
<trkpt lat="45.9652910" lon="10.2009100">
	<ele>1286.40</ele>
	<time>2025-08-16T10:36:18.000Z</time>
</trkpt>
<trkpt lat="45.9652780" lon="10.2009220">
	<ele>1286.20</ele>
	<time>2025-08-16T10:36:19.000Z</time>
</trkpt>
<trkpt lat="45.9652620" lon="10.2009380">
	<ele>1285.60</ele>
	<time>2025-08-16T10:36:20.000Z</time>
</trkpt>
<trkpt lat="45.9652630" lon="10.2009390">
	<ele>1285.40</ele>
	<time>2025-08-16T10:36:21.000Z</time>
</trkpt>
<trkpt lat="45.9652570" lon="10.2009470">
	<ele>1285.00</ele>
	<time>2025-08-16T10:36:22.000Z</time>
</trkpt>
<trkpt lat="45.9652450" lon="10.2009610">
	<ele>1284.60</ele>
	<time>2025-08-16T10:36:23.000Z</time>
</trkpt>
<trkpt lat="45.9652430" lon="10.2009730">
	<ele>1284.20</ele>
	<time>2025-08-16T10:36:24.000Z</time>
</trkpt>
<trkpt lat="45.9652410" lon="10.2009870">
	<ele>1283.80</ele>
	<time>2025-08-16T10:36:25.000Z</time>
</trkpt>
<trkpt lat="45.9652300" lon="10.2009880">
	<ele>1283.60</ele>
	<time>2025-08-16T10:36:26.000Z</time>
</trkpt>
<trkpt lat="45.9652210" lon="10.2009970">
	<ele>1283.40</ele>
	<time>2025-08-16T10:36:27.000Z</time>
</trkpt>
<trkpt lat="45.9652140" lon="10.2010130">
	<ele>1282.80</ele>
	<time>2025-08-16T10:36:28.000Z</time>
</trkpt>
<trkpt lat="45.9652000" lon="10.2010260">
	<ele>1282.40</ele>
	<time>2025-08-16T10:36:29.000Z</time>
</trkpt>
<trkpt lat="45.9651880" lon="10.2010390">
	<ele>1282.20</ele>
	<time>2025-08-16T10:36:30.000Z</time>
</trkpt>
<trkpt lat="45.9651810" lon="10.2010550">
	<ele>1281.80</ele>
	<time>2025-08-16T10:36:31.000Z</time>
</trkpt>
<trkpt lat="45.9651700" lon="10.2010760">
	<ele>1281.40</ele>
	<time>2025-08-16T10:36:32.000Z</time>
</trkpt>
<trkpt lat="45.9651650" lon="10.2010920">
	<ele>1281.00</ele>
	<time>2025-08-16T10:36:33.000Z</time>
</trkpt>
<trkpt lat="45.9651590" lon="10.2011020">
	<ele>1280.60</ele>
	<time>2025-08-16T10:36:34.000Z</time>
</trkpt>
<trkpt lat="45.9651610" lon="10.2011140">
	<ele>1280.00</ele>
	<time>2025-08-16T10:36:35.000Z</time>
</trkpt>
<trkpt lat="45.9651600" lon="10.2011230">
	<ele>1279.80</ele>
	<time>2025-08-16T10:36:36.000Z</time>
</trkpt>
<trkpt lat="45.9651580" lon="10.2011350">
	<ele>1279.60</ele>
	<time>2025-08-16T10:36:37.000Z</time>
</trkpt>
<trkpt lat="45.9651640" lon="10.2011360">
	<ele>1279.20</ele>
	<time>2025-08-16T10:36:38.000Z</time>
</trkpt>
<trkpt lat="45.9651570" lon="10.2011330">
	<ele>1279.00</ele>
	<time>2025-08-16T10:36:39.000Z</time>
</trkpt>
<trkpt lat="45.9651510" lon="10.2011290">
	<ele>1278.40</ele>
	<time>2025-08-16T10:36:40.000Z</time>
</trkpt>
<trkpt lat="45.9651460" lon="10.2011290">
	<ele>1278.20</ele>
	<time>2025-08-16T10:36:41.000Z</time>
</trkpt>
<trkpt lat="45.9651360" lon="10.2011320">
	<ele>1277.80</ele>
	<time>2025-08-16T10:36:42.000Z</time>
</trkpt>
<trkpt lat="45.9651300" lon="10.2011410">
	<ele>1277.40</ele>
	<time>2025-08-16T10:36:43.000Z</time>
</trkpt>
<trkpt lat="45.9651220" lon="10.2011500">
	<ele>1277.20</ele>
	<time>2025-08-16T10:36:44.000Z</time>
</trkpt>
<trkpt lat="45.9651130" lon="10.2011590">
	<ele>1276.80</ele>
	<time>2025-08-16T10:36:45.000Z</time>
</trkpt>
<trkpt lat="45.9650970" lon="10.2011610">
	<ele>1276.40</ele>
	<time>2025-08-16T10:36:46.000Z</time>
</trkpt>
<trkpt lat="45.9650820" lon="10.2011650">
	<ele>1276.00</ele>
	<time>2025-08-16T10:36:47.000Z</time>
</trkpt>
<trkpt lat="45.9650710" lon="10.2011630">
	<ele>1275.60</ele>
	<time>2025-08-16T10:36:48.000Z</time>
</trkpt>
<trkpt lat="45.9650600" lon="10.2011610">
	<ele>1275.20</ele>
	<time>2025-08-16T10:36:49.000Z</time>
</trkpt>
<trkpt lat="45.9650550" lon="10.2011600">
	<ele>1275.00</ele>
	<time>2025-08-16T10:36:50.000Z</time>
</trkpt>
<trkpt lat="45.9650480" lon="10.2011690">
	<ele>1274.60</ele>
	<time>2025-08-16T10:36:51.000Z</time>
</trkpt>
<trkpt lat="45.9650340" lon="10.2011900">
	<ele>1274.20</ele>
	<time>2025-08-16T10:36:52.000Z</time>
</trkpt>
<trkpt lat="45.9650300" lon="10.2011950">
	<ele>1273.80</ele>
	<time>2025-08-16T10:36:53.000Z</time>
</trkpt>
<trkpt lat="45.9650170" lon="10.2011990">
	<ele>1273.60</ele>
	<time>2025-08-16T10:36:54.000Z</time>
</trkpt>
<trkpt lat="45.9650080" lon="10.2012010">
	<ele>1273.00</ele>
	<time>2025-08-16T10:36:55.000Z</time>
</trkpt>
<trkpt lat="45.9650010" lon="10.2012000">
	<ele>1272.80</ele>
	<time>2025-08-16T10:36:56.000Z</time>
</trkpt>
<trkpt lat="45.9649910" lon="10.2012030">
	<ele>1272.20</ele>
	<time>2025-08-16T10:36:57.000Z</time>
</trkpt>
<trkpt lat="45.9649870" lon="10.2012020">
	<ele>1271.80</ele>
	<time>2025-08-16T10:36:58.000Z</time>
</trkpt>
<trkpt lat="45.9649810" lon="10.2012000">
	<ele>1271.60</ele>
	<time>2025-08-16T10:36:59.000Z</time>
</trkpt>
<trkpt lat="45.9649740" lon="10.2011970">
	<ele>1271.40</ele>
	<time>2025-08-16T10:37:00.000Z</time>
</trkpt>
<trkpt lat="45.9649690" lon="10.2011880">
	<ele>1271.00</ele>
	<time>2025-08-16T10:37:01.000Z</time>
</trkpt>
<trkpt lat="45.9649660" lon="10.2011850">
	<ele>1270.60</ele>
	<time>2025-08-16T10:37:02.000Z</time>
</trkpt>
<trkpt lat="45.9649640" lon="10.2011860">
	<ele>1270.20</ele>
	<time>2025-08-16T10:37:03.000Z</time>
</trkpt>
<trkpt lat="45.9649640" lon="10.2011880">
	<ele>1270.00</ele>
	<time>2025-08-16T10:37:04.000Z</time>
</trkpt>
<trkpt lat="45.9649550" lon="10.2011820">
	<ele>1269.60</ele>
	<time>2025-08-16T10:37:05.000Z</time>
</trkpt>
<trkpt lat="45.9649480" lon="10.2011740">
	<ele>1269.20</ele>
	<time>2025-08-16T10:37:06.000Z</time>
</trkpt>
<trkpt lat="45.9649440" lon="10.2011660">
	<ele>1269.00</ele>
	<time>2025-08-16T10:37:07.000Z</time>
</trkpt>
<trkpt lat="45.9649460" lon="10.2011540">
	<ele>1268.60</ele>
	<time>2025-08-16T10:37:08.000Z</time>
</trkpt>
<trkpt lat="45.9649430" lon="10.2011510">
	<ele>1268.00</ele>
	<time>2025-08-16T10:37:09.000Z</time>
</trkpt>
<trkpt lat="45.9649270" lon="10.2011590">
	<ele>1267.80</ele>
	<time>2025-08-16T10:37:10.000Z</time>
</trkpt>
<trkpt lat="45.9649130" lon="10.2011700">
	<ele>1267.60</ele>
	<time>2025-08-16T10:37:11.000Z</time>
</trkpt>
<trkpt lat="45.9649040" lon="10.2011880">
	<ele>1267.00</ele>
	<time>2025-08-16T10:37:12.000Z</time>
</trkpt>
<trkpt lat="45.9648880" lon="10.2011940">
	<ele>1266.60</ele>
	<time>2025-08-16T10:37:13.000Z</time>
</trkpt>
<trkpt lat="45.9648740" lon="10.2011930">
	<ele>1266.40</ele>
	<time>2025-08-16T10:37:14.000Z</time>
</trkpt>
<trkpt lat="45.9648610" lon="10.2011950">
	<ele>1266.00</ele>
	<time>2025-08-16T10:37:15.000Z</time>
</trkpt>
<trkpt lat="45.9648480" lon="10.2011940">
	<ele>1265.60</ele>
	<time>2025-08-16T10:37:16.000Z</time>
</trkpt>
<trkpt lat="45.9648370" lon="10.2011930">
	<ele>1265.20</ele>
	<time>2025-08-16T10:37:17.000Z</time>
</trkpt>
<trkpt lat="45.9648250" lon="10.2011890">
	<ele>1265.00</ele>
	<time>2025-08-16T10:37:18.000Z</time>
</trkpt>
<trkpt lat="45.9648180" lon="10.2011830">
	<ele>1264.60</ele>
	<time>2025-08-16T10:37:19.000Z</time>
</trkpt>
<trkpt lat="45.9648140" lon="10.2011770">
	<ele>1264.20</ele>
	<time>2025-08-16T10:37:20.000Z</time>
</trkpt>
<trkpt lat="45.9648120" lon="10.2011720">
	<ele>1263.80</ele>
	<time>2025-08-16T10:37:21.000Z</time>
</trkpt>
<trkpt lat="45.9648060" lon="10.2011720">
	<ele>1263.40</ele>
	<time>2025-08-16T10:37:22.000Z</time>
</trkpt>
<trkpt lat="45.9648010" lon="10.2011630">
	<ele>1263.40</ele>
	<time>2025-08-16T10:37:23.000Z</time>
</trkpt>
<trkpt lat="45.9647920" lon="10.2011580">
	<ele>1263.20</ele>
	<time>2025-08-16T10:37:24.000Z</time>
</trkpt>
<trkpt lat="45.9647860" lon="10.2011460">
	<ele>1262.60</ele>
	<time>2025-08-16T10:37:25.000Z</time>
</trkpt>
<trkpt lat="45.9647750" lon="10.2011470">
	<ele>1262.20</ele>
	<time>2025-08-16T10:37:26.000Z</time>
</trkpt>
<trkpt lat="45.9647650" lon="10.2011480">
	<ele>1262.00</ele>
	<time>2025-08-16T10:37:27.000Z</time>
</trkpt>
<trkpt lat="45.9647610" lon="10.2011460">
	<ele>1261.60</ele>
	<time>2025-08-16T10:37:28.000Z</time>
</trkpt>
<trkpt lat="45.9647490" lon="10.2011430">
	<ele>1261.20</ele>
	<time>2025-08-16T10:37:29.000Z</time>
</trkpt>
<trkpt lat="45.9647370" lon="10.2011440">
	<ele>1261.00</ele>
	<time>2025-08-16T10:37:30.000Z</time>
</trkpt>
<trkpt lat="45.9647330" lon="10.2011510">
	<ele>1260.60</ele>
	<time>2025-08-16T10:37:31.000Z</time>
</trkpt>
<trkpt lat="45.9647310" lon="10.2011360">
	<ele>1260.20</ele>
	<time>2025-08-16T10:37:32.000Z</time>
</trkpt>
<trkpt lat="45.9647280" lon="10.2011350">
	<ele>1260.00</ele>
	<time>2025-08-16T10:37:33.000Z</time>
</trkpt>
<trkpt lat="45.9647210" lon="10.2011240">
	<ele>1259.60</ele>
	<time>2025-08-16T10:37:34.000Z</time>
</trkpt>
<trkpt lat="45.9647020" lon="10.2011100">
	<ele>1259.20</ele>
	<time>2025-08-16T10:37:35.000Z</time>
</trkpt>
<trkpt lat="45.9646810" lon="10.2011050">
	<ele>1258.80</ele>
	<time>2025-08-16T10:37:36.000Z</time>
</trkpt>
<trkpt lat="45.9646570" lon="10.2011000">
	<ele>1258.60</ele>
	<time>2025-08-16T10:37:37.000Z</time>
</trkpt>
<trkpt lat="45.9646370" lon="10.2010970">
	<ele>1258.40</ele>
	<time>2025-08-16T10:37:38.000Z</time>
</trkpt>
<trkpt lat="45.9646170" lon="10.2010930">
	<ele>1257.80</ele>
	<time>2025-08-16T10:37:39.000Z</time>
</trkpt>
<trkpt lat="45.9645960" lon="10.2010880">
	<ele>1257.40</ele>
	<time>2025-08-16T10:37:40.000Z</time>
</trkpt>
<trkpt lat="45.9645820" lon="10.2010830">
	<ele>1257.20</ele>
	<time>2025-08-16T10:37:41.000Z</time>
</trkpt>
<trkpt lat="45.9645800" lon="10.2010850">
	<ele>1256.80</ele>
	<time>2025-08-16T10:37:42.000Z</time>
</trkpt>
<trkpt lat="45.9645790" lon="10.2010820">
	<ele>1256.40</ele>
	<time>2025-08-16T10:37:43.000Z</time>
</trkpt>
<trkpt lat="45.9645790" lon="10.2010810">
	<ele>1256.20</ele>
	<time>2025-08-16T10:37:44.000Z</time>
</trkpt>
<trkpt lat="45.9645780" lon="10.2010820">
	<ele>1255.80</ele>
	<time>2025-08-16T10:37:45.000Z</time>
</trkpt>
<trkpt lat="45.9645670" lon="10.2010850">
	<ele>1255.40</ele>
	<time>2025-08-16T10:37:46.000Z</time>
</trkpt>
<trkpt lat="45.9645440" lon="10.2010900">
	<ele>1255.00</ele>
	<time>2025-08-16T10:37:47.000Z</time>
</trkpt>
<trkpt lat="45.9645170" lon="10.2010900">
	<ele>1254.80</ele>
	<time>2025-08-16T10:37:48.000Z</time>
</trkpt>
<trkpt lat="45.9645060" lon="10.2010860">
	<ele>1254.40</ele>
	<time>2025-08-16T10:37:49.000Z</time>
</trkpt>
<trkpt lat="45.9644970" lon="10.2010790">
	<ele>1254.20</ele>
	<time>2025-08-16T10:37:50.000Z</time>
</trkpt>
<trkpt lat="45.9644900" lon="10.2010660">
	<ele>1253.80</ele>
	<time>2025-08-16T10:37:51.000Z</time>
</trkpt>
<trkpt lat="45.9644860" lon="10.2010540">
	<ele>1253.40</ele>
	<time>2025-08-16T10:37:52.000Z</time>
</trkpt>
<trkpt lat="45.9644730" lon="10.2010470">
	<ele>1253.20</ele>
	<time>2025-08-16T10:37:53.000Z</time>
</trkpt>
<trkpt lat="45.9644620" lon="10.2010390">
	<ele>1253.00</ele>
	<time>2025-08-16T10:37:54.000Z</time>
</trkpt>
<trkpt lat="45.9644510" lon="10.2010320">
	<ele>1252.80</ele>
	<time>2025-08-16T10:37:55.000Z</time>
</trkpt>
<trkpt lat="45.9644400" lon="10.2010190">
	<ele>1252.60</ele>
	<time>2025-08-16T10:37:56.000Z</time>
</trkpt>
<trkpt lat="45.9644340" lon="10.2010020">
	<ele>1252.40</ele>
	<time>2025-08-16T10:37:57.000Z</time>
</trkpt>
<trkpt lat="45.9644220" lon="10.2009890">
	<ele>1252.00</ele>
	<time>2025-08-16T10:37:58.000Z</time>
</trkpt>
<trkpt lat="45.9644180" lon="10.2009710">
	<ele>1251.80</ele>
	<time>2025-08-16T10:37:59.000Z</time>
</trkpt>
<trkpt lat="45.9644100" lon="10.2009450">
	<ele>1251.60</ele>
	<time>2025-08-16T10:38:00.000Z</time>
</trkpt>
<trkpt lat="45.9644020" lon="10.2009270">
	<ele>1251.40</ele>
	<time>2025-08-16T10:38:01.000Z</time>
</trkpt>
<trkpt lat="45.9643960" lon="10.2009110">
	<ele>1251.20</ele>
	<time>2025-08-16T10:38:02.000Z</time>
</trkpt>
<trkpt lat="45.9643920" lon="10.2009000">
	<ele>1251.00</ele>
	<time>2025-08-16T10:38:03.000Z</time>
</trkpt>
<trkpt lat="45.9643940" lon="10.2008840">
	<ele>1250.80</ele>
	<time>2025-08-16T10:38:04.000Z</time>
</trkpt>
<trkpt lat="45.9643930" lon="10.2008720">
	<ele>1250.60</ele>
	<time>2025-08-16T10:38:05.000Z</time>
</trkpt>
<trkpt lat="45.9643890" lon="10.2008530">
	<ele>1250.20</ele>
	<time>2025-08-16T10:38:06.000Z</time>
</trkpt>
<trkpt lat="45.9643840" lon="10.2008310">
	<ele>1249.80</ele>
	<time>2025-08-16T10:38:07.000Z</time>
</trkpt>
<trkpt lat="45.9643760" lon="10.2008200">
	<ele>1249.60</ele>
	<time>2025-08-16T10:38:08.000Z</time>
</trkpt>
<trkpt lat="45.9643640" lon="10.2008120">
	<ele>1249.20</ele>
	<time>2025-08-16T10:38:09.000Z</time>
</trkpt>
<trkpt lat="45.9643560" lon="10.2008050">
	<ele>1248.80</ele>
	<time>2025-08-16T10:38:10.000Z</time>
</trkpt>
<trkpt lat="45.9643490" lon="10.2007920">
	<ele>1248.60</ele>
	<time>2025-08-16T10:38:11.000Z</time>
</trkpt>
<trkpt lat="45.9643510" lon="10.2007760">
	<ele>1248.20</ele>
	<time>2025-08-16T10:38:12.000Z</time>
</trkpt>
<trkpt lat="45.9643540" lon="10.2007640">
	<ele>1248.00</ele>
	<time>2025-08-16T10:38:13.000Z</time>
</trkpt>
<trkpt lat="45.9643550" lon="10.2007470">
	<ele>1247.80</ele>
	<time>2025-08-16T10:38:14.000Z</time>
</trkpt>
<trkpt lat="45.9643480" lon="10.2007360">
	<ele>1247.40</ele>
	<time>2025-08-16T10:38:15.000Z</time>
</trkpt>
<trkpt lat="45.9643340" lon="10.2007260">
	<ele>1247.00</ele>
	<time>2025-08-16T10:38:16.000Z</time>
</trkpt>
<trkpt lat="45.9643240" lon="10.2007180">
	<ele>1246.80</ele>
	<time>2025-08-16T10:38:17.000Z</time>
</trkpt>
<trkpt lat="45.9643080" lon="10.2007170">
	<ele>1246.60</ele>
	<time>2025-08-16T10:38:18.000Z</time>
</trkpt>
<trkpt lat="45.9643000" lon="10.2007110">
	<ele>1246.40</ele>
	<time>2025-08-16T10:38:19.000Z</time>
</trkpt>
<trkpt lat="45.9642860" lon="10.2007090">
	<ele>1246.00</ele>
	<time>2025-08-16T10:38:20.000Z</time>
</trkpt>
<trkpt lat="45.9642730" lon="10.2007080">
	<ele>1245.60</ele>
	<time>2025-08-16T10:38:21.000Z</time>
</trkpt>
<trkpt lat="45.9642610" lon="10.2007110">
	<ele>1245.20</ele>
	<time>2025-08-16T10:38:22.000Z</time>
</trkpt>
<trkpt lat="45.9642480" lon="10.2007050">
	<ele>1245.00</ele>
	<time>2025-08-16T10:38:23.000Z</time>
</trkpt>
<trkpt lat="45.9642390" lon="10.2006940">
	<ele>1244.60</ele>
	<time>2025-08-16T10:38:24.000Z</time>
</trkpt>
<trkpt lat="45.9642360" lon="10.2006800">
	<ele>1244.40</ele>
	<time>2025-08-16T10:38:25.000Z</time>
</trkpt>
<trkpt lat="45.9642300" lon="10.2006720">
	<ele>1244.00</ele>
	<time>2025-08-16T10:38:26.000Z</time>
</trkpt>
<trkpt lat="45.9642240" lon="10.2006690">
	<ele>1243.60</ele>
	<time>2025-08-16T10:38:27.000Z</time>
</trkpt>
<trkpt lat="45.9642170" lon="10.2006690">
	<ele>1243.40</ele>
	<time>2025-08-16T10:38:28.000Z</time>
</trkpt>
<trkpt lat="45.9641980" lon="10.2006820">
	<ele>1243.20</ele>
	<time>2025-08-16T10:38:29.000Z</time>
</trkpt>
<trkpt lat="45.9641770" lon="10.2006860">
	<ele>1243.00</ele>
	<time>2025-08-16T10:38:30.000Z</time>
</trkpt>
<trkpt lat="45.9641570" lon="10.2006850">
	<ele>1242.80</ele>
	<time>2025-08-16T10:38:31.000Z</time>
</trkpt>
<trkpt lat="45.9641460" lon="10.2006810">
	<ele>1242.40</ele>
	<time>2025-08-16T10:38:32.000Z</time>
</trkpt>
<trkpt lat="45.9641430" lon="10.2006680">
	<ele>1242.20</ele>
	<time>2025-08-16T10:38:33.000Z</time>
</trkpt>
<trkpt lat="45.9641500" lon="10.2006470">
	<ele>1241.80</ele>
	<time>2025-08-16T10:38:34.000Z</time>
</trkpt>
<trkpt lat="45.9641510" lon="10.2006320">
	<ele>1241.60</ele>
	<time>2025-08-16T10:38:35.000Z</time>
</trkpt>
<trkpt lat="45.9641530" lon="10.2006190">
	<ele>1241.20</ele>
	<time>2025-08-16T10:38:36.000Z</time>
</trkpt>
<trkpt lat="45.9641510" lon="10.2006080">
	<ele>1241.00</ele>
	<time>2025-08-16T10:38:37.000Z</time>
</trkpt>
<trkpt lat="45.9641510" lon="10.2005870">
	<ele>1240.80</ele>
	<time>2025-08-16T10:38:38.000Z</time>
</trkpt>
<trkpt lat="45.9641480" lon="10.2005810">
	<ele>1240.60</ele>
	<time>2025-08-16T10:38:39.000Z</time>
</trkpt>
<trkpt lat="45.9641490" lon="10.2005700">
	<ele>1240.40</ele>
	<time>2025-08-16T10:38:40.000Z</time>
</trkpt>
<trkpt lat="45.9641450" lon="10.2005740">
	<ele>1240.20</ele>
	<time>2025-08-16T10:38:41.000Z</time>
</trkpt>
<trkpt lat="45.9641350" lon="10.2005730">
	<ele>1239.80</ele>
	<time>2025-08-16T10:38:42.000Z</time>
</trkpt>
<trkpt lat="45.9641260" lon="10.2005670">
	<ele>1239.60</ele>
	<time>2025-08-16T10:38:43.000Z</time>
</trkpt>
<trkpt lat="45.9641240" lon="10.2005530">
	<ele>1239.20</ele>
	<time>2025-08-16T10:38:44.000Z</time>
</trkpt>
<trkpt lat="45.9641180" lon="10.2005430">
	<ele>1239.00</ele>
	<time>2025-08-16T10:38:45.000Z</time>
</trkpt>
<trkpt lat="45.9641110" lon="10.2005320">
	<ele>1238.60</ele>
	<time>2025-08-16T10:38:46.000Z</time>
</trkpt>
<trkpt lat="45.9641010" lon="10.2005220">
	<ele>1238.20</ele>
	<time>2025-08-16T10:38:47.000Z</time>
</trkpt>
<trkpt lat="45.9640940" lon="10.2005130">
	<ele>1238.00</ele>
	<time>2025-08-16T10:38:48.000Z</time>
</trkpt>
<trkpt lat="45.9640950" lon="10.2004910">
	<ele>1237.80</ele>
	<time>2025-08-16T10:38:49.000Z</time>
</trkpt>
<trkpt lat="45.9640940" lon="10.2004760">
	<ele>1237.40</ele>
	<time>2025-08-16T10:38:50.000Z</time>
</trkpt>
<trkpt lat="45.9641000" lon="10.2004560">
	<ele>1237.20</ele>
	<time>2025-08-16T10:38:51.000Z</time>
</trkpt>
<trkpt lat="45.9640980" lon="10.2004330">
	<ele>1236.80</ele>
	<time>2025-08-16T10:38:52.000Z</time>
</trkpt>
<trkpt lat="45.9640800" lon="10.2004100">
	<ele>1236.60</ele>
	<time>2025-08-16T10:38:53.000Z</time>
</trkpt>
<trkpt lat="45.9640630" lon="10.2003880">
	<ele>1236.40</ele>
	<time>2025-08-16T10:38:54.000Z</time>
</trkpt>
<trkpt lat="45.9640470" lon="10.2003700">
	<ele>1236.20</ele>
	<time>2025-08-16T10:38:55.000Z</time>
</trkpt>
<trkpt lat="45.9640340" lon="10.2003500">
	<ele>1236.00</ele>
	<time>2025-08-16T10:38:56.000Z</time>
</trkpt>
<trkpt lat="45.9640200" lon="10.2003250">
	<ele>1235.60</ele>
	<time>2025-08-16T10:38:57.000Z</time>
</trkpt>
<trkpt lat="45.9640110" lon="10.2003110">
	<ele>1235.20</ele>
	<time>2025-08-16T10:38:58.000Z</time>
</trkpt>
<trkpt lat="45.9640070" lon="10.2002900">
	<ele>1235.00</ele>
	<time>2025-08-16T10:38:59.000Z</time>
</trkpt>
<trkpt lat="45.9640060" lon="10.2002720">
	<ele>1234.80</ele>
	<time>2025-08-16T10:39:00.000Z</time>
</trkpt>
<trkpt lat="45.9639990" lon="10.2002660">
	<ele>1234.20</ele>
	<time>2025-08-16T10:39:01.000Z</time>
</trkpt>
<trkpt lat="45.9639910" lon="10.2002560">
	<ele>1233.80</ele>
	<time>2025-08-16T10:39:02.000Z</time>
</trkpt>
<trkpt lat="45.9639770" lon="10.2002510">
	<ele>1233.60</ele>
	<time>2025-08-16T10:39:03.000Z</time>
</trkpt>
<trkpt lat="45.9639650" lon="10.2002470">
	<ele>1233.20</ele>
	<time>2025-08-16T10:39:04.000Z</time>
</trkpt>
<trkpt lat="45.9639530" lon="10.2002380">
	<ele>1233.00</ele>
	<time>2025-08-16T10:39:05.000Z</time>
</trkpt>
<trkpt lat="45.9639420" lon="10.2002250">
	<ele>1232.60</ele>
	<time>2025-08-16T10:39:06.000Z</time>
</trkpt>
<trkpt lat="45.9639380" lon="10.2002040">
	<ele>1232.40</ele>
	<time>2025-08-16T10:39:07.000Z</time>
</trkpt>
<trkpt lat="45.9639310" lon="10.2001800">
	<ele>1232.20</ele>
	<time>2025-08-16T10:39:08.000Z</time>
</trkpt>
<trkpt lat="45.9639230" lon="10.2001670">
	<ele>1232.00</ele>
	<time>2025-08-16T10:39:09.000Z</time>
</trkpt>
<trkpt lat="45.9639020" lon="10.2001580">
	<ele>1231.60</ele>
	<time>2025-08-16T10:39:10.000Z</time>
</trkpt>
<trkpt lat="45.9638820" lon="10.2001570">
	<ele>1231.20</ele>
	<time>2025-08-16T10:39:11.000Z</time>
</trkpt>
<trkpt lat="45.9638670" lon="10.2001500">
	<ele>1231.00</ele>
	<time>2025-08-16T10:39:12.000Z</time>
</trkpt>
<trkpt lat="45.9638510" lon="10.2001480">
	<ele>1230.60</ele>
	<time>2025-08-16T10:39:13.000Z</time>
</trkpt>
<trkpt lat="45.9638390" lon="10.2001460">
	<ele>1230.20</ele>
	<time>2025-08-16T10:39:14.000Z</time>
</trkpt>
<trkpt lat="45.9638320" lon="10.2001380">
	<ele>1229.80</ele>
	<time>2025-08-16T10:39:15.000Z</time>
</trkpt>
<trkpt lat="45.9638230" lon="10.2001310">
	<ele>1229.60</ele>
	<time>2025-08-16T10:39:16.000Z</time>
</trkpt>
<trkpt lat="45.9638090" lon="10.2001260">
	<ele>1229.40</ele>
	<time>2025-08-16T10:39:17.000Z</time>
</trkpt>
<trkpt lat="45.9638000" lon="10.2001220">
	<ele>1228.80</ele>
	<time>2025-08-16T10:39:18.000Z</time>
</trkpt>
<trkpt lat="45.9637890" lon="10.2001130">
	<ele>1228.40</ele>
	<time>2025-08-16T10:39:19.000Z</time>
</trkpt>
<trkpt lat="45.9637760" lon="10.2001040">
	<ele>1228.20</ele>
	<time>2025-08-16T10:39:20.000Z</time>
</trkpt>
<trkpt lat="45.9637640" lon="10.2000980">
	<ele>1227.80</ele>
	<time>2025-08-16T10:39:21.000Z</time>
</trkpt>
<trkpt lat="45.9637550" lon="10.2000910">
	<ele>1227.60</ele>
	<time>2025-08-16T10:39:22.000Z</time>
</trkpt>
<trkpt lat="45.9637420" lon="10.2000860">
	<ele>1227.40</ele>
	<time>2025-08-16T10:39:23.000Z</time>
</trkpt>
<trkpt lat="45.9637270" lon="10.2000820">
	<ele>1227.20</ele>
	<time>2025-08-16T10:39:24.000Z</time>
</trkpt>
<trkpt lat="45.9637110" lon="10.2000820">
	<ele>1227.00</ele>
	<time>2025-08-16T10:39:25.000Z</time>
</trkpt>
<trkpt lat="45.9636930" lon="10.2000720">
	<ele>1226.80</ele>
	<time>2025-08-16T10:39:26.000Z</time>
</trkpt>
<trkpt lat="45.9636790" lon="10.2000640">
	<ele>1226.80</ele>
	<time>2025-08-16T10:39:27.000Z</time>
</trkpt>
<trkpt lat="45.9636630" lon="10.2000560">
	<ele>1226.40</ele>
	<time>2025-08-16T10:39:28.000Z</time>
</trkpt>
<trkpt lat="45.9636470" lon="10.2000500">
	<ele>1226.20</ele>
	<time>2025-08-16T10:39:29.000Z</time>
</trkpt>
<trkpt lat="45.9636300" lon="10.2000480">
	<ele>1225.80</ele>
	<time>2025-08-16T10:39:30.000Z</time>
</trkpt>
<trkpt lat="45.9636150" lon="10.2000520">
	<ele>1225.60</ele>
	<time>2025-08-16T10:39:31.000Z</time>
</trkpt>
<trkpt lat="45.9636050" lon="10.2000490">
	<ele>1225.40</ele>
	<time>2025-08-16T10:39:32.000Z</time>
</trkpt>
<trkpt lat="45.9635950" lon="10.2000430">
	<ele>1225.00</ele>
	<time>2025-08-16T10:39:33.000Z</time>
</trkpt>
<trkpt lat="45.9635840" lon="10.2000360">
	<ele>1224.80</ele>
	<time>2025-08-16T10:39:34.000Z</time>
</trkpt>
<trkpt lat="45.9635710" lon="10.2000320">
	<ele>1224.60</ele>
	<time>2025-08-16T10:39:35.000Z</time>
</trkpt>
<trkpt lat="45.9635570" lon="10.2000290">
	<ele>1224.40</ele>
	<time>2025-08-16T10:39:36.000Z</time>
</trkpt>
<trkpt lat="45.9635490" lon="10.2000270">
	<ele>1224.00</ele>
	<time>2025-08-16T10:39:37.000Z</time>
</trkpt>
<trkpt lat="45.9635410" lon="10.2000230">
	<ele>1223.80</ele>
	<time>2025-08-16T10:39:38.000Z</time>
</trkpt>
<trkpt lat="45.9635330" lon="10.2000230">
	<ele>1223.60</ele>
	<time>2025-08-16T10:39:39.000Z</time>
</trkpt>
<trkpt lat="45.9635230" lon="10.2000330">
	<ele>1223.40</ele>
	<time>2025-08-16T10:39:40.000Z</time>
</trkpt>
<trkpt lat="45.9635090" lon="10.2000410">
	<ele>1223.00</ele>
	<time>2025-08-16T10:39:41.000Z</time>
</trkpt>
<trkpt lat="45.9634960" lon="10.2000460">
	<ele>1222.80</ele>
	<time>2025-08-16T10:39:42.000Z</time>
</trkpt>
<trkpt lat="45.9634830" lon="10.2000450">
	<ele>1222.60</ele>
	<time>2025-08-16T10:39:43.000Z</time>
</trkpt>
<trkpt lat="45.9634700" lon="10.2000470">
	<ele>1222.20</ele>
	<time>2025-08-16T10:39:44.000Z</time>
</trkpt>
<trkpt lat="45.9634580" lon="10.2000500">
	<ele>1222.00</ele>
	<time>2025-08-16T10:39:45.000Z</time>
</trkpt>
<trkpt lat="45.9634480" lon="10.2000540">
	<ele>1221.60</ele>
	<time>2025-08-16T10:39:46.000Z</time>
</trkpt>
<trkpt lat="45.9634360" lon="10.2000570">
	<ele>1221.20</ele>
	<time>2025-08-16T10:39:47.000Z</time>
</trkpt>
<trkpt lat="45.9634300" lon="10.2000610">
	<ele>1220.80</ele>
	<time>2025-08-16T10:39:48.000Z</time>
</trkpt>
<trkpt lat="45.9634220" lon="10.2000780">
	<ele>1220.40</ele>
	<time>2025-08-16T10:39:49.000Z</time>
</trkpt>
<trkpt lat="45.9634150" lon="10.2000940">
	<ele>1220.00</ele>
	<time>2025-08-16T10:39:50.000Z</time>
</trkpt>
<trkpt lat="45.9634150" lon="10.2001040">
	<ele>1219.80</ele>
	<time>2025-08-16T10:39:51.000Z</time>
</trkpt>
<trkpt lat="45.9634140" lon="10.2001150">
	<ele>1219.40</ele>
	<time>2025-08-16T10:39:52.000Z</time>
</trkpt>
<trkpt lat="45.9634190" lon="10.2001300">
	<ele>1219.20</ele>
	<time>2025-08-16T10:39:53.000Z</time>
</trkpt>
<trkpt lat="45.9634260" lon="10.2001580">
	<ele>1218.80</ele>
	<time>2025-08-16T10:39:54.000Z</time>
</trkpt>
<trkpt lat="45.9634320" lon="10.2001770">
	<ele>1218.60</ele>
	<time>2025-08-16T10:39:55.000Z</time>
</trkpt>
<trkpt lat="45.9634420" lon="10.2001920">
	<ele>1218.20</ele>
	<time>2025-08-16T10:39:56.000Z</time>
</trkpt>
<trkpt lat="45.9634520" lon="10.2002020">
	<ele>1217.80</ele>
	<time>2025-08-16T10:39:57.000Z</time>
</trkpt>
<trkpt lat="45.9634620" lon="10.2002160">
	<ele>1217.60</ele>
	<time>2025-08-16T10:39:58.000Z</time>
</trkpt>
<trkpt lat="45.9634720" lon="10.2002300">
	<ele>1217.40</ele>
	<time>2025-08-16T10:39:59.000Z</time>
</trkpt>
<trkpt lat="45.9634820" lon="10.2002350">
	<ele>1217.40</ele>
	<time>2025-08-16T10:40:00.000Z</time>
</trkpt>
<trkpt lat="45.9634930" lon="10.2002460">
	<ele>1217.00</ele>
	<time>2025-08-16T10:40:01.000Z</time>
</trkpt>
<trkpt lat="45.9635060" lon="10.2002590">
	<ele>1216.60</ele>
	<time>2025-08-16T10:40:02.000Z</time>
</trkpt>
<trkpt lat="45.9635200" lon="10.2002700">
	<ele>1216.20</ele>
	<time>2025-08-16T10:40:03.000Z</time>
</trkpt>
<trkpt lat="45.9635320" lon="10.2002800">
	<ele>1215.80</ele>
	<time>2025-08-16T10:40:04.000Z</time>
</trkpt>
<trkpt lat="45.9635410" lon="10.2002870">
	<ele>1215.60</ele>
	<time>2025-08-16T10:40:05.000Z</time>
</trkpt>
<trkpt lat="45.9635580" lon="10.2002880">
	<ele>1215.20</ele>
	<time>2025-08-16T10:40:06.000Z</time>
</trkpt>
<trkpt lat="45.9635680" lon="10.2002940">
	<ele>1214.80</ele>
	<time>2025-08-16T10:40:07.000Z</time>
</trkpt>
<trkpt lat="45.9635770" lon="10.2003020">
	<ele>1214.60</ele>
	<time>2025-08-16T10:40:08.000Z</time>
</trkpt>
<trkpt lat="45.9635850" lon="10.2003210">
	<ele>1214.20</ele>
	<time>2025-08-16T10:40:09.000Z</time>
</trkpt>
<trkpt lat="45.9635980" lon="10.2003380">
	<ele>1214.00</ele>
	<time>2025-08-16T10:40:10.000Z</time>
</trkpt>
<trkpt lat="45.9636050" lon="10.2003500">
	<ele>1213.80</ele>
	<time>2025-08-16T10:40:11.000Z</time>
</trkpt>
<trkpt lat="45.9636130" lon="10.2003610">
	<ele>1213.60</ele>
	<time>2025-08-16T10:40:12.000Z</time>
</trkpt>
<trkpt lat="45.9636260" lon="10.2003780">
	<ele>1213.40</ele>
	<time>2025-08-16T10:40:13.000Z</time>
</trkpt>
<trkpt lat="45.9636360" lon="10.2003960">
	<ele>1213.00</ele>
	<time>2025-08-16T10:40:14.000Z</time>
</trkpt>
<trkpt lat="45.9636380" lon="10.2004080">
	<ele>1212.80</ele>
	<time>2025-08-16T10:40:15.000Z</time>
</trkpt>
<trkpt lat="45.9636400" lon="10.2004250">
	<ele>1212.40</ele>
	<time>2025-08-16T10:40:16.000Z</time>
</trkpt>
<trkpt lat="45.9636390" lon="10.2004420">
	<ele>1212.20</ele>
	<time>2025-08-16T10:40:17.000Z</time>
</trkpt>
<trkpt lat="45.9636350" lon="10.2004570">
	<ele>1212.00</ele>
	<time>2025-08-16T10:40:18.000Z</time>
</trkpt>
<trkpt lat="45.9636310" lon="10.2004630">
	<ele>1211.80</ele>
	<time>2025-08-16T10:40:19.000Z</time>
</trkpt>
<trkpt lat="45.9636360" lon="10.2004760">
	<ele>1211.20</ele>
	<time>2025-08-16T10:40:20.000Z</time>
</trkpt>
<trkpt lat="45.9636490" lon="10.2004950">
	<ele>1211.00</ele>
	<time>2025-08-16T10:40:21.000Z</time>
</trkpt>
<trkpt lat="45.9636600" lon="10.2005130">
	<ele>1210.80</ele>
	<time>2025-08-16T10:40:22.000Z</time>
</trkpt>
<trkpt lat="45.9636660" lon="10.2005270">
	<ele>1210.60</ele>
	<time>2025-08-16T10:40:23.000Z</time>
</trkpt>
<trkpt lat="45.9636660" lon="10.2005500">
	<ele>1210.40</ele>
	<time>2025-08-16T10:40:24.000Z</time>
</trkpt>
<trkpt lat="45.9636620" lon="10.2005900">
	<ele>1210.20</ele>
	<time>2025-08-16T10:40:25.000Z</time>
</trkpt>
<trkpt lat="45.9636660" lon="10.2006170">
	<ele>1210.00</ele>
	<time>2025-08-16T10:40:26.000Z</time>
</trkpt>
<trkpt lat="45.9636760" lon="10.2006210">
	<ele>1209.80</ele>
	<time>2025-08-16T10:40:27.000Z</time>
</trkpt>
<trkpt lat="45.9636800" lon="10.2006300">
	<ele>1209.40</ele>
	<time>2025-08-16T10:40:28.000Z</time>
</trkpt>
<trkpt lat="45.9636850" lon="10.2006420">
	<ele>1209.20</ele>
	<time>2025-08-16T10:40:29.000Z</time>
</trkpt>
<trkpt lat="45.9636810" lon="10.2006560">
	<ele>1209.00</ele>
	<time>2025-08-16T10:40:30.000Z</time>
</trkpt>
<trkpt lat="45.9636670" lon="10.2006800">
	<ele>1208.80</ele>
	<time>2025-08-16T10:40:31.000Z</time>
</trkpt>
<trkpt lat="45.9636640" lon="10.2007040">
	<ele>1208.40</ele>
	<time>2025-08-16T10:40:32.000Z</time>
</trkpt>
<trkpt lat="45.9636560" lon="10.2007300">
	<ele>1208.00</ele>
	<time>2025-08-16T10:40:33.000Z</time>
</trkpt>
<trkpt lat="45.9636470" lon="10.2007570">
	<ele>1207.80</ele>
	<time>2025-08-16T10:40:34.000Z</time>
</trkpt>
<trkpt lat="45.9636490" lon="10.2007790">
	<ele>1207.60</ele>
	<time>2025-08-16T10:40:35.000Z</time>
</trkpt>
<trkpt lat="45.9636430" lon="10.2007990">
	<ele>1207.20</ele>
	<time>2025-08-16T10:40:36.000Z</time>
</trkpt>
<trkpt lat="45.9636490" lon="10.2008240">
	<ele>1207.00</ele>
	<time>2025-08-16T10:40:37.000Z</time>
</trkpt>
<trkpt lat="45.9636610" lon="10.2008460">
	<ele>1206.80</ele>
	<time>2025-08-16T10:40:38.000Z</time>
</trkpt>
<trkpt lat="45.9636700" lon="10.2008680">
	<ele>1206.60</ele>
	<time>2025-08-16T10:40:39.000Z</time>
</trkpt>
<trkpt lat="45.9636640" lon="10.2008880">
	<ele>1206.40</ele>
	<time>2025-08-16T10:40:40.000Z</time>
</trkpt>
<trkpt lat="45.9636560" lon="10.2009050">
	<ele>1206.20</ele>
	<time>2025-08-16T10:40:41.000Z</time>
</trkpt>
<trkpt lat="45.9636540" lon="10.2009280">
	<ele>1205.60</ele>
	<time>2025-08-16T10:40:42.000Z</time>
</trkpt>
<trkpt lat="45.9636560" lon="10.2009550">
	<ele>1205.40</ele>
	<time>2025-08-16T10:40:43.000Z</time>
</trkpt>
<trkpt lat="45.9636630" lon="10.2009720">
	<ele>1205.20</ele>
	<time>2025-08-16T10:40:44.000Z</time>
</trkpt>
<trkpt lat="45.9636610" lon="10.2009890">
	<ele>1205.20</ele>
	<time>2025-08-16T10:40:45.000Z</time>
</trkpt>
<trkpt lat="45.9636650" lon="10.2010040">
	<ele>1205.00</ele>
	<time>2025-08-16T10:40:46.000Z</time>
</trkpt>
<trkpt lat="45.9636750" lon="10.2010290">
	<ele>1204.80</ele>
	<time>2025-08-16T10:40:47.000Z</time>
</trkpt>
<trkpt lat="45.9636840" lon="10.2010430">
	<ele>1204.40</ele>
	<time>2025-08-16T10:40:48.000Z</time>
</trkpt>
<trkpt lat="45.9636870" lon="10.2010630">
	<ele>1204.00</ele>
	<time>2025-08-16T10:40:49.000Z</time>
</trkpt>
<trkpt lat="45.9636910" lon="10.2010830">
	<ele>1203.80</ele>
	<time>2025-08-16T10:40:50.000Z</time>
</trkpt>
<trkpt lat="45.9636950" lon="10.2011030">
	<ele>1203.60</ele>
	<time>2025-08-16T10:40:51.000Z</time>
</trkpt>
<trkpt lat="45.9636930" lon="10.2011210">
	<ele>1203.40</ele>
	<time>2025-08-16T10:40:52.000Z</time>
</trkpt>
<trkpt lat="45.9636840" lon="10.2011470">
	<ele>1203.00</ele>
	<time>2025-08-16T10:40:53.000Z</time>
</trkpt>
<trkpt lat="45.9636770" lon="10.2011760">
	<ele>1202.60</ele>
	<time>2025-08-16T10:40:54.000Z</time>
</trkpt>
<trkpt lat="45.9636770" lon="10.2012110">
	<ele>1202.40</ele>
	<time>2025-08-16T10:40:55.000Z</time>
</trkpt>
<trkpt lat="45.9636880" lon="10.2012380">
	<ele>1202.00</ele>
	<time>2025-08-16T10:40:56.000Z</time>
</trkpt>
<trkpt lat="45.9636970" lon="10.2012590">
	<ele>1201.80</ele>
	<time>2025-08-16T10:40:57.000Z</time>
</trkpt>
<trkpt lat="45.9637100" lon="10.2012720">
	<ele>1201.60</ele>
	<time>2025-08-16T10:40:58.000Z</time>
</trkpt>
<trkpt lat="45.9637200" lon="10.2012900">
	<ele>1201.40</ele>
	<time>2025-08-16T10:40:59.000Z</time>
</trkpt>
<trkpt lat="45.9637260" lon="10.2013060">
	<ele>1201.00</ele>
	<time>2025-08-16T10:41:00.000Z</time>
</trkpt>
<trkpt lat="45.9637270" lon="10.2013250">
	<ele>1200.80</ele>
	<time>2025-08-16T10:41:01.000Z</time>
</trkpt>
<trkpt lat="45.9637230" lon="10.2013390">
	<ele>1200.60</ele>
	<time>2025-08-16T10:41:02.000Z</time>
</trkpt>
<trkpt lat="45.9637170" lon="10.2013540">
	<ele>1200.20</ele>
	<time>2025-08-16T10:41:03.000Z</time>
</trkpt>
<trkpt lat="45.9637130" lon="10.2013680">
	<ele>1199.80</ele>
	<time>2025-08-16T10:41:04.000Z</time>
</trkpt>
<trkpt lat="45.9637110" lon="10.2013970">
	<ele>1199.60</ele>
	<time>2025-08-16T10:41:05.000Z</time>
</trkpt>
<trkpt lat="45.9637080" lon="10.2014190">
	<ele>1199.40</ele>
	<time>2025-08-16T10:41:06.000Z</time>
</trkpt>
<trkpt lat="45.9637040" lon="10.2014420">
	<ele>1199.00</ele>
	<time>2025-08-16T10:41:07.000Z</time>
</trkpt>
<trkpt lat="45.9636950" lon="10.2014570">
	<ele>1198.60</ele>
	<time>2025-08-16T10:41:08.000Z</time>
</trkpt>
<trkpt lat="45.9636930" lon="10.2014650">
	<ele>1198.40</ele>
	<time>2025-08-16T10:41:09.000Z</time>
</trkpt>
<trkpt lat="45.9636960" lon="10.2014860">
	<ele>1198.40</ele>
	<time>2025-08-16T10:41:10.000Z</time>
</trkpt>
<trkpt lat="45.9636990" lon="10.2015080">
	<ele>1198.20</ele>
	<time>2025-08-16T10:41:11.000Z</time>
</trkpt>
<trkpt lat="45.9637190" lon="10.2015320">
	<ele>1198.00</ele>
	<time>2025-08-16T10:41:12.000Z</time>
</trkpt>
<trkpt lat="45.9637380" lon="10.2015500">
	<ele>1197.60</ele>
	<time>2025-08-16T10:41:13.000Z</time>
</trkpt>
<trkpt lat="45.9637380" lon="10.2015700">
	<ele>1197.40</ele>
	<time>2025-08-16T10:41:14.000Z</time>
</trkpt>
<trkpt lat="45.9637320" lon="10.2015820">
	<ele>1197.00</ele>
	<time>2025-08-16T10:41:15.000Z</time>
</trkpt>
<trkpt lat="45.9637270" lon="10.2016020">
	<ele>1196.80</ele>
	<time>2025-08-16T10:41:16.000Z</time>
</trkpt>
<trkpt lat="45.9637300" lon="10.2016160">
	<ele>1196.60</ele>
	<time>2025-08-16T10:41:17.000Z</time>
</trkpt>
<trkpt lat="45.9637470" lon="10.2016430">
	<ele>1196.20</ele>
	<time>2025-08-16T10:41:18.000Z</time>
</trkpt>
<trkpt lat="45.9637620" lon="10.2016640">
	<ele>1196.00</ele>
	<time>2025-08-16T10:41:19.000Z</time>
</trkpt>
<trkpt lat="45.9637760" lon="10.2016840">
	<ele>1195.60</ele>
	<time>2025-08-16T10:41:20.000Z</time>
</trkpt>
<trkpt lat="45.9637890" lon="10.2017010">
	<ele>1195.40</ele>
	<time>2025-08-16T10:41:21.000Z</time>
</trkpt>
<trkpt lat="45.9637910" lon="10.2017190">
	<ele>1195.00</ele>
	<time>2025-08-16T10:41:22.000Z</time>
</trkpt>
<trkpt lat="45.9637960" lon="10.2017300">
	<ele>1194.80</ele>
	<time>2025-08-16T10:41:23.000Z</time>
</trkpt>
<trkpt lat="45.9637940" lon="10.2017440">
	<ele>1194.80</ele>
	<time>2025-08-16T10:41:24.000Z</time>
</trkpt>
<trkpt lat="45.9637920" lon="10.2017640">
	<ele>1194.60</ele>
	<time>2025-08-16T10:41:25.000Z</time>
</trkpt>
<trkpt lat="45.9637820" lon="10.2017810">
	<ele>1194.40</ele>
	<time>2025-08-16T10:41:26.000Z</time>
</trkpt>
<trkpt lat="45.9637500" lon="10.2018090">
	<ele>1194.20</ele>
	<time>2025-08-16T10:41:27.000Z</time>
</trkpt>
<trkpt lat="45.9637370" lon="10.2018320">
	<ele>1193.80</ele>
	<time>2025-08-16T10:41:28.000Z</time>
</trkpt>
<trkpt lat="45.9637340" lon="10.2018560">
	<ele>1193.40</ele>
	<time>2025-08-16T10:41:29.000Z</time>
</trkpt>
<trkpt lat="45.9637290" lon="10.2018780">
	<ele>1193.20</ele>
	<time>2025-08-16T10:41:30.000Z</time>
</trkpt>
<trkpt lat="45.9637220" lon="10.2019020">
	<ele>1193.00</ele>
	<time>2025-08-16T10:41:31.000Z</time>
</trkpt>
<trkpt lat="45.9637140" lon="10.2019250">
	<ele>1192.80</ele>
	<time>2025-08-16T10:41:32.000Z</time>
</trkpt>
<trkpt lat="45.9637140" lon="10.2019410">
	<ele>1192.40</ele>
	<time>2025-08-16T10:41:33.000Z</time>
</trkpt>
<trkpt lat="45.9637130" lon="10.2019690">
	<ele>1192.40</ele>
	<time>2025-08-16T10:41:34.000Z</time>
</trkpt>
<trkpt lat="45.9637180" lon="10.2019910">
	<ele>1192.20</ele>
	<time>2025-08-16T10:41:35.000Z</time>
</trkpt>
<trkpt lat="45.9637240" lon="10.2020150">
	<ele>1192.20</ele>
	<time>2025-08-16T10:41:36.000Z</time>
</trkpt>
<trkpt lat="45.9637330" lon="10.2020300">
	<ele>1191.80</ele>
	<time>2025-08-16T10:41:37.000Z</time>
</trkpt>
<trkpt lat="45.9637450" lon="10.2020390">
	<ele>1191.60</ele>
	<time>2025-08-16T10:41:38.000Z</time>
</trkpt>
<trkpt lat="45.9637520" lon="10.2020500">
	<ele>1191.20</ele>
	<time>2025-08-16T10:41:39.000Z</time>
</trkpt>
<trkpt lat="45.9637620" lon="10.2020570">
	<ele>1191.20</ele>
	<time>2025-08-16T10:41:40.000Z</time>
</trkpt>
<trkpt lat="45.9637660" lon="10.2020620">
	<ele>1191.00</ele>
	<time>2025-08-16T10:41:41.000Z</time>
</trkpt>
<trkpt lat="45.9637770" lon="10.2020760">
	<ele>1190.60</ele>
	<time>2025-08-16T10:41:42.000Z</time>
</trkpt>
<trkpt lat="45.9637860" lon="10.2020950">
	<ele>1190.20</ele>
	<time>2025-08-16T10:41:43.000Z</time>
</trkpt>
<trkpt lat="45.9637900" lon="10.2021140">
	<ele>1189.80</ele>
	<time>2025-08-16T10:41:44.000Z</time>
</trkpt>
<trkpt lat="45.9637890" lon="10.2021250">
	<ele>1189.60</ele>
	<time>2025-08-16T10:41:45.000Z</time>
</trkpt>
<trkpt lat="45.9637840" lon="10.2021360">
	<ele>1189.40</ele>
	<time>2025-08-16T10:41:46.000Z</time>
</trkpt>
<trkpt lat="45.9637840" lon="10.2021470">
	<ele>1189.00</ele>
	<time>2025-08-16T10:41:47.000Z</time>
</trkpt>
<trkpt lat="45.9637830" lon="10.2021490">
	<ele>1188.80</ele>
	<time>2025-08-16T10:41:48.000Z</time>
</trkpt>
<trkpt lat="45.9637600" lon="10.2021580">
	<ele>1188.40</ele>
	<time>2025-08-16T10:41:49.000Z</time>
</trkpt>
<trkpt lat="45.9637450" lon="10.2021550">
	<ele>1188.20</ele>
	<time>2025-08-16T10:41:50.000Z</time>
</trkpt>
<trkpt lat="45.9637450" lon="10.2021490">
	<ele>1188.00</ele>
	<time>2025-08-16T10:41:51.000Z</time>
</trkpt>
<trkpt lat="45.9637390" lon="10.2021520">
	<ele>1188.00</ele>
	<time>2025-08-16T10:41:52.000Z</time>
</trkpt>
<trkpt lat="45.9637360" lon="10.2021550">
	<ele>1187.80</ele>
	<time>2025-08-16T10:41:53.000Z</time>
</trkpt>
<trkpt lat="45.9637280" lon="10.2021480">
	<ele>1187.60</ele>
	<time>2025-08-16T10:41:54.000Z</time>
</trkpt>
<trkpt lat="45.9637200" lon="10.2021410">
	<ele>1187.40</ele>
	<time>2025-08-16T10:41:55.000Z</time>
</trkpt>
<trkpt lat="45.9637060" lon="10.2021260">
	<ele>1187.20</ele>
	<time>2025-08-16T10:41:56.000Z</time>
</trkpt>
<trkpt lat="45.9636910" lon="10.2021190">
	<ele>1187.00</ele>
	<time>2025-08-16T10:41:57.000Z</time>
</trkpt>
<trkpt lat="45.9636780" lon="10.2021110">
	<ele>1186.80</ele>
	<time>2025-08-16T10:41:58.000Z</time>
</trkpt>
<trkpt lat="45.9636720" lon="10.2021020">
	<ele>1186.60</ele>
	<time>2025-08-16T10:41:59.000Z</time>
</trkpt>
<trkpt lat="45.9636630" lon="10.2020850">
	<ele>1186.20</ele>
	<time>2025-08-16T10:42:00.000Z</time>
</trkpt>
<trkpt lat="45.9636560" lon="10.2020690">
	<ele>1185.80</ele>
	<time>2025-08-16T10:42:01.000Z</time>
</trkpt>
<trkpt lat="45.9636470" lon="10.2020540">
	<ele>1185.40</ele>
	<time>2025-08-16T10:42:02.000Z</time>
</trkpt>
<trkpt lat="45.9636370" lon="10.2020440">
	<ele>1185.20</ele>
	<time>2025-08-16T10:42:03.000Z</time>
</trkpt>
<trkpt lat="45.9636240" lon="10.2020330">
	<ele>1185.00</ele>
	<time>2025-08-16T10:42:04.000Z</time>
</trkpt>
<trkpt lat="45.9636140" lon="10.2020180">
	<ele>1184.80</ele>
	<time>2025-08-16T10:42:05.000Z</time>
</trkpt>
<trkpt lat="45.9636050" lon="10.2020020">
	<ele>1184.60</ele>
	<time>2025-08-16T10:42:06.000Z</time>
</trkpt>
<trkpt lat="45.9635990" lon="10.2019900">
	<ele>1184.20</ele>
	<time>2025-08-16T10:42:07.000Z</time>
</trkpt>
<trkpt lat="45.9635830" lon="10.2019730">
	<ele>1183.80</ele>
	<time>2025-08-16T10:42:08.000Z</time>
</trkpt>
<trkpt lat="45.9635730" lon="10.2019560">
	<ele>1183.60</ele>
	<time>2025-08-16T10:42:09.000Z</time>
</trkpt>
<trkpt lat="45.9635640" lon="10.2019370">
	<ele>1183.40</ele>
	<time>2025-08-16T10:42:10.000Z</time>
</trkpt>
<trkpt lat="45.9635520" lon="10.2019190">
	<ele>1183.00</ele>
	<time>2025-08-16T10:42:11.000Z</time>
</trkpt>
<trkpt lat="45.9635400" lon="10.2019020">
	<ele>1182.80</ele>
	<time>2025-08-16T10:42:12.000Z</time>
</trkpt>
<trkpt lat="45.9635350" lon="10.2018880">
	<ele>1182.60</ele>
	<time>2025-08-16T10:42:13.000Z</time>
</trkpt>
<trkpt lat="45.9635240" lon="10.2018680">
	<ele>1182.40</ele>
	<time>2025-08-16T10:42:14.000Z</time>
</trkpt>
<trkpt lat="45.9635170" lon="10.2018550">
	<ele>1182.20</ele>
	<time>2025-08-16T10:42:15.000Z</time>
</trkpt>
<trkpt lat="45.9635110" lon="10.2018420">
	<ele>1182.00</ele>
	<time>2025-08-16T10:42:16.000Z</time>
</trkpt>
<trkpt lat="45.9634960" lon="10.2018280">
	<ele>1181.60</ele>
	<time>2025-08-16T10:42:17.000Z</time>
</trkpt>
<trkpt lat="45.9634850" lon="10.2018120">
	<ele>1181.40</ele>
	<time>2025-08-16T10:42:18.000Z</time>
</trkpt>
<trkpt lat="45.9634760" lon="10.2017950">
	<ele>1181.20</ele>
	<time>2025-08-16T10:42:19.000Z</time>
</trkpt>
<trkpt lat="45.9634620" lon="10.2017830">
	<ele>1180.80</ele>
	<time>2025-08-16T10:42:20.000Z</time>
</trkpt>
<trkpt lat="45.9634500" lon="10.2017730">
	<ele>1180.60</ele>
	<time>2025-08-16T10:42:21.000Z</time>
</trkpt>
<trkpt lat="45.9634390" lon="10.2017640">
	<ele>1180.40</ele>
	<time>2025-08-16T10:42:22.000Z</time>
</trkpt>
<trkpt lat="45.9634150" lon="10.2017520">
	<ele>1180.40</ele>
	<time>2025-08-16T10:42:23.000Z</time>
</trkpt>
<trkpt lat="45.9634070" lon="10.2017280">
	<ele>1180.20</ele>
	<time>2025-08-16T10:42:24.000Z</time>
</trkpt>
<trkpt lat="45.9634000" lon="10.2017160">
	<ele>1180.00</ele>
	<time>2025-08-16T10:42:25.000Z</time>
</trkpt>
<trkpt lat="45.9633830" lon="10.2017120">
	<ele>1179.60</ele>
	<time>2025-08-16T10:42:26.000Z</time>
</trkpt>
<trkpt lat="45.9633640" lon="10.2017020">
	<ele>1179.60</ele>
	<time>2025-08-16T10:42:27.000Z</time>
</trkpt>
<trkpt lat="45.9633510" lon="10.2016940">
	<ele>1179.40</ele>
	<time>2025-08-16T10:42:28.000Z</time>
</trkpt>
<trkpt lat="45.9633410" lon="10.2016800">
	<ele>1179.20</ele>
	<time>2025-08-16T10:42:29.000Z</time>
</trkpt>
<trkpt lat="45.9633320" lon="10.2016640">
	<ele>1179.00</ele>
	<time>2025-08-16T10:42:30.000Z</time>
</trkpt>
<trkpt lat="45.9633250" lon="10.2016540">
	<ele>1178.60</ele>
	<time>2025-08-16T10:42:31.000Z</time>
</trkpt>
<trkpt lat="45.9633190" lon="10.2016420">
	<ele>1178.40</ele>
	<time>2025-08-16T10:42:32.000Z</time>
</trkpt>
<trkpt lat="45.9633120" lon="10.2016270">
	<ele>1178.20</ele>
	<time>2025-08-16T10:42:33.000Z</time>
</trkpt>
<trkpt lat="45.9633030" lon="10.2016090">
	<ele>1177.80</ele>
	<time>2025-08-16T10:42:34.000Z</time>
</trkpt>
<trkpt lat="45.9632930" lon="10.2015890">
	<ele>1177.60</ele>
	<time>2025-08-16T10:42:35.000Z</time>
</trkpt>
<trkpt lat="45.9632880" lon="10.2015780">
	<ele>1177.40</ele>
	<time>2025-08-16T10:42:36.000Z</time>
</trkpt>
<trkpt lat="45.9632810" lon="10.2015760">
	<ele>1177.00</ele>
	<time>2025-08-16T10:42:37.000Z</time>
</trkpt>
<trkpt lat="45.9632650" lon="10.2015650">
	<ele>1176.80</ele>
	<time>2025-08-16T10:42:38.000Z</time>
</trkpt>
<trkpt lat="45.9632420" lon="10.2015580">
	<ele>1176.60</ele>
	<time>2025-08-16T10:42:39.000Z</time>
</trkpt>
<trkpt lat="45.9632210" lon="10.2015470">
	<ele>1176.40</ele>
	<time>2025-08-16T10:42:40.000Z</time>
</trkpt>
<trkpt lat="45.9632110" lon="10.2015320">
	<ele>1176.20</ele>
	<time>2025-08-16T10:42:41.000Z</time>
</trkpt>
<trkpt lat="45.9631980" lon="10.2015190">
	<ele>1176.00</ele>
	<time>2025-08-16T10:42:42.000Z</time>
</trkpt>
<trkpt lat="45.9631910" lon="10.2015120">
	<ele>1175.80</ele>
	<time>2025-08-16T10:42:43.000Z</time>
</trkpt>
<trkpt lat="45.9631810" lon="10.2014970">
	<ele>1175.40</ele>
	<time>2025-08-16T10:42:44.000Z</time>
</trkpt>
<trkpt lat="45.9631700" lon="10.2014840">
	<ele>1175.40</ele>
	<time>2025-08-16T10:42:45.000Z</time>
</trkpt>
<trkpt lat="45.9631610" lon="10.2014710">
	<ele>1175.00</ele>
	<time>2025-08-16T10:42:46.000Z</time>
</trkpt>
<trkpt lat="45.9631530" lon="10.2014550">
	<ele>1175.00</ele>
	<time>2025-08-16T10:42:47.000Z</time>
</trkpt>
<trkpt lat="45.9631420" lon="10.2014370">
	<ele>1174.80</ele>
	<time>2025-08-16T10:42:48.000Z</time>
</trkpt>
<trkpt lat="45.9631300" lon="10.2014220">
	<ele>1174.40</ele>
	<time>2025-08-16T10:42:49.000Z</time>
</trkpt>
<trkpt lat="45.9631200" lon="10.2014150">
	<ele>1174.20</ele>
	<time>2025-08-16T10:42:50.000Z</time>
</trkpt>
<trkpt lat="45.9631030" lon="10.2014070">
	<ele>1174.00</ele>
	<time>2025-08-16T10:42:51.000Z</time>
</trkpt>
<trkpt lat="45.9630910" lon="10.2014020">
	<ele>1173.80</ele>
	<time>2025-08-16T10:42:52.000Z</time>
</trkpt>
<trkpt lat="45.9630770" lon="10.2013930">
	<ele>1173.80</ele>
	<time>2025-08-16T10:42:53.000Z</time>
</trkpt>
<trkpt lat="45.9630600" lon="10.2013870">
	<ele>1173.40</ele>
	<time>2025-08-16T10:42:54.000Z</time>
</trkpt>
<trkpt lat="45.9630460" lon="10.2013800">
	<ele>1173.20</ele>
	<time>2025-08-16T10:42:55.000Z</time>
</trkpt>
<trkpt lat="45.9630380" lon="10.2013680">
	<ele>1173.00</ele>
	<time>2025-08-16T10:42:56.000Z</time>
</trkpt>
<trkpt lat="45.9630300" lon="10.2013520">
	<ele>1172.80</ele>
	<time>2025-08-16T10:42:57.000Z</time>
</trkpt>
<trkpt lat="45.9630190" lon="10.2013360">
	<ele>1172.60</ele>
	<time>2025-08-16T10:42:58.000Z</time>
</trkpt>
<trkpt lat="45.9630080" lon="10.2013180">
	<ele>1172.20</ele>
	<time>2025-08-16T10:42:59.000Z</time>
</trkpt>
<trkpt lat="45.9629950" lon="10.2013050">
	<ele>1172.20</ele>
	<time>2025-08-16T10:43:00.000Z</time>
</trkpt>
<trkpt lat="45.9629820" lon="10.2012950">
	<ele>1172.00</ele>
	<time>2025-08-16T10:43:01.000Z</time>
</trkpt>
<trkpt lat="45.9629670" lon="10.2012810">
	<ele>1171.80</ele>
	<time>2025-08-16T10:43:02.000Z</time>
</trkpt>
<trkpt lat="45.9629500" lon="10.2012660">
	<ele>1171.60</ele>
	<time>2025-08-16T10:43:03.000Z</time>
</trkpt>
<trkpt lat="45.9629360" lon="10.2012560">
	<ele>1171.40</ele>
	<time>2025-08-16T10:43:04.000Z</time>
</trkpt>
<trkpt lat="45.9629270" lon="10.2012490">
	<ele>1171.20</ele>
	<time>2025-08-16T10:43:05.000Z</time>
</trkpt>
<trkpt lat="45.9629160" lon="10.2012390">
	<ele>1171.00</ele>
	<time>2025-08-16T10:43:06.000Z</time>
</trkpt>
<trkpt lat="45.9628980" lon="10.2012380">
	<ele>1170.80</ele>
	<time>2025-08-16T10:43:07.000Z</time>
</trkpt>
<trkpt lat="45.9628860" lon="10.2012290">
	<ele>1170.80</ele>
	<time>2025-08-16T10:43:08.000Z</time>
</trkpt>
<trkpt lat="45.9628690" lon="10.2012110">
	<ele>1170.60</ele>
	<time>2025-08-16T10:43:09.000Z</time>
</trkpt>
<trkpt lat="45.9628510" lon="10.2011920">
	<ele>1170.40</ele>
	<time>2025-08-16T10:43:10.000Z</time>
</trkpt>
<trkpt lat="45.9628390" lon="10.2011800">
	<ele>1170.40</ele>
	<time>2025-08-16T10:43:11.000Z</time>
</trkpt>
<trkpt lat="45.9628180" lon="10.2011730">
	<ele>1170.20</ele>
	<time>2025-08-16T10:43:12.000Z</time>
</trkpt>
<trkpt lat="45.9628030" lon="10.2011590">
	<ele>1170.00</ele>
	<time>2025-08-16T10:43:13.000Z</time>
</trkpt>
<trkpt lat="45.9627930" lon="10.2011440">
	<ele>1169.80</ele>
	<time>2025-08-16T10:43:14.000Z</time>
</trkpt>
<trkpt lat="45.9627850" lon="10.2011220">
	<ele>1169.80</ele>
	<time>2025-08-16T10:43:15.000Z</time>
</trkpt>
<trkpt lat="45.9627680" lon="10.2011090">
	<ele>1169.40</ele>
	<time>2025-08-16T10:43:16.000Z</time>
</trkpt>
<trkpt lat="45.9627570" lon="10.2010910">
	<ele>1169.20</ele>
	<time>2025-08-16T10:43:17.000Z</time>
</trkpt>
<trkpt lat="45.9627500" lon="10.2010740">
	<ele>1169.20</ele>
	<time>2025-08-16T10:43:18.000Z</time>
</trkpt>
<trkpt lat="45.9627400" lon="10.2010600">
	<ele>1169.00</ele>
	<time>2025-08-16T10:43:19.000Z</time>
</trkpt>
<trkpt lat="45.9627290" lon="10.2010530">
	<ele>1168.80</ele>
	<time>2025-08-16T10:43:20.000Z</time>
</trkpt>
<trkpt lat="45.9627180" lon="10.2010460">
	<ele>1168.60</ele>
	<time>2025-08-16T10:43:21.000Z</time>
</trkpt>
<trkpt lat="45.9627030" lon="10.2010440">
	<ele>1168.40</ele>
	<time>2025-08-16T10:43:22.000Z</time>
</trkpt>
<trkpt lat="45.9626930" lon="10.2010320">
	<ele>1168.40</ele>
	<time>2025-08-16T10:43:23.000Z</time>
</trkpt>
<trkpt lat="45.9626820" lon="10.2010140">
	<ele>1168.40</ele>
	<time>2025-08-16T10:43:24.000Z</time>
</trkpt>
<trkpt lat="45.9626720" lon="10.2009960">
	<ele>1168.20</ele>
	<time>2025-08-16T10:43:25.000Z</time>
</trkpt>
<trkpt lat="45.9626630" lon="10.2009740">
	<ele>1167.80</ele>
	<time>2025-08-16T10:43:26.000Z</time>
</trkpt>
<trkpt lat="45.9626450" lon="10.2009510">
	<ele>1167.60</ele>
	<time>2025-08-16T10:43:27.000Z</time>
</trkpt>
<trkpt lat="45.9626370" lon="10.2009220">
	<ele>1167.40</ele>
	<time>2025-08-16T10:43:28.000Z</time>
</trkpt>
<trkpt lat="45.9626290" lon="10.2009030">
	<ele>1167.20</ele>
	<time>2025-08-16T10:43:29.000Z</time>
</trkpt>
<trkpt lat="45.9626160" lon="10.2008830">
	<ele>1167.00</ele>
	<time>2025-08-16T10:43:30.000Z</time>
</trkpt>
<trkpt lat="45.9626000" lon="10.2008690">
	<ele>1166.80</ele>
	<time>2025-08-16T10:43:31.000Z</time>
</trkpt>
<trkpt lat="45.9625830" lon="10.2008600">
	<ele>1166.60</ele>
	<time>2025-08-16T10:43:32.000Z</time>
</trkpt>
<trkpt lat="45.9625680" lon="10.2008350">
	<ele>1166.20</ele>
	<time>2025-08-16T10:43:33.000Z</time>
</trkpt>
<trkpt lat="45.9625590" lon="10.2008180">
	<ele>1165.80</ele>
	<time>2025-08-16T10:43:34.000Z</time>
</trkpt>
<trkpt lat="45.9625420" lon="10.2007990">
	<ele>1165.60</ele>
	<time>2025-08-16T10:43:35.000Z</time>
</trkpt>
<trkpt lat="45.9625290" lon="10.2007870">
	<ele>1165.40</ele>
	<time>2025-08-16T10:43:36.000Z</time>
</trkpt>
<trkpt lat="45.9625170" lon="10.2007800">
	<ele>1165.20</ele>
	<time>2025-08-16T10:43:37.000Z</time>
</trkpt>
<trkpt lat="45.9625060" lon="10.2007740">
	<ele>1165.00</ele>
	<time>2025-08-16T10:43:38.000Z</time>
</trkpt>
<trkpt lat="45.9624910" lon="10.2007610">
	<ele>1164.80</ele>
	<time>2025-08-16T10:43:39.000Z</time>
</trkpt>
<trkpt lat="45.9624790" lon="10.2007430">
	<ele>1164.40</ele>
	<time>2025-08-16T10:43:40.000Z</time>
</trkpt>
<trkpt lat="45.9624660" lon="10.2007350">
	<ele>1164.20</ele>
	<time>2025-08-16T10:43:41.000Z</time>
</trkpt>
<trkpt lat="45.9624500" lon="10.2007180">
	<ele>1164.00</ele>
	<time>2025-08-16T10:43:42.000Z</time>
</trkpt>
<trkpt lat="45.9624350" lon="10.2007030">
	<ele>1164.00</ele>
	<time>2025-08-16T10:43:43.000Z</time>
</trkpt>
<trkpt lat="45.9624230" lon="10.2006980">
	<ele>1163.80</ele>
	<time>2025-08-16T10:43:44.000Z</time>
</trkpt>
<trkpt lat="45.9624150" lon="10.2006960">
	<ele>1163.60</ele>
	<time>2025-08-16T10:43:45.000Z</time>
</trkpt>
<trkpt lat="45.9624150" lon="10.2006890">
	<ele>1163.40</ele>
	<time>2025-08-16T10:43:46.000Z</time>
</trkpt>
<trkpt lat="45.9624090" lon="10.2006730">
	<ele>1163.00</ele>
	<time>2025-08-16T10:43:47.000Z</time>
</trkpt>
<trkpt lat="45.9624000" lon="10.2006510">
	<ele>1162.80</ele>
	<time>2025-08-16T10:43:48.000Z</time>
</trkpt>
<trkpt lat="45.9623930" lon="10.2006330">
	<ele>1162.40</ele>
	<time>2025-08-16T10:43:49.000Z</time>
</trkpt>
<trkpt lat="45.9623840" lon="10.2006140">
	<ele>1162.20</ele>
	<time>2025-08-16T10:43:50.000Z</time>
</trkpt>
<trkpt lat="45.9623800" lon="10.2005960">
	<ele>1162.00</ele>
	<time>2025-08-16T10:43:51.000Z</time>
</trkpt>
<trkpt lat="45.9623640" lon="10.2005860">
	<ele>1161.80</ele>
	<time>2025-08-16T10:43:52.000Z</time>
</trkpt>
<trkpt lat="45.9623520" lon="10.2005670">
	<ele>1161.60</ele>
	<time>2025-08-16T10:43:53.000Z</time>
</trkpt>
<trkpt lat="45.9623340" lon="10.2005570">
	<ele>1161.20</ele>
	<time>2025-08-16T10:43:54.000Z</time>
</trkpt>
<trkpt lat="45.9623160" lon="10.2005460">
	<ele>1161.20</ele>
	<time>2025-08-16T10:43:55.000Z</time>
</trkpt>
<trkpt lat="45.9623010" lon="10.2005350">
	<ele>1160.80</ele>
	<time>2025-08-16T10:43:56.000Z</time>
</trkpt>
<trkpt lat="45.9622880" lon="10.2005230">
	<ele>1160.60</ele>
	<time>2025-08-16T10:43:57.000Z</time>
</trkpt>
<trkpt lat="45.9622850" lon="10.2005060">
	<ele>1160.20</ele>
	<time>2025-08-16T10:43:58.000Z</time>
</trkpt>
<trkpt lat="45.9622850" lon="10.2004810">
	<ele>1160.00</ele>
	<time>2025-08-16T10:43:59.000Z</time>
</trkpt>
<trkpt lat="45.9622830" lon="10.2004540">
	<ele>1159.80</ele>
	<time>2025-08-16T10:44:00.000Z</time>
</trkpt>
<trkpt lat="45.9622800" lon="10.2004300">
	<ele>1159.60</ele>
	<time>2025-08-16T10:44:01.000Z</time>
</trkpt>
<trkpt lat="45.9622870" lon="10.2004080">
	<ele>1159.40</ele>
	<time>2025-08-16T10:44:02.000Z</time>
</trkpt>
<trkpt lat="45.9622720" lon="10.2003860">
	<ele>1159.20</ele>
	<time>2025-08-16T10:44:03.000Z</time>
</trkpt>
<trkpt lat="45.9622570" lon="10.2003770">
	<ele>1159.00</ele>
	<time>2025-08-16T10:44:04.000Z</time>
</trkpt>
<trkpt lat="45.9622430" lon="10.2003630">
	<ele>1158.80</ele>
	<time>2025-08-16T10:44:05.000Z</time>
</trkpt>
<trkpt lat="45.9622270" lon="10.2003460">
	<ele>1158.80</ele>
	<time>2025-08-16T10:44:06.000Z</time>
</trkpt>
<trkpt lat="45.9622220" lon="10.2003260">
	<ele>1158.40</ele>
	<time>2025-08-16T10:44:07.000Z</time>
</trkpt>
<trkpt lat="45.9622080" lon="10.2003090">
	<ele>1158.20</ele>
	<time>2025-08-16T10:44:08.000Z</time>
</trkpt>
<trkpt lat="45.9622020" lon="10.2002910">
	<ele>1158.00</ele>
	<time>2025-08-16T10:44:09.000Z</time>
</trkpt>
<trkpt lat="45.9621930" lon="10.2002700">
	<ele>1157.80</ele>
	<time>2025-08-16T10:44:10.000Z</time>
</trkpt>
<trkpt lat="45.9621870" lon="10.2002540">
	<ele>1157.60</ele>
	<time>2025-08-16T10:44:11.000Z</time>
</trkpt>
<trkpt lat="45.9621790" lon="10.2002390">
	<ele>1157.60</ele>
	<time>2025-08-16T10:44:12.000Z</time>
</trkpt>
<trkpt lat="45.9621690" lon="10.2002230">
	<ele>1157.20</ele>
	<time>2025-08-16T10:44:13.000Z</time>
</trkpt>
<trkpt lat="45.9621590" lon="10.2002040">
	<ele>1157.00</ele>
	<time>2025-08-16T10:44:14.000Z</time>
</trkpt>
<trkpt lat="45.9621530" lon="10.2001850">
	<ele>1156.80</ele>
	<time>2025-08-16T10:44:15.000Z</time>
</trkpt>
<trkpt lat="45.9621520" lon="10.2001650">
	<ele>1156.80</ele>
	<time>2025-08-16T10:44:16.000Z</time>
</trkpt>
<trkpt lat="45.9621470" lon="10.2001420">
	<ele>1156.60</ele>
	<time>2025-08-16T10:44:17.000Z</time>
</trkpt>
<trkpt lat="45.9621410" lon="10.2001170">
	<ele>1156.40</ele>
	<time>2025-08-16T10:44:18.000Z</time>
</trkpt>
<trkpt lat="45.9621370" lon="10.2000950">
	<ele>1156.00</ele>
	<time>2025-08-16T10:44:19.000Z</time>
</trkpt>
<trkpt lat="45.9621350" lon="10.2000710">
	<ele>1155.80</ele>
	<time>2025-08-16T10:44:20.000Z</time>
</trkpt>
<trkpt lat="45.9621320" lon="10.2000510">
	<ele>1155.80</ele>
	<time>2025-08-16T10:44:21.000Z</time>
</trkpt>
<trkpt lat="45.9621290" lon="10.2000300">
	<ele>1155.60</ele>
	<time>2025-08-16T10:44:22.000Z</time>
</trkpt>
<trkpt lat="45.9621240" lon="10.2000110">
	<ele>1155.60</ele>
	<time>2025-08-16T10:44:23.000Z</time>
</trkpt>
<trkpt lat="45.9621170" lon="10.1999930">
	<ele>1155.40</ele>
	<time>2025-08-16T10:44:24.000Z</time>
</trkpt>
<trkpt lat="45.9621110" lon="10.1999730">
	<ele>1155.00</ele>
	<time>2025-08-16T10:44:25.000Z</time>
</trkpt>
<trkpt lat="45.9621040" lon="10.1999520">
	<ele>1154.60</ele>
	<time>2025-08-16T10:44:26.000Z</time>
</trkpt>
<trkpt lat="45.9621010" lon="10.1999290">
	<ele>1154.40</ele>
	<time>2025-08-16T10:44:27.000Z</time>
</trkpt>
<trkpt lat="45.9620920" lon="10.1999080">
	<ele>1154.00</ele>
	<time>2025-08-16T10:44:28.000Z</time>
</trkpt>
<trkpt lat="45.9620840" lon="10.1998870">
	<ele>1153.80</ele>
	<time>2025-08-16T10:44:29.000Z</time>
</trkpt>
<trkpt lat="45.9620730" lon="10.1998710">
	<ele>1153.40</ele>
	<time>2025-08-16T10:44:30.000Z</time>
</trkpt>
<trkpt lat="45.9620630" lon="10.1998520">
	<ele>1153.00</ele>
	<time>2025-08-16T10:44:31.000Z</time>
</trkpt>
<trkpt lat="45.9620530" lon="10.1998350">
	<ele>1152.60</ele>
	<time>2025-08-16T10:44:32.000Z</time>
</trkpt>
<trkpt lat="45.9620440" lon="10.1998190">
	<ele>1152.20</ele>
	<time>2025-08-16T10:44:33.000Z</time>
</trkpt>
<trkpt lat="45.9620340" lon="10.1998030">
	<ele>1151.80</ele>
	<time>2025-08-16T10:44:34.000Z</time>
</trkpt>
<trkpt lat="45.9620210" lon="10.1997870">
	<ele>1151.60</ele>
	<time>2025-08-16T10:44:35.000Z</time>
</trkpt>
<trkpt lat="45.9620100" lon="10.1997740">
	<ele>1151.00</ele>
	<time>2025-08-16T10:44:36.000Z</time>
</trkpt>
<trkpt lat="45.9620010" lon="10.1997580">
	<ele>1150.80</ele>
	<time>2025-08-16T10:44:37.000Z</time>
</trkpt>
<trkpt lat="45.9619910" lon="10.1997420">
	<ele>1150.40</ele>
	<time>2025-08-16T10:44:38.000Z</time>
</trkpt>
<trkpt lat="45.9619790" lon="10.1997260">
	<ele>1150.00</ele>
	<time>2025-08-16T10:44:39.000Z</time>
</trkpt>
<trkpt lat="45.9619690" lon="10.1997090">
	<ele>1149.60</ele>
	<time>2025-08-16T10:44:40.000Z</time>
</trkpt>
<trkpt lat="45.9619590" lon="10.1996930">
	<ele>1149.20</ele>
	<time>2025-08-16T10:44:41.000Z</time>
</trkpt>
<trkpt lat="45.9619480" lon="10.1996780">
	<ele>1149.00</ele>
	<time>2025-08-16T10:44:42.000Z</time>
</trkpt>
<trkpt lat="45.9619350" lon="10.1996610">
	<ele>1148.60</ele>
	<time>2025-08-16T10:44:43.000Z</time>
</trkpt>
<trkpt lat="45.9619250" lon="10.1996430">
	<ele>1148.20</ele>
	<time>2025-08-16T10:44:44.000Z</time>
</trkpt>
<trkpt lat="45.9619140" lon="10.1996250">
	<ele>1147.80</ele>
	<time>2025-08-16T10:44:45.000Z</time>
</trkpt>
<trkpt lat="45.9619040" lon="10.1996080">
	<ele>1147.40</ele>
	<time>2025-08-16T10:44:46.000Z</time>
</trkpt>
<trkpt lat="45.9618980" lon="10.1995950">
	<ele>1147.00</ele>
	<time>2025-08-16T10:44:47.000Z</time>
</trkpt>
<trkpt lat="45.9618900" lon="10.1995790">
	<ele>1146.80</ele>
	<time>2025-08-16T10:44:48.000Z</time>
</trkpt>
<trkpt lat="45.9618790" lon="10.1995660">
	<ele>1146.40</ele>
	<time>2025-08-16T10:44:49.000Z</time>
</trkpt>
<trkpt lat="45.9618690" lon="10.1995520">
	<ele>1146.00</ele>
	<time>2025-08-16T10:44:50.000Z</time>
</trkpt>
<trkpt lat="45.9618570" lon="10.1995360">
	<ele>1145.60</ele>
	<time>2025-08-16T10:44:51.000Z</time>
</trkpt>
<trkpt lat="45.9618430" lon="10.1995150">
	<ele>1145.00</ele>
	<time>2025-08-16T10:44:52.000Z</time>
</trkpt>
<trkpt lat="45.9618340" lon="10.1994990">
	<ele>1144.60</ele>
	<time>2025-08-16T10:44:53.000Z</time>
</trkpt>
<trkpt lat="45.9618290" lon="10.1994860">
	<ele>1144.40</ele>
	<time>2025-08-16T10:44:54.000Z</time>
</trkpt>
<trkpt lat="45.9618210" lon="10.1994650">
	<ele>1144.20</ele>
	<time>2025-08-16T10:44:55.000Z</time>
</trkpt>
<trkpt lat="45.9618080" lon="10.1994430">
	<ele>1143.80</ele>
	<time>2025-08-16T10:44:56.000Z</time>
</trkpt>
<trkpt lat="45.9618030" lon="10.1994280">
	<ele>1143.40</ele>
	<time>2025-08-16T10:44:57.000Z</time>
</trkpt>
<trkpt lat="45.9617930" lon="10.1994070">
	<ele>1143.20</ele>
	<time>2025-08-16T10:44:58.000Z</time>
</trkpt>
<trkpt lat="45.9617830" lon="10.1993880">
	<ele>1143.00</ele>
	<time>2025-08-16T10:44:59.000Z</time>
</trkpt>
<trkpt lat="45.9617730" lon="10.1993670">
	<ele>1142.60</ele>
	<time>2025-08-16T10:45:00.000Z</time>
</trkpt>
<trkpt lat="45.9617650" lon="10.1993500">
	<ele>1142.40</ele>
	<time>2025-08-16T10:45:01.000Z</time>
</trkpt>
<trkpt lat="45.9617520" lon="10.1993270">
	<ele>1142.20</ele>
	<time>2025-08-16T10:45:02.000Z</time>
</trkpt>
<trkpt lat="45.9617440" lon="10.1993120">
	<ele>1142.00</ele>
	<time>2025-08-16T10:45:03.000Z</time>
</trkpt>
<trkpt lat="45.9617330" lon="10.1992900">
	<ele>1141.60</ele>
	<time>2025-08-16T10:45:04.000Z</time>
</trkpt>
<trkpt lat="45.9617250" lon="10.1992740">
	<ele>1141.40</ele>
	<time>2025-08-16T10:45:05.000Z</time>
</trkpt>
<trkpt lat="45.9617170" lon="10.1992600">
	<ele>1141.00</ele>
	<time>2025-08-16T10:45:06.000Z</time>
</trkpt>
<trkpt lat="45.9617060" lon="10.1992430">
	<ele>1140.80</ele>
	<time>2025-08-16T10:45:07.000Z</time>
</trkpt>
<trkpt lat="45.9616970" lon="10.1992280">
	<ele>1140.60</ele>
	<time>2025-08-16T10:45:08.000Z</time>
</trkpt>
<trkpt lat="45.9616880" lon="10.1992130">
	<ele>1140.40</ele>
	<time>2025-08-16T10:45:09.000Z</time>
</trkpt>
<trkpt lat="45.9616740" lon="10.1991920">
	<ele>1140.00</ele>
	<time>2025-08-16T10:45:10.000Z</time>
</trkpt>
<trkpt lat="45.9616610" lon="10.1991730">
	<ele>1139.80</ele>
	<time>2025-08-16T10:45:11.000Z</time>
</trkpt>
<trkpt lat="45.9616490" lon="10.1991580">
	<ele>1139.60</ele>
	<time>2025-08-16T10:45:12.000Z</time>
</trkpt>
<trkpt lat="45.9616330" lon="10.1991370">
	<ele>1139.40</ele>
	<time>2025-08-16T10:45:13.000Z</time>
</trkpt>
<trkpt lat="45.9616210" lon="10.1991200">
	<ele>1139.20</ele>
	<time>2025-08-16T10:45:14.000Z</time>
</trkpt>
<trkpt lat="45.9616060" lon="10.1991020">
	<ele>1138.80</ele>
	<time>2025-08-16T10:45:15.000Z</time>
</trkpt>
<trkpt lat="45.9615960" lon="10.1990870">
	<ele>1138.60</ele>
	<time>2025-08-16T10:45:16.000Z</time>
</trkpt>
<trkpt lat="45.9615830" lon="10.1990720">
	<ele>1138.40</ele>
	<time>2025-08-16T10:45:17.000Z</time>
</trkpt>
<trkpt lat="45.9615700" lon="10.1990610">
	<ele>1138.20</ele>
	<time>2025-08-16T10:45:18.000Z</time>
</trkpt>
<trkpt lat="45.9615550" lon="10.1990500">
	<ele>1137.80</ele>
	<time>2025-08-16T10:45:19.000Z</time>
</trkpt>
<trkpt lat="45.9615420" lon="10.1990380">
	<ele>1137.40</ele>
	<time>2025-08-16T10:45:20.000Z</time>
</trkpt>
<trkpt lat="45.9615290" lon="10.1990240">
	<ele>1137.00</ele>
	<time>2025-08-16T10:45:21.000Z</time>
</trkpt>
<trkpt lat="45.9615110" lon="10.1990020">
	<ele>1136.80</ele>
	<time>2025-08-16T10:45:22.000Z</time>
</trkpt>
<trkpt lat="45.9614950" lon="10.1989860">
	<ele>1136.60</ele>
	<time>2025-08-16T10:45:23.000Z</time>
</trkpt>
<trkpt lat="45.9614800" lon="10.1989760">
	<ele>1136.40</ele>
	<time>2025-08-16T10:45:24.000Z</time>
</trkpt>
<trkpt lat="45.9614680" lon="10.1989660">
	<ele>1136.00</ele>
	<time>2025-08-16T10:45:25.000Z</time>
</trkpt>
<trkpt lat="45.9614550" lon="10.1989540">
	<ele>1135.80</ele>
	<time>2025-08-16T10:45:26.000Z</time>
</trkpt>
<trkpt lat="45.9614380" lon="10.1989460">
	<ele>1135.40</ele>
	<time>2025-08-16T10:45:27.000Z</time>
</trkpt>
<trkpt lat="45.9614210" lon="10.1989360">
	<ele>1135.20</ele>
	<time>2025-08-16T10:45:28.000Z</time>
</trkpt>
<trkpt lat="45.9614030" lon="10.1989310">
	<ele>1135.00</ele>
	<time>2025-08-16T10:45:29.000Z</time>
</trkpt>
<trkpt lat="45.9613840" lon="10.1989290">
	<ele>1134.80</ele>
	<time>2025-08-16T10:45:30.000Z</time>
</trkpt>
<trkpt lat="45.9613680" lon="10.1989230">
	<ele>1134.40</ele>
	<time>2025-08-16T10:45:31.000Z</time>
</trkpt>
<trkpt lat="45.9613500" lon="10.1989160">
	<ele>1134.20</ele>
	<time>2025-08-16T10:45:32.000Z</time>
</trkpt>
<trkpt lat="45.9613330" lon="10.1989120">
	<ele>1134.00</ele>
	<time>2025-08-16T10:45:33.000Z</time>
</trkpt>
<trkpt lat="45.9613180" lon="10.1989100">
	<ele>1133.60</ele>
	<time>2025-08-16T10:45:34.000Z</time>
</trkpt>
<trkpt lat="45.9613020" lon="10.1989100">
	<ele>1133.40</ele>
	<time>2025-08-16T10:45:35.000Z</time>
</trkpt>
<trkpt lat="45.9612870" lon="10.1989110">
	<ele>1133.00</ele>
	<time>2025-08-16T10:45:36.000Z</time>
</trkpt>
<trkpt lat="45.9612700" lon="10.1989090">
	<ele>1132.80</ele>
	<time>2025-08-16T10:45:37.000Z</time>
</trkpt>
<trkpt lat="45.9612530" lon="10.1989120">
	<ele>1132.60</ele>
	<time>2025-08-16T10:45:38.000Z</time>
</trkpt>
<trkpt lat="45.9612350" lon="10.1989140">
	<ele>1132.40</ele>
	<time>2025-08-16T10:45:39.000Z</time>
</trkpt>
<trkpt lat="45.9612170" lon="10.1989150">
	<ele>1132.20</ele>
	<time>2025-08-16T10:45:40.000Z</time>
</trkpt>
<trkpt lat="45.9612020" lon="10.1989160">
	<ele>1131.80</ele>
	<time>2025-08-16T10:45:41.000Z</time>
</trkpt>
<trkpt lat="45.9611860" lon="10.1989180">
	<ele>1131.60</ele>
	<time>2025-08-16T10:45:42.000Z</time>
</trkpt>
<trkpt lat="45.9611720" lon="10.1989210">
	<ele>1131.20</ele>
	<time>2025-08-16T10:45:43.000Z</time>
</trkpt>
<trkpt lat="45.9611570" lon="10.1989240">
	<ele>1130.80</ele>
	<time>2025-08-16T10:45:44.000Z</time>
</trkpt>
<trkpt lat="45.9611420" lon="10.1989300">
	<ele>1130.60</ele>
	<time>2025-08-16T10:45:45.000Z</time>
</trkpt>
<trkpt lat="45.9611280" lon="10.1989350">
	<ele>1130.40</ele>
	<time>2025-08-16T10:45:46.000Z</time>
</trkpt>
<trkpt lat="45.9611130" lon="10.1989410">
	<ele>1130.20</ele>
	<time>2025-08-16T10:45:47.000Z</time>
</trkpt>
<trkpt lat="45.9610990" lon="10.1989450">
	<ele>1130.00</ele>
	<time>2025-08-16T10:45:48.000Z</time>
</trkpt>
<trkpt lat="45.9610830" lon="10.1989540">
	<ele>1129.80</ele>
	<time>2025-08-16T10:45:49.000Z</time>
</trkpt>
<trkpt lat="45.9610680" lon="10.1989610">
	<ele>1129.40</ele>
	<time>2025-08-16T10:45:50.000Z</time>
</trkpt>
<trkpt lat="45.9610510" lon="10.1989710">
	<ele>1129.20</ele>
	<time>2025-08-16T10:45:51.000Z</time>
</trkpt>
<trkpt lat="45.9610340" lon="10.1989810">
	<ele>1129.00</ele>
	<time>2025-08-16T10:45:52.000Z</time>
</trkpt>
<trkpt lat="45.9610210" lon="10.1989870">
	<ele>1128.60</ele>
	<time>2025-08-16T10:45:53.000Z</time>
</trkpt>
<trkpt lat="45.9610020" lon="10.1989940">
	<ele>1128.40</ele>
	<time>2025-08-16T10:45:54.000Z</time>
</trkpt>
<trkpt lat="45.9609820" lon="10.1989990">
	<ele>1128.20</ele>
	<time>2025-08-16T10:45:55.000Z</time>
</trkpt>
<trkpt lat="45.9609680" lon="10.1990030">
	<ele>1128.00</ele>
	<time>2025-08-16T10:45:56.000Z</time>
</trkpt>
<trkpt lat="45.9609480" lon="10.1990120">
	<ele>1127.60</ele>
	<time>2025-08-16T10:45:57.000Z</time>
</trkpt>
<trkpt lat="45.9609310" lon="10.1990180">
	<ele>1127.40</ele>
	<time>2025-08-16T10:45:58.000Z</time>
</trkpt>
<trkpt lat="45.9609180" lon="10.1990220">
	<ele>1127.20</ele>
	<time>2025-08-16T10:45:59.000Z</time>
</trkpt>
<trkpt lat="45.9609010" lon="10.1990290">
	<ele>1126.80</ele>
	<time>2025-08-16T10:46:00.000Z</time>
</trkpt>
<trkpt lat="45.9608870" lon="10.1990340">
	<ele>1126.60</ele>
	<time>2025-08-16T10:46:01.000Z</time>
</trkpt>
<trkpt lat="45.9608730" lon="10.1990390">
	<ele>1126.40</ele>
	<time>2025-08-16T10:46:02.000Z</time>
</trkpt>
<trkpt lat="45.9608580" lon="10.1990450">
	<ele>1126.20</ele>
	<time>2025-08-16T10:46:03.000Z</time>
</trkpt>
<trkpt lat="45.9608390" lon="10.1990500">
	<ele>1125.60</ele>
	<time>2025-08-16T10:46:04.000Z</time>
</trkpt>
<trkpt lat="45.9608240" lon="10.1990540">
	<ele>1125.40</ele>
	<time>2025-08-16T10:46:05.000Z</time>
</trkpt>
<trkpt lat="45.9608100" lon="10.1990590">
	<ele>1125.20</ele>
	<time>2025-08-16T10:46:06.000Z</time>
</trkpt>
<trkpt lat="45.9607920" lon="10.1990630">
	<ele>1124.80</ele>
	<time>2025-08-16T10:46:07.000Z</time>
</trkpt>
<trkpt lat="45.9607810" lon="10.1990660">
	<ele>1124.80</ele>
	<time>2025-08-16T10:46:08.000Z</time>
</trkpt>
<trkpt lat="45.9607680" lon="10.1990660">
	<ele>1124.40</ele>
	<time>2025-08-16T10:46:09.000Z</time>
</trkpt>
<trkpt lat="45.9607530" lon="10.1990640">
	<ele>1124.20</ele>
	<time>2025-08-16T10:46:10.000Z</time>
</trkpt>
<trkpt lat="45.9607440" lon="10.1990610">
	<ele>1124.00</ele>
	<time>2025-08-16T10:46:11.000Z</time>
</trkpt>
<trkpt lat="45.9607310" lon="10.1990560">
	<ele>1123.60</ele>
	<time>2025-08-16T10:46:12.000Z</time>
</trkpt>
<trkpt lat="45.9607220" lon="10.1990500">
	<ele>1123.40</ele>
	<time>2025-08-16T10:46:13.000Z</time>
</trkpt>
<trkpt lat="45.9607070" lon="10.1990400">
	<ele>1123.00</ele>
	<time>2025-08-16T10:46:14.000Z</time>
</trkpt>
<trkpt lat="45.9606980" lon="10.1990300">
	<ele>1122.80</ele>
	<time>2025-08-16T10:46:15.000Z</time>
</trkpt>
<trkpt lat="45.9606860" lon="10.1990190">
	<ele>1122.40</ele>
	<time>2025-08-16T10:46:16.000Z</time>
</trkpt>
<trkpt lat="45.9606740" lon="10.1990050">
	<ele>1122.00</ele>
	<time>2025-08-16T10:46:17.000Z</time>
</trkpt>
<trkpt lat="45.9606670" lon="10.1989920">
	<ele>1121.60</ele>
	<time>2025-08-16T10:46:18.000Z</time>
</trkpt>
<trkpt lat="45.9606590" lon="10.1989790">
	<ele>1121.40</ele>
	<time>2025-08-16T10:46:19.000Z</time>
</trkpt>
<trkpt lat="45.9606490" lon="10.1989670">
	<ele>1121.00</ele>
	<time>2025-08-16T10:46:20.000Z</time>
</trkpt>
<trkpt lat="45.9606350" lon="10.1989540">
	<ele>1120.40</ele>
	<time>2025-08-16T10:46:21.000Z</time>
</trkpt>
<trkpt lat="45.9606210" lon="10.1989390">
	<ele>1120.20</ele>
	<time>2025-08-16T10:46:22.000Z</time>
</trkpt>
<trkpt lat="45.9606100" lon="10.1989260">
	<ele>1119.80</ele>
	<time>2025-08-16T10:46:23.000Z</time>
</trkpt>
<trkpt lat="45.9605990" lon="10.1989140">
	<ele>1119.60</ele>
	<time>2025-08-16T10:46:24.000Z</time>
</trkpt>
<trkpt lat="45.9605850" lon="10.1988990">
	<ele>1119.20</ele>
	<time>2025-08-16T10:46:25.000Z</time>
</trkpt>
<trkpt lat="45.9605690" lon="10.1988850">
	<ele>1118.80</ele>
	<time>2025-08-16T10:46:26.000Z</time>
</trkpt>
<trkpt lat="45.9605540" lon="10.1988730">
	<ele>1118.40</ele>
	<time>2025-08-16T10:46:27.000Z</time>
</trkpt>
<trkpt lat="45.9605420" lon="10.1988620">
	<ele>1118.00</ele>
	<time>2025-08-16T10:46:28.000Z</time>
</trkpt>
<trkpt lat="45.9605310" lon="10.1988530">
	<ele>1117.80</ele>
	<time>2025-08-16T10:46:29.000Z</time>
</trkpt>
<trkpt lat="45.9605220" lon="10.1988440">
	<ele>1117.40</ele>
	<time>2025-08-16T10:46:30.000Z</time>
</trkpt>
<trkpt lat="45.9605110" lon="10.1988350">
	<ele>1117.00</ele>
	<time>2025-08-16T10:46:31.000Z</time>
</trkpt>
<trkpt lat="45.9604940" lon="10.1988270">
	<ele>1116.60</ele>
	<time>2025-08-16T10:46:32.000Z</time>
</trkpt>
<trkpt lat="45.9604810" lon="10.1988200">
	<ele>1116.20</ele>
	<time>2025-08-16T10:46:33.000Z</time>
</trkpt>
<trkpt lat="45.9604650" lon="10.1988130">
	<ele>1115.80</ele>
	<time>2025-08-16T10:46:34.000Z</time>
</trkpt>
<trkpt lat="45.9604540" lon="10.1988070">
	<ele>1115.40</ele>
	<time>2025-08-16T10:46:35.000Z</time>
</trkpt>
<trkpt lat="45.9604400" lon="10.1987990">
	<ele>1115.00</ele>
	<time>2025-08-16T10:46:36.000Z</time>
</trkpt>
<trkpt lat="45.9604230" lon="10.1987920">
	<ele>1114.60</ele>
	<time>2025-08-16T10:46:37.000Z</time>
</trkpt>
<trkpt lat="45.9603990" lon="10.1987860">
	<ele>1114.20</ele>
	<time>2025-08-16T10:46:38.000Z</time>
</trkpt>
<trkpt lat="45.9603790" lon="10.1987800">
	<ele>1113.80</ele>
	<time>2025-08-16T10:46:39.000Z</time>
</trkpt>
<trkpt lat="45.9603620" lon="10.1987680">
	<ele>1113.60</ele>
	<time>2025-08-16T10:46:40.000Z</time>
</trkpt>
<trkpt lat="45.9603490" lon="10.1987560">
	<ele>1113.20</ele>
	<time>2025-08-16T10:46:41.000Z</time>
</trkpt>
<trkpt lat="45.9603450" lon="10.1987510">
	<ele>1112.80</ele>
	<time>2025-08-16T10:46:42.000Z</time>
</trkpt>
<trkpt lat="45.9603460" lon="10.1987430">
	<ele>1112.60</ele>
	<time>2025-08-16T10:46:43.000Z</time>
</trkpt>
<trkpt lat="45.9603390" lon="10.1987320">
	<ele>1112.20</ele>
	<time>2025-08-16T10:46:44.000Z</time>
</trkpt>
<trkpt lat="45.9603340" lon="10.1987240">
	<ele>1112.00</ele>
	<time>2025-08-16T10:46:45.000Z</time>
</trkpt>
<trkpt lat="45.9603230" lon="10.1987130">
	<ele>1111.80</ele>
	<time>2025-08-16T10:46:46.000Z</time>
</trkpt>
<trkpt lat="45.9603190" lon="10.1987000">
	<ele>1111.40</ele>
	<time>2025-08-16T10:46:47.000Z</time>
</trkpt>
<trkpt lat="45.9603110" lon="10.1986900">
	<ele>1110.80</ele>
	<time>2025-08-16T10:46:48.000Z</time>
</trkpt>
<trkpt lat="45.9603000" lon="10.1986860">
	<ele>1110.40</ele>
	<time>2025-08-16T10:46:49.000Z</time>
</trkpt>
<trkpt lat="45.9602850" lon="10.1986830">
	<ele>1109.80</ele>
	<time>2025-08-16T10:46:50.000Z</time>
</trkpt>
<trkpt lat="45.9602690" lon="10.1986830">
	<ele>1109.60</ele>
	<time>2025-08-16T10:46:51.000Z</time>
</trkpt>
<trkpt lat="45.9602500" lon="10.1986880">
	<ele>1109.20</ele>
	<time>2025-08-16T10:46:52.000Z</time>
</trkpt>
<trkpt lat="45.9602320" lon="10.1986960">
	<ele>1109.00</ele>
	<time>2025-08-16T10:46:53.000Z</time>
</trkpt>
<trkpt lat="45.9602170" lon="10.1987000">
	<ele>1108.60</ele>
	<time>2025-08-16T10:46:54.000Z</time>
</trkpt>
<trkpt lat="45.9601960" lon="10.1986960">
	<ele>1108.60</ele>
	<time>2025-08-16T10:46:55.000Z</time>
</trkpt>
<trkpt lat="45.9601740" lon="10.1986910">
	<ele>1108.20</ele>
	<time>2025-08-16T10:46:56.000Z</time>
</trkpt>
<trkpt lat="45.9601500" lon="10.1986840">
	<ele>1107.80</ele>
	<time>2025-08-16T10:46:57.000Z</time>
</trkpt>
<trkpt lat="45.9601290" lon="10.1986830">
	<ele>1107.20</ele>
	<time>2025-08-16T10:46:58.000Z</time>
</trkpt>
<trkpt lat="45.9601140" lon="10.1986840">
	<ele>1107.00</ele>
	<time>2025-08-16T10:46:59.000Z</time>
</trkpt>
<trkpt lat="45.9601010" lon="10.1986890">
	<ele>1106.80</ele>
	<time>2025-08-16T10:47:00.000Z</time>
</trkpt>
<trkpt lat="45.9600870" lon="10.1986970">
	<ele>1106.60</ele>
	<time>2025-08-16T10:47:01.000Z</time>
</trkpt>
<trkpt lat="45.9600690" lon="10.1987020">
	<ele>1106.00</ele>
	<time>2025-08-16T10:47:02.000Z</time>
</trkpt>
<trkpt lat="45.9600540" lon="10.1987040">
	<ele>1105.60</ele>
	<time>2025-08-16T10:47:03.000Z</time>
</trkpt>
<trkpt lat="45.9600390" lon="10.1987090">
	<ele>1105.20</ele>
	<time>2025-08-16T10:47:04.000Z</time>
</trkpt>
<trkpt lat="45.9600240" lon="10.1987150">
	<ele>1104.60</ele>
	<time>2025-08-16T10:47:05.000Z</time>
</trkpt>
<trkpt lat="45.9600090" lon="10.1987250">
	<ele>1104.20</ele>
	<time>2025-08-16T10:47:06.000Z</time>
</trkpt>
<trkpt lat="45.9599930" lon="10.1987370">
	<ele>1103.80</ele>
	<time>2025-08-16T10:47:07.000Z</time>
</trkpt>
<trkpt lat="45.9599840" lon="10.1987540">
	<ele>1103.40</ele>
	<time>2025-08-16T10:47:08.000Z</time>
</trkpt>
<trkpt lat="45.9599640" lon="10.1987640">
	<ele>1103.00</ele>
	<time>2025-08-16T10:47:09.000Z</time>
</trkpt>
<trkpt lat="45.9599540" lon="10.1987780">
	<ele>1102.40</ele>
	<time>2025-08-16T10:47:10.000Z</time>
</trkpt>
<trkpt lat="45.9599420" lon="10.1987920">
	<ele>1102.20</ele>
	<time>2025-08-16T10:47:11.000Z</time>
</trkpt>
<trkpt lat="45.9599280" lon="10.1988080">
	<ele>1101.60</ele>
	<time>2025-08-16T10:47:12.000Z</time>
</trkpt>
<trkpt lat="45.9599120" lon="10.1988280">
	<ele>1101.20</ele>
	<time>2025-08-16T10:47:13.000Z</time>
</trkpt>
<trkpt lat="45.9598940" lon="10.1988540">
	<ele>1100.80</ele>
	<time>2025-08-16T10:47:14.000Z</time>
</trkpt>
<trkpt lat="45.9598820" lon="10.1988800">
	<ele>1100.40</ele>
	<time>2025-08-16T10:47:15.000Z</time>
</trkpt>
<trkpt lat="45.9598730" lon="10.1989000">
	<ele>1100.20</ele>
	<time>2025-08-16T10:47:16.000Z</time>
</trkpt>
<trkpt lat="45.9598660" lon="10.1989260">
	<ele>1099.80</ele>
	<time>2025-08-16T10:47:17.000Z</time>
</trkpt>
<trkpt lat="45.9598570" lon="10.1989470">
	<ele>1099.40</ele>
	<time>2025-08-16T10:47:18.000Z</time>
</trkpt>
<trkpt lat="45.9598480" lon="10.1989620">
	<ele>1099.00</ele>
	<time>2025-08-16T10:47:19.000Z</time>
</trkpt>
<trkpt lat="45.9598430" lon="10.1989890">
	<ele>1098.60</ele>
	<time>2025-08-16T10:47:20.000Z</time>
</trkpt>
<trkpt lat="45.9598400" lon="10.1990110">
	<ele>1098.00</ele>
	<time>2025-08-16T10:47:21.000Z</time>
</trkpt>
<trkpt lat="45.9598360" lon="10.1990340">
	<ele>1097.60</ele>
	<time>2025-08-16T10:47:22.000Z</time>
</trkpt>
<trkpt lat="45.9598320" lon="10.1990580">
	<ele>1097.00</ele>
	<time>2025-08-16T10:47:23.000Z</time>
</trkpt>
<trkpt lat="45.9598310" lon="10.1990790">
	<ele>1096.60</ele>
	<time>2025-08-16T10:47:24.000Z</time>
</trkpt>
<trkpt lat="45.9598270" lon="10.1991020">
	<ele>1096.40</ele>
	<time>2025-08-16T10:47:25.000Z</time>
</trkpt>
<trkpt lat="45.9598230" lon="10.1991260">
	<ele>1095.80</ele>
	<time>2025-08-16T10:47:26.000Z</time>
</trkpt>
<trkpt lat="45.9598230" lon="10.1991500">
	<ele>1095.60</ele>
	<time>2025-08-16T10:47:27.000Z</time>
</trkpt>
<trkpt lat="45.9598210" lon="10.1991660">
	<ele>1095.00</ele>
	<time>2025-08-16T10:47:28.000Z</time>
</trkpt>
<trkpt lat="45.9598190" lon="10.1991890">
	<ele>1094.80</ele>
	<time>2025-08-16T10:47:29.000Z</time>
</trkpt>
<trkpt lat="45.9598180" lon="10.1992170">
	<ele>1094.40</ele>
	<time>2025-08-16T10:47:30.000Z</time>
</trkpt>
<trkpt lat="45.9598140" lon="10.1992430">
	<ele>1094.00</ele>
	<time>2025-08-16T10:47:31.000Z</time>
</trkpt>
<trkpt lat="45.9598130" lon="10.1992630">
	<ele>1093.40</ele>
	<time>2025-08-16T10:47:32.000Z</time>
</trkpt>
<trkpt lat="45.9598140" lon="10.1992860">
	<ele>1093.00</ele>
	<time>2025-08-16T10:47:33.000Z</time>
</trkpt>
<trkpt lat="45.9598140" lon="10.1993060">
	<ele>1092.60</ele>
	<time>2025-08-16T10:47:34.000Z</time>
</trkpt>
<trkpt lat="45.9598110" lon="10.1993290">
	<ele>1092.20</ele>
	<time>2025-08-16T10:47:35.000Z</time>
</trkpt>
<trkpt lat="45.9598040" lon="10.1993530">
	<ele>1092.00</ele>
	<time>2025-08-16T10:47:36.000Z</time>
</trkpt>
<trkpt lat="45.9598010" lon="10.1993730">
	<ele>1091.60</ele>
	<time>2025-08-16T10:47:37.000Z</time>
</trkpt>
<trkpt lat="45.9598030" lon="10.1993980">
	<ele>1091.20</ele>
	<time>2025-08-16T10:47:38.000Z</time>
</trkpt>
<trkpt lat="45.9597990" lon="10.1994240">
	<ele>1090.80</ele>
	<time>2025-08-16T10:47:39.000Z</time>
</trkpt>
<trkpt lat="45.9597960" lon="10.1994400">
	<ele>1090.40</ele>
	<time>2025-08-16T10:47:40.000Z</time>
</trkpt>
<trkpt lat="45.9597930" lon="10.1994650">
	<ele>1090.20</ele>
	<time>2025-08-16T10:47:41.000Z</time>
</trkpt>
<trkpt lat="45.9597910" lon="10.1994830">
	<ele>1089.60</ele>
	<time>2025-08-16T10:47:42.000Z</time>
</trkpt>
<trkpt lat="45.9597880" lon="10.1995040">
	<ele>1089.20</ele>
	<time>2025-08-16T10:47:43.000Z</time>
</trkpt>
<trkpt lat="45.9597880" lon="10.1995220">
	<ele>1088.80</ele>
	<time>2025-08-16T10:47:44.000Z</time>
</trkpt>
<trkpt lat="45.9597850" lon="10.1995420">
	<ele>1088.60</ele>
	<time>2025-08-16T10:47:45.000Z</time>
</trkpt>
<trkpt lat="45.9597820" lon="10.1995670">
	<ele>1088.20</ele>
	<time>2025-08-16T10:47:46.000Z</time>
</trkpt>
<trkpt lat="45.9597830" lon="10.1995900">
	<ele>1087.80</ele>
	<time>2025-08-16T10:47:47.000Z</time>
</trkpt>
<trkpt lat="45.9597830" lon="10.1996150">
	<ele>1087.40</ele>
	<time>2025-08-16T10:47:48.000Z</time>
</trkpt>
<trkpt lat="45.9597840" lon="10.1996310">
	<ele>1087.20</ele>
	<time>2025-08-16T10:47:49.000Z</time>
</trkpt>
<trkpt lat="45.9597850" lon="10.1996520">
	<ele>1086.80</ele>
	<time>2025-08-16T10:47:50.000Z</time>
</trkpt>
<trkpt lat="45.9597880" lon="10.1996750">
	<ele>1086.40</ele>
	<time>2025-08-16T10:47:51.000Z</time>
</trkpt>
<trkpt lat="45.9597910" lon="10.1996980">
	<ele>1086.00</ele>
	<time>2025-08-16T10:47:52.000Z</time>
</trkpt>
<trkpt lat="45.9597900" lon="10.1997210">
	<ele>1085.60</ele>
	<time>2025-08-16T10:47:53.000Z</time>
</trkpt>
<trkpt lat="45.9597880" lon="10.1997450">
	<ele>1085.40</ele>
	<time>2025-08-16T10:47:54.000Z</time>
</trkpt>
<trkpt lat="45.9597860" lon="10.1997650">
	<ele>1085.00</ele>
	<time>2025-08-16T10:47:55.000Z</time>
</trkpt>
<trkpt lat="45.9597850" lon="10.1997860">
	<ele>1084.80</ele>
	<time>2025-08-16T10:47:56.000Z</time>
</trkpt>
<trkpt lat="45.9597820" lon="10.1998130">
	<ele>1084.60</ele>
	<time>2025-08-16T10:47:57.000Z</time>
</trkpt>
<trkpt lat="45.9597790" lon="10.1998340">
	<ele>1084.20</ele>
	<time>2025-08-16T10:47:58.000Z</time>
</trkpt>
<trkpt lat="45.9597790" lon="10.1998530">
	<ele>1083.80</ele>
	<time>2025-08-16T10:47:59.000Z</time>
</trkpt>
<trkpt lat="45.9597780" lon="10.1998710">
	<ele>1083.60</ele>
	<time>2025-08-16T10:48:00.000Z</time>
</trkpt>
<trkpt lat="45.9597750" lon="10.1998850">
	<ele>1083.20</ele>
	<time>2025-08-16T10:48:01.000Z</time>
</trkpt>
<trkpt lat="45.9597680" lon="10.1999090">
	<ele>1083.00</ele>
	<time>2025-08-16T10:48:02.000Z</time>
</trkpt>
<trkpt lat="45.9597610" lon="10.1999360">
	<ele>1082.60</ele>
	<time>2025-08-16T10:48:03.000Z</time>
</trkpt>
<trkpt lat="45.9597540" lon="10.1999580">
	<ele>1082.40</ele>
	<time>2025-08-16T10:48:04.000Z</time>
</trkpt>
<trkpt lat="45.9597490" lon="10.1999740">
	<ele>1082.00</ele>
	<time>2025-08-16T10:48:05.000Z</time>
</trkpt>
<trkpt lat="45.9597380" lon="10.2000010">
	<ele>1081.60</ele>
	<time>2025-08-16T10:48:06.000Z</time>
</trkpt>
<trkpt lat="45.9597340" lon="10.2000170">
	<ele>1081.20</ele>
	<time>2025-08-16T10:48:07.000Z</time>
</trkpt>
<trkpt lat="45.9597280" lon="10.2000330">
	<ele>1081.20</ele>
	<time>2025-08-16T10:48:08.000Z</time>
</trkpt>
<trkpt lat="45.9597200" lon="10.2000540">
	<ele>1080.60</ele>
	<time>2025-08-16T10:48:09.000Z</time>
</trkpt>
<trkpt lat="45.9597130" lon="10.2000700">
	<ele>1080.40</ele>
	<time>2025-08-16T10:48:10.000Z</time>
</trkpt>
<trkpt lat="45.9597050" lon="10.2000890">
	<ele>1080.00</ele>
	<time>2025-08-16T10:48:11.000Z</time>
</trkpt>
<trkpt lat="45.9596950" lon="10.2001020">
	<ele>1079.60</ele>
	<time>2025-08-16T10:48:12.000Z</time>
</trkpt>
<trkpt lat="45.9596780" lon="10.2001160">
	<ele>1079.40</ele>
	<time>2025-08-16T10:48:13.000Z</time>
</trkpt>
<trkpt lat="45.9596620" lon="10.2001270">
	<ele>1079.00</ele>
	<time>2025-08-16T10:48:14.000Z</time>
</trkpt>
<trkpt lat="45.9596450" lon="10.2001400">
	<ele>1078.80</ele>
	<time>2025-08-16T10:48:15.000Z</time>
</trkpt>
<trkpt lat="45.9596270" lon="10.2001490">
	<ele>1078.40</ele>
	<time>2025-08-16T10:48:16.000Z</time>
</trkpt>
<trkpt lat="45.9596120" lon="10.2001620">
	<ele>1077.80</ele>
	<time>2025-08-16T10:48:17.000Z</time>
</trkpt>
<trkpt lat="45.9596020" lon="10.2001730">
	<ele>1077.40</ele>
	<time>2025-08-16T10:48:18.000Z</time>
</trkpt>
<trkpt lat="45.9595840" lon="10.2001860">
	<ele>1077.20</ele>
	<time>2025-08-16T10:48:19.000Z</time>
</trkpt>
<trkpt lat="45.9595690" lon="10.2001950">
	<ele>1077.00</ele>
	<time>2025-08-16T10:48:20.000Z</time>
</trkpt>
<trkpt lat="45.9595580" lon="10.2002030">
	<ele>1076.60</ele>
	<time>2025-08-16T10:48:21.000Z</time>
</trkpt>
<trkpt lat="45.9595440" lon="10.2002130">
	<ele>1076.40</ele>
	<time>2025-08-16T10:48:22.000Z</time>
</trkpt>
<trkpt lat="45.9595300" lon="10.2002230">
	<ele>1076.00</ele>
	<time>2025-08-16T10:48:23.000Z</time>
</trkpt>
<trkpt lat="45.9595200" lon="10.2002310">
	<ele>1075.60</ele>
	<time>2025-08-16T10:48:24.000Z</time>
</trkpt>
<trkpt lat="45.9595060" lon="10.2002430">
	<ele>1075.40</ele>
	<time>2025-08-16T10:48:25.000Z</time>
</trkpt>
<trkpt lat="45.9594950" lon="10.2002550">
	<ele>1075.20</ele>
	<time>2025-08-16T10:48:26.000Z</time>
</trkpt>
<trkpt lat="45.9594860" lon="10.2002610">
	<ele>1074.80</ele>
	<time>2025-08-16T10:48:27.000Z</time>
</trkpt>
<trkpt lat="45.9594720" lon="10.2002680">
	<ele>1074.40</ele>
	<time>2025-08-16T10:48:28.000Z</time>
</trkpt>
<trkpt lat="45.9594580" lon="10.2002740">
	<ele>1074.20</ele>
	<time>2025-08-16T10:48:29.000Z</time>
</trkpt>
<trkpt lat="45.9594460" lon="10.2002830">
	<ele>1073.80</ele>
	<time>2025-08-16T10:48:30.000Z</time>
</trkpt>
<trkpt lat="45.9594360" lon="10.2002920">
	<ele>1073.40</ele>
	<time>2025-08-16T10:48:31.000Z</time>
</trkpt>
<trkpt lat="45.9594210" lon="10.2003040">
	<ele>1073.20</ele>
	<time>2025-08-16T10:48:32.000Z</time>
</trkpt>
<trkpt lat="45.9594100" lon="10.2003150">
	<ele>1073.00</ele>
	<time>2025-08-16T10:48:33.000Z</time>
</trkpt>
<trkpt lat="45.9593960" lon="10.2003280">
	<ele>1072.60</ele>
	<time>2025-08-16T10:48:34.000Z</time>
</trkpt>
<trkpt lat="45.9593790" lon="10.2003450">
	<ele>1072.20</ele>
	<time>2025-08-16T10:48:35.000Z</time>
</trkpt>
<trkpt lat="45.9593660" lon="10.2003540">
	<ele>1071.80</ele>
	<time>2025-08-16T10:48:36.000Z</time>
</trkpt>
<trkpt lat="45.9593530" lon="10.2003660">
	<ele>1071.60</ele>
	<time>2025-08-16T10:48:37.000Z</time>
</trkpt>
<trkpt lat="45.9593430" lon="10.2003750">
	<ele>1071.40</ele>
	<time>2025-08-16T10:48:38.000Z</time>
</trkpt>
<trkpt lat="45.9593280" lon="10.2003860">
	<ele>1071.20</ele>
	<time>2025-08-16T10:48:39.000Z</time>
</trkpt>
<trkpt lat="45.9593130" lon="10.2003970">
	<ele>1071.00</ele>
	<time>2025-08-16T10:48:40.000Z</time>
</trkpt>
<trkpt lat="45.9592960" lon="10.2004100">
	<ele>1070.60</ele>
	<time>2025-08-16T10:48:41.000Z</time>
</trkpt>
<trkpt lat="45.9592840" lon="10.2004190">
	<ele>1070.20</ele>
	<time>2025-08-16T10:48:42.000Z</time>
</trkpt>
<trkpt lat="45.9592660" lon="10.2004320">
	<ele>1069.80</ele>
	<time>2025-08-16T10:48:43.000Z</time>
</trkpt>
<trkpt lat="45.9592550" lon="10.2004420">
	<ele>1069.40</ele>
	<time>2025-08-16T10:48:44.000Z</time>
</trkpt>
<trkpt lat="45.9592440" lon="10.2004540">
	<ele>1069.00</ele>
	<time>2025-08-16T10:48:45.000Z</time>
</trkpt>
<trkpt lat="45.9592300" lon="10.2004650">
	<ele>1068.60</ele>
	<time>2025-08-16T10:48:46.000Z</time>
</trkpt>
<trkpt lat="45.9592130" lon="10.2004780">
	<ele>1068.40</ele>
	<time>2025-08-16T10:48:47.000Z</time>
</trkpt>
<trkpt lat="45.9592000" lon="10.2004880">
	<ele>1068.20</ele>
	<time>2025-08-16T10:48:48.000Z</time>
</trkpt>
<trkpt lat="45.9591840" lon="10.2004990">
	<ele>1067.80</ele>
	<time>2025-08-16T10:48:49.000Z</time>
</trkpt>
<trkpt lat="45.9591700" lon="10.2005090">
	<ele>1067.60</ele>
	<time>2025-08-16T10:48:50.000Z</time>
</trkpt>
<trkpt lat="45.9591550" lon="10.2005180">
	<ele>1067.40</ele>
	<time>2025-08-16T10:48:51.000Z</time>
</trkpt>
<trkpt lat="45.9591440" lon="10.2005270">
	<ele>1067.00</ele>
	<time>2025-08-16T10:48:52.000Z</time>
</trkpt>
<trkpt lat="45.9591320" lon="10.2005370">
	<ele>1066.60</ele>
	<time>2025-08-16T10:48:53.000Z</time>
</trkpt>
<trkpt lat="45.9591180" lon="10.2005440">
	<ele>1066.40</ele>
	<time>2025-08-16T10:48:54.000Z</time>
</trkpt>
<trkpt lat="45.9591050" lon="10.2005500">
	<ele>1066.00</ele>
	<time>2025-08-16T10:48:55.000Z</time>
</trkpt>
<trkpt lat="45.9590870" lon="10.2005550">
	<ele>1065.80</ele>
	<time>2025-08-16T10:48:56.000Z</time>
</trkpt>
<trkpt lat="45.9590710" lon="10.2005580">
	<ele>1065.60</ele>
	<time>2025-08-16T10:48:57.000Z</time>
</trkpt>
<trkpt lat="45.9590580" lon="10.2005630">
	<ele>1065.40</ele>
	<time>2025-08-16T10:48:58.000Z</time>
</trkpt>
<trkpt lat="45.9590410" lon="10.2005660">
	<ele>1065.00</ele>
	<time>2025-08-16T10:48:59.000Z</time>
</trkpt>
<trkpt lat="45.9590230" lon="10.2005690">
	<ele>1065.00</ele>
	<time>2025-08-16T10:49:00.000Z</time>
</trkpt>
<trkpt lat="45.9590080" lon="10.2005710">
	<ele>1064.80</ele>
	<time>2025-08-16T10:49:01.000Z</time>
</trkpt>
<trkpt lat="45.9589890" lon="10.2005690">
	<ele>1064.60</ele>
	<time>2025-08-16T10:49:02.000Z</time>
</trkpt>
<trkpt lat="45.9589740" lon="10.2005660">
	<ele>1064.20</ele>
	<time>2025-08-16T10:49:03.000Z</time>
</trkpt>
<trkpt lat="45.9589590" lon="10.2005630">
	<ele>1064.00</ele>
	<time>2025-08-16T10:49:04.000Z</time>
</trkpt>
<trkpt lat="45.9589470" lon="10.2005610">
	<ele>1063.60</ele>
	<time>2025-08-16T10:49:05.000Z</time>
</trkpt>
<trkpt lat="45.9589290" lon="10.2005500">
	<ele>1063.60</ele>
	<time>2025-08-16T10:49:06.000Z</time>
</trkpt>
<trkpt lat="45.9589140" lon="10.2005420">
	<ele>1063.40</ele>
	<time>2025-08-16T10:49:07.000Z</time>
</trkpt>
<trkpt lat="45.9589030" lon="10.2005340">
	<ele>1063.20</ele>
	<time>2025-08-16T10:49:08.000Z</time>
</trkpt>
<trkpt lat="45.9588900" lon="10.2005260">
	<ele>1063.20</ele>
	<time>2025-08-16T10:49:09.000Z</time>
</trkpt>
<trkpt lat="45.9588760" lon="10.2005220">
	<ele>1062.80</ele>
	<time>2025-08-16T10:49:10.000Z</time>
</trkpt>
<trkpt lat="45.9588620" lon="10.2005110">
	<ele>1062.60</ele>
	<time>2025-08-16T10:49:11.000Z</time>
</trkpt>
<trkpt lat="45.9588510" lon="10.2005010">
	<ele>1062.40</ele>
	<time>2025-08-16T10:49:12.000Z</time>
</trkpt>
<trkpt lat="45.9588350" lon="10.2004920">
	<ele>1062.20</ele>
	<time>2025-08-16T10:49:13.000Z</time>
</trkpt>
<trkpt lat="45.9588200" lon="10.2004810">
	<ele>1062.00</ele>
	<time>2025-08-16T10:49:14.000Z</time>
</trkpt>
<trkpt lat="45.9588050" lon="10.2004680">
	<ele>1061.80</ele>
	<time>2025-08-16T10:49:15.000Z</time>
</trkpt>
<trkpt lat="45.9587910" lon="10.2004580">
	<ele>1061.60</ele>
	<time>2025-08-16T10:49:16.000Z</time>
</trkpt>
<trkpt lat="45.9587810" lon="10.2004480">
	<ele>1061.40</ele>
	<time>2025-08-16T10:49:17.000Z</time>
</trkpt>
<trkpt lat="45.9587670" lon="10.2004390">
	<ele>1061.20</ele>
	<time>2025-08-16T10:49:18.000Z</time>
</trkpt>
<trkpt lat="45.9587500" lon="10.2004290">
	<ele>1060.80</ele>
	<time>2025-08-16T10:49:19.000Z</time>
</trkpt>
<trkpt lat="45.9587390" lon="10.2004220">
	<ele>1060.60</ele>
	<time>2025-08-16T10:49:20.000Z</time>
</trkpt>
<trkpt lat="45.9587260" lon="10.2004140">
	<ele>1060.40</ele>
	<time>2025-08-16T10:49:21.000Z</time>
</trkpt>
<trkpt lat="45.9587120" lon="10.2004060">
	<ele>1060.00</ele>
	<time>2025-08-16T10:49:22.000Z</time>
</trkpt>
<trkpt lat="45.9586980" lon="10.2003960">
	<ele>1059.80</ele>
	<time>2025-08-16T10:49:23.000Z</time>
</trkpt>
<trkpt lat="45.9586790" lon="10.2003860">
	<ele>1059.60</ele>
	<time>2025-08-16T10:49:24.000Z</time>
</trkpt>
<trkpt lat="45.9586640" lon="10.2003750">
	<ele>1059.40</ele>
	<time>2025-08-16T10:49:25.000Z</time>
</trkpt>
<trkpt lat="45.9586510" lon="10.2003670">
	<ele>1059.40</ele>
	<time>2025-08-16T10:49:26.000Z</time>
</trkpt>
<trkpt lat="45.9586370" lon="10.2003570">
	<ele>1059.20</ele>
	<time>2025-08-16T10:49:27.000Z</time>
</trkpt>
<trkpt lat="45.9586220" lon="10.2003470">
	<ele>1058.80</ele>
	<time>2025-08-16T10:49:28.000Z</time>
</trkpt>
<trkpt lat="45.9586070" lon="10.2003360">
	<ele>1058.60</ele>
	<time>2025-08-16T10:49:29.000Z</time>
</trkpt>
<trkpt lat="45.9585930" lon="10.2003260">
	<ele>1058.20</ele>
	<time>2025-08-16T10:49:30.000Z</time>
</trkpt>
<trkpt lat="45.9585810" lon="10.2003180">
	<ele>1058.00</ele>
	<time>2025-08-16T10:49:31.000Z</time>
</trkpt>
<trkpt lat="45.9585680" lon="10.2003090">
	<ele>1057.60</ele>
	<time>2025-08-16T10:49:32.000Z</time>
</trkpt>
<trkpt lat="45.9585540" lon="10.2002970">
	<ele>1057.40</ele>
	<time>2025-08-16T10:49:33.000Z</time>
</trkpt>
<trkpt lat="45.9585380" lon="10.2002830">
	<ele>1057.20</ele>
	<time>2025-08-16T10:49:34.000Z</time>
</trkpt>
<trkpt lat="45.9585230" lon="10.2002690">
	<ele>1057.20</ele>
	<time>2025-08-16T10:49:35.000Z</time>
</trkpt>
<trkpt lat="45.9585080" lon="10.2002560">
	<ele>1057.00</ele>
	<time>2025-08-16T10:49:36.000Z</time>
</trkpt>
<trkpt lat="45.9584920" lon="10.2002420">
	<ele>1056.80</ele>
	<time>2025-08-16T10:49:37.000Z</time>
</trkpt>
<trkpt lat="45.9584780" lon="10.2002280">
	<ele>1056.60</ele>
	<time>2025-08-16T10:49:38.000Z</time>
</trkpt>
<trkpt lat="45.9584630" lon="10.2002180">
	<ele>1056.40</ele>
	<time>2025-08-16T10:49:39.000Z</time>
</trkpt>
<trkpt lat="45.9584490" lon="10.2002100">
	<ele>1056.20</ele>
	<time>2025-08-16T10:49:40.000Z</time>
</trkpt>
<trkpt lat="45.9584360" lon="10.2002020">
	<ele>1056.00</ele>
	<time>2025-08-16T10:49:41.000Z</time>
</trkpt>
<trkpt lat="45.9584220" lon="10.2001960">
	<ele>1055.80</ele>
	<time>2025-08-16T10:49:42.000Z</time>
</trkpt>
<trkpt lat="45.9584090" lon="10.2001880">
	<ele>1055.60</ele>
	<time>2025-08-16T10:49:43.000Z</time>
</trkpt>
<trkpt lat="45.9583970" lon="10.2001780">
	<ele>1055.20</ele>
	<time>2025-08-16T10:49:44.000Z</time>
</trkpt>
<trkpt lat="45.9583820" lon="10.2001660">
	<ele>1055.00</ele>
	<time>2025-08-16T10:49:45.000Z</time>
</trkpt>
<trkpt lat="45.9583670" lon="10.2001570">
	<ele>1054.60</ele>
	<time>2025-08-16T10:49:46.000Z</time>
</trkpt>
<trkpt lat="45.9583510" lon="10.2001450">
	<ele>1054.20</ele>
	<time>2025-08-16T10:49:47.000Z</time>
</trkpt>
<trkpt lat="45.9583350" lon="10.2001330">
	<ele>1053.80</ele>
	<time>2025-08-16T10:49:48.000Z</time>
</trkpt>
<trkpt lat="45.9583200" lon="10.2001260">
	<ele>1053.40</ele>
	<time>2025-08-16T10:49:49.000Z</time>
</trkpt>
<trkpt lat="45.9583040" lon="10.2001210">
	<ele>1053.20</ele>
	<time>2025-08-16T10:49:50.000Z</time>
</trkpt>
<trkpt lat="45.9582890" lon="10.2001100">
	<ele>1052.60</ele>
	<time>2025-08-16T10:49:51.000Z</time>
</trkpt>
<trkpt lat="45.9582760" lon="10.2000990">
	<ele>1052.20</ele>
	<time>2025-08-16T10:49:52.000Z</time>
</trkpt>
<trkpt lat="45.9582620" lon="10.2000900">
	<ele>1051.80</ele>
	<time>2025-08-16T10:49:53.000Z</time>
</trkpt>
<trkpt lat="45.9582470" lon="10.2000840">
	<ele>1051.60</ele>
	<time>2025-08-16T10:49:54.000Z</time>
</trkpt>
<trkpt lat="45.9582300" lon="10.2000750">
	<ele>1051.40</ele>
	<time>2025-08-16T10:49:55.000Z</time>
</trkpt>
<trkpt lat="45.9582140" lon="10.2000650">
	<ele>1051.00</ele>
	<time>2025-08-16T10:49:56.000Z</time>
</trkpt>
<trkpt lat="45.9581970" lon="10.2000540">
	<ele>1050.60</ele>
	<time>2025-08-16T10:49:57.000Z</time>
</trkpt>
<trkpt lat="45.9581800" lon="10.2000420">
	<ele>1050.20</ele>
	<time>2025-08-16T10:49:58.000Z</time>
</trkpt>
<trkpt lat="45.9581650" lon="10.2000310">
	<ele>1049.80</ele>
	<time>2025-08-16T10:49:59.000Z</time>
</trkpt>
<trkpt lat="45.9581510" lon="10.2000210">
	<ele>1049.60</ele>
	<time>2025-08-16T10:50:00.000Z</time>
</trkpt>
<trkpt lat="45.9581350" lon="10.2000110">
	<ele>1049.00</ele>
	<time>2025-08-16T10:50:01.000Z</time>
</trkpt>
<trkpt lat="45.9581190" lon="10.2000020">
	<ele>1048.60</ele>
	<time>2025-08-16T10:50:02.000Z</time>
</trkpt>
<trkpt lat="45.9581050" lon="10.1999930">
	<ele>1048.20</ele>
	<time>2025-08-16T10:50:03.000Z</time>
</trkpt>
<trkpt lat="45.9580880" lon="10.1999840">
	<ele>1047.80</ele>
	<time>2025-08-16T10:50:04.000Z</time>
</trkpt>
<trkpt lat="45.9580730" lon="10.1999740">
	<ele>1047.60</ele>
	<time>2025-08-16T10:50:05.000Z</time>
</trkpt>
<trkpt lat="45.9580610" lon="10.1999630">
	<ele>1047.20</ele>
	<time>2025-08-16T10:50:06.000Z</time>
</trkpt>
<trkpt lat="45.9580480" lon="10.1999530">
	<ele>1046.80</ele>
	<time>2025-08-16T10:50:07.000Z</time>
</trkpt>
<trkpt lat="45.9580340" lon="10.1999430">
	<ele>1046.40</ele>
	<time>2025-08-16T10:50:08.000Z</time>
</trkpt>
<trkpt lat="45.9580180" lon="10.1999350">
	<ele>1046.20</ele>
	<time>2025-08-16T10:50:09.000Z</time>
</trkpt>
<trkpt lat="45.9580030" lon="10.1999260">
	<ele>1046.00</ele>
	<time>2025-08-16T10:50:10.000Z</time>
</trkpt>
<trkpt lat="45.9579880" lon="10.1999200">
	<ele>1045.60</ele>
	<time>2025-08-16T10:50:11.000Z</time>
</trkpt>
<trkpt lat="45.9579740" lon="10.1999150">
	<ele>1045.20</ele>
	<time>2025-08-16T10:50:12.000Z</time>
</trkpt>
<trkpt lat="45.9579610" lon="10.1999090">
	<ele>1044.80</ele>
	<time>2025-08-16T10:50:13.000Z</time>
</trkpt>
<trkpt lat="45.9579480" lon="10.1999080">
	<ele>1044.60</ele>
	<time>2025-08-16T10:50:14.000Z</time>
</trkpt>
<trkpt lat="45.9579320" lon="10.1999100">
	<ele>1044.20</ele>
	<time>2025-08-16T10:50:15.000Z</time>
</trkpt>
<trkpt lat="45.9579170" lon="10.1999140">
	<ele>1044.00</ele>
	<time>2025-08-16T10:50:16.000Z</time>
</trkpt>
<trkpt lat="45.9579010" lon="10.1999150">
	<ele>1043.60</ele>
	<time>2025-08-16T10:50:17.000Z</time>
</trkpt>
<trkpt lat="45.9578900" lon="10.1999060">
	<ele>1043.40</ele>
	<time>2025-08-16T10:50:18.000Z</time>
</trkpt>
<trkpt lat="45.9578770" lon="10.1999010">
	<ele>1042.80</ele>
	<time>2025-08-16T10:50:19.000Z</time>
</trkpt>
<trkpt lat="45.9578600" lon="10.1998930">
	<ele>1042.60</ele>
	<time>2025-08-16T10:50:20.000Z</time>
</trkpt>
<trkpt lat="45.9578430" lon="10.1998920">
	<ele>1042.20</ele>
	<time>2025-08-16T10:50:21.000Z</time>
</trkpt>
<trkpt lat="45.9578310" lon="10.1998960">
	<ele>1041.80</ele>
	<time>2025-08-16T10:50:22.000Z</time>
</trkpt>
<trkpt lat="45.9578150" lon="10.1998980">
	<ele>1041.60</ele>
	<time>2025-08-16T10:50:23.000Z</time>
</trkpt>
<trkpt lat="45.9578030" lon="10.1998920">
	<ele>1041.20</ele>
	<time>2025-08-16T10:50:24.000Z</time>
</trkpt>
<trkpt lat="45.9577910" lon="10.1998840">
	<ele>1041.00</ele>
	<time>2025-08-16T10:50:25.000Z</time>
</trkpt>
<trkpt lat="45.9577800" lon="10.1998810">
	<ele>1040.40</ele>
	<time>2025-08-16T10:50:26.000Z</time>
</trkpt>
<trkpt lat="45.9577660" lon="10.1998830">
	<ele>1040.00</ele>
	<time>2025-08-16T10:50:27.000Z</time>
</trkpt>
<trkpt lat="45.9577490" lon="10.1998830">
	<ele>1039.40</ele>
	<time>2025-08-16T10:50:28.000Z</time>
</trkpt>
<trkpt lat="45.9577350" lon="10.1998790">
	<ele>1039.20</ele>
	<time>2025-08-16T10:50:29.000Z</time>
</trkpt>
<trkpt lat="45.9577190" lon="10.1998890">
	<ele>1038.80</ele>
	<time>2025-08-16T10:50:30.000Z</time>
</trkpt>
<trkpt lat="45.9577030" lon="10.1998930">
	<ele>1038.40</ele>
	<time>2025-08-16T10:50:31.000Z</time>
</trkpt>
<trkpt lat="45.9576880" lon="10.1999000">
	<ele>1038.20</ele>
	<time>2025-08-16T10:50:32.000Z</time>
</trkpt>
<trkpt lat="45.9576660" lon="10.1999090">
	<ele>1038.00</ele>
	<time>2025-08-16T10:50:33.000Z</time>
</trkpt>
<trkpt lat="45.9576490" lon="10.1999130">
	<ele>1037.60</ele>
	<time>2025-08-16T10:50:34.000Z</time>
</trkpt>
<trkpt lat="45.9576330" lon="10.1999180">
	<ele>1037.20</ele>
	<time>2025-08-16T10:50:35.000Z</time>
</trkpt>
<trkpt lat="45.9576180" lon="10.1999220">
	<ele>1037.00</ele>
	<time>2025-08-16T10:50:36.000Z</time>
</trkpt>
<trkpt lat="45.9576050" lon="10.1999300">
	<ele>1036.60</ele>
	<time>2025-08-16T10:50:37.000Z</time>
</trkpt>
<trkpt lat="45.9575900" lon="10.1999490">
	<ele>1036.20</ele>
	<time>2025-08-16T10:50:38.000Z</time>
</trkpt>
<trkpt lat="45.9575790" lon="10.1999570">
	<ele>1036.00</ele>
	<time>2025-08-16T10:50:39.000Z</time>
</trkpt>
<trkpt lat="45.9575600" lon="10.1999690">
	<ele>1035.80</ele>
	<time>2025-08-16T10:50:40.000Z</time>
</trkpt>
<trkpt lat="45.9575450" lon="10.1999720">
	<ele>1035.60</ele>
	<time>2025-08-16T10:50:41.000Z</time>
</trkpt>
<trkpt lat="45.9575330" lon="10.1999810">
	<ele>1035.00</ele>
	<time>2025-08-16T10:50:42.000Z</time>
</trkpt>
<trkpt lat="45.9575190" lon="10.1999820">
	<ele>1034.60</ele>
	<time>2025-08-16T10:50:43.000Z</time>
</trkpt>
<trkpt lat="45.9575040" lon="10.1999800">
	<ele>1034.00</ele>
	<time>2025-08-16T10:50:44.000Z</time>
</trkpt>
<trkpt lat="45.9574840" lon="10.1999880">
	<ele>1033.60</ele>
	<time>2025-08-16T10:50:45.000Z</time>
</trkpt>
<trkpt lat="45.9574740" lon="10.1999960">
	<ele>1033.20</ele>
	<time>2025-08-16T10:50:46.000Z</time>
</trkpt>
<trkpt lat="45.9574580" lon="10.2000020">
	<ele>1033.00</ele>
	<time>2025-08-16T10:50:47.000Z</time>
</trkpt>
<trkpt lat="45.9574490" lon="10.2000090">
	<ele>1032.80</ele>
	<time>2025-08-16T10:50:48.000Z</time>
</trkpt>
<trkpt lat="45.9574390" lon="10.2000290">
	<ele>1032.40</ele>
	<time>2025-08-16T10:50:49.000Z</time>
</trkpt>
<trkpt lat="45.9574290" lon="10.2000480">
	<ele>1032.00</ele>
	<time>2025-08-16T10:50:50.000Z</time>
</trkpt>
<trkpt lat="45.9574170" lon="10.2000570">
	<ele>1031.60</ele>
	<time>2025-08-16T10:50:51.000Z</time>
</trkpt>
<trkpt lat="45.9574040" lon="10.2000710">
	<ele>1031.40</ele>
	<time>2025-08-16T10:50:52.000Z</time>
</trkpt>
<trkpt lat="45.9573860" lon="10.2000820">
	<ele>1031.00</ele>
	<time>2025-08-16T10:50:53.000Z</time>
</trkpt>
<trkpt lat="45.9573670" lon="10.2000890">
	<ele>1030.80</ele>
	<time>2025-08-16T10:50:54.000Z</time>
</trkpt>
<trkpt lat="45.9573540" lon="10.2000890">
	<ele>1030.60</ele>
	<time>2025-08-16T10:50:55.000Z</time>
</trkpt>
<trkpt lat="45.9573450" lon="10.2001000">
	<ele>1030.40</ele>
	<time>2025-08-16T10:50:56.000Z</time>
</trkpt>
<trkpt lat="45.9573330" lon="10.2001080">
	<ele>1030.20</ele>
	<time>2025-08-16T10:50:57.000Z</time>
</trkpt>
<trkpt lat="45.9573200" lon="10.2001200">
	<ele>1030.00</ele>
	<time>2025-08-16T10:50:58.000Z</time>
</trkpt>
<trkpt lat="45.9573080" lon="10.2001270">
	<ele>1029.80</ele>
	<time>2025-08-16T10:50:59.000Z</time>
</trkpt>
<trkpt lat="45.9572920" lon="10.2001390">
	<ele>1029.60</ele>
	<time>2025-08-16T10:51:00.000Z</time>
</trkpt>
<trkpt lat="45.9572780" lon="10.2001510">
	<ele>1029.20</ele>
	<time>2025-08-16T10:51:01.000Z</time>
</trkpt>
<trkpt lat="45.9572660" lon="10.2001570">
	<ele>1029.00</ele>
	<time>2025-08-16T10:51:02.000Z</time>
</trkpt>
<trkpt lat="45.9572550" lon="10.2001660">
	<ele>1028.80</ele>
	<time>2025-08-16T10:51:03.000Z</time>
</trkpt>
<trkpt lat="45.9572410" lon="10.2001780">
	<ele>1028.60</ele>
	<time>2025-08-16T10:51:04.000Z</time>
</trkpt>
<trkpt lat="45.9572290" lon="10.2001850">
	<ele>1028.40</ele>
	<time>2025-08-16T10:51:05.000Z</time>
</trkpt>
<trkpt lat="45.9572110" lon="10.2001940">
	<ele>1028.20</ele>
	<time>2025-08-16T10:51:06.000Z</time>
</trkpt>
<trkpt lat="45.9571980" lon="10.2002090">
	<ele>1027.80</ele>
	<time>2025-08-16T10:51:07.000Z</time>
</trkpt>
<trkpt lat="45.9571880" lon="10.2002200">
	<ele>1027.80</ele>
	<time>2025-08-16T10:51:08.000Z</time>
</trkpt>
<trkpt lat="45.9571740" lon="10.2002300">
	<ele>1027.60</ele>
	<time>2025-08-16T10:51:09.000Z</time>
</trkpt>
<trkpt lat="45.9571640" lon="10.2002420">
	<ele>1027.40</ele>
	<time>2025-08-16T10:51:10.000Z</time>
</trkpt>
<trkpt lat="45.9571530" lon="10.2002570">
	<ele>1027.00</ele>
	<time>2025-08-16T10:51:11.000Z</time>
</trkpt>
<trkpt lat="45.9571380" lon="10.2002770">
	<ele>1026.80</ele>
	<time>2025-08-16T10:51:12.000Z</time>
</trkpt>
<trkpt lat="45.9571260" lon="10.2002930">
	<ele>1026.60</ele>
	<time>2025-08-16T10:51:13.000Z</time>
</trkpt>
<trkpt lat="45.9571090" lon="10.2003040">
	<ele>1026.20</ele>
	<time>2025-08-16T10:51:14.000Z</time>
</trkpt>
<trkpt lat="45.9570960" lon="10.2003150">
	<ele>1026.00</ele>
	<time>2025-08-16T10:51:15.000Z</time>
</trkpt>
<trkpt lat="45.9570820" lon="10.2003280">
	<ele>1025.60</ele>
	<time>2025-08-16T10:51:16.000Z</time>
</trkpt>
<trkpt lat="45.9570690" lon="10.2003390">
	<ele>1025.40</ele>
	<time>2025-08-16T10:51:17.000Z</time>
</trkpt>
<trkpt lat="45.9570570" lon="10.2003490">
	<ele>1025.20</ele>
	<time>2025-08-16T10:51:18.000Z</time>
</trkpt>
<trkpt lat="45.9570470" lon="10.2003560">
	<ele>1025.00</ele>
	<time>2025-08-16T10:51:19.000Z</time>
</trkpt>
<trkpt lat="45.9570390" lon="10.2003650">
	<ele>1024.80</ele>
	<time>2025-08-16T10:51:20.000Z</time>
</trkpt>
<trkpt lat="45.9570290" lon="10.2003740">
	<ele>1024.60</ele>
	<time>2025-08-16T10:51:21.000Z</time>
</trkpt>
<trkpt lat="45.9570120" lon="10.2003810">
	<ele>1024.40</ele>
	<time>2025-08-16T10:51:22.000Z</time>
</trkpt>
<trkpt lat="45.9569950" lon="10.2003900">
	<ele>1024.00</ele>
	<time>2025-08-16T10:51:23.000Z</time>
</trkpt>
<trkpt lat="45.9569820" lon="10.2003950">
	<ele>1023.80</ele>
	<time>2025-08-16T10:51:24.000Z</time>
</trkpt>
<trkpt lat="45.9569620" lon="10.2004040">
	<ele>1023.60</ele>
	<time>2025-08-16T10:51:25.000Z</time>
</trkpt>
<trkpt lat="45.9569460" lon="10.2004130">
	<ele>1023.40</ele>
	<time>2025-08-16T10:51:26.000Z</time>
</trkpt>
<trkpt lat="45.9569320" lon="10.2004070">
	<ele>1023.20</ele>
	<time>2025-08-16T10:51:27.000Z</time>
</trkpt>
<trkpt lat="45.9569200" lon="10.2004080">
	<ele>1023.00</ele>
	<time>2025-08-16T10:51:28.000Z</time>
</trkpt>
<trkpt lat="45.9569050" lon="10.2004110">
	<ele>1022.80</ele>
	<time>2025-08-16T10:51:29.000Z</time>
</trkpt>
<trkpt lat="45.9568920" lon="10.2004150">
	<ele>1022.60</ele>
	<time>2025-08-16T10:51:30.000Z</time>
</trkpt>
<trkpt lat="45.9568780" lon="10.2004150">
	<ele>1022.20</ele>
	<time>2025-08-16T10:51:31.000Z</time>
</trkpt>
<trkpt lat="45.9568630" lon="10.2004120">
	<ele>1022.00</ele>
	<time>2025-08-16T10:51:32.000Z</time>
</trkpt>
<trkpt lat="45.9568430" lon="10.2004120">
	<ele>1021.80</ele>
	<time>2025-08-16T10:51:33.000Z</time>
</trkpt>
<trkpt lat="45.9568290" lon="10.2004080">
	<ele>1021.60</ele>
	<time>2025-08-16T10:51:34.000Z</time>
</trkpt>
<trkpt lat="45.9568140" lon="10.2004050">
	<ele>1021.60</ele>
	<time>2025-08-16T10:51:35.000Z</time>
</trkpt>
<trkpt lat="45.9568000" lon="10.2004040">
	<ele>1021.20</ele>
	<time>2025-08-16T10:51:36.000Z</time>
</trkpt>
<trkpt lat="45.9567800" lon="10.2004060">
	<ele>1021.20</ele>
	<time>2025-08-16T10:51:37.000Z</time>
</trkpt>
<trkpt lat="45.9567670" lon="10.2004150">
	<ele>1020.80</ele>
	<time>2025-08-16T10:51:38.000Z</time>
</trkpt>
<trkpt lat="45.9567520" lon="10.2004220">
	<ele>1020.60</ele>
	<time>2025-08-16T10:51:39.000Z</time>
</trkpt>
<trkpt lat="45.9567340" lon="10.2004240">
	<ele>1020.20</ele>
	<time>2025-08-16T10:51:40.000Z</time>
</trkpt>
<trkpt lat="45.9567140" lon="10.2004290">
	<ele>1020.00</ele>
	<time>2025-08-16T10:51:41.000Z</time>
</trkpt>
<trkpt lat="45.9566960" lon="10.2004340">
	<ele>1020.00</ele>
	<time>2025-08-16T10:51:42.000Z</time>
</trkpt>
<trkpt lat="45.9566800" lon="10.2004340">
	<ele>1019.80</ele>
	<time>2025-08-16T10:51:43.000Z</time>
</trkpt>
<trkpt lat="45.9566660" lon="10.2004360">
	<ele>1019.60</ele>
	<time>2025-08-16T10:51:44.000Z</time>
</trkpt>
<trkpt lat="45.9566480" lon="10.2004410">
	<ele>1019.60</ele>
	<time>2025-08-16T10:51:45.000Z</time>
</trkpt>
<trkpt lat="45.9566280" lon="10.2004430">
	<ele>1019.20</ele>
	<time>2025-08-16T10:51:46.000Z</time>
</trkpt>
<trkpt lat="45.9566100" lon="10.2004470">
	<ele>1019.20</ele>
	<time>2025-08-16T10:51:47.000Z</time>
</trkpt>
<trkpt lat="45.9565980" lon="10.2004490">
	<ele>1019.00</ele>
	<time>2025-08-16T10:51:48.000Z</time>
</trkpt>
<trkpt lat="45.9565790" lon="10.2004500">
	<ele>1018.80</ele>
	<time>2025-08-16T10:51:49.000Z</time>
</trkpt>
<trkpt lat="45.9565650" lon="10.2004510">
	<ele>1018.60</ele>
	<time>2025-08-16T10:51:50.000Z</time>
</trkpt>
<trkpt lat="45.9565530" lon="10.2004560">
	<ele>1018.40</ele>
	<time>2025-08-16T10:51:51.000Z</time>
</trkpt>
<trkpt lat="45.9565420" lon="10.2004580">
	<ele>1018.40</ele>
	<time>2025-08-16T10:51:52.000Z</time>
</trkpt>
<trkpt lat="45.9565280" lon="10.2004710">
	<ele>1018.20</ele>
	<time>2025-08-16T10:51:53.000Z</time>
</trkpt>
<trkpt lat="45.9565080" lon="10.2004830">
	<ele>1018.00</ele>
	<time>2025-08-16T10:51:54.000Z</time>
</trkpt>
<trkpt lat="45.9564910" lon="10.2004900">
	<ele>1017.80</ele>
	<time>2025-08-16T10:51:55.000Z</time>
</trkpt>
<trkpt lat="45.9564780" lon="10.2004910">
	<ele>1017.80</ele>
	<time>2025-08-16T10:51:56.000Z</time>
</trkpt>
<trkpt lat="45.9564640" lon="10.2005050">
	<ele>1017.60</ele>
	<time>2025-08-16T10:51:57.000Z</time>
</trkpt>
<trkpt lat="45.9564490" lon="10.2005110">
	<ele>1017.40</ele>
	<time>2025-08-16T10:51:58.000Z</time>
</trkpt>
<trkpt lat="45.9564320" lon="10.2005100">
	<ele>1017.20</ele>
	<time>2025-08-16T10:51:59.000Z</time>
</trkpt>
<trkpt lat="45.9564150" lon="10.2005050">
	<ele>1017.20</ele>
	<time>2025-08-16T10:52:00.000Z</time>
</trkpt>
<trkpt lat="45.9563950" lon="10.2005020">
	<ele>1017.20</ele>
	<time>2025-08-16T10:52:01.000Z</time>
</trkpt>
<trkpt lat="45.9563790" lon="10.2004980">
	<ele>1017.00</ele>
	<time>2025-08-16T10:52:02.000Z</time>
</trkpt>
<trkpt lat="45.9563660" lon="10.2004860">
	<ele>1016.80</ele>
	<time>2025-08-16T10:52:03.000Z</time>
</trkpt>
<trkpt lat="45.9563500" lon="10.2004820">
	<ele>1016.60</ele>
	<time>2025-08-16T10:52:04.000Z</time>
</trkpt>
<trkpt lat="45.9563350" lon="10.2004690">
	<ele>1016.20</ele>
	<time>2025-08-16T10:52:05.000Z</time>
</trkpt>
<trkpt lat="45.9563200" lon="10.2004670">
	<ele>1016.20</ele>
	<time>2025-08-16T10:52:06.000Z</time>
</trkpt>
<trkpt lat="45.9563080" lon="10.2004660">
	<ele>1016.00</ele>
	<time>2025-08-16T10:52:07.000Z</time>
</trkpt>
<trkpt lat="45.9562950" lon="10.2004640">
	<ele>1015.80</ele>
	<time>2025-08-16T10:52:08.000Z</time>
</trkpt>
<trkpt lat="45.9562790" lon="10.2004560">
	<ele>1015.60</ele>
	<time>2025-08-16T10:52:09.000Z</time>
</trkpt>
<trkpt lat="45.9562650" lon="10.2004470">
	<ele>1015.60</ele>
	<time>2025-08-16T10:52:10.000Z</time>
</trkpt>
<trkpt lat="45.9562480" lon="10.2004430">
	<ele>1015.40</ele>
	<time>2025-08-16T10:52:11.000Z</time>
</trkpt>
<trkpt lat="45.9562330" lon="10.2004390">
	<ele>1015.20</ele>
	<time>2025-08-16T10:52:12.000Z</time>
</trkpt>
<trkpt lat="45.9562160" lon="10.2004350">
	<ele>1015.20</ele>
	<time>2025-08-16T10:52:13.000Z</time>
</trkpt>
<trkpt lat="45.9561980" lon="10.2004300">
	<ele>1015.00</ele>
	<time>2025-08-16T10:52:14.000Z</time>
</trkpt>
<trkpt lat="45.9561780" lon="10.2004240">
	<ele>1014.80</ele>
	<time>2025-08-16T10:52:15.000Z</time>
</trkpt>
<trkpt lat="45.9561620" lon="10.2004150">
	<ele>1014.80</ele>
	<time>2025-08-16T10:52:16.000Z</time>
</trkpt>
<trkpt lat="45.9561460" lon="10.2004080">
	<ele>1014.60</ele>
	<time>2025-08-16T10:52:17.000Z</time>
</trkpt>
<trkpt lat="45.9561330" lon="10.2004040">
	<ele>1014.60</ele>
	<time>2025-08-16T10:52:18.000Z</time>
</trkpt>
<trkpt lat="45.9561170" lon="10.2004000">
	<ele>1014.40</ele>
	<time>2025-08-16T10:52:19.000Z</time>
</trkpt>
<trkpt lat="45.9561000" lon="10.2003990">
	<ele>1014.20</ele>
	<time>2025-08-16T10:52:20.000Z</time>
</trkpt>
<trkpt lat="45.9560900" lon="10.2004010">
	<ele>1014.00</ele>
	<time>2025-08-16T10:52:21.000Z</time>
</trkpt>
<trkpt lat="45.9560740" lon="10.2003990">
	<ele>1013.80</ele>
	<time>2025-08-16T10:52:22.000Z</time>
</trkpt>
<trkpt lat="45.9560600" lon="10.2003970">
	<ele>1013.80</ele>
	<time>2025-08-16T10:52:23.000Z</time>
</trkpt>
<trkpt lat="45.9560470" lon="10.2003990">
	<ele>1013.60</ele>
	<time>2025-08-16T10:52:24.000Z</time>
</trkpt>
<trkpt lat="45.9560340" lon="10.2003990">
	<ele>1013.40</ele>
	<time>2025-08-16T10:52:25.000Z</time>
</trkpt>
<trkpt lat="45.9560190" lon="10.2003990">
	<ele>1013.20</ele>
	<time>2025-08-16T10:52:26.000Z</time>
</trkpt>
<trkpt lat="45.9560070" lon="10.2003970">
	<ele>1013.00</ele>
	<time>2025-08-16T10:52:27.000Z</time>
</trkpt>
<trkpt lat="45.9559880" lon="10.2004020">
	<ele>1012.80</ele>
	<time>2025-08-16T10:52:28.000Z</time>
</trkpt>
<trkpt lat="45.9559750" lon="10.2004070">
	<ele>1012.80</ele>
	<time>2025-08-16T10:52:29.000Z</time>
</trkpt>
<trkpt lat="45.9559660" lon="10.2004140">
	<ele>1012.80</ele>
	<time>2025-08-16T10:52:30.000Z</time>
</trkpt>
<trkpt lat="45.9559540" lon="10.2004260">
	<ele>1012.60</ele>
	<time>2025-08-16T10:52:31.000Z</time>
</trkpt>
<trkpt lat="45.9559450" lon="10.2004400">
	<ele>1012.20</ele>
	<time>2025-08-16T10:52:32.000Z</time>
</trkpt>
<trkpt lat="45.9559390" lon="10.2004590">
	<ele>1012.20</ele>
	<time>2025-08-16T10:52:33.000Z</time>
</trkpt>
<trkpt lat="45.9559330" lon="10.2004760">
	<ele>1011.80</ele>
	<time>2025-08-16T10:52:34.000Z</time>
</trkpt>
<trkpt lat="45.9559250" lon="10.2004930">
	<ele>1011.60</ele>
	<time>2025-08-16T10:52:35.000Z</time>
</trkpt>
<trkpt lat="45.9559230" lon="10.2005120">
	<ele>1011.40</ele>
	<time>2025-08-16T10:52:36.000Z</time>
</trkpt>
<trkpt lat="45.9559210" lon="10.2005290">
	<ele>1011.00</ele>
	<time>2025-08-16T10:52:37.000Z</time>
</trkpt>
<trkpt lat="45.9559200" lon="10.2005480">
	<ele>1010.60</ele>
	<time>2025-08-16T10:52:38.000Z</time>
</trkpt>
<trkpt lat="45.9559190" lon="10.2005600">
	<ele>1010.40</ele>
	<time>2025-08-16T10:52:39.000Z</time>
</trkpt>
<trkpt lat="45.9559170" lon="10.2005750">
	<ele>1010.20</ele>
	<time>2025-08-16T10:52:40.000Z</time>
</trkpt>
<trkpt lat="45.9559150" lon="10.2005890">
	<ele>1009.80</ele>
	<time>2025-08-16T10:52:41.000Z</time>
</trkpt>
<trkpt lat="45.9559100" lon="10.2006040">
	<ele>1009.40</ele>
	<time>2025-08-16T10:52:42.000Z</time>
</trkpt>
<trkpt lat="45.9559030" lon="10.2006190">
	<ele>1009.20</ele>
	<time>2025-08-16T10:52:43.000Z</time>
</trkpt>
<trkpt lat="45.9558980" lon="10.2006390">
	<ele>1009.00</ele>
	<time>2025-08-16T10:52:44.000Z</time>
</trkpt>
<trkpt lat="45.9558960" lon="10.2006540">
	<ele>1008.40</ele>
	<time>2025-08-16T10:52:45.000Z</time>
</trkpt>
<trkpt lat="45.9558930" lon="10.2006650">
	<ele>1008.00</ele>
	<time>2025-08-16T10:52:46.000Z</time>
</trkpt>
<trkpt lat="45.9558840" lon="10.2006820">
	<ele>1007.80</ele>
	<time>2025-08-16T10:52:47.000Z</time>
</trkpt>
<trkpt lat="45.9558780" lon="10.2007000">
	<ele>1007.40</ele>
	<time>2025-08-16T10:52:48.000Z</time>
</trkpt>
<trkpt lat="45.9558730" lon="10.2007140">
	<ele>1007.00</ele>
	<time>2025-08-16T10:52:49.000Z</time>
</trkpt>
<trkpt lat="45.9558690" lon="10.2007410">
	<ele>1006.80</ele>
	<time>2025-08-16T10:52:50.000Z</time>
</trkpt>
<trkpt lat="45.9558640" lon="10.2007620">
	<ele>1006.40</ele>
	<time>2025-08-16T10:52:51.000Z</time>
</trkpt>
<trkpt lat="45.9558630" lon="10.2007810">
	<ele>1006.20</ele>
	<time>2025-08-16T10:52:52.000Z</time>
</trkpt>
<trkpt lat="45.9558630" lon="10.2008020">
	<ele>1005.80</ele>
	<time>2025-08-16T10:52:53.000Z</time>
</trkpt>
<trkpt lat="45.9558620" lon="10.2008210">
	<ele>1005.40</ele>
	<time>2025-08-16T10:52:54.000Z</time>
</trkpt>
<trkpt lat="45.9558560" lon="10.2008400">
	<ele>1005.00</ele>
	<time>2025-08-16T10:52:55.000Z</time>
</trkpt>
<trkpt lat="45.9558470" lon="10.2008560">
	<ele>1004.60</ele>
	<time>2025-08-16T10:52:56.000Z</time>
</trkpt>
<trkpt lat="45.9558400" lon="10.2008730">
	<ele>1004.40</ele>
	<time>2025-08-16T10:52:57.000Z</time>
</trkpt>
<trkpt lat="45.9558340" lon="10.2008790">
	<ele>1004.00</ele>
	<time>2025-08-16T10:52:58.000Z</time>
</trkpt>
<trkpt lat="45.9558260" lon="10.2008930">
	<ele>1003.60</ele>
	<time>2025-08-16T10:52:59.000Z</time>
</trkpt>
<trkpt lat="45.9558220" lon="10.2009110">
	<ele>1003.20</ele>
	<time>2025-08-16T10:53:00.000Z</time>
</trkpt>
<trkpt lat="45.9558140" lon="10.2009290">
	<ele>1003.00</ele>
	<time>2025-08-16T10:53:01.000Z</time>
</trkpt>
<trkpt lat="45.9558110" lon="10.2009370">
	<ele>1002.60</ele>
	<time>2025-08-16T10:53:02.000Z</time>
</trkpt>
<trkpt lat="45.9558100" lon="10.2009410">
	<ele>1002.40</ele>
	<time>2025-08-16T10:53:03.000Z</time>
</trkpt>
<trkpt lat="45.9558090" lon="10.2009410">
	<ele>1002.20</ele>
	<time>2025-08-16T10:53:04.000Z</time>
</trkpt>
<trkpt lat="45.9558100" lon="10.2009420">
	<ele>1002.00</ele>
	<time>2025-08-16T10:53:05.000Z</time>
</trkpt>
<trkpt lat="45.9558100" lon="10.2009440">
	<ele>1002.00</ele>
	<time>2025-08-16T10:53:06.000Z</time>
</trkpt>
<trkpt lat="45.9558090" lon="10.2009450">
	<ele>1002.00</ele>
	<time>2025-08-16T10:53:07.000Z</time>
</trkpt>
<trkpt lat="45.9558090" lon="10.2009530">
	<ele>1001.80</ele>
	<time>2025-08-16T10:53:08.000Z</time>
</trkpt>
<trkpt lat="45.9558110" lon="10.2009640">
	<ele>1001.80</ele>
	<time>2025-08-16T10:53:09.000Z</time>
</trkpt>
<trkpt lat="45.9558100" lon="10.2009780">
	<ele>1001.80</ele>
	<time>2025-08-16T10:53:10.000Z</time>
</trkpt>
<trkpt lat="45.9558050" lon="10.2009930">
	<ele>1001.60</ele>
	<time>2025-08-16T10:53:11.000Z</time>
</trkpt>
<trkpt lat="45.9558070" lon="10.2010120">
	<ele>1001.40</ele>
	<time>2025-08-16T10:53:12.000Z</time>
</trkpt>
<trkpt lat="45.9558030" lon="10.2010270">
	<ele>1001.20</ele>
	<time>2025-08-16T10:53:13.000Z</time>
</trkpt>
<trkpt lat="45.9557950" lon="10.2010500">
	<ele>1000.80</ele>
	<time>2025-08-16T10:53:14.000Z</time>
</trkpt>
<trkpt lat="45.9557860" lon="10.2010670">
	<ele>1000.60</ele>
	<time>2025-08-16T10:53:15.000Z</time>
</trkpt>
<trkpt lat="45.9557730" lon="10.2010860">
	<ele>1000.40</ele>
	<time>2025-08-16T10:53:16.000Z</time>
</trkpt>
<trkpt lat="45.9557660" lon="10.2010990">
	<ele>1000.00</ele>
	<time>2025-08-16T10:53:17.000Z</time>
</trkpt>
<trkpt lat="45.9557610" lon="10.2011120">
	<ele>999.60</ele>
	<time>2025-08-16T10:53:18.000Z</time>
</trkpt>
<trkpt lat="45.9557560" lon="10.2011260">
	<ele>999.20</ele>
	<time>2025-08-16T10:53:19.000Z</time>
</trkpt>
<trkpt lat="45.9557530" lon="10.2011380">
	<ele>999.00</ele>
	<time>2025-08-16T10:53:20.000Z</time>
</trkpt>
<trkpt lat="45.9557520" lon="10.2011430">
	<ele>998.80</ele>
	<time>2025-08-16T10:53:21.000Z</time>
</trkpt>
<trkpt lat="45.9557510" lon="10.2011450">
	<ele>998.60</ele>
	<time>2025-08-16T10:53:22.000Z</time>
</trkpt>
<trkpt lat="45.9557510" lon="10.2011440">
	<ele>998.40</ele>
	<time>2025-08-16T10:53:23.000Z</time>
</trkpt>
<trkpt lat="45.9557510" lon="10.2011430">
	<ele>998.40</ele>
	<time>2025-08-16T10:53:24.000Z</time>
</trkpt>
<trkpt lat="45.9557510" lon="10.2011400">
	<ele>998.20</ele>
	<time>2025-08-16T10:53:25.000Z</time>
</trkpt>
<trkpt lat="45.9557510" lon="10.2011390">
	<ele>998.20</ele>
	<time>2025-08-16T10:53:26.000Z</time>
</trkpt>
<trkpt lat="45.9557500" lon="10.2011380">
	<ele>998.20</ele>
	<time>2025-08-16T10:53:27.000Z</time>
</trkpt>
<trkpt lat="45.9557500" lon="10.2011360">
	<ele>998.20</ele>
	<time>2025-08-16T10:53:28.000Z</time>
</trkpt>
<trkpt lat="45.9557500" lon="10.2011360">
	<ele>998.20</ele>
	<time>2025-08-16T10:53:29.000Z</time>
</trkpt>
<trkpt lat="45.9557500" lon="10.2011360">
	<ele>998.20</ele>
	<time>2025-08-16T10:53:30.000Z</time>
</trkpt>
<trkpt lat="45.9557500" lon="10.2011360">
	<ele>998.20</ele>
	<time>2025-08-16T10:53:31.000Z</time>
</trkpt>
<trkpt lat="45.9557500" lon="10.2011360">
	<ele>998.20</ele>
	<time>2025-08-16T10:53:32.000Z</time>
</trkpt>
<trkpt lat="45.9557500" lon="10.2011360">
	<ele>998.20</ele>
	<time>2025-08-16T10:53:33.000Z</time>
</trkpt>
<trkpt lat="45.9557500" lon="10.2011360">
	<ele>998.20</ele>
	<time>2025-08-16T10:53:34.000Z</time>
</trkpt>
<trkpt lat="45.9557500" lon="10.2011360">
	<ele>998.20</ele>
	<time>2025-08-16T10:53:35.000Z</time>
</trkpt>
<trkpt lat="45.9557500" lon="10.2011360">
	<ele>998.20</ele>
	<time>2025-08-16T10:53:36.000Z</time>
</trkpt>
<trkpt lat="45.9557500" lon="10.2011360">
	<ele>998.20</ele>
	<time>2025-08-16T10:53:37.000Z</time>
</trkpt>
<trkpt lat="45.9557500" lon="10.2011360">
	<ele>998.20</ele>
	<time>2025-08-16T10:53:38.000Z</time>
</trkpt>
<trkpt lat="45.9557500" lon="10.2011360">
	<ele>998.20</ele>
	<time>2025-08-16T10:53:39.000Z</time>
</trkpt>
<trkpt lat="45.9557500" lon="10.2011360">
	<ele>998.00</ele>
	<time>2025-08-16T10:53:40.000Z</time>
</trkpt>
<trkpt lat="45.9557500" lon="10.2011360">
	<ele>997.80</ele>
	<time>2025-08-16T10:53:41.000Z</time>
</trkpt>
<trkpt lat="45.9557500" lon="10.2011370">
	<ele>997.80</ele>
	<time>2025-08-16T10:53:42.000Z</time>
</trkpt>
<trkpt lat="45.9557500" lon="10.2011380">
	<ele>997.80</ele>
	<time>2025-08-16T10:53:43.000Z</time>
</trkpt>
<trkpt lat="45.9557500" lon="10.2011390">
	<ele>997.80</ele>
	<time>2025-08-16T10:53:44.000Z</time>
</trkpt>
<trkpt lat="45.9557500" lon="10.2011390">
	<ele>997.80</ele>
	<time>2025-08-16T10:53:45.000Z</time>
</trkpt>
<trkpt lat="45.9557500" lon="10.2011390">
	<ele>997.80</ele>
	<time>2025-08-16T10:53:46.000Z</time>
</trkpt>
<trkpt lat="45.9557500" lon="10.2011400">
	<ele>997.80</ele>
	<time>2025-08-16T10:53:47.000Z</time>
</trkpt>
<trkpt lat="45.9557500" lon="10.2011400">
	<ele>998.00</ele>
	<time>2025-08-16T10:53:48.000Z</time>
</trkpt>
<trkpt lat="45.9557500" lon="10.2011400">
	<ele>998.00</ele>
	<time>2025-08-16T10:53:49.000Z</time>
</trkpt>
<trkpt lat="45.9557500" lon="10.2011400">
	<ele>998.00</ele>
	<time>2025-08-16T10:53:50.000Z</time>
</trkpt>
<trkpt lat="45.9557500" lon="10.2011410">
	<ele>998.00</ele>
	<time>2025-08-16T10:53:51.000Z</time>
</trkpt>
<trkpt lat="45.9557500" lon="10.2011420">
	<ele>998.00</ele>
	<time>2025-08-16T10:53:52.000Z</time>
</trkpt>
<trkpt lat="45.9557500" lon="10.2011420">
	<ele>998.00</ele>
	<time>2025-08-16T10:53:53.000Z</time>
</trkpt>
<trkpt lat="45.9557500" lon="10.2011420">
	<ele>998.00</ele>
	<time>2025-08-16T10:53:54.000Z</time>
</trkpt>
<trkpt lat="45.9557500" lon="10.2011420">
	<ele>998.00</ele>
	<time>2025-08-16T10:53:55.000Z</time>
</trkpt>
<trkpt lat="45.9557500" lon="10.2011420">
	<ele>997.80</ele>
	<time>2025-08-16T10:53:56.000Z</time>
</trkpt>
<trkpt lat="45.9557490" lon="10.2011440">
	<ele>997.80</ele>
	<time>2025-08-16T10:53:57.000Z</time>
</trkpt>
<trkpt lat="45.9557490" lon="10.2011470">
	<ele>997.80</ele>
	<time>2025-08-16T10:53:58.000Z</time>
</trkpt>
<trkpt lat="45.9557490" lon="10.2011470">
	<ele>997.80</ele>
	<time>2025-08-16T10:53:59.000Z</time>
</trkpt>
<trkpt lat="45.9557490" lon="10.2011480">
	<ele>997.80</ele>
	<time>2025-08-16T10:54:00.000Z</time>
</trkpt>
<trkpt lat="45.9557490" lon="10.2011480">
	<ele>997.80</ele>
	<time>2025-08-16T10:54:01.000Z</time>
</trkpt>
<trkpt lat="45.9557490" lon="10.2011490">
	<ele>997.80</ele>
	<time>2025-08-16T10:54:02.000Z</time>
</trkpt>
<trkpt lat="45.9557470" lon="10.2011550">
	<ele>997.60</ele>
	<time>2025-08-16T10:54:03.000Z</time>
</trkpt>
<trkpt lat="45.9557390" lon="10.2011830">
	<ele>997.40</ele>
	<time>2025-08-16T10:54:04.000Z</time>
</trkpt>
<trkpt lat="45.9557320" lon="10.2012020">
	<ele>997.20</ele>
	<time>2025-08-16T10:54:05.000Z</time>
</trkpt>
<trkpt lat="45.9557210" lon="10.2012230">
	<ele>996.80</ele>
	<time>2025-08-16T10:54:06.000Z</time>
</trkpt>
<trkpt lat="45.9557100" lon="10.2012450">
	<ele>996.40</ele>
	<time>2025-08-16T10:54:07.000Z</time>
</trkpt>
<trkpt lat="45.9556980" lon="10.2012670">
	<ele>996.00</ele>
	<time>2025-08-16T10:54:08.000Z</time>
</trkpt>
<trkpt lat="45.9556870" lon="10.2012930">
	<ele>995.60</ele>
	<time>2025-08-16T10:54:09.000Z</time>
</trkpt>
<trkpt lat="45.9556800" lon="10.2013130">
	<ele>995.40</ele>
	<time>2025-08-16T10:54:10.000Z</time>
</trkpt>
<trkpt lat="45.9556700" lon="10.2013380">
	<ele>995.00</ele>
	<time>2025-08-16T10:54:11.000Z</time>
</trkpt>
<trkpt lat="45.9556570" lon="10.2013650">
	<ele>994.40</ele>
	<time>2025-08-16T10:54:12.000Z</time>
</trkpt>
<trkpt lat="45.9556500" lon="10.2013800">
	<ele>994.00</ele>
	<time>2025-08-16T10:54:13.000Z</time>
</trkpt>
<trkpt lat="45.9556410" lon="10.2013990">
	<ele>993.60</ele>
	<time>2025-08-16T10:54:14.000Z</time>
</trkpt>
<trkpt lat="45.9556330" lon="10.2014150">
	<ele>993.40</ele>
	<time>2025-08-16T10:54:15.000Z</time>
</trkpt>
<trkpt lat="45.9556280" lon="10.2014300">
	<ele>993.00</ele>
	<time>2025-08-16T10:54:16.000Z</time>
</trkpt>
<trkpt lat="45.9556220" lon="10.2014470">
	<ele>992.60</ele>
	<time>2025-08-16T10:54:17.000Z</time>
</trkpt>
<trkpt lat="45.9556150" lon="10.2014660">
	<ele>992.40</ele>
	<time>2025-08-16T10:54:18.000Z</time>
</trkpt>
<trkpt lat="45.9556090" lon="10.2014870">
	<ele>992.00</ele>
	<time>2025-08-16T10:54:19.000Z</time>
</trkpt>
<trkpt lat="45.9555990" lon="10.2015080">
	<ele>991.60</ele>
	<time>2025-08-16T10:54:20.000Z</time>
</trkpt>
<trkpt lat="45.9555880" lon="10.2015270">
	<ele>991.20</ele>
	<time>2025-08-16T10:54:21.000Z</time>
</trkpt>
<trkpt lat="45.9555780" lon="10.2015480">
	<ele>991.00</ele>
	<time>2025-08-16T10:54:22.000Z</time>
</trkpt>
<trkpt lat="45.9555700" lon="10.2015660">
	<ele>990.60</ele>
	<time>2025-08-16T10:54:23.000Z</time>
</trkpt>
<trkpt lat="45.9555640" lon="10.2015840">
	<ele>990.40</ele>
	<time>2025-08-16T10:54:24.000Z</time>
</trkpt>
<trkpt lat="45.9555550" lon="10.2016030">
	<ele>989.80</ele>
	<time>2025-08-16T10:54:25.000Z</time>
</trkpt>
<trkpt lat="45.9555460" lon="10.2016200">
	<ele>989.60</ele>
	<time>2025-08-16T10:54:26.000Z</time>
</trkpt>
<trkpt lat="45.9555390" lon="10.2016380">
	<ele>989.20</ele>
	<time>2025-08-16T10:54:27.000Z</time>
</trkpt>
<trkpt lat="45.9555300" lon="10.2016590">
	<ele>989.00</ele>
	<time>2025-08-16T10:54:28.000Z</time>
</trkpt>
<trkpt lat="45.9555220" lon="10.2016730">
	<ele>988.80</ele>
	<time>2025-08-16T10:54:29.000Z</time>
</trkpt>
<trkpt lat="45.9555100" lon="10.2016900">
	<ele>988.40</ele>
	<time>2025-08-16T10:54:30.000Z</time>
</trkpt>
<trkpt lat="45.9555010" lon="10.2017080">
	<ele>988.00</ele>
	<time>2025-08-16T10:54:31.000Z</time>
</trkpt>
<trkpt lat="45.9554920" lon="10.2017250">
	<ele>987.80</ele>
	<time>2025-08-16T10:54:32.000Z</time>
</trkpt>
<trkpt lat="45.9554820" lon="10.2017420">
	<ele>987.60</ele>
	<time>2025-08-16T10:54:33.000Z</time>
</trkpt>
<trkpt lat="45.9554710" lon="10.2017590">
	<ele>987.00</ele>
	<time>2025-08-16T10:54:34.000Z</time>
</trkpt>
<trkpt lat="45.9554580" lon="10.2017790">
	<ele>986.60</ele>
	<time>2025-08-16T10:54:35.000Z</time>
</trkpt>
<trkpt lat="45.9554460" lon="10.2018000">
	<ele>986.20</ele>
	<time>2025-08-16T10:54:36.000Z</time>
</trkpt>
<trkpt lat="45.9554380" lon="10.2018140">
	<ele>985.60</ele>
	<time>2025-08-16T10:54:37.000Z</time>
</trkpt>
<trkpt lat="45.9554290" lon="10.2018300">
	<ele>985.40</ele>
	<time>2025-08-16T10:54:38.000Z</time>
</trkpt>
<trkpt lat="45.9554210" lon="10.2018460">
	<ele>985.00</ele>
	<time>2025-08-16T10:54:39.000Z</time>
</trkpt>
<trkpt lat="45.9554110" lon="10.2018580">
	<ele>984.80</ele>
	<time>2025-08-16T10:54:40.000Z</time>
</trkpt>
<trkpt lat="45.9553990" lon="10.2018710">
	<ele>984.40</ele>
	<time>2025-08-16T10:54:41.000Z</time>
</trkpt>
<trkpt lat="45.9553850" lon="10.2018840">
	<ele>984.20</ele>
	<time>2025-08-16T10:54:42.000Z</time>
</trkpt>
<trkpt lat="45.9553730" lon="10.2019020">
	<ele>984.00</ele>
	<time>2025-08-16T10:54:43.000Z</time>
</trkpt>
<trkpt lat="45.9553650" lon="10.2019190">
	<ele>983.60</ele>
	<time>2025-08-16T10:54:44.000Z</time>
</trkpt>
<trkpt lat="45.9553570" lon="10.2019360">
	<ele>983.20</ele>
	<time>2025-08-16T10:54:45.000Z</time>
</trkpt>
<trkpt lat="45.9553480" lon="10.2019500">
	<ele>982.80</ele>
	<time>2025-08-16T10:54:46.000Z</time>
</trkpt>
<trkpt lat="45.9553380" lon="10.2019630">
	<ele>982.40</ele>
	<time>2025-08-16T10:54:47.000Z</time>
</trkpt>
<trkpt lat="45.9553260" lon="10.2019740">
	<ele>982.20</ele>
	<time>2025-08-16T10:54:48.000Z</time>
</trkpt>
<trkpt lat="45.9553130" lon="10.2019830">
	<ele>982.00</ele>
	<time>2025-08-16T10:54:49.000Z</time>
</trkpt>
<trkpt lat="45.9553000" lon="10.2019930">
	<ele>981.80</ele>
	<time>2025-08-16T10:54:50.000Z</time>
</trkpt>
<trkpt lat="45.9552850" lon="10.2020030">
	<ele>981.40</ele>
	<time>2025-08-16T10:54:51.000Z</time>
</trkpt>
<trkpt lat="45.9552710" lon="10.2020110">
	<ele>981.20</ele>
	<time>2025-08-16T10:54:52.000Z</time>
</trkpt>
<trkpt lat="45.9552550" lon="10.2020160">
	<ele>981.00</ele>
	<time>2025-08-16T10:54:53.000Z</time>
</trkpt>
<trkpt lat="45.9552410" lon="10.2020180">
	<ele>980.80</ele>
	<time>2025-08-16T10:54:54.000Z</time>
</trkpt>
<trkpt lat="45.9552320" lon="10.2020200">
	<ele>980.40</ele>
	<time>2025-08-16T10:54:55.000Z</time>
</trkpt>
<trkpt lat="45.9552230" lon="10.2020280">
	<ele>980.40</ele>
	<time>2025-08-16T10:54:56.000Z</time>
</trkpt>
<trkpt lat="45.9552140" lon="10.2020350">
	<ele>980.20</ele>
	<time>2025-08-16T10:54:57.000Z</time>
</trkpt>
<trkpt lat="45.9552020" lon="10.2020380">
	<ele>980.00</ele>
	<time>2025-08-16T10:54:58.000Z</time>
</trkpt>
<trkpt lat="45.9551870" lon="10.2020430">
	<ele>979.80</ele>
	<time>2025-08-16T10:54:59.000Z</time>
</trkpt>
<trkpt lat="45.9551730" lon="10.2020510">
	<ele>979.60</ele>
	<time>2025-08-16T10:55:00.000Z</time>
</trkpt>
<trkpt lat="45.9551580" lon="10.2020590">
	<ele>979.20</ele>
	<time>2025-08-16T10:55:01.000Z</time>
</trkpt>
<trkpt lat="45.9551430" lon="10.2020660">
	<ele>979.00</ele>
	<time>2025-08-16T10:55:02.000Z</time>
</trkpt>
<trkpt lat="45.9551290" lon="10.2020750">
	<ele>978.60</ele>
	<time>2025-08-16T10:55:03.000Z</time>
</trkpt>
<trkpt lat="45.9551190" lon="10.2020800">
	<ele>978.40</ele>
	<time>2025-08-16T10:55:04.000Z</time>
</trkpt>
<trkpt lat="45.9551090" lon="10.2020880">
	<ele>978.20</ele>
	<time>2025-08-16T10:55:05.000Z</time>
</trkpt>
<trkpt lat="45.9551000" lon="10.2020960">
	<ele>978.00</ele>
	<time>2025-08-16T10:55:06.000Z</time>
</trkpt>
<trkpt lat="45.9550900" lon="10.2021040">
	<ele>977.80</ele>
	<time>2025-08-16T10:55:07.000Z</time>
</trkpt>
<trkpt lat="45.9550760" lon="10.2021130">
	<ele>977.60</ele>
	<time>2025-08-16T10:55:08.000Z</time>
</trkpt>
<trkpt lat="45.9550640" lon="10.2021230">
	<ele>977.00</ele>
	<time>2025-08-16T10:55:09.000Z</time>
</trkpt>
<trkpt lat="45.9550520" lon="10.2021360">
	<ele>976.80</ele>
	<time>2025-08-16T10:55:10.000Z</time>
</trkpt>
<trkpt lat="45.9550370" lon="10.2021480">
	<ele>976.60</ele>
	<time>2025-08-16T10:55:11.000Z</time>
</trkpt>
<trkpt lat="45.9550200" lon="10.2021610">
	<ele>976.40</ele>
	<time>2025-08-16T10:55:12.000Z</time>
</trkpt>
<trkpt lat="45.9550040" lon="10.2021730">
	<ele>976.20</ele>
	<time>2025-08-16T10:55:13.000Z</time>
</trkpt>
<trkpt lat="45.9549900" lon="10.2021840">
	<ele>976.00</ele>
	<time>2025-08-16T10:55:14.000Z</time>
</trkpt>
<trkpt lat="45.9549780" lon="10.2021940">
	<ele>975.80</ele>
	<time>2025-08-16T10:55:15.000Z</time>
</trkpt>
<trkpt lat="45.9549680" lon="10.2022020">
	<ele>975.40</ele>
	<time>2025-08-16T10:55:16.000Z</time>
</trkpt>
<trkpt lat="45.9549550" lon="10.2022090">
	<ele>975.20</ele>
	<time>2025-08-16T10:55:17.000Z</time>
</trkpt>
<trkpt lat="45.9549400" lon="10.2022180">
	<ele>975.00</ele>
	<time>2025-08-16T10:55:18.000Z</time>
</trkpt>
<trkpt lat="45.9549250" lon="10.2022250">
	<ele>974.60</ele>
	<time>2025-08-16T10:55:19.000Z</time>
</trkpt>
<trkpt lat="45.9549120" lon="10.2022320">
	<ele>974.40</ele>
	<time>2025-08-16T10:55:20.000Z</time>
</trkpt>
<trkpt lat="45.9549020" lon="10.2022390">
	<ele>974.20</ele>
	<time>2025-08-16T10:55:21.000Z</time>
</trkpt>
<trkpt lat="45.9548880" lon="10.2022480">
	<ele>973.80</ele>
	<time>2025-08-16T10:55:22.000Z</time>
</trkpt>
<trkpt lat="45.9548740" lon="10.2022630">
	<ele>973.60</ele>
	<time>2025-08-16T10:55:23.000Z</time>
</trkpt>
<trkpt lat="45.9548610" lon="10.2022750">
	<ele>973.40</ele>
	<time>2025-08-16T10:55:24.000Z</time>
</trkpt>
<trkpt lat="45.9548520" lon="10.2022850">
	<ele>973.20</ele>
	<time>2025-08-16T10:55:25.000Z</time>
</trkpt>
<trkpt lat="45.9548420" lon="10.2022960">
	<ele>973.00</ele>
	<time>2025-08-16T10:55:26.000Z</time>
</trkpt>
<trkpt lat="45.9548280" lon="10.2023060">
	<ele>972.80</ele>
	<time>2025-08-16T10:55:27.000Z</time>
</trkpt>
<trkpt lat="45.9548130" lon="10.2023200">
	<ele>972.60</ele>
	<time>2025-08-16T10:55:28.000Z</time>
</trkpt>
<trkpt lat="45.9547990" lon="10.2023340">
	<ele>972.20</ele>
	<time>2025-08-16T10:55:29.000Z</time>
</trkpt>
<trkpt lat="45.9547860" lon="10.2023470">
	<ele>972.20</ele>
	<time>2025-08-16T10:55:30.000Z</time>
</trkpt>
<trkpt lat="45.9547750" lon="10.2023620">
	<ele>972.00</ele>
	<time>2025-08-16T10:55:31.000Z</time>
</trkpt>
<trkpt lat="45.9547660" lon="10.2023800">
	<ele>971.60</ele>
	<time>2025-08-16T10:55:32.000Z</time>
</trkpt>
<trkpt lat="45.9547540" lon="10.2023960">
	<ele>971.60</ele>
	<time>2025-08-16T10:55:33.000Z</time>
</trkpt>
<trkpt lat="45.9547390" lon="10.2024130">
	<ele>971.20</ele>
	<time>2025-08-16T10:55:34.000Z</time>
</trkpt>
<trkpt lat="45.9547240" lon="10.2024250">
	<ele>970.80</ele>
	<time>2025-08-16T10:55:35.000Z</time>
</trkpt>
<trkpt lat="45.9547130" lon="10.2024370">
	<ele>970.60</ele>
	<time>2025-08-16T10:55:36.000Z</time>
</trkpt>
<trkpt lat="45.9547020" lon="10.2024490">
	<ele>970.40</ele>
	<time>2025-08-16T10:55:37.000Z</time>
</trkpt>
<trkpt lat="45.9546890" lon="10.2024700">
	<ele>970.20</ele>
	<time>2025-08-16T10:55:38.000Z</time>
</trkpt>
<trkpt lat="45.9546760" lon="10.2024840">
	<ele>970.00</ele>
	<time>2025-08-16T10:55:39.000Z</time>
</trkpt>
<trkpt lat="45.9546660" lon="10.2024940">
	<ele>969.60</ele>
	<time>2025-08-16T10:55:40.000Z</time>
</trkpt>
<trkpt lat="45.9546520" lon="10.2025100">
	<ele>969.60</ele>
	<time>2025-08-16T10:55:41.000Z</time>
</trkpt>
<trkpt lat="45.9546360" lon="10.2025240">
	<ele>969.40</ele>
	<time>2025-08-16T10:55:42.000Z</time>
</trkpt>
<trkpt lat="45.9546230" lon="10.2025410">
	<ele>969.20</ele>
	<time>2025-08-16T10:55:43.000Z</time>
</trkpt>
<trkpt lat="45.9546130" lon="10.2025570">
	<ele>968.60</ele>
	<time>2025-08-16T10:55:44.000Z</time>
</trkpt>
<trkpt lat="45.9546020" lon="10.2025720">
	<ele>968.40</ele>
	<time>2025-08-16T10:55:45.000Z</time>
</trkpt>
<trkpt lat="45.9545920" lon="10.2025860">
	<ele>968.20</ele>
	<time>2025-08-16T10:55:46.000Z</time>
</trkpt>
<trkpt lat="45.9545770" lon="10.2025970">
	<ele>968.00</ele>
	<time>2025-08-16T10:55:47.000Z</time>
</trkpt>
<trkpt lat="45.9545650" lon="10.2026110">
	<ele>967.80</ele>
	<time>2025-08-16T10:55:48.000Z</time>
</trkpt>
<trkpt lat="45.9545580" lon="10.2026220">
	<ele>967.60</ele>
	<time>2025-08-16T10:55:49.000Z</time>
</trkpt>
<trkpt lat="45.9545460" lon="10.2026290">
	<ele>967.20</ele>
	<time>2025-08-16T10:55:50.000Z</time>
</trkpt>
<trkpt lat="45.9545320" lon="10.2026310">
	<ele>967.00</ele>
	<time>2025-08-16T10:55:51.000Z</time>
</trkpt>
<trkpt lat="45.9545190" lon="10.2026320">
	<ele>966.80</ele>
	<time>2025-08-16T10:55:52.000Z</time>
</trkpt>
<trkpt lat="45.9545080" lon="10.2026330">
	<ele>966.60</ele>
	<time>2025-08-16T10:55:53.000Z</time>
</trkpt>
<trkpt lat="45.9544960" lon="10.2026350">
	<ele>966.40</ele>
	<time>2025-08-16T10:55:54.000Z</time>
</trkpt>
<trkpt lat="45.9544810" lon="10.2026390">
	<ele>966.20</ele>
	<time>2025-08-16T10:55:55.000Z</time>
</trkpt>
<trkpt lat="45.9544640" lon="10.2026420">
	<ele>966.00</ele>
	<time>2025-08-16T10:55:56.000Z</time>
</trkpt>
<trkpt lat="45.9544460" lon="10.2026490">
	<ele>966.00</ele>
	<time>2025-08-16T10:55:57.000Z</time>
</trkpt>
<trkpt lat="45.9544390" lon="10.2026570">
	<ele>965.80</ele>
	<time>2025-08-16T10:55:58.000Z</time>
</trkpt>
<trkpt lat="45.9544340" lon="10.2026750">
	<ele>965.40</ele>
	<time>2025-08-16T10:55:59.000Z</time>
</trkpt>
<trkpt lat="45.9544350" lon="10.2026910">
	<ele>965.00</ele>
	<time>2025-08-16T10:56:00.000Z</time>
</trkpt>
<trkpt lat="45.9544390" lon="10.2027060">
	<ele>964.80</ele>
	<time>2025-08-16T10:56:01.000Z</time>
</trkpt>
<trkpt lat="45.9544430" lon="10.2027220">
	<ele>964.60</ele>
	<time>2025-08-16T10:56:02.000Z</time>
</trkpt>
<trkpt lat="45.9544470" lon="10.2027330">
	<ele>964.60</ele>
	<time>2025-08-16T10:56:03.000Z</time>
</trkpt>
<trkpt lat="45.9544530" lon="10.2027460">
	<ele>964.40</ele>
	<time>2025-08-16T10:56:04.000Z</time>
</trkpt>
<trkpt lat="45.9544600" lon="10.2027580">
	<ele>964.40</ele>
	<time>2025-08-16T10:56:05.000Z</time>
</trkpt>
</trkseg>
</trk>
</gpx>
